<?xml version="1.0" encoding="UTF-8" standalone="no" ?>
<gpx xmlns="http://www.topografix.com/GPX/1/1" xmlns:xsi="http://www.w3.org/2001/XMLSchema-instance" xsi:schemaLocation="http://www.topografix.com/GPX/1/1 http://www.topografix.com/GPX/1/1/gpx.xsd" version="1.1" creator="VisuGPX - https://www.visugpx.com">
  <metadata>
    <name>Col d'Enclave - col du Bonhomme</name>
  </metadata>
  <trk>
    <name><![CDATA[2017-08-29 18:13:26-Course TT]]></name>
    <trkseg>
      <trkpt lat="45.79095" lon="6.71563">
        <ele>1232.07</ele>
        <time>2017-08-29T09:31:15Z</time>
      </trkpt>
      <trkpt lat="45.79094" lon="6.71562">
        <ele>1295.99</ele>
        <time>2017-08-29T09:31:16Z</time>
      </trkpt>
      <trkpt lat="45.79093" lon="6.71562">
        <ele>1295.99</ele>
        <time>2017-08-29T09:31:17Z</time>
      </trkpt>
      <trkpt lat="45.79092" lon="6.7156">
        <ele>1233.03</ele>
        <time>2017-08-29T09:31:19Z</time>
      </trkpt>
      <trkpt lat="45.79091" lon="6.7156">
        <ele>1233.03</ele>
        <time>2017-08-29T09:31:20Z</time>
      </trkpt>
      <trkpt lat="45.79087" lon="6.71554">
        <ele>1234.95</ele>
        <time>2017-08-29T09:31:27Z</time>
      </trkpt>
      <trkpt lat="45.79081" lon="6.71546">
        <ele>1237.35</ele>
        <time>2017-08-29T09:31:35Z</time>
      </trkpt>
      <trkpt lat="45.79076" lon="6.71543">
        <ele>1238.32</ele>
        <time>2017-08-29T09:31:39Z</time>
      </trkpt>
      <trkpt lat="45.79075" lon="6.71542">
        <ele>1238.8</ele>
        <time>2017-08-29T09:31:40Z</time>
      </trkpt>
      <trkpt lat="45.79074" lon="6.71542">
        <ele>1238.8</ele>
        <time>2017-08-29T09:31:41Z</time>
      </trkpt>
      <trkpt lat="45.79073" lon="6.71542">
        <ele>1238.8</ele>
        <time>2017-08-29T09:31:42Z</time>
      </trkpt>
      <trkpt lat="45.79071" lon="6.71542">
        <ele>1239.28</ele>
        <time>2017-08-29T09:31:43Z</time>
      </trkpt>
      <trkpt lat="45.7907" lon="6.71541">
        <ele>1239.76</ele>
        <time>2017-08-29T09:31:44Z</time>
      </trkpt>
      <trkpt lat="45.79069" lon="6.71541">
        <ele>1240.24</ele>
        <time>2017-08-29T09:31:45Z</time>
      </trkpt>
      <trkpt lat="45.79061" lon="6.71539">
        <ele>1241.68</ele>
        <time>2017-08-29T09:31:51Z</time>
      </trkpt>
      <trkpt lat="45.79058" lon="6.71537">
        <ele>1243.12</ele>
        <time>2017-08-29T09:31:55Z</time>
      </trkpt>
      <trkpt lat="45.79058" lon="6.71536">
        <ele>1243.6</ele>
        <time>2017-08-29T09:31:56Z</time>
      </trkpt>
      <trkpt lat="45.79056" lon="6.71536">
        <ele>1244.08</ele>
        <time>2017-08-29T09:31:58Z</time>
      </trkpt>
      <trkpt lat="45.79054" lon="6.71534">
        <ele>1246.01</ele>
        <time>2017-08-29T09:32:06Z</time>
      </trkpt>
      <trkpt lat="45.79054" lon="6.71533">
        <ele>1246.49</ele>
        <time>2017-08-29T09:32:07Z</time>
      </trkpt>
      <trkpt lat="45.7904" lon="6.71517">
        <ele>1249.37</ele>
        <time>2017-08-29T09:32:18Z</time>
      </trkpt>
      <trkpt lat="45.79032" lon="6.7151">
        <ele>1252.25</ele>
        <time>2017-08-29T09:32:25Z</time>
      </trkpt>
      <trkpt lat="45.79023" lon="6.71502">
        <ele>1255.14</ele>
        <time>2017-08-29T09:32:32Z</time>
      </trkpt>
      <trkpt lat="45.79017" lon="6.71494">
        <ele>1258.02</ele>
        <time>2017-08-29T09:32:39Z</time>
      </trkpt>
      <trkpt lat="45.79006" lon="6.7149">
        <ele>1261.39</ele>
        <time>2017-08-29T09:32:48Z</time>
      </trkpt>
      <trkpt lat="45.79005" lon="6.71489">
        <ele>1261.87</ele>
        <time>2017-08-29T09:32:49Z</time>
      </trkpt>
      <trkpt lat="45.78994" lon="6.71484">
        <ele>1264.75</ele>
        <time>2017-08-29T09:32:56Z</time>
      </trkpt>
      <trkpt lat="45.78981" lon="6.71473">
        <ele>1268.12</ele>
        <time>2017-08-29T09:33:06Z</time>
      </trkpt>
      <trkpt lat="45.78979" lon="6.71472">
        <ele>1269.08</ele>
        <time>2017-08-29T09:33:09Z</time>
      </trkpt>
      <trkpt lat="45.78978" lon="6.71471">
        <ele>1269.08</ele>
        <time>2017-08-29T09:33:10Z</time>
      </trkpt>
      <trkpt lat="45.78976" lon="6.71471">
        <ele>1269.56</ele>
        <time>2017-08-29T09:33:11Z</time>
      </trkpt>
      <trkpt lat="45.78975" lon="6.71471">
        <ele>1270.04</ele>
        <time>2017-08-29T09:33:12Z</time>
      </trkpt>
      <trkpt lat="45.78974" lon="6.71472">
        <ele>1270.04</ele>
        <time>2017-08-29T09:33:13Z</time>
      </trkpt>
      <trkpt lat="45.78974" lon="6.71473">
        <ele>1270.52</ele>
        <time>2017-08-29T09:33:14Z</time>
      </trkpt>
      <trkpt lat="45.78972" lon="6.71472">
        <ele>1271</ele>
        <time>2017-08-29T09:33:16Z</time>
      </trkpt>
      <trkpt lat="45.78971" lon="6.71472">
        <ele>1271.48</ele>
        <time>2017-08-29T09:33:17Z</time>
      </trkpt>
      <trkpt lat="45.78969" lon="6.71471">
        <ele>1271.96</ele>
        <time>2017-08-29T09:33:18Z</time>
      </trkpt>
      <trkpt lat="45.78968" lon="6.71471">
        <ele>1271.96</ele>
        <time>2017-08-29T09:33:19Z</time>
      </trkpt>
      <trkpt lat="45.78967" lon="6.71471">
        <ele>1271.96</ele>
        <time>2017-08-29T09:33:20Z</time>
      </trkpt>
      <trkpt lat="45.78953" lon="6.71468">
        <ele>1275.33</ele>
        <time>2017-08-29T09:33:27Z</time>
      </trkpt>
      <trkpt lat="45.78939" lon="6.71466">
        <ele>1278.21</ele>
        <time>2017-08-29T09:33:36Z</time>
      </trkpt>
      <trkpt lat="45.7892" lon="6.71451">
        <ele>1279.65</ele>
        <time>2017-08-29T09:33:47Z</time>
      </trkpt>
      <trkpt lat="45.78906" lon="6.71445">
        <ele>1282.06</ele>
        <time>2017-08-29T09:34:00Z</time>
      </trkpt>
      <trkpt lat="45.78904" lon="6.71445">
        <ele>1282.54</ele>
        <time>2017-08-29T09:34:01Z</time>
      </trkpt>
      <trkpt lat="45.78903" lon="6.71445">
        <ele>1283.02</ele>
        <time>2017-08-29T09:34:02Z</time>
      </trkpt>
      <trkpt lat="45.78885" lon="6.71438">
        <ele>1283.98</ele>
        <time>2017-08-29T09:34:14Z</time>
      </trkpt>
      <trkpt lat="45.78853" lon="6.71424">
        <ele>1286.38</ele>
        <time>2017-08-29T09:34:27Z</time>
      </trkpt>
      <trkpt lat="45.78846" lon="6.71403">
        <ele>1289.27</ele>
        <time>2017-08-29T09:34:38Z</time>
      </trkpt>
      <trkpt lat="45.78846" lon="6.71403">
        <ele>1289.75</ele>
        <time>2017-08-29T09:34:39Z</time>
      </trkpt>
      <trkpt lat="45.78845" lon="6.71401">
        <ele>1289.75</ele>
        <time>2017-08-29T09:34:40Z</time>
      </trkpt>
      <trkpt lat="45.78845" lon="6.714">
        <ele>1290.23</ele>
        <time>2017-08-29T09:34:41Z</time>
      </trkpt>
      <trkpt lat="45.78826" lon="6.71385">
        <ele>1293.11</ele>
        <time>2017-08-29T09:34:55Z</time>
      </trkpt>
      <trkpt lat="45.7881" lon="6.71375">
        <ele>1294.55</ele>
        <time>2017-08-29T09:35:06Z</time>
      </trkpt>
      <trkpt lat="45.78787" lon="6.71368">
        <ele>1296.48</ele>
        <time>2017-08-29T09:35:20Z</time>
      </trkpt>
      <trkpt lat="45.78767" lon="6.71352">
        <ele>1298.4</ele>
        <time>2017-08-29T09:35:32Z</time>
      </trkpt>
      <trkpt lat="45.78751" lon="6.71337">
        <ele>1301.28</ele>
        <time>2017-08-29T09:35:46Z</time>
      </trkpt>
      <trkpt lat="45.78748" lon="6.71336">
        <ele>1301.76</ele>
        <time>2017-08-29T09:35:49Z</time>
      </trkpt>
      <trkpt lat="45.78747" lon="6.71336">
        <ele>1301.76</ele>
        <time>2017-08-29T09:35:50Z</time>
      </trkpt>
      <trkpt lat="45.7874" lon="6.71333">
        <ele>1302.72</ele>
        <time>2017-08-29T09:35:55Z</time>
      </trkpt>
      <trkpt lat="45.78738" lon="6.71332">
        <ele>1303.2</ele>
        <time>2017-08-29T09:35:56Z</time>
      </trkpt>
      <trkpt lat="45.78737" lon="6.71332">
        <ele>1303.2</ele>
        <time>2017-08-29T09:35:57Z</time>
      </trkpt>
      <trkpt lat="45.78737" lon="6.71331">
        <ele>1303.2</ele>
        <time>2017-08-29T09:35:58Z</time>
      </trkpt>
      <trkpt lat="45.78728" lon="6.71329">
        <ele>1305.13</ele>
        <time>2017-08-29T09:36:04Z</time>
      </trkpt>
      <trkpt lat="45.78726" lon="6.71327">
        <ele>1305.13</ele>
        <time>2017-08-29T09:36:06Z</time>
      </trkpt>
      <trkpt lat="45.78725" lon="6.71326">
        <ele>1305.61</ele>
        <time>2017-08-29T09:36:07Z</time>
      </trkpt>
      <trkpt lat="45.7872" lon="6.71321">
        <ele>1306.57</ele>
        <time>2017-08-29T09:36:12Z</time>
      </trkpt>
      <trkpt lat="45.7872" lon="6.71319">
        <ele>1307.05</ele>
        <time>2017-08-29T09:36:13Z</time>
      </trkpt>
      <trkpt lat="45.78718" lon="6.71318">
        <ele>1308.01</ele>
        <time>2017-08-29T09:36:16Z</time>
      </trkpt>
      <trkpt lat="45.78717" lon="6.71317">
        <ele>1308.01</ele>
        <time>2017-08-29T09:36:17Z</time>
      </trkpt>
      <trkpt lat="45.78714" lon="6.71317">
        <ele>1308.97</ele>
        <time>2017-08-29T09:36:19Z</time>
      </trkpt>
      <trkpt lat="45.78712" lon="6.71317">
        <ele>1308.97</ele>
        <time>2017-08-29T09:36:20Z</time>
      </trkpt>
      <trkpt lat="45.78708" lon="6.71316">
        <ele>1308.97</ele>
        <time>2017-08-29T09:36:21Z</time>
      </trkpt>
      <trkpt lat="45.78707" lon="6.71316">
        <ele>1309.45</ele>
        <time>2017-08-29T09:36:22Z</time>
      </trkpt>
      <trkpt lat="45.78705" lon="6.71316">
        <ele>1309.45</ele>
        <time>2017-08-29T09:36:23Z</time>
      </trkpt>
      <trkpt lat="45.78703" lon="6.71315">
        <ele>1309.93</ele>
        <time>2017-08-29T09:36:24Z</time>
      </trkpt>
      <trkpt lat="45.78702" lon="6.71314">
        <ele>1310.41</ele>
        <time>2017-08-29T09:36:25Z</time>
      </trkpt>
      <trkpt lat="45.78701" lon="6.71312">
        <ele>1310.41</ele>
        <time>2017-08-29T09:36:26Z</time>
      </trkpt>
      <trkpt lat="45.78698" lon="6.7131">
        <ele>1311.38</ele>
        <time>2017-08-29T09:36:29Z</time>
      </trkpt>
      <trkpt lat="45.78695" lon="6.7131">
        <ele>1312.34</ele>
        <time>2017-08-29T09:36:33Z</time>
      </trkpt>
      <trkpt lat="45.78693" lon="6.7131">
        <ele>1312.34</ele>
        <time>2017-08-29T09:36:34Z</time>
      </trkpt>
      <trkpt lat="45.78692" lon="6.7131">
        <ele>1312.82</ele>
        <time>2017-08-29T09:36:36Z</time>
      </trkpt>
      <trkpt lat="45.78692" lon="6.7131">
        <ele>1313.3</ele>
        <time>2017-08-29T09:36:37Z</time>
      </trkpt>
      <trkpt lat="45.7869" lon="6.71309">
        <ele>1313.3</ele>
        <time>2017-08-29T09:36:38Z</time>
      </trkpt>
      <trkpt lat="45.78688" lon="6.71309">
        <ele>1313.78</ele>
        <time>2017-08-29T09:36:40Z</time>
      </trkpt>
      <trkpt lat="45.78687" lon="6.71308">
        <ele>1313.78</ele>
        <time>2017-08-29T09:36:41Z</time>
      </trkpt>
      <trkpt lat="45.78687" lon="6.71308">
        <ele>1313.78</ele>
        <time>2017-08-29T09:36:42Z</time>
      </trkpt>
      <trkpt lat="45.78685" lon="6.71307">
        <ele>1314.26</ele>
        <time>2017-08-29T09:36:43Z</time>
      </trkpt>
      <trkpt lat="45.78684" lon="6.71307">
        <ele>1314.74</ele>
        <time>2017-08-29T09:36:44Z</time>
      </trkpt>
      <trkpt lat="45.7868" lon="6.71306">
        <ele>1314.74</ele>
        <time>2017-08-29T09:36:45Z</time>
      </trkpt>
      <trkpt lat="45.78679" lon="6.71306">
        <ele>1315.22</ele>
        <time>2017-08-29T09:36:46Z</time>
      </trkpt>
      <trkpt lat="45.78678" lon="6.71305">
        <ele>1315.22</ele>
        <time>2017-08-29T09:36:47Z</time>
      </trkpt>
      <trkpt lat="45.78677" lon="6.71304">
        <ele>1315.22</ele>
        <time>2017-08-29T09:36:48Z</time>
      </trkpt>
      <trkpt lat="45.78675" lon="6.71304">
        <ele>1315.7</ele>
        <time>2017-08-29T09:36:49Z</time>
      </trkpt>
      <trkpt lat="45.78673" lon="6.71304">
        <ele>1315.7</ele>
        <time>2017-08-29T09:36:50Z</time>
      </trkpt>
      <trkpt lat="45.78671" lon="6.71304">
        <ele>1316.18</ele>
        <time>2017-08-29T09:36:51Z</time>
      </trkpt>
      <trkpt lat="45.78667" lon="6.71303">
        <ele>1316.66</ele>
        <time>2017-08-29T09:36:54Z</time>
      </trkpt>
      <trkpt lat="45.78664" lon="6.71301">
        <ele>1317.62</ele>
        <time>2017-08-29T09:36:57Z</time>
      </trkpt>
      <trkpt lat="45.78663" lon="6.71301">
        <ele>1317.62</ele>
        <time>2017-08-29T09:36:58Z</time>
      </trkpt>
      <trkpt lat="45.78662" lon="6.71301">
        <ele>1317.62</ele>
        <time>2017-08-29T09:36:59Z</time>
      </trkpt>
      <trkpt lat="45.78659" lon="6.713">
        <ele>1318.1</ele>
        <time>2017-08-29T09:37:01Z</time>
      </trkpt>
      <trkpt lat="45.78657" lon="6.713">
        <ele>1318.59</ele>
        <time>2017-08-29T09:37:02Z</time>
      </trkpt>
      <trkpt lat="45.78647" lon="6.71299">
        <ele>1320.03</ele>
        <time>2017-08-29T09:37:09Z</time>
      </trkpt>
      <trkpt lat="45.78646" lon="6.713">
        <ele>1320.51</ele>
        <time>2017-08-29T09:37:11Z</time>
      </trkpt>
      <trkpt lat="45.78644" lon="6.71299">
        <ele>1320.99</ele>
        <time>2017-08-29T09:37:13Z</time>
      </trkpt>
      <trkpt lat="45.78643" lon="6.71299">
        <ele>1321.47</ele>
        <time>2017-08-29T09:37:14Z</time>
      </trkpt>
      <trkpt lat="45.78641" lon="6.71299">
        <ele>1321.95</ele>
        <time>2017-08-29T09:37:15Z</time>
      </trkpt>
      <trkpt lat="45.78631" lon="6.71301">
        <ele>1323.87</ele>
        <time>2017-08-29T09:37:25Z</time>
      </trkpt>
      <trkpt lat="45.78632" lon="6.71302">
        <ele>1323.87</ele>
        <time>2017-08-29T09:37:26Z</time>
      </trkpt>
      <trkpt lat="45.78631" lon="6.71302">
        <ele>1324.35</ele>
        <time>2017-08-29T09:37:27Z</time>
      </trkpt>
      <trkpt lat="45.7863" lon="6.71301">
        <ele>1324.35</ele>
        <time>2017-08-29T09:37:28Z</time>
      </trkpt>
      <trkpt lat="45.78629" lon="6.713">
        <ele>1324.83</ele>
        <time>2017-08-29T09:37:29Z</time>
      </trkpt>
      <trkpt lat="45.78628" lon="6.713">
        <ele>1324.83</ele>
        <time>2017-08-29T09:37:30Z</time>
      </trkpt>
      <trkpt lat="45.78626" lon="6.713">
        <ele>1324.83</ele>
        <time>2017-08-29T09:37:31Z</time>
      </trkpt>
      <trkpt lat="45.78625" lon="6.71299">
        <ele>1324.83</ele>
        <time>2017-08-29T09:37:32Z</time>
      </trkpt>
      <trkpt lat="45.78623" lon="6.71298">
        <ele>1325.31</ele>
        <time>2017-08-29T09:37:33Z</time>
      </trkpt>
      <trkpt lat="45.78622" lon="6.71297">
        <ele>1325.31</ele>
        <time>2017-08-29T09:37:34Z</time>
      </trkpt>
      <trkpt lat="45.78599" lon="6.71292">
        <ele>1328.2</ele>
        <time>2017-08-29T09:37:51Z</time>
      </trkpt>
      <trkpt lat="45.78584" lon="6.71283">
        <ele>1331.08</ele>
        <time>2017-08-29T09:38:03Z</time>
      </trkpt>
      <trkpt lat="45.78583" lon="6.71282">
        <ele>1331.08</ele>
        <time>2017-08-29T09:38:04Z</time>
      </trkpt>
      <trkpt lat="45.7856" lon="6.71275">
        <ele>1333.49</ele>
        <time>2017-08-29T09:38:16Z</time>
      </trkpt>
      <trkpt lat="45.78557" lon="6.71276">
        <ele>1333.97</ele>
        <time>2017-08-29T09:38:17Z</time>
      </trkpt>
      <trkpt lat="45.78554" lon="6.71276">
        <ele>1333.97</ele>
        <time>2017-08-29T09:38:18Z</time>
      </trkpt>
      <trkpt lat="45.78551" lon="6.71275">
        <ele>1334.45</ele>
        <time>2017-08-29T09:38:19Z</time>
      </trkpt>
      <trkpt lat="45.78549" lon="6.71275">
        <ele>1334.93</ele>
        <time>2017-08-29T09:38:20Z</time>
      </trkpt>
      <trkpt lat="45.78519" lon="6.71276">
        <ele>1337.81</ele>
        <time>2017-08-29T09:38:31Z</time>
      </trkpt>
      <trkpt lat="45.78509" lon="6.71277">
        <ele>1339.73</ele>
        <time>2017-08-29T09:38:39Z</time>
      </trkpt>
      <trkpt lat="45.78508" lon="6.7128">
        <ele>1340.7</ele>
        <time>2017-08-29T09:38:42Z</time>
      </trkpt>
      <trkpt lat="45.78508" lon="6.71281">
        <ele>1341.18</ele>
        <time>2017-08-29T09:38:44Z</time>
      </trkpt>
      <trkpt lat="45.78499" lon="6.71283">
        <ele>1344.06</ele>
        <time>2017-08-29T09:38:56Z</time>
      </trkpt>
      <trkpt lat="45.78484" lon="6.71284">
        <ele>1347.43</ele>
        <time>2017-08-29T09:39:08Z</time>
      </trkpt>
      <trkpt lat="45.78481" lon="6.71286">
        <ele>1347.43</ele>
        <time>2017-08-29T09:39:09Z</time>
      </trkpt>
      <trkpt lat="45.78478" lon="6.71286">
        <ele>1347.91</ele>
        <time>2017-08-29T09:39:10Z</time>
      </trkpt>
      <trkpt lat="45.78477" lon="6.71287">
        <ele>1347.91</ele>
        <time>2017-08-29T09:39:11Z</time>
      </trkpt>
      <trkpt lat="45.78476" lon="6.71288">
        <ele>1348.39</ele>
        <time>2017-08-29T09:39:12Z</time>
      </trkpt>
      <trkpt lat="45.78475" lon="6.7129">
        <ele>1348.39</ele>
        <time>2017-08-29T09:39:13Z</time>
      </trkpt>
      <trkpt lat="45.78474" lon="6.71292">
        <ele>1348.39</ele>
        <time>2017-08-29T09:39:14Z</time>
      </trkpt>
      <trkpt lat="45.78458" lon="6.7131">
        <ele>1351.27</ele>
        <time>2017-08-29T09:39:25Z</time>
      </trkpt>
      <trkpt lat="45.78455" lon="6.71311">
        <ele>1351.75</ele>
        <time>2017-08-29T09:39:28Z</time>
      </trkpt>
      <trkpt lat="45.78456" lon="6.71313">
        <ele>1352.23</ele>
        <time>2017-08-29T09:39:29Z</time>
      </trkpt>
      <trkpt lat="45.78455" lon="6.71315">
        <ele>1352.23</ele>
        <time>2017-08-29T09:39:30Z</time>
      </trkpt>
      <trkpt lat="45.78456" lon="6.7132">
        <ele>1352.71</ele>
        <time>2017-08-29T09:39:33Z</time>
      </trkpt>
      <trkpt lat="45.78454" lon="6.71321">
        <ele>1353.19</ele>
        <time>2017-08-29T09:39:34Z</time>
      </trkpt>
      <trkpt lat="45.78451" lon="6.71322">
        <ele>1353.19</ele>
        <time>2017-08-29T09:39:36Z</time>
      </trkpt>
      <trkpt lat="45.7845" lon="6.71323">
        <ele>1353.19</ele>
        <time>2017-08-29T09:39:37Z</time>
      </trkpt>
      <trkpt lat="45.78449" lon="6.71322">
        <ele>1353.19</ele>
        <time>2017-08-29T09:39:38Z</time>
      </trkpt>
      <trkpt lat="45.78448" lon="6.71322">
        <ele>1353.67</ele>
        <time>2017-08-29T09:39:39Z</time>
      </trkpt>
      <trkpt lat="45.78431" lon="6.71325">
        <ele>1354.63</ele>
        <time>2017-08-29T09:39:49Z</time>
      </trkpt>
      <trkpt lat="45.78426" lon="6.71327">
        <ele>1354.63</ele>
        <time>2017-08-29T09:39:53Z</time>
      </trkpt>
      <trkpt lat="45.78423" lon="6.7133">
        <ele>1355.12</ele>
        <time>2017-08-29T09:39:54Z</time>
      </trkpt>
      <trkpt lat="45.7842" lon="6.71332">
        <ele>1355.12</ele>
        <time>2017-08-29T09:39:55Z</time>
      </trkpt>
      <trkpt lat="45.78419" lon="6.71333">
        <ele>1355.12</ele>
        <time>2017-08-29T09:39:56Z</time>
      </trkpt>
      <trkpt lat="45.78417" lon="6.71335">
        <ele>1355.12</ele>
        <time>2017-08-29T09:39:57Z</time>
      </trkpt>
      <trkpt lat="45.78408" lon="6.71345">
        <ele>1356.08</ele>
        <time>2017-08-29T09:40:03Z</time>
      </trkpt>
      <trkpt lat="45.78394" lon="6.71364">
        <ele>1358.96</ele>
        <time>2017-08-29T09:40:14Z</time>
      </trkpt>
      <trkpt lat="45.78382" lon="6.71377">
        <ele>1359.44</ele>
        <time>2017-08-29T09:40:20Z</time>
      </trkpt>
      <trkpt lat="45.78382" lon="6.7138">
        <ele>1359.44</ele>
        <time>2017-08-29T09:40:21Z</time>
      </trkpt>
      <trkpt lat="45.78381" lon="6.71383">
        <ele>1359.44</ele>
        <time>2017-08-29T09:40:22Z</time>
      </trkpt>
      <trkpt lat="45.78379" lon="6.71386">
        <ele>1359.44</ele>
        <time>2017-08-29T09:40:23Z</time>
      </trkpt>
      <trkpt lat="45.78378" lon="6.71388">
        <ele>1359.44</ele>
        <time>2017-08-29T09:40:24Z</time>
      </trkpt>
      <trkpt lat="45.78377" lon="6.71391">
        <ele>1359.92</ele>
        <time>2017-08-29T09:40:25Z</time>
      </trkpt>
      <trkpt lat="45.78376" lon="6.71392">
        <ele>1359.92</ele>
        <time>2017-08-29T09:40:26Z</time>
      </trkpt>
      <trkpt lat="45.78374" lon="6.71393">
        <ele>1360.4</ele>
        <time>2017-08-29T09:40:27Z</time>
      </trkpt>
      <trkpt lat="45.78366" lon="6.71413">
        <ele>1362.81</ele>
        <time>2017-08-29T09:40:37Z</time>
      </trkpt>
      <trkpt lat="45.78365" lon="6.71415">
        <ele>1362.81</ele>
        <time>2017-08-29T09:40:38Z</time>
      </trkpt>
      <trkpt lat="45.78363" lon="6.71416">
        <ele>1363.29</ele>
        <time>2017-08-29T09:40:39Z</time>
      </trkpt>
      <trkpt lat="45.78362" lon="6.71418">
        <ele>1363.29</ele>
        <time>2017-08-29T09:40:40Z</time>
      </trkpt>
      <trkpt lat="45.7836" lon="6.71419">
        <ele>1363.77</ele>
        <time>2017-08-29T09:40:41Z</time>
      </trkpt>
      <trkpt lat="45.7836" lon="6.71421">
        <ele>1363.77</ele>
        <time>2017-08-29T09:40:42Z</time>
      </trkpt>
      <trkpt lat="45.78357" lon="6.71423">
        <ele>1363.77</ele>
        <time>2017-08-29T09:40:43Z</time>
      </trkpt>
      <trkpt lat="45.78355" lon="6.71425">
        <ele>1363.77</ele>
        <time>2017-08-29T09:40:44Z</time>
      </trkpt>
      <trkpt lat="45.78353" lon="6.71427">
        <ele>1363.77</ele>
        <time>2017-08-29T09:40:45Z</time>
      </trkpt>
      <trkpt lat="45.78352" lon="6.71429">
        <ele>1363.77</ele>
        <time>2017-08-29T09:40:46Z</time>
      </trkpt>
      <trkpt lat="45.78352" lon="6.71432">
        <ele>1363.77</ele>
        <time>2017-08-29T09:40:47Z</time>
      </trkpt>
      <trkpt lat="45.78354" lon="6.71435">
        <ele>1363.29</ele>
        <time>2017-08-29T09:40:48Z</time>
      </trkpt>
      <trkpt lat="45.78354" lon="6.71437">
        <ele>1363.29</ele>
        <time>2017-08-29T09:40:49Z</time>
      </trkpt>
      <trkpt lat="45.78353" lon="6.71439">
        <ele>1363.77</ele>
        <time>2017-08-29T09:40:50Z</time>
      </trkpt>
      <trkpt lat="45.78351" lon="6.71441">
        <ele>1363.77</ele>
        <time>2017-08-29T09:40:51Z</time>
      </trkpt>
      <trkpt lat="45.7835" lon="6.71443">
        <ele>1363.77</ele>
        <time>2017-08-29T09:40:52Z</time>
      </trkpt>
      <trkpt lat="45.78348" lon="6.71447">
        <ele>1363.77</ele>
        <time>2017-08-29T09:40:53Z</time>
      </trkpt>
      <trkpt lat="45.78347" lon="6.71451">
        <ele>1363.77</ele>
        <time>2017-08-29T09:40:54Z</time>
      </trkpt>
      <trkpt lat="45.78331" lon="6.71469">
        <ele>1363.77</ele>
        <time>2017-08-29T09:41:02Z</time>
      </trkpt>
      <trkpt lat="45.78319" lon="6.71489">
        <ele>1364.73</ele>
        <time>2017-08-29T09:41:11Z</time>
      </trkpt>
      <trkpt lat="45.78314" lon="6.71499">
        <ele>1365.69</ele>
        <time>2017-08-29T09:41:15Z</time>
      </trkpt>
      <trkpt lat="45.78312" lon="6.71501">
        <ele>1366.17</ele>
        <time>2017-08-29T09:41:16Z</time>
      </trkpt>
      <trkpt lat="45.78311" lon="6.71503">
        <ele>1366.17</ele>
        <time>2017-08-29T09:41:17Z</time>
      </trkpt>
      <trkpt lat="45.78308" lon="6.71504">
        <ele>1366.17</ele>
        <time>2017-08-29T09:41:18Z</time>
      </trkpt>
      <trkpt lat="45.78308" lon="6.71504">
        <ele>1366.65</ele>
        <time>2017-08-29T09:41:19Z</time>
      </trkpt>
      <trkpt lat="45.78307" lon="6.71506">
        <ele>1367.13</ele>
        <time>2017-08-29T09:41:20Z</time>
      </trkpt>
      <trkpt lat="45.78305" lon="6.71507">
        <ele>1367.13</ele>
        <time>2017-08-29T09:41:21Z</time>
      </trkpt>
      <trkpt lat="45.78303" lon="6.71508">
        <ele>1367.61</ele>
        <time>2017-08-29T09:41:22Z</time>
      </trkpt>
      <trkpt lat="45.78302" lon="6.7151">
        <ele>1367.61</ele>
        <time>2017-08-29T09:41:23Z</time>
      </trkpt>
      <trkpt lat="45.78301" lon="6.7151">
        <ele>1368.09</ele>
        <time>2017-08-29T09:41:24Z</time>
      </trkpt>
      <trkpt lat="45.78299" lon="6.71511">
        <ele>1368.09</ele>
        <time>2017-08-29T09:41:25Z</time>
      </trkpt>
      <trkpt lat="45.78298" lon="6.71511">
        <ele>1368.09</ele>
        <time>2017-08-29T09:41:26Z</time>
      </trkpt>
      <trkpt lat="45.78286" lon="6.71512">
        <ele>1370.02</ele>
        <time>2017-08-29T09:41:33Z</time>
      </trkpt>
      <trkpt lat="45.78282" lon="6.71512">
        <ele>1370.02</ele>
        <time>2017-08-29T09:41:36Z</time>
      </trkpt>
      <trkpt lat="45.7828" lon="6.71513">
        <ele>1370.02</ele>
        <time>2017-08-29T09:41:37Z</time>
      </trkpt>
      <trkpt lat="45.78278" lon="6.71513">
        <ele>1370.02</ele>
        <time>2017-08-29T09:41:38Z</time>
      </trkpt>
      <trkpt lat="45.78276" lon="6.71514">
        <ele>1370.5</ele>
        <time>2017-08-29T09:41:39Z</time>
      </trkpt>
      <trkpt lat="45.78275" lon="6.71513">
        <ele>1370.5</ele>
        <time>2017-08-29T09:41:40Z</time>
      </trkpt>
      <trkpt lat="45.78274" lon="6.71513">
        <ele>1370.98</ele>
        <time>2017-08-29T09:41:41Z</time>
      </trkpt>
      <trkpt lat="45.78268" lon="6.71514">
        <ele>1371.94</ele>
        <time>2017-08-29T09:41:45Z</time>
      </trkpt>
      <trkpt lat="45.78265" lon="6.71513">
        <ele>1371.94</ele>
        <time>2017-08-29T09:41:46Z</time>
      </trkpt>
      <trkpt lat="45.78264" lon="6.71515">
        <ele>1372.42</ele>
        <time>2017-08-29T09:41:47Z</time>
      </trkpt>
      <trkpt lat="45.78261" lon="6.71515">
        <ele>1372.42</ele>
        <time>2017-08-29T09:41:48Z</time>
      </trkpt>
      <trkpt lat="45.78259" lon="6.71515">
        <ele>1372.9</ele>
        <time>2017-08-29T09:41:49Z</time>
      </trkpt>
      <trkpt lat="45.78257" lon="6.71516">
        <ele>1372.9</ele>
        <time>2017-08-29T09:41:50Z</time>
      </trkpt>
      <trkpt lat="45.78247" lon="6.71521">
        <ele>1375.3</ele>
        <time>2017-08-29T09:41:59Z</time>
      </trkpt>
      <trkpt lat="45.78245" lon="6.71523">
        <ele>1375.3</ele>
        <time>2017-08-29T09:42:00Z</time>
      </trkpt>
      <trkpt lat="45.78243" lon="6.71524">
        <ele>1375.78</ele>
        <time>2017-08-29T09:42:01Z</time>
      </trkpt>
      <trkpt lat="45.78238" lon="6.71526">
        <ele>1375.78</ele>
        <time>2017-08-29T09:42:02Z</time>
      </trkpt>
      <trkpt lat="45.78236" lon="6.71527">
        <ele>1376.26</ele>
        <time>2017-08-29T09:42:03Z</time>
      </trkpt>
      <trkpt lat="45.78234" lon="6.71527">
        <ele>1376.75</ele>
        <time>2017-08-29T09:42:04Z</time>
      </trkpt>
      <trkpt lat="45.78231" lon="6.71528">
        <ele>1377.23</ele>
        <time>2017-08-29T09:42:05Z</time>
      </trkpt>
      <trkpt lat="45.78223" lon="6.71532">
        <ele>1378.19</ele>
        <time>2017-08-29T09:42:10Z</time>
      </trkpt>
      <trkpt lat="45.78222" lon="6.71532">
        <ele>1378.19</ele>
        <time>2017-08-29T09:42:11Z</time>
      </trkpt>
      <trkpt lat="45.7822" lon="6.71532">
        <ele>1378.67</ele>
        <time>2017-08-29T09:42:12Z</time>
      </trkpt>
      <trkpt lat="45.78212" lon="6.71536">
        <ele>1380.59</ele>
        <time>2017-08-29T09:42:18Z</time>
      </trkpt>
      <trkpt lat="45.78211" lon="6.71537">
        <ele>1380.59</ele>
        <time>2017-08-29T09:42:19Z</time>
      </trkpt>
      <trkpt lat="45.78207" lon="6.7154">
        <ele>1381.55</ele>
        <time>2017-08-29T09:42:23Z</time>
      </trkpt>
      <trkpt lat="45.78204" lon="6.7154">
        <ele>1382.03</ele>
        <time>2017-08-29T09:42:24Z</time>
      </trkpt>
      <trkpt lat="45.78202" lon="6.71541">
        <ele>1382.03</ele>
        <time>2017-08-29T09:42:25Z</time>
      </trkpt>
      <trkpt lat="45.78201" lon="6.71542">
        <ele>1382.03</ele>
        <time>2017-08-29T09:42:26Z</time>
      </trkpt>
      <trkpt lat="45.78198" lon="6.71542">
        <ele>1382.51</ele>
        <time>2017-08-29T09:42:27Z</time>
      </trkpt>
      <trkpt lat="45.78197" lon="6.71543">
        <ele>1382.51</ele>
        <time>2017-08-29T09:42:28Z</time>
      </trkpt>
      <trkpt lat="45.78178" lon="6.71554">
        <ele>1384.44</ele>
        <time>2017-08-29T09:42:41Z</time>
      </trkpt>
      <trkpt lat="45.78178" lon="6.71555">
        <ele>1384.44</ele>
        <time>2017-08-29T09:42:42Z</time>
      </trkpt>
      <trkpt lat="45.78177" lon="6.71556">
        <ele>1384.44</ele>
        <time>2017-08-29T09:42:43Z</time>
      </trkpt>
      <trkpt lat="45.78175" lon="6.71556">
        <ele>1384.44</ele>
        <time>2017-08-29T09:42:44Z</time>
      </trkpt>
      <trkpt lat="45.78173" lon="6.71555">
        <ele>1384.92</ele>
        <time>2017-08-29T09:42:45Z</time>
      </trkpt>
      <trkpt lat="45.78172" lon="6.71555">
        <ele>1384.92</ele>
        <time>2017-08-29T09:42:46Z</time>
      </trkpt>
      <trkpt lat="45.7817" lon="6.71554">
        <ele>1385.4</ele>
        <time>2017-08-29T09:42:47Z</time>
      </trkpt>
      <trkpt lat="45.78147" lon="6.71541">
        <ele>1387.8</ele>
        <time>2017-08-29T09:42:59Z</time>
      </trkpt>
      <trkpt lat="45.78127" lon="6.71537">
        <ele>1391.17</ele>
        <time>2017-08-29T09:43:10Z</time>
      </trkpt>
      <trkpt lat="45.78112" lon="6.71524">
        <ele>1394.05</ele>
        <time>2017-08-29T09:43:21Z</time>
      </trkpt>
      <trkpt lat="45.78111" lon="6.71525">
        <ele>1394.53</ele>
        <time>2017-08-29T09:43:22Z</time>
      </trkpt>
      <trkpt lat="45.78109" lon="6.71524">
        <ele>1395.01</ele>
        <time>2017-08-29T09:43:23Z</time>
      </trkpt>
      <trkpt lat="45.78108" lon="6.71524">
        <ele>1395.01</ele>
        <time>2017-08-29T09:43:24Z</time>
      </trkpt>
      <trkpt lat="45.78095" lon="6.71521">
        <ele>1397.41</ele>
        <time>2017-08-29T09:43:35Z</time>
      </trkpt>
      <trkpt lat="45.78093" lon="6.71521">
        <ele>1397.89</ele>
        <time>2017-08-29T09:43:36Z</time>
      </trkpt>
      <trkpt lat="45.78092" lon="6.71521">
        <ele>1397.89</ele>
        <time>2017-08-29T09:43:37Z</time>
      </trkpt>
      <trkpt lat="45.7809" lon="6.7152">
        <ele>1398.37</ele>
        <time>2017-08-29T09:43:38Z</time>
      </trkpt>
      <trkpt lat="45.78089" lon="6.71519">
        <ele>1398.37</ele>
        <time>2017-08-29T09:43:39Z</time>
      </trkpt>
      <trkpt lat="45.78088" lon="6.71519">
        <ele>1398.37</ele>
        <time>2017-08-29T09:43:40Z</time>
      </trkpt>
      <trkpt lat="45.78086" lon="6.71519">
        <ele>1398.86</ele>
        <time>2017-08-29T09:43:41Z</time>
      </trkpt>
      <trkpt lat="45.78085" lon="6.71519">
        <ele>1398.86</ele>
        <time>2017-08-29T09:43:42Z</time>
      </trkpt>
      <trkpt lat="45.78083" lon="6.71519">
        <ele>1398.86</ele>
        <time>2017-08-29T09:43:43Z</time>
      </trkpt>
      <trkpt lat="45.78082" lon="6.71519">
        <ele>1399.34</ele>
        <time>2017-08-29T09:43:44Z</time>
      </trkpt>
      <trkpt lat="45.78081" lon="6.71519">
        <ele>1399.34</ele>
        <time>2017-08-29T09:43:45Z</time>
      </trkpt>
      <trkpt lat="45.78079" lon="6.71519">
        <ele>1399.82</ele>
        <time>2017-08-29T09:43:46Z</time>
      </trkpt>
      <trkpt lat="45.78078" lon="6.71519">
        <ele>1399.82</ele>
        <time>2017-08-29T09:43:47Z</time>
      </trkpt>
      <trkpt lat="45.78077" lon="6.71519">
        <ele>1399.82</ele>
        <time>2017-08-29T09:43:48Z</time>
      </trkpt>
      <trkpt lat="45.78075" lon="6.71518">
        <ele>1400.3</ele>
        <time>2017-08-29T09:43:49Z</time>
      </trkpt>
      <trkpt lat="45.78073" lon="6.71518">
        <ele>1400.3</ele>
        <time>2017-08-29T09:43:50Z</time>
      </trkpt>
      <trkpt lat="45.78072" lon="6.71517">
        <ele>1400.78</ele>
        <time>2017-08-29T09:43:51Z</time>
      </trkpt>
      <trkpt lat="45.7807" lon="6.71516">
        <ele>1400.78</ele>
        <time>2017-08-29T09:43:52Z</time>
      </trkpt>
      <trkpt lat="45.78068" lon="6.71515">
        <ele>1400.78</ele>
        <time>2017-08-29T09:43:53Z</time>
      </trkpt>
      <trkpt lat="45.78067" lon="6.71515">
        <ele>1401.26</ele>
        <time>2017-08-29T09:43:54Z</time>
      </trkpt>
      <trkpt lat="45.78066" lon="6.71514">
        <ele>1401.26</ele>
        <time>2017-08-29T09:43:55Z</time>
      </trkpt>
      <trkpt lat="45.78065" lon="6.71514">
        <ele>1401.74</ele>
        <time>2017-08-29T09:43:56Z</time>
      </trkpt>
      <trkpt lat="45.78065" lon="6.71512">
        <ele>1401.74</ele>
        <time>2017-08-29T09:43:57Z</time>
      </trkpt>
      <trkpt lat="45.78064" lon="6.71512">
        <ele>1402.22</ele>
        <time>2017-08-29T09:43:58Z</time>
      </trkpt>
      <trkpt lat="45.78062" lon="6.71512">
        <ele>1402.22</ele>
        <time>2017-08-29T09:43:59Z</time>
      </trkpt>
      <trkpt lat="45.78049" lon="6.71508">
        <ele>1405.58</ele>
        <time>2017-08-29T09:44:12Z</time>
      </trkpt>
      <trkpt lat="45.78038" lon="6.71503">
        <ele>1407.51</ele>
        <time>2017-08-29T09:44:24Z</time>
      </trkpt>
      <trkpt lat="45.78037" lon="6.71504">
        <ele>1407.99</ele>
        <time>2017-08-29T09:44:25Z</time>
      </trkpt>
      <trkpt lat="45.78036" lon="6.71504">
        <ele>1407.99</ele>
        <time>2017-08-29T09:44:26Z</time>
      </trkpt>
      <trkpt lat="45.78036" lon="6.71504">
        <ele>1408.47</ele>
        <time>2017-08-29T09:44:27Z</time>
      </trkpt>
      <trkpt lat="45.78035" lon="6.71505">
        <ele>1408.95</ele>
        <time>2017-08-29T09:44:28Z</time>
      </trkpt>
      <trkpt lat="45.78035" lon="6.71505">
        <ele>1408.95</ele>
        <time>2017-08-29T09:44:29Z</time>
      </trkpt>
      <trkpt lat="45.78034" lon="6.71506">
        <ele>1408.95</ele>
        <time>2017-08-29T09:44:30Z</time>
      </trkpt>
      <trkpt lat="45.78031" lon="6.71504">
        <ele>1409.91</ele>
        <time>2017-08-29T09:44:34Z</time>
      </trkpt>
      <trkpt lat="45.78029" lon="6.71503">
        <ele>1409.91</ele>
        <time>2017-08-29T09:44:35Z</time>
      </trkpt>
      <trkpt lat="45.78028" lon="6.71502">
        <ele>1410.39</ele>
        <time>2017-08-29T09:44:36Z</time>
      </trkpt>
      <trkpt lat="45.78026" lon="6.71501">
        <ele>1410.39</ele>
        <time>2017-08-29T09:44:37Z</time>
      </trkpt>
      <trkpt lat="45.78025" lon="6.715">
        <ele>1410.39</ele>
        <time>2017-08-29T09:44:38Z</time>
      </trkpt>
      <trkpt lat="45.78025" lon="6.71499">
        <ele>1410.87</ele>
        <time>2017-08-29T09:44:39Z</time>
      </trkpt>
      <trkpt lat="45.78023" lon="6.71498">
        <ele>1411.35</ele>
        <time>2017-08-29T09:44:40Z</time>
      </trkpt>
      <trkpt lat="45.78022" lon="6.71497">
        <ele>1411.35</ele>
        <time>2017-08-29T09:44:41Z</time>
      </trkpt>
      <trkpt lat="45.78021" lon="6.71496">
        <ele>1411.35</ele>
        <time>2017-08-29T09:44:42Z</time>
      </trkpt>
      <trkpt lat="45.78021" lon="6.71495">
        <ele>1411.83</ele>
        <time>2017-08-29T09:44:43Z</time>
      </trkpt>
      <trkpt lat="45.78019" lon="6.71494">
        <ele>1411.83</ele>
        <time>2017-08-29T09:44:44Z</time>
      </trkpt>
      <trkpt lat="45.78017" lon="6.71495">
        <ele>1412.31</ele>
        <time>2017-08-29T09:44:45Z</time>
      </trkpt>
      <trkpt lat="45.78016" lon="6.71495">
        <ele>1412.31</ele>
        <time>2017-08-29T09:44:46Z</time>
      </trkpt>
      <trkpt lat="45.78015" lon="6.71494">
        <ele>1412.79</ele>
        <time>2017-08-29T09:44:47Z</time>
      </trkpt>
      <trkpt lat="45.78014" lon="6.71493">
        <ele>1412.79</ele>
        <time>2017-08-29T09:44:48Z</time>
      </trkpt>
      <trkpt lat="45.78012" lon="6.71492">
        <ele>1412.79</ele>
        <time>2017-08-29T09:44:49Z</time>
      </trkpt>
      <trkpt lat="45.7801" lon="6.71492">
        <ele>1413.28</ele>
        <time>2017-08-29T09:44:50Z</time>
      </trkpt>
      <trkpt lat="45.78001" lon="6.71489">
        <ele>1414.24</ele>
        <time>2017-08-29T09:44:55Z</time>
      </trkpt>
      <trkpt lat="45.77999" lon="6.71489">
        <ele>1414.24</ele>
        <time>2017-08-29T09:44:56Z</time>
      </trkpt>
      <trkpt lat="45.77996" lon="6.71489">
        <ele>1414.72</ele>
        <time>2017-08-29T09:44:57Z</time>
      </trkpt>
      <trkpt lat="45.77994" lon="6.71489">
        <ele>1415.2</ele>
        <time>2017-08-29T09:44:58Z</time>
      </trkpt>
      <trkpt lat="45.77992" lon="6.71488">
        <ele>1415.2</ele>
        <time>2017-08-29T09:44:59Z</time>
      </trkpt>
      <trkpt lat="45.77991" lon="6.71488">
        <ele>1415.2</ele>
        <time>2017-08-29T09:45:00Z</time>
      </trkpt>
      <trkpt lat="45.77977" lon="6.71471">
        <ele>1418.56</ele>
        <time>2017-08-29T09:45:12Z</time>
      </trkpt>
      <trkpt lat="45.77976" lon="6.71471">
        <ele>1418.56</ele>
        <time>2017-08-29T09:45:13Z</time>
      </trkpt>
      <trkpt lat="45.77974" lon="6.7147">
        <ele>1419.04</ele>
        <time>2017-08-29T09:45:15Z</time>
      </trkpt>
      <trkpt lat="45.77973" lon="6.7147">
        <ele>1419.52</ele>
        <time>2017-08-29T09:45:16Z</time>
      </trkpt>
      <trkpt lat="45.77971" lon="6.71469">
        <ele>1420</ele>
        <time>2017-08-29T09:45:17Z</time>
      </trkpt>
      <trkpt lat="45.7797" lon="6.71468">
        <ele>1420</ele>
        <time>2017-08-29T09:45:18Z</time>
      </trkpt>
      <trkpt lat="45.77969" lon="6.71467">
        <ele>1420.49</ele>
        <time>2017-08-29T09:45:19Z</time>
      </trkpt>
      <trkpt lat="45.77969" lon="6.71465">
        <ele>1420.49</ele>
        <time>2017-08-29T09:45:20Z</time>
      </trkpt>
      <trkpt lat="45.77967" lon="6.71461">
        <ele>1421.45</ele>
        <time>2017-08-29T09:45:23Z</time>
      </trkpt>
      <trkpt lat="45.77969" lon="6.7146">
        <ele>1421.45</ele>
        <time>2017-08-29T09:45:32Z</time>
      </trkpt>
      <trkpt lat="45.77968" lon="6.7146">
        <ele>1421.45</ele>
        <time>2017-08-29T09:45:34Z</time>
      </trkpt>
      <trkpt lat="45.77969" lon="6.71459">
        <ele>1421.45</ele>
        <time>2017-08-29T09:45:37Z</time>
      </trkpt>
      <trkpt lat="45.77968" lon="6.71458">
        <ele>1421.45</ele>
        <time>2017-08-29T09:45:40Z</time>
      </trkpt>
      <trkpt lat="45.77968" lon="6.71459">
        <ele>1421.93</ele>
        <time>2017-08-29T09:45:46Z</time>
      </trkpt>
      <trkpt lat="45.77963" lon="6.71465">
        <ele>1422.41</ele>
        <time>2017-08-29T09:45:51Z</time>
      </trkpt>
      <trkpt lat="45.77962" lon="6.71466">
        <ele>1422.89</ele>
        <time>2017-08-29T09:45:52Z</time>
      </trkpt>
      <trkpt lat="45.77956" lon="6.71468">
        <ele>1423.85</ele>
        <time>2017-08-29T09:45:56Z</time>
      </trkpt>
      <trkpt lat="45.77948" lon="6.71475">
        <ele>1425.29</ele>
        <time>2017-08-29T09:46:02Z</time>
      </trkpt>
      <trkpt lat="45.77947" lon="6.71475">
        <ele>1425.77</ele>
        <time>2017-08-29T09:46:03Z</time>
      </trkpt>
      <trkpt lat="45.77946" lon="6.71476">
        <ele>1425.77</ele>
        <time>2017-08-29T09:46:04Z</time>
      </trkpt>
      <trkpt lat="45.77945" lon="6.71477">
        <ele>1425.77</ele>
        <time>2017-08-29T09:46:05Z</time>
      </trkpt>
      <trkpt lat="45.77943" lon="6.71478">
        <ele>1426.25</ele>
        <time>2017-08-29T09:46:06Z</time>
      </trkpt>
      <trkpt lat="45.77942" lon="6.71479">
        <ele>1426.25</ele>
        <time>2017-08-29T09:46:07Z</time>
      </trkpt>
      <trkpt lat="45.7794" lon="6.71481">
        <ele>1426.73</ele>
        <time>2017-08-29T09:46:09Z</time>
      </trkpt>
      <trkpt lat="45.77921" lon="6.71486">
        <ele>1429.62</ele>
        <time>2017-08-29T09:46:22Z</time>
      </trkpt>
      <trkpt lat="45.77914" lon="6.71482">
        <ele>1430.1</ele>
        <time>2017-08-29T09:46:26Z</time>
      </trkpt>
      <trkpt lat="45.77905" lon="6.71481">
        <ele>1431.54</ele>
        <time>2017-08-29T09:46:31Z</time>
      </trkpt>
      <trkpt lat="45.77899" lon="6.71481">
        <ele>1432.5</ele>
        <time>2017-08-29T09:46:35Z</time>
      </trkpt>
      <trkpt lat="45.77888" lon="6.71474">
        <ele>1434.42</ele>
        <time>2017-08-29T09:46:43Z</time>
      </trkpt>
      <trkpt lat="45.77874" lon="6.71473">
        <ele>1436.83</ele>
        <time>2017-08-29T09:46:52Z</time>
      </trkpt>
      <trkpt lat="45.77864" lon="6.71473">
        <ele>1438.75</ele>
        <time>2017-08-29T09:46:59Z</time>
      </trkpt>
      <trkpt lat="45.77862" lon="6.71473">
        <ele>1438.75</ele>
        <time>2017-08-29T09:47:00Z</time>
      </trkpt>
      <trkpt lat="45.77861" lon="6.71472">
        <ele>1439.23</ele>
        <time>2017-08-29T09:47:01Z</time>
      </trkpt>
      <trkpt lat="45.7786" lon="6.71472">
        <ele>1439.23</ele>
        <time>2017-08-29T09:47:02Z</time>
      </trkpt>
      <trkpt lat="45.77858" lon="6.71471">
        <ele>1439.71</ele>
        <time>2017-08-29T09:47:03Z</time>
      </trkpt>
      <trkpt lat="45.77857" lon="6.7147">
        <ele>1439.71</ele>
        <time>2017-08-29T09:47:04Z</time>
      </trkpt>
      <trkpt lat="45.77856" lon="6.71469">
        <ele>1439.71</ele>
        <time>2017-08-29T09:47:05Z</time>
      </trkpt>
      <trkpt lat="45.77855" lon="6.71468">
        <ele>1440.19</ele>
        <time>2017-08-29T09:47:06Z</time>
      </trkpt>
      <trkpt lat="45.77853" lon="6.71467">
        <ele>1440.67</ele>
        <time>2017-08-29T09:47:07Z</time>
      </trkpt>
      <trkpt lat="45.77842" lon="6.71461">
        <ele>1444.04</ele>
        <time>2017-08-29T09:47:18Z</time>
      </trkpt>
      <trkpt lat="45.77827" lon="6.71447">
        <ele>1447.4</ele>
        <time>2017-08-29T09:47:31Z</time>
      </trkpt>
      <trkpt lat="45.77817" lon="6.71425">
        <ele>1450.29</ele>
        <time>2017-08-29T09:47:44Z</time>
      </trkpt>
      <trkpt lat="45.77811" lon="6.71416">
        <ele>1451.73</ele>
        <time>2017-08-29T09:47:51Z</time>
      </trkpt>
      <trkpt lat="45.7781" lon="6.71416">
        <ele>1452.21</ele>
        <time>2017-08-29T09:47:52Z</time>
      </trkpt>
      <trkpt lat="45.77809" lon="6.71416">
        <ele>1452.21</ele>
        <time>2017-08-29T09:47:53Z</time>
      </trkpt>
      <trkpt lat="45.77808" lon="6.71415">
        <ele>1452.69</ele>
        <time>2017-08-29T09:47:54Z</time>
      </trkpt>
      <trkpt lat="45.77807" lon="6.71414">
        <ele>1452.69</ele>
        <time>2017-08-29T09:47:55Z</time>
      </trkpt>
      <trkpt lat="45.77805" lon="6.71414">
        <ele>1453.17</ele>
        <time>2017-08-29T09:47:56Z</time>
      </trkpt>
      <trkpt lat="45.77804" lon="6.71414">
        <ele>1453.17</ele>
        <time>2017-08-29T09:47:57Z</time>
      </trkpt>
      <trkpt lat="45.77803" lon="6.71414">
        <ele>1453.17</ele>
        <time>2017-08-29T09:47:58Z</time>
      </trkpt>
      <trkpt lat="45.77802" lon="6.71414">
        <ele>1453.65</ele>
        <time>2017-08-29T09:47:59Z</time>
      </trkpt>
      <trkpt lat="45.77801" lon="6.71414">
        <ele>1454.13</ele>
        <time>2017-08-29T09:48:00Z</time>
      </trkpt>
      <trkpt lat="45.778" lon="6.71414">
        <ele>1454.13</ele>
        <time>2017-08-29T09:48:01Z</time>
      </trkpt>
      <trkpt lat="45.77799" lon="6.71414">
        <ele>1454.61</ele>
        <time>2017-08-29T09:48:02Z</time>
      </trkpt>
      <trkpt lat="45.77796" lon="6.71414">
        <ele>1455.09</ele>
        <time>2017-08-29T09:48:05Z</time>
      </trkpt>
      <trkpt lat="45.77795" lon="6.71413">
        <ele>1455.57</ele>
        <time>2017-08-29T09:48:06Z</time>
      </trkpt>
      <trkpt lat="45.77794" lon="6.71413">
        <ele>1455.57</ele>
        <time>2017-08-29T09:48:07Z</time>
      </trkpt>
      <trkpt lat="45.77776" lon="6.71413">
        <ele>1456.53</ele>
        <time>2017-08-29T09:48:19Z</time>
      </trkpt>
      <trkpt lat="45.77772" lon="6.71418">
        <ele>1457.98</ele>
        <time>2017-08-29T09:48:23Z</time>
      </trkpt>
      <trkpt lat="45.77771" lon="6.71419">
        <ele>1457.98</ele>
        <time>2017-08-29T09:48:24Z</time>
      </trkpt>
      <trkpt lat="45.77768" lon="6.71422">
        <ele>1458.94</ele>
        <time>2017-08-29T09:48:28Z</time>
      </trkpt>
      <trkpt lat="45.77766" lon="6.71425">
        <ele>1459.9</ele>
        <time>2017-08-29T09:48:32Z</time>
      </trkpt>
      <trkpt lat="45.77762" lon="6.71425">
        <ele>1460.86</ele>
        <time>2017-08-29T09:48:36Z</time>
      </trkpt>
      <trkpt lat="45.77761" lon="6.71427">
        <ele>1460.86</ele>
        <time>2017-08-29T09:48:37Z</time>
      </trkpt>
      <trkpt lat="45.77749" lon="6.71429">
        <ele>1464.23</ele>
        <time>2017-08-29T09:48:49Z</time>
      </trkpt>
      <trkpt lat="45.77734" lon="6.71432">
        <ele>1467.11</ele>
        <time>2017-08-29T09:49:03Z</time>
      </trkpt>
      <trkpt lat="45.77719" lon="6.71445">
        <ele>1469.99</ele>
        <time>2017-08-29T09:49:16Z</time>
      </trkpt>
      <trkpt lat="45.77702" lon="6.71461">
        <ele>1472.88</ele>
        <time>2017-08-29T09:49:31Z</time>
      </trkpt>
      <trkpt lat="45.77694" lon="6.7147">
        <ele>1474.32</ele>
        <time>2017-08-29T09:49:38Z</time>
      </trkpt>
      <trkpt lat="45.77693" lon="6.71471">
        <ele>1474.8</ele>
        <time>2017-08-29T09:49:39Z</time>
      </trkpt>
      <trkpt lat="45.77692" lon="6.71472">
        <ele>1474.8</ele>
        <time>2017-08-29T09:49:40Z</time>
      </trkpt>
      <trkpt lat="45.77679" lon="6.7148">
        <ele>1478.16</ele>
        <time>2017-08-29T09:49:52Z</time>
      </trkpt>
      <trkpt lat="45.77667" lon="6.71479">
        <ele>1481.53</ele>
        <time>2017-08-29T09:50:03Z</time>
      </trkpt>
      <trkpt lat="45.77652" lon="6.71477">
        <ele>1484.41</ele>
        <time>2017-08-29T09:50:16Z</time>
      </trkpt>
      <trkpt lat="45.77632" lon="6.7148">
        <ele>1485.37</ele>
        <time>2017-08-29T09:50:25Z</time>
      </trkpt>
      <trkpt lat="45.77614" lon="6.7149">
        <ele>1487.78</ele>
        <time>2017-08-29T09:50:36Z</time>
      </trkpt>
      <trkpt lat="45.77594" lon="6.715">
        <ele>1490.66</ele>
        <time>2017-08-29T09:50:48Z</time>
      </trkpt>
      <trkpt lat="45.77582" lon="6.71507">
        <ele>1492.58</ele>
        <time>2017-08-29T09:50:55Z</time>
      </trkpt>
      <trkpt lat="45.77581" lon="6.71508">
        <ele>1492.58</ele>
        <time>2017-08-29T09:50:56Z</time>
      </trkpt>
      <trkpt lat="45.7758" lon="6.7151">
        <ele>1493.06</ele>
        <time>2017-08-29T09:50:57Z</time>
      </trkpt>
      <trkpt lat="45.77579" lon="6.71512">
        <ele>1493.06</ele>
        <time>2017-08-29T09:50:58Z</time>
      </trkpt>
      <trkpt lat="45.77578" lon="6.71514">
        <ele>1493.55</ele>
        <time>2017-08-29T09:50:59Z</time>
      </trkpt>
      <trkpt lat="45.77564" lon="6.71535">
        <ele>1495.95</ele>
        <time>2017-08-29T09:51:11Z</time>
      </trkpt>
      <trkpt lat="45.77552" lon="6.71547">
        <ele>1498.83</ele>
        <time>2017-08-29T09:51:22Z</time>
      </trkpt>
      <trkpt lat="45.77551" lon="6.71548">
        <ele>1498.83</ele>
        <time>2017-08-29T09:51:23Z</time>
      </trkpt>
      <trkpt lat="45.77549" lon="6.7155">
        <ele>1499.31</ele>
        <time>2017-08-29T09:51:24Z</time>
      </trkpt>
      <trkpt lat="45.77549" lon="6.71551">
        <ele>1499.31</ele>
        <time>2017-08-29T09:51:25Z</time>
      </trkpt>
      <trkpt lat="45.77547" lon="6.71552">
        <ele>1499.79</ele>
        <time>2017-08-29T09:51:26Z</time>
      </trkpt>
      <trkpt lat="45.77532" lon="6.71565">
        <ele>1502.68</ele>
        <time>2017-08-29T09:51:40Z</time>
      </trkpt>
      <trkpt lat="45.77528" lon="6.71569">
        <ele>1503.64</ele>
        <time>2017-08-29T09:51:45Z</time>
      </trkpt>
      <trkpt lat="45.77519" lon="6.71572">
        <ele>1506.04</ele>
        <time>2017-08-29T09:51:53Z</time>
      </trkpt>
      <trkpt lat="45.77518" lon="6.71572">
        <ele>1506.04</ele>
        <time>2017-08-29T09:51:54Z</time>
      </trkpt>
      <trkpt lat="45.77517" lon="6.71573">
        <ele>1506.52</ele>
        <time>2017-08-29T09:51:55Z</time>
      </trkpt>
      <trkpt lat="45.77516" lon="6.71573">
        <ele>1507</ele>
        <time>2017-08-29T09:51:56Z</time>
      </trkpt>
      <trkpt lat="45.7751" lon="6.7157">
        <ele>1508.93</ele>
        <time>2017-08-29T09:52:04Z</time>
      </trkpt>
      <trkpt lat="45.77509" lon="6.7157">
        <ele>1509.41</ele>
        <time>2017-08-29T09:52:05Z</time>
      </trkpt>
      <trkpt lat="45.77506" lon="6.7157">
        <ele>1509.89</ele>
        <time>2017-08-29T09:52:08Z</time>
      </trkpt>
      <trkpt lat="45.77506" lon="6.7157">
        <ele>1510.37</ele>
        <time>2017-08-29T09:52:09Z</time>
      </trkpt>
      <trkpt lat="45.77505" lon="6.71571">
        <ele>1510.37</ele>
        <time>2017-08-29T09:52:10Z</time>
      </trkpt>
      <trkpt lat="45.77504" lon="6.71571">
        <ele>1510.37</ele>
        <time>2017-08-29T09:52:11Z</time>
      </trkpt>
      <trkpt lat="45.77503" lon="6.71572">
        <ele>1510.85</ele>
        <time>2017-08-29T09:52:12Z</time>
      </trkpt>
      <trkpt lat="45.77502" lon="6.71572">
        <ele>1510.85</ele>
        <time>2017-08-29T09:52:13Z</time>
      </trkpt>
      <trkpt lat="45.77497" lon="6.71572">
        <ele>1512.29</ele>
        <time>2017-08-29T09:52:18Z</time>
      </trkpt>
      <trkpt lat="45.77495" lon="6.71572">
        <ele>1512.77</ele>
        <time>2017-08-29T09:52:20Z</time>
      </trkpt>
      <trkpt lat="45.77493" lon="6.7157">
        <ele>1513.25</ele>
        <time>2017-08-29T09:52:22Z</time>
      </trkpt>
      <trkpt lat="45.77491" lon="6.7157">
        <ele>1513.73</ele>
        <time>2017-08-29T09:52:23Z</time>
      </trkpt>
      <trkpt lat="45.7749" lon="6.7157">
        <ele>1513.73</ele>
        <time>2017-08-29T09:52:24Z</time>
      </trkpt>
      <trkpt lat="45.77488" lon="6.7157">
        <ele>1514.21</ele>
        <time>2017-08-29T09:52:25Z</time>
      </trkpt>
      <trkpt lat="45.77478" lon="6.71571">
        <ele>1515.18</ele>
        <time>2017-08-29T09:52:33Z</time>
      </trkpt>
      <trkpt lat="45.77476" lon="6.71572">
        <ele>1515.66</ele>
        <time>2017-08-29T09:52:34Z</time>
      </trkpt>
      <trkpt lat="45.77475" lon="6.71572">
        <ele>1516.14</ele>
        <time>2017-08-29T09:52:35Z</time>
      </trkpt>
      <trkpt lat="45.77473" lon="6.71572">
        <ele>1516.62</ele>
        <time>2017-08-29T09:52:36Z</time>
      </trkpt>
      <trkpt lat="45.77471" lon="6.71572">
        <ele>1516.62</ele>
        <time>2017-08-29T09:52:37Z</time>
      </trkpt>
      <trkpt lat="45.77469" lon="6.71571">
        <ele>1516.62</ele>
        <time>2017-08-29T09:52:38Z</time>
      </trkpt>
      <trkpt lat="45.77449" lon="6.71572">
        <ele>1519.02</ele>
        <time>2017-08-29T09:52:49Z</time>
      </trkpt>
      <trkpt lat="45.7743" lon="6.71581">
        <ele>1521.42</ele>
        <time>2017-08-29T09:53:00Z</time>
      </trkpt>
      <trkpt lat="45.77409" lon="6.7159">
        <ele>1523.35</ele>
        <time>2017-08-29T09:53:11Z</time>
      </trkpt>
      <trkpt lat="45.77388" lon="6.7159">
        <ele>1523.83</ele>
        <time>2017-08-29T09:53:20Z</time>
      </trkpt>
      <trkpt lat="45.77366" lon="6.71591">
        <ele>1525.27</ele>
        <time>2017-08-29T09:53:30Z</time>
      </trkpt>
      <trkpt lat="45.77346" lon="6.71593">
        <ele>1527.67</ele>
        <time>2017-08-29T09:53:39Z</time>
      </trkpt>
      <trkpt lat="45.77325" lon="6.71585">
        <ele>1529.59</ele>
        <time>2017-08-29T09:53:48Z</time>
      </trkpt>
      <trkpt lat="45.77306" lon="6.71578">
        <ele>1530.56</ele>
        <time>2017-08-29T09:53:56Z</time>
      </trkpt>
      <trkpt lat="45.77287" lon="6.71572">
        <ele>1531.52</ele>
        <time>2017-08-29T09:54:04Z</time>
      </trkpt>
      <trkpt lat="45.77267" lon="6.71572">
        <ele>1531.52</ele>
        <time>2017-08-29T09:54:11Z</time>
      </trkpt>
      <trkpt lat="45.77246" lon="6.71573">
        <ele>1531.52</ele>
        <time>2017-08-29T09:54:19Z</time>
      </trkpt>
      <trkpt lat="45.77225" lon="6.71572">
        <ele>1532</ele>
        <time>2017-08-29T09:54:27Z</time>
      </trkpt>
      <trkpt lat="45.77204" lon="6.71573">
        <ele>1532</ele>
        <time>2017-08-29T09:54:35Z</time>
      </trkpt>
      <trkpt lat="45.77184" lon="6.71573">
        <ele>1532.96</ele>
        <time>2017-08-29T09:54:43Z</time>
      </trkpt>
      <trkpt lat="45.77164" lon="6.7157">
        <ele>1533.92</ele>
        <time>2017-08-29T09:54:51Z</time>
      </trkpt>
      <trkpt lat="45.77146" lon="6.71554">
        <ele>1535.36</ele>
        <time>2017-08-29T09:55:00Z</time>
      </trkpt>
      <trkpt lat="45.77128" lon="6.71542">
        <ele>1537.29</ele>
        <time>2017-08-29T09:55:09Z</time>
      </trkpt>
      <trkpt lat="45.77108" lon="6.7154">
        <ele>1537.77</ele>
        <time>2017-08-29T09:55:17Z</time>
      </trkpt>
      <trkpt lat="45.77087" lon="6.71535">
        <ele>1536.8</ele>
        <time>2017-08-29T09:55:25Z</time>
      </trkpt>
      <trkpt lat="45.77067" lon="6.71527">
        <ele>1536.8</ele>
        <time>2017-08-29T09:55:33Z</time>
      </trkpt>
      <trkpt lat="45.77049" lon="6.71515">
        <ele>1536.32</ele>
        <time>2017-08-29T09:55:41Z</time>
      </trkpt>
      <trkpt lat="45.7703" lon="6.71502">
        <ele>1535.84</ele>
        <time>2017-08-29T09:55:49Z</time>
      </trkpt>
      <trkpt lat="45.77011" lon="6.71489">
        <ele>1534.88</ele>
        <time>2017-08-29T09:55:56Z</time>
      </trkpt>
      <trkpt lat="45.7699" lon="6.71482">
        <ele>1534.4</ele>
        <time>2017-08-29T09:56:04Z</time>
      </trkpt>
      <trkpt lat="45.7697" lon="6.71483">
        <ele>1535.36</ele>
        <time>2017-08-29T09:56:12Z</time>
      </trkpt>
      <trkpt lat="45.76949" lon="6.71479">
        <ele>1536.32</ele>
        <time>2017-08-29T09:56:20Z</time>
      </trkpt>
      <trkpt lat="45.76929" lon="6.71475">
        <ele>1537.29</ele>
        <time>2017-08-29T09:56:28Z</time>
      </trkpt>
      <trkpt lat="45.76909" lon="6.71466">
        <ele>1538.73</ele>
        <time>2017-08-29T09:56:37Z</time>
      </trkpt>
      <trkpt lat="45.76888" lon="6.71457">
        <ele>1539.69</ele>
        <time>2017-08-29T09:56:47Z</time>
      </trkpt>
      <trkpt lat="45.76868" lon="6.71452">
        <ele>1541.13</ele>
        <time>2017-08-29T09:56:56Z</time>
      </trkpt>
      <trkpt lat="45.76849" lon="6.71442">
        <ele>1541.61</ele>
        <time>2017-08-29T09:57:04Z</time>
      </trkpt>
      <trkpt lat="45.7683" lon="6.71432">
        <ele>1542.09</ele>
        <time>2017-08-29T09:57:13Z</time>
      </trkpt>
      <trkpt lat="45.76809" lon="6.71426">
        <ele>1543.05</ele>
        <time>2017-08-29T09:57:22Z</time>
      </trkpt>
      <trkpt lat="45.7679" lon="6.71419">
        <ele>1544.5</ele>
        <time>2017-08-29T09:57:31Z</time>
      </trkpt>
      <trkpt lat="45.76772" lon="6.71406">
        <ele>1545.46</ele>
        <time>2017-08-29T09:57:40Z</time>
      </trkpt>
      <trkpt lat="45.76754" lon="6.71389">
        <ele>1545.94</ele>
        <time>2017-08-29T09:57:48Z</time>
      </trkpt>
      <trkpt lat="45.76738" lon="6.71373">
        <ele>1545.94</ele>
        <time>2017-08-29T09:57:56Z</time>
      </trkpt>
      <trkpt lat="45.7672" lon="6.71358">
        <ele>1545.94</ele>
        <time>2017-08-29T09:58:04Z</time>
      </trkpt>
      <trkpt lat="45.76702" lon="6.71342">
        <ele>1546.42</ele>
        <time>2017-08-29T09:58:12Z</time>
      </trkpt>
      <trkpt lat="45.76686" lon="6.71324">
        <ele>1546.9</ele>
        <time>2017-08-29T09:58:20Z</time>
      </trkpt>
      <trkpt lat="45.76667" lon="6.71315">
        <ele>1547.86</ele>
        <time>2017-08-29T09:58:28Z</time>
      </trkpt>
      <trkpt lat="45.76648" lon="6.7131">
        <ele>1549.3</ele>
        <time>2017-08-29T09:58:37Z</time>
      </trkpt>
      <trkpt lat="45.76627" lon="6.71307">
        <ele>1551.22</ele>
        <time>2017-08-29T09:58:47Z</time>
      </trkpt>
      <trkpt lat="45.76606" lon="6.71301">
        <ele>1553.63</ele>
        <time>2017-08-29T09:58:57Z</time>
      </trkpt>
      <trkpt lat="45.76587" lon="6.71293">
        <ele>1555.55</ele>
        <time>2017-08-29T09:59:07Z</time>
      </trkpt>
      <trkpt lat="45.76568" lon="6.71288">
        <ele>1556.51</ele>
        <time>2017-08-29T09:59:16Z</time>
      </trkpt>
      <trkpt lat="45.76548" lon="6.7128">
        <ele>1557.47</ele>
        <time>2017-08-29T09:59:25Z</time>
      </trkpt>
      <trkpt lat="45.76528" lon="6.71271">
        <ele>1559.88</ele>
        <time>2017-08-29T09:59:36Z</time>
      </trkpt>
      <trkpt lat="45.76509" lon="6.71265">
        <ele>1560.84</ele>
        <time>2017-08-29T09:59:45Z</time>
      </trkpt>
      <trkpt lat="45.7649" lon="6.7126">
        <ele>1562.28</ele>
        <time>2017-08-29T09:59:54Z</time>
      </trkpt>
      <trkpt lat="45.76471" lon="6.71246">
        <ele>1564.2</ele>
        <time>2017-08-29T10:00:04Z</time>
      </trkpt>
      <trkpt lat="45.76452" lon="6.71242">
        <ele>1565.16</ele>
        <time>2017-08-29T10:00:13Z</time>
      </trkpt>
      <trkpt lat="45.76432" lon="6.7124">
        <ele>1566.12</ele>
        <time>2017-08-29T10:00:23Z</time>
      </trkpt>
      <trkpt lat="45.76421" lon="6.71247">
        <ele>1566.12</ele>
        <time>2017-08-29T10:00:37Z</time>
      </trkpt>
      <trkpt lat="45.76419" lon="6.71251">
        <ele>1566.12</ele>
        <time>2017-08-29T10:00:41Z</time>
      </trkpt>
      <trkpt lat="45.76419" lon="6.71251">
        <ele>1566.12</ele>
        <time>2017-08-29T10:00:43Z</time>
      </trkpt>
      <trkpt lat="45.7642" lon="6.71251">
        <ele>1566.12</ele>
        <time>2017-08-29T10:00:46Z</time>
      </trkpt>
      <trkpt lat="45.76421" lon="6.71251">
        <ele>1565.16</ele>
        <time>2017-08-29T10:00:50Z</time>
      </trkpt>
      <trkpt lat="45.76421" lon="6.71251">
        <ele>1565.16</ele>
        <time>2017-08-29T10:00:53Z</time>
      </trkpt>
      <trkpt lat="45.76421" lon="6.71252">
        <ele>1565.16</ele>
        <time>2017-08-29T10:00:56Z</time>
      </trkpt>
      <trkpt lat="45.76421" lon="6.71252">
        <ele>1565.64</ele>
        <time>2017-08-29T10:01:01Z</time>
      </trkpt>
      <trkpt lat="45.76422" lon="6.71253">
        <ele>1565.64</ele>
        <time>2017-08-29T10:01:04Z</time>
      </trkpt>
      <trkpt lat="45.76421" lon="6.71251">
        <ele>1565.64</ele>
        <time>2017-08-29T10:01:09Z</time>
      </trkpt>
      <trkpt lat="45.76421" lon="6.7125">
        <ele>1565.64</ele>
        <time>2017-08-29T10:01:16Z</time>
      </trkpt>
      <trkpt lat="45.76421" lon="6.7125">
        <ele>1565.64</ele>
        <time>2017-08-29T10:01:18Z</time>
      </trkpt>
      <trkpt lat="45.7642" lon="6.7125">
        <ele>1565.64</ele>
        <time>2017-08-29T10:01:25Z</time>
      </trkpt>
      <trkpt lat="45.7642" lon="6.71249">
        <ele>1565.64</ele>
        <time>2017-08-29T10:01:28Z</time>
      </trkpt>
      <trkpt lat="45.7642" lon="6.7125">
        <ele>1565.64</ele>
        <time>2017-08-29T10:01:31Z</time>
      </trkpt>
      <trkpt lat="45.76419" lon="6.71247">
        <ele>1566.12</ele>
        <time>2017-08-29T10:01:40Z</time>
      </trkpt>
      <trkpt lat="45.76421" lon="6.71247">
        <ele>1566.61</ele>
        <time>2017-08-29T10:01:43Z</time>
      </trkpt>
      <trkpt lat="45.76419" lon="6.71248">
        <ele>1565.64</ele>
        <time>2017-08-29T10:01:49Z</time>
      </trkpt>
      <trkpt lat="45.76422" lon="6.71244">
        <ele>1566.61</ele>
        <time>2017-08-29T10:01:54Z</time>
      </trkpt>
      <trkpt lat="45.76425" lon="6.71239">
        <ele>1566.61</ele>
        <time>2017-08-29T10:01:59Z</time>
      </trkpt>
      <trkpt lat="45.76423" lon="6.71236">
        <ele>1566.61</ele>
        <time>2017-08-29T10:02:07Z</time>
      </trkpt>
      <trkpt lat="45.76422" lon="6.71235">
        <ele>1566.61</ele>
        <time>2017-08-29T10:02:08Z</time>
      </trkpt>
      <trkpt lat="45.76421" lon="6.71234">
        <ele>1567.09</ele>
        <time>2017-08-29T10:02:09Z</time>
      </trkpt>
      <trkpt lat="45.7642" lon="6.71233">
        <ele>1567.09</ele>
        <time>2017-08-29T10:02:10Z</time>
      </trkpt>
      <trkpt lat="45.76418" lon="6.71232">
        <ele>1567.09</ele>
        <time>2017-08-29T10:02:11Z</time>
      </trkpt>
      <trkpt lat="45.76416" lon="6.71231">
        <ele>1567.09</ele>
        <time>2017-08-29T10:02:12Z</time>
      </trkpt>
      <trkpt lat="45.76404" lon="6.71224">
        <ele>1567.57</ele>
        <time>2017-08-29T10:02:21Z</time>
      </trkpt>
      <trkpt lat="45.76403" lon="6.71224">
        <ele>1567.57</ele>
        <time>2017-08-29T10:02:22Z</time>
      </trkpt>
      <trkpt lat="45.76401" lon="6.71223">
        <ele>1567.57</ele>
        <time>2017-08-29T10:02:23Z</time>
      </trkpt>
      <trkpt lat="45.764" lon="6.71222">
        <ele>1567.57</ele>
        <time>2017-08-29T10:02:24Z</time>
      </trkpt>
      <trkpt lat="45.76398" lon="6.71221">
        <ele>1568.05</ele>
        <time>2017-08-29T10:02:25Z</time>
      </trkpt>
      <trkpt lat="45.76393" lon="6.7122">
        <ele>1568.53</ele>
        <time>2017-08-29T10:02:29Z</time>
      </trkpt>
      <trkpt lat="45.76387" lon="6.71217">
        <ele>1569.01</ele>
        <time>2017-08-29T10:02:32Z</time>
      </trkpt>
      <trkpt lat="45.76383" lon="6.71215">
        <ele>1569.49</ele>
        <time>2017-08-29T10:02:34Z</time>
      </trkpt>
      <trkpt lat="45.76379" lon="6.71214">
        <ele>1569.97</ele>
        <time>2017-08-29T10:02:36Z</time>
      </trkpt>
      <trkpt lat="45.76376" lon="6.71212">
        <ele>1569.97</ele>
        <time>2017-08-29T10:02:38Z</time>
      </trkpt>
      <trkpt lat="45.76372" lon="6.71209">
        <ele>1570.45</ele>
        <time>2017-08-29T10:02:40Z</time>
      </trkpt>
      <trkpt lat="45.76364" lon="6.71205">
        <ele>1571.41</ele>
        <time>2017-08-29T10:02:44Z</time>
      </trkpt>
      <trkpt lat="45.76353" lon="6.71199">
        <ele>1572.85</ele>
        <time>2017-08-29T10:02:50Z</time>
      </trkpt>
      <trkpt lat="45.76332" lon="6.712">
        <ele>1575.26</ele>
        <time>2017-08-29T10:03:01Z</time>
      </trkpt>
      <trkpt lat="45.76324" lon="6.71197">
        <ele>1576.22</ele>
        <time>2017-08-29T10:03:06Z</time>
      </trkpt>
      <trkpt lat="45.76317" lon="6.71193">
        <ele>1577.18</ele>
        <time>2017-08-29T10:03:10Z</time>
      </trkpt>
      <trkpt lat="45.76304" lon="6.71186">
        <ele>1578.62</ele>
        <time>2017-08-29T10:03:17Z</time>
      </trkpt>
      <trkpt lat="45.76285" lon="6.71176">
        <ele>1581.03</ele>
        <time>2017-08-29T10:03:28Z</time>
      </trkpt>
      <trkpt lat="45.76267" lon="6.71164">
        <ele>1583.91</ele>
        <time>2017-08-29T10:03:39Z</time>
      </trkpt>
      <trkpt lat="45.76255" lon="6.71159">
        <ele>1585.35</ele>
        <time>2017-08-29T10:03:46Z</time>
      </trkpt>
      <trkpt lat="45.76253" lon="6.71159">
        <ele>1585.83</ele>
        <time>2017-08-29T10:03:47Z</time>
      </trkpt>
      <trkpt lat="45.76251" lon="6.71158">
        <ele>1585.83</ele>
        <time>2017-08-29T10:03:48Z</time>
      </trkpt>
      <trkpt lat="45.7625" lon="6.71157">
        <ele>1585.83</ele>
        <time>2017-08-29T10:03:49Z</time>
      </trkpt>
      <trkpt lat="45.76248" lon="6.71156">
        <ele>1586.31</ele>
        <time>2017-08-29T10:03:50Z</time>
      </trkpt>
      <trkpt lat="45.7623" lon="6.71148">
        <ele>1588.72</ele>
        <time>2017-08-29T10:04:01Z</time>
      </trkpt>
      <trkpt lat="45.76211" lon="6.71141">
        <ele>1591.12</ele>
        <time>2017-08-29T10:04:12Z</time>
      </trkpt>
      <trkpt lat="45.76193" lon="6.71142">
        <ele>1594</ele>
        <time>2017-08-29T10:04:24Z</time>
      </trkpt>
      <trkpt lat="45.76174" lon="6.7114">
        <ele>1597.37</ele>
        <time>2017-08-29T10:04:38Z</time>
      </trkpt>
      <trkpt lat="45.76156" lon="6.71135">
        <ele>1600.25</ele>
        <time>2017-08-29T10:04:53Z</time>
      </trkpt>
      <trkpt lat="45.76155" lon="6.71134">
        <ele>1600.25</ele>
        <time>2017-08-29T10:04:54Z</time>
      </trkpt>
      <trkpt lat="45.76154" lon="6.71134">
        <ele>1600.73</ele>
        <time>2017-08-29T10:04:55Z</time>
      </trkpt>
      <trkpt lat="45.76152" lon="6.71134">
        <ele>1601.21</ele>
        <time>2017-08-29T10:04:56Z</time>
      </trkpt>
      <trkpt lat="45.76151" lon="6.71134">
        <ele>1601.21</ele>
        <time>2017-08-29T10:04:57Z</time>
      </trkpt>
      <trkpt lat="45.7615" lon="6.71134">
        <ele>1601.21</ele>
        <time>2017-08-29T10:04:58Z</time>
      </trkpt>
      <trkpt lat="45.76149" lon="6.71134">
        <ele>1601.69</ele>
        <time>2017-08-29T10:04:59Z</time>
      </trkpt>
      <trkpt lat="45.76148" lon="6.71133">
        <ele>1601.69</ele>
        <time>2017-08-29T10:05:00Z</time>
      </trkpt>
      <trkpt lat="45.76138" lon="6.71128">
        <ele>1603.62</ele>
        <time>2017-08-29T10:05:09Z</time>
      </trkpt>
      <trkpt lat="45.76137" lon="6.71128">
        <ele>1604.1</ele>
        <time>2017-08-29T10:05:10Z</time>
      </trkpt>
      <trkpt lat="45.76135" lon="6.71127">
        <ele>1604.1</ele>
        <time>2017-08-29T10:05:11Z</time>
      </trkpt>
      <trkpt lat="45.76134" lon="6.71126">
        <ele>1604.58</ele>
        <time>2017-08-29T10:05:12Z</time>
      </trkpt>
      <trkpt lat="45.76133" lon="6.71126">
        <ele>1604.58</ele>
        <time>2017-08-29T10:05:13Z</time>
      </trkpt>
      <trkpt lat="45.76123" lon="6.71115">
        <ele>1606.5</ele>
        <time>2017-08-29T10:05:23Z</time>
      </trkpt>
      <trkpt lat="45.76122" lon="6.71114">
        <ele>1606.98</ele>
        <time>2017-08-29T10:05:24Z</time>
      </trkpt>
      <trkpt lat="45.76121" lon="6.71112">
        <ele>1606.98</ele>
        <time>2017-08-29T10:05:25Z</time>
      </trkpt>
      <trkpt lat="45.7612" lon="6.71111">
        <ele>1606.98</ele>
        <time>2017-08-29T10:05:26Z</time>
      </trkpt>
      <trkpt lat="45.76118" lon="6.7111">
        <ele>1607.46</ele>
        <time>2017-08-29T10:05:27Z</time>
      </trkpt>
      <trkpt lat="45.76118" lon="6.71109">
        <ele>1607.94</ele>
        <time>2017-08-29T10:05:28Z</time>
      </trkpt>
      <trkpt lat="45.76116" lon="6.71109">
        <ele>1607.94</ele>
        <time>2017-08-29T10:05:29Z</time>
      </trkpt>
      <trkpt lat="45.76115" lon="6.71109">
        <ele>1608.42</ele>
        <time>2017-08-29T10:05:30Z</time>
      </trkpt>
      <trkpt lat="45.76114" lon="6.71108">
        <ele>1608.42</ele>
        <time>2017-08-29T10:05:31Z</time>
      </trkpt>
      <trkpt lat="45.76097" lon="6.71104">
        <ele>1611.79</ele>
        <time>2017-08-29T10:05:47Z</time>
      </trkpt>
      <trkpt lat="45.76096" lon="6.71104">
        <ele>1611.79</ele>
        <time>2017-08-29T10:05:48Z</time>
      </trkpt>
      <trkpt lat="45.76095" lon="6.71104">
        <ele>1612.27</ele>
        <time>2017-08-29T10:05:49Z</time>
      </trkpt>
      <trkpt lat="45.76093" lon="6.71105">
        <ele>1612.27</ele>
        <time>2017-08-29T10:05:50Z</time>
      </trkpt>
      <trkpt lat="45.76092" lon="6.71105">
        <ele>1612.75</ele>
        <time>2017-08-29T10:05:51Z</time>
      </trkpt>
      <trkpt lat="45.76091" lon="6.71105">
        <ele>1612.75</ele>
        <time>2017-08-29T10:05:52Z</time>
      </trkpt>
      <trkpt lat="45.7609" lon="6.71105">
        <ele>1612.75</ele>
        <time>2017-08-29T10:05:53Z</time>
      </trkpt>
      <trkpt lat="45.76089" lon="6.71106">
        <ele>1613.23</ele>
        <time>2017-08-29T10:05:54Z</time>
      </trkpt>
      <trkpt lat="45.76088" lon="6.71106">
        <ele>1613.23</ele>
        <time>2017-08-29T10:05:55Z</time>
      </trkpt>
      <trkpt lat="45.76087" lon="6.71106">
        <ele>1613.71</ele>
        <time>2017-08-29T10:05:56Z</time>
      </trkpt>
      <trkpt lat="45.76082" lon="6.71107">
        <ele>1614.19</ele>
        <time>2017-08-29T10:06:00Z</time>
      </trkpt>
      <trkpt lat="45.76081" lon="6.71108">
        <ele>1614.67</ele>
        <time>2017-08-29T10:06:01Z</time>
      </trkpt>
      <trkpt lat="45.7608" lon="6.71108">
        <ele>1614.67</ele>
        <time>2017-08-29T10:06:02Z</time>
      </trkpt>
      <trkpt lat="45.76079" lon="6.71108">
        <ele>1615.15</ele>
        <time>2017-08-29T10:06:03Z</time>
      </trkpt>
      <trkpt lat="45.76076" lon="6.71109">
        <ele>1615.15</ele>
        <time>2017-08-29T10:06:05Z</time>
      </trkpt>
      <trkpt lat="45.76075" lon="6.71109">
        <ele>1615.63</ele>
        <time>2017-08-29T10:06:06Z</time>
      </trkpt>
      <trkpt lat="45.76074" lon="6.71109">
        <ele>1615.63</ele>
        <time>2017-08-29T10:06:07Z</time>
      </trkpt>
      <trkpt lat="45.76072" lon="6.7111">
        <ele>1616.11</ele>
        <time>2017-08-29T10:06:08Z</time>
      </trkpt>
      <trkpt lat="45.76071" lon="6.7111">
        <ele>1616.59</ele>
        <time>2017-08-29T10:06:09Z</time>
      </trkpt>
      <trkpt lat="45.7607" lon="6.7111">
        <ele>1616.59</ele>
        <time>2017-08-29T10:06:10Z</time>
      </trkpt>
      <trkpt lat="45.76061" lon="6.71112">
        <ele>1618.52</ele>
        <time>2017-08-29T10:06:17Z</time>
      </trkpt>
      <trkpt lat="45.76059" lon="6.71112">
        <ele>1619</ele>
        <time>2017-08-29T10:06:19Z</time>
      </trkpt>
      <trkpt lat="45.76058" lon="6.71112">
        <ele>1619.48</ele>
        <time>2017-08-29T10:06:20Z</time>
      </trkpt>
      <trkpt lat="45.76054" lon="6.71113">
        <ele>1620.44</ele>
        <time>2017-08-29T10:06:23Z</time>
      </trkpt>
      <trkpt lat="45.76053" lon="6.71113">
        <ele>1620.44</ele>
        <time>2017-08-29T10:06:24Z</time>
      </trkpt>
      <trkpt lat="45.76051" lon="6.71114">
        <ele>1620.44</ele>
        <time>2017-08-29T10:06:25Z</time>
      </trkpt>
      <trkpt lat="45.76049" lon="6.71115">
        <ele>1620.92</ele>
        <time>2017-08-29T10:06:27Z</time>
      </trkpt>
      <trkpt lat="45.76048" lon="6.71115">
        <ele>1621.4</ele>
        <time>2017-08-29T10:06:28Z</time>
      </trkpt>
      <trkpt lat="45.76047" lon="6.71116">
        <ele>1621.4</ele>
        <time>2017-08-29T10:06:29Z</time>
      </trkpt>
      <trkpt lat="45.76046" lon="6.71116">
        <ele>1621.4</ele>
        <time>2017-08-29T10:06:30Z</time>
      </trkpt>
      <trkpt lat="45.76045" lon="6.71116">
        <ele>1621.88</ele>
        <time>2017-08-29T10:06:31Z</time>
      </trkpt>
      <trkpt lat="45.76034" lon="6.71122">
        <ele>1624.28</ele>
        <time>2017-08-29T10:06:40Z</time>
      </trkpt>
      <trkpt lat="45.76033" lon="6.71122">
        <ele>1624.28</ele>
        <time>2017-08-29T10:06:41Z</time>
      </trkpt>
      <trkpt lat="45.76032" lon="6.71123">
        <ele>1624.77</ele>
        <time>2017-08-29T10:06:42Z</time>
      </trkpt>
      <trkpt lat="45.76031" lon="6.71123">
        <ele>1624.77</ele>
        <time>2017-08-29T10:06:43Z</time>
      </trkpt>
      <trkpt lat="45.7603" lon="6.71124">
        <ele>1624.77</ele>
        <time>2017-08-29T10:06:44Z</time>
      </trkpt>
      <trkpt lat="45.76029" lon="6.71124">
        <ele>1625.25</ele>
        <time>2017-08-29T10:06:45Z</time>
      </trkpt>
      <trkpt lat="45.76028" lon="6.71125">
        <ele>1625.25</ele>
        <time>2017-08-29T10:06:46Z</time>
      </trkpt>
      <trkpt lat="45.76027" lon="6.71125">
        <ele>1625.73</ele>
        <time>2017-08-29T10:06:47Z</time>
      </trkpt>
      <trkpt lat="45.76026" lon="6.71126">
        <ele>1626.21</ele>
        <time>2017-08-29T10:06:48Z</time>
      </trkpt>
      <trkpt lat="45.76013" lon="6.71129">
        <ele>1629.09</ele>
        <time>2017-08-29T10:06:59Z</time>
      </trkpt>
      <trkpt lat="45.76008" lon="6.71128">
        <ele>1630.53</ele>
        <time>2017-08-29T10:07:05Z</time>
      </trkpt>
      <trkpt lat="45.76006" lon="6.71127">
        <ele>1631.01</ele>
        <time>2017-08-29T10:07:07Z</time>
      </trkpt>
      <trkpt lat="45.76005" lon="6.71127">
        <ele>1631.01</ele>
        <time>2017-08-29T10:07:08Z</time>
      </trkpt>
      <trkpt lat="45.75993" lon="6.71122">
        <ele>1634.38</ele>
        <time>2017-08-29T10:07:20Z</time>
      </trkpt>
      <trkpt lat="45.75981" lon="6.71112">
        <ele>1637.26</ele>
        <time>2017-08-29T10:07:34Z</time>
      </trkpt>
      <trkpt lat="45.75977" lon="6.71109">
        <ele>1638.22</ele>
        <time>2017-08-29T10:07:38Z</time>
      </trkpt>
      <trkpt lat="45.75976" lon="6.71108">
        <ele>1638.7</ele>
        <time>2017-08-29T10:07:40Z</time>
      </trkpt>
      <trkpt lat="45.75975" lon="6.71107">
        <ele>1639.19</ele>
        <time>2017-08-29T10:07:41Z</time>
      </trkpt>
      <trkpt lat="45.75963" lon="6.71097">
        <ele>1641.59</ele>
        <time>2017-08-29T10:07:52Z</time>
      </trkpt>
      <trkpt lat="45.75962" lon="6.71096">
        <ele>1642.07</ele>
        <time>2017-08-29T10:07:53Z</time>
      </trkpt>
      <trkpt lat="45.75961" lon="6.71096">
        <ele>1642.55</ele>
        <time>2017-08-29T10:07:54Z</time>
      </trkpt>
      <trkpt lat="45.7596" lon="6.71095">
        <ele>1642.55</ele>
        <time>2017-08-29T10:07:55Z</time>
      </trkpt>
      <trkpt lat="45.75959" lon="6.71094">
        <ele>1642.55</ele>
        <time>2017-08-29T10:07:56Z</time>
      </trkpt>
      <trkpt lat="45.75957" lon="6.71093">
        <ele>1643.03</ele>
        <time>2017-08-29T10:07:57Z</time>
      </trkpt>
      <trkpt lat="45.75942" lon="6.71082">
        <ele>1645.91</ele>
        <time>2017-08-29T10:08:11Z</time>
      </trkpt>
      <trkpt lat="45.75941" lon="6.71081">
        <ele>1646.4</ele>
        <time>2017-08-29T10:08:12Z</time>
      </trkpt>
      <trkpt lat="45.75928" lon="6.7107">
        <ele>1649.28</ele>
        <time>2017-08-29T10:08:25Z</time>
      </trkpt>
      <trkpt lat="45.75919" lon="6.71063">
        <ele>1651.68</ele>
        <time>2017-08-29T10:08:34Z</time>
      </trkpt>
      <trkpt lat="45.75904" lon="6.71053">
        <ele>1654.57</ele>
        <time>2017-08-29T10:08:48Z</time>
      </trkpt>
      <trkpt lat="45.75904" lon="6.71053">
        <ele>1655.05</ele>
        <time>2017-08-29T10:08:49Z</time>
      </trkpt>
      <trkpt lat="45.75903" lon="6.71053">
        <ele>1655.53</ele>
        <time>2017-08-29T10:08:50Z</time>
      </trkpt>
      <trkpt lat="45.75892" lon="6.71054">
        <ele>1658.41</ele>
        <time>2017-08-29T10:09:01Z</time>
      </trkpt>
      <trkpt lat="45.75878" lon="6.71072">
        <ele>1660.81</ele>
        <time>2017-08-29T10:09:15Z</time>
      </trkpt>
      <trkpt lat="45.75861" lon="6.71082">
        <ele>1663.22</ele>
        <time>2017-08-29T10:09:27Z</time>
      </trkpt>
      <trkpt lat="45.75844" lon="6.71084">
        <ele>1666.58</ele>
        <time>2017-08-29T10:09:39Z</time>
      </trkpt>
      <trkpt lat="45.75836" lon="6.71083">
        <ele>1668.51</ele>
        <time>2017-08-29T10:09:46Z</time>
      </trkpt>
      <trkpt lat="45.75823" lon="6.71079">
        <ele>1671.39</ele>
        <time>2017-08-29T10:09:57Z</time>
      </trkpt>
      <trkpt lat="45.75822" lon="6.7108">
        <ele>1671.39</ele>
        <time>2017-08-29T10:09:58Z</time>
      </trkpt>
      <trkpt lat="45.75819" lon="6.71079">
        <ele>1672.35</ele>
        <time>2017-08-29T10:10:00Z</time>
      </trkpt>
      <trkpt lat="45.75818" lon="6.71079">
        <ele>1672.83</ele>
        <time>2017-08-29T10:10:01Z</time>
      </trkpt>
      <trkpt lat="45.75815" lon="6.71079">
        <ele>1673.31</ele>
        <time>2017-08-29T10:10:03Z</time>
      </trkpt>
      <trkpt lat="45.75814" lon="6.7108">
        <ele>1673.79</ele>
        <time>2017-08-29T10:10:04Z</time>
      </trkpt>
      <trkpt lat="45.75812" lon="6.7108">
        <ele>1673.79</ele>
        <time>2017-08-29T10:10:05Z</time>
      </trkpt>
      <trkpt lat="45.75811" lon="6.7108">
        <ele>1674.27</ele>
        <time>2017-08-29T10:10:06Z</time>
      </trkpt>
      <trkpt lat="45.7581" lon="6.71081">
        <ele>1674.75</ele>
        <time>2017-08-29T10:10:07Z</time>
      </trkpt>
      <trkpt lat="45.75809" lon="6.71082">
        <ele>1674.75</ele>
        <time>2017-08-29T10:10:08Z</time>
      </trkpt>
      <trkpt lat="45.75807" lon="6.71093">
        <ele>1675.72</ele>
        <time>2017-08-29T10:10:14Z</time>
      </trkpt>
      <trkpt lat="45.75809" lon="6.71095">
        <ele>1676.2</ele>
        <time>2017-08-29T10:10:16Z</time>
      </trkpt>
      <trkpt lat="45.7581" lon="6.71097">
        <ele>1676.2</ele>
        <time>2017-08-29T10:10:17Z</time>
      </trkpt>
      <trkpt lat="45.75811" lon="6.71099">
        <ele>1676.2</ele>
        <time>2017-08-29T10:10:18Z</time>
      </trkpt>
      <trkpt lat="45.75812" lon="6.711">
        <ele>1676.2</ele>
        <time>2017-08-29T10:10:19Z</time>
      </trkpt>
      <trkpt lat="45.75813" lon="6.71102">
        <ele>1676.2</ele>
        <time>2017-08-29T10:10:20Z</time>
      </trkpt>
      <trkpt lat="45.75814" lon="6.71105">
        <ele>1676.2</ele>
        <time>2017-08-29T10:10:21Z</time>
      </trkpt>
      <trkpt lat="45.75814" lon="6.71107">
        <ele>1675.23</ele>
        <time>2017-08-29T10:10:22Z</time>
      </trkpt>
      <trkpt lat="45.75815" lon="6.71112">
        <ele>1675.23</ele>
        <time>2017-08-29T10:10:25Z</time>
      </trkpt>
      <trkpt lat="45.75814" lon="6.71113">
        <ele>1674.75</ele>
        <time>2017-08-29T10:10:30Z</time>
      </trkpt>
      <trkpt lat="45.75815" lon="6.71113">
        <ele>1674.27</ele>
        <time>2017-08-29T10:10:34Z</time>
      </trkpt>
      <trkpt lat="45.75815" lon="6.71112">
        <ele>1674.75</ele>
        <time>2017-08-29T10:10:36Z</time>
      </trkpt>
      <trkpt lat="45.75815" lon="6.71112">
        <ele>1674.27</ele>
        <time>2017-08-29T10:10:38Z</time>
      </trkpt>
      <trkpt lat="45.75816" lon="6.71113">
        <ele>1676.2</ele>
        <time>2017-08-29T10:10:42Z</time>
      </trkpt>
      <trkpt lat="45.75816" lon="6.71113">
        <ele>1674.75</ele>
        <time>2017-08-29T10:10:43Z</time>
      </trkpt>
      <trkpt lat="45.75816" lon="6.71113">
        <ele>1674.75</ele>
        <time>2017-08-29T10:10:45Z</time>
      </trkpt>
      <trkpt lat="45.75815" lon="6.71108">
        <ele>1674.75</ele>
        <time>2017-08-29T10:10:54Z</time>
      </trkpt>
      <trkpt lat="45.75815" lon="6.71106">
        <ele>1675.23</ele>
        <time>2017-08-29T10:10:55Z</time>
      </trkpt>
      <trkpt lat="45.75813" lon="6.71104">
        <ele>1675.23</ele>
        <time>2017-08-29T10:10:56Z</time>
      </trkpt>
      <trkpt lat="45.75812" lon="6.71102">
        <ele>1675.23</ele>
        <time>2017-08-29T10:10:57Z</time>
      </trkpt>
      <trkpt lat="45.7581" lon="6.71101">
        <ele>1675.23</ele>
        <time>2017-08-29T10:10:58Z</time>
      </trkpt>
      <trkpt lat="45.75809" lon="6.711">
        <ele>1675.23</ele>
        <time>2017-08-29T10:10:59Z</time>
      </trkpt>
      <trkpt lat="45.75807" lon="6.71099">
        <ele>1675.72</ele>
        <time>2017-08-29T10:11:00Z</time>
      </trkpt>
      <trkpt lat="45.75806" lon="6.711">
        <ele>1675.72</ele>
        <time>2017-08-29T10:11:01Z</time>
      </trkpt>
      <trkpt lat="45.75805" lon="6.71101">
        <ele>1675.72</ele>
        <time>2017-08-29T10:11:02Z</time>
      </trkpt>
      <trkpt lat="45.75804" lon="6.71103">
        <ele>1675.72</ele>
        <time>2017-08-29T10:11:03Z</time>
      </trkpt>
      <trkpt lat="45.75803" lon="6.71106">
        <ele>1676.2</ele>
        <time>2017-08-29T10:11:04Z</time>
      </trkpt>
      <trkpt lat="45.75802" lon="6.71108">
        <ele>1676.2</ele>
        <time>2017-08-29T10:11:05Z</time>
      </trkpt>
      <trkpt lat="45.75801" lon="6.71111">
        <ele>1676.2</ele>
        <time>2017-08-29T10:11:06Z</time>
      </trkpt>
      <trkpt lat="45.758" lon="6.71112">
        <ele>1676.68</ele>
        <time>2017-08-29T10:11:07Z</time>
      </trkpt>
      <trkpt lat="45.75799" lon="6.71114">
        <ele>1676.68</ele>
        <time>2017-08-29T10:11:08Z</time>
      </trkpt>
      <trkpt lat="45.75797" lon="6.71115">
        <ele>1677.16</ele>
        <time>2017-08-29T10:11:09Z</time>
      </trkpt>
      <trkpt lat="45.75795" lon="6.71115">
        <ele>1677.64</ele>
        <time>2017-08-29T10:11:10Z</time>
      </trkpt>
      <trkpt lat="45.75793" lon="6.71116">
        <ele>1677.64</ele>
        <time>2017-08-29T10:11:11Z</time>
      </trkpt>
      <trkpt lat="45.75792" lon="6.71115">
        <ele>1678.12</ele>
        <time>2017-08-29T10:11:12Z</time>
      </trkpt>
      <trkpt lat="45.7579" lon="6.71115">
        <ele>1678.12</ele>
        <time>2017-08-29T10:11:13Z</time>
      </trkpt>
      <trkpt lat="45.75788" lon="6.71114">
        <ele>1678.6</ele>
        <time>2017-08-29T10:11:14Z</time>
      </trkpt>
      <trkpt lat="45.75786" lon="6.71113">
        <ele>1678.6</ele>
        <time>2017-08-29T10:11:15Z</time>
      </trkpt>
      <trkpt lat="45.75784" lon="6.71112">
        <ele>1679.08</ele>
        <time>2017-08-29T10:11:16Z</time>
      </trkpt>
      <trkpt lat="45.7578" lon="6.71109">
        <ele>1679.56</ele>
        <time>2017-08-29T10:11:18Z</time>
      </trkpt>
      <trkpt lat="45.7577" lon="6.71101">
        <ele>1681</ele>
        <time>2017-08-29T10:11:23Z</time>
      </trkpt>
      <trkpt lat="45.75758" lon="6.71089">
        <ele>1682.93</ele>
        <time>2017-08-29T10:11:30Z</time>
      </trkpt>
      <trkpt lat="45.75743" lon="6.71073">
        <ele>1685.81</ele>
        <time>2017-08-29T10:11:40Z</time>
      </trkpt>
      <trkpt lat="45.75726" lon="6.71066">
        <ele>1688.21</ele>
        <time>2017-08-29T10:11:51Z</time>
      </trkpt>
      <trkpt lat="45.75713" lon="6.71052">
        <ele>1690.14</ele>
        <time>2017-08-29T10:12:00Z</time>
      </trkpt>
      <trkpt lat="45.75708" lon="6.71049">
        <ele>1691.58</ele>
        <time>2017-08-29T10:12:04Z</time>
      </trkpt>
      <trkpt lat="45.75699" lon="6.71035">
        <ele>1694.94</ele>
        <time>2017-08-29T10:12:17Z</time>
      </trkpt>
      <trkpt lat="45.75693" lon="6.71026">
        <ele>1696.86</ele>
        <time>2017-08-29T10:12:25Z</time>
      </trkpt>
      <trkpt lat="45.75689" lon="6.71028">
        <ele>1698.79</ele>
        <time>2017-08-29T10:12:32Z</time>
      </trkpt>
      <trkpt lat="45.75687" lon="6.71028">
        <ele>1699.27</ele>
        <time>2017-08-29T10:12:34Z</time>
      </trkpt>
      <trkpt lat="45.75686" lon="6.71028">
        <ele>1699.27</ele>
        <time>2017-08-29T10:12:35Z</time>
      </trkpt>
      <trkpt lat="45.75686" lon="6.71027">
        <ele>1699.75</ele>
        <time>2017-08-29T10:12:36Z</time>
      </trkpt>
      <trkpt lat="45.75685" lon="6.71026">
        <ele>1700.23</ele>
        <time>2017-08-29T10:12:37Z</time>
      </trkpt>
      <trkpt lat="45.75684" lon="6.71025">
        <ele>1700.23</ele>
        <time>2017-08-29T10:12:38Z</time>
      </trkpt>
      <trkpt lat="45.75685" lon="6.71023">
        <ele>1700.23</ele>
        <time>2017-08-29T10:12:39Z</time>
      </trkpt>
      <trkpt lat="45.75685" lon="6.71021">
        <ele>1700.71</ele>
        <time>2017-08-29T10:12:40Z</time>
      </trkpt>
      <trkpt lat="45.75685" lon="6.71014">
        <ele>1702.15</ele>
        <time>2017-08-29T10:12:45Z</time>
      </trkpt>
      <trkpt lat="45.75687" lon="6.71012">
        <ele>1702.63</ele>
        <time>2017-08-29T10:12:47Z</time>
      </trkpt>
      <trkpt lat="45.75688" lon="6.71009">
        <ele>1703.11</ele>
        <time>2017-08-29T10:12:50Z</time>
      </trkpt>
      <trkpt lat="45.75685" lon="6.71004">
        <ele>1705.04</ele>
        <time>2017-08-29T10:12:57Z</time>
      </trkpt>
      <trkpt lat="45.75675" lon="6.70995">
        <ele>1707.44</ele>
        <time>2017-08-29T10:13:09Z</time>
      </trkpt>
      <trkpt lat="45.75674" lon="6.70993">
        <ele>1707.44</ele>
        <time>2017-08-29T10:13:10Z</time>
      </trkpt>
      <trkpt lat="45.75674" lon="6.70991">
        <ele>1708.4</ele>
        <time>2017-08-29T10:13:12Z</time>
      </trkpt>
      <trkpt lat="45.75672" lon="6.70988">
        <ele>1708.88</ele>
        <time>2017-08-29T10:13:15Z</time>
      </trkpt>
      <trkpt lat="45.75665" lon="6.70972">
        <ele>1712.25</ele>
        <time>2017-08-29T10:13:29Z</time>
      </trkpt>
      <trkpt lat="45.7566" lon="6.70956">
        <ele>1715.61</ele>
        <time>2017-08-29T10:13:43Z</time>
      </trkpt>
      <trkpt lat="45.7566" lon="6.70953">
        <ele>1716.09</ele>
        <time>2017-08-29T10:13:45Z</time>
      </trkpt>
      <trkpt lat="45.7566" lon="6.70952">
        <ele>1716.57</ele>
        <time>2017-08-29T10:13:46Z</time>
      </trkpt>
      <trkpt lat="45.75659" lon="6.70947">
        <ele>1717.53</ele>
        <time>2017-08-29T10:13:51Z</time>
      </trkpt>
      <trkpt lat="45.75658" lon="6.70939">
        <ele>1720.42</ele>
        <time>2017-08-29T10:14:01Z</time>
      </trkpt>
      <trkpt lat="45.75655" lon="6.70937">
        <ele>1721.38</ele>
        <time>2017-08-29T10:14:05Z</time>
      </trkpt>
      <trkpt lat="45.75655" lon="6.70935">
        <ele>1721.38</ele>
        <time>2017-08-29T10:14:06Z</time>
      </trkpt>
      <trkpt lat="45.75653" lon="6.70933">
        <ele>1721.38</ele>
        <time>2017-08-29T10:14:08Z</time>
      </trkpt>
      <trkpt lat="45.75649" lon="6.70921">
        <ele>1723.78</ele>
        <time>2017-08-29T10:14:19Z</time>
      </trkpt>
      <trkpt lat="45.75649" lon="6.7092">
        <ele>1724.26</ele>
        <time>2017-08-29T10:14:20Z</time>
      </trkpt>
      <trkpt lat="45.75648" lon="6.70916">
        <ele>1725.7</ele>
        <time>2017-08-29T10:14:24Z</time>
      </trkpt>
      <trkpt lat="45.7564" lon="6.70902">
        <ele>1728.59</ele>
        <time>2017-08-29T10:14:38Z</time>
      </trkpt>
      <trkpt lat="45.75633" lon="6.70891">
        <ele>1731.95</ele>
        <time>2017-08-29T10:14:50Z</time>
      </trkpt>
      <trkpt lat="45.75625" lon="6.70877">
        <ele>1733.39</ele>
        <time>2017-08-29T10:14:59Z</time>
      </trkpt>
      <trkpt lat="45.75609" lon="6.70857">
        <ele>1735.32</ele>
        <time>2017-08-29T10:15:10Z</time>
      </trkpt>
      <trkpt lat="45.75595" lon="6.70839">
        <ele>1737.24</ele>
        <time>2017-08-29T10:15:20Z</time>
      </trkpt>
      <trkpt lat="45.75578" lon="6.70825">
        <ele>1738.2</ele>
        <time>2017-08-29T10:15:30Z</time>
      </trkpt>
      <trkpt lat="45.75561" lon="6.70809">
        <ele>1741.08</ele>
        <time>2017-08-29T10:15:41Z</time>
      </trkpt>
      <trkpt lat="45.75559" lon="6.70809">
        <ele>1741.57</ele>
        <time>2017-08-29T10:15:43Z</time>
      </trkpt>
      <trkpt lat="45.75557" lon="6.7081">
        <ele>1741.57</ele>
        <time>2017-08-29T10:15:44Z</time>
      </trkpt>
      <trkpt lat="45.75556" lon="6.70811">
        <ele>1742.05</ele>
        <time>2017-08-29T10:15:45Z</time>
      </trkpt>
      <trkpt lat="45.75555" lon="6.70812">
        <ele>1742.05</ele>
        <time>2017-08-29T10:15:46Z</time>
      </trkpt>
      <trkpt lat="45.75554" lon="6.70813">
        <ele>1742.53</ele>
        <time>2017-08-29T10:15:47Z</time>
      </trkpt>
      <trkpt lat="45.75554" lon="6.70815">
        <ele>1743.01</ele>
        <time>2017-08-29T10:15:48Z</time>
      </trkpt>
      <trkpt lat="45.75553" lon="6.70816">
        <ele>1743.01</ele>
        <time>2017-08-29T10:15:49Z</time>
      </trkpt>
      <trkpt lat="45.75541" lon="6.70827">
        <ele>1745.89</ele>
        <time>2017-08-29T10:16:01Z</time>
      </trkpt>
      <trkpt lat="45.7554" lon="6.70826">
        <ele>1746.37</ele>
        <time>2017-08-29T10:16:02Z</time>
      </trkpt>
      <trkpt lat="45.75537" lon="6.70824">
        <ele>1747.81</ele>
        <time>2017-08-29T10:16:05Z</time>
      </trkpt>
      <trkpt lat="45.75535" lon="6.70822">
        <ele>1747.81</ele>
        <time>2017-08-29T10:16:07Z</time>
      </trkpt>
      <trkpt lat="45.75534" lon="6.70822">
        <ele>1748.29</ele>
        <time>2017-08-29T10:16:08Z</time>
      </trkpt>
      <trkpt lat="45.75531" lon="6.7082">
        <ele>1748.78</ele>
        <time>2017-08-29T10:16:11Z</time>
      </trkpt>
      <trkpt lat="45.7553" lon="6.70819">
        <ele>1749.26</ele>
        <time>2017-08-29T10:16:12Z</time>
      </trkpt>
      <trkpt lat="45.75528" lon="6.7082">
        <ele>1749.74</ele>
        <time>2017-08-29T10:16:13Z</time>
      </trkpt>
      <trkpt lat="45.75527" lon="6.7082">
        <ele>1749.74</ele>
        <time>2017-08-29T10:16:14Z</time>
      </trkpt>
      <trkpt lat="45.75525" lon="6.7082">
        <ele>1750.22</ele>
        <time>2017-08-29T10:16:15Z</time>
      </trkpt>
      <trkpt lat="45.75523" lon="6.7082">
        <ele>1750.22</ele>
        <time>2017-08-29T10:16:16Z</time>
      </trkpt>
      <trkpt lat="45.7552" lon="6.70819">
        <ele>1750.22</ele>
        <time>2017-08-29T10:16:17Z</time>
      </trkpt>
      <trkpt lat="45.75519" lon="6.70818">
        <ele>1750.22</ele>
        <time>2017-08-29T10:16:18Z</time>
      </trkpt>
      <trkpt lat="45.75517" lon="6.70816">
        <ele>1750.22</ele>
        <time>2017-08-29T10:16:19Z</time>
      </trkpt>
      <trkpt lat="45.75515" lon="6.70815">
        <ele>1750.22</ele>
        <time>2017-08-29T10:16:20Z</time>
      </trkpt>
      <trkpt lat="45.75514" lon="6.70813">
        <ele>1750.7</ele>
        <time>2017-08-29T10:16:21Z</time>
      </trkpt>
      <trkpt lat="45.75513" lon="6.70812">
        <ele>1751.18</ele>
        <time>2017-08-29T10:16:22Z</time>
      </trkpt>
      <trkpt lat="45.75511" lon="6.70811">
        <ele>1751.18</ele>
        <time>2017-08-29T10:16:23Z</time>
      </trkpt>
      <trkpt lat="45.7551" lon="6.70811">
        <ele>1751.66</ele>
        <time>2017-08-29T10:16:24Z</time>
      </trkpt>
      <trkpt lat="45.75508" lon="6.7081">
        <ele>1751.66</ele>
        <time>2017-08-29T10:16:25Z</time>
      </trkpt>
      <trkpt lat="45.75494" lon="6.70803">
        <ele>1755.02</ele>
        <time>2017-08-29T10:16:36Z</time>
      </trkpt>
      <trkpt lat="45.75493" lon="6.70801">
        <ele>1755.02</ele>
        <time>2017-08-29T10:16:37Z</time>
      </trkpt>
      <trkpt lat="45.75492" lon="6.708">
        <ele>1755.5</ele>
        <time>2017-08-29T10:16:38Z</time>
      </trkpt>
      <trkpt lat="45.75491" lon="6.70799">
        <ele>1755.5</ele>
        <time>2017-08-29T10:16:39Z</time>
      </trkpt>
      <trkpt lat="45.7549" lon="6.70799">
        <ele>1755.99</ele>
        <time>2017-08-29T10:16:40Z</time>
      </trkpt>
      <trkpt lat="45.75489" lon="6.70797">
        <ele>1755.99</ele>
        <time>2017-08-29T10:16:41Z</time>
      </trkpt>
      <trkpt lat="45.75487" lon="6.70797">
        <ele>1755.99</ele>
        <time>2017-08-29T10:16:42Z</time>
      </trkpt>
      <trkpt lat="45.75486" lon="6.70797">
        <ele>1756.47</ele>
        <time>2017-08-29T10:16:43Z</time>
      </trkpt>
      <trkpt lat="45.75485" lon="6.70797">
        <ele>1756.47</ele>
        <time>2017-08-29T10:16:44Z</time>
      </trkpt>
      <trkpt lat="45.75469" lon="6.70792">
        <ele>1759.83</ele>
        <time>2017-08-29T10:17:00Z</time>
      </trkpt>
      <trkpt lat="45.75464" lon="6.70791">
        <ele>1760.31</ele>
        <time>2017-08-29T10:17:03Z</time>
      </trkpt>
      <trkpt lat="45.75446" lon="6.70797">
        <ele>1762.71</ele>
        <time>2017-08-29T10:17:15Z</time>
      </trkpt>
      <trkpt lat="45.75431" lon="6.70816">
        <ele>1764.64</ele>
        <time>2017-08-29T10:17:27Z</time>
      </trkpt>
      <trkpt lat="45.75421" lon="6.70822">
        <ele>1766.56</ele>
        <time>2017-08-29T10:17:34Z</time>
      </trkpt>
      <trkpt lat="45.7542" lon="6.70822">
        <ele>1767.04</ele>
        <time>2017-08-29T10:17:35Z</time>
      </trkpt>
      <trkpt lat="45.75414" lon="6.70825">
        <ele>1768.48</ele>
        <time>2017-08-29T10:17:39Z</time>
      </trkpt>
      <trkpt lat="45.75413" lon="6.70827">
        <ele>1768.96</ele>
        <time>2017-08-29T10:17:40Z</time>
      </trkpt>
      <trkpt lat="45.75413" lon="6.70828">
        <ele>1769.44</ele>
        <time>2017-08-29T10:17:41Z</time>
      </trkpt>
      <trkpt lat="45.75412" lon="6.7083">
        <ele>1769.92</ele>
        <time>2017-08-29T10:17:42Z</time>
      </trkpt>
      <trkpt lat="45.75411" lon="6.70831">
        <ele>1769.92</ele>
        <time>2017-08-29T10:17:43Z</time>
      </trkpt>
      <trkpt lat="45.7541" lon="6.70832">
        <ele>1770.41</ele>
        <time>2017-08-29T10:17:44Z</time>
      </trkpt>
      <trkpt lat="45.75409" lon="6.70833">
        <ele>1770.41</ele>
        <time>2017-08-29T10:17:45Z</time>
      </trkpt>
      <trkpt lat="45.75408" lon="6.70835">
        <ele>1770.89</ele>
        <time>2017-08-29T10:17:46Z</time>
      </trkpt>
      <trkpt lat="45.75408" lon="6.70837">
        <ele>1771.37</ele>
        <time>2017-08-29T10:17:47Z</time>
      </trkpt>
      <trkpt lat="45.75406" lon="6.70838">
        <ele>1771.37</ele>
        <time>2017-08-29T10:17:48Z</time>
      </trkpt>
      <trkpt lat="45.75405" lon="6.70839">
        <ele>1771.37</ele>
        <time>2017-08-29T10:17:49Z</time>
      </trkpt>
      <trkpt lat="45.75404" lon="6.7084">
        <ele>1771.37</ele>
        <time>2017-08-29T10:17:50Z</time>
      </trkpt>
      <trkpt lat="45.75403" lon="6.70841">
        <ele>1771.85</ele>
        <time>2017-08-29T10:17:51Z</time>
      </trkpt>
      <trkpt lat="45.75402" lon="6.70842">
        <ele>1772.33</ele>
        <time>2017-08-29T10:17:52Z</time>
      </trkpt>
      <trkpt lat="45.75402" lon="6.70843">
        <ele>1772.33</ele>
        <time>2017-08-29T10:17:53Z</time>
      </trkpt>
      <trkpt lat="45.75401" lon="6.70845">
        <ele>1772.81</ele>
        <time>2017-08-29T10:17:54Z</time>
      </trkpt>
      <trkpt lat="45.75401" lon="6.70847">
        <ele>1772.81</ele>
        <time>2017-08-29T10:17:55Z</time>
      </trkpt>
      <trkpt lat="45.75399" lon="6.70848">
        <ele>1773.29</ele>
        <time>2017-08-29T10:17:56Z</time>
      </trkpt>
      <trkpt lat="45.75398" lon="6.70849">
        <ele>1773.77</ele>
        <time>2017-08-29T10:17:57Z</time>
      </trkpt>
      <trkpt lat="45.75391" lon="6.70865">
        <ele>1775.69</ele>
        <time>2017-08-29T10:18:08Z</time>
      </trkpt>
      <trkpt lat="45.75389" lon="6.70866">
        <ele>1776.65</ele>
        <time>2017-08-29T10:18:10Z</time>
      </trkpt>
      <trkpt lat="45.75388" lon="6.70866">
        <ele>1776.65</ele>
        <time>2017-08-29T10:18:11Z</time>
      </trkpt>
      <trkpt lat="45.75387" lon="6.70868">
        <ele>1777.13</ele>
        <time>2017-08-29T10:18:12Z</time>
      </trkpt>
      <trkpt lat="45.75386" lon="6.70869">
        <ele>1777.61</ele>
        <time>2017-08-29T10:18:13Z</time>
      </trkpt>
      <trkpt lat="45.75385" lon="6.7087">
        <ele>1777.61</ele>
        <time>2017-08-29T10:18:14Z</time>
      </trkpt>
      <trkpt lat="45.75385" lon="6.70871">
        <ele>1777.61</ele>
        <time>2017-08-29T10:18:15Z</time>
      </trkpt>
      <trkpt lat="45.75385" lon="6.70873">
        <ele>1778.58</ele>
        <time>2017-08-29T10:18:17Z</time>
      </trkpt>
      <trkpt lat="45.75384" lon="6.70874">
        <ele>1778.58</ele>
        <time>2017-08-29T10:18:18Z</time>
      </trkpt>
      <trkpt lat="45.75383" lon="6.70876">
        <ele>1779.06</ele>
        <time>2017-08-29T10:18:19Z</time>
      </trkpt>
      <trkpt lat="45.75382" lon="6.70877">
        <ele>1779.06</ele>
        <time>2017-08-29T10:18:20Z</time>
      </trkpt>
      <trkpt lat="45.7538" lon="6.70878">
        <ele>1779.54</ele>
        <time>2017-08-29T10:18:22Z</time>
      </trkpt>
      <trkpt lat="45.75379" lon="6.70878">
        <ele>1780.02</ele>
        <time>2017-08-29T10:18:23Z</time>
      </trkpt>
      <trkpt lat="45.75366" lon="6.70878">
        <ele>1782.9</ele>
        <time>2017-08-29T10:18:37Z</time>
      </trkpt>
      <trkpt lat="45.75366" lon="6.70878">
        <ele>1783.38</ele>
        <time>2017-08-29T10:18:38Z</time>
      </trkpt>
      <trkpt lat="45.75362" lon="6.70884">
        <ele>1785.31</ele>
        <time>2017-08-29T10:18:46Z</time>
      </trkpt>
      <trkpt lat="45.75362" lon="6.70885">
        <ele>1785.31</ele>
        <time>2017-08-29T10:18:47Z</time>
      </trkpt>
      <trkpt lat="45.75361" lon="6.70886">
        <ele>1785.31</ele>
        <time>2017-08-29T10:18:48Z</time>
      </trkpt>
      <trkpt lat="45.75361" lon="6.70887">
        <ele>1785.79</ele>
        <time>2017-08-29T10:18:49Z</time>
      </trkpt>
      <trkpt lat="45.75361" lon="6.70888">
        <ele>1785.79</ele>
        <time>2017-08-29T10:18:50Z</time>
      </trkpt>
      <trkpt lat="45.75362" lon="6.70891">
        <ele>1786.27</ele>
        <time>2017-08-29T10:18:52Z</time>
      </trkpt>
      <trkpt lat="45.75362" lon="6.70893">
        <ele>1786.75</ele>
        <time>2017-08-29T10:18:53Z</time>
      </trkpt>
      <trkpt lat="45.75362" lon="6.70895">
        <ele>1786.75</ele>
        <time>2017-08-29T10:18:54Z</time>
      </trkpt>
      <trkpt lat="45.75361" lon="6.70896">
        <ele>1787.23</ele>
        <time>2017-08-29T10:18:55Z</time>
      </trkpt>
      <trkpt lat="45.7536" lon="6.70897">
        <ele>1787.23</ele>
        <time>2017-08-29T10:18:56Z</time>
      </trkpt>
      <trkpt lat="45.75359" lon="6.70898">
        <ele>1787.23</ele>
        <time>2017-08-29T10:18:57Z</time>
      </trkpt>
      <trkpt lat="45.75358" lon="6.70899">
        <ele>1787.71</ele>
        <time>2017-08-29T10:18:58Z</time>
      </trkpt>
      <trkpt lat="45.75357" lon="6.709">
        <ele>1788.19</ele>
        <time>2017-08-29T10:18:59Z</time>
      </trkpt>
      <trkpt lat="45.75355" lon="6.70905">
        <ele>1789.15</ele>
        <time>2017-08-29T10:19:03Z</time>
      </trkpt>
      <trkpt lat="45.75354" lon="6.70906">
        <ele>1789.63</ele>
        <time>2017-08-29T10:19:04Z</time>
      </trkpt>
      <trkpt lat="45.75352" lon="6.70907">
        <ele>1789.63</ele>
        <time>2017-08-29T10:19:06Z</time>
      </trkpt>
      <trkpt lat="45.75348" lon="6.70907">
        <ele>1790.11</ele>
        <time>2017-08-29T10:19:09Z</time>
      </trkpt>
      <trkpt lat="45.75346" lon="6.70908">
        <ele>1790.59</ele>
        <time>2017-08-29T10:19:12Z</time>
      </trkpt>
      <trkpt lat="45.75342" lon="6.70909">
        <ele>1792.03</ele>
        <time>2017-08-29T10:19:18Z</time>
      </trkpt>
      <trkpt lat="45.75339" lon="6.7091">
        <ele>1793.48</ele>
        <time>2017-08-29T10:19:22Z</time>
      </trkpt>
      <trkpt lat="45.75339" lon="6.70911">
        <ele>1793.96</ele>
        <time>2017-08-29T10:19:23Z</time>
      </trkpt>
      <trkpt lat="45.75337" lon="6.70914">
        <ele>1794.44</ele>
        <time>2017-08-29T10:19:26Z</time>
      </trkpt>
      <trkpt lat="45.75332" lon="6.70909">
        <ele>1796.36</ele>
        <time>2017-08-29T10:19:33Z</time>
      </trkpt>
      <trkpt lat="45.75331" lon="6.70909">
        <ele>1796.36</ele>
        <time>2017-08-29T10:19:34Z</time>
      </trkpt>
      <trkpt lat="45.75331" lon="6.70909">
        <ele>1796.84</ele>
        <time>2017-08-29T10:19:35Z</time>
      </trkpt>
      <trkpt lat="45.75328" lon="6.70913">
        <ele>1798.28</ele>
        <time>2017-08-29T10:19:41Z</time>
      </trkpt>
      <trkpt lat="45.75326" lon="6.70925">
        <ele>1800.21</ele>
        <time>2017-08-29T10:19:51Z</time>
      </trkpt>
      <trkpt lat="45.75326" lon="6.70926">
        <ele>1800.69</ele>
        <time>2017-08-29T10:19:52Z</time>
      </trkpt>
      <trkpt lat="45.75326" lon="6.70928">
        <ele>1800.69</ele>
        <time>2017-08-29T10:19:53Z</time>
      </trkpt>
      <trkpt lat="45.75327" lon="6.7093">
        <ele>1801.17</ele>
        <time>2017-08-29T10:19:55Z</time>
      </trkpt>
      <trkpt lat="45.75327" lon="6.70932">
        <ele>1801.17</ele>
        <time>2017-08-29T10:19:56Z</time>
      </trkpt>
      <trkpt lat="45.75326" lon="6.70933">
        <ele>1801.17</ele>
        <time>2017-08-29T10:19:57Z</time>
      </trkpt>
      <trkpt lat="45.75325" lon="6.70934">
        <ele>1801.17</ele>
        <time>2017-08-29T10:19:58Z</time>
      </trkpt>
      <trkpt lat="45.75324" lon="6.70934">
        <ele>1801.65</ele>
        <time>2017-08-29T10:19:59Z</time>
      </trkpt>
      <trkpt lat="45.75318" lon="6.70936">
        <ele>1804.05</ele>
        <time>2017-08-29T10:20:07Z</time>
      </trkpt>
      <trkpt lat="45.75317" lon="6.70938">
        <ele>1804.05</ele>
        <time>2017-08-29T10:20:09Z</time>
      </trkpt>
      <trkpt lat="45.75316" lon="6.70938">
        <ele>1804.05</ele>
        <time>2017-08-29T10:20:10Z</time>
      </trkpt>
      <trkpt lat="45.75314" lon="6.70938">
        <ele>1804.53</ele>
        <time>2017-08-29T10:20:11Z</time>
      </trkpt>
      <trkpt lat="45.75308" lon="6.70941">
        <ele>1807.42</ele>
        <time>2017-08-29T10:20:23Z</time>
      </trkpt>
      <trkpt lat="45.75305" lon="6.70944">
        <ele>1808.38</ele>
        <time>2017-08-29T10:20:27Z</time>
      </trkpt>
      <trkpt lat="45.75303" lon="6.70949">
        <ele>1809.82</ele>
        <time>2017-08-29T10:20:34Z</time>
      </trkpt>
      <trkpt lat="45.75302" lon="6.70952">
        <ele>1810.78</ele>
        <time>2017-08-29T10:20:36Z</time>
      </trkpt>
      <trkpt lat="45.75302" lon="6.70953">
        <ele>1810.78</ele>
        <time>2017-08-29T10:20:37Z</time>
      </trkpt>
      <trkpt lat="45.75298" lon="6.70955">
        <ele>1813.66</ele>
        <time>2017-08-29T10:20:47Z</time>
      </trkpt>
      <trkpt lat="45.75297" lon="6.70955">
        <ele>1813.66</ele>
        <time>2017-08-29T10:20:48Z</time>
      </trkpt>
      <trkpt lat="45.7529" lon="6.70949">
        <ele>1817.03</ele>
        <time>2017-08-29T10:21:03Z</time>
      </trkpt>
      <trkpt lat="45.75289" lon="6.70951">
        <ele>1817.03</ele>
        <time>2017-08-29T10:21:04Z</time>
      </trkpt>
      <trkpt lat="45.75289" lon="6.70951">
        <ele>1817.51</ele>
        <time>2017-08-29T10:21:05Z</time>
      </trkpt>
      <trkpt lat="45.75288" lon="6.70951">
        <ele>1817.51</ele>
        <time>2017-08-29T10:21:06Z</time>
      </trkpt>
      <trkpt lat="45.75287" lon="6.70951">
        <ele>1817.99</ele>
        <time>2017-08-29T10:21:07Z</time>
      </trkpt>
      <trkpt lat="45.75284" lon="6.70948">
        <ele>1818.95</ele>
        <time>2017-08-29T10:21:12Z</time>
      </trkpt>
      <trkpt lat="45.75277" lon="6.7095">
        <ele>1821.84</ele>
        <time>2017-08-29T10:21:25Z</time>
      </trkpt>
      <trkpt lat="45.7527" lon="6.70943">
        <ele>1824.72</ele>
        <time>2017-08-29T10:21:37Z</time>
      </trkpt>
      <trkpt lat="45.75269" lon="6.70943">
        <ele>1825.2</ele>
        <time>2017-08-29T10:21:38Z</time>
      </trkpt>
      <trkpt lat="45.75263" lon="6.70946">
        <ele>1828.08</ele>
        <time>2017-08-29T10:21:51Z</time>
      </trkpt>
      <trkpt lat="45.75255" lon="6.70941">
        <ele>1830.97</ele>
        <time>2017-08-29T10:22:05Z</time>
      </trkpt>
      <trkpt lat="45.75252" lon="6.70932">
        <ele>1832.89</ele>
        <time>2017-08-29T10:22:12Z</time>
      </trkpt>
      <trkpt lat="45.75253" lon="6.70931">
        <ele>1832.89</ele>
        <time>2017-08-29T10:22:13Z</time>
      </trkpt>
      <trkpt lat="45.75253" lon="6.70929">
        <ele>1833.37</ele>
        <time>2017-08-29T10:22:15Z</time>
      </trkpt>
      <trkpt lat="45.75253" lon="6.70923">
        <ele>1834.81</ele>
        <time>2017-08-29T10:22:21Z</time>
      </trkpt>
      <trkpt lat="45.7525" lon="6.7092">
        <ele>1836.74</ele>
        <time>2017-08-29T10:22:30Z</time>
      </trkpt>
      <trkpt lat="45.75247" lon="6.70926">
        <ele>1837.22</ele>
        <time>2017-08-29T10:22:35Z</time>
      </trkpt>
      <trkpt lat="45.75242" lon="6.70933">
        <ele>1838.66</ele>
        <time>2017-08-29T10:22:41Z</time>
      </trkpt>
      <trkpt lat="45.75239" lon="6.70939">
        <ele>1840.1</ele>
        <time>2017-08-29T10:22:47Z</time>
      </trkpt>
      <trkpt lat="45.75238" lon="6.7094">
        <ele>1840.1</ele>
        <time>2017-08-29T10:22:48Z</time>
      </trkpt>
      <trkpt lat="45.75237" lon="6.70941">
        <ele>1840.58</ele>
        <time>2017-08-29T10:22:49Z</time>
      </trkpt>
      <trkpt lat="45.75237" lon="6.70942">
        <ele>1840.58</ele>
        <time>2017-08-29T10:22:50Z</time>
      </trkpt>
      <trkpt lat="45.75236" lon="6.70943">
        <ele>1840.58</ele>
        <time>2017-08-29T10:22:51Z</time>
      </trkpt>
      <trkpt lat="45.75235" lon="6.70943">
        <ele>1841.06</ele>
        <time>2017-08-29T10:22:52Z</time>
      </trkpt>
      <trkpt lat="45.75232" lon="6.70945">
        <ele>1842.5</ele>
        <time>2017-08-29T10:22:57Z</time>
      </trkpt>
      <trkpt lat="45.75225" lon="6.70947">
        <ele>1844.43</ele>
        <time>2017-08-29T10:23:07Z</time>
      </trkpt>
      <trkpt lat="45.75219" lon="6.70952">
        <ele>1846.83</ele>
        <time>2017-08-29T10:23:17Z</time>
      </trkpt>
      <trkpt lat="45.75218" lon="6.70952">
        <ele>1846.83</ele>
        <time>2017-08-29T10:23:18Z</time>
      </trkpt>
      <trkpt lat="45.75217" lon="6.70954">
        <ele>1847.31</ele>
        <time>2017-08-29T10:23:20Z</time>
      </trkpt>
      <trkpt lat="45.75216" lon="6.70954">
        <ele>1847.79</ele>
        <time>2017-08-29T10:23:21Z</time>
      </trkpt>
      <trkpt lat="45.75213" lon="6.70957">
        <ele>1849.23</ele>
        <time>2017-08-29T10:23:26Z</time>
      </trkpt>
      <trkpt lat="45.75211" lon="6.70958">
        <ele>1849.23</ele>
        <time>2017-08-29T10:23:28Z</time>
      </trkpt>
      <trkpt lat="45.75209" lon="6.70959">
        <ele>1850.19</ele>
        <time>2017-08-29T10:23:32Z</time>
      </trkpt>
      <trkpt lat="45.75204" lon="6.70957">
        <ele>1851.64</ele>
        <time>2017-08-29T10:23:39Z</time>
      </trkpt>
      <trkpt lat="45.75202" lon="6.7096">
        <ele>1852.6</ele>
        <time>2017-08-29T10:23:44Z</time>
      </trkpt>
      <trkpt lat="45.75199" lon="6.70962">
        <ele>1854.04</ele>
        <time>2017-08-29T10:23:48Z</time>
      </trkpt>
      <trkpt lat="45.75198" lon="6.70961">
        <ele>1854.04</ele>
        <time>2017-08-29T10:23:49Z</time>
      </trkpt>
      <trkpt lat="45.75192" lon="6.70959">
        <ele>1855.96</ele>
        <time>2017-08-29T10:24:00Z</time>
      </trkpt>
      <trkpt lat="45.75191" lon="6.7096">
        <ele>1856.44</ele>
        <time>2017-08-29T10:24:02Z</time>
      </trkpt>
      <trkpt lat="45.7519" lon="6.7096">
        <ele>1857.4</ele>
        <time>2017-08-29T10:24:03Z</time>
      </trkpt>
      <trkpt lat="45.75182" lon="6.7096">
        <ele>1860.29</ele>
        <time>2017-08-29T10:24:16Z</time>
      </trkpt>
      <trkpt lat="45.75181" lon="6.70959">
        <ele>1860.77</ele>
        <time>2017-08-29T10:24:17Z</time>
      </trkpt>
      <trkpt lat="45.75173" lon="6.70956">
        <ele>1862.21</ele>
        <time>2017-08-29T10:24:27Z</time>
      </trkpt>
      <trkpt lat="45.75169" lon="6.70959">
        <ele>1863.17</ele>
        <time>2017-08-29T10:24:31Z</time>
      </trkpt>
      <trkpt lat="45.75166" lon="6.70962">
        <ele>1865.09</ele>
        <time>2017-08-29T10:24:37Z</time>
      </trkpt>
      <trkpt lat="45.75161" lon="6.70967">
        <ele>1867.5</ele>
        <time>2017-08-29T10:24:45Z</time>
      </trkpt>
      <trkpt lat="45.75161" lon="6.70969">
        <ele>1867.5</ele>
        <time>2017-08-29T10:24:46Z</time>
      </trkpt>
      <trkpt lat="45.75157" lon="6.70979">
        <ele>1870.86</ele>
        <time>2017-08-29T10:25:02Z</time>
      </trkpt>
      <trkpt lat="45.75148" lon="6.70981">
        <ele>1872.79</ele>
        <time>2017-08-29T10:25:14Z</time>
      </trkpt>
      <trkpt lat="45.75147" lon="6.70982">
        <ele>1872.79</ele>
        <time>2017-08-29T10:25:15Z</time>
      </trkpt>
      <trkpt lat="45.75142" lon="6.70984">
        <ele>1874.23</ele>
        <time>2017-08-29T10:25:20Z</time>
      </trkpt>
      <trkpt lat="45.75141" lon="6.70985">
        <ele>1874.23</ele>
        <time>2017-08-29T10:25:21Z</time>
      </trkpt>
      <trkpt lat="45.75129" lon="6.70989">
        <ele>1877.59</ele>
        <time>2017-08-29T10:25:34Z</time>
      </trkpt>
      <trkpt lat="45.75113" lon="6.71004">
        <ele>1878.55</ele>
        <time>2017-08-29T10:25:49Z</time>
      </trkpt>
      <trkpt lat="45.75102" lon="6.71017">
        <ele>1878.55</ele>
        <time>2017-08-29T10:25:56Z</time>
      </trkpt>
      <trkpt lat="45.75086" lon="6.71032">
        <ele>1876.63</ele>
        <time>2017-08-29T10:26:03Z</time>
      </trkpt>
      <trkpt lat="45.75065" lon="6.71039">
        <ele>1874.71</ele>
        <time>2017-08-29T10:26:10Z</time>
      </trkpt>
      <trkpt lat="45.75048" lon="6.71058">
        <ele>1874.23</ele>
        <time>2017-08-29T10:26:18Z</time>
      </trkpt>
      <trkpt lat="45.75036" lon="6.71084">
        <ele>1874.71</ele>
        <time>2017-08-29T10:26:26Z</time>
      </trkpt>
      <trkpt lat="45.75023" lon="6.71104">
        <ele>1877.59</ele>
        <time>2017-08-29T10:26:36Z</time>
      </trkpt>
      <trkpt lat="45.75018" lon="6.71126">
        <ele>1878.55</ele>
        <time>2017-08-29T10:26:43Z</time>
      </trkpt>
      <trkpt lat="45.75016" lon="6.71139">
        <ele>1878.07</ele>
        <time>2017-08-29T10:26:47Z</time>
      </trkpt>
      <trkpt lat="45.75013" lon="6.71162">
        <ele>1877.59</ele>
        <time>2017-08-29T10:26:53Z</time>
      </trkpt>
      <trkpt lat="45.75013" lon="6.71181">
        <ele>1877.59</ele>
        <time>2017-08-29T10:26:59Z</time>
      </trkpt>
      <trkpt lat="45.75014" lon="6.71183">
        <ele>1877.59</ele>
        <time>2017-08-29T10:27:00Z</time>
      </trkpt>
      <trkpt lat="45.75016" lon="6.71186">
        <ele>1877.59</ele>
        <time>2017-08-29T10:27:01Z</time>
      </trkpt>
      <trkpt lat="45.75018" lon="6.71189">
        <ele>1877.59</ele>
        <time>2017-08-29T10:27:02Z</time>
      </trkpt>
      <trkpt lat="45.75019" lon="6.71192">
        <ele>1877.59</ele>
        <time>2017-08-29T10:27:03Z</time>
      </trkpt>
      <trkpt lat="45.75021" lon="6.71195">
        <ele>1877.59</ele>
        <time>2017-08-29T10:27:04Z</time>
      </trkpt>
      <trkpt lat="45.75027" lon="6.71218">
        <ele>1878.07</ele>
        <time>2017-08-29T10:27:12Z</time>
      </trkpt>
      <trkpt lat="45.75034" lon="6.71243">
        <ele>1878.55</ele>
        <time>2017-08-29T10:27:21Z</time>
      </trkpt>
      <trkpt lat="45.75039" lon="6.71256">
        <ele>1879.03</ele>
        <time>2017-08-29T10:27:27Z</time>
      </trkpt>
      <trkpt lat="45.7504" lon="6.71258">
        <ele>1878.55</ele>
        <time>2017-08-29T10:27:28Z</time>
      </trkpt>
      <trkpt lat="45.7504" lon="6.7126">
        <ele>1878.55</ele>
        <time>2017-08-29T10:27:29Z</time>
      </trkpt>
      <trkpt lat="45.75041" lon="6.71261">
        <ele>1878.55</ele>
        <time>2017-08-29T10:27:30Z</time>
      </trkpt>
      <trkpt lat="45.75041" lon="6.71263">
        <ele>1879.03</ele>
        <time>2017-08-29T10:27:31Z</time>
      </trkpt>
      <trkpt lat="45.75042" lon="6.71265">
        <ele>1879.03</ele>
        <time>2017-08-29T10:27:32Z</time>
      </trkpt>
      <trkpt lat="45.75042" lon="6.71267">
        <ele>1879.03</ele>
        <time>2017-08-29T10:27:33Z</time>
      </trkpt>
      <trkpt lat="45.75043" lon="6.71269">
        <ele>1879.03</ele>
        <time>2017-08-29T10:27:34Z</time>
      </trkpt>
      <trkpt lat="45.75043" lon="6.71271">
        <ele>1879.03</ele>
        <time>2017-08-29T10:27:35Z</time>
      </trkpt>
      <trkpt lat="45.75043" lon="6.71273">
        <ele>1879.03</ele>
        <time>2017-08-29T10:27:36Z</time>
      </trkpt>
      <trkpt lat="45.75044" lon="6.71281">
        <ele>1879.51</ele>
        <time>2017-08-29T10:27:41Z</time>
      </trkpt>
      <trkpt lat="45.75044" lon="6.71283">
        <ele>1879.51</ele>
        <time>2017-08-29T10:27:42Z</time>
      </trkpt>
      <trkpt lat="45.75045" lon="6.71285">
        <ele>1879.51</ele>
        <time>2017-08-29T10:27:43Z</time>
      </trkpt>
      <trkpt lat="45.75045" lon="6.71287">
        <ele>1879.51</ele>
        <time>2017-08-29T10:27:44Z</time>
      </trkpt>
      <trkpt lat="45.75045" lon="6.71289">
        <ele>1879.51</ele>
        <time>2017-08-29T10:27:45Z</time>
      </trkpt>
      <trkpt lat="45.75045" lon="6.71291">
        <ele>1879.51</ele>
        <time>2017-08-29T10:27:46Z</time>
      </trkpt>
      <trkpt lat="45.75044" lon="6.71293">
        <ele>1879.51</ele>
        <time>2017-08-29T10:27:47Z</time>
      </trkpt>
      <trkpt lat="45.75044" lon="6.71295">
        <ele>1879.51</ele>
        <time>2017-08-29T10:27:48Z</time>
      </trkpt>
      <trkpt lat="45.75042" lon="6.71306">
        <ele>1880.48</ele>
        <time>2017-08-29T10:27:54Z</time>
      </trkpt>
      <trkpt lat="45.75041" lon="6.7132">
        <ele>1881.44</ele>
        <time>2017-08-29T10:28:02Z</time>
      </trkpt>
      <trkpt lat="45.7504" lon="6.71329">
        <ele>1881.92</ele>
        <time>2017-08-29T10:28:09Z</time>
      </trkpt>
      <trkpt lat="45.7504" lon="6.71331">
        <ele>1882.4</ele>
        <time>2017-08-29T10:28:10Z</time>
      </trkpt>
      <trkpt lat="45.7504" lon="6.71341">
        <ele>1882.88</ele>
        <time>2017-08-29T10:28:17Z</time>
      </trkpt>
      <trkpt lat="45.75043" lon="6.71352">
        <ele>1883.84</ele>
        <time>2017-08-29T10:28:25Z</time>
      </trkpt>
      <trkpt lat="45.75047" lon="6.71365">
        <ele>1884.8</ele>
        <time>2017-08-29T10:28:48Z</time>
      </trkpt>
      <trkpt lat="45.75047" lon="6.71368">
        <ele>1885.28</ele>
        <time>2017-08-29T10:28:56Z</time>
      </trkpt>
      <trkpt lat="45.75047" lon="6.71367">
        <ele>1885.76</ele>
        <time>2017-08-29T10:29:02Z</time>
      </trkpt>
      <trkpt lat="45.75047" lon="6.71367">
        <ele>1885.76</ele>
        <time>2017-08-29T10:29:05Z</time>
      </trkpt>
      <trkpt lat="45.75047" lon="6.71367">
        <ele>1885.28</ele>
        <time>2017-08-29T10:29:09Z</time>
      </trkpt>
      <trkpt lat="45.75047" lon="6.71367">
        <ele>1885.76</ele>
        <time>2017-08-29T10:29:13Z</time>
      </trkpt>
      <trkpt lat="45.75047" lon="6.71366">
        <ele>1885.28</ele>
        <time>2017-08-29T10:29:19Z</time>
      </trkpt>
      <trkpt lat="45.75047" lon="6.71367">
        <ele>1885.76</ele>
        <time>2017-08-29T10:29:35Z</time>
      </trkpt>
      <trkpt lat="45.75047" lon="6.71373">
        <ele>1886.24</ele>
        <time>2017-08-29T10:29:50Z</time>
      </trkpt>
      <trkpt lat="45.75047" lon="6.71373">
        <ele>1885.76</ele>
        <time>2017-08-29T10:29:55Z</time>
      </trkpt>
      <trkpt lat="45.75047" lon="6.71374">
        <ele>1885.76</ele>
        <time>2017-08-29T10:30:00Z</time>
      </trkpt>
      <trkpt lat="45.75048" lon="6.71376">
        <ele>1885.76</ele>
        <time>2017-08-29T10:30:01Z</time>
      </trkpt>
      <trkpt lat="45.75047" lon="6.71377">
        <ele>1885.76</ele>
        <time>2017-08-29T10:30:02Z</time>
      </trkpt>
      <trkpt lat="45.75047" lon="6.71379">
        <ele>1885.76</ele>
        <time>2017-08-29T10:30:03Z</time>
      </trkpt>
      <trkpt lat="45.75047" lon="6.7138">
        <ele>1885.76</ele>
        <time>2017-08-29T10:30:04Z</time>
      </trkpt>
      <trkpt lat="45.75047" lon="6.71381">
        <ele>1886.24</ele>
        <time>2017-08-29T10:30:05Z</time>
      </trkpt>
      <trkpt lat="45.75047" lon="6.71383">
        <ele>1886.24</ele>
        <time>2017-08-29T10:30:06Z</time>
      </trkpt>
      <trkpt lat="45.75048" lon="6.71385">
        <ele>1886.24</ele>
        <time>2017-08-29T10:30:07Z</time>
      </trkpt>
      <trkpt lat="45.75048" lon="6.71386">
        <ele>1886.72</ele>
        <time>2017-08-29T10:30:08Z</time>
      </trkpt>
      <trkpt lat="45.75048" lon="6.71388">
        <ele>1886.72</ele>
        <time>2017-08-29T10:30:09Z</time>
      </trkpt>
      <trkpt lat="45.75048" lon="6.71389">
        <ele>1886.72</ele>
        <time>2017-08-29T10:30:10Z</time>
      </trkpt>
      <trkpt lat="45.75048" lon="6.71391">
        <ele>1886.72</ele>
        <time>2017-08-29T10:30:11Z</time>
      </trkpt>
      <trkpt lat="45.75048" lon="6.71393">
        <ele>1887.21</ele>
        <time>2017-08-29T10:30:12Z</time>
      </trkpt>
      <trkpt lat="45.75048" lon="6.71395">
        <ele>1887.21</ele>
        <time>2017-08-29T10:30:13Z</time>
      </trkpt>
      <trkpt lat="45.75047" lon="6.71397">
        <ele>1887.21</ele>
        <time>2017-08-29T10:30:14Z</time>
      </trkpt>
      <trkpt lat="45.75047" lon="6.71398">
        <ele>1887.21</ele>
        <time>2017-08-29T10:30:15Z</time>
      </trkpt>
      <trkpt lat="45.75047" lon="6.71401">
        <ele>1887.21</ele>
        <time>2017-08-29T10:30:16Z</time>
      </trkpt>
      <trkpt lat="45.75047" lon="6.71403">
        <ele>1887.69</ele>
        <time>2017-08-29T10:30:17Z</time>
      </trkpt>
      <trkpt lat="45.75047" lon="6.71404">
        <ele>1887.69</ele>
        <time>2017-08-29T10:30:18Z</time>
      </trkpt>
      <trkpt lat="45.75046" lon="6.7141">
        <ele>1888.17</ele>
        <time>2017-08-29T10:30:21Z</time>
      </trkpt>
      <trkpt lat="45.75045" lon="6.71414">
        <ele>1888.65</ele>
        <time>2017-08-29T10:30:23Z</time>
      </trkpt>
      <trkpt lat="45.75044" lon="6.7142">
        <ele>1889.13</ele>
        <time>2017-08-29T10:30:26Z</time>
      </trkpt>
      <trkpt lat="45.75043" lon="6.71425">
        <ele>1888.65</ele>
        <time>2017-08-29T10:30:29Z</time>
      </trkpt>
      <trkpt lat="45.75043" lon="6.71429">
        <ele>1889.61</ele>
        <time>2017-08-29T10:30:32Z</time>
      </trkpt>
      <trkpt lat="45.75042" lon="6.71435">
        <ele>1890.57</ele>
        <time>2017-08-29T10:30:37Z</time>
      </trkpt>
      <trkpt lat="45.75042" lon="6.7144">
        <ele>1890.57</ele>
        <time>2017-08-29T10:30:40Z</time>
      </trkpt>
      <trkpt lat="45.75041" lon="6.71441">
        <ele>1890.57</ele>
        <time>2017-08-29T10:30:41Z</time>
      </trkpt>
      <trkpt lat="45.7504" lon="6.71442">
        <ele>1890.57</ele>
        <time>2017-08-29T10:30:42Z</time>
      </trkpt>
      <trkpt lat="45.75039" lon="6.71445">
        <ele>1891.05</ele>
        <time>2017-08-29T10:30:44Z</time>
      </trkpt>
      <trkpt lat="45.7504" lon="6.71457">
        <ele>1892.01</ele>
        <time>2017-08-29T10:30:50Z</time>
      </trkpt>
      <trkpt lat="45.75041" lon="6.71459">
        <ele>1892.01</ele>
        <time>2017-08-29T10:30:51Z</time>
      </trkpt>
      <trkpt lat="45.75042" lon="6.71461">
        <ele>1892.01</ele>
        <time>2017-08-29T10:30:52Z</time>
      </trkpt>
      <trkpt lat="45.75042" lon="6.71463">
        <ele>1892.49</ele>
        <time>2017-08-29T10:30:53Z</time>
      </trkpt>
      <trkpt lat="45.75042" lon="6.71465">
        <ele>1892.97</ele>
        <time>2017-08-29T10:30:54Z</time>
      </trkpt>
      <trkpt lat="45.75042" lon="6.71468">
        <ele>1892.97</ele>
        <time>2017-08-29T10:30:55Z</time>
      </trkpt>
      <trkpt lat="45.75042" lon="6.71471">
        <ele>1892.97</ele>
        <time>2017-08-29T10:30:56Z</time>
      </trkpt>
      <trkpt lat="45.75042" lon="6.71473">
        <ele>1892.49</ele>
        <time>2017-08-29T10:30:57Z</time>
      </trkpt>
      <trkpt lat="45.75042" lon="6.71475">
        <ele>1892.49</ele>
        <time>2017-08-29T10:30:58Z</time>
      </trkpt>
      <trkpt lat="45.75038" lon="6.71497">
        <ele>1895.38</ele>
        <time>2017-08-29T10:31:11Z</time>
      </trkpt>
      <trkpt lat="45.75031" lon="6.71514">
        <ele>1895.86</ele>
        <time>2017-08-29T10:31:23Z</time>
      </trkpt>
      <trkpt lat="45.7503" lon="6.71515">
        <ele>1895.86</ele>
        <time>2017-08-29T10:31:24Z</time>
      </trkpt>
      <trkpt lat="45.75029" lon="6.71516">
        <ele>1895.38</ele>
        <time>2017-08-29T10:31:25Z</time>
      </trkpt>
      <trkpt lat="45.75027" lon="6.71516">
        <ele>1895.38</ele>
        <time>2017-08-29T10:31:26Z</time>
      </trkpt>
      <trkpt lat="45.75026" lon="6.71517">
        <ele>1895.38</ele>
        <time>2017-08-29T10:31:27Z</time>
      </trkpt>
      <trkpt lat="45.75025" lon="6.71518">
        <ele>1895.38</ele>
        <time>2017-08-29T10:31:28Z</time>
      </trkpt>
      <trkpt lat="45.75024" lon="6.7152">
        <ele>1895.38</ele>
        <time>2017-08-29T10:31:29Z</time>
      </trkpt>
      <trkpt lat="45.75023" lon="6.71524">
        <ele>1895.38</ele>
        <time>2017-08-29T10:31:32Z</time>
      </trkpt>
      <trkpt lat="45.7503" lon="6.71549">
        <ele>1898.26</ele>
        <time>2017-08-29T10:31:48Z</time>
      </trkpt>
      <trkpt lat="45.75031" lon="6.71563">
        <ele>1899.22</ele>
        <time>2017-08-29T10:31:56Z</time>
      </trkpt>
      <trkpt lat="45.7503" lon="6.71564">
        <ele>1899.22</ele>
        <time>2017-08-29T10:31:57Z</time>
      </trkpt>
      <trkpt lat="45.7503" lon="6.71566">
        <ele>1899.7</ele>
        <time>2017-08-29T10:31:58Z</time>
      </trkpt>
      <trkpt lat="45.7503" lon="6.71567">
        <ele>1899.7</ele>
        <time>2017-08-29T10:31:59Z</time>
      </trkpt>
      <trkpt lat="45.75031" lon="6.71574">
        <ele>1902.11</ele>
        <time>2017-08-29T10:32:06Z</time>
      </trkpt>
      <trkpt lat="45.75031" lon="6.71575">
        <ele>1902.11</ele>
        <time>2017-08-29T10:32:07Z</time>
      </trkpt>
      <trkpt lat="45.75032" lon="6.71577">
        <ele>1902.59</ele>
        <time>2017-08-29T10:32:08Z</time>
      </trkpt>
      <trkpt lat="45.75031" lon="6.71579">
        <ele>1902.59</ele>
        <time>2017-08-29T10:32:09Z</time>
      </trkpt>
      <trkpt lat="45.75031" lon="6.71581">
        <ele>1902.59</ele>
        <time>2017-08-29T10:32:10Z</time>
      </trkpt>
      <trkpt lat="45.75031" lon="6.71583">
        <ele>1903.07</ele>
        <time>2017-08-29T10:32:11Z</time>
      </trkpt>
      <trkpt lat="45.75031" lon="6.71585">
        <ele>1903.07</ele>
        <time>2017-08-29T10:32:12Z</time>
      </trkpt>
      <trkpt lat="45.75031" lon="6.71586">
        <ele>1903.55</ele>
        <time>2017-08-29T10:32:13Z</time>
      </trkpt>
      <trkpt lat="45.75034" lon="6.71605">
        <ele>1904.99</ele>
        <time>2017-08-29T10:32:24Z</time>
      </trkpt>
      <trkpt lat="45.75035" lon="6.71606">
        <ele>1905.47</ele>
        <time>2017-08-29T10:32:25Z</time>
      </trkpt>
      <trkpt lat="45.75036" lon="6.71608">
        <ele>1905.95</ele>
        <time>2017-08-29T10:32:26Z</time>
      </trkpt>
      <trkpt lat="45.75035" lon="6.71624">
        <ele>1906.91</ele>
        <time>2017-08-29T10:32:35Z</time>
      </trkpt>
      <trkpt lat="45.75034" lon="6.71626">
        <ele>1906.91</ele>
        <time>2017-08-29T10:32:36Z</time>
      </trkpt>
      <trkpt lat="45.75034" lon="6.71628">
        <ele>1907.39</ele>
        <time>2017-08-29T10:32:37Z</time>
      </trkpt>
      <trkpt lat="45.75034" lon="6.7163">
        <ele>1906.91</ele>
        <time>2017-08-29T10:32:38Z</time>
      </trkpt>
      <trkpt lat="45.75043" lon="6.71652">
        <ele>1908.83</ele>
        <time>2017-08-29T10:32:49Z</time>
      </trkpt>
      <trkpt lat="45.75044" lon="6.71654">
        <ele>1908.83</ele>
        <time>2017-08-29T10:32:50Z</time>
      </trkpt>
      <trkpt lat="45.75045" lon="6.71655">
        <ele>1909.32</ele>
        <time>2017-08-29T10:32:51Z</time>
      </trkpt>
      <trkpt lat="45.75046" lon="6.71657">
        <ele>1909.32</ele>
        <time>2017-08-29T10:32:52Z</time>
      </trkpt>
      <trkpt lat="45.75047" lon="6.71658">
        <ele>1909.8</ele>
        <time>2017-08-29T10:32:53Z</time>
      </trkpt>
      <trkpt lat="45.75048" lon="6.7166">
        <ele>1909.8</ele>
        <time>2017-08-29T10:32:54Z</time>
      </trkpt>
      <trkpt lat="45.7505" lon="6.71661">
        <ele>1910.28</ele>
        <time>2017-08-29T10:32:55Z</time>
      </trkpt>
      <trkpt lat="45.75051" lon="6.71662">
        <ele>1910.28</ele>
        <time>2017-08-29T10:32:56Z</time>
      </trkpt>
      <trkpt lat="45.75052" lon="6.71664">
        <ele>1910.76</ele>
        <time>2017-08-29T10:32:57Z</time>
      </trkpt>
      <trkpt lat="45.75052" lon="6.71667">
        <ele>1911.24</ele>
        <time>2017-08-29T10:32:58Z</time>
      </trkpt>
      <trkpt lat="45.75052" lon="6.71669">
        <ele>1911.72</ele>
        <time>2017-08-29T10:32:59Z</time>
      </trkpt>
      <trkpt lat="45.75052" lon="6.71672">
        <ele>1911.72</ele>
        <time>2017-08-29T10:33:00Z</time>
      </trkpt>
      <trkpt lat="45.75052" lon="6.71674">
        <ele>1911.72</ele>
        <time>2017-08-29T10:33:01Z</time>
      </trkpt>
      <trkpt lat="45.75057" lon="6.71687">
        <ele>1912.2</ele>
        <time>2017-08-29T10:33:07Z</time>
      </trkpt>
      <trkpt lat="45.75057" lon="6.71692">
        <ele>1913.16</ele>
        <time>2017-08-29T10:33:09Z</time>
      </trkpt>
      <trkpt lat="45.75057" lon="6.71694">
        <ele>1913.16</ele>
        <time>2017-08-29T10:33:10Z</time>
      </trkpt>
      <trkpt lat="45.75058" lon="6.71696">
        <ele>1913.16</ele>
        <time>2017-08-29T10:33:11Z</time>
      </trkpt>
      <trkpt lat="45.75059" lon="6.71698">
        <ele>1913.16</ele>
        <time>2017-08-29T10:33:12Z</time>
      </trkpt>
      <trkpt lat="45.75059" lon="6.717">
        <ele>1913.16</ele>
        <time>2017-08-29T10:33:13Z</time>
      </trkpt>
      <trkpt lat="45.7506" lon="6.71702">
        <ele>1913.64</ele>
        <time>2017-08-29T10:33:14Z</time>
      </trkpt>
      <trkpt lat="45.75061" lon="6.71704">
        <ele>1914.12</ele>
        <time>2017-08-29T10:33:15Z</time>
      </trkpt>
      <trkpt lat="45.75062" lon="6.71706">
        <ele>1914.6</ele>
        <time>2017-08-29T10:33:16Z</time>
      </trkpt>
      <trkpt lat="45.75064" lon="6.71724">
        <ele>1915.56</ele>
        <time>2017-08-29T10:33:26Z</time>
      </trkpt>
      <trkpt lat="45.75065" lon="6.71725">
        <ele>1916.04</ele>
        <time>2017-08-29T10:33:27Z</time>
      </trkpt>
      <trkpt lat="45.75066" lon="6.71726">
        <ele>1916.04</ele>
        <time>2017-08-29T10:33:28Z</time>
      </trkpt>
      <trkpt lat="45.75077" lon="6.71747">
        <ele>1918.45</ele>
        <time>2017-08-29T10:33:42Z</time>
      </trkpt>
      <trkpt lat="45.75078" lon="6.71748">
        <ele>1918.45</ele>
        <time>2017-08-29T10:33:43Z</time>
      </trkpt>
      <trkpt lat="45.75081" lon="6.71755">
        <ele>1919.89</ele>
        <time>2017-08-29T10:33:48Z</time>
      </trkpt>
      <trkpt lat="45.75089" lon="6.7178">
        <ele>1921.81</ele>
        <time>2017-08-29T10:34:00Z</time>
      </trkpt>
      <trkpt lat="45.7509" lon="6.71783">
        <ele>1922.77</ele>
        <time>2017-08-29T10:34:02Z</time>
      </trkpt>
      <trkpt lat="45.75091" lon="6.71785">
        <ele>1922.77</ele>
        <time>2017-08-29T10:34:03Z</time>
      </trkpt>
      <trkpt lat="45.75094" lon="6.71811">
        <ele>1924.22</ele>
        <time>2017-08-29T10:34:14Z</time>
      </trkpt>
      <trkpt lat="45.75097" lon="6.71826">
        <ele>1925.18</ele>
        <time>2017-08-29T10:34:22Z</time>
      </trkpt>
      <trkpt lat="45.75105" lon="6.7184">
        <ele>1927.58</ele>
        <time>2017-08-29T10:34:31Z</time>
      </trkpt>
      <trkpt lat="45.75105" lon="6.71842">
        <ele>1927.58</ele>
        <time>2017-08-29T10:34:32Z</time>
      </trkpt>
      <trkpt lat="45.75106" lon="6.71844">
        <ele>1928.06</ele>
        <time>2017-08-29T10:34:33Z</time>
      </trkpt>
      <trkpt lat="45.75109" lon="6.71872">
        <ele>1931.43</ele>
        <time>2017-08-29T10:34:47Z</time>
      </trkpt>
      <trkpt lat="45.75111" lon="6.71878">
        <ele>1931.91</ele>
        <time>2017-08-29T10:34:51Z</time>
      </trkpt>
      <trkpt lat="45.75112" lon="6.71879">
        <ele>1931.91</ele>
        <time>2017-08-29T10:34:52Z</time>
      </trkpt>
      <trkpt lat="45.75113" lon="6.71881">
        <ele>1932.39</ele>
        <time>2017-08-29T10:34:53Z</time>
      </trkpt>
      <trkpt lat="45.75114" lon="6.71882">
        <ele>1932.39</ele>
        <time>2017-08-29T10:34:54Z</time>
      </trkpt>
      <trkpt lat="45.75114" lon="6.71884">
        <ele>1932.39</ele>
        <time>2017-08-29T10:34:55Z</time>
      </trkpt>
      <trkpt lat="45.75114" lon="6.71886">
        <ele>1932.39</ele>
        <time>2017-08-29T10:34:56Z</time>
      </trkpt>
      <trkpt lat="45.75114" lon="6.71888">
        <ele>1932.39</ele>
        <time>2017-08-29T10:34:57Z</time>
      </trkpt>
      <trkpt lat="45.75114" lon="6.71889">
        <ele>1932.87</ele>
        <time>2017-08-29T10:34:58Z</time>
      </trkpt>
      <trkpt lat="45.75115" lon="6.7189">
        <ele>1932.87</ele>
        <time>2017-08-29T10:34:59Z</time>
      </trkpt>
      <trkpt lat="45.75116" lon="6.71892">
        <ele>1932.87</ele>
        <time>2017-08-29T10:35:00Z</time>
      </trkpt>
      <trkpt lat="45.75118" lon="6.71901">
        <ele>1934.31</ele>
        <time>2017-08-29T10:35:05Z</time>
      </trkpt>
      <trkpt lat="45.75117" lon="6.71903">
        <ele>1934.31</ele>
        <time>2017-08-29T10:35:06Z</time>
      </trkpt>
      <trkpt lat="45.75117" lon="6.71905">
        <ele>1934.79</ele>
        <time>2017-08-29T10:35:07Z</time>
      </trkpt>
      <trkpt lat="45.75118" lon="6.71907">
        <ele>1934.79</ele>
        <time>2017-08-29T10:35:08Z</time>
      </trkpt>
      <trkpt lat="45.75118" lon="6.71908">
        <ele>1934.79</ele>
        <time>2017-08-29T10:35:09Z</time>
      </trkpt>
      <trkpt lat="45.75118" lon="6.7191">
        <ele>1934.79</ele>
        <time>2017-08-29T10:35:10Z</time>
      </trkpt>
      <trkpt lat="45.75118" lon="6.71912">
        <ele>1934.79</ele>
        <time>2017-08-29T10:35:11Z</time>
      </trkpt>
      <trkpt lat="45.75118" lon="6.71914">
        <ele>1934.79</ele>
        <time>2017-08-29T10:35:12Z</time>
      </trkpt>
      <trkpt lat="45.75119" lon="6.71915">
        <ele>1935.27</ele>
        <time>2017-08-29T10:35:13Z</time>
      </trkpt>
      <trkpt lat="45.7512" lon="6.71916">
        <ele>1935.27</ele>
        <time>2017-08-29T10:35:14Z</time>
      </trkpt>
      <trkpt lat="45.75123" lon="6.71924">
        <ele>1936.23</ele>
        <time>2017-08-29T10:35:19Z</time>
      </trkpt>
      <trkpt lat="45.75123" lon="6.71926">
        <ele>1936.71</ele>
        <time>2017-08-29T10:35:20Z</time>
      </trkpt>
      <trkpt lat="45.75123" lon="6.71929">
        <ele>1936.71</ele>
        <time>2017-08-29T10:35:22Z</time>
      </trkpt>
      <trkpt lat="45.75123" lon="6.71932">
        <ele>1937.19</ele>
        <time>2017-08-29T10:35:23Z</time>
      </trkpt>
      <trkpt lat="45.75123" lon="6.71934">
        <ele>1937.19</ele>
        <time>2017-08-29T10:35:24Z</time>
      </trkpt>
      <trkpt lat="45.75124" lon="6.71938">
        <ele>1937.67</ele>
        <time>2017-08-29T10:35:27Z</time>
      </trkpt>
      <trkpt lat="45.75125" lon="6.7194">
        <ele>1938.16</ele>
        <time>2017-08-29T10:35:28Z</time>
      </trkpt>
      <trkpt lat="45.75125" lon="6.71942">
        <ele>1938.16</ele>
        <time>2017-08-29T10:35:29Z</time>
      </trkpt>
      <trkpt lat="45.75126" lon="6.71952">
        <ele>1939.6</ele>
        <time>2017-08-29T10:35:36Z</time>
      </trkpt>
      <trkpt lat="45.75126" lon="6.71954">
        <ele>1940.08</ele>
        <time>2017-08-29T10:35:37Z</time>
      </trkpt>
      <trkpt lat="45.75126" lon="6.71956">
        <ele>1940.08</ele>
        <time>2017-08-29T10:35:38Z</time>
      </trkpt>
      <trkpt lat="45.75127" lon="6.71958">
        <ele>1940.56</ele>
        <time>2017-08-29T10:35:39Z</time>
      </trkpt>
      <trkpt lat="45.75127" lon="6.7196">
        <ele>1941.04</ele>
        <time>2017-08-29T10:35:40Z</time>
      </trkpt>
      <trkpt lat="45.75127" lon="6.71962">
        <ele>1941.04</ele>
        <time>2017-08-29T10:35:41Z</time>
      </trkpt>
      <trkpt lat="45.75127" lon="6.71979">
        <ele>1942.48</ele>
        <time>2017-08-29T10:35:50Z</time>
      </trkpt>
      <trkpt lat="45.75126" lon="6.71981">
        <ele>1942.48</ele>
        <time>2017-08-29T10:35:51Z</time>
      </trkpt>
      <trkpt lat="45.75125" lon="6.71982">
        <ele>1942.96</ele>
        <time>2017-08-29T10:35:52Z</time>
      </trkpt>
      <trkpt lat="45.75125" lon="6.71984">
        <ele>1942.96</ele>
        <time>2017-08-29T10:35:53Z</time>
      </trkpt>
      <trkpt lat="45.75125" lon="6.71986">
        <ele>1942.96</ele>
        <time>2017-08-29T10:35:54Z</time>
      </trkpt>
      <trkpt lat="45.75125" lon="6.71988">
        <ele>1943.44</ele>
        <time>2017-08-29T10:35:55Z</time>
      </trkpt>
      <trkpt lat="45.75125" lon="6.7199">
        <ele>1943.44</ele>
        <time>2017-08-29T10:35:56Z</time>
      </trkpt>
      <trkpt lat="45.75125" lon="6.71992">
        <ele>1943.92</ele>
        <time>2017-08-29T10:35:57Z</time>
      </trkpt>
      <trkpt lat="45.75123" lon="6.71998">
        <ele>1944.88</ele>
        <time>2017-08-29T10:36:02Z</time>
      </trkpt>
      <trkpt lat="45.75125" lon="6.72003">
        <ele>1946.33</ele>
        <time>2017-08-29T10:36:08Z</time>
      </trkpt>
      <trkpt lat="45.75125" lon="6.72005">
        <ele>1946.81</ele>
        <time>2017-08-29T10:36:10Z</time>
      </trkpt>
      <trkpt lat="45.75127" lon="6.72021">
        <ele>1949.69</ele>
        <time>2017-08-29T10:36:22Z</time>
      </trkpt>
      <trkpt lat="45.75128" lon="6.72022">
        <ele>1949.69</ele>
        <time>2017-08-29T10:36:23Z</time>
      </trkpt>
      <trkpt lat="45.75128" lon="6.72023">
        <ele>1950.17</ele>
        <time>2017-08-29T10:36:24Z</time>
      </trkpt>
      <trkpt lat="45.7513" lon="6.72024">
        <ele>1950.17</ele>
        <time>2017-08-29T10:36:26Z</time>
      </trkpt>
      <trkpt lat="45.75131" lon="6.72025">
        <ele>1950.17</ele>
        <time>2017-08-29T10:36:27Z</time>
      </trkpt>
      <trkpt lat="45.75132" lon="6.72025">
        <ele>1950.17</ele>
        <time>2017-08-29T10:36:28Z</time>
      </trkpt>
      <trkpt lat="45.75133" lon="6.72026">
        <ele>1950.65</ele>
        <time>2017-08-29T10:36:29Z</time>
      </trkpt>
      <trkpt lat="45.75133" lon="6.72026">
        <ele>1950.65</ele>
        <time>2017-08-29T10:36:30Z</time>
      </trkpt>
      <trkpt lat="45.75135" lon="6.72029">
        <ele>1951.61</ele>
        <time>2017-08-29T10:36:32Z</time>
      </trkpt>
      <trkpt lat="45.75135" lon="6.7203">
        <ele>1951.61</ele>
        <time>2017-08-29T10:36:33Z</time>
      </trkpt>
      <trkpt lat="45.75135" lon="6.72031">
        <ele>1952.09</ele>
        <time>2017-08-29T10:36:34Z</time>
      </trkpt>
      <trkpt lat="45.75135" lon="6.72033">
        <ele>1952.57</ele>
        <time>2017-08-29T10:36:35Z</time>
      </trkpt>
      <trkpt lat="45.75135" lon="6.72034">
        <ele>1952.57</ele>
        <time>2017-08-29T10:36:36Z</time>
      </trkpt>
      <trkpt lat="45.75135" lon="6.72036">
        <ele>1953.06</ele>
        <time>2017-08-29T10:36:38Z</time>
      </trkpt>
      <trkpt lat="45.75136" lon="6.72037">
        <ele>1953.06</ele>
        <time>2017-08-29T10:36:39Z</time>
      </trkpt>
      <trkpt lat="45.75137" lon="6.72038">
        <ele>1953.54</ele>
        <time>2017-08-29T10:36:40Z</time>
      </trkpt>
      <trkpt lat="45.75139" lon="6.7204">
        <ele>1953.54</ele>
        <time>2017-08-29T10:36:42Z</time>
      </trkpt>
      <trkpt lat="45.7514" lon="6.72042">
        <ele>1954.02</ele>
        <time>2017-08-29T10:36:44Z</time>
      </trkpt>
      <trkpt lat="45.75141" lon="6.72043">
        <ele>1954.5</ele>
        <time>2017-08-29T10:36:45Z</time>
      </trkpt>
      <trkpt lat="45.75142" lon="6.72044">
        <ele>1954.5</ele>
        <time>2017-08-29T10:36:46Z</time>
      </trkpt>
      <trkpt lat="45.75142" lon="6.72046">
        <ele>1954.98</ele>
        <time>2017-08-29T10:36:47Z</time>
      </trkpt>
      <trkpt lat="45.75143" lon="6.72047">
        <ele>1954.98</ele>
        <time>2017-08-29T10:36:48Z</time>
      </trkpt>
      <trkpt lat="45.75143" lon="6.72049">
        <ele>1955.46</ele>
        <time>2017-08-29T10:36:49Z</time>
      </trkpt>
      <trkpt lat="45.75143" lon="6.7205">
        <ele>1955.94</ele>
        <time>2017-08-29T10:36:50Z</time>
      </trkpt>
      <trkpt lat="45.75143" lon="6.72052">
        <ele>1955.94</ele>
        <time>2017-08-29T10:36:51Z</time>
      </trkpt>
      <trkpt lat="45.75144" lon="6.72054">
        <ele>1956.42</ele>
        <time>2017-08-29T10:36:53Z</time>
      </trkpt>
      <trkpt lat="45.75144" lon="6.72055">
        <ele>1956.42</ele>
        <time>2017-08-29T10:36:54Z</time>
      </trkpt>
      <trkpt lat="45.75145" lon="6.72057">
        <ele>1957.38</ele>
        <time>2017-08-29T10:36:56Z</time>
      </trkpt>
      <trkpt lat="45.75146" lon="6.72059">
        <ele>1957.86</ele>
        <time>2017-08-29T10:36:58Z</time>
      </trkpt>
      <trkpt lat="45.75151" lon="6.72077">
        <ele>1961.23</ele>
        <time>2017-08-29T10:37:11Z</time>
      </trkpt>
      <trkpt lat="45.75155" lon="6.72091">
        <ele>1962.67</ele>
        <time>2017-08-29T10:37:21Z</time>
      </trkpt>
      <trkpt lat="45.75155" lon="6.72092">
        <ele>1963.15</ele>
        <time>2017-08-29T10:37:22Z</time>
      </trkpt>
      <trkpt lat="45.75156" lon="6.72093">
        <ele>1963.63</ele>
        <time>2017-08-29T10:37:23Z</time>
      </trkpt>
      <trkpt lat="45.75157" lon="6.72094">
        <ele>1963.63</ele>
        <time>2017-08-29T10:37:24Z</time>
      </trkpt>
      <trkpt lat="45.75157" lon="6.72096">
        <ele>1964.11</ele>
        <time>2017-08-29T10:37:25Z</time>
      </trkpt>
      <trkpt lat="45.75156" lon="6.72101">
        <ele>1965.07</ele>
        <time>2017-08-29T10:37:29Z</time>
      </trkpt>
      <trkpt lat="45.75156" lon="6.72103">
        <ele>1965.07</ele>
        <time>2017-08-29T10:37:30Z</time>
      </trkpt>
      <trkpt lat="45.75157" lon="6.72104">
        <ele>1965.55</ele>
        <time>2017-08-29T10:37:31Z</time>
      </trkpt>
      <trkpt lat="45.75157" lon="6.72106">
        <ele>1965.55</ele>
        <time>2017-08-29T10:37:32Z</time>
      </trkpt>
      <trkpt lat="45.75156" lon="6.72125">
        <ele>1968.44</ele>
        <time>2017-08-29T10:37:46Z</time>
      </trkpt>
      <trkpt lat="45.75159" lon="6.72143">
        <ele>1971.32</ele>
        <time>2017-08-29T10:37:58Z</time>
      </trkpt>
      <trkpt lat="45.75158" lon="6.72145">
        <ele>1971.8</ele>
        <time>2017-08-29T10:37:59Z</time>
      </trkpt>
      <trkpt lat="45.75158" lon="6.72147">
        <ele>1971.8</ele>
        <time>2017-08-29T10:38:00Z</time>
      </trkpt>
      <trkpt lat="45.75157" lon="6.72148">
        <ele>1972.28</ele>
        <time>2017-08-29T10:38:01Z</time>
      </trkpt>
      <trkpt lat="45.75157" lon="6.72149">
        <ele>1972.76</ele>
        <time>2017-08-29T10:38:02Z</time>
      </trkpt>
      <trkpt lat="45.75157" lon="6.72151">
        <ele>1972.76</ele>
        <time>2017-08-29T10:38:03Z</time>
      </trkpt>
      <trkpt lat="45.75158" lon="6.72152">
        <ele>1972.76</ele>
        <time>2017-08-29T10:38:04Z</time>
      </trkpt>
      <trkpt lat="45.75158" lon="6.72154">
        <ele>1973.24</ele>
        <time>2017-08-29T10:38:05Z</time>
      </trkpt>
      <trkpt lat="45.75159" lon="6.72156">
        <ele>1973.72</ele>
        <time>2017-08-29T10:38:07Z</time>
      </trkpt>
      <trkpt lat="45.75159" lon="6.72157">
        <ele>1973.72</ele>
        <time>2017-08-29T10:38:08Z</time>
      </trkpt>
      <trkpt lat="45.7516" lon="6.72159">
        <ele>1974.2</ele>
        <time>2017-08-29T10:38:09Z</time>
      </trkpt>
      <trkpt lat="45.7516" lon="6.7216">
        <ele>1974.2</ele>
        <time>2017-08-29T10:38:10Z</time>
      </trkpt>
      <trkpt lat="45.7516" lon="6.72161">
        <ele>1974.2</ele>
        <time>2017-08-29T10:38:11Z</time>
      </trkpt>
      <trkpt lat="45.7516" lon="6.72163">
        <ele>1974.69</ele>
        <time>2017-08-29T10:38:12Z</time>
      </trkpt>
      <trkpt lat="45.75161" lon="6.72164">
        <ele>1974.69</ele>
        <time>2017-08-29T10:38:13Z</time>
      </trkpt>
      <trkpt lat="45.75161" lon="6.72166">
        <ele>1975.17</ele>
        <time>2017-08-29T10:38:14Z</time>
      </trkpt>
      <trkpt lat="45.75161" lon="6.72168">
        <ele>1975.17</ele>
        <time>2017-08-29T10:38:15Z</time>
      </trkpt>
      <trkpt lat="45.75161" lon="6.7217">
        <ele>1975.65</ele>
        <time>2017-08-29T10:38:16Z</time>
      </trkpt>
      <trkpt lat="45.75161" lon="6.72175">
        <ele>1976.61</ele>
        <time>2017-08-29T10:38:20Z</time>
      </trkpt>
      <trkpt lat="45.7516" lon="6.72176">
        <ele>1977.09</ele>
        <time>2017-08-29T10:38:21Z</time>
      </trkpt>
      <trkpt lat="45.7516" lon="6.72177">
        <ele>1977.57</ele>
        <time>2017-08-29T10:38:22Z</time>
      </trkpt>
      <trkpt lat="45.75159" lon="6.72179">
        <ele>1977.57</ele>
        <time>2017-08-29T10:38:23Z</time>
      </trkpt>
      <trkpt lat="45.75159" lon="6.7218">
        <ele>1977.57</ele>
        <time>2017-08-29T10:38:24Z</time>
      </trkpt>
      <trkpt lat="45.75159" lon="6.72182">
        <ele>1978.05</ele>
        <time>2017-08-29T10:38:25Z</time>
      </trkpt>
      <trkpt lat="45.75155" lon="6.72192">
        <ele>1979.49</ele>
        <time>2017-08-29T10:38:33Z</time>
      </trkpt>
      <trkpt lat="45.75155" lon="6.72193">
        <ele>1979.97</ele>
        <time>2017-08-29T10:38:34Z</time>
      </trkpt>
      <trkpt lat="45.75155" lon="6.72194">
        <ele>1979.97</ele>
        <time>2017-08-29T10:38:35Z</time>
      </trkpt>
      <trkpt lat="45.75154" lon="6.72196">
        <ele>1980.45</ele>
        <time>2017-08-29T10:38:36Z</time>
      </trkpt>
      <trkpt lat="45.75154" lon="6.72197">
        <ele>1980.45</ele>
        <time>2017-08-29T10:38:37Z</time>
      </trkpt>
      <trkpt lat="45.75154" lon="6.72199">
        <ele>1980.45</ele>
        <time>2017-08-29T10:38:38Z</time>
      </trkpt>
      <trkpt lat="45.75155" lon="6.72201">
        <ele>1980.93</ele>
        <time>2017-08-29T10:38:39Z</time>
      </trkpt>
      <trkpt lat="45.75155" lon="6.72202">
        <ele>1981.41</ele>
        <time>2017-08-29T10:38:40Z</time>
      </trkpt>
      <trkpt lat="45.75155" lon="6.72208">
        <ele>1981.9</ele>
        <time>2017-08-29T10:38:43Z</time>
      </trkpt>
      <trkpt lat="45.75157" lon="6.72231">
        <ele>1984.78</ele>
        <time>2017-08-29T10:38:57Z</time>
      </trkpt>
      <trkpt lat="45.75156" lon="6.72233">
        <ele>1984.78</ele>
        <time>2017-08-29T10:38:58Z</time>
      </trkpt>
      <trkpt lat="45.75155" lon="6.72239">
        <ele>1986.22</ele>
        <time>2017-08-29T10:39:03Z</time>
      </trkpt>
      <trkpt lat="45.75153" lon="6.72248">
        <ele>1988.14</ele>
        <time>2017-08-29T10:39:10Z</time>
      </trkpt>
      <trkpt lat="45.75154" lon="6.72255">
        <ele>1989.59</ele>
        <time>2017-08-29T10:39:17Z</time>
      </trkpt>
      <trkpt lat="45.75158" lon="6.72261">
        <ele>1990.55</ele>
        <time>2017-08-29T10:39:22Z</time>
      </trkpt>
      <trkpt lat="45.75158" lon="6.72262">
        <ele>1990.55</ele>
        <time>2017-08-29T10:39:23Z</time>
      </trkpt>
      <trkpt lat="45.75158" lon="6.72264">
        <ele>1990.55</ele>
        <time>2017-08-29T10:39:24Z</time>
      </trkpt>
      <trkpt lat="45.75157" lon="6.7227">
        <ele>1991.03</ele>
        <time>2017-08-29T10:39:28Z</time>
      </trkpt>
      <trkpt lat="45.75156" lon="6.72271">
        <ele>1991.51</ele>
        <time>2017-08-29T10:39:29Z</time>
      </trkpt>
      <trkpt lat="45.75156" lon="6.72273">
        <ele>1991.99</ele>
        <time>2017-08-29T10:39:30Z</time>
      </trkpt>
      <trkpt lat="45.75156" lon="6.72274">
        <ele>1991.99</ele>
        <time>2017-08-29T10:39:31Z</time>
      </trkpt>
      <trkpt lat="45.75156" lon="6.72276">
        <ele>1991.99</ele>
        <time>2017-08-29T10:39:32Z</time>
      </trkpt>
      <trkpt lat="45.75157" lon="6.72293">
        <ele>1994.39</ele>
        <time>2017-08-29T10:39:43Z</time>
      </trkpt>
      <trkpt lat="45.75157" lon="6.72295">
        <ele>1994.87</ele>
        <time>2017-08-29T10:39:44Z</time>
      </trkpt>
      <trkpt lat="45.75155" lon="6.72302">
        <ele>1995.83</ele>
        <time>2017-08-29T10:39:49Z</time>
      </trkpt>
      <trkpt lat="45.75155" lon="6.72304">
        <ele>1996.32</ele>
        <time>2017-08-29T10:39:50Z</time>
      </trkpt>
      <trkpt lat="45.75156" lon="6.72305">
        <ele>1996.32</ele>
        <time>2017-08-29T10:39:51Z</time>
      </trkpt>
      <trkpt lat="45.75156" lon="6.72306">
        <ele>1996.8</ele>
        <time>2017-08-29T10:39:52Z</time>
      </trkpt>
      <trkpt lat="45.75155" lon="6.7231">
        <ele>1997.28</ele>
        <time>2017-08-29T10:39:56Z</time>
      </trkpt>
      <trkpt lat="45.75154" lon="6.72311">
        <ele>1997.76</ele>
        <time>2017-08-29T10:39:57Z</time>
      </trkpt>
      <trkpt lat="45.75153" lon="6.72313">
        <ele>1997.76</ele>
        <time>2017-08-29T10:39:58Z</time>
      </trkpt>
      <trkpt lat="45.75152" lon="6.72313">
        <ele>1998.24</ele>
        <time>2017-08-29T10:39:59Z</time>
      </trkpt>
      <trkpt lat="45.75151" lon="6.72314">
        <ele>1998.24</ele>
        <time>2017-08-29T10:40:00Z</time>
      </trkpt>
      <trkpt lat="45.7515" lon="6.72316">
        <ele>1998.72</ele>
        <time>2017-08-29T10:40:01Z</time>
      </trkpt>
      <trkpt lat="45.7515" lon="6.72317">
        <ele>1998.72</ele>
        <time>2017-08-29T10:40:02Z</time>
      </trkpt>
      <trkpt lat="45.75149" lon="6.72318">
        <ele>1999.2</ele>
        <time>2017-08-29T10:40:03Z</time>
      </trkpt>
      <trkpt lat="45.75149" lon="6.7232">
        <ele>1999.2</ele>
        <time>2017-08-29T10:40:04Z</time>
      </trkpt>
      <trkpt lat="45.75149" lon="6.72321">
        <ele>1999.2</ele>
        <time>2017-08-29T10:40:05Z</time>
      </trkpt>
      <trkpt lat="45.75149" lon="6.72323">
        <ele>1999.2</ele>
        <time>2017-08-29T10:40:06Z</time>
      </trkpt>
      <trkpt lat="45.75152" lon="6.72332">
        <ele>2001.12</ele>
        <time>2017-08-29T10:40:14Z</time>
      </trkpt>
      <trkpt lat="45.75153" lon="6.72338">
        <ele>2002.08</ele>
        <time>2017-08-29T10:40:19Z</time>
      </trkpt>
      <trkpt lat="45.75153" lon="6.7234">
        <ele>2002.56</ele>
        <time>2017-08-29T10:40:20Z</time>
      </trkpt>
      <trkpt lat="45.75152" lon="6.72342">
        <ele>2003.04</ele>
        <time>2017-08-29T10:40:21Z</time>
      </trkpt>
      <trkpt lat="45.75152" lon="6.72344">
        <ele>2003.04</ele>
        <time>2017-08-29T10:40:22Z</time>
      </trkpt>
      <trkpt lat="45.7515" lon="6.72345">
        <ele>2003.52</ele>
        <time>2017-08-29T10:40:23Z</time>
      </trkpt>
      <trkpt lat="45.75149" lon="6.72345">
        <ele>2003.04</ele>
        <time>2017-08-29T10:40:24Z</time>
      </trkpt>
      <trkpt lat="45.75148" lon="6.72346">
        <ele>2003.52</ele>
        <time>2017-08-29T10:40:25Z</time>
      </trkpt>
      <trkpt lat="45.75147" lon="6.72346">
        <ele>2004.01</ele>
        <time>2017-08-29T10:40:26Z</time>
      </trkpt>
      <trkpt lat="45.75134" lon="6.72341">
        <ele>2006.89</ele>
        <time>2017-08-29T10:40:41Z</time>
      </trkpt>
      <trkpt lat="45.7513" lon="6.72339">
        <ele>2007.85</ele>
        <time>2017-08-29T10:40:46Z</time>
      </trkpt>
      <trkpt lat="45.75129" lon="6.72339">
        <ele>2008.33</ele>
        <time>2017-08-29T10:40:47Z</time>
      </trkpt>
      <trkpt lat="45.75126" lon="6.72342">
        <ele>2009.77</ele>
        <time>2017-08-29T10:40:52Z</time>
      </trkpt>
      <trkpt lat="45.75125" lon="6.72343">
        <ele>2010.25</ele>
        <time>2017-08-29T10:40:54Z</time>
      </trkpt>
      <trkpt lat="45.7512" lon="6.72351">
        <ele>2012.18</ele>
        <time>2017-08-29T10:41:02Z</time>
      </trkpt>
      <trkpt lat="45.7512" lon="6.72354">
        <ele>2012.66</ele>
        <time>2017-08-29T10:41:04Z</time>
      </trkpt>
      <trkpt lat="45.75119" lon="6.72355">
        <ele>2012.66</ele>
        <time>2017-08-29T10:41:05Z</time>
      </trkpt>
      <trkpt lat="45.75118" lon="6.72362">
        <ele>2015.06</ele>
        <time>2017-08-29T10:41:14Z</time>
      </trkpt>
      <trkpt lat="45.75118" lon="6.72364">
        <ele>2015.06</ele>
        <time>2017-08-29T10:41:15Z</time>
      </trkpt>
      <trkpt lat="45.75118" lon="6.72365">
        <ele>2015.54</ele>
        <time>2017-08-29T10:41:16Z</time>
      </trkpt>
      <trkpt lat="45.75117" lon="6.72367">
        <ele>2015.54</ele>
        <time>2017-08-29T10:41:17Z</time>
      </trkpt>
      <trkpt lat="45.75117" lon="6.72368">
        <ele>2015.54</ele>
        <time>2017-08-29T10:41:18Z</time>
      </trkpt>
      <trkpt lat="45.75117" lon="6.72369">
        <ele>2016.02</ele>
        <time>2017-08-29T10:41:19Z</time>
      </trkpt>
      <trkpt lat="45.75117" lon="6.72373">
        <ele>2016.02</ele>
        <time>2017-08-29T10:41:22Z</time>
      </trkpt>
      <trkpt lat="45.75117" lon="6.72375">
        <ele>2016.02</ele>
        <time>2017-08-29T10:41:23Z</time>
      </trkpt>
      <trkpt lat="45.75118" lon="6.72377">
        <ele>2016.5</ele>
        <time>2017-08-29T10:41:25Z</time>
      </trkpt>
      <trkpt lat="45.75117" lon="6.72378">
        <ele>2016.98</ele>
        <time>2017-08-29T10:41:26Z</time>
      </trkpt>
      <trkpt lat="45.75117" lon="6.72379">
        <ele>2016.98</ele>
        <time>2017-08-29T10:41:27Z</time>
      </trkpt>
      <trkpt lat="45.75114" lon="6.72383">
        <ele>2017.94</ele>
        <time>2017-08-29T10:41:31Z</time>
      </trkpt>
      <trkpt lat="45.75113" lon="6.72385">
        <ele>2018.43</ele>
        <time>2017-08-29T10:41:33Z</time>
      </trkpt>
      <trkpt lat="45.75112" lon="6.72386">
        <ele>2018.91</ele>
        <time>2017-08-29T10:41:34Z</time>
      </trkpt>
      <trkpt lat="45.7511" lon="6.72397">
        <ele>2020.83</ele>
        <time>2017-08-29T10:41:44Z</time>
      </trkpt>
      <trkpt lat="45.75111" lon="6.72403">
        <ele>2023.23</ele>
        <time>2017-08-29T10:41:53Z</time>
      </trkpt>
      <trkpt lat="45.75112" lon="6.72404">
        <ele>2023.23</ele>
        <time>2017-08-29T10:41:54Z</time>
      </trkpt>
      <trkpt lat="45.75112" lon="6.72407">
        <ele>2024.19</ele>
        <time>2017-08-29T10:41:57Z</time>
      </trkpt>
      <trkpt lat="45.75112" lon="6.72408">
        <ele>2024.19</ele>
        <time>2017-08-29T10:41:58Z</time>
      </trkpt>
      <trkpt lat="45.75111" lon="6.72414">
        <ele>2025.64</ele>
        <time>2017-08-29T10:42:03Z</time>
      </trkpt>
      <trkpt lat="45.75113" lon="6.72415">
        <ele>2026.12</ele>
        <time>2017-08-29T10:42:05Z</time>
      </trkpt>
      <trkpt lat="45.75115" lon="6.72416">
        <ele>2026.6</ele>
        <time>2017-08-29T10:42:08Z</time>
      </trkpt>
      <trkpt lat="45.7512" lon="6.72418">
        <ele>2027.56</ele>
        <time>2017-08-29T10:42:13Z</time>
      </trkpt>
      <trkpt lat="45.75121" lon="6.72419">
        <ele>2028.04</ele>
        <time>2017-08-29T10:42:14Z</time>
      </trkpt>
      <trkpt lat="45.75121" lon="6.7242">
        <ele>2028.04</ele>
        <time>2017-08-29T10:42:15Z</time>
      </trkpt>
      <trkpt lat="45.75122" lon="6.72421">
        <ele>2028.52</ele>
        <time>2017-08-29T10:42:16Z</time>
      </trkpt>
      <trkpt lat="45.75121" lon="6.72422">
        <ele>2029</ele>
        <time>2017-08-29T10:42:17Z</time>
      </trkpt>
      <trkpt lat="45.7512" lon="6.72423">
        <ele>2029</ele>
        <time>2017-08-29T10:42:18Z</time>
      </trkpt>
      <trkpt lat="45.75118" lon="6.72427">
        <ele>2031.4</ele>
        <time>2017-08-29T10:42:26Z</time>
      </trkpt>
      <trkpt lat="45.75119" lon="6.72427">
        <ele>2031.4</ele>
        <time>2017-08-29T10:42:27Z</time>
      </trkpt>
      <trkpt lat="45.7512" lon="6.72427">
        <ele>2031.88</ele>
        <time>2017-08-29T10:42:28Z</time>
      </trkpt>
      <trkpt lat="45.75121" lon="6.72427">
        <ele>2031.88</ele>
        <time>2017-08-29T10:42:29Z</time>
      </trkpt>
      <trkpt lat="45.75122" lon="6.72427">
        <ele>2032.36</ele>
        <time>2017-08-29T10:42:30Z</time>
      </trkpt>
      <trkpt lat="45.75122" lon="6.72428">
        <ele>2032.36</ele>
        <time>2017-08-29T10:42:31Z</time>
      </trkpt>
      <trkpt lat="45.75123" lon="6.72429">
        <ele>2032.36</ele>
        <time>2017-08-29T10:42:32Z</time>
      </trkpt>
      <trkpt lat="45.75131" lon="6.72434">
        <ele>2034.77</ele>
        <time>2017-08-29T10:42:42Z</time>
      </trkpt>
      <trkpt lat="45.75138" lon="6.72439">
        <ele>2037.65</ele>
        <time>2017-08-29T10:42:54Z</time>
      </trkpt>
      <trkpt lat="45.75139" lon="6.72439">
        <ele>2038.13</ele>
        <time>2017-08-29T10:42:55Z</time>
      </trkpt>
      <trkpt lat="45.7514" lon="6.72439">
        <ele>2038.13</ele>
        <time>2017-08-29T10:42:56Z</time>
      </trkpt>
      <trkpt lat="45.75141" lon="6.7244">
        <ele>2038.61</ele>
        <time>2017-08-29T10:42:57Z</time>
      </trkpt>
      <trkpt lat="45.75142" lon="6.7244">
        <ele>2038.61</ele>
        <time>2017-08-29T10:42:58Z</time>
      </trkpt>
      <trkpt lat="45.75143" lon="6.72441">
        <ele>2039.09</ele>
        <time>2017-08-29T10:43:00Z</time>
      </trkpt>
      <trkpt lat="45.75144" lon="6.72441">
        <ele>2039.57</ele>
        <time>2017-08-29T10:43:01Z</time>
      </trkpt>
      <trkpt lat="45.75145" lon="6.72442">
        <ele>2039.57</ele>
        <time>2017-08-29T10:43:02Z</time>
      </trkpt>
      <trkpt lat="45.75146" lon="6.72443">
        <ele>2040.05</ele>
        <time>2017-08-29T10:43:04Z</time>
      </trkpt>
      <trkpt lat="45.75155" lon="6.72447">
        <ele>2041.98</ele>
        <time>2017-08-29T10:43:16Z</time>
      </trkpt>
      <trkpt lat="45.75156" lon="6.72448">
        <ele>2042.46</ele>
        <time>2017-08-29T10:43:17Z</time>
      </trkpt>
      <trkpt lat="45.75157" lon="6.72449">
        <ele>2042.46</ele>
        <time>2017-08-29T10:43:18Z</time>
      </trkpt>
      <trkpt lat="45.75157" lon="6.7245">
        <ele>2042.94</ele>
        <time>2017-08-29T10:43:19Z</time>
      </trkpt>
      <trkpt lat="45.75158" lon="6.72451">
        <ele>2042.94</ele>
        <time>2017-08-29T10:43:20Z</time>
      </trkpt>
      <trkpt lat="45.75161" lon="6.72461">
        <ele>2046.3</ele>
        <time>2017-08-29T10:43:32Z</time>
      </trkpt>
      <trkpt lat="45.75163" lon="6.72462">
        <ele>2046.3</ele>
        <time>2017-08-29T10:43:34Z</time>
      </trkpt>
      <trkpt lat="45.75166" lon="6.72475">
        <ele>2049.67</ele>
        <time>2017-08-29T10:43:46Z</time>
      </trkpt>
      <trkpt lat="45.75169" lon="6.72482">
        <ele>2051.59</ele>
        <time>2017-08-29T10:43:54Z</time>
      </trkpt>
      <trkpt lat="45.75169" lon="6.72483">
        <ele>2052.07</ele>
        <time>2017-08-29T10:43:55Z</time>
      </trkpt>
      <trkpt lat="45.75172" lon="6.72489">
        <ele>2053.03</ele>
        <time>2017-08-29T10:44:01Z</time>
      </trkpt>
      <trkpt lat="45.75174" lon="6.72492">
        <ele>2054.47</ele>
        <time>2017-08-29T10:44:05Z</time>
      </trkpt>
      <trkpt lat="45.75185" lon="6.7251">
        <ele>2057.36</ele>
        <time>2017-08-29T10:44:20Z</time>
      </trkpt>
      <trkpt lat="45.75187" lon="6.72514">
        <ele>2058.8</ele>
        <time>2017-08-29T10:44:25Z</time>
      </trkpt>
      <trkpt lat="45.75197" lon="6.72524">
        <ele>2061.68</ele>
        <time>2017-08-29T10:44:38Z</time>
      </trkpt>
      <trkpt lat="45.75214" lon="6.72535">
        <ele>2062.65</ele>
        <time>2017-08-29T10:44:50Z</time>
      </trkpt>
      <trkpt lat="45.75232" lon="6.72548">
        <ele>2065.53</ele>
        <time>2017-08-29T10:45:01Z</time>
      </trkpt>
      <trkpt lat="45.75242" lon="6.72555">
        <ele>2068.41</ele>
        <time>2017-08-29T10:45:15Z</time>
      </trkpt>
      <trkpt lat="45.7525" lon="6.72562">
        <ele>2071.78</ele>
        <time>2017-08-29T10:45:28Z</time>
      </trkpt>
      <trkpt lat="45.75264" lon="6.72574">
        <ele>2074.66</ele>
        <time>2017-08-29T10:45:43Z</time>
      </trkpt>
      <trkpt lat="45.75265" lon="6.72575">
        <ele>2075.14</ele>
        <time>2017-08-29T10:45:44Z</time>
      </trkpt>
      <trkpt lat="45.75271" lon="6.72583">
        <ele>2076.59</ele>
        <time>2017-08-29T10:45:53Z</time>
      </trkpt>
      <trkpt lat="45.75272" lon="6.72585">
        <ele>2076.59</ele>
        <time>2017-08-29T10:45:54Z</time>
      </trkpt>
      <trkpt lat="45.75273" lon="6.72587">
        <ele>2077.07</ele>
        <time>2017-08-29T10:45:56Z</time>
      </trkpt>
      <trkpt lat="45.75277" lon="6.72594">
        <ele>2078.99</ele>
        <time>2017-08-29T10:46:04Z</time>
      </trkpt>
      <trkpt lat="45.75278" lon="6.72595">
        <ele>2078.99</ele>
        <time>2017-08-29T10:46:05Z</time>
      </trkpt>
      <trkpt lat="45.75279" lon="6.72596">
        <ele>2079.47</ele>
        <time>2017-08-29T10:46:06Z</time>
      </trkpt>
      <trkpt lat="45.75279" lon="6.72597">
        <ele>2079.47</ele>
        <time>2017-08-29T10:46:07Z</time>
      </trkpt>
      <trkpt lat="45.75284" lon="6.72601">
        <ele>2082.83</ele>
        <time>2017-08-29T10:46:17Z</time>
      </trkpt>
      <trkpt lat="45.75292" lon="6.72605">
        <ele>2086.2</ele>
        <time>2017-08-29T10:46:30Z</time>
      </trkpt>
      <trkpt lat="45.75299" lon="6.72608">
        <ele>2086.68</ele>
        <time>2017-08-29T10:46:36Z</time>
      </trkpt>
      <trkpt lat="45.75299" lon="6.72615">
        <ele>2088.12</ele>
        <time>2017-08-29T10:46:42Z</time>
      </trkpt>
      <trkpt lat="45.753" lon="6.72616">
        <ele>2088.6</ele>
        <time>2017-08-29T10:46:43Z</time>
      </trkpt>
      <trkpt lat="45.753" lon="6.72617">
        <ele>2088.6</ele>
        <time>2017-08-29T10:46:44Z</time>
      </trkpt>
      <trkpt lat="45.75301" lon="6.72619">
        <ele>2088.6</ele>
        <time>2017-08-29T10:46:45Z</time>
      </trkpt>
      <trkpt lat="45.75302" lon="6.7262">
        <ele>2089.08</ele>
        <time>2017-08-29T10:46:46Z</time>
      </trkpt>
      <trkpt lat="45.75303" lon="6.7262">
        <ele>2089.08</ele>
        <time>2017-08-29T10:46:47Z</time>
      </trkpt>
      <trkpt lat="45.75303" lon="6.72622">
        <ele>2089.56</ele>
        <time>2017-08-29T10:46:48Z</time>
      </trkpt>
      <trkpt lat="45.75304" lon="6.72623">
        <ele>2089.56</ele>
        <time>2017-08-29T10:46:49Z</time>
      </trkpt>
      <trkpt lat="45.75305" lon="6.72623">
        <ele>2089.56</ele>
        <time>2017-08-29T10:46:50Z</time>
      </trkpt>
      <trkpt lat="45.75306" lon="6.72624">
        <ele>2089.56</ele>
        <time>2017-08-29T10:46:51Z</time>
      </trkpt>
      <trkpt lat="45.75307" lon="6.72624">
        <ele>2089.56</ele>
        <time>2017-08-29T10:46:52Z</time>
      </trkpt>
      <trkpt lat="45.75324" lon="6.72637">
        <ele>2091</ele>
        <time>2017-08-29T10:47:06Z</time>
      </trkpt>
      <trkpt lat="45.75341" lon="6.72648">
        <ele>2093.41</ele>
        <time>2017-08-29T10:47:18Z</time>
      </trkpt>
      <trkpt lat="45.75357" lon="6.72662">
        <ele>2095.81</ele>
        <time>2017-08-29T10:47:29Z</time>
      </trkpt>
      <trkpt lat="45.75373" lon="6.72674">
        <ele>2097.73</ele>
        <time>2017-08-29T10:47:39Z</time>
      </trkpt>
      <trkpt lat="45.75381" lon="6.72678">
        <ele>2098.21</ele>
        <time>2017-08-29T10:47:43Z</time>
      </trkpt>
      <trkpt lat="45.75392" lon="6.72683">
        <ele>2099.18</ele>
        <time>2017-08-29T10:47:50Z</time>
      </trkpt>
      <trkpt lat="45.75394" lon="6.72685">
        <ele>2099.18</ele>
        <time>2017-08-29T10:47:51Z</time>
      </trkpt>
      <trkpt lat="45.75395" lon="6.72687">
        <ele>2099.66</ele>
        <time>2017-08-29T10:47:52Z</time>
      </trkpt>
      <trkpt lat="45.75396" lon="6.72688">
        <ele>2100.14</ele>
        <time>2017-08-29T10:47:53Z</time>
      </trkpt>
      <trkpt lat="45.75397" lon="6.7269">
        <ele>2100.62</ele>
        <time>2017-08-29T10:47:54Z</time>
      </trkpt>
      <trkpt lat="45.75398" lon="6.72691">
        <ele>2100.62</ele>
        <time>2017-08-29T10:47:55Z</time>
      </trkpt>
      <trkpt lat="45.75403" lon="6.72701">
        <ele>2101.58</ele>
        <time>2017-08-29T10:48:01Z</time>
      </trkpt>
      <trkpt lat="45.75403" lon="6.72703">
        <ele>2102.06</ele>
        <time>2017-08-29T10:48:02Z</time>
      </trkpt>
      <trkpt lat="45.75403" lon="6.72705">
        <ele>2102.06</ele>
        <time>2017-08-29T10:48:03Z</time>
      </trkpt>
      <trkpt lat="45.75403" lon="6.72707">
        <ele>2102.06</ele>
        <time>2017-08-29T10:48:04Z</time>
      </trkpt>
      <trkpt lat="45.75404" lon="6.72708">
        <ele>2102.54</ele>
        <time>2017-08-29T10:48:05Z</time>
      </trkpt>
      <trkpt lat="45.75405" lon="6.7271">
        <ele>2102.54</ele>
        <time>2017-08-29T10:48:06Z</time>
      </trkpt>
      <trkpt lat="45.75406" lon="6.72711">
        <ele>2103.02</ele>
        <time>2017-08-29T10:48:07Z</time>
      </trkpt>
      <trkpt lat="45.75406" lon="6.72713">
        <ele>2103.02</ele>
        <time>2017-08-29T10:48:08Z</time>
      </trkpt>
      <trkpt lat="45.75407" lon="6.72714">
        <ele>2103.02</ele>
        <time>2017-08-29T10:48:09Z</time>
      </trkpt>
      <trkpt lat="45.75408" lon="6.72715">
        <ele>2103.02</ele>
        <time>2017-08-29T10:48:10Z</time>
      </trkpt>
      <trkpt lat="45.75409" lon="6.72716">
        <ele>2103.5</ele>
        <time>2017-08-29T10:48:11Z</time>
      </trkpt>
      <trkpt lat="45.7541" lon="6.72717">
        <ele>2103.5</ele>
        <time>2017-08-29T10:48:12Z</time>
      </trkpt>
      <trkpt lat="45.75411" lon="6.72718">
        <ele>2103.98</ele>
        <time>2017-08-29T10:48:13Z</time>
      </trkpt>
      <trkpt lat="45.75411" lon="6.72719">
        <ele>2103.98</ele>
        <time>2017-08-29T10:48:14Z</time>
      </trkpt>
      <trkpt lat="45.75412" lon="6.7272">
        <ele>2104.46</ele>
        <time>2017-08-29T10:48:15Z</time>
      </trkpt>
      <trkpt lat="45.75413" lon="6.72721">
        <ele>2104.46</ele>
        <time>2017-08-29T10:48:16Z</time>
      </trkpt>
      <trkpt lat="45.75417" lon="6.72725">
        <ele>2105.42</ele>
        <time>2017-08-29T10:48:21Z</time>
      </trkpt>
      <trkpt lat="45.75418" lon="6.72726">
        <ele>2105.42</ele>
        <time>2017-08-29T10:48:22Z</time>
      </trkpt>
      <trkpt lat="45.7542" lon="6.72727">
        <ele>2105.91</ele>
        <time>2017-08-29T10:48:23Z</time>
      </trkpt>
      <trkpt lat="45.75421" lon="6.72728">
        <ele>2105.91</ele>
        <time>2017-08-29T10:48:24Z</time>
      </trkpt>
      <trkpt lat="45.75421" lon="6.72729">
        <ele>2106.39</ele>
        <time>2017-08-29T10:48:25Z</time>
      </trkpt>
      <trkpt lat="45.75422" lon="6.72729">
        <ele>2106.39</ele>
        <time>2017-08-29T10:48:26Z</time>
      </trkpt>
      <trkpt lat="45.75423" lon="6.7273">
        <ele>2106.39</ele>
        <time>2017-08-29T10:48:27Z</time>
      </trkpt>
      <trkpt lat="45.75424" lon="6.72731">
        <ele>2107.35</ele>
        <time>2017-08-29T10:48:29Z</time>
      </trkpt>
      <trkpt lat="45.75425" lon="6.72732">
        <ele>2107.35</ele>
        <time>2017-08-29T10:48:30Z</time>
      </trkpt>
      <trkpt lat="45.75425" lon="6.72733">
        <ele>2107.35</ele>
        <time>2017-08-29T10:48:31Z</time>
      </trkpt>
      <trkpt lat="45.75426" lon="6.72734">
        <ele>2107.83</ele>
        <time>2017-08-29T10:48:32Z</time>
      </trkpt>
      <trkpt lat="45.75426" lon="6.72736">
        <ele>2107.83</ele>
        <time>2017-08-29T10:48:33Z</time>
      </trkpt>
      <trkpt lat="45.75427" lon="6.72736">
        <ele>2108.31</ele>
        <time>2017-08-29T10:48:34Z</time>
      </trkpt>
      <trkpt lat="45.75428" lon="6.72737">
        <ele>2108.31</ele>
        <time>2017-08-29T10:48:35Z</time>
      </trkpt>
      <trkpt lat="45.7543" lon="6.72739">
        <ele>2108.79</ele>
        <time>2017-08-29T10:48:37Z</time>
      </trkpt>
      <trkpt lat="45.75431" lon="6.72739">
        <ele>2109.27</ele>
        <time>2017-08-29T10:48:38Z</time>
      </trkpt>
      <trkpt lat="45.75432" lon="6.7274">
        <ele>2109.75</ele>
        <time>2017-08-29T10:48:40Z</time>
      </trkpt>
      <trkpt lat="45.75433" lon="6.7274">
        <ele>2109.75</ele>
        <time>2017-08-29T10:48:41Z</time>
      </trkpt>
      <trkpt lat="45.75433" lon="6.7274">
        <ele>2110.23</ele>
        <time>2017-08-29T10:48:42Z</time>
      </trkpt>
      <trkpt lat="45.75435" lon="6.7274">
        <ele>2110.23</ele>
        <time>2017-08-29T10:48:43Z</time>
      </trkpt>
      <trkpt lat="45.75435" lon="6.7274">
        <ele>2110.23</ele>
        <time>2017-08-29T10:48:44Z</time>
      </trkpt>
      <trkpt lat="45.75436" lon="6.7274">
        <ele>2110.71</ele>
        <time>2017-08-29T10:48:45Z</time>
      </trkpt>
      <trkpt lat="45.75437" lon="6.72741">
        <ele>2111.19</ele>
        <time>2017-08-29T10:48:46Z</time>
      </trkpt>
      <trkpt lat="45.75438" lon="6.72741">
        <ele>2111.19</ele>
        <time>2017-08-29T10:48:47Z</time>
      </trkpt>
      <trkpt lat="45.75449" lon="6.72766">
        <ele>2113.6</ele>
        <time>2017-08-29T10:49:02Z</time>
      </trkpt>
      <trkpt lat="45.75455" lon="6.7279">
        <ele>2116</ele>
        <time>2017-08-29T10:49:15Z</time>
      </trkpt>
      <trkpt lat="45.75465" lon="6.72806">
        <ele>2117.44</ele>
        <time>2017-08-29T10:49:25Z</time>
      </trkpt>
      <trkpt lat="45.75466" lon="6.72808">
        <ele>2117.92</ele>
        <time>2017-08-29T10:49:26Z</time>
      </trkpt>
      <trkpt lat="45.75467" lon="6.72809">
        <ele>2117.92</ele>
        <time>2017-08-29T10:49:27Z</time>
      </trkpt>
      <trkpt lat="45.75468" lon="6.72811">
        <ele>2118.4</ele>
        <time>2017-08-29T10:49:28Z</time>
      </trkpt>
      <trkpt lat="45.75469" lon="6.72813">
        <ele>2118.4</ele>
        <time>2017-08-29T10:49:29Z</time>
      </trkpt>
      <trkpt lat="45.7547" lon="6.72814">
        <ele>2118.88</ele>
        <time>2017-08-29T10:49:30Z</time>
      </trkpt>
      <trkpt lat="45.75471" lon="6.72816">
        <ele>2119.36</ele>
        <time>2017-08-29T10:49:31Z</time>
      </trkpt>
      <trkpt lat="45.75472" lon="6.72817">
        <ele>2119.36</ele>
        <time>2017-08-29T10:49:32Z</time>
      </trkpt>
      <trkpt lat="45.75473" lon="6.72819">
        <ele>2119.36</ele>
        <time>2017-08-29T10:49:33Z</time>
      </trkpt>
      <trkpt lat="45.75474" lon="6.7282">
        <ele>2119.36</ele>
        <time>2017-08-29T10:49:34Z</time>
      </trkpt>
      <trkpt lat="45.75475" lon="6.72821">
        <ele>2119.84</ele>
        <time>2017-08-29T10:49:35Z</time>
      </trkpt>
      <trkpt lat="45.75477" lon="6.72823">
        <ele>2119.84</ele>
        <time>2017-08-29T10:49:36Z</time>
      </trkpt>
      <trkpt lat="45.75478" lon="6.72824">
        <ele>2120.32</ele>
        <time>2017-08-29T10:49:37Z</time>
      </trkpt>
      <trkpt lat="45.7549" lon="6.72842">
        <ele>2122.73</ele>
        <time>2017-08-29T10:49:51Z</time>
      </trkpt>
      <trkpt lat="45.75492" lon="6.72843">
        <ele>2123.21</ele>
        <time>2017-08-29T10:49:53Z</time>
      </trkpt>
      <trkpt lat="45.75493" lon="6.72844">
        <ele>2123.21</ele>
        <time>2017-08-29T10:49:54Z</time>
      </trkpt>
      <trkpt lat="45.75493" lon="6.72845">
        <ele>2123.69</ele>
        <time>2017-08-29T10:49:55Z</time>
      </trkpt>
      <trkpt lat="45.75494" lon="6.72846">
        <ele>2123.69</ele>
        <time>2017-08-29T10:49:56Z</time>
      </trkpt>
      <trkpt lat="45.75495" lon="6.72847">
        <ele>2124.17</ele>
        <time>2017-08-29T10:49:57Z</time>
      </trkpt>
      <trkpt lat="45.75496" lon="6.72848">
        <ele>2124.17</ele>
        <time>2017-08-29T10:49:58Z</time>
      </trkpt>
      <trkpt lat="45.75497" lon="6.72849">
        <ele>2124.17</ele>
        <time>2017-08-29T10:49:59Z</time>
      </trkpt>
      <trkpt lat="45.75498" lon="6.7285">
        <ele>2124.17</ele>
        <time>2017-08-29T10:50:00Z</time>
      </trkpt>
      <trkpt lat="45.75507" lon="6.72858">
        <ele>2126.09</ele>
        <time>2017-08-29T10:50:12Z</time>
      </trkpt>
      <trkpt lat="45.75508" lon="6.72859">
        <ele>2126.09</ele>
        <time>2017-08-29T10:50:13Z</time>
      </trkpt>
      <trkpt lat="45.75509" lon="6.7286">
        <ele>2126.57</ele>
        <time>2017-08-29T10:50:14Z</time>
      </trkpt>
      <trkpt lat="45.75516" lon="6.72866">
        <ele>2128.02</ele>
        <time>2017-08-29T10:50:23Z</time>
      </trkpt>
      <trkpt lat="45.75516" lon="6.72867">
        <ele>2128.02</ele>
        <time>2017-08-29T10:50:24Z</time>
      </trkpt>
      <trkpt lat="45.75517" lon="6.72868">
        <ele>2128.02</ele>
        <time>2017-08-29T10:50:25Z</time>
      </trkpt>
      <trkpt lat="45.75517" lon="6.7287">
        <ele>2128.5</ele>
        <time>2017-08-29T10:50:26Z</time>
      </trkpt>
      <trkpt lat="45.75518" lon="6.72871">
        <ele>2128.98</ele>
        <time>2017-08-29T10:50:27Z</time>
      </trkpt>
      <trkpt lat="45.75528" lon="6.72887">
        <ele>2129.46</ele>
        <time>2017-08-29T10:50:42Z</time>
      </trkpt>
      <trkpt lat="45.75528" lon="6.72886">
        <ele>2128.98</ele>
        <time>2017-08-29T10:50:45Z</time>
      </trkpt>
      <trkpt lat="45.75528" lon="6.72886">
        <ele>2128.98</ele>
        <time>2017-08-29T10:50:49Z</time>
      </trkpt>
      <trkpt lat="45.75527" lon="6.72886">
        <ele>2128.98</ele>
        <time>2017-08-29T10:50:53Z</time>
      </trkpt>
      <trkpt lat="45.75528" lon="6.72886">
        <ele>2128.98</ele>
        <time>2017-08-29T10:50:56Z</time>
      </trkpt>
      <trkpt lat="45.75527" lon="6.72885">
        <ele>2128.98</ele>
        <time>2017-08-29T10:50:59Z</time>
      </trkpt>
      <trkpt lat="45.75527" lon="6.72886">
        <ele>2128.98</ele>
        <time>2017-08-29T10:51:02Z</time>
      </trkpt>
      <trkpt lat="45.75527" lon="6.72886">
        <ele>2128.98</ele>
        <time>2017-08-29T10:51:06Z</time>
      </trkpt>
      <trkpt lat="45.75527" lon="6.72887">
        <ele>2128.98</ele>
        <time>2017-08-29T10:51:18Z</time>
      </trkpt>
      <trkpt lat="45.75527" lon="6.72887">
        <ele>2128.98</ele>
        <time>2017-08-29T10:51:22Z</time>
      </trkpt>
      <trkpt lat="45.75527" lon="6.72888">
        <ele>2128.98</ele>
        <time>2017-08-29T10:51:24Z</time>
      </trkpt>
      <trkpt lat="45.75528" lon="6.72888">
        <ele>2119.84</ele>
        <time>2017-08-29T10:51:26Z</time>
      </trkpt>
      <trkpt lat="45.75528" lon="6.72888">
        <ele>2119.84</ele>
        <time>2017-08-29T10:51:27Z</time>
      </trkpt>
      <trkpt lat="45.75528" lon="6.72887">
        <ele>2119.84</ele>
        <time>2017-08-29T10:51:35Z</time>
      </trkpt>
      <trkpt lat="45.75528" lon="6.72887">
        <ele>2119.84</ele>
        <time>2017-08-29T10:51:39Z</time>
      </trkpt>
      <trkpt lat="45.75528" lon="6.72886">
        <ele>2119.84</ele>
        <time>2017-08-29T10:51:46Z</time>
      </trkpt>
      <trkpt lat="45.75528" lon="6.72887">
        <ele>2179.93</ele>
        <time>2017-08-29T10:51:54Z</time>
      </trkpt>
      <trkpt lat="45.75528" lon="6.72887">
        <ele>2179.93</ele>
        <time>2017-08-29T10:51:56Z</time>
      </trkpt>
      <trkpt lat="45.75528" lon="6.72888">
        <ele>2179.93</ele>
        <time>2017-08-29T10:51:58Z</time>
      </trkpt>
      <trkpt lat="45.75529" lon="6.72887">
        <ele>2179.45</ele>
        <time>2017-08-29T10:52:09Z</time>
      </trkpt>
      <trkpt lat="45.75528" lon="6.72887">
        <ele>2179.45</ele>
        <time>2017-08-29T10:52:13Z</time>
      </trkpt>
      <trkpt lat="45.75528" lon="6.72892">
        <ele>2179.45</ele>
        <time>2017-08-29T10:52:17Z</time>
      </trkpt>
      <trkpt lat="45.75529" lon="6.72894">
        <ele>2178.97</ele>
        <time>2017-08-29T10:52:18Z</time>
      </trkpt>
      <trkpt lat="45.75529" lon="6.72896">
        <ele>2179.45</ele>
        <time>2017-08-29T10:52:19Z</time>
      </trkpt>
      <trkpt lat="45.75529" lon="6.72898">
        <ele>2179.45</ele>
        <time>2017-08-29T10:52:20Z</time>
      </trkpt>
      <trkpt lat="45.7553" lon="6.72904">
        <ele>2178.97</ele>
        <time>2017-08-29T10:52:24Z</time>
      </trkpt>
      <trkpt lat="45.75531" lon="6.72905">
        <ele>2178.97</ele>
        <time>2017-08-29T10:52:25Z</time>
      </trkpt>
      <trkpt lat="45.75531" lon="6.72907">
        <ele>2178.48</ele>
        <time>2017-08-29T10:52:26Z</time>
      </trkpt>
      <trkpt lat="45.75533" lon="6.72908">
        <ele>2178.97</ele>
        <time>2017-08-29T10:52:32Z</time>
      </trkpt>
      <trkpt lat="45.75533" lon="6.72908">
        <ele>2178.48</ele>
        <time>2017-08-29T10:52:36Z</time>
      </trkpt>
      <trkpt lat="45.75534" lon="6.72908">
        <ele>2178</ele>
        <time>2017-08-29T10:52:43Z</time>
      </trkpt>
      <trkpt lat="45.75534" lon="6.72907">
        <ele>2178</ele>
        <time>2017-08-29T10:52:48Z</time>
      </trkpt>
      <trkpt lat="45.75533" lon="6.72906">
        <ele>2178</ele>
        <time>2017-08-29T10:52:53Z</time>
      </trkpt>
      <trkpt lat="45.75533" lon="6.72906">
        <ele>2178.48</ele>
        <time>2017-08-29T10:53:01Z</time>
      </trkpt>
      <trkpt lat="45.75532" lon="6.72905">
        <ele>2178.48</ele>
        <time>2017-08-29T10:53:12Z</time>
      </trkpt>
      <trkpt lat="45.75532" lon="6.72908">
        <ele>2178.48</ele>
        <time>2017-08-29T10:53:28Z</time>
      </trkpt>
      <trkpt lat="45.75531" lon="6.72909">
        <ele>2178</ele>
        <time>2017-08-29T10:53:35Z</time>
      </trkpt>
      <trkpt lat="45.7553" lon="6.7291">
        <ele>2178</ele>
        <time>2017-08-29T10:53:46Z</time>
      </trkpt>
      <trkpt lat="45.7553" lon="6.7291">
        <ele>2178.48</ele>
        <time>2017-08-29T10:54:12Z</time>
      </trkpt>
      <trkpt lat="45.75531" lon="6.72909">
        <ele>2178.48</ele>
        <time>2017-08-29T10:54:15Z</time>
      </trkpt>
      <trkpt lat="45.75529" lon="6.7291">
        <ele>2178.97</ele>
        <time>2017-08-29T10:54:23Z</time>
      </trkpt>
      <trkpt lat="45.75529" lon="6.72912">
        <ele>2178.97</ele>
        <time>2017-08-29T10:54:24Z</time>
      </trkpt>
      <trkpt lat="45.75529" lon="6.72914">
        <ele>2178.97</ele>
        <time>2017-08-29T10:54:25Z</time>
      </trkpt>
      <trkpt lat="45.7553" lon="6.72916">
        <ele>2178.48</ele>
        <time>2017-08-29T10:54:26Z</time>
      </trkpt>
      <trkpt lat="45.7553" lon="6.72918">
        <ele>2178.48</ele>
        <time>2017-08-29T10:54:27Z</time>
      </trkpt>
      <trkpt lat="45.7553" lon="6.72919">
        <ele>2178.48</ele>
        <time>2017-08-29T10:54:28Z</time>
      </trkpt>
      <trkpt lat="45.75531" lon="6.72921">
        <ele>2178.48</ele>
        <time>2017-08-29T10:54:29Z</time>
      </trkpt>
      <trkpt lat="45.75532" lon="6.72923">
        <ele>2178.48</ele>
        <time>2017-08-29T10:54:30Z</time>
      </trkpt>
      <trkpt lat="45.75532" lon="6.72924">
        <ele>2178</ele>
        <time>2017-08-29T10:54:31Z</time>
      </trkpt>
      <trkpt lat="45.75533" lon="6.72926">
        <ele>2178</ele>
        <time>2017-08-29T10:54:32Z</time>
      </trkpt>
      <trkpt lat="45.75533" lon="6.72928">
        <ele>2177.52</ele>
        <time>2017-08-29T10:54:33Z</time>
      </trkpt>
      <trkpt lat="45.75533" lon="6.7293">
        <ele>2177.52</ele>
        <time>2017-08-29T10:54:34Z</time>
      </trkpt>
      <trkpt lat="45.75534" lon="6.72931">
        <ele>2177.52</ele>
        <time>2017-08-29T10:54:35Z</time>
      </trkpt>
      <trkpt lat="45.75534" lon="6.72932">
        <ele>2178</ele>
        <time>2017-08-29T10:54:36Z</time>
      </trkpt>
      <trkpt lat="45.75534" lon="6.72934">
        <ele>2178</ele>
        <time>2017-08-29T10:54:37Z</time>
      </trkpt>
      <trkpt lat="45.75534" lon="6.72936">
        <ele>2178.48</ele>
        <time>2017-08-29T10:54:38Z</time>
      </trkpt>
      <trkpt lat="45.75534" lon="6.72937">
        <ele>2178.48</ele>
        <time>2017-08-29T10:54:39Z</time>
      </trkpt>
      <trkpt lat="45.75534" lon="6.72939">
        <ele>2178.48</ele>
        <time>2017-08-29T10:54:40Z</time>
      </trkpt>
      <trkpt lat="45.75535" lon="6.7294">
        <ele>2178.48</ele>
        <time>2017-08-29T10:54:41Z</time>
      </trkpt>
      <trkpt lat="45.75535" lon="6.72942">
        <ele>2178.48</ele>
        <time>2017-08-29T10:54:42Z</time>
      </trkpt>
      <trkpt lat="45.75535" lon="6.72943">
        <ele>2178.48</ele>
        <time>2017-08-29T10:54:43Z</time>
      </trkpt>
      <trkpt lat="45.75536" lon="6.72945">
        <ele>2178</ele>
        <time>2017-08-29T10:55:04Z</time>
      </trkpt>
      <trkpt lat="45.75538" lon="6.72954">
        <ele>2178</ele>
        <time>2017-08-29T10:55:13Z</time>
      </trkpt>
      <trkpt lat="45.75538" lon="6.72955">
        <ele>2178</ele>
        <time>2017-08-29T10:55:14Z</time>
      </trkpt>
      <trkpt lat="45.75537" lon="6.72977">
        <ele>2179.45</ele>
        <time>2017-08-29T10:55:26Z</time>
      </trkpt>
      <trkpt lat="45.75535" lon="6.72979">
        <ele>2179.45</ele>
        <time>2017-08-29T10:55:27Z</time>
      </trkpt>
      <trkpt lat="45.75534" lon="6.7298">
        <ele>2179.45</ele>
        <time>2017-08-29T10:55:28Z</time>
      </trkpt>
      <trkpt lat="45.75533" lon="6.72982">
        <ele>2179.93</ele>
        <time>2017-08-29T10:55:29Z</time>
      </trkpt>
      <trkpt lat="45.75532" lon="6.72984">
        <ele>2180.41</ele>
        <time>2017-08-29T10:55:30Z</time>
      </trkpt>
      <trkpt lat="45.75532" lon="6.72987">
        <ele>2180.41</ele>
        <time>2017-08-29T10:55:31Z</time>
      </trkpt>
      <trkpt lat="45.7553" lon="6.72995">
        <ele>2180.89</ele>
        <time>2017-08-29T10:55:34Z</time>
      </trkpt>
      <trkpt lat="45.75531" lon="6.73002">
        <ele>2181.37</ele>
        <time>2017-08-29T10:55:37Z</time>
      </trkpt>
      <trkpt lat="45.75532" lon="6.7301">
        <ele>2181.37</ele>
        <time>2017-08-29T10:55:40Z</time>
      </trkpt>
      <trkpt lat="45.75532" lon="6.73021">
        <ele>2181.85</ele>
        <time>2017-08-29T10:55:44Z</time>
      </trkpt>
      <trkpt lat="45.75533" lon="6.73028">
        <ele>2182.81</ele>
        <time>2017-08-29T10:55:47Z</time>
      </trkpt>
      <trkpt lat="45.75534" lon="6.73031">
        <ele>2182.81</ele>
        <time>2017-08-29T10:55:48Z</time>
      </trkpt>
      <trkpt lat="45.75534" lon="6.73032">
        <ele>2182.81</ele>
        <time>2017-08-29T10:55:49Z</time>
      </trkpt>
      <trkpt lat="45.75535" lon="6.73034">
        <ele>2183.29</ele>
        <time>2017-08-29T10:55:50Z</time>
      </trkpt>
      <trkpt lat="45.75536" lon="6.73036">
        <ele>2183.29</ele>
        <time>2017-08-29T10:55:51Z</time>
      </trkpt>
      <trkpt lat="45.75537" lon="6.73038">
        <ele>2183.29</ele>
        <time>2017-08-29T10:55:52Z</time>
      </trkpt>
      <trkpt lat="45.75537" lon="6.7304">
        <ele>2183.29</ele>
        <time>2017-08-29T10:55:53Z</time>
      </trkpt>
      <trkpt lat="45.75538" lon="6.73043">
        <ele>2183.77</ele>
        <time>2017-08-29T10:55:54Z</time>
      </trkpt>
      <trkpt lat="45.75538" lon="6.73046">
        <ele>2183.77</ele>
        <time>2017-08-29T10:55:55Z</time>
      </trkpt>
      <trkpt lat="45.7554" lon="6.73048">
        <ele>2183.77</ele>
        <time>2017-08-29T10:55:56Z</time>
      </trkpt>
      <trkpt lat="45.75541" lon="6.7305">
        <ele>2183.77</ele>
        <time>2017-08-29T10:55:57Z</time>
      </trkpt>
      <trkpt lat="45.75542" lon="6.73054">
        <ele>2183.77</ele>
        <time>2017-08-29T10:55:58Z</time>
      </trkpt>
      <trkpt lat="45.75543" lon="6.73057">
        <ele>2183.77</ele>
        <time>2017-08-29T10:55:59Z</time>
      </trkpt>
      <trkpt lat="45.75546" lon="6.73084">
        <ele>2185.21</ele>
        <time>2017-08-29T10:56:09Z</time>
      </trkpt>
      <trkpt lat="45.75547" lon="6.73092">
        <ele>2186.18</ele>
        <time>2017-08-29T10:56:12Z</time>
      </trkpt>
      <trkpt lat="45.75557" lon="6.73112">
        <ele>2186.66</ele>
        <time>2017-08-29T10:56:20Z</time>
      </trkpt>
      <trkpt lat="45.75571" lon="6.73133">
        <ele>2185.69</ele>
        <time>2017-08-29T10:56:28Z</time>
      </trkpt>
      <trkpt lat="45.75582" lon="6.73155">
        <ele>2186.18</ele>
        <time>2017-08-29T10:56:36Z</time>
      </trkpt>
      <trkpt lat="45.75596" lon="6.73173">
        <ele>2183.29</ele>
        <time>2017-08-29T10:56:43Z</time>
      </trkpt>
      <trkpt lat="45.75612" lon="6.73189">
        <ele>2181.37</ele>
        <time>2017-08-29T10:56:50Z</time>
      </trkpt>
      <trkpt lat="45.75616" lon="6.73192">
        <ele>2180.89</ele>
        <time>2017-08-29T10:56:52Z</time>
      </trkpt>
      <trkpt lat="45.75619" lon="6.73194">
        <ele>2180.89</ele>
        <time>2017-08-29T10:56:53Z</time>
      </trkpt>
      <trkpt lat="45.75621" lon="6.73196">
        <ele>2180.89</ele>
        <time>2017-08-29T10:56:54Z</time>
      </trkpt>
      <trkpt lat="45.75623" lon="6.73198">
        <ele>2180.89</ele>
        <time>2017-08-29T10:56:55Z</time>
      </trkpt>
      <trkpt lat="45.75625" lon="6.73199">
        <ele>2180.89</ele>
        <time>2017-08-29T10:56:56Z</time>
      </trkpt>
      <trkpt lat="45.75628" lon="6.73199">
        <ele>2181.37</ele>
        <time>2017-08-29T10:56:57Z</time>
      </trkpt>
      <trkpt lat="45.7563" lon="6.73198">
        <ele>2181.37</ele>
        <time>2017-08-29T10:56:58Z</time>
      </trkpt>
      <trkpt lat="45.75632" lon="6.73198">
        <ele>2181.37</ele>
        <time>2017-08-29T10:56:59Z</time>
      </trkpt>
      <trkpt lat="45.75634" lon="6.73197">
        <ele>2181.37</ele>
        <time>2017-08-29T10:57:00Z</time>
      </trkpt>
      <trkpt lat="45.75636" lon="6.73197">
        <ele>2181.85</ele>
        <time>2017-08-29T10:57:01Z</time>
      </trkpt>
      <trkpt lat="45.75638" lon="6.73197">
        <ele>2181.85</ele>
        <time>2017-08-29T10:57:02Z</time>
      </trkpt>
      <trkpt lat="45.75639" lon="6.73197">
        <ele>2182.33</ele>
        <time>2017-08-29T10:57:03Z</time>
      </trkpt>
      <trkpt lat="45.75641" lon="6.73197">
        <ele>2182.33</ele>
        <time>2017-08-29T10:57:04Z</time>
      </trkpt>
      <trkpt lat="45.75642" lon="6.73198">
        <ele>2182.81</ele>
        <time>2017-08-29T10:57:05Z</time>
      </trkpt>
      <trkpt lat="45.75643" lon="6.732">
        <ele>2182.81</ele>
        <time>2017-08-29T10:57:06Z</time>
      </trkpt>
      <trkpt lat="45.75643" lon="6.73202">
        <ele>2183.29</ele>
        <time>2017-08-29T10:57:07Z</time>
      </trkpt>
      <trkpt lat="45.75645" lon="6.73203">
        <ele>2183.77</ele>
        <time>2017-08-29T10:57:09Z</time>
      </trkpt>
      <trkpt lat="45.75646" lon="6.73203">
        <ele>2184.25</ele>
        <time>2017-08-29T10:57:10Z</time>
      </trkpt>
      <trkpt lat="45.75647" lon="6.73203">
        <ele>2184.25</ele>
        <time>2017-08-29T10:57:11Z</time>
      </trkpt>
      <trkpt lat="45.75648" lon="6.73204">
        <ele>2184.73</ele>
        <time>2017-08-29T10:57:12Z</time>
      </trkpt>
      <trkpt lat="45.75649" lon="6.73206">
        <ele>2185.21</ele>
        <time>2017-08-29T10:57:13Z</time>
      </trkpt>
      <trkpt lat="45.7565" lon="6.73208">
        <ele>2185.21</ele>
        <time>2017-08-29T10:57:14Z</time>
      </trkpt>
      <trkpt lat="45.7565" lon="6.73209">
        <ele>2185.21</ele>
        <time>2017-08-29T10:57:15Z</time>
      </trkpt>
      <trkpt lat="45.75649" lon="6.73211">
        <ele>2185.69</ele>
        <time>2017-08-29T10:57:16Z</time>
      </trkpt>
      <trkpt lat="45.75648" lon="6.73213">
        <ele>2186.18</ele>
        <time>2017-08-29T10:57:17Z</time>
      </trkpt>
      <trkpt lat="45.75648" lon="6.73214">
        <ele>2186.66</ele>
        <time>2017-08-29T10:57:18Z</time>
      </trkpt>
      <trkpt lat="45.75648" lon="6.73222">
        <ele>2188.58</ele>
        <time>2017-08-29T10:57:24Z</time>
      </trkpt>
      <trkpt lat="45.7565" lon="6.73223">
        <ele>2188.58</ele>
        <time>2017-08-29T10:57:25Z</time>
      </trkpt>
      <trkpt lat="45.75651" lon="6.73223">
        <ele>2189.06</ele>
        <time>2017-08-29T10:57:26Z</time>
      </trkpt>
      <trkpt lat="45.75651" lon="6.73224">
        <ele>2189.54</ele>
        <time>2017-08-29T10:57:27Z</time>
      </trkpt>
      <trkpt lat="45.75651" lon="6.73226">
        <ele>2190.02</ele>
        <time>2017-08-29T10:57:28Z</time>
      </trkpt>
      <trkpt lat="45.75652" lon="6.73227">
        <ele>2190.02</ele>
        <time>2017-08-29T10:57:29Z</time>
      </trkpt>
      <trkpt lat="45.75654" lon="6.73235">
        <ele>2191.94</ele>
        <time>2017-08-29T10:57:34Z</time>
      </trkpt>
      <trkpt lat="45.75657" lon="6.73249">
        <ele>2194.83</ele>
        <time>2017-08-29T10:57:44Z</time>
      </trkpt>
      <trkpt lat="45.75657" lon="6.73251">
        <ele>2195.31</ele>
        <time>2017-08-29T10:57:46Z</time>
      </trkpt>
      <trkpt lat="45.75657" lon="6.73252">
        <ele>2195.79</ele>
        <time>2017-08-29T10:57:47Z</time>
      </trkpt>
      <trkpt lat="45.75665" lon="6.73278">
        <ele>2199.15</ele>
        <time>2017-08-29T10:58:02Z</time>
      </trkpt>
      <trkpt lat="45.75668" lon="6.73296">
        <ele>2199.63</ele>
        <time>2017-08-29T10:58:10Z</time>
      </trkpt>
      <trkpt lat="45.75669" lon="6.733">
        <ele>2199.63</ele>
        <time>2017-08-29T10:58:12Z</time>
      </trkpt>
      <trkpt lat="45.7567" lon="6.73302">
        <ele>2199.63</ele>
        <time>2017-08-29T10:58:13Z</time>
      </trkpt>
      <trkpt lat="45.75671" lon="6.73302">
        <ele>2200.11</ele>
        <time>2017-08-29T10:58:14Z</time>
      </trkpt>
      <trkpt lat="45.75672" lon="6.73304">
        <ele>2200.59</ele>
        <time>2017-08-29T10:58:15Z</time>
      </trkpt>
      <trkpt lat="45.75672" lon="6.73305">
        <ele>2200.59</ele>
        <time>2017-08-29T10:58:16Z</time>
      </trkpt>
      <trkpt lat="45.75673" lon="6.73307">
        <ele>2201.56</ele>
        <time>2017-08-29T10:58:17Z</time>
      </trkpt>
      <trkpt lat="45.75677" lon="6.73317">
        <ele>2204.44</ele>
        <time>2017-08-29T10:58:25Z</time>
      </trkpt>
      <trkpt lat="45.75681" lon="6.73328">
        <ele>2206.84</ele>
        <time>2017-08-29T10:58:33Z</time>
      </trkpt>
      <trkpt lat="45.75684" lon="6.73343">
        <ele>2208.77</ele>
        <time>2017-08-29T10:58:44Z</time>
      </trkpt>
      <trkpt lat="45.75685" lon="6.73344">
        <ele>2209.25</ele>
        <time>2017-08-29T10:58:45Z</time>
      </trkpt>
      <trkpt lat="45.75685" lon="6.73346">
        <ele>2209.25</ele>
        <time>2017-08-29T10:58:46Z</time>
      </trkpt>
      <trkpt lat="45.75685" lon="6.73348">
        <ele>2209.25</ele>
        <time>2017-08-29T10:58:47Z</time>
      </trkpt>
      <trkpt lat="45.75685" lon="6.7335">
        <ele>2209.73</ele>
        <time>2017-08-29T10:58:48Z</time>
      </trkpt>
      <trkpt lat="45.75685" lon="6.73352">
        <ele>2209.73</ele>
        <time>2017-08-29T10:58:49Z</time>
      </trkpt>
      <trkpt lat="45.75686" lon="6.73353">
        <ele>2210.21</ele>
        <time>2017-08-29T10:58:50Z</time>
      </trkpt>
      <trkpt lat="45.75686" lon="6.73354">
        <ele>2210.21</ele>
        <time>2017-08-29T10:58:51Z</time>
      </trkpt>
      <trkpt lat="45.75687" lon="6.73356">
        <ele>2210.21</ele>
        <time>2017-08-29T10:58:52Z</time>
      </trkpt>
      <trkpt lat="45.75687" lon="6.73357">
        <ele>2210.21</ele>
        <time>2017-08-29T10:58:53Z</time>
      </trkpt>
      <trkpt lat="45.75688" lon="6.73359">
        <ele>2210.69</ele>
        <time>2017-08-29T10:58:54Z</time>
      </trkpt>
      <trkpt lat="45.75688" lon="6.73361">
        <ele>2211.17</ele>
        <time>2017-08-29T10:58:55Z</time>
      </trkpt>
      <trkpt lat="45.75688" lon="6.73363">
        <ele>2211.17</ele>
        <time>2017-08-29T10:58:56Z</time>
      </trkpt>
      <trkpt lat="45.75692" lon="6.73389">
        <ele>2212.13</ele>
        <time>2017-08-29T10:59:07Z</time>
      </trkpt>
      <trkpt lat="45.75692" lon="6.734">
        <ele>2212.61</ele>
        <time>2017-08-29T10:59:12Z</time>
      </trkpt>
      <trkpt lat="45.75692" lon="6.73403">
        <ele>2212.61</ele>
        <time>2017-08-29T10:59:13Z</time>
      </trkpt>
      <trkpt lat="45.75691" lon="6.73405">
        <ele>2212.61</ele>
        <time>2017-08-29T10:59:14Z</time>
      </trkpt>
      <trkpt lat="45.7569" lon="6.73408">
        <ele>2212.13</ele>
        <time>2017-08-29T10:59:15Z</time>
      </trkpt>
      <trkpt lat="45.7569" lon="6.7341">
        <ele>2212.13</ele>
        <time>2017-08-29T10:59:16Z</time>
      </trkpt>
      <trkpt lat="45.75691" lon="6.73412">
        <ele>2212.13</ele>
        <time>2017-08-29T10:59:17Z</time>
      </trkpt>
      <trkpt lat="45.75692" lon="6.73414">
        <ele>2211.65</ele>
        <time>2017-08-29T10:59:18Z</time>
      </trkpt>
      <trkpt lat="45.75692" lon="6.73416">
        <ele>2211.17</ele>
        <time>2017-08-29T10:59:19Z</time>
      </trkpt>
      <trkpt lat="45.75693" lon="6.73418">
        <ele>2211.17</ele>
        <time>2017-08-29T10:59:20Z</time>
      </trkpt>
      <trkpt lat="45.75693" lon="6.7342">
        <ele>2211.17</ele>
        <time>2017-08-29T10:59:21Z</time>
      </trkpt>
      <trkpt lat="45.75693" lon="6.73422">
        <ele>2211.17</ele>
        <time>2017-08-29T10:59:22Z</time>
      </trkpt>
      <trkpt lat="45.75694" lon="6.73423">
        <ele>2210.69</ele>
        <time>2017-08-29T10:59:23Z</time>
      </trkpt>
      <trkpt lat="45.75695" lon="6.73425">
        <ele>2210.69</ele>
        <time>2017-08-29T10:59:24Z</time>
      </trkpt>
      <trkpt lat="45.75695" lon="6.73428">
        <ele>2210.21</ele>
        <time>2017-08-29T10:59:25Z</time>
      </trkpt>
      <trkpt lat="45.75695" lon="6.7343">
        <ele>2210.21</ele>
        <time>2017-08-29T10:59:26Z</time>
      </trkpt>
      <trkpt lat="45.75694" lon="6.73433">
        <ele>2210.21</ele>
        <time>2017-08-29T10:59:27Z</time>
      </trkpt>
      <trkpt lat="45.75694" lon="6.73435">
        <ele>2210.21</ele>
        <time>2017-08-29T10:59:28Z</time>
      </trkpt>
      <trkpt lat="45.75693" lon="6.73438">
        <ele>2209.73</ele>
        <time>2017-08-29T10:59:29Z</time>
      </trkpt>
      <trkpt lat="45.75693" lon="6.7344">
        <ele>2209.25</ele>
        <time>2017-08-29T10:59:30Z</time>
      </trkpt>
      <trkpt lat="45.75693" lon="6.73442">
        <ele>2209.25</ele>
        <time>2017-08-29T10:59:31Z</time>
      </trkpt>
      <trkpt lat="45.75693" lon="6.73445">
        <ele>2208.77</ele>
        <time>2017-08-29T10:59:32Z</time>
      </trkpt>
      <trkpt lat="45.75693" lon="6.73447">
        <ele>2208.77</ele>
        <time>2017-08-29T10:59:33Z</time>
      </trkpt>
      <trkpt lat="45.75693" lon="6.73449">
        <ele>2208.29</ele>
        <time>2017-08-29T10:59:34Z</time>
      </trkpt>
      <trkpt lat="45.75694" lon="6.73453">
        <ele>2208.29</ele>
        <time>2017-08-29T10:59:35Z</time>
      </trkpt>
      <trkpt lat="45.75694" lon="6.73455">
        <ele>2207.81</ele>
        <time>2017-08-29T10:59:36Z</time>
      </trkpt>
      <trkpt lat="45.75696" lon="6.73465">
        <ele>2207.81</ele>
        <time>2017-08-29T10:59:40Z</time>
      </trkpt>
      <trkpt lat="45.75696" lon="6.73469">
        <ele>2207.81</ele>
        <time>2017-08-29T10:59:42Z</time>
      </trkpt>
      <trkpt lat="45.75695" lon="6.7347">
        <ele>2207.81</ele>
        <time>2017-08-29T10:59:43Z</time>
      </trkpt>
      <trkpt lat="45.75695" lon="6.73474">
        <ele>2208.77</ele>
        <time>2017-08-29T10:59:47Z</time>
      </trkpt>
      <trkpt lat="45.75699" lon="6.73478">
        <ele>2209.25</ele>
        <time>2017-08-29T10:59:54Z</time>
      </trkpt>
      <trkpt lat="45.75699" lon="6.73479">
        <ele>2209.25</ele>
        <time>2017-08-29T10:59:55Z</time>
      </trkpt>
      <trkpt lat="45.75702" lon="6.73488">
        <ele>2212.61</ele>
        <time>2017-08-29T11:00:04Z</time>
      </trkpt>
      <trkpt lat="45.75705" lon="6.73502">
        <ele>2215.01</ele>
        <time>2017-08-29T11:00:17Z</time>
      </trkpt>
      <trkpt lat="45.75706" lon="6.73504">
        <ele>2215.01</ele>
        <time>2017-08-29T11:00:18Z</time>
      </trkpt>
      <trkpt lat="45.75705" lon="6.73506">
        <ele>2215.01</ele>
        <time>2017-08-29T11:00:19Z</time>
      </trkpt>
      <trkpt lat="45.75704" lon="6.73506">
        <ele>2215.5</ele>
        <time>2017-08-29T11:00:20Z</time>
      </trkpt>
      <trkpt lat="45.75704" lon="6.73507">
        <ele>2215.98</ele>
        <time>2017-08-29T11:00:21Z</time>
      </trkpt>
      <trkpt lat="45.75703" lon="6.73508">
        <ele>2215.98</ele>
        <time>2017-08-29T11:00:22Z</time>
      </trkpt>
      <trkpt lat="45.75701" lon="6.73511">
        <ele>2216.94</ele>
        <time>2017-08-29T11:00:24Z</time>
      </trkpt>
      <trkpt lat="45.75701" lon="6.73512">
        <ele>2216.94</ele>
        <time>2017-08-29T11:00:25Z</time>
      </trkpt>
      <trkpt lat="45.757" lon="6.73513">
        <ele>2216.94</ele>
        <time>2017-08-29T11:00:26Z</time>
      </trkpt>
      <trkpt lat="45.75699" lon="6.73514">
        <ele>2216.94</ele>
        <time>2017-08-29T11:00:27Z</time>
      </trkpt>
      <trkpt lat="45.75698" lon="6.73515">
        <ele>2217.42</ele>
        <time>2017-08-29T11:00:28Z</time>
      </trkpt>
      <trkpt lat="45.75697" lon="6.73515">
        <ele>2217.9</ele>
        <time>2017-08-29T11:00:29Z</time>
      </trkpt>
      <trkpt lat="45.75696" lon="6.73516">
        <ele>2217.9</ele>
        <time>2017-08-29T11:00:30Z</time>
      </trkpt>
      <trkpt lat="45.75695" lon="6.73518">
        <ele>2218.38</ele>
        <time>2017-08-29T11:00:32Z</time>
      </trkpt>
      <trkpt lat="45.75695" lon="6.73519">
        <ele>2218.38</ele>
        <time>2017-08-29T11:00:33Z</time>
      </trkpt>
      <trkpt lat="45.75695" lon="6.73529">
        <ele>2220.78</ele>
        <time>2017-08-29T11:00:43Z</time>
      </trkpt>
      <trkpt lat="45.75695" lon="6.73531">
        <ele>2221.26</ele>
        <time>2017-08-29T11:00:44Z</time>
      </trkpt>
      <trkpt lat="45.75695" lon="6.73532">
        <ele>2221.74</ele>
        <time>2017-08-29T11:00:45Z</time>
      </trkpt>
      <trkpt lat="45.75696" lon="6.73545">
        <ele>2224.63</ele>
        <time>2017-08-29T11:00:58Z</time>
      </trkpt>
      <trkpt lat="45.757" lon="6.73552">
        <ele>2227.51</ele>
        <time>2017-08-29T11:01:10Z</time>
      </trkpt>
      <trkpt lat="45.75702" lon="6.73554">
        <ele>2227.99</ele>
        <time>2017-08-29T11:01:13Z</time>
      </trkpt>
      <trkpt lat="45.75706" lon="6.73564">
        <ele>2229.92</ele>
        <time>2017-08-29T11:01:23Z</time>
      </trkpt>
      <trkpt lat="45.75703" lon="6.7357">
        <ele>2231.84</ele>
        <time>2017-08-29T11:01:29Z</time>
      </trkpt>
      <trkpt lat="45.75701" lon="6.73577">
        <ele>2233.28</ele>
        <time>2017-08-29T11:01:37Z</time>
      </trkpt>
      <trkpt lat="45.75701" lon="6.73579">
        <ele>2234.24</ele>
        <time>2017-08-29T11:01:39Z</time>
      </trkpt>
      <trkpt lat="45.75701" lon="6.73581">
        <ele>2234.72</ele>
        <time>2017-08-29T11:01:40Z</time>
      </trkpt>
      <trkpt lat="45.75697" lon="6.73594">
        <ele>2237.61</ele>
        <time>2017-08-29T11:01:53Z</time>
      </trkpt>
      <trkpt lat="45.75698" lon="6.73601">
        <ele>2239.53</ele>
        <time>2017-08-29T11:02:01Z</time>
      </trkpt>
      <trkpt lat="45.75698" lon="6.73604">
        <ele>2240.01</ele>
        <time>2017-08-29T11:02:03Z</time>
      </trkpt>
      <trkpt lat="45.75698" lon="6.73605">
        <ele>2240.49</ele>
        <time>2017-08-29T11:02:04Z</time>
      </trkpt>
      <trkpt lat="45.757" lon="6.73621">
        <ele>2243.37</ele>
        <time>2017-08-29T11:02:20Z</time>
      </trkpt>
      <trkpt lat="45.75701" lon="6.73622">
        <ele>2243.37</ele>
        <time>2017-08-29T11:02:21Z</time>
      </trkpt>
      <trkpt lat="45.75702" lon="6.73622">
        <ele>2243.37</ele>
        <time>2017-08-29T11:02:22Z</time>
      </trkpt>
      <trkpt lat="45.75703" lon="6.73623">
        <ele>2243.85</ele>
        <time>2017-08-29T11:02:23Z</time>
      </trkpt>
      <trkpt lat="45.75705" lon="6.7363">
        <ele>2247.22</ele>
        <time>2017-08-29T11:02:36Z</time>
      </trkpt>
      <trkpt lat="45.75706" lon="6.73636">
        <ele>2250.1</ele>
        <time>2017-08-29T11:02:46Z</time>
      </trkpt>
      <trkpt lat="45.75709" lon="6.73643">
        <ele>2253.47</ele>
        <time>2017-08-29T11:03:00Z</time>
      </trkpt>
      <trkpt lat="45.75711" lon="6.73646">
        <ele>2254.43</ele>
        <time>2017-08-29T11:03:04Z</time>
      </trkpt>
      <trkpt lat="45.75711" lon="6.73647">
        <ele>2254.43</ele>
        <time>2017-08-29T11:03:05Z</time>
      </trkpt>
      <trkpt lat="45.75706" lon="6.73651">
        <ele>2257.31</ele>
        <time>2017-08-29T11:03:16Z</time>
      </trkpt>
      <trkpt lat="45.75703" lon="6.7366">
        <ele>2260.2</ele>
        <time>2017-08-29T11:03:31Z</time>
      </trkpt>
      <trkpt lat="45.75695" lon="6.73665">
        <ele>2263.56</ele>
        <time>2017-08-29T11:03:44Z</time>
      </trkpt>
      <trkpt lat="45.75693" lon="6.73669">
        <ele>2265</ele>
        <time>2017-08-29T11:03:50Z</time>
      </trkpt>
      <trkpt lat="45.75691" lon="6.7367">
        <ele>2265.48</ele>
        <time>2017-08-29T11:03:53Z</time>
      </trkpt>
      <trkpt lat="45.75689" lon="6.73673">
        <ele>2267.41</ele>
        <time>2017-08-29T11:03:59Z</time>
      </trkpt>
      <trkpt lat="45.75688" lon="6.73679">
        <ele>2268.85</ele>
        <time>2017-08-29T11:04:05Z</time>
      </trkpt>
      <trkpt lat="45.75688" lon="6.7368">
        <ele>2268.85</ele>
        <time>2017-08-29T11:04:06Z</time>
      </trkpt>
      <trkpt lat="45.75683" lon="6.7369">
        <ele>2272.21</ele>
        <time>2017-08-29T11:04:20Z</time>
      </trkpt>
      <trkpt lat="45.75681" lon="6.73691">
        <ele>2272.69</ele>
        <time>2017-08-29T11:04:21Z</time>
      </trkpt>
      <trkpt lat="45.7568" lon="6.73691">
        <ele>2272.69</ele>
        <time>2017-08-29T11:04:22Z</time>
      </trkpt>
      <trkpt lat="45.75673" lon="6.73702">
        <ele>2276.06</ele>
        <time>2017-08-29T11:04:39Z</time>
      </trkpt>
      <trkpt lat="45.75673" lon="6.73702">
        <ele>2276.54</ele>
        <time>2017-08-29T11:04:40Z</time>
      </trkpt>
      <trkpt lat="45.75673" lon="6.73708">
        <ele>2277.98</ele>
        <time>2017-08-29T11:04:46Z</time>
      </trkpt>
      <trkpt lat="45.75677" lon="6.7372">
        <ele>2281.35</ele>
        <time>2017-08-29T11:05:01Z</time>
      </trkpt>
      <trkpt lat="45.75677" lon="6.73723">
        <ele>2281.83</ele>
        <time>2017-08-29T11:05:03Z</time>
      </trkpt>
      <trkpt lat="45.75678" lon="6.73726">
        <ele>2282.31</ele>
        <time>2017-08-29T11:05:06Z</time>
      </trkpt>
      <trkpt lat="45.75681" lon="6.73736">
        <ele>2285.19</ele>
        <time>2017-08-29T11:05:18Z</time>
      </trkpt>
      <trkpt lat="45.75682" lon="6.73746">
        <ele>2288.08</ele>
        <time>2017-08-29T11:05:31Z</time>
      </trkpt>
      <trkpt lat="45.75682" lon="6.73756">
        <ele>2291.44</ele>
        <time>2017-08-29T11:05:44Z</time>
      </trkpt>
      <trkpt lat="45.75685" lon="6.7377">
        <ele>2294.32</ele>
        <time>2017-08-29T11:05:58Z</time>
      </trkpt>
      <trkpt lat="45.75681" lon="6.73776">
        <ele>2297.21</ele>
        <time>2017-08-29T11:06:12Z</time>
      </trkpt>
      <trkpt lat="45.7568" lon="6.73776">
        <ele>2297.69</ele>
        <time>2017-08-29T11:06:13Z</time>
      </trkpt>
      <trkpt lat="45.75679" lon="6.73776">
        <ele>2298.17</ele>
        <time>2017-08-29T11:06:14Z</time>
      </trkpt>
      <trkpt lat="45.75665" lon="6.73776">
        <ele>2301.05</ele>
        <time>2017-08-29T11:06:29Z</time>
      </trkpt>
      <trkpt lat="45.75655" lon="6.73779">
        <ele>2302.98</ele>
        <time>2017-08-29T11:06:39Z</time>
      </trkpt>
      <trkpt lat="45.75652" lon="6.73779">
        <ele>2303.46</ele>
        <time>2017-08-29T11:06:42Z</time>
      </trkpt>
      <trkpt lat="45.75657" lon="6.73788">
        <ele>2305.86</ele>
        <time>2017-08-29T11:06:55Z</time>
      </trkpt>
      <trkpt lat="45.7567" lon="6.738">
        <ele>2308.74</ele>
        <time>2017-08-29T11:07:09Z</time>
      </trkpt>
      <trkpt lat="45.75676" lon="6.73811">
        <ele>2310.19</ele>
        <time>2017-08-29T11:07:16Z</time>
      </trkpt>
      <trkpt lat="45.75684" lon="6.73829">
        <ele>2313.07</ele>
        <time>2017-08-29T11:07:27Z</time>
      </trkpt>
      <trkpt lat="45.75689" lon="6.73844">
        <ele>2315.95</ele>
        <time>2017-08-29T11:07:41Z</time>
      </trkpt>
      <trkpt lat="45.75692" lon="6.73853">
        <ele>2318.36</ele>
        <time>2017-08-29T11:07:49Z</time>
      </trkpt>
      <trkpt lat="45.75693" lon="6.73854">
        <ele>2318.36</ele>
        <time>2017-08-29T11:07:50Z</time>
      </trkpt>
      <trkpt lat="45.75693" lon="6.73855">
        <ele>2318.36</ele>
        <time>2017-08-29T11:07:51Z</time>
      </trkpt>
      <trkpt lat="45.75694" lon="6.73857">
        <ele>2318.84</ele>
        <time>2017-08-29T11:07:52Z</time>
      </trkpt>
      <trkpt lat="45.75696" lon="6.73861">
        <ele>2319.8</ele>
        <time>2017-08-29T11:07:57Z</time>
      </trkpt>
      <trkpt lat="45.75697" lon="6.73863">
        <ele>2319.8</ele>
        <time>2017-08-29T11:07:58Z</time>
      </trkpt>
      <trkpt lat="45.75702" lon="6.7388">
        <ele>2323.16</ele>
        <time>2017-08-29T11:08:13Z</time>
      </trkpt>
      <trkpt lat="45.75705" lon="6.73885">
        <ele>2324.12</ele>
        <time>2017-08-29T11:08:18Z</time>
      </trkpt>
      <trkpt lat="45.75705" lon="6.73886">
        <ele>2324.61</ele>
        <time>2017-08-29T11:08:19Z</time>
      </trkpt>
      <trkpt lat="45.7571" lon="6.73903">
        <ele>2327.01</ele>
        <time>2017-08-29T11:08:33Z</time>
      </trkpt>
      <trkpt lat="45.75711" lon="6.73906">
        <ele>2327.97</ele>
        <time>2017-08-29T11:08:36Z</time>
      </trkpt>
      <trkpt lat="45.75711" lon="6.73907">
        <ele>2327.97</ele>
        <time>2017-08-29T11:08:37Z</time>
      </trkpt>
      <trkpt lat="45.75712" lon="6.73908">
        <ele>2327.97</ele>
        <time>2017-08-29T11:08:38Z</time>
      </trkpt>
      <trkpt lat="45.75713" lon="6.73911">
        <ele>2328.45</ele>
        <time>2017-08-29T11:08:40Z</time>
      </trkpt>
      <trkpt lat="45.75713" lon="6.73912">
        <ele>2328.93</ele>
        <time>2017-08-29T11:08:41Z</time>
      </trkpt>
      <trkpt lat="45.75714" lon="6.73913">
        <ele>2328.93</ele>
        <time>2017-08-29T11:08:42Z</time>
      </trkpt>
      <trkpt lat="45.75714" lon="6.73915">
        <ele>2329.41</ele>
        <time>2017-08-29T11:08:43Z</time>
      </trkpt>
      <trkpt lat="45.75714" lon="6.73917">
        <ele>2329.41</ele>
        <time>2017-08-29T11:08:44Z</time>
      </trkpt>
      <trkpt lat="45.75714" lon="6.73918">
        <ele>2329.41</ele>
        <time>2017-08-29T11:08:45Z</time>
      </trkpt>
      <trkpt lat="45.75717" lon="6.73924">
        <ele>2330.37</ele>
        <time>2017-08-29T11:08:50Z</time>
      </trkpt>
      <trkpt lat="45.75717" lon="6.73926">
        <ele>2330.37</ele>
        <time>2017-08-29T11:08:51Z</time>
      </trkpt>
      <trkpt lat="45.75717" lon="6.73931">
        <ele>2331.33</ele>
        <time>2017-08-29T11:08:55Z</time>
      </trkpt>
      <trkpt lat="45.75718" lon="6.73932">
        <ele>2331.33</ele>
        <time>2017-08-29T11:08:56Z</time>
      </trkpt>
      <trkpt lat="45.75718" lon="6.73933">
        <ele>2331.81</ele>
        <time>2017-08-29T11:08:57Z</time>
      </trkpt>
      <trkpt lat="45.75718" lon="6.73934">
        <ele>2332.3</ele>
        <time>2017-08-29T11:08:58Z</time>
      </trkpt>
      <trkpt lat="45.75718" lon="6.73935">
        <ele>2332.3</ele>
        <time>2017-08-29T11:08:59Z</time>
      </trkpt>
      <trkpt lat="45.75719" lon="6.73939">
        <ele>2332.78</ele>
        <time>2017-08-29T11:09:01Z</time>
      </trkpt>
      <trkpt lat="45.7572" lon="6.7394">
        <ele>2332.78</ele>
        <time>2017-08-29T11:09:02Z</time>
      </trkpt>
      <trkpt lat="45.75723" lon="6.73954">
        <ele>2334.22</ele>
        <time>2017-08-29T11:09:11Z</time>
      </trkpt>
      <trkpt lat="45.75723" lon="6.73955">
        <ele>2334.22</ele>
        <time>2017-08-29T11:09:12Z</time>
      </trkpt>
      <trkpt lat="45.75724" lon="6.73957">
        <ele>2334.7</ele>
        <time>2017-08-29T11:09:13Z</time>
      </trkpt>
      <trkpt lat="45.75727" lon="6.73983">
        <ele>2337.1</ele>
        <time>2017-08-29T11:09:30Z</time>
      </trkpt>
      <trkpt lat="45.75727" lon="6.73994">
        <ele>2338.06</ele>
        <time>2017-08-29T11:09:37Z</time>
      </trkpt>
      <trkpt lat="45.75727" lon="6.73995">
        <ele>2338.54</ele>
        <time>2017-08-29T11:09:38Z</time>
      </trkpt>
      <trkpt lat="45.75727" lon="6.73997">
        <ele>2338.54</ele>
        <time>2017-08-29T11:09:39Z</time>
      </trkpt>
      <trkpt lat="45.75727" lon="6.73998">
        <ele>2338.54</ele>
        <time>2017-08-29T11:09:40Z</time>
      </trkpt>
      <trkpt lat="45.75728" lon="6.74">
        <ele>2338.54</ele>
        <time>2017-08-29T11:09:41Z</time>
      </trkpt>
      <trkpt lat="45.75728" lon="6.74001">
        <ele>2339.02</ele>
        <time>2017-08-29T11:09:42Z</time>
      </trkpt>
      <trkpt lat="45.7573" lon="6.74009">
        <ele>2340.47</ele>
        <time>2017-08-29T11:09:48Z</time>
      </trkpt>
      <trkpt lat="45.75736" lon="6.74027">
        <ele>2343.35</ele>
        <time>2017-08-29T11:10:01Z</time>
      </trkpt>
      <trkpt lat="45.75743" lon="6.74045">
        <ele>2346.72</ele>
        <time>2017-08-29T11:10:17Z</time>
      </trkpt>
      <trkpt lat="45.75746" lon="6.74052">
        <ele>2349.6</ele>
        <time>2017-08-29T11:10:25Z</time>
      </trkpt>
      <trkpt lat="45.75744" lon="6.74058">
        <ele>2352</ele>
        <time>2017-08-29T11:10:33Z</time>
      </trkpt>
      <trkpt lat="45.75743" lon="6.74057">
        <ele>2352</ele>
        <time>2017-08-29T11:10:34Z</time>
      </trkpt>
      <trkpt lat="45.75737" lon="6.74057">
        <ele>2354.41</ele>
        <time>2017-08-29T11:10:43Z</time>
      </trkpt>
      <trkpt lat="45.75734" lon="6.74058">
        <ele>2355.37</ele>
        <time>2017-08-29T11:10:48Z</time>
      </trkpt>
      <trkpt lat="45.75733" lon="6.74058">
        <ele>2356.33</ele>
        <time>2017-08-29T11:10:51Z</time>
      </trkpt>
      <trkpt lat="45.75732" lon="6.74059">
        <ele>2356.81</ele>
        <time>2017-08-29T11:10:52Z</time>
      </trkpt>
      <trkpt lat="45.75728" lon="6.74062">
        <ele>2358.25</ele>
        <time>2017-08-29T11:10:59Z</time>
      </trkpt>
      <trkpt lat="45.75727" lon="6.74066">
        <ele>2361.62</ele>
        <time>2017-08-29T11:11:09Z</time>
      </trkpt>
      <trkpt lat="45.75729" lon="6.74068">
        <ele>2361.62</ele>
        <time>2017-08-29T11:11:11Z</time>
      </trkpt>
      <trkpt lat="45.75729" lon="6.74074">
        <ele>2364.98</ele>
        <time>2017-08-29T11:11:22Z</time>
      </trkpt>
      <trkpt lat="45.7573" lon="6.74079">
        <ele>2365.94</ele>
        <time>2017-08-29T11:11:26Z</time>
      </trkpt>
      <trkpt lat="45.75729" lon="6.74081">
        <ele>2366.42</ele>
        <time>2017-08-29T11:11:29Z</time>
      </trkpt>
      <trkpt lat="45.75731" lon="6.74088">
        <ele>2369.79</ele>
        <time>2017-08-29T11:11:41Z</time>
      </trkpt>
      <trkpt lat="45.7573" lon="6.74096">
        <ele>2373.15</ele>
        <time>2017-08-29T11:11:54Z</time>
      </trkpt>
      <trkpt lat="45.75728" lon="6.74102">
        <ele>2376.04</ele>
        <time>2017-08-29T11:12:07Z</time>
      </trkpt>
      <trkpt lat="45.75726" lon="6.7411">
        <ele>2379.4</ele>
        <time>2017-08-29T11:12:20Z</time>
      </trkpt>
      <trkpt lat="45.75724" lon="6.74111">
        <ele>2379.88</ele>
        <time>2017-08-29T11:12:22Z</time>
      </trkpt>
      <trkpt lat="45.75721" lon="6.74115">
        <ele>2382.76</ele>
        <time>2017-08-29T11:12:34Z</time>
      </trkpt>
      <trkpt lat="45.75722" lon="6.74126">
        <ele>2386.13</ele>
        <time>2017-08-29T11:12:48Z</time>
      </trkpt>
      <trkpt lat="45.75721" lon="6.74128">
        <ele>2386.61</ele>
        <time>2017-08-29T11:12:50Z</time>
      </trkpt>
      <trkpt lat="45.75715" lon="6.74135">
        <ele>2389.97</ele>
        <time>2017-08-29T11:13:05Z</time>
      </trkpt>
      <trkpt lat="45.7571" lon="6.74137">
        <ele>2391.42</ele>
        <time>2017-08-29T11:13:13Z</time>
      </trkpt>
      <trkpt lat="45.75707" lon="6.74139">
        <ele>2392.38</ele>
        <time>2017-08-29T11:13:18Z</time>
      </trkpt>
      <trkpt lat="45.75703" lon="6.74142">
        <ele>2394.78</ele>
        <time>2017-08-29T11:13:27Z</time>
      </trkpt>
      <trkpt lat="45.75702" lon="6.74143">
        <ele>2395.26</ele>
        <time>2017-08-29T11:13:29Z</time>
      </trkpt>
      <trkpt lat="45.75701" lon="6.74144">
        <ele>2395.74</ele>
        <time>2017-08-29T11:13:30Z</time>
      </trkpt>
      <trkpt lat="45.75699" lon="6.74144">
        <ele>2396.7</ele>
        <time>2017-08-29T11:13:33Z</time>
      </trkpt>
      <trkpt lat="45.75696" lon="6.74146">
        <ele>2397.67</ele>
        <time>2017-08-29T11:13:38Z</time>
      </trkpt>
      <trkpt lat="45.75693" lon="6.74146">
        <ele>2398.63</ele>
        <time>2017-08-29T11:13:41Z</time>
      </trkpt>
      <trkpt lat="45.75695" lon="6.74154">
        <ele>2401.99</ele>
        <time>2017-08-29T11:13:55Z</time>
      </trkpt>
      <trkpt lat="45.75695" lon="6.7416">
        <ele>2404.39</ele>
        <time>2017-08-29T11:14:05Z</time>
      </trkpt>
      <trkpt lat="45.75693" lon="6.74166">
        <ele>2406.8</ele>
        <time>2017-08-29T11:14:17Z</time>
      </trkpt>
      <trkpt lat="45.75691" lon="6.74168">
        <ele>2408.24</ele>
        <time>2017-08-29T11:14:21Z</time>
      </trkpt>
      <trkpt lat="45.75685" lon="6.74167">
        <ele>2410.64</ele>
        <time>2017-08-29T11:14:34Z</time>
      </trkpt>
      <trkpt lat="45.75681" lon="6.74165">
        <ele>2412.09</ele>
        <time>2017-08-29T11:14:40Z</time>
      </trkpt>
      <trkpt lat="45.7568" lon="6.74163">
        <ele>2412.09</ele>
        <time>2017-08-29T11:14:41Z</time>
      </trkpt>
      <trkpt lat="45.7568" lon="6.74163">
        <ele>2412.57</ele>
        <time>2017-08-29T11:14:42Z</time>
      </trkpt>
      <trkpt lat="45.75679" lon="6.74162">
        <ele>2412.57</ele>
        <time>2017-08-29T11:14:43Z</time>
      </trkpt>
      <trkpt lat="45.75678" lon="6.74161">
        <ele>2413.05</ele>
        <time>2017-08-29T11:14:44Z</time>
      </trkpt>
      <trkpt lat="45.75673" lon="6.74163">
        <ele>2414.97</ele>
        <time>2017-08-29T11:14:54Z</time>
      </trkpt>
      <trkpt lat="45.75671" lon="6.74164">
        <ele>2415.93</ele>
        <time>2017-08-29T11:14:57Z</time>
      </trkpt>
      <trkpt lat="45.7567" lon="6.74165">
        <ele>2416.41</ele>
        <time>2017-08-29T11:14:58Z</time>
      </trkpt>
      <trkpt lat="45.75669" lon="6.7417">
        <ele>2419.3</ele>
        <time>2017-08-29T11:15:10Z</time>
      </trkpt>
      <trkpt lat="45.75672" lon="6.74175">
        <ele>2421.7</ele>
        <time>2017-08-29T11:15:20Z</time>
      </trkpt>
      <trkpt lat="45.75668" lon="6.74179">
        <ele>2424.58</ele>
        <time>2017-08-29T11:15:33Z</time>
      </trkpt>
      <trkpt lat="45.75667" lon="6.74179">
        <ele>2425.06</ele>
        <time>2017-08-29T11:15:34Z</time>
      </trkpt>
      <trkpt lat="45.75667" lon="6.74179">
        <ele>2425.54</ele>
        <time>2017-08-29T11:15:37Z</time>
      </trkpt>
      <trkpt lat="45.75666" lon="6.74184">
        <ele>2428.91</ele>
        <time>2017-08-29T11:15:52Z</time>
      </trkpt>
      <trkpt lat="45.75665" lon="6.74189">
        <ele>2432.27</ele>
        <time>2017-08-29T11:16:03Z</time>
      </trkpt>
      <trkpt lat="45.75663" lon="6.74199">
        <ele>2435.64</ele>
        <time>2017-08-29T11:16:19Z</time>
      </trkpt>
      <trkpt lat="45.75663" lon="6.74205">
        <ele>2437.56</ele>
        <time>2017-08-29T11:16:30Z</time>
      </trkpt>
      <trkpt lat="45.75657" lon="6.74202">
        <ele>2440.44</ele>
        <time>2017-08-29T11:16:44Z</time>
      </trkpt>
      <trkpt lat="45.75655" lon="6.74201">
        <ele>2441.41</ele>
        <time>2017-08-29T11:16:47Z</time>
      </trkpt>
      <trkpt lat="45.75652" lon="6.74207">
        <ele>2444.77</ele>
        <time>2017-08-29T11:17:01Z</time>
      </trkpt>
      <trkpt lat="45.7565" lon="6.74211">
        <ele>2447.65</ele>
        <time>2017-08-29T11:17:13Z</time>
      </trkpt>
      <trkpt lat="45.75645" lon="6.7421">
        <ele>2451.02</ele>
        <time>2017-08-29T11:17:27Z</time>
      </trkpt>
      <trkpt lat="45.75639" lon="6.74208">
        <ele>2453.9</ele>
        <time>2017-08-29T11:17:42Z</time>
      </trkpt>
      <trkpt lat="45.75635" lon="6.74207">
        <ele>2456.79</ele>
        <time>2017-08-29T11:17:54Z</time>
      </trkpt>
      <trkpt lat="45.75631" lon="6.74212">
        <ele>2460.15</ele>
        <time>2017-08-29T11:18:09Z</time>
      </trkpt>
      <trkpt lat="45.75631" lon="6.74217">
        <ele>2463.04</ele>
        <time>2017-08-29T11:18:24Z</time>
      </trkpt>
      <trkpt lat="45.7563" lon="6.74219">
        <ele>2466.4</ele>
        <time>2017-08-29T11:18:38Z</time>
      </trkpt>
      <trkpt lat="45.7563" lon="6.74227">
        <ele>2469.28</ele>
        <time>2017-08-29T11:18:50Z</time>
      </trkpt>
      <trkpt lat="45.75632" lon="6.74235">
        <ele>2472.17</ele>
        <time>2017-08-29T11:19:05Z</time>
      </trkpt>
      <trkpt lat="45.75633" lon="6.74242">
        <ele>2475.53</ele>
        <time>2017-08-29T11:19:19Z</time>
      </trkpt>
      <trkpt lat="45.7563" lon="6.74242">
        <ele>2478.42</ele>
        <time>2017-08-29T11:19:32Z</time>
      </trkpt>
      <trkpt lat="45.75626" lon="6.74249">
        <ele>2481.78</ele>
        <time>2017-08-29T11:19:46Z</time>
      </trkpt>
      <trkpt lat="45.75622" lon="6.74255">
        <ele>2484.66</ele>
        <time>2017-08-29T11:20:01Z</time>
      </trkpt>
      <trkpt lat="45.75623" lon="6.7426">
        <ele>2488.03</ele>
        <time>2017-08-29T11:20:12Z</time>
      </trkpt>
      <trkpt lat="45.75623" lon="6.74264">
        <ele>2490.43</ele>
        <time>2017-08-29T11:20:22Z</time>
      </trkpt>
      <trkpt lat="45.75617" lon="6.74261">
        <ele>2493.8</ele>
        <time>2017-08-29T11:20:33Z</time>
      </trkpt>
      <trkpt lat="45.75609" lon="6.74255">
        <ele>2496.68</ele>
        <time>2017-08-29T11:20:48Z</time>
      </trkpt>
      <trkpt lat="45.75606" lon="6.74257">
        <ele>2499.57</ele>
        <time>2017-08-29T11:21:02Z</time>
      </trkpt>
      <trkpt lat="45.75602" lon="6.74256">
        <ele>2502.93</ele>
        <time>2017-08-29T11:21:17Z</time>
      </trkpt>
      <trkpt lat="45.756" lon="6.74261">
        <ele>2505.81</ele>
        <time>2017-08-29T11:21:30Z</time>
      </trkpt>
      <trkpt lat="45.75603" lon="6.74268">
        <ele>2509.18</ele>
        <time>2017-08-29T11:21:45Z</time>
      </trkpt>
      <trkpt lat="45.75602" lon="6.74269">
        <ele>2511.58</ele>
        <time>2017-08-29T11:21:57Z</time>
      </trkpt>
      <trkpt lat="45.75597" lon="6.74264">
        <ele>2514.95</ele>
        <time>2017-08-29T11:22:12Z</time>
      </trkpt>
      <trkpt lat="45.75595" lon="6.74269">
        <ele>2517.83</ele>
        <time>2017-08-29T11:22:25Z</time>
      </trkpt>
      <trkpt lat="45.75591" lon="6.74273">
        <ele>2521.19</ele>
        <time>2017-08-29T11:22:41Z</time>
      </trkpt>
      <trkpt lat="45.75588" lon="6.74278">
        <ele>2524.56</ele>
        <time>2017-08-29T11:22:57Z</time>
      </trkpt>
      <trkpt lat="45.75585" lon="6.74284">
        <ele>2527.44</ele>
        <time>2017-08-29T11:23:12Z</time>
      </trkpt>
      <trkpt lat="45.75581" lon="6.74284">
        <ele>2530.81</ele>
        <time>2017-08-29T11:23:27Z</time>
      </trkpt>
      <trkpt lat="45.75576" lon="6.7429">
        <ele>2533.69</ele>
        <time>2017-08-29T11:23:42Z</time>
      </trkpt>
      <trkpt lat="45.75573" lon="6.74297">
        <ele>2536.58</ele>
        <time>2017-08-29T11:23:57Z</time>
      </trkpt>
      <trkpt lat="45.75568" lon="6.74301">
        <ele>2539.94</ele>
        <time>2017-08-29T11:24:12Z</time>
      </trkpt>
      <trkpt lat="45.75565" lon="6.74304">
        <ele>2542.82</ele>
        <time>2017-08-29T11:24:25Z</time>
      </trkpt>
      <trkpt lat="45.75561" lon="6.74306">
        <ele>2546.19</ele>
        <time>2017-08-29T11:24:40Z</time>
      </trkpt>
      <trkpt lat="45.75558" lon="6.74312">
        <ele>2548.59</ele>
        <time>2017-08-29T11:24:56Z</time>
      </trkpt>
      <trkpt lat="45.75558" lon="6.74313">
        <ele>2549.07</ele>
        <time>2017-08-29T11:24:57Z</time>
      </trkpt>
      <trkpt lat="45.75554" lon="6.74314">
        <ele>2552.44</ele>
        <time>2017-08-29T11:25:12Z</time>
      </trkpt>
      <trkpt lat="45.75548" lon="6.74317">
        <ele>2555.8</ele>
        <time>2017-08-29T11:25:29Z</time>
      </trkpt>
      <trkpt lat="45.75546" lon="6.74317">
        <ele>2555.8</ele>
        <time>2017-08-29T11:25:30Z</time>
      </trkpt>
      <trkpt lat="45.75545" lon="6.74321">
        <ele>2557.24</ele>
        <time>2017-08-29T11:25:38Z</time>
      </trkpt>
      <trkpt lat="45.75547" lon="6.74329">
        <ele>2560.61</ele>
        <time>2017-08-29T11:25:54Z</time>
      </trkpt>
      <trkpt lat="45.75544" lon="6.7433">
        <ele>2562.05</ele>
        <time>2017-08-29T11:26:07Z</time>
      </trkpt>
      <trkpt lat="45.75543" lon="6.7433">
        <ele>2562.05</ele>
        <time>2017-08-29T11:26:08Z</time>
      </trkpt>
      <trkpt lat="45.75542" lon="6.7433">
        <ele>2562.05</ele>
        <time>2017-08-29T11:26:09Z</time>
      </trkpt>
      <trkpt lat="45.75541" lon="6.74329">
        <ele>2563.01</ele>
        <time>2017-08-29T11:26:13Z</time>
      </trkpt>
      <trkpt lat="45.75534" lon="6.74329">
        <ele>2566.38</ele>
        <time>2017-08-29T11:26:29Z</time>
      </trkpt>
      <trkpt lat="45.75537" lon="6.74335">
        <ele>2568.3</ele>
        <time>2017-08-29T11:26:37Z</time>
      </trkpt>
      <trkpt lat="45.75534" lon="6.74338">
        <ele>2571.18</ele>
        <time>2017-08-29T11:26:53Z</time>
      </trkpt>
      <trkpt lat="45.75531" lon="6.74336">
        <ele>2574.55</ele>
        <time>2017-08-29T11:27:05Z</time>
      </trkpt>
      <trkpt lat="45.75529" lon="6.7434">
        <ele>2577.43</ele>
        <time>2017-08-29T11:27:18Z</time>
      </trkpt>
      <trkpt lat="45.75525" lon="6.7434">
        <ele>2580.8</ele>
        <time>2017-08-29T11:27:32Z</time>
      </trkpt>
      <trkpt lat="45.75519" lon="6.74343">
        <ele>2583.68</ele>
        <time>2017-08-29T11:27:47Z</time>
      </trkpt>
      <trkpt lat="45.75513" lon="6.74346">
        <ele>2585.6</ele>
        <time>2017-08-29T11:28:01Z</time>
      </trkpt>
      <trkpt lat="45.75508" lon="6.74349">
        <ele>2588.97</ele>
        <time>2017-08-29T11:28:22Z</time>
      </trkpt>
      <trkpt lat="45.75506" lon="6.74345">
        <ele>2591.85</ele>
        <time>2017-08-29T11:28:35Z</time>
      </trkpt>
      <trkpt lat="45.75503" lon="6.74348">
        <ele>2595.22</ele>
        <time>2017-08-29T11:28:50Z</time>
      </trkpt>
      <trkpt lat="45.75496" lon="6.74353">
        <ele>2598.58</ele>
        <time>2017-08-29T11:29:05Z</time>
      </trkpt>
      <trkpt lat="45.75493" lon="6.74352">
        <ele>2601.46</ele>
        <time>2017-08-29T11:29:20Z</time>
      </trkpt>
      <trkpt lat="45.75488" lon="6.74351">
        <ele>2604.83</ele>
        <time>2017-08-29T11:29:34Z</time>
      </trkpt>
      <trkpt lat="45.75486" lon="6.74354">
        <ele>2607.71</ele>
        <time>2017-08-29T11:29:47Z</time>
      </trkpt>
      <trkpt lat="45.75483" lon="6.74358">
        <ele>2610.6</ele>
        <time>2017-08-29T11:30:03Z</time>
      </trkpt>
      <trkpt lat="45.75478" lon="6.74363">
        <ele>2613.96</ele>
        <time>2017-08-29T11:30:20Z</time>
      </trkpt>
      <trkpt lat="45.75476" lon="6.74366">
        <ele>2614.44</ele>
        <time>2017-08-29T11:30:23Z</time>
      </trkpt>
      <trkpt lat="45.75473" lon="6.74372">
        <ele>2617.81</ele>
        <time>2017-08-29T11:30:39Z</time>
      </trkpt>
      <trkpt lat="45.7547" lon="6.74371">
        <ele>2619.25</ele>
        <time>2017-08-29T11:30:52Z</time>
      </trkpt>
      <trkpt lat="45.75468" lon="6.74365">
        <ele>2622.61</ele>
        <time>2017-08-29T11:31:07Z</time>
      </trkpt>
      <trkpt lat="45.75465" lon="6.7436">
        <ele>2624.54</ele>
        <time>2017-08-29T11:31:18Z</time>
      </trkpt>
      <trkpt lat="45.75466" lon="6.74371">
        <ele>2627.42</ele>
        <time>2017-08-29T11:31:35Z</time>
      </trkpt>
      <trkpt lat="45.75466" lon="6.74372">
        <ele>2627.9</ele>
        <time>2017-08-29T11:31:36Z</time>
      </trkpt>
      <trkpt lat="45.75466" lon="6.74373">
        <ele>2627.9</ele>
        <time>2017-08-29T11:31:37Z</time>
      </trkpt>
      <trkpt lat="45.75466" lon="6.74374">
        <ele>2627.9</ele>
        <time>2017-08-29T11:31:38Z</time>
      </trkpt>
      <trkpt lat="45.75466" lon="6.74376">
        <ele>2627.9</ele>
        <time>2017-08-29T11:31:39Z</time>
      </trkpt>
      <trkpt lat="45.75466" lon="6.74378">
        <ele>2627.9</ele>
        <time>2017-08-29T11:31:40Z</time>
      </trkpt>
      <trkpt lat="45.75465" lon="6.74399">
        <ele>2630.79</ele>
        <time>2017-08-29T11:32:01Z</time>
      </trkpt>
      <trkpt lat="45.75466" lon="6.74407">
        <ele>2633.19</ele>
        <time>2017-08-29T11:32:12Z</time>
      </trkpt>
      <trkpt lat="45.75466" lon="6.74408">
        <ele>2633.19</ele>
        <time>2017-08-29T11:32:13Z</time>
      </trkpt>
      <trkpt lat="45.75466" lon="6.74417">
        <ele>2636.55</ele>
        <time>2017-08-29T11:32:25Z</time>
      </trkpt>
      <trkpt lat="45.75468" lon="6.74427">
        <ele>2639.44</ele>
        <time>2017-08-29T11:32:39Z</time>
      </trkpt>
      <trkpt lat="45.75471" lon="6.7443">
        <ele>2639.92</ele>
        <time>2017-08-29T11:32:43Z</time>
      </trkpt>
      <trkpt lat="45.75471" lon="6.74432">
        <ele>2639.92</ele>
        <time>2017-08-29T11:32:44Z</time>
      </trkpt>
      <trkpt lat="45.75472" lon="6.74433">
        <ele>2639.92</ele>
        <time>2017-08-29T11:32:45Z</time>
      </trkpt>
      <trkpt lat="45.75473" lon="6.74434">
        <ele>2639.92</ele>
        <time>2017-08-29T11:32:46Z</time>
      </trkpt>
      <trkpt lat="45.75473" lon="6.74435">
        <ele>2639.92</ele>
        <time>2017-08-29T11:32:47Z</time>
      </trkpt>
      <trkpt lat="45.75474" lon="6.74444">
        <ele>2642.8</ele>
        <time>2017-08-29T11:33:01Z</time>
      </trkpt>
      <trkpt lat="45.75474" lon="6.7445">
        <ele>2643.76</ele>
        <time>2017-08-29T11:33:08Z</time>
      </trkpt>
      <trkpt lat="45.75474" lon="6.74452">
        <ele>2643.76</ele>
        <time>2017-08-29T11:33:09Z</time>
      </trkpt>
      <trkpt lat="45.75476" lon="6.74462">
        <ele>2646.17</ele>
        <time>2017-08-29T11:33:19Z</time>
      </trkpt>
      <trkpt lat="45.75479" lon="6.74469">
        <ele>2647.61</ele>
        <time>2017-08-29T11:33:32Z</time>
      </trkpt>
      <trkpt lat="45.75479" lon="6.74469">
        <ele>2648.09</ele>
        <time>2017-08-29T11:33:39Z</time>
      </trkpt>
      <trkpt lat="45.7548" lon="6.74469">
        <ele>2647.61</ele>
        <time>2017-08-29T11:33:47Z</time>
      </trkpt>
      <trkpt lat="45.7548" lon="6.74469">
        <ele>2647.61</ele>
        <time>2017-08-29T11:33:51Z</time>
      </trkpt>
      <trkpt lat="45.7548" lon="6.74469">
        <ele>2647.13</ele>
        <time>2017-08-29T11:33:52Z</time>
      </trkpt>
      <trkpt lat="45.7548" lon="6.74469">
        <ele>2646.65</ele>
        <time>2017-08-29T11:33:54Z</time>
      </trkpt>
      <trkpt lat="45.7548" lon="6.74468">
        <ele>2646.17</ele>
        <time>2017-08-29T11:33:59Z</time>
      </trkpt>
      <trkpt lat="45.7548" lon="6.74468">
        <ele>2646.17</ele>
        <time>2017-08-29T11:34:02Z</time>
      </trkpt>
      <trkpt lat="45.75481" lon="6.74468">
        <ele>2645.69</ele>
        <time>2017-08-29T11:34:08Z</time>
      </trkpt>
      <trkpt lat="45.75481" lon="6.74468">
        <ele>2646.65</ele>
        <time>2017-08-29T11:34:13Z</time>
      </trkpt>
      <trkpt lat="45.75482" lon="6.74468">
        <ele>2646.65</ele>
        <time>2017-08-29T11:34:15Z</time>
      </trkpt>
      <trkpt lat="45.75481" lon="6.74467">
        <ele>2646.17</ele>
        <time>2017-08-29T11:34:24Z</time>
      </trkpt>
      <trkpt lat="45.75481" lon="6.74467">
        <ele>2646.65</ele>
        <time>2017-08-29T11:34:27Z</time>
      </trkpt>
      <trkpt lat="45.75481" lon="6.74468">
        <ele>2646.65</ele>
        <time>2017-08-29T11:34:31Z</time>
      </trkpt>
      <trkpt lat="45.7548" lon="6.74469">
        <ele>2646.65</ele>
        <time>2017-08-29T11:34:43Z</time>
      </trkpt>
      <trkpt lat="45.7548" lon="6.74469">
        <ele>2647.13</ele>
        <time>2017-08-29T11:34:55Z</time>
      </trkpt>
      <trkpt lat="45.7548" lon="6.74468">
        <ele>2647.13</ele>
        <time>2017-08-29T11:35:06Z</time>
      </trkpt>
      <trkpt lat="45.7548" lon="6.74468">
        <ele>2647.13</ele>
        <time>2017-08-29T11:35:12Z</time>
      </trkpt>
      <trkpt lat="45.7548" lon="6.74468">
        <ele>2646.65</ele>
        <time>2017-08-29T11:35:23Z</time>
      </trkpt>
      <trkpt lat="45.75481" lon="6.74468">
        <ele>2646.17</ele>
        <time>2017-08-29T11:35:35Z</time>
      </trkpt>
      <trkpt lat="45.75481" lon="6.74467">
        <ele>2646.65</ele>
        <time>2017-08-29T11:35:51Z</time>
      </trkpt>
      <trkpt lat="45.75481" lon="6.74466">
        <ele>2671.64</ele>
        <time>2017-08-29T11:35:52Z</time>
      </trkpt>
      <trkpt lat="45.75481" lon="6.74466">
        <ele>2671.64</ele>
        <time>2017-08-29T11:35:53Z</time>
      </trkpt>
      <trkpt lat="45.75481" lon="6.74466">
        <ele>2671.64</ele>
        <time>2017-08-29T11:36:02Z</time>
      </trkpt>
      <trkpt lat="45.75481" lon="6.74466">
        <ele>2671.64</ele>
        <time>2017-08-29T11:36:15Z</time>
      </trkpt>
      <trkpt lat="45.7548" lon="6.74466">
        <ele>2671.16</ele>
        <time>2017-08-29T11:36:40Z</time>
      </trkpt>
      <trkpt lat="45.75479" lon="6.74467">
        <ele>2671.64</ele>
        <time>2017-08-29T11:36:54Z</time>
      </trkpt>
      <trkpt lat="45.75479" lon="6.74467">
        <ele>2671.16</ele>
        <time>2017-08-29T11:36:58Z</time>
      </trkpt>
      <trkpt lat="45.7548" lon="6.74467">
        <ele>2671.16</ele>
        <time>2017-08-29T11:37:22Z</time>
      </trkpt>
      <trkpt lat="45.7548" lon="6.74466">
        <ele>2671.16</ele>
        <time>2017-08-29T11:37:41Z</time>
      </trkpt>
      <trkpt lat="45.75481" lon="6.74466">
        <ele>2671.16</ele>
        <time>2017-08-29T11:37:59Z</time>
      </trkpt>
      <trkpt lat="45.7548" lon="6.74467">
        <ele>2670.68</ele>
        <time>2017-08-29T11:38:08Z</time>
      </trkpt>
      <trkpt lat="45.7548" lon="6.74467">
        <ele>2671.16</ele>
        <time>2017-08-29T11:38:22Z</time>
      </trkpt>
      <trkpt lat="45.7548" lon="6.74467">
        <ele>2670.68</ele>
        <time>2017-08-29T11:38:40Z</time>
      </trkpt>
      <trkpt lat="45.7548" lon="6.74466">
        <ele>2670.68</ele>
        <time>2017-08-29T11:39:27Z</time>
      </trkpt>
      <trkpt lat="45.75481" lon="6.74466">
        <ele>2670.68</ele>
        <time>2017-08-29T11:39:45Z</time>
      </trkpt>
      <trkpt lat="45.75481" lon="6.74467">
        <ele>2670.68</ele>
        <time>2017-08-29T11:39:54Z</time>
      </trkpt>
      <trkpt lat="45.75481" lon="6.74467">
        <ele>2670.2</ele>
        <time>2017-08-29T11:40:01Z</time>
      </trkpt>
      <trkpt lat="45.7548" lon="6.74468">
        <ele>2672.12</ele>
        <time>2017-08-29T11:40:10Z</time>
      </trkpt>
      <trkpt lat="45.75481" lon="6.74467">
        <ele>2672.12</ele>
        <time>2017-08-29T11:40:13Z</time>
      </trkpt>
      <trkpt lat="45.7548" lon="6.74467">
        <ele>2671.16</ele>
        <time>2017-08-29T11:40:17Z</time>
      </trkpt>
      <trkpt lat="45.75479" lon="6.74467">
        <ele>2671.64</ele>
        <time>2017-08-29T11:40:31Z</time>
      </trkpt>
      <trkpt lat="45.7548" lon="6.74467">
        <ele>2671.16</ele>
        <time>2017-08-29T11:40:42Z</time>
      </trkpt>
      <trkpt lat="45.7548" lon="6.74465">
        <ele>2671.16</ele>
        <time>2017-08-29T11:41:35Z</time>
      </trkpt>
      <trkpt lat="45.7548" lon="6.74465">
        <ele>2671.16</ele>
        <time>2017-08-29T11:41:50Z</time>
      </trkpt>
      <trkpt lat="45.7548" lon="6.74464">
        <ele>2671.16</ele>
        <time>2017-08-29T11:42:04Z</time>
      </trkpt>
      <trkpt lat="45.7548" lon="6.74464">
        <ele>2671.16</ele>
        <time>2017-08-29T11:42:12Z</time>
      </trkpt>
      <trkpt lat="45.7548" lon="6.74464">
        <ele>2671.16</ele>
        <time>2017-08-29T11:42:25Z</time>
      </trkpt>
      <trkpt lat="45.75479" lon="6.74464">
        <ele>2671.64</ele>
        <time>2017-08-29T11:42:37Z</time>
      </trkpt>
      <trkpt lat="45.75479" lon="6.74464">
        <ele>2671.16</ele>
        <time>2017-08-29T11:42:46Z</time>
      </trkpt>
      <trkpt lat="45.75479" lon="6.74464">
        <ele>2671.16</ele>
        <time>2017-08-29T11:42:54Z</time>
      </trkpt>
      <trkpt lat="45.75479" lon="6.74464">
        <ele>2671.16</ele>
        <time>2017-08-29T11:43:21Z</time>
      </trkpt>
      <trkpt lat="45.75479" lon="6.74465">
        <ele>2671.16</ele>
        <time>2017-08-29T11:43:51Z</time>
      </trkpt>
      <trkpt lat="45.75479" lon="6.74465">
        <ele>2670.68</ele>
        <time>2017-08-29T11:43:57Z</time>
      </trkpt>
      <trkpt lat="45.75479" lon="6.74465">
        <ele>2671.16</ele>
        <time>2017-08-29T11:44:32Z</time>
      </trkpt>
      <trkpt lat="45.75478" lon="6.74465">
        <ele>2671.16</ele>
        <time>2017-08-29T11:44:38Z</time>
      </trkpt>
      <trkpt lat="45.75479" lon="6.74466">
        <ele>2671.64</ele>
        <time>2017-08-29T11:45:01Z</time>
      </trkpt>
      <trkpt lat="45.7548" lon="6.74466">
        <ele>2671.16</ele>
        <time>2017-08-29T11:45:19Z</time>
      </trkpt>
      <trkpt lat="45.7548" lon="6.74466">
        <ele>2671.16</ele>
        <time>2017-08-29T11:45:43Z</time>
      </trkpt>
      <trkpt lat="45.7548" lon="6.74467">
        <ele>2671.16</ele>
        <time>2017-08-29T11:45:58Z</time>
      </trkpt>
      <trkpt lat="45.7548" lon="6.74467">
        <ele>2671.16</ele>
        <time>2017-08-29T11:46:16Z</time>
      </trkpt>
      <trkpt lat="45.7548" lon="6.74467">
        <ele>2671.16</ele>
        <time>2017-08-29T11:46:28Z</time>
      </trkpt>
      <trkpt lat="45.7548" lon="6.74467">
        <ele>2671.16</ele>
        <time>2017-08-29T11:46:41Z</time>
      </trkpt>
      <trkpt lat="45.7548" lon="6.74466">
        <ele>2671.64</ele>
        <time>2017-08-29T11:47:13Z</time>
      </trkpt>
      <trkpt lat="45.7548" lon="6.74466">
        <ele>2671.64</ele>
        <time>2017-08-29T11:47:18Z</time>
      </trkpt>
      <trkpt lat="45.75479" lon="6.74463">
        <ele>2671.64</ele>
        <time>2017-08-29T11:48:13Z</time>
      </trkpt>
      <trkpt lat="45.75479" lon="6.74462">
        <ele>2671.64</ele>
        <time>2017-08-29T11:48:24Z</time>
      </trkpt>
      <trkpt lat="45.75479" lon="6.74463">
        <ele>2672.12</ele>
        <time>2017-08-29T11:48:34Z</time>
      </trkpt>
      <trkpt lat="45.75479" lon="6.74464">
        <ele>2672.12</ele>
        <time>2017-08-29T11:48:46Z</time>
      </trkpt>
      <trkpt lat="45.75479" lon="6.74463">
        <ele>2671.64</ele>
        <time>2017-08-29T11:48:56Z</time>
      </trkpt>
      <trkpt lat="45.75479" lon="6.74464">
        <ele>2672.12</ele>
        <time>2017-08-29T11:49:00Z</time>
      </trkpt>
      <trkpt lat="45.75479" lon="6.74464">
        <ele>2672.6</ele>
        <time>2017-08-29T11:49:08Z</time>
      </trkpt>
      <trkpt lat="45.7548" lon="6.74464">
        <ele>2672.12</ele>
        <time>2017-08-29T11:49:15Z</time>
      </trkpt>
      <trkpt lat="45.75481" lon="6.74466">
        <ele>2672.12</ele>
        <time>2017-08-29T11:49:20Z</time>
      </trkpt>
      <trkpt lat="45.75482" lon="6.74467">
        <ele>2671.64</ele>
        <time>2017-08-29T11:49:24Z</time>
      </trkpt>
      <trkpt lat="45.75482" lon="6.74467">
        <ele>2671.16</ele>
        <time>2017-08-29T11:49:31Z</time>
      </trkpt>
      <trkpt lat="45.7548" lon="6.74467">
        <ele>2671.16</ele>
        <time>2017-08-29T11:49:49Z</time>
      </trkpt>
      <trkpt lat="45.7548" lon="6.74468">
        <ele>2672.12</ele>
        <time>2017-08-29T11:50:02Z</time>
      </trkpt>
      <trkpt lat="45.7548" lon="6.74475">
        <ele>2671.16</ele>
        <time>2017-08-29T11:50:26Z</time>
      </trkpt>
      <trkpt lat="45.75479" lon="6.74478">
        <ele>2671.16</ele>
        <time>2017-08-29T11:50:27Z</time>
      </trkpt>
      <trkpt lat="45.75479" lon="6.7448">
        <ele>2670.68</ele>
        <time>2017-08-29T11:50:28Z</time>
      </trkpt>
      <trkpt lat="45.75479" lon="6.74483">
        <ele>2670.68</ele>
        <time>2017-08-29T11:50:29Z</time>
      </trkpt>
      <trkpt lat="45.7548" lon="6.74486">
        <ele>2670.2</ele>
        <time>2017-08-29T11:50:30Z</time>
      </trkpt>
      <trkpt lat="45.75481" lon="6.74488">
        <ele>2670.2</ele>
        <time>2017-08-29T11:50:31Z</time>
      </trkpt>
      <trkpt lat="45.75482" lon="6.74491">
        <ele>2670.2</ele>
        <time>2017-08-29T11:50:32Z</time>
      </trkpt>
      <trkpt lat="45.75482" lon="6.74495">
        <ele>2670.2</ele>
        <time>2017-08-29T11:50:34Z</time>
      </trkpt>
      <trkpt lat="45.75481" lon="6.74497">
        <ele>2669.72</ele>
        <time>2017-08-29T11:50:36Z</time>
      </trkpt>
      <trkpt lat="45.75481" lon="6.74499">
        <ele>2669.24</ele>
        <time>2017-08-29T11:50:37Z</time>
      </trkpt>
      <trkpt lat="45.75481" lon="6.74501">
        <ele>2669.24</ele>
        <time>2017-08-29T11:50:38Z</time>
      </trkpt>
      <trkpt lat="45.75481" lon="6.74504">
        <ele>2668.76</ele>
        <time>2017-08-29T11:50:39Z</time>
      </trkpt>
      <trkpt lat="45.75481" lon="6.74506">
        <ele>2668.76</ele>
        <time>2017-08-29T11:50:40Z</time>
      </trkpt>
      <trkpt lat="45.75481" lon="6.74512">
        <ele>2667.8</ele>
        <time>2017-08-29T11:50:42Z</time>
      </trkpt>
      <trkpt lat="45.75479" lon="6.74514">
        <ele>2666.83</ele>
        <time>2017-08-29T11:50:43Z</time>
      </trkpt>
      <trkpt lat="45.75478" lon="6.74514">
        <ele>2665.87</ele>
        <time>2017-08-29T11:50:44Z</time>
      </trkpt>
      <trkpt lat="45.75476" lon="6.74513">
        <ele>2665.39</ele>
        <time>2017-08-29T11:50:45Z</time>
      </trkpt>
      <trkpt lat="45.75474" lon="6.74511">
        <ele>2664.43</ele>
        <time>2017-08-29T11:50:46Z</time>
      </trkpt>
      <trkpt lat="45.75472" lon="6.7451">
        <ele>2664.43</ele>
        <time>2017-08-29T11:50:47Z</time>
      </trkpt>
      <trkpt lat="45.75471" lon="6.74509">
        <ele>2663.95</ele>
        <time>2017-08-29T11:50:48Z</time>
      </trkpt>
      <trkpt lat="45.75468" lon="6.74508">
        <ele>2662.99</ele>
        <time>2017-08-29T11:50:50Z</time>
      </trkpt>
      <trkpt lat="45.75467" lon="6.74508">
        <ele>2662.03</ele>
        <time>2017-08-29T11:50:51Z</time>
      </trkpt>
      <trkpt lat="45.75467" lon="6.7451">
        <ele>2662.03</ele>
        <time>2017-08-29T11:50:52Z</time>
      </trkpt>
      <trkpt lat="45.75467" lon="6.74512">
        <ele>2661.55</ele>
        <time>2017-08-29T11:50:53Z</time>
      </trkpt>
      <trkpt lat="45.75467" lon="6.74514">
        <ele>2661.07</ele>
        <time>2017-08-29T11:50:54Z</time>
      </trkpt>
      <trkpt lat="45.75467" lon="6.74516">
        <ele>2660.59</ele>
        <time>2017-08-29T11:50:55Z</time>
      </trkpt>
      <trkpt lat="45.75467" lon="6.74518">
        <ele>2659.62</ele>
        <time>2017-08-29T11:50:56Z</time>
      </trkpt>
      <trkpt lat="45.75467" lon="6.7452">
        <ele>2659.14</ele>
        <time>2017-08-29T11:50:57Z</time>
      </trkpt>
      <trkpt lat="45.75467" lon="6.74522">
        <ele>2658.18</ele>
        <time>2017-08-29T11:50:58Z</time>
      </trkpt>
      <trkpt lat="45.75467" lon="6.74524">
        <ele>2657.22</ele>
        <time>2017-08-29T11:50:59Z</time>
      </trkpt>
      <trkpt lat="45.75466" lon="6.74526">
        <ele>2656.74</ele>
        <time>2017-08-29T11:51:00Z</time>
      </trkpt>
      <trkpt lat="45.75466" lon="6.74528">
        <ele>2655.78</ele>
        <time>2017-08-29T11:51:01Z</time>
      </trkpt>
      <trkpt lat="45.75465" lon="6.7453">
        <ele>2655.3</ele>
        <time>2017-08-29T11:51:02Z</time>
      </trkpt>
      <trkpt lat="45.75465" lon="6.74533">
        <ele>2654.82</ele>
        <time>2017-08-29T11:51:03Z</time>
      </trkpt>
      <trkpt lat="45.75465" lon="6.74535">
        <ele>2653.86</ele>
        <time>2017-08-29T11:51:04Z</time>
      </trkpt>
      <trkpt lat="45.75465" lon="6.74538">
        <ele>2652.9</ele>
        <time>2017-08-29T11:51:05Z</time>
      </trkpt>
      <trkpt lat="45.75465" lon="6.7454">
        <ele>2652.42</ele>
        <time>2017-08-29T11:51:06Z</time>
      </trkpt>
      <trkpt lat="45.75464" lon="6.74546">
        <ele>2650.49</ele>
        <time>2017-08-29T11:51:09Z</time>
      </trkpt>
      <trkpt lat="45.75463" lon="6.74547">
        <ele>2649.53</ele>
        <time>2017-08-29T11:51:13Z</time>
      </trkpt>
      <trkpt lat="45.75462" lon="6.74544">
        <ele>2649.53</ele>
        <time>2017-08-29T11:51:18Z</time>
      </trkpt>
      <trkpt lat="45.7546" lon="6.74542">
        <ele>2649.05</ele>
        <time>2017-08-29T11:51:19Z</time>
      </trkpt>
      <trkpt lat="45.75459" lon="6.7454">
        <ele>2648.57</ele>
        <time>2017-08-29T11:51:20Z</time>
      </trkpt>
      <trkpt lat="45.75457" lon="6.74539">
        <ele>2648.09</ele>
        <time>2017-08-29T11:51:21Z</time>
      </trkpt>
      <trkpt lat="45.75456" lon="6.74541">
        <ele>2648.09</ele>
        <time>2017-08-29T11:51:22Z</time>
      </trkpt>
      <trkpt lat="45.75456" lon="6.74544">
        <ele>2647.61</ele>
        <time>2017-08-29T11:51:23Z</time>
      </trkpt>
      <trkpt lat="45.75456" lon="6.74547">
        <ele>2647.13</ele>
        <time>2017-08-29T11:51:24Z</time>
      </trkpt>
      <trkpt lat="45.75455" lon="6.74551">
        <ele>2646.17</ele>
        <time>2017-08-29T11:51:25Z</time>
      </trkpt>
      <trkpt lat="45.75457" lon="6.74564">
        <ele>2643.28</ele>
        <time>2017-08-29T11:51:29Z</time>
      </trkpt>
      <trkpt lat="45.75459" lon="6.74581">
        <ele>2639.92</ele>
        <time>2017-08-29T11:51:36Z</time>
      </trkpt>
      <trkpt lat="45.75455" lon="6.74597">
        <ele>2637.99</ele>
        <time>2017-08-29T11:51:47Z</time>
      </trkpt>
      <trkpt lat="45.75454" lon="6.74599">
        <ele>2638.48</ele>
        <time>2017-08-29T11:51:48Z</time>
      </trkpt>
      <trkpt lat="45.75453" lon="6.74601">
        <ele>2638.48</ele>
        <time>2017-08-29T11:51:49Z</time>
      </trkpt>
      <trkpt lat="45.75452" lon="6.74602">
        <ele>2638.48</ele>
        <time>2017-08-29T11:51:50Z</time>
      </trkpt>
      <trkpt lat="45.75451" lon="6.74604">
        <ele>2637.99</ele>
        <time>2017-08-29T11:51:51Z</time>
      </trkpt>
      <trkpt lat="45.75452" lon="6.74606">
        <ele>2637.99</ele>
        <time>2017-08-29T11:51:52Z</time>
      </trkpt>
      <trkpt lat="45.75452" lon="6.74607">
        <ele>2637.99</ele>
        <time>2017-08-29T11:51:53Z</time>
      </trkpt>
      <trkpt lat="45.75453" lon="6.74609">
        <ele>2638.48</ele>
        <time>2017-08-29T11:51:54Z</time>
      </trkpt>
      <trkpt lat="45.75452" lon="6.7461">
        <ele>2638.96</ele>
        <time>2017-08-29T11:51:55Z</time>
      </trkpt>
      <trkpt lat="45.75445" lon="6.74627">
        <ele>2635.59</ele>
        <time>2017-08-29T11:52:11Z</time>
      </trkpt>
      <trkpt lat="45.75441" lon="6.74635">
        <ele>2634.63</ele>
        <time>2017-08-29T11:52:20Z</time>
      </trkpt>
      <trkpt lat="45.75437" lon="6.74641">
        <ele>2634.63</ele>
        <time>2017-08-29T11:52:26Z</time>
      </trkpt>
      <trkpt lat="45.75434" lon="6.74641">
        <ele>2634.15</ele>
        <time>2017-08-29T11:52:31Z</time>
      </trkpt>
      <trkpt lat="45.75433" lon="6.7464">
        <ele>2633.19</ele>
        <time>2017-08-29T11:52:32Z</time>
      </trkpt>
      <trkpt lat="45.75433" lon="6.74639">
        <ele>2632.71</ele>
        <time>2017-08-29T11:52:33Z</time>
      </trkpt>
      <trkpt lat="45.75432" lon="6.7464">
        <ele>2632.23</ele>
        <time>2017-08-29T11:52:34Z</time>
      </trkpt>
      <trkpt lat="45.7543" lon="6.7464">
        <ele>2632.23</ele>
        <time>2017-08-29T11:52:35Z</time>
      </trkpt>
      <trkpt lat="45.75429" lon="6.74639">
        <ele>2631.27</ele>
        <time>2017-08-29T11:52:36Z</time>
      </trkpt>
      <trkpt lat="45.75428" lon="6.74639">
        <ele>2630.79</ele>
        <time>2017-08-29T11:52:37Z</time>
      </trkpt>
      <trkpt lat="45.75425" lon="6.74645">
        <ele>2629.82</ele>
        <time>2017-08-29T11:52:39Z</time>
      </trkpt>
      <trkpt lat="45.75424" lon="6.74647">
        <ele>2629.82</ele>
        <time>2017-08-29T11:52:40Z</time>
      </trkpt>
      <trkpt lat="45.75419" lon="6.74665">
        <ele>2627.9</ele>
        <time>2017-08-29T11:52:45Z</time>
      </trkpt>
      <trkpt lat="45.75413" lon="6.74691">
        <ele>2625.5</ele>
        <time>2017-08-29T11:52:54Z</time>
      </trkpt>
      <trkpt lat="45.75413" lon="6.74693">
        <ele>2625.02</ele>
        <time>2017-08-29T11:52:55Z</time>
      </trkpt>
      <trkpt lat="45.75411" lon="6.74695">
        <ele>2624.06</ele>
        <time>2017-08-29T11:52:56Z</time>
      </trkpt>
      <trkpt lat="45.7541" lon="6.74694">
        <ele>2623.58</ele>
        <time>2017-08-29T11:52:57Z</time>
      </trkpt>
      <trkpt lat="45.75409" lon="6.74693">
        <ele>2623.58</ele>
        <time>2017-08-29T11:52:58Z</time>
      </trkpt>
      <trkpt lat="45.75408" lon="6.74692">
        <ele>2623.58</ele>
        <time>2017-08-29T11:52:59Z</time>
      </trkpt>
      <trkpt lat="45.75407" lon="6.74691">
        <ele>2623.09</ele>
        <time>2017-08-29T11:53:00Z</time>
      </trkpt>
      <trkpt lat="45.75406" lon="6.7469">
        <ele>2623.09</ele>
        <time>2017-08-29T11:53:01Z</time>
      </trkpt>
      <trkpt lat="45.75405" lon="6.7469">
        <ele>2622.61</ele>
        <time>2017-08-29T11:53:02Z</time>
      </trkpt>
      <trkpt lat="45.75404" lon="6.74688">
        <ele>2622.61</ele>
        <time>2017-08-29T11:53:03Z</time>
      </trkpt>
      <trkpt lat="45.75402" lon="6.74688">
        <ele>2621.65</ele>
        <time>2017-08-29T11:53:04Z</time>
      </trkpt>
      <trkpt lat="45.75401" lon="6.74688">
        <ele>2621.17</ele>
        <time>2017-08-29T11:53:05Z</time>
      </trkpt>
      <trkpt lat="45.754" lon="6.74687">
        <ele>2620.21</ele>
        <time>2017-08-29T11:53:06Z</time>
      </trkpt>
      <trkpt lat="45.754" lon="6.74688">
        <ele>2620.21</ele>
        <time>2017-08-29T11:53:07Z</time>
      </trkpt>
      <trkpt lat="45.75399" lon="6.7469">
        <ele>2619.73</ele>
        <time>2017-08-29T11:53:08Z</time>
      </trkpt>
      <trkpt lat="45.75399" lon="6.74692">
        <ele>2619.25</ele>
        <time>2017-08-29T11:53:09Z</time>
      </trkpt>
      <trkpt lat="45.75402" lon="6.74694">
        <ele>2618.77</ele>
        <time>2017-08-29T11:53:21Z</time>
      </trkpt>
      <trkpt lat="45.75398" lon="6.74696">
        <ele>2618.29</ele>
        <time>2017-08-29T11:53:24Z</time>
      </trkpt>
      <trkpt lat="45.75397" lon="6.74699">
        <ele>2617.33</ele>
        <time>2017-08-29T11:53:27Z</time>
      </trkpt>
      <trkpt lat="45.75397" lon="6.747">
        <ele>2616.85</ele>
        <time>2017-08-29T11:53:28Z</time>
      </trkpt>
      <trkpt lat="45.75388" lon="6.74708">
        <ele>2614.44</ele>
        <time>2017-08-29T11:53:33Z</time>
      </trkpt>
      <trkpt lat="45.75385" lon="6.74709">
        <ele>2614.44</ele>
        <time>2017-08-29T11:53:34Z</time>
      </trkpt>
      <trkpt lat="45.75383" lon="6.74711">
        <ele>2614.44</ele>
        <time>2017-08-29T11:53:35Z</time>
      </trkpt>
      <trkpt lat="45.75375" lon="6.74716">
        <ele>2612.52</ele>
        <time>2017-08-29T11:53:38Z</time>
      </trkpt>
      <trkpt lat="45.75371" lon="6.74719">
        <ele>2612.04</ele>
        <time>2017-08-29T11:53:40Z</time>
      </trkpt>
      <trkpt lat="45.7537" lon="6.74722">
        <ele>2612.04</ele>
        <time>2017-08-29T11:53:41Z</time>
      </trkpt>
      <trkpt lat="45.75365" lon="6.74737">
        <ele>2613</ele>
        <time>2017-08-29T11:53:47Z</time>
      </trkpt>
      <trkpt lat="45.75362" lon="6.74755">
        <ele>2615.4</ele>
        <time>2017-08-29T11:53:55Z</time>
      </trkpt>
      <trkpt lat="45.75359" lon="6.74765">
        <ele>2615.88</ele>
        <time>2017-08-29T11:54:00Z</time>
      </trkpt>
      <trkpt lat="45.75347" lon="6.74779">
        <ele>2615.88</ele>
        <time>2017-08-29T11:54:08Z</time>
      </trkpt>
      <trkpt lat="45.75332" lon="6.74798">
        <ele>2616.37</ele>
        <time>2017-08-29T11:54:18Z</time>
      </trkpt>
      <trkpt lat="45.75321" lon="6.74816">
        <ele>2616.37</ele>
        <time>2017-08-29T11:54:27Z</time>
      </trkpt>
      <trkpt lat="45.7532" lon="6.74819">
        <ele>2616.37</ele>
        <time>2017-08-29T11:54:28Z</time>
      </trkpt>
      <trkpt lat="45.75319" lon="6.74821">
        <ele>2615.88</ele>
        <time>2017-08-29T11:54:29Z</time>
      </trkpt>
      <trkpt lat="45.75319" lon="6.74823">
        <ele>2615.88</ele>
        <time>2017-08-29T11:54:30Z</time>
      </trkpt>
      <trkpt lat="45.75309" lon="6.74841">
        <ele>2612.52</ele>
        <time>2017-08-29T11:54:39Z</time>
      </trkpt>
      <trkpt lat="45.75307" lon="6.74847">
        <ele>2612.04</ele>
        <time>2017-08-29T11:54:42Z</time>
      </trkpt>
      <trkpt lat="45.75307" lon="6.7485">
        <ele>2612.04</ele>
        <time>2017-08-29T11:54:43Z</time>
      </trkpt>
      <trkpt lat="45.75307" lon="6.74852">
        <ele>2611.56</ele>
        <time>2017-08-29T11:54:44Z</time>
      </trkpt>
      <trkpt lat="45.75307" lon="6.74854">
        <ele>2611.08</ele>
        <time>2017-08-29T11:54:45Z</time>
      </trkpt>
      <trkpt lat="45.75307" lon="6.74855">
        <ele>2611.08</ele>
        <time>2017-08-29T11:54:53Z</time>
      </trkpt>
      <trkpt lat="45.75306" lon="6.74855">
        <ele>2611.08</ele>
        <time>2017-08-29T11:54:57Z</time>
      </trkpt>
      <trkpt lat="45.75306" lon="6.74855">
        <ele>2611.08</ele>
        <time>2017-08-29T11:55:02Z</time>
      </trkpt>
      <trkpt lat="45.75306" lon="6.74854">
        <ele>2611.08</ele>
        <time>2017-08-29T11:55:06Z</time>
      </trkpt>
      <trkpt lat="45.75305" lon="6.74854">
        <ele>2611.08</ele>
        <time>2017-08-29T11:55:10Z</time>
      </trkpt>
      <trkpt lat="45.75305" lon="6.74854">
        <ele>2611.08</ele>
        <time>2017-08-29T11:55:14Z</time>
      </trkpt>
      <trkpt lat="45.75306" lon="6.74857">
        <ele>2610.6</ele>
        <time>2017-08-29T11:55:19Z</time>
      </trkpt>
      <trkpt lat="45.75305" lon="6.74862">
        <ele>2609.64</ele>
        <time>2017-08-29T11:55:24Z</time>
      </trkpt>
      <trkpt lat="45.75303" lon="6.74862">
        <ele>2609.16</ele>
        <time>2017-08-29T11:55:25Z</time>
      </trkpt>
      <trkpt lat="45.75302" lon="6.74863">
        <ele>2608.67</ele>
        <time>2017-08-29T11:55:26Z</time>
      </trkpt>
      <trkpt lat="45.75299" lon="6.74866">
        <ele>2608.19</ele>
        <time>2017-08-29T11:55:28Z</time>
      </trkpt>
      <trkpt lat="45.75299" lon="6.74867">
        <ele>2607.23</ele>
        <time>2017-08-29T11:55:29Z</time>
      </trkpt>
      <trkpt lat="45.75299" lon="6.74869">
        <ele>2607.23</ele>
        <time>2017-08-29T11:55:30Z</time>
      </trkpt>
      <trkpt lat="45.75299" lon="6.74871">
        <ele>2606.75</ele>
        <time>2017-08-29T11:55:31Z</time>
      </trkpt>
      <trkpt lat="45.75299" lon="6.74873">
        <ele>2606.27</ele>
        <time>2017-08-29T11:55:32Z</time>
      </trkpt>
      <trkpt lat="45.753" lon="6.74875">
        <ele>2605.79</ele>
        <time>2017-08-29T11:55:33Z</time>
      </trkpt>
      <trkpt lat="45.75301" lon="6.74876">
        <ele>2605.31</ele>
        <time>2017-08-29T11:55:34Z</time>
      </trkpt>
      <trkpt lat="45.75302" lon="6.74878">
        <ele>2605.31</ele>
        <time>2017-08-29T11:55:35Z</time>
      </trkpt>
      <trkpt lat="45.75302" lon="6.7488">
        <ele>2604.83</ele>
        <time>2017-08-29T11:55:36Z</time>
      </trkpt>
      <trkpt lat="45.75302" lon="6.74881">
        <ele>2604.83</ele>
        <time>2017-08-29T11:55:37Z</time>
      </trkpt>
      <trkpt lat="45.75301" lon="6.74883">
        <ele>2603.87</ele>
        <time>2017-08-29T11:55:38Z</time>
      </trkpt>
      <trkpt lat="45.753" lon="6.74883">
        <ele>2603.39</ele>
        <time>2017-08-29T11:55:39Z</time>
      </trkpt>
      <trkpt lat="45.75298" lon="6.74883">
        <ele>2602.91</ele>
        <time>2017-08-29T11:55:40Z</time>
      </trkpt>
      <trkpt lat="45.75297" lon="6.74883">
        <ele>2602.91</ele>
        <time>2017-08-29T11:55:41Z</time>
      </trkpt>
      <trkpt lat="45.75296" lon="6.74884">
        <ele>2602.43</ele>
        <time>2017-08-29T11:55:42Z</time>
      </trkpt>
      <trkpt lat="45.75295" lon="6.74885">
        <ele>2601.95</ele>
        <time>2017-08-29T11:55:43Z</time>
      </trkpt>
      <trkpt lat="45.75294" lon="6.74886">
        <ele>2601.46</ele>
        <time>2017-08-29T11:55:44Z</time>
      </trkpt>
      <trkpt lat="45.75294" lon="6.74888">
        <ele>2600.98</ele>
        <time>2017-08-29T11:55:45Z</time>
      </trkpt>
      <trkpt lat="45.75293" lon="6.74891">
        <ele>2600.02</ele>
        <time>2017-08-29T11:55:46Z</time>
      </trkpt>
      <trkpt lat="45.75293" lon="6.74892">
        <ele>2600.02</ele>
        <time>2017-08-29T11:55:47Z</time>
      </trkpt>
      <trkpt lat="45.75292" lon="6.74893">
        <ele>2599.54</ele>
        <time>2017-08-29T11:55:48Z</time>
      </trkpt>
      <trkpt lat="45.75288" lon="6.74897">
        <ele>2597.62</ele>
        <time>2017-08-29T11:55:53Z</time>
      </trkpt>
      <trkpt lat="45.75288" lon="6.74901">
        <ele>2596.66</ele>
        <time>2017-08-29T11:55:55Z</time>
      </trkpt>
      <trkpt lat="45.75288" lon="6.74902">
        <ele>2596.18</ele>
        <time>2017-08-29T11:55:56Z</time>
      </trkpt>
      <trkpt lat="45.75287" lon="6.74904">
        <ele>2596.18</ele>
        <time>2017-08-29T11:55:57Z</time>
      </trkpt>
      <trkpt lat="45.75285" lon="6.74905">
        <ele>2595.7</ele>
        <time>2017-08-29T11:55:58Z</time>
      </trkpt>
      <trkpt lat="45.75284" lon="6.74905">
        <ele>2595.22</ele>
        <time>2017-08-29T11:55:59Z</time>
      </trkpt>
      <trkpt lat="45.75283" lon="6.74906">
        <ele>2594.25</ele>
        <time>2017-08-29T11:56:00Z</time>
      </trkpt>
      <trkpt lat="45.75282" lon="6.74908">
        <ele>2593.77</ele>
        <time>2017-08-29T11:56:01Z</time>
      </trkpt>
      <trkpt lat="45.75281" lon="6.7491">
        <ele>2593.29</ele>
        <time>2017-08-29T11:56:02Z</time>
      </trkpt>
      <trkpt lat="45.7528" lon="6.74911">
        <ele>2593.29</ele>
        <time>2017-08-29T11:56:03Z</time>
      </trkpt>
      <trkpt lat="45.75278" lon="6.74912">
        <ele>2592.81</ele>
        <time>2017-08-29T11:56:04Z</time>
      </trkpt>
      <trkpt lat="45.75276" lon="6.74912">
        <ele>2592.33</ele>
        <time>2017-08-29T11:56:07Z</time>
      </trkpt>
      <trkpt lat="45.75274" lon="6.74912">
        <ele>2592.33</ele>
        <time>2017-08-29T11:56:08Z</time>
      </trkpt>
      <trkpt lat="45.75273" lon="6.74912">
        <ele>2592.33</ele>
        <time>2017-08-29T11:56:09Z</time>
      </trkpt>
      <trkpt lat="45.75273" lon="6.74914">
        <ele>2591.85</ele>
        <time>2017-08-29T11:56:10Z</time>
      </trkpt>
      <trkpt lat="45.75272" lon="6.74916">
        <ele>2591.37</ele>
        <time>2017-08-29T11:56:11Z</time>
      </trkpt>
      <trkpt lat="45.75271" lon="6.74917">
        <ele>2590.89</ele>
        <time>2017-08-29T11:56:12Z</time>
      </trkpt>
      <trkpt lat="45.7527" lon="6.74919">
        <ele>2590.89</ele>
        <time>2017-08-29T11:56:13Z</time>
      </trkpt>
      <trkpt lat="45.7527" lon="6.7492">
        <ele>2590.41</ele>
        <time>2017-08-29T11:56:14Z</time>
      </trkpt>
      <trkpt lat="45.7527" lon="6.74921">
        <ele>2589.93</ele>
        <time>2017-08-29T11:56:15Z</time>
      </trkpt>
      <trkpt lat="45.75269" lon="6.74922">
        <ele>2589.93</ele>
        <time>2017-08-29T11:56:16Z</time>
      </trkpt>
      <trkpt lat="45.75268" lon="6.74924">
        <ele>2589.93</ele>
        <time>2017-08-29T11:56:17Z</time>
      </trkpt>
      <trkpt lat="45.75267" lon="6.74925">
        <ele>2589.45</ele>
        <time>2017-08-29T11:56:18Z</time>
      </trkpt>
      <trkpt lat="45.75266" lon="6.74926">
        <ele>2589.45</ele>
        <time>2017-08-29T11:56:19Z</time>
      </trkpt>
      <trkpt lat="45.75265" lon="6.74928">
        <ele>2588.97</ele>
        <time>2017-08-29T11:56:20Z</time>
      </trkpt>
      <trkpt lat="45.75263" lon="6.7493">
        <ele>2588.97</ele>
        <time>2017-08-29T11:56:21Z</time>
      </trkpt>
      <trkpt lat="45.75262" lon="6.74931">
        <ele>2588.49</ele>
        <time>2017-08-29T11:56:22Z</time>
      </trkpt>
      <trkpt lat="45.7526" lon="6.74931">
        <ele>2588.01</ele>
        <time>2017-08-29T11:56:23Z</time>
      </trkpt>
      <trkpt lat="45.75259" lon="6.74931">
        <ele>2587.53</ele>
        <time>2017-08-29T11:56:24Z</time>
      </trkpt>
      <trkpt lat="45.75258" lon="6.74931">
        <ele>2587.04</ele>
        <time>2017-08-29T11:56:25Z</time>
      </trkpt>
      <trkpt lat="45.75257" lon="6.74932">
        <ele>2587.04</ele>
        <time>2017-08-29T11:56:26Z</time>
      </trkpt>
      <trkpt lat="45.75256" lon="6.74933">
        <ele>2586.56</ele>
        <time>2017-08-29T11:56:27Z</time>
      </trkpt>
      <trkpt lat="45.75255" lon="6.74934">
        <ele>2586.56</ele>
        <time>2017-08-29T11:56:28Z</time>
      </trkpt>
      <trkpt lat="45.75254" lon="6.74934">
        <ele>2586.08</ele>
        <time>2017-08-29T11:56:29Z</time>
      </trkpt>
      <trkpt lat="45.75254" lon="6.74934">
        <ele>2586.08</ele>
        <time>2017-08-29T11:56:30Z</time>
      </trkpt>
      <trkpt lat="45.75253" lon="6.74933">
        <ele>2586.08</ele>
        <time>2017-08-29T11:56:31Z</time>
      </trkpt>
      <trkpt lat="45.7525" lon="6.74934">
        <ele>2584.64</ele>
        <time>2017-08-29T11:56:35Z</time>
      </trkpt>
      <trkpt lat="45.75249" lon="6.74934">
        <ele>2584.16</ele>
        <time>2017-08-29T11:56:36Z</time>
      </trkpt>
      <trkpt lat="45.75248" lon="6.74934">
        <ele>2584.16</ele>
        <time>2017-08-29T11:56:37Z</time>
      </trkpt>
      <trkpt lat="45.75247" lon="6.74935">
        <ele>2583.2</ele>
        <time>2017-08-29T11:56:38Z</time>
      </trkpt>
      <trkpt lat="45.75246" lon="6.74937">
        <ele>2582.72</ele>
        <time>2017-08-29T11:56:39Z</time>
      </trkpt>
      <trkpt lat="45.75245" lon="6.7494">
        <ele>2582.24</ele>
        <time>2017-08-29T11:56:40Z</time>
      </trkpt>
      <trkpt lat="45.75245" lon="6.74943">
        <ele>2582.24</ele>
        <time>2017-08-29T11:56:41Z</time>
      </trkpt>
      <trkpt lat="45.75244" lon="6.74946">
        <ele>2581.76</ele>
        <time>2017-08-29T11:56:42Z</time>
      </trkpt>
      <trkpt lat="45.75244" lon="6.74957">
        <ele>2579.84</ele>
        <time>2017-08-29T11:56:46Z</time>
      </trkpt>
      <trkpt lat="45.75243" lon="6.74959">
        <ele>2579.84</ele>
        <time>2017-08-29T11:56:47Z</time>
      </trkpt>
      <trkpt lat="45.75242" lon="6.74961">
        <ele>2579.35</ele>
        <time>2017-08-29T11:56:48Z</time>
      </trkpt>
      <trkpt lat="45.75241" lon="6.74963">
        <ele>2578.87</ele>
        <time>2017-08-29T11:56:49Z</time>
      </trkpt>
      <trkpt lat="45.7524" lon="6.74964">
        <ele>2578.39</ele>
        <time>2017-08-29T11:56:50Z</time>
      </trkpt>
      <trkpt lat="45.7524" lon="6.74966">
        <ele>2578.39</ele>
        <time>2017-08-29T11:56:51Z</time>
      </trkpt>
      <trkpt lat="45.75241" lon="6.74967">
        <ele>2577.91</ele>
        <time>2017-08-29T11:56:52Z</time>
      </trkpt>
      <trkpt lat="45.75241" lon="6.74968">
        <ele>2577.43</ele>
        <time>2017-08-29T11:56:53Z</time>
      </trkpt>
      <trkpt lat="45.75241" lon="6.7497">
        <ele>2577.43</ele>
        <time>2017-08-29T11:56:54Z</time>
      </trkpt>
      <trkpt lat="45.7524" lon="6.74973">
        <ele>2575.99</ele>
        <time>2017-08-29T11:56:57Z</time>
      </trkpt>
      <trkpt lat="45.75238" lon="6.74973">
        <ele>2575.99</ele>
        <time>2017-08-29T11:56:58Z</time>
      </trkpt>
      <trkpt lat="45.75236" lon="6.74974">
        <ele>2575.03</ele>
        <time>2017-08-29T11:56:59Z</time>
      </trkpt>
      <trkpt lat="45.75235" lon="6.74974">
        <ele>2574.55</ele>
        <time>2017-08-29T11:57:00Z</time>
      </trkpt>
      <trkpt lat="45.75233" lon="6.74975">
        <ele>2574.07</ele>
        <time>2017-08-29T11:57:01Z</time>
      </trkpt>
      <trkpt lat="45.75231" lon="6.74976">
        <ele>2573.59</ele>
        <time>2017-08-29T11:57:02Z</time>
      </trkpt>
      <trkpt lat="45.7523" lon="6.74977">
        <ele>2573.59</ele>
        <time>2017-08-29T11:57:03Z</time>
      </trkpt>
      <trkpt lat="45.75224" lon="6.74984">
        <ele>2570.7</ele>
        <time>2017-08-29T11:57:09Z</time>
      </trkpt>
      <trkpt lat="45.75222" lon="6.74986">
        <ele>2569.26</ele>
        <time>2017-08-29T11:57:11Z</time>
      </trkpt>
      <trkpt lat="45.75221" lon="6.74987">
        <ele>2568.78</ele>
        <time>2017-08-29T11:57:12Z</time>
      </trkpt>
      <trkpt lat="45.75219" lon="6.74987">
        <ele>2568.78</ele>
        <time>2017-08-29T11:57:13Z</time>
      </trkpt>
      <trkpt lat="45.75215" lon="6.74989">
        <ele>2566.86</ele>
        <time>2017-08-29T11:57:17Z</time>
      </trkpt>
      <trkpt lat="45.75215" lon="6.7499">
        <ele>2566.38</ele>
        <time>2017-08-29T11:57:18Z</time>
      </trkpt>
      <trkpt lat="45.75215" lon="6.74992">
        <ele>2565.9</ele>
        <time>2017-08-29T11:57:19Z</time>
      </trkpt>
      <trkpt lat="45.75215" lon="6.74994">
        <ele>2565.42</ele>
        <time>2017-08-29T11:57:20Z</time>
      </trkpt>
      <trkpt lat="45.75215" lon="6.74996">
        <ele>2565.42</ele>
        <time>2017-08-29T11:57:21Z</time>
      </trkpt>
      <trkpt lat="45.75215" lon="6.74997">
        <ele>2564.93</ele>
        <time>2017-08-29T11:57:22Z</time>
      </trkpt>
      <trkpt lat="45.75214" lon="6.75">
        <ele>2563.97</ele>
        <time>2017-08-29T11:57:29Z</time>
      </trkpt>
      <trkpt lat="45.75214" lon="6.75002">
        <ele>2563.49</ele>
        <time>2017-08-29T11:57:30Z</time>
      </trkpt>
      <trkpt lat="45.75212" lon="6.75007">
        <ele>2562.05</ele>
        <time>2017-08-29T11:57:33Z</time>
      </trkpt>
      <trkpt lat="45.75211" lon="6.75008">
        <ele>2561.57</ele>
        <time>2017-08-29T11:57:34Z</time>
      </trkpt>
      <trkpt lat="45.75208" lon="6.75011">
        <ele>2561.09</ele>
        <time>2017-08-29T11:57:37Z</time>
      </trkpt>
      <trkpt lat="45.75208" lon="6.75014">
        <ele>2560.13</ele>
        <time>2017-08-29T11:57:38Z</time>
      </trkpt>
      <trkpt lat="45.75208" lon="6.75017">
        <ele>2559.17</ele>
        <time>2017-08-29T11:57:39Z</time>
      </trkpt>
      <trkpt lat="45.75208" lon="6.75021">
        <ele>2559.17</ele>
        <time>2017-08-29T11:57:40Z</time>
      </trkpt>
      <trkpt lat="45.75207" lon="6.75036">
        <ele>2560.13</ele>
        <time>2017-08-29T11:57:50Z</time>
      </trkpt>
      <trkpt lat="45.75207" lon="6.75038">
        <ele>2560.13</ele>
        <time>2017-08-29T11:57:51Z</time>
      </trkpt>
      <trkpt lat="45.75207" lon="6.75039">
        <ele>2559.65</ele>
        <time>2017-08-29T11:57:52Z</time>
      </trkpt>
      <trkpt lat="45.75205" lon="6.75041">
        <ele>2559.17</ele>
        <time>2017-08-29T11:57:55Z</time>
      </trkpt>
      <trkpt lat="45.75204" lon="6.75041">
        <ele>2559.17</ele>
        <time>2017-08-29T11:57:56Z</time>
      </trkpt>
      <trkpt lat="45.75195" lon="6.75038">
        <ele>2558.21</ele>
        <time>2017-08-29T11:58:02Z</time>
      </trkpt>
      <trkpt lat="45.75194" lon="6.75035">
        <ele>2557.73</ele>
        <time>2017-08-29T11:58:03Z</time>
      </trkpt>
      <trkpt lat="45.7519" lon="6.75029">
        <ele>2556.28</ele>
        <time>2017-08-29T11:58:06Z</time>
      </trkpt>
      <trkpt lat="45.75188" lon="6.75029">
        <ele>2555.8</ele>
        <time>2017-08-29T11:58:07Z</time>
      </trkpt>
      <trkpt lat="45.75183" lon="6.75029">
        <ele>2555.32</ele>
        <time>2017-08-29T11:58:09Z</time>
      </trkpt>
      <trkpt lat="45.75181" lon="6.75028">
        <ele>2554.84</ele>
        <time>2017-08-29T11:58:10Z</time>
      </trkpt>
      <trkpt lat="45.75163" lon="6.75026">
        <ele>2551.96</ele>
        <time>2017-08-29T11:58:18Z</time>
      </trkpt>
      <trkpt lat="45.75144" lon="6.75021">
        <ele>2548.59</ele>
        <time>2017-08-29T11:58:26Z</time>
      </trkpt>
      <trkpt lat="45.75132" lon="6.75014">
        <ele>2546.19</ele>
        <time>2017-08-29T11:58:32Z</time>
      </trkpt>
      <trkpt lat="45.75131" lon="6.75012">
        <ele>2545.71</ele>
        <time>2017-08-29T11:58:33Z</time>
      </trkpt>
      <trkpt lat="45.75129" lon="6.75011">
        <ele>2545.71</ele>
        <time>2017-08-29T11:58:34Z</time>
      </trkpt>
      <trkpt lat="45.75127" lon="6.7501">
        <ele>2545.23</ele>
        <time>2017-08-29T11:58:35Z</time>
      </trkpt>
      <trkpt lat="45.75113" lon="6.74993">
        <ele>2542.34</ele>
        <time>2017-08-29T11:58:43Z</time>
      </trkpt>
      <trkpt lat="45.75099" lon="6.74975">
        <ele>2539.46</ele>
        <time>2017-08-29T11:58:51Z</time>
      </trkpt>
      <trkpt lat="45.75094" lon="6.74958">
        <ele>2538.02</ele>
        <time>2017-08-29T11:58:57Z</time>
      </trkpt>
      <trkpt lat="45.75088" lon="6.7495">
        <ele>2538.02</ele>
        <time>2017-08-29T11:59:01Z</time>
      </trkpt>
      <trkpt lat="45.75088" lon="6.74948">
        <ele>2538.02</ele>
        <time>2017-08-29T11:59:02Z</time>
      </trkpt>
      <trkpt lat="45.75082" lon="6.7493">
        <ele>2539.46</ele>
        <time>2017-08-29T11:59:10Z</time>
      </trkpt>
      <trkpt lat="45.7508" lon="6.74928">
        <ele>2539.94</ele>
        <time>2017-08-29T11:59:12Z</time>
      </trkpt>
      <trkpt lat="45.75079" lon="6.74926">
        <ele>2540.42</ele>
        <time>2017-08-29T11:59:13Z</time>
      </trkpt>
      <trkpt lat="45.75078" lon="6.74925">
        <ele>2540.9</ele>
        <time>2017-08-29T11:59:14Z</time>
      </trkpt>
      <trkpt lat="45.75077" lon="6.74925">
        <ele>2541.38</ele>
        <time>2017-08-29T11:59:15Z</time>
      </trkpt>
      <trkpt lat="45.75076" lon="6.74925">
        <ele>2541.38</ele>
        <time>2017-08-29T11:59:16Z</time>
      </trkpt>
      <trkpt lat="45.75067" lon="6.74919">
        <ele>2541.38</ele>
        <time>2017-08-29T11:59:22Z</time>
      </trkpt>
      <trkpt lat="45.75056" lon="6.7491">
        <ele>2540.42</ele>
        <time>2017-08-29T11:59:29Z</time>
      </trkpt>
      <trkpt lat="45.75055" lon="6.74908">
        <ele>2540.42</ele>
        <time>2017-08-29T11:59:30Z</time>
      </trkpt>
      <trkpt lat="45.75052" lon="6.74903">
        <ele>2539.94</ele>
        <time>2017-08-29T11:59:33Z</time>
      </trkpt>
      <trkpt lat="45.7505" lon="6.74903">
        <ele>2539.46</ele>
        <time>2017-08-29T11:59:34Z</time>
      </trkpt>
      <trkpt lat="45.75048" lon="6.74903">
        <ele>2539.46</ele>
        <time>2017-08-29T11:59:35Z</time>
      </trkpt>
      <trkpt lat="45.75046" lon="6.74902">
        <ele>2539.46</ele>
        <time>2017-08-29T11:59:36Z</time>
      </trkpt>
      <trkpt lat="45.75045" lon="6.74901">
        <ele>2538.98</ele>
        <time>2017-08-29T11:59:37Z</time>
      </trkpt>
      <trkpt lat="45.75044" lon="6.749">
        <ele>2538.98</ele>
        <time>2017-08-29T11:59:38Z</time>
      </trkpt>
      <trkpt lat="45.75042" lon="6.74899">
        <ele>2538.98</ele>
        <time>2017-08-29T11:59:39Z</time>
      </trkpt>
      <trkpt lat="45.75041" lon="6.74897">
        <ele>2538.5</ele>
        <time>2017-08-29T11:59:40Z</time>
      </trkpt>
      <trkpt lat="45.7504" lon="6.74897">
        <ele>2538.02</ele>
        <time>2017-08-29T11:59:41Z</time>
      </trkpt>
      <trkpt lat="45.75039" lon="6.74896">
        <ele>2538.02</ele>
        <time>2017-08-29T11:59:42Z</time>
      </trkpt>
      <trkpt lat="45.75037" lon="6.74895">
        <ele>2537.54</ele>
        <time>2017-08-29T11:59:43Z</time>
      </trkpt>
      <trkpt lat="45.75033" lon="6.74891">
        <ele>2536.1</ele>
        <time>2017-08-29T11:59:46Z</time>
      </trkpt>
      <trkpt lat="45.75031" lon="6.74889">
        <ele>2536.1</ele>
        <time>2017-08-29T11:59:47Z</time>
      </trkpt>
      <trkpt lat="45.75027" lon="6.74883">
        <ele>2535.61</ele>
        <time>2017-08-29T11:59:51Z</time>
      </trkpt>
      <trkpt lat="45.75025" lon="6.74882">
        <ele>2535.61</ele>
        <time>2017-08-29T11:59:52Z</time>
      </trkpt>
      <trkpt lat="45.75024" lon="6.74881">
        <ele>2535.61</ele>
        <time>2017-08-29T11:59:53Z</time>
      </trkpt>
      <trkpt lat="45.75022" lon="6.7488">
        <ele>2536.1</ele>
        <time>2017-08-29T11:59:54Z</time>
      </trkpt>
      <trkpt lat="45.75021" lon="6.74879">
        <ele>2535.61</ele>
        <time>2017-08-29T11:59:55Z</time>
      </trkpt>
      <trkpt lat="45.75016" lon="6.74877">
        <ele>2534.65</ele>
        <time>2017-08-29T11:59:59Z</time>
      </trkpt>
      <trkpt lat="45.75014" lon="6.74878">
        <ele>2534.17</ele>
        <time>2017-08-29T12:00:00Z</time>
      </trkpt>
      <trkpt lat="45.75013" lon="6.74879">
        <ele>2534.17</ele>
        <time>2017-08-29T12:00:01Z</time>
      </trkpt>
      <trkpt lat="45.75012" lon="6.74878">
        <ele>2533.69</ele>
        <time>2017-08-29T12:00:02Z</time>
      </trkpt>
      <trkpt lat="45.75011" lon="6.74876">
        <ele>2533.69</ele>
        <time>2017-08-29T12:00:03Z</time>
      </trkpt>
      <trkpt lat="45.75009" lon="6.74874">
        <ele>2533.21</ele>
        <time>2017-08-29T12:00:04Z</time>
      </trkpt>
      <trkpt lat="45.75006" lon="6.74872">
        <ele>2533.21</ele>
        <time>2017-08-29T12:00:05Z</time>
      </trkpt>
      <trkpt lat="45.75005" lon="6.7487">
        <ele>2533.21</ele>
        <time>2017-08-29T12:00:06Z</time>
      </trkpt>
      <trkpt lat="45.74996" lon="6.74855">
        <ele>2532.25</ele>
        <time>2017-08-29T12:00:14Z</time>
      </trkpt>
      <trkpt lat="45.74996" lon="6.74852">
        <ele>2531.77</ele>
        <time>2017-08-29T12:00:15Z</time>
      </trkpt>
      <trkpt lat="45.74995" lon="6.74851">
        <ele>2531.77</ele>
        <time>2017-08-29T12:00:16Z</time>
      </trkpt>
      <trkpt lat="45.74994" lon="6.7485">
        <ele>2531.29</ele>
        <time>2017-08-29T12:00:17Z</time>
      </trkpt>
      <trkpt lat="45.74993" lon="6.74849">
        <ele>2531.29</ele>
        <time>2017-08-29T12:00:18Z</time>
      </trkpt>
      <trkpt lat="45.74992" lon="6.74847">
        <ele>2530.81</ele>
        <time>2017-08-29T12:00:19Z</time>
      </trkpt>
      <trkpt lat="45.74985" lon="6.74838">
        <ele>2529.37</ele>
        <time>2017-08-29T12:00:26Z</time>
      </trkpt>
      <trkpt lat="45.74984" lon="6.74836">
        <ele>2529.37</ele>
        <time>2017-08-29T12:00:27Z</time>
      </trkpt>
      <trkpt lat="45.74983" lon="6.74835">
        <ele>2529.37</ele>
        <time>2017-08-29T12:00:28Z</time>
      </trkpt>
      <trkpt lat="45.74982" lon="6.74834">
        <ele>2529.37</ele>
        <time>2017-08-29T12:00:29Z</time>
      </trkpt>
      <trkpt lat="45.74981" lon="6.74833">
        <ele>2529.37</ele>
        <time>2017-08-29T12:00:30Z</time>
      </trkpt>
      <trkpt lat="45.7498" lon="6.74832">
        <ele>2528.89</ele>
        <time>2017-08-29T12:00:31Z</time>
      </trkpt>
      <trkpt lat="45.74978" lon="6.74831">
        <ele>2528.89</ele>
        <time>2017-08-29T12:00:32Z</time>
      </trkpt>
      <trkpt lat="45.74977" lon="6.7483">
        <ele>2528.4</ele>
        <time>2017-08-29T12:00:33Z</time>
      </trkpt>
      <trkpt lat="45.74972" lon="6.74815">
        <ele>2526.96</ele>
        <time>2017-08-29T12:00:43Z</time>
      </trkpt>
      <trkpt lat="45.74971" lon="6.74814">
        <ele>2526.48</ele>
        <time>2017-08-29T12:00:44Z</time>
      </trkpt>
      <trkpt lat="45.74964" lon="6.74804">
        <ele>2524.08</ele>
        <time>2017-08-29T12:00:51Z</time>
      </trkpt>
      <trkpt lat="45.74963" lon="6.74803">
        <ele>2524.08</ele>
        <time>2017-08-29T12:00:52Z</time>
      </trkpt>
      <trkpt lat="45.74962" lon="6.74802">
        <ele>2524.08</ele>
        <time>2017-08-29T12:00:53Z</time>
      </trkpt>
      <trkpt lat="45.74961" lon="6.74801">
        <ele>2524.08</ele>
        <time>2017-08-29T12:00:54Z</time>
      </trkpt>
      <trkpt lat="45.74959" lon="6.74799">
        <ele>2523.6</ele>
        <time>2017-08-29T12:00:57Z</time>
      </trkpt>
      <trkpt lat="45.74958" lon="6.74797">
        <ele>2523.6</ele>
        <time>2017-08-29T12:00:59Z</time>
      </trkpt>
      <trkpt lat="45.74958" lon="6.74796">
        <ele>2523.12</ele>
        <time>2017-08-29T12:01:00Z</time>
      </trkpt>
      <trkpt lat="45.74957" lon="6.74794">
        <ele>2523.12</ele>
        <time>2017-08-29T12:01:01Z</time>
      </trkpt>
      <trkpt lat="45.74957" lon="6.74794">
        <ele>2522.64</ele>
        <time>2017-08-29T12:01:02Z</time>
      </trkpt>
      <trkpt lat="45.74956" lon="6.74792">
        <ele>2522.64</ele>
        <time>2017-08-29T12:01:03Z</time>
      </trkpt>
      <trkpt lat="45.74953" lon="6.74788">
        <ele>2521.68</ele>
        <time>2017-08-29T12:01:07Z</time>
      </trkpt>
      <trkpt lat="45.74952" lon="6.74786">
        <ele>2521.19</ele>
        <time>2017-08-29T12:01:08Z</time>
      </trkpt>
      <trkpt lat="45.74952" lon="6.74784">
        <ele>2521.19</ele>
        <time>2017-08-29T12:01:09Z</time>
      </trkpt>
      <trkpt lat="45.74951" lon="6.74783">
        <ele>2521.19</ele>
        <time>2017-08-29T12:01:10Z</time>
      </trkpt>
      <trkpt lat="45.74949" lon="6.74783">
        <ele>2520.71</ele>
        <time>2017-08-29T12:01:12Z</time>
      </trkpt>
      <trkpt lat="45.74945" lon="6.74781">
        <ele>2520.71</ele>
        <time>2017-08-29T12:01:16Z</time>
      </trkpt>
      <trkpt lat="45.74943" lon="6.74781">
        <ele>2520.23</ele>
        <time>2017-08-29T12:01:17Z</time>
      </trkpt>
      <trkpt lat="45.74942" lon="6.74781">
        <ele>2520.23</ele>
        <time>2017-08-29T12:01:18Z</time>
      </trkpt>
      <trkpt lat="45.7494" lon="6.74779">
        <ele>2519.75</ele>
        <time>2017-08-29T12:01:20Z</time>
      </trkpt>
      <trkpt lat="45.74925" lon="6.74762">
        <ele>2517.83</ele>
        <time>2017-08-29T12:01:35Z</time>
      </trkpt>
      <trkpt lat="45.74924" lon="6.7476">
        <ele>2517.83</ele>
        <time>2017-08-29T12:01:36Z</time>
      </trkpt>
      <trkpt lat="45.74923" lon="6.74759">
        <ele>2517.83</ele>
        <time>2017-08-29T12:01:37Z</time>
      </trkpt>
      <trkpt lat="45.74922" lon="6.74757">
        <ele>2517.83</ele>
        <time>2017-08-29T12:01:38Z</time>
      </trkpt>
      <trkpt lat="45.74921" lon="6.74756">
        <ele>2517.35</ele>
        <time>2017-08-29T12:01:39Z</time>
      </trkpt>
      <trkpt lat="45.74919" lon="6.74754">
        <ele>2517.35</ele>
        <time>2017-08-29T12:01:40Z</time>
      </trkpt>
      <trkpt lat="45.74919" lon="6.74752">
        <ele>2516.87</ele>
        <time>2017-08-29T12:01:41Z</time>
      </trkpt>
      <trkpt lat="45.74908" lon="6.74737">
        <ele>2517.35</ele>
        <time>2017-08-29T12:01:51Z</time>
      </trkpt>
      <trkpt lat="45.74908" lon="6.74736">
        <ele>2517.35</ele>
        <time>2017-08-29T12:01:52Z</time>
      </trkpt>
      <trkpt lat="45.74907" lon="6.74734">
        <ele>2517.35</ele>
        <time>2017-08-29T12:01:53Z</time>
      </trkpt>
      <trkpt lat="45.74906" lon="6.74733">
        <ele>2516.87</ele>
        <time>2017-08-29T12:01:54Z</time>
      </trkpt>
      <trkpt lat="45.74905" lon="6.74733">
        <ele>2516.87</ele>
        <time>2017-08-29T12:01:55Z</time>
      </trkpt>
      <trkpt lat="45.74903" lon="6.74732">
        <ele>2516.87</ele>
        <time>2017-08-29T12:01:56Z</time>
      </trkpt>
      <trkpt lat="45.74902" lon="6.74732">
        <ele>2516.87</ele>
        <time>2017-08-29T12:01:57Z</time>
      </trkpt>
      <trkpt lat="45.74901" lon="6.74732">
        <ele>2516.87</ele>
        <time>2017-08-29T12:01:58Z</time>
      </trkpt>
      <trkpt lat="45.74899" lon="6.74732">
        <ele>2516.87</ele>
        <time>2017-08-29T12:01:59Z</time>
      </trkpt>
      <trkpt lat="45.74897" lon="6.74733">
        <ele>2517.35</ele>
        <time>2017-08-29T12:02:00Z</time>
      </trkpt>
      <trkpt lat="45.74895" lon="6.74733">
        <ele>2517.35</ele>
        <time>2017-08-29T12:02:01Z</time>
      </trkpt>
      <trkpt lat="45.74893" lon="6.74733">
        <ele>2517.35</ele>
        <time>2017-08-29T12:02:02Z</time>
      </trkpt>
      <trkpt lat="45.74892" lon="6.74733">
        <ele>2517.35</ele>
        <time>2017-08-29T12:02:03Z</time>
      </trkpt>
      <trkpt lat="45.7489" lon="6.74735">
        <ele>2516.87</ele>
        <time>2017-08-29T12:02:05Z</time>
      </trkpt>
      <trkpt lat="45.74889" lon="6.74736">
        <ele>2516.87</ele>
        <time>2017-08-29T12:02:06Z</time>
      </trkpt>
      <trkpt lat="45.74887" lon="6.74737">
        <ele>2516.87</ele>
        <time>2017-08-29T12:02:07Z</time>
      </trkpt>
      <trkpt lat="45.74885" lon="6.74737">
        <ele>2516.87</ele>
        <time>2017-08-29T12:02:08Z</time>
      </trkpt>
      <trkpt lat="45.74884" lon="6.74739">
        <ele>2516.87</ele>
        <time>2017-08-29T12:02:09Z</time>
      </trkpt>
      <trkpt lat="45.74883" lon="6.7474">
        <ele>2516.87</ele>
        <time>2017-08-29T12:02:10Z</time>
      </trkpt>
      <trkpt lat="45.74881" lon="6.74741">
        <ele>2516.39</ele>
        <time>2017-08-29T12:02:11Z</time>
      </trkpt>
      <trkpt lat="45.74873" lon="6.74756">
        <ele>2518.31</ele>
        <time>2017-08-29T12:02:20Z</time>
      </trkpt>
      <trkpt lat="45.74872" lon="6.74757">
        <ele>2518.79</ele>
        <time>2017-08-29T12:02:21Z</time>
      </trkpt>
      <trkpt lat="45.74871" lon="6.74757">
        <ele>2518.79</ele>
        <time>2017-08-29T12:02:22Z</time>
      </trkpt>
      <trkpt lat="45.74869" lon="6.74757">
        <ele>2519.27</ele>
        <time>2017-08-29T12:02:23Z</time>
      </trkpt>
      <trkpt lat="45.74868" lon="6.74758">
        <ele>2519.75</ele>
        <time>2017-08-29T12:02:24Z</time>
      </trkpt>
      <trkpt lat="45.74866" lon="6.74759">
        <ele>2520.23</ele>
        <time>2017-08-29T12:02:25Z</time>
      </trkpt>
      <trkpt lat="45.74865" lon="6.74759">
        <ele>2520.23</ele>
        <time>2017-08-29T12:02:26Z</time>
      </trkpt>
      <trkpt lat="45.74863" lon="6.74759">
        <ele>2520.71</ele>
        <time>2017-08-29T12:02:27Z</time>
      </trkpt>
      <trkpt lat="45.74862" lon="6.74758">
        <ele>2520.71</ele>
        <time>2017-08-29T12:02:28Z</time>
      </trkpt>
      <trkpt lat="45.74861" lon="6.74757">
        <ele>2521.19</ele>
        <time>2017-08-29T12:02:29Z</time>
      </trkpt>
      <trkpt lat="45.7486" lon="6.74757">
        <ele>2521.68</ele>
        <time>2017-08-29T12:02:30Z</time>
      </trkpt>
      <trkpt lat="45.74858" lon="6.74757">
        <ele>2521.68</ele>
        <time>2017-08-29T12:02:31Z</time>
      </trkpt>
      <trkpt lat="45.74857" lon="6.74756">
        <ele>2522.64</ele>
        <time>2017-08-29T12:02:32Z</time>
      </trkpt>
      <trkpt lat="45.74857" lon="6.74755">
        <ele>2523.12</ele>
        <time>2017-08-29T12:02:33Z</time>
      </trkpt>
      <trkpt lat="45.74856" lon="6.74754">
        <ele>2523.6</ele>
        <time>2017-08-29T12:02:34Z</time>
      </trkpt>
      <trkpt lat="45.74854" lon="6.74754">
        <ele>2524.08</ele>
        <time>2017-08-29T12:02:35Z</time>
      </trkpt>
      <trkpt lat="45.74853" lon="6.74754">
        <ele>2524.56</ele>
        <time>2017-08-29T12:02:36Z</time>
      </trkpt>
      <trkpt lat="45.74852" lon="6.74754">
        <ele>2525.04</ele>
        <time>2017-08-29T12:02:37Z</time>
      </trkpt>
      <trkpt lat="45.74851" lon="6.74754">
        <ele>2525.04</ele>
        <time>2017-08-29T12:02:38Z</time>
      </trkpt>
      <trkpt lat="45.7485" lon="6.74753">
        <ele>2525.52</ele>
        <time>2017-08-29T12:02:39Z</time>
      </trkpt>
      <trkpt lat="45.7483" lon="6.74752">
        <ele>2528.4</ele>
        <time>2017-08-29T12:02:51Z</time>
      </trkpt>
      <trkpt lat="45.74818" lon="6.74748">
        <ele>2526.96</ele>
        <time>2017-08-29T12:02:57Z</time>
      </trkpt>
      <trkpt lat="45.74816" lon="6.74747">
        <ele>2526.96</ele>
        <time>2017-08-29T12:02:58Z</time>
      </trkpt>
      <trkpt lat="45.74813" lon="6.74747">
        <ele>2526.96</ele>
        <time>2017-08-29T12:02:59Z</time>
      </trkpt>
      <trkpt lat="45.74811" lon="6.74746">
        <ele>2526.96</ele>
        <time>2017-08-29T12:03:00Z</time>
      </trkpt>
      <trkpt lat="45.74809" lon="6.74744">
        <ele>2526.48</ele>
        <time>2017-08-29T12:03:01Z</time>
      </trkpt>
      <trkpt lat="45.74808" lon="6.74743">
        <ele>2526.48</ele>
        <time>2017-08-29T12:03:02Z</time>
      </trkpt>
      <trkpt lat="45.74807" lon="6.74742">
        <ele>2526.48</ele>
        <time>2017-08-29T12:03:03Z</time>
      </trkpt>
      <trkpt lat="45.74806" lon="6.7474">
        <ele>2526.48</ele>
        <time>2017-08-29T12:03:04Z</time>
      </trkpt>
      <trkpt lat="45.74804" lon="6.7474">
        <ele>2526</ele>
        <time>2017-08-29T12:03:05Z</time>
      </trkpt>
      <trkpt lat="45.74803" lon="6.74739">
        <ele>2526</ele>
        <time>2017-08-29T12:03:06Z</time>
      </trkpt>
      <trkpt lat="45.74801" lon="6.74737">
        <ele>2526</ele>
        <time>2017-08-29T12:03:07Z</time>
      </trkpt>
      <trkpt lat="45.748" lon="6.74734">
        <ele>2525.52</ele>
        <time>2017-08-29T12:03:08Z</time>
      </trkpt>
      <trkpt lat="45.74799" lon="6.74732">
        <ele>2525.52</ele>
        <time>2017-08-29T12:03:09Z</time>
      </trkpt>
      <trkpt lat="45.74798" lon="6.7473">
        <ele>2525.52</ele>
        <time>2017-08-29T12:03:10Z</time>
      </trkpt>
      <trkpt lat="45.74796" lon="6.74729">
        <ele>2525.52</ele>
        <time>2017-08-29T12:03:11Z</time>
      </trkpt>
      <trkpt lat="45.74786" lon="6.7472">
        <ele>2526.48</ele>
        <time>2017-08-29T12:03:19Z</time>
      </trkpt>
      <trkpt lat="45.74786" lon="6.74719">
        <ele>2526.48</ele>
        <time>2017-08-29T12:03:20Z</time>
      </trkpt>
      <trkpt lat="45.74785" lon="6.74717">
        <ele>2526.96</ele>
        <time>2017-08-29T12:03:21Z</time>
      </trkpt>
      <trkpt lat="45.74784" lon="6.74716">
        <ele>2526.96</ele>
        <time>2017-08-29T12:03:22Z</time>
      </trkpt>
      <trkpt lat="45.74783" lon="6.74716">
        <ele>2526.96</ele>
        <time>2017-08-29T12:03:23Z</time>
      </trkpt>
      <trkpt lat="45.74779" lon="6.74714">
        <ele>2526.96</ele>
        <time>2017-08-29T12:03:25Z</time>
      </trkpt>
      <trkpt lat="45.74778" lon="6.74712">
        <ele>2526.96</ele>
        <time>2017-08-29T12:03:26Z</time>
      </trkpt>
      <trkpt lat="45.74777" lon="6.74711">
        <ele>2526.96</ele>
        <time>2017-08-29T12:03:27Z</time>
      </trkpt>
      <trkpt lat="45.74776" lon="6.74708">
        <ele>2526.96</ele>
        <time>2017-08-29T12:03:28Z</time>
      </trkpt>
      <trkpt lat="45.74776" lon="6.74707">
        <ele>2527.44</ele>
        <time>2017-08-29T12:03:29Z</time>
      </trkpt>
      <trkpt lat="45.74772" lon="6.74698">
        <ele>2529.37</ele>
        <time>2017-08-29T12:03:35Z</time>
      </trkpt>
      <trkpt lat="45.74771" lon="6.74696">
        <ele>2529.85</ele>
        <time>2017-08-29T12:03:36Z</time>
      </trkpt>
      <trkpt lat="45.7477" lon="6.74694">
        <ele>2530.81</ele>
        <time>2017-08-29T12:03:37Z</time>
      </trkpt>
      <trkpt lat="45.7477" lon="6.74693">
        <ele>2530.81</ele>
        <time>2017-08-29T12:03:38Z</time>
      </trkpt>
      <trkpt lat="45.74769" lon="6.74692">
        <ele>2530.81</ele>
        <time>2017-08-29T12:03:39Z</time>
      </trkpt>
      <trkpt lat="45.74767" lon="6.74691">
        <ele>2530.81</ele>
        <time>2017-08-29T12:03:40Z</time>
      </trkpt>
      <trkpt lat="45.74766" lon="6.7469">
        <ele>2530.81</ele>
        <time>2017-08-29T12:03:41Z</time>
      </trkpt>
      <trkpt lat="45.74764" lon="6.7469">
        <ele>2530.81</ele>
        <time>2017-08-29T12:03:43Z</time>
      </trkpt>
      <trkpt lat="45.74763" lon="6.74691">
        <ele>2530.81</ele>
        <time>2017-08-29T12:03:44Z</time>
      </trkpt>
      <trkpt lat="45.74762" lon="6.74691">
        <ele>2531.29</ele>
        <time>2017-08-29T12:03:45Z</time>
      </trkpt>
      <trkpt lat="45.74762" lon="6.74691">
        <ele>2531.77</ele>
        <time>2017-08-29T12:03:46Z</time>
      </trkpt>
      <trkpt lat="45.74761" lon="6.74691">
        <ele>2531.77</ele>
        <time>2017-08-29T12:03:47Z</time>
      </trkpt>
      <trkpt lat="45.74759" lon="6.74691">
        <ele>2532.25</ele>
        <time>2017-08-29T12:03:49Z</time>
      </trkpt>
      <trkpt lat="45.74758" lon="6.74692">
        <ele>2532.73</ele>
        <time>2017-08-29T12:03:50Z</time>
      </trkpt>
      <trkpt lat="45.74757" lon="6.74692">
        <ele>2533.21</ele>
        <time>2017-08-29T12:03:51Z</time>
      </trkpt>
      <trkpt lat="45.74755" lon="6.74692">
        <ele>2533.21</ele>
        <time>2017-08-29T12:03:52Z</time>
      </trkpt>
      <trkpt lat="45.74754" lon="6.74692">
        <ele>2533.21</ele>
        <time>2017-08-29T12:03:53Z</time>
      </trkpt>
      <trkpt lat="45.74753" lon="6.74691">
        <ele>2533.69</ele>
        <time>2017-08-29T12:03:54Z</time>
      </trkpt>
      <trkpt lat="45.74751" lon="6.74691">
        <ele>2533.69</ele>
        <time>2017-08-29T12:03:55Z</time>
      </trkpt>
      <trkpt lat="45.7475" lon="6.74691">
        <ele>2533.69</ele>
        <time>2017-08-29T12:03:56Z</time>
      </trkpt>
      <trkpt lat="45.74748" lon="6.74691">
        <ele>2533.69</ele>
        <time>2017-08-29T12:03:57Z</time>
      </trkpt>
      <trkpt lat="45.74747" lon="6.74692">
        <ele>2533.69</ele>
        <time>2017-08-29T12:03:58Z</time>
      </trkpt>
      <trkpt lat="45.74735" lon="6.74687">
        <ele>2533.21</ele>
        <time>2017-08-29T12:04:06Z</time>
      </trkpt>
      <trkpt lat="45.74734" lon="6.74688">
        <ele>2533.21</ele>
        <time>2017-08-29T12:04:07Z</time>
      </trkpt>
      <trkpt lat="45.74733" lon="6.74688">
        <ele>2533.21</ele>
        <time>2017-08-29T12:04:08Z</time>
      </trkpt>
      <trkpt lat="45.74732" lon="6.74688">
        <ele>2533.21</ele>
        <time>2017-08-29T12:04:09Z</time>
      </trkpt>
      <trkpt lat="45.74731" lon="6.74687">
        <ele>2533.21</ele>
        <time>2017-08-29T12:04:10Z</time>
      </trkpt>
      <trkpt lat="45.7473" lon="6.74687">
        <ele>2533.69</ele>
        <time>2017-08-29T12:04:11Z</time>
      </trkpt>
      <trkpt lat="45.74728" lon="6.74687">
        <ele>2533.69</ele>
        <time>2017-08-29T12:04:12Z</time>
      </trkpt>
      <trkpt lat="45.74726" lon="6.74687">
        <ele>2533.69</ele>
        <time>2017-08-29T12:04:14Z</time>
      </trkpt>
      <trkpt lat="45.74719" lon="6.74686">
        <ele>2535.13</ele>
        <time>2017-08-29T12:04:19Z</time>
      </trkpt>
      <trkpt lat="45.74718" lon="6.74687">
        <ele>2535.61</ele>
        <time>2017-08-29T12:04:20Z</time>
      </trkpt>
      <trkpt lat="45.74716" lon="6.74688">
        <ele>2535.13</ele>
        <time>2017-08-29T12:04:21Z</time>
      </trkpt>
      <trkpt lat="45.74715" lon="6.74689">
        <ele>2535.61</ele>
        <time>2017-08-29T12:04:22Z</time>
      </trkpt>
      <trkpt lat="45.74714" lon="6.74689">
        <ele>2535.61</ele>
        <time>2017-08-29T12:04:23Z</time>
      </trkpt>
      <trkpt lat="45.74713" lon="6.74689">
        <ele>2535.61</ele>
        <time>2017-08-29T12:04:24Z</time>
      </trkpt>
      <trkpt lat="45.74711" lon="6.74688">
        <ele>2535.61</ele>
        <time>2017-08-29T12:04:25Z</time>
      </trkpt>
      <trkpt lat="45.7471" lon="6.74688">
        <ele>2535.61</ele>
        <time>2017-08-29T12:04:26Z</time>
      </trkpt>
      <trkpt lat="45.74708" lon="6.74688">
        <ele>2535.61</ele>
        <time>2017-08-29T12:04:27Z</time>
      </trkpt>
      <trkpt lat="45.74707" lon="6.74688">
        <ele>2535.61</ele>
        <time>2017-08-29T12:04:28Z</time>
      </trkpt>
      <trkpt lat="45.74705" lon="6.74688">
        <ele>2535.61</ele>
        <time>2017-08-29T12:04:29Z</time>
      </trkpt>
      <trkpt lat="45.74704" lon="6.74688">
        <ele>2535.61</ele>
        <time>2017-08-29T12:04:30Z</time>
      </trkpt>
      <trkpt lat="45.74686" lon="6.74688">
        <ele>2535.61</ele>
        <time>2017-08-29T12:04:42Z</time>
      </trkpt>
      <trkpt lat="45.74668" lon="6.74698">
        <ele>2538.5</ele>
        <time>2017-08-29T12:04:57Z</time>
      </trkpt>
      <trkpt lat="45.74667" lon="6.74699">
        <ele>2538.5</ele>
        <time>2017-08-29T12:04:58Z</time>
      </trkpt>
      <trkpt lat="45.74666" lon="6.74699">
        <ele>2538.5</ele>
        <time>2017-08-29T12:04:59Z</time>
      </trkpt>
      <trkpt lat="45.74665" lon="6.74699">
        <ele>2538.98</ele>
        <time>2017-08-29T12:05:00Z</time>
      </trkpt>
      <trkpt lat="45.74664" lon="6.74699">
        <ele>2538.98</ele>
        <time>2017-08-29T12:05:01Z</time>
      </trkpt>
      <trkpt lat="45.74663" lon="6.74699">
        <ele>2539.94</ele>
        <time>2017-08-29T12:05:02Z</time>
      </trkpt>
      <trkpt lat="45.7466" lon="6.747">
        <ele>2540.9</ele>
        <time>2017-08-29T12:05:06Z</time>
      </trkpt>
      <trkpt lat="45.7466" lon="6.747">
        <ele>2540.9</ele>
        <time>2017-08-29T12:05:07Z</time>
      </trkpt>
      <trkpt lat="45.74659" lon="6.74701">
        <ele>2541.38</ele>
        <time>2017-08-29T12:05:08Z</time>
      </trkpt>
      <trkpt lat="45.74658" lon="6.74701">
        <ele>2541.38</ele>
        <time>2017-08-29T12:05:09Z</time>
      </trkpt>
      <trkpt lat="45.74655" lon="6.74704">
        <ele>2543.31</ele>
        <time>2017-08-29T12:05:14Z</time>
      </trkpt>
      <trkpt lat="45.74647" lon="6.74705">
        <ele>2546.19</ele>
        <time>2017-08-29T12:05:25Z</time>
      </trkpt>
      <trkpt lat="45.74646" lon="6.74706">
        <ele>2546.19</ele>
        <time>2017-08-29T12:05:26Z</time>
      </trkpt>
      <trkpt lat="45.74639" lon="6.74705">
        <ele>2548.59</ele>
        <time>2017-08-29T12:05:35Z</time>
      </trkpt>
      <trkpt lat="45.74638" lon="6.74705">
        <ele>2548.59</ele>
        <time>2017-08-29T12:05:36Z</time>
      </trkpt>
      <trkpt lat="45.74637" lon="6.74705">
        <ele>2549.07</ele>
        <time>2017-08-29T12:05:37Z</time>
      </trkpt>
      <trkpt lat="45.74636" lon="6.74705">
        <ele>2549.07</ele>
        <time>2017-08-29T12:05:38Z</time>
      </trkpt>
      <trkpt lat="45.74635" lon="6.74704">
        <ele>2549.55</ele>
        <time>2017-08-29T12:05:39Z</time>
      </trkpt>
      <trkpt lat="45.74634" lon="6.74704">
        <ele>2550.03</ele>
        <time>2017-08-29T12:05:40Z</time>
      </trkpt>
      <trkpt lat="45.74621" lon="6.74699">
        <ele>2552.92</ele>
        <time>2017-08-29T12:05:55Z</time>
      </trkpt>
      <trkpt lat="45.74617" lon="6.74696">
        <ele>2553.88</ele>
        <time>2017-08-29T12:06:00Z</time>
      </trkpt>
      <trkpt lat="45.7462" lon="6.74691">
        <ele>2555.32</ele>
        <time>2017-08-29T12:06:05Z</time>
      </trkpt>
      <trkpt lat="45.74622" lon="6.74689">
        <ele>2556.28</ele>
        <time>2017-08-29T12:06:08Z</time>
      </trkpt>
      <trkpt lat="45.74623" lon="6.74688">
        <ele>2556.76</ele>
        <time>2017-08-29T12:06:09Z</time>
      </trkpt>
      <trkpt lat="45.74626" lon="6.74682">
        <ele>2559.65</ele>
        <time>2017-08-29T12:06:21Z</time>
      </trkpt>
      <trkpt lat="45.74623" lon="6.74681">
        <ele>2560.61</ele>
        <time>2017-08-29T12:06:24Z</time>
      </trkpt>
      <trkpt lat="45.7462" lon="6.74679">
        <ele>2561.57</ele>
        <time>2017-08-29T12:06:28Z</time>
      </trkpt>
      <trkpt lat="45.74621" lon="6.74677">
        <ele>2561.57</ele>
        <time>2017-08-29T12:06:30Z</time>
      </trkpt>
      <trkpt lat="45.74622" lon="6.74677">
        <ele>2562.05</ele>
        <time>2017-08-29T12:06:31Z</time>
      </trkpt>
      <trkpt lat="45.74626" lon="6.74672">
        <ele>2564.45</ele>
        <time>2017-08-29T12:06:37Z</time>
      </trkpt>
      <trkpt lat="45.74627" lon="6.74671">
        <ele>2564.93</ele>
        <time>2017-08-29T12:06:38Z</time>
      </trkpt>
      <trkpt lat="45.74625" lon="6.74669">
        <ele>2565.9</ele>
        <time>2017-08-29T12:06:44Z</time>
      </trkpt>
      <trkpt lat="45.74624" lon="6.74669">
        <ele>2566.38</ele>
        <time>2017-08-29T12:06:45Z</time>
      </trkpt>
      <trkpt lat="45.74618" lon="6.74662">
        <ele>2568.78</ele>
        <time>2017-08-29T12:06:59Z</time>
      </trkpt>
      <trkpt lat="45.74619" lon="6.74658">
        <ele>2571.18</ele>
        <time>2017-08-29T12:07:11Z</time>
      </trkpt>
      <trkpt lat="45.74618" lon="6.74658">
        <ele>2571.18</ele>
        <time>2017-08-29T12:07:12Z</time>
      </trkpt>
      <trkpt lat="45.74605" lon="6.74659">
        <ele>2573.59</ele>
        <time>2017-08-29T12:07:24Z</time>
      </trkpt>
      <trkpt lat="45.74603" lon="6.74659">
        <ele>2573.59</ele>
        <time>2017-08-29T12:07:25Z</time>
      </trkpt>
      <trkpt lat="45.74602" lon="6.74658">
        <ele>2574.07</ele>
        <time>2017-08-29T12:07:26Z</time>
      </trkpt>
      <trkpt lat="45.74601" lon="6.74658">
        <ele>2574.07</ele>
        <time>2017-08-29T12:07:27Z</time>
      </trkpt>
      <trkpt lat="45.74599" lon="6.74658">
        <ele>2574.07</ele>
        <time>2017-08-29T12:07:28Z</time>
      </trkpt>
      <trkpt lat="45.74598" lon="6.74658">
        <ele>2574.07</ele>
        <time>2017-08-29T12:07:29Z</time>
      </trkpt>
      <trkpt lat="45.74597" lon="6.74658">
        <ele>2574.55</ele>
        <time>2017-08-29T12:07:30Z</time>
      </trkpt>
      <trkpt lat="45.74596" lon="6.74658">
        <ele>2574.55</ele>
        <time>2017-08-29T12:07:31Z</time>
      </trkpt>
      <trkpt lat="45.74587" lon="6.74651">
        <ele>2577.43</ele>
        <time>2017-08-29T12:07:46Z</time>
      </trkpt>
      <trkpt lat="45.74588" lon="6.7465">
        <ele>2577.91</ele>
        <time>2017-08-29T12:07:47Z</time>
      </trkpt>
      <trkpt lat="45.74584" lon="6.74645">
        <ele>2580.32</ele>
        <time>2017-08-29T12:07:58Z</time>
      </trkpt>
      <trkpt lat="45.74584" lon="6.74644">
        <ele>2580.8</ele>
        <time>2017-08-29T12:07:59Z</time>
      </trkpt>
      <trkpt lat="45.74579" lon="6.74642">
        <ele>2581.76</ele>
        <time>2017-08-29T12:08:04Z</time>
      </trkpt>
      <trkpt lat="45.74578" lon="6.74642">
        <ele>2581.76</ele>
        <time>2017-08-29T12:08:05Z</time>
      </trkpt>
      <trkpt lat="45.74567" lon="6.74643">
        <ele>2584.64</ele>
        <time>2017-08-29T12:08:19Z</time>
      </trkpt>
      <trkpt lat="45.74555" lon="6.74641">
        <ele>2588.01</ele>
        <time>2017-08-29T12:08:33Z</time>
      </trkpt>
      <trkpt lat="45.74554" lon="6.74638">
        <ele>2588.97</ele>
        <time>2017-08-29T12:08:37Z</time>
      </trkpt>
      <trkpt lat="45.74557" lon="6.74634">
        <ele>2589.45</ele>
        <time>2017-08-29T12:08:41Z</time>
      </trkpt>
      <trkpt lat="45.74555" lon="6.74629">
        <ele>2592.81</ele>
        <time>2017-08-29T12:08:57Z</time>
      </trkpt>
      <trkpt lat="45.74552" lon="6.74627">
        <ele>2594.25</ele>
        <time>2017-08-29T12:09:04Z</time>
      </trkpt>
      <trkpt lat="45.74549" lon="6.7463">
        <ele>2594.74</ele>
        <time>2017-08-29T12:09:07Z</time>
      </trkpt>
      <trkpt lat="45.74539" lon="6.74655">
        <ele>2593.77</ele>
        <time>2017-08-29T12:09:17Z</time>
      </trkpt>
      <trkpt lat="45.74531" lon="6.74685">
        <ele>2592.81</ele>
        <time>2017-08-29T12:09:26Z</time>
      </trkpt>
      <trkpt lat="45.74523" lon="6.74697">
        <ele>2591.37</ele>
        <time>2017-08-29T12:09:33Z</time>
      </trkpt>
      <trkpt lat="45.74521" lon="6.74698">
        <ele>2590.89</ele>
        <time>2017-08-29T12:09:34Z</time>
      </trkpt>
      <trkpt lat="45.74519" lon="6.74699">
        <ele>2590.89</ele>
        <time>2017-08-29T12:09:35Z</time>
      </trkpt>
      <trkpt lat="45.74518" lon="6.74699">
        <ele>2590.89</ele>
        <time>2017-08-29T12:09:36Z</time>
      </trkpt>
      <trkpt lat="45.74516" lon="6.747">
        <ele>2590.89</ele>
        <time>2017-08-29T12:09:39Z</time>
      </trkpt>
      <trkpt lat="45.74515" lon="6.747">
        <ele>2590.89</ele>
        <time>2017-08-29T12:09:40Z</time>
      </trkpt>
      <trkpt lat="45.74507" lon="6.747">
        <ele>2592.81</ele>
        <time>2017-08-29T12:09:49Z</time>
      </trkpt>
      <trkpt lat="45.74507" lon="6.747">
        <ele>2592.81</ele>
        <time>2017-08-29T12:09:50Z</time>
      </trkpt>
      <trkpt lat="45.74506" lon="6.74698">
        <ele>2593.77</ele>
        <time>2017-08-29T12:09:59Z</time>
      </trkpt>
      <trkpt lat="45.74505" lon="6.74697">
        <ele>2593.77</ele>
        <time>2017-08-29T12:10:00Z</time>
      </trkpt>
      <trkpt lat="45.74503" lon="6.74681">
        <ele>2596.66</ele>
        <time>2017-08-29T12:10:14Z</time>
      </trkpt>
      <trkpt lat="45.74499" lon="6.7468">
        <ele>2597.62</ele>
        <time>2017-08-29T12:10:19Z</time>
      </trkpt>
      <trkpt lat="45.74498" lon="6.74678">
        <ele>2598.58</ele>
        <time>2017-08-29T12:10:21Z</time>
      </trkpt>
      <trkpt lat="45.74499" lon="6.74669">
        <ele>2601.46</ele>
        <time>2017-08-29T12:10:32Z</time>
      </trkpt>
      <trkpt lat="45.74496" lon="6.74663">
        <ele>2604.83</ele>
        <time>2017-08-29T12:10:47Z</time>
      </trkpt>
      <trkpt lat="45.74509" lon="6.74662">
        <ele>2606.75</ele>
        <time>2017-08-29T12:10:54Z</time>
      </trkpt>
      <trkpt lat="45.74509" lon="6.74656">
        <ele>2608.67</ele>
        <time>2017-08-29T12:11:02Z</time>
      </trkpt>
      <trkpt lat="45.74508" lon="6.74656">
        <ele>2608.67</ele>
        <time>2017-08-29T12:11:03Z</time>
      </trkpt>
      <trkpt lat="45.74506" lon="6.74658">
        <ele>2609.64</ele>
        <time>2017-08-29T12:11:08Z</time>
      </trkpt>
      <trkpt lat="45.74507" lon="6.74657">
        <ele>2609.64</ele>
        <time>2017-08-29T12:11:09Z</time>
      </trkpt>
      <trkpt lat="45.74508" lon="6.74654">
        <ele>2609.16</ele>
        <time>2017-08-29T12:11:21Z</time>
      </trkpt>
      <trkpt lat="45.74508" lon="6.74655">
        <ele>2609.16</ele>
        <time>2017-08-29T12:11:29Z</time>
      </trkpt>
      <trkpt lat="45.74508" lon="6.74654">
        <ele>2609.16</ele>
        <time>2017-08-29T12:11:34Z</time>
      </trkpt>
      <trkpt lat="45.74508" lon="6.74654">
        <ele>2609.16</ele>
        <time>2017-08-29T12:11:36Z</time>
      </trkpt>
      <trkpt lat="45.74508" lon="6.74654">
        <ele>2609.16</ele>
        <time>2017-08-29T12:11:41Z</time>
      </trkpt>
      <trkpt lat="45.74508" lon="6.74655">
        <ele>2609.16</ele>
        <time>2017-08-29T12:11:45Z</time>
      </trkpt>
      <trkpt lat="45.74508" lon="6.74654">
        <ele>2608.67</ele>
        <time>2017-08-29T12:11:49Z</time>
      </trkpt>
      <trkpt lat="45.74508" lon="6.74654">
        <ele>2608.67</ele>
        <time>2017-08-29T12:11:57Z</time>
      </trkpt>
      <trkpt lat="45.74508" lon="6.74654">
        <ele>2608.67</ele>
        <time>2017-08-29T12:12:04Z</time>
      </trkpt>
      <trkpt lat="45.74508" lon="6.74655">
        <ele>2608.67</ele>
        <time>2017-08-29T12:12:12Z</time>
      </trkpt>
      <trkpt lat="45.74508" lon="6.74655">
        <ele>2608.67</ele>
        <time>2017-08-29T12:12:19Z</time>
      </trkpt>
      <trkpt lat="45.74507" lon="6.74657">
        <ele>2609.16</ele>
        <time>2017-08-29T12:12:25Z</time>
      </trkpt>
      <trkpt lat="45.74507" lon="6.74657">
        <ele>2609.16</ele>
        <time>2017-08-29T12:12:27Z</time>
      </trkpt>
      <trkpt lat="45.74507" lon="6.74657">
        <ele>2608.67</ele>
        <time>2017-08-29T12:12:34Z</time>
      </trkpt>
      <trkpt lat="45.74506" lon="6.74657">
        <ele>2609.16</ele>
        <time>2017-08-29T12:12:44Z</time>
      </trkpt>
      <trkpt lat="45.74506" lon="6.74658">
        <ele>2609.16</ele>
        <time>2017-08-29T12:12:46Z</time>
      </trkpt>
      <trkpt lat="45.74504" lon="6.74652">
        <ele>2607.71</ele>
        <time>2017-08-29T12:12:52Z</time>
      </trkpt>
      <trkpt lat="45.74502" lon="6.7465">
        <ele>2607.23</ele>
        <time>2017-08-29T12:12:54Z</time>
      </trkpt>
      <trkpt lat="45.74501" lon="6.74652">
        <ele>2606.75</ele>
        <time>2017-08-29T12:12:55Z</time>
      </trkpt>
      <trkpt lat="45.745" lon="6.74653">
        <ele>2606.27</ele>
        <time>2017-08-29T12:12:56Z</time>
      </trkpt>
      <trkpt lat="45.74498" lon="6.74654">
        <ele>2605.79</ele>
        <time>2017-08-29T12:12:57Z</time>
      </trkpt>
      <trkpt lat="45.74498" lon="6.74652">
        <ele>2604.83</ele>
        <time>2017-08-29T12:12:58Z</time>
      </trkpt>
      <trkpt lat="45.74498" lon="6.74649">
        <ele>2604.35</ele>
        <time>2017-08-29T12:12:59Z</time>
      </trkpt>
      <trkpt lat="45.74498" lon="6.74648">
        <ele>2603.39</ele>
        <time>2017-08-29T12:13:00Z</time>
      </trkpt>
      <trkpt lat="45.74498" lon="6.74648">
        <ele>2603.39</ele>
        <time>2017-08-29T12:13:01Z</time>
      </trkpt>
      <trkpt lat="45.74496" lon="6.74649">
        <ele>2602.91</ele>
        <time>2017-08-29T12:13:02Z</time>
      </trkpt>
      <trkpt lat="45.74494" lon="6.74651">
        <ele>2602.43</ele>
        <time>2017-08-29T12:13:03Z</time>
      </trkpt>
      <trkpt lat="45.74493" lon="6.74651">
        <ele>2602.43</ele>
        <time>2017-08-29T12:13:04Z</time>
      </trkpt>
      <trkpt lat="45.74492" lon="6.7465">
        <ele>2601.95</ele>
        <time>2017-08-29T12:13:05Z</time>
      </trkpt>
      <trkpt lat="45.74491" lon="6.74648">
        <ele>2600.98</ele>
        <time>2017-08-29T12:13:06Z</time>
      </trkpt>
      <trkpt lat="45.74492" lon="6.74646">
        <ele>2600.5</ele>
        <time>2017-08-29T12:13:07Z</time>
      </trkpt>
      <trkpt lat="45.74492" lon="6.74643">
        <ele>2600.02</ele>
        <time>2017-08-29T12:13:08Z</time>
      </trkpt>
      <trkpt lat="45.74492" lon="6.7464">
        <ele>2599.06</ele>
        <time>2017-08-29T12:13:09Z</time>
      </trkpt>
      <trkpt lat="45.74492" lon="6.74638">
        <ele>2598.58</ele>
        <time>2017-08-29T12:13:10Z</time>
      </trkpt>
      <trkpt lat="45.74492" lon="6.74636">
        <ele>2598.58</ele>
        <time>2017-08-29T12:13:11Z</time>
      </trkpt>
      <trkpt lat="45.74491" lon="6.74632">
        <ele>2596.66</ele>
        <time>2017-08-29T12:13:16Z</time>
      </trkpt>
      <trkpt lat="45.74489" lon="6.74629">
        <ele>2595.22</ele>
        <time>2017-08-29T12:13:21Z</time>
      </trkpt>
      <trkpt lat="45.74489" lon="6.74628">
        <ele>2594.74</ele>
        <time>2017-08-29T12:13:22Z</time>
      </trkpt>
      <trkpt lat="45.74488" lon="6.74625">
        <ele>2593.77</ele>
        <time>2017-08-29T12:13:24Z</time>
      </trkpt>
      <trkpt lat="45.74487" lon="6.74624">
        <ele>2593.77</ele>
        <time>2017-08-29T12:13:26Z</time>
      </trkpt>
      <trkpt lat="45.74486" lon="6.74624">
        <ele>2592.81</ele>
        <time>2017-08-29T12:13:30Z</time>
      </trkpt>
      <trkpt lat="45.74485" lon="6.74625">
        <ele>2592.81</ele>
        <time>2017-08-29T12:13:31Z</time>
      </trkpt>
      <trkpt lat="45.74485" lon="6.74626">
        <ele>2591.85</ele>
        <time>2017-08-29T12:13:32Z</time>
      </trkpt>
      <trkpt lat="45.74484" lon="6.74627">
        <ele>2591.37</ele>
        <time>2017-08-29T12:13:33Z</time>
      </trkpt>
      <trkpt lat="45.74484" lon="6.74629">
        <ele>2591.37</ele>
        <time>2017-08-29T12:13:34Z</time>
      </trkpt>
      <trkpt lat="45.74483" lon="6.74631">
        <ele>2590.89</ele>
        <time>2017-08-29T12:13:35Z</time>
      </trkpt>
      <trkpt lat="45.74482" lon="6.74632">
        <ele>2590.41</ele>
        <time>2017-08-29T12:13:36Z</time>
      </trkpt>
      <trkpt lat="45.74481" lon="6.7463">
        <ele>2589.93</ele>
        <time>2017-08-29T12:13:38Z</time>
      </trkpt>
      <trkpt lat="45.74479" lon="6.74624">
        <ele>2587.53</ele>
        <time>2017-08-29T12:13:42Z</time>
      </trkpt>
      <trkpt lat="45.74479" lon="6.7462">
        <ele>2586.56</ele>
        <time>2017-08-29T12:13:44Z</time>
      </trkpt>
      <trkpt lat="45.74477" lon="6.74615">
        <ele>2585.6</ele>
        <time>2017-08-29T12:13:57Z</time>
      </trkpt>
      <trkpt lat="45.74476" lon="6.74616">
        <ele>2585.6</ele>
        <time>2017-08-29T12:13:58Z</time>
      </trkpt>
      <trkpt lat="45.74473" lon="6.74618">
        <ele>2584.16</ele>
        <time>2017-08-29T12:14:01Z</time>
      </trkpt>
      <trkpt lat="45.74473" lon="6.74618">
        <ele>2584.16</ele>
        <time>2017-08-29T12:14:02Z</time>
      </trkpt>
      <trkpt lat="45.74472" lon="6.74617">
        <ele>2583.2</ele>
        <time>2017-08-29T12:14:03Z</time>
      </trkpt>
      <trkpt lat="45.7447" lon="6.74615">
        <ele>2581.76</ele>
        <time>2017-08-29T12:14:06Z</time>
      </trkpt>
      <trkpt lat="45.74469" lon="6.74616">
        <ele>2581.76</ele>
        <time>2017-08-29T12:14:07Z</time>
      </trkpt>
      <trkpt lat="45.74469" lon="6.74616">
        <ele>2581.76</ele>
        <time>2017-08-29T12:14:08Z</time>
      </trkpt>
      <trkpt lat="45.74465" lon="6.74615">
        <ele>2578.39</ele>
        <time>2017-08-29T12:14:15Z</time>
      </trkpt>
      <trkpt lat="45.74462" lon="6.74612">
        <ele>2575.99</ele>
        <time>2017-08-29T12:14:20Z</time>
      </trkpt>
      <trkpt lat="45.74461" lon="6.74613">
        <ele>2575.99</ele>
        <time>2017-08-29T12:14:26Z</time>
      </trkpt>
      <trkpt lat="45.74459" lon="6.74615">
        <ele>2575.51</ele>
        <time>2017-08-29T12:14:29Z</time>
      </trkpt>
      <trkpt lat="45.74459" lon="6.74616">
        <ele>2575.03</ele>
        <time>2017-08-29T12:14:30Z</time>
      </trkpt>
      <trkpt lat="45.74458" lon="6.74617">
        <ele>2574.55</ele>
        <time>2017-08-29T12:14:31Z</time>
      </trkpt>
      <trkpt lat="45.74457" lon="6.74618">
        <ele>2574.07</ele>
        <time>2017-08-29T12:14:32Z</time>
      </trkpt>
      <trkpt lat="45.74456" lon="6.74618">
        <ele>2573.59</ele>
        <time>2017-08-29T12:14:33Z</time>
      </trkpt>
      <trkpt lat="45.74455" lon="6.74617">
        <ele>2572.63</ele>
        <time>2017-08-29T12:14:34Z</time>
      </trkpt>
      <trkpt lat="45.74454" lon="6.74615">
        <ele>2571.18</ele>
        <time>2017-08-29T12:14:35Z</time>
      </trkpt>
      <trkpt lat="45.74454" lon="6.74613">
        <ele>2570.22</ele>
        <time>2017-08-29T12:14:36Z</time>
      </trkpt>
      <trkpt lat="45.74454" lon="6.7461">
        <ele>2569.26</ele>
        <time>2017-08-29T12:14:37Z</time>
      </trkpt>
      <trkpt lat="45.74453" lon="6.74607">
        <ele>2568.3</ele>
        <time>2017-08-29T12:14:38Z</time>
      </trkpt>
      <trkpt lat="45.74453" lon="6.74605">
        <ele>2567.82</ele>
        <time>2017-08-29T12:14:39Z</time>
      </trkpt>
      <trkpt lat="45.74451" lon="6.74605">
        <ele>2567.34</ele>
        <time>2017-08-29T12:14:44Z</time>
      </trkpt>
      <trkpt lat="45.7445" lon="6.74607">
        <ele>2567.34</ele>
        <time>2017-08-29T12:14:45Z</time>
      </trkpt>
      <trkpt lat="45.74449" lon="6.74609">
        <ele>2567.34</ele>
        <time>2017-08-29T12:14:46Z</time>
      </trkpt>
      <trkpt lat="45.74449" lon="6.74611">
        <ele>2566.86</ele>
        <time>2017-08-29T12:14:47Z</time>
      </trkpt>
      <trkpt lat="45.74448" lon="6.74613">
        <ele>2566.38</ele>
        <time>2017-08-29T12:14:48Z</time>
      </trkpt>
      <trkpt lat="45.74445" lon="6.74617">
        <ele>2564.45</ele>
        <time>2017-08-29T12:14:54Z</time>
      </trkpt>
      <trkpt lat="45.74444" lon="6.74616">
        <ele>2563.97</ele>
        <time>2017-08-29T12:14:55Z</time>
      </trkpt>
      <trkpt lat="45.74442" lon="6.74615">
        <ele>2563.01</ele>
        <time>2017-08-29T12:14:56Z</time>
      </trkpt>
      <trkpt lat="45.74441" lon="6.74613">
        <ele>2562.05</ele>
        <time>2017-08-29T12:14:57Z</time>
      </trkpt>
      <trkpt lat="45.7444" lon="6.74611">
        <ele>2561.57</ele>
        <time>2017-08-29T12:14:58Z</time>
      </trkpt>
      <trkpt lat="45.74438" lon="6.74599">
        <ele>2558.21</ele>
        <time>2017-08-29T12:15:03Z</time>
      </trkpt>
      <trkpt lat="45.74437" lon="6.74596">
        <ele>2557.24</ele>
        <time>2017-08-29T12:15:04Z</time>
      </trkpt>
      <trkpt lat="45.74438" lon="6.74593">
        <ele>2556.76</ele>
        <time>2017-08-29T12:15:05Z</time>
      </trkpt>
      <trkpt lat="45.74438" lon="6.7459">
        <ele>2556.28</ele>
        <time>2017-08-29T12:15:06Z</time>
      </trkpt>
      <trkpt lat="45.74438" lon="6.74587">
        <ele>2556.28</ele>
        <time>2017-08-29T12:15:07Z</time>
      </trkpt>
      <trkpt lat="45.74438" lon="6.74585">
        <ele>2555.8</ele>
        <time>2017-08-29T12:15:08Z</time>
      </trkpt>
      <trkpt lat="45.74439" lon="6.74583">
        <ele>2554.84</ele>
        <time>2017-08-29T12:15:09Z</time>
      </trkpt>
      <trkpt lat="45.74439" lon="6.74582">
        <ele>2554.36</ele>
        <time>2017-08-29T12:15:10Z</time>
      </trkpt>
      <trkpt lat="45.74438" lon="6.7458">
        <ele>2553.88</ele>
        <time>2017-08-29T12:15:11Z</time>
      </trkpt>
      <trkpt lat="45.74438" lon="6.74579">
        <ele>2553.88</ele>
        <time>2017-08-29T12:15:12Z</time>
      </trkpt>
      <trkpt lat="45.74438" lon="6.74577">
        <ele>2553.4</ele>
        <time>2017-08-29T12:15:13Z</time>
      </trkpt>
      <trkpt lat="45.74438" lon="6.74574">
        <ele>2552.44</ele>
        <time>2017-08-29T12:15:14Z</time>
      </trkpt>
      <trkpt lat="45.74438" lon="6.74572">
        <ele>2551.96</ele>
        <time>2017-08-29T12:15:15Z</time>
      </trkpt>
      <trkpt lat="45.74439" lon="6.74568">
        <ele>2551.48</ele>
        <time>2017-08-29T12:15:16Z</time>
      </trkpt>
      <trkpt lat="45.74438" lon="6.74565">
        <ele>2551</ele>
        <time>2017-08-29T12:15:17Z</time>
      </trkpt>
      <trkpt lat="45.74438" lon="6.74562">
        <ele>2551</ele>
        <time>2017-08-29T12:15:18Z</time>
      </trkpt>
      <trkpt lat="45.74438" lon="6.7456">
        <ele>2551.48</ele>
        <time>2017-08-29T12:15:19Z</time>
      </trkpt>
      <trkpt lat="45.74438" lon="6.74557">
        <ele>2551.48</ele>
        <time>2017-08-29T12:15:20Z</time>
      </trkpt>
      <trkpt lat="45.7444" lon="6.74549">
        <ele>2552.92</ele>
        <time>2017-08-29T12:15:24Z</time>
      </trkpt>
      <trkpt lat="45.74441" lon="6.74546">
        <ele>2553.4</ele>
        <time>2017-08-29T12:15:25Z</time>
      </trkpt>
      <trkpt lat="45.74441" lon="6.74532">
        <ele>2553.88</ele>
        <time>2017-08-29T12:15:30Z</time>
      </trkpt>
      <trkpt lat="45.74437" lon="6.74516">
        <ele>2551.96</ele>
        <time>2017-08-29T12:15:36Z</time>
      </trkpt>
      <trkpt lat="45.74437" lon="6.74489">
        <ele>2551</ele>
        <time>2017-08-29T12:15:44Z</time>
      </trkpt>
      <trkpt lat="45.74439" lon="6.74471">
        <ele>2551.48</ele>
        <time>2017-08-29T12:15:50Z</time>
      </trkpt>
      <trkpt lat="45.74445" lon="6.74444">
        <ele>2551.48</ele>
        <time>2017-08-29T12:16:01Z</time>
      </trkpt>
      <trkpt lat="45.74445" lon="6.74442">
        <ele>2551.96</ele>
        <time>2017-08-29T12:16:02Z</time>
      </trkpt>
      <trkpt lat="45.7444" lon="6.74416">
        <ele>2549.55</ele>
        <time>2017-08-29T12:16:14Z</time>
      </trkpt>
      <trkpt lat="45.74439" lon="6.74391">
        <ele>2546.19</ele>
        <time>2017-08-29T12:16:25Z</time>
      </trkpt>
      <trkpt lat="45.74438" lon="6.74387">
        <ele>2544.75</ele>
        <time>2017-08-29T12:16:32Z</time>
      </trkpt>
      <trkpt lat="45.74437" lon="6.74389">
        <ele>2543.79</ele>
        <time>2017-08-29T12:16:33Z</time>
      </trkpt>
      <trkpt lat="45.74436" lon="6.74391">
        <ele>2542.82</ele>
        <time>2017-08-29T12:16:34Z</time>
      </trkpt>
      <trkpt lat="45.74435" lon="6.74393">
        <ele>2542.82</ele>
        <time>2017-08-29T12:16:35Z</time>
      </trkpt>
      <trkpt lat="45.74434" lon="6.74395">
        <ele>2542.82</ele>
        <time>2017-08-29T12:16:36Z</time>
      </trkpt>
      <trkpt lat="45.74433" lon="6.74393">
        <ele>2540.9</ele>
        <time>2017-08-29T12:16:41Z</time>
      </trkpt>
      <trkpt lat="45.74433" lon="6.7439">
        <ele>2540.42</ele>
        <time>2017-08-29T12:16:42Z</time>
      </trkpt>
      <trkpt lat="45.74433" lon="6.74388">
        <ele>2539.46</ele>
        <time>2017-08-29T12:16:43Z</time>
      </trkpt>
      <trkpt lat="45.74433" lon="6.74386">
        <ele>2538.98</ele>
        <time>2017-08-29T12:16:44Z</time>
      </trkpt>
      <trkpt lat="45.74433" lon="6.74383">
        <ele>2538.5</ele>
        <time>2017-08-29T12:16:45Z</time>
      </trkpt>
      <trkpt lat="45.74433" lon="6.74381">
        <ele>2538.5</ele>
        <time>2017-08-29T12:16:46Z</time>
      </trkpt>
      <trkpt lat="45.74433" lon="6.74377">
        <ele>2538.02</ele>
        <time>2017-08-29T12:16:47Z</time>
      </trkpt>
      <trkpt lat="45.74434" lon="6.74374">
        <ele>2537.54</ele>
        <time>2017-08-29T12:16:48Z</time>
      </trkpt>
      <trkpt lat="45.74435" lon="6.7437">
        <ele>2537.54</ele>
        <time>2017-08-29T12:16:49Z</time>
      </trkpt>
      <trkpt lat="45.74435" lon="6.74367">
        <ele>2537.06</ele>
        <time>2017-08-29T12:16:50Z</time>
      </trkpt>
      <trkpt lat="45.74435" lon="6.74364">
        <ele>2537.06</ele>
        <time>2017-08-29T12:16:51Z</time>
      </trkpt>
      <trkpt lat="45.74435" lon="6.74361">
        <ele>2537.06</ele>
        <time>2017-08-29T12:16:52Z</time>
      </trkpt>
      <trkpt lat="45.74431" lon="6.74334">
        <ele>2537.54</ele>
        <time>2017-08-29T12:17:02Z</time>
      </trkpt>
      <trkpt lat="45.74428" lon="6.74307">
        <ele>2535.61</ele>
        <time>2017-08-29T12:17:13Z</time>
      </trkpt>
      <trkpt lat="45.74424" lon="6.74277">
        <ele>2533.21</ele>
        <time>2017-08-29T12:17:24Z</time>
      </trkpt>
      <trkpt lat="45.74425" lon="6.7425">
        <ele>2531.77</ele>
        <time>2017-08-29T12:17:35Z</time>
      </trkpt>
      <trkpt lat="45.74425" lon="6.74237">
        <ele>2530.33</ele>
        <time>2017-08-29T12:17:43Z</time>
      </trkpt>
      <trkpt lat="45.74424" lon="6.74236">
        <ele>2529.85</ele>
        <time>2017-08-29T12:17:44Z</time>
      </trkpt>
      <trkpt lat="45.74421" lon="6.74231">
        <ele>2527.92</ele>
        <time>2017-08-29T12:17:48Z</time>
      </trkpt>
      <trkpt lat="45.74417" lon="6.7421">
        <ele>2526.96</ele>
        <time>2017-08-29T12:17:59Z</time>
      </trkpt>
      <trkpt lat="45.74415" lon="6.74181">
        <ele>2525.52</ele>
        <time>2017-08-29T12:18:13Z</time>
      </trkpt>
      <trkpt lat="45.74402" lon="6.74161">
        <ele>2526</ele>
        <time>2017-08-29T12:18:25Z</time>
      </trkpt>
      <trkpt lat="45.74394" lon="6.74154">
        <ele>2526.48</ele>
        <time>2017-08-29T12:18:31Z</time>
      </trkpt>
      <trkpt lat="45.74384" lon="6.74136">
        <ele>2526</ele>
        <time>2017-08-29T12:18:40Z</time>
      </trkpt>
      <trkpt lat="45.74384" lon="6.74133">
        <ele>2526.48</ele>
        <time>2017-08-29T12:18:41Z</time>
      </trkpt>
      <trkpt lat="45.74383" lon="6.74132">
        <ele>2526.48</ele>
        <time>2017-08-29T12:18:42Z</time>
      </trkpt>
      <trkpt lat="45.74383" lon="6.7413">
        <ele>2526.96</ele>
        <time>2017-08-29T12:18:43Z</time>
      </trkpt>
      <trkpt lat="45.74382" lon="6.74128">
        <ele>2526.48</ele>
        <time>2017-08-29T12:18:44Z</time>
      </trkpt>
      <trkpt lat="45.74381" lon="6.74126">
        <ele>2526</ele>
        <time>2017-08-29T12:18:45Z</time>
      </trkpt>
      <trkpt lat="45.74379" lon="6.74124">
        <ele>2526</ele>
        <time>2017-08-29T12:18:46Z</time>
      </trkpt>
      <trkpt lat="45.74378" lon="6.74122">
        <ele>2526</ele>
        <time>2017-08-29T12:18:47Z</time>
      </trkpt>
      <trkpt lat="45.74377" lon="6.7412">
        <ele>2526</ele>
        <time>2017-08-29T12:18:48Z</time>
      </trkpt>
      <trkpt lat="45.74376" lon="6.74118">
        <ele>2526</ele>
        <time>2017-08-29T12:18:49Z</time>
      </trkpt>
      <trkpt lat="45.74375" lon="6.74116">
        <ele>2526</ele>
        <time>2017-08-29T12:18:50Z</time>
      </trkpt>
      <trkpt lat="45.7436" lon="6.74104">
        <ele>2523.6</ele>
        <time>2017-08-29T12:18:59Z</time>
      </trkpt>
      <trkpt lat="45.74344" lon="6.74089">
        <ele>2521.68</ele>
        <time>2017-08-29T12:19:10Z</time>
      </trkpt>
      <trkpt lat="45.74342" lon="6.74088">
        <ele>2521.19</ele>
        <time>2017-08-29T12:19:11Z</time>
      </trkpt>
      <trkpt lat="45.74341" lon="6.74085">
        <ele>2521.19</ele>
        <time>2017-08-29T12:19:12Z</time>
      </trkpt>
      <trkpt lat="45.7434" lon="6.74083">
        <ele>2521.19</ele>
        <time>2017-08-29T12:19:13Z</time>
      </trkpt>
      <trkpt lat="45.74339" lon="6.74081">
        <ele>2521.19</ele>
        <time>2017-08-29T12:19:14Z</time>
      </trkpt>
      <trkpt lat="45.74339" lon="6.74079">
        <ele>2521.68</ele>
        <time>2017-08-29T12:19:15Z</time>
      </trkpt>
      <trkpt lat="45.74338" lon="6.74077">
        <ele>2521.68</ele>
        <time>2017-08-29T12:19:16Z</time>
      </trkpt>
      <trkpt lat="45.7433" lon="6.74056">
        <ele>2522.64</ele>
        <time>2017-08-29T12:19:26Z</time>
      </trkpt>
      <trkpt lat="45.74329" lon="6.74054">
        <ele>2522.64</ele>
        <time>2017-08-29T12:19:27Z</time>
      </trkpt>
      <trkpt lat="45.74328" lon="6.74053">
        <ele>2522.64</ele>
        <time>2017-08-29T12:19:28Z</time>
      </trkpt>
      <trkpt lat="45.74327" lon="6.74051">
        <ele>2523.12</ele>
        <time>2017-08-29T12:19:29Z</time>
      </trkpt>
      <trkpt lat="45.74326" lon="6.74049">
        <ele>2523.12</ele>
        <time>2017-08-29T12:19:30Z</time>
      </trkpt>
      <trkpt lat="45.74325" lon="6.74047">
        <ele>2523.12</ele>
        <time>2017-08-29T12:19:31Z</time>
      </trkpt>
      <trkpt lat="45.74324" lon="6.74045">
        <ele>2523.12</ele>
        <time>2017-08-29T12:19:32Z</time>
      </trkpt>
      <trkpt lat="45.74323" lon="6.74043">
        <ele>2523.12</ele>
        <time>2017-08-29T12:19:33Z</time>
      </trkpt>
      <trkpt lat="45.74322" lon="6.74041">
        <ele>2523.12</ele>
        <time>2017-08-29T12:19:34Z</time>
      </trkpt>
      <trkpt lat="45.7432" lon="6.74039">
        <ele>2523.12</ele>
        <time>2017-08-29T12:19:35Z</time>
      </trkpt>
      <trkpt lat="45.7432" lon="6.74037">
        <ele>2523.12</ele>
        <time>2017-08-29T12:19:36Z</time>
      </trkpt>
      <trkpt lat="45.74319" lon="6.74035">
        <ele>2523.12</ele>
        <time>2017-08-29T12:19:37Z</time>
      </trkpt>
      <trkpt lat="45.74317" lon="6.74033">
        <ele>2523.12</ele>
        <time>2017-08-29T12:19:38Z</time>
      </trkpt>
      <trkpt lat="45.74316" lon="6.74031">
        <ele>2523.12</ele>
        <time>2017-08-29T12:19:39Z</time>
      </trkpt>
      <trkpt lat="45.74315" lon="6.74029">
        <ele>2523.6</ele>
        <time>2017-08-29T12:19:40Z</time>
      </trkpt>
      <trkpt lat="45.74315" lon="6.74028">
        <ele>2523.6</ele>
        <time>2017-08-29T12:19:41Z</time>
      </trkpt>
      <trkpt lat="45.74314" lon="6.74026">
        <ele>2523.6</ele>
        <time>2017-08-29T12:19:42Z</time>
      </trkpt>
      <trkpt lat="45.74312" lon="6.74025">
        <ele>2523.6</ele>
        <time>2017-08-29T12:19:43Z</time>
      </trkpt>
      <trkpt lat="45.74311" lon="6.74024">
        <ele>2523.6</ele>
        <time>2017-08-29T12:19:44Z</time>
      </trkpt>
      <trkpt lat="45.7431" lon="6.74021">
        <ele>2523.6</ele>
        <time>2017-08-29T12:19:45Z</time>
      </trkpt>
      <trkpt lat="45.74309" lon="6.7402">
        <ele>2523.6</ele>
        <time>2017-08-29T12:19:46Z</time>
      </trkpt>
      <trkpt lat="45.74308" lon="6.74018">
        <ele>2524.08</ele>
        <time>2017-08-29T12:19:47Z</time>
      </trkpt>
      <trkpt lat="45.74294" lon="6.74001">
        <ele>2526</ele>
        <time>2017-08-29T12:19:59Z</time>
      </trkpt>
      <trkpt lat="45.74287" lon="6.73996">
        <ele>2526</ele>
        <time>2017-08-29T12:20:07Z</time>
      </trkpt>
      <trkpt lat="45.74287" lon="6.73995">
        <ele>2526</ele>
        <time>2017-08-29T12:20:08Z</time>
      </trkpt>
      <trkpt lat="45.74286" lon="6.73993">
        <ele>2526</ele>
        <time>2017-08-29T12:20:09Z</time>
      </trkpt>
      <trkpt lat="45.74284" lon="6.73992">
        <ele>2526</ele>
        <time>2017-08-29T12:20:10Z</time>
      </trkpt>
      <trkpt lat="45.74283" lon="6.7399">
        <ele>2526.48</ele>
        <time>2017-08-29T12:20:11Z</time>
      </trkpt>
      <trkpt lat="45.74282" lon="6.73988">
        <ele>2526.48</ele>
        <time>2017-08-29T12:20:12Z</time>
      </trkpt>
      <trkpt lat="45.74281" lon="6.73987">
        <ele>2526.48</ele>
        <time>2017-08-29T12:20:13Z</time>
      </trkpt>
      <trkpt lat="45.7428" lon="6.73985">
        <ele>2526.48</ele>
        <time>2017-08-29T12:20:14Z</time>
      </trkpt>
      <trkpt lat="45.74279" lon="6.73983">
        <ele>2526.48</ele>
        <time>2017-08-29T12:20:15Z</time>
      </trkpt>
      <trkpt lat="45.74278" lon="6.73981">
        <ele>2526.48</ele>
        <time>2017-08-29T12:20:16Z</time>
      </trkpt>
      <trkpt lat="45.74277" lon="6.73979">
        <ele>2526.48</ele>
        <time>2017-08-29T12:20:17Z</time>
      </trkpt>
      <trkpt lat="45.74276" lon="6.73977">
        <ele>2526</ele>
        <time>2017-08-29T12:20:18Z</time>
      </trkpt>
      <trkpt lat="45.74275" lon="6.73976">
        <ele>2526</ele>
        <time>2017-08-29T12:20:19Z</time>
      </trkpt>
      <trkpt lat="45.74273" lon="6.73975">
        <ele>2526.48</ele>
        <time>2017-08-29T12:20:20Z</time>
      </trkpt>
      <trkpt lat="45.74272" lon="6.73973">
        <ele>2526.48</ele>
        <time>2017-08-29T12:20:21Z</time>
      </trkpt>
      <trkpt lat="45.74255" lon="6.7396">
        <ele>2526.48</ele>
        <time>2017-08-29T12:20:33Z</time>
      </trkpt>
      <trkpt lat="45.74253" lon="6.73959">
        <ele>2526.48</ele>
        <time>2017-08-29T12:20:34Z</time>
      </trkpt>
      <trkpt lat="45.74237" lon="6.73943">
        <ele>2527.44</ele>
        <time>2017-08-29T12:20:46Z</time>
      </trkpt>
      <trkpt lat="45.74226" lon="6.73918">
        <ele>2526.48</ele>
        <time>2017-08-29T12:20:57Z</time>
      </trkpt>
      <trkpt lat="45.74208" lon="6.73893">
        <ele>2525.04</ele>
        <time>2017-08-29T12:21:09Z</time>
      </trkpt>
      <trkpt lat="45.74193" lon="6.73876">
        <ele>2525.04</ele>
        <time>2017-08-29T12:21:19Z</time>
      </trkpt>
      <trkpt lat="45.74176" lon="6.73869">
        <ele>2525.52</ele>
        <time>2017-08-29T12:21:31Z</time>
      </trkpt>
      <trkpt lat="45.74174" lon="6.73868">
        <ele>2525.52</ele>
        <time>2017-08-29T12:21:32Z</time>
      </trkpt>
      <trkpt lat="45.74173" lon="6.73867">
        <ele>2525.52</ele>
        <time>2017-08-29T12:21:33Z</time>
      </trkpt>
      <trkpt lat="45.74172" lon="6.73865">
        <ele>2526</ele>
        <time>2017-08-29T12:21:34Z</time>
      </trkpt>
      <trkpt lat="45.74172" lon="6.73864">
        <ele>2526.48</ele>
        <time>2017-08-29T12:21:35Z</time>
      </trkpt>
      <trkpt lat="45.74171" lon="6.73864">
        <ele>2526.96</ele>
        <time>2017-08-29T12:21:36Z</time>
      </trkpt>
      <trkpt lat="45.7417" lon="6.73863">
        <ele>2526.96</ele>
        <time>2017-08-29T12:21:37Z</time>
      </trkpt>
      <trkpt lat="45.74169" lon="6.73861">
        <ele>2527.44</ele>
        <time>2017-08-29T12:21:38Z</time>
      </trkpt>
      <trkpt lat="45.74168" lon="6.73859">
        <ele>2527.92</ele>
        <time>2017-08-29T12:21:40Z</time>
      </trkpt>
      <trkpt lat="45.74167" lon="6.73858">
        <ele>2527.92</ele>
        <time>2017-08-29T12:21:41Z</time>
      </trkpt>
      <trkpt lat="45.74153" lon="6.73846">
        <ele>2530.81</ele>
        <time>2017-08-29T12:21:59Z</time>
      </trkpt>
      <trkpt lat="45.74145" lon="6.73837">
        <ele>2534.17</ele>
        <time>2017-08-29T12:22:11Z</time>
      </trkpt>
      <trkpt lat="45.74137" lon="6.73835">
        <ele>2535.61</ele>
        <time>2017-08-29T12:22:22Z</time>
      </trkpt>
      <trkpt lat="45.74127" lon="6.73838">
        <ele>2538.5</ele>
        <time>2017-08-29T12:22:41Z</time>
      </trkpt>
      <trkpt lat="45.74124" lon="6.73843">
        <ele>2539.94</ele>
        <time>2017-08-29T12:22:47Z</time>
      </trkpt>
      <trkpt lat="45.7412" lon="6.73843">
        <ele>2539.94</ele>
        <time>2017-08-29T12:22:52Z</time>
      </trkpt>
      <trkpt lat="45.7412" lon="6.73841">
        <ele>2539.46</ele>
        <time>2017-08-29T12:22:54Z</time>
      </trkpt>
      <trkpt lat="45.7412" lon="6.73839">
        <ele>2539.94</ele>
        <time>2017-08-29T12:23:06Z</time>
      </trkpt>
      <trkpt lat="45.74121" lon="6.7384">
        <ele>2539.94</ele>
        <time>2017-08-29T12:23:13Z</time>
      </trkpt>
      <trkpt lat="45.74121" lon="6.73841">
        <ele>2539.94</ele>
        <time>2017-08-29T12:23:18Z</time>
      </trkpt>
      <trkpt lat="45.74121" lon="6.73842">
        <ele>2539.94</ele>
        <time>2017-08-29T12:23:21Z</time>
      </trkpt>
      <trkpt lat="45.74122" lon="6.7384">
        <ele>2539.94</ele>
        <time>2017-08-29T12:23:25Z</time>
      </trkpt>
      <trkpt lat="45.74123" lon="6.73837">
        <ele>2539.46</ele>
        <time>2017-08-29T12:23:29Z</time>
      </trkpt>
      <trkpt lat="45.74124" lon="6.73839">
        <ele>2539.46</ele>
        <time>2017-08-29T12:23:34Z</time>
      </trkpt>
      <trkpt lat="45.74124" lon="6.73836">
        <ele>2539.94</ele>
        <time>2017-08-29T12:23:41Z</time>
      </trkpt>
      <trkpt lat="45.74123" lon="6.73838">
        <ele>2539.46</ele>
        <time>2017-08-29T12:23:46Z</time>
      </trkpt>
      <trkpt lat="45.74121" lon="6.73835">
        <ele>2539.46</ele>
        <time>2017-08-29T12:23:56Z</time>
      </trkpt>
      <trkpt lat="45.7412" lon="6.73834">
        <ele>2539.46</ele>
        <time>2017-08-29T12:24:03Z</time>
      </trkpt>
      <trkpt lat="45.74115" lon="6.73831">
        <ele>2539.46</ele>
        <time>2017-08-29T12:24:22Z</time>
      </trkpt>
      <trkpt lat="45.74109" lon="6.73825">
        <ele>2538.98</ele>
        <time>2017-08-29T12:24:32Z</time>
      </trkpt>
      <trkpt lat="45.74108" lon="6.73825">
        <ele>2538.98</ele>
        <time>2017-08-29T12:24:39Z</time>
      </trkpt>
      <trkpt lat="45.74107" lon="6.73823">
        <ele>2538.02</ele>
        <time>2017-08-29T12:24:45Z</time>
      </trkpt>
      <trkpt lat="45.74105" lon="6.73823">
        <ele>2538.02</ele>
        <time>2017-08-29T12:24:47Z</time>
      </trkpt>
      <trkpt lat="45.74104" lon="6.73823">
        <ele>2537.54</ele>
        <time>2017-08-29T12:24:48Z</time>
      </trkpt>
      <trkpt lat="45.74103" lon="6.73822">
        <ele>2537.06</ele>
        <time>2017-08-29T12:24:49Z</time>
      </trkpt>
      <trkpt lat="45.74095" lon="6.73819">
        <ele>2538.02</ele>
        <time>2017-08-29T12:24:58Z</time>
      </trkpt>
      <trkpt lat="45.74093" lon="6.73819">
        <ele>2538.98</ele>
        <time>2017-08-29T12:25:03Z</time>
      </trkpt>
      <trkpt lat="45.74091" lon="6.73818">
        <ele>2538.5</ele>
        <time>2017-08-29T12:25:07Z</time>
      </trkpt>
      <trkpt lat="45.7409" lon="6.73817">
        <ele>2538.02</ele>
        <time>2017-08-29T12:25:08Z</time>
      </trkpt>
      <trkpt lat="45.7409" lon="6.73816">
        <ele>2538.02</ele>
        <time>2017-08-29T12:25:09Z</time>
      </trkpt>
      <trkpt lat="45.74089" lon="6.73813">
        <ele>2538.02</ele>
        <time>2017-08-29T12:25:12Z</time>
      </trkpt>
      <trkpt lat="45.74089" lon="6.73812">
        <ele>2538.02</ele>
        <time>2017-08-29T12:25:13Z</time>
      </trkpt>
      <trkpt lat="45.74085" lon="6.7381">
        <ele>2538.98</ele>
        <time>2017-08-29T12:25:19Z</time>
      </trkpt>
      <trkpt lat="45.74083" lon="6.73807">
        <ele>2539.46</ele>
        <time>2017-08-29T12:25:22Z</time>
      </trkpt>
      <trkpt lat="45.74082" lon="6.73807">
        <ele>2539.94</ele>
        <time>2017-08-29T12:25:23Z</time>
      </trkpt>
      <trkpt lat="45.74081" lon="6.73806">
        <ele>2539.94</ele>
        <time>2017-08-29T12:25:24Z</time>
      </trkpt>
      <trkpt lat="45.7408" lon="6.73806">
        <ele>2539.94</ele>
        <time>2017-08-29T12:25:25Z</time>
      </trkpt>
      <trkpt lat="45.74079" lon="6.73805">
        <ele>2539.94</ele>
        <time>2017-08-29T12:25:26Z</time>
      </trkpt>
      <trkpt lat="45.74077" lon="6.73804">
        <ele>2539.94</ele>
        <time>2017-08-29T12:25:27Z</time>
      </trkpt>
      <trkpt lat="45.74076" lon="6.73802">
        <ele>2539.94</ele>
        <time>2017-08-29T12:25:28Z</time>
      </trkpt>
      <trkpt lat="45.74074" lon="6.73802">
        <ele>2539.46</ele>
        <time>2017-08-29T12:25:31Z</time>
      </trkpt>
      <trkpt lat="45.74071" lon="6.73803">
        <ele>2538.98</ele>
        <time>2017-08-29T12:25:37Z</time>
      </trkpt>
      <trkpt lat="45.7407" lon="6.73803">
        <ele>2538.98</ele>
        <time>2017-08-29T12:25:38Z</time>
      </trkpt>
      <trkpt lat="45.74066" lon="6.738">
        <ele>2539.46</ele>
        <time>2017-08-29T12:25:42Z</time>
      </trkpt>
      <trkpt lat="45.74064" lon="6.73795">
        <ele>2540.42</ele>
        <time>2017-08-29T12:25:47Z</time>
      </trkpt>
      <trkpt lat="45.74064" lon="6.73795">
        <ele>2540.42</ele>
        <time>2017-08-29T12:25:48Z</time>
      </trkpt>
      <trkpt lat="45.74063" lon="6.73793">
        <ele>2540.9</ele>
        <time>2017-08-29T12:25:49Z</time>
      </trkpt>
      <trkpt lat="45.74063" lon="6.73792">
        <ele>2541.38</ele>
        <time>2017-08-29T12:25:50Z</time>
      </trkpt>
      <trkpt lat="45.74062" lon="6.73791">
        <ele>2541.38</ele>
        <time>2017-08-29T12:25:51Z</time>
      </trkpt>
      <trkpt lat="45.7406" lon="6.73788">
        <ele>2542.34</ele>
        <time>2017-08-29T12:25:55Z</time>
      </trkpt>
      <trkpt lat="45.74059" lon="6.73787">
        <ele>2542.34</ele>
        <time>2017-08-29T12:25:56Z</time>
      </trkpt>
      <trkpt lat="45.74056" lon="6.73785">
        <ele>2543.31</ele>
        <time>2017-08-29T12:26:00Z</time>
      </trkpt>
      <trkpt lat="45.74051" lon="6.73782">
        <ele>2543.79</ele>
        <time>2017-08-29T12:26:05Z</time>
      </trkpt>
      <trkpt lat="45.7405" lon="6.73782">
        <ele>2543.79</ele>
        <time>2017-08-29T12:26:06Z</time>
      </trkpt>
      <trkpt lat="45.74049" lon="6.73782">
        <ele>2544.27</ele>
        <time>2017-08-29T12:26:07Z</time>
      </trkpt>
      <trkpt lat="45.74044" lon="6.73779">
        <ele>2544.75</ele>
        <time>2017-08-29T12:26:12Z</time>
      </trkpt>
      <trkpt lat="45.74037" lon="6.73773">
        <ele>2544.75</ele>
        <time>2017-08-29T12:26:18Z</time>
      </trkpt>
      <trkpt lat="45.74023" lon="6.73753">
        <ele>2544.27</ele>
        <time>2017-08-29T12:26:29Z</time>
      </trkpt>
      <trkpt lat="45.74015" lon="6.73742">
        <ele>2543.31</ele>
        <time>2017-08-29T12:26:35Z</time>
      </trkpt>
      <trkpt lat="45.74013" lon="6.73742">
        <ele>2542.82</ele>
        <time>2017-08-29T12:26:36Z</time>
      </trkpt>
      <trkpt lat="45.74011" lon="6.73744">
        <ele>2542.34</ele>
        <time>2017-08-29T12:26:37Z</time>
      </trkpt>
      <trkpt lat="45.74009" lon="6.73745">
        <ele>2541.86</ele>
        <time>2017-08-29T12:26:38Z</time>
      </trkpt>
      <trkpt lat="45.74007" lon="6.73747">
        <ele>2541.86</ele>
        <time>2017-08-29T12:26:39Z</time>
      </trkpt>
      <trkpt lat="45.74005" lon="6.73748">
        <ele>2541.86</ele>
        <time>2017-08-29T12:26:41Z</time>
      </trkpt>
      <trkpt lat="45.74" lon="6.73748">
        <ele>2545.23</ele>
        <time>2017-08-29T12:26:51Z</time>
      </trkpt>
      <trkpt lat="45.74" lon="6.73743">
        <ele>2546.67</ele>
        <time>2017-08-29T12:26:56Z</time>
      </trkpt>
      <trkpt lat="45.74" lon="6.73742">
        <ele>2547.15</ele>
        <time>2017-08-29T12:26:57Z</time>
      </trkpt>
      <trkpt lat="45.74001" lon="6.7374">
        <ele>2547.63</ele>
        <time>2017-08-29T12:26:59Z</time>
      </trkpt>
      <trkpt lat="45.74001" lon="6.73739">
        <ele>2547.63</ele>
        <time>2017-08-29T12:27:00Z</time>
      </trkpt>
      <trkpt lat="45.73999" lon="6.73734">
        <ele>2548.59</ele>
        <time>2017-08-29T12:27:05Z</time>
      </trkpt>
      <trkpt lat="45.73996" lon="6.7373">
        <ele>2550.51</ele>
        <time>2017-08-29T12:27:11Z</time>
      </trkpt>
      <trkpt lat="45.73987" lon="6.73713">
        <ele>2553.4</ele>
        <time>2017-08-29T12:27:27Z</time>
      </trkpt>
      <trkpt lat="45.73981" lon="6.73705">
        <ele>2555.32</ele>
        <time>2017-08-29T12:27:41Z</time>
      </trkpt>
      <trkpt lat="45.73981" lon="6.73704">
        <ele>2555.32</ele>
        <time>2017-08-29T12:27:42Z</time>
      </trkpt>
      <trkpt lat="45.73972" lon="6.7369">
        <ele>2558.21</ele>
        <time>2017-08-29T12:27:59Z</time>
      </trkpt>
      <trkpt lat="45.73967" lon="6.73687">
        <ele>2561.57</ele>
        <time>2017-08-29T12:28:12Z</time>
      </trkpt>
      <trkpt lat="45.73961" lon="6.7368">
        <ele>2564.45</ele>
        <time>2017-08-29T12:28:26Z</time>
      </trkpt>
      <trkpt lat="45.73955" lon="6.73672">
        <ele>2567.34</ele>
        <time>2017-08-29T12:28:40Z</time>
      </trkpt>
      <trkpt lat="45.73953" lon="6.73655">
        <ele>2570.22</ele>
        <time>2017-08-29T12:28:58Z</time>
      </trkpt>
      <trkpt lat="45.73953" lon="6.73653">
        <ele>2570.7</ele>
        <time>2017-08-29T12:28:59Z</time>
      </trkpt>
      <trkpt lat="45.73953" lon="6.7365">
        <ele>2570.7</ele>
        <time>2017-08-29T12:29:01Z</time>
      </trkpt>
      <trkpt lat="45.73953" lon="6.73649">
        <ele>2571.18</ele>
        <time>2017-08-29T12:29:02Z</time>
      </trkpt>
      <trkpt lat="45.73951" lon="6.73634">
        <ele>2573.11</ele>
        <time>2017-08-29T12:29:13Z</time>
      </trkpt>
      <trkpt lat="45.73952" lon="6.73633">
        <ele>2573.11</ele>
        <time>2017-08-29T12:29:14Z</time>
      </trkpt>
      <trkpt lat="45.73953" lon="6.73632">
        <ele>2573.59</ele>
        <time>2017-08-29T12:29:15Z</time>
      </trkpt>
      <trkpt lat="45.73954" lon="6.7363">
        <ele>2573.59</ele>
        <time>2017-08-29T12:29:17Z</time>
      </trkpt>
      <trkpt lat="45.73956" lon="6.73625">
        <ele>2574.07</ele>
        <time>2017-08-29T12:29:20Z</time>
      </trkpt>
      <trkpt lat="45.73956" lon="6.73624">
        <ele>2574.07</ele>
        <time>2017-08-29T12:29:21Z</time>
      </trkpt>
      <trkpt lat="45.73957" lon="6.73622">
        <ele>2574.55</ele>
        <time>2017-08-29T12:29:22Z</time>
      </trkpt>
      <trkpt lat="45.73957" lon="6.7362">
        <ele>2574.55</ele>
        <time>2017-08-29T12:29:23Z</time>
      </trkpt>
      <trkpt lat="45.73958" lon="6.73618">
        <ele>2575.03</ele>
        <time>2017-08-29T12:29:24Z</time>
      </trkpt>
      <trkpt lat="45.73958" lon="6.73616">
        <ele>2574.55</ele>
        <time>2017-08-29T12:29:25Z</time>
      </trkpt>
      <trkpt lat="45.73959" lon="6.73614">
        <ele>2574.07</ele>
        <time>2017-08-29T12:29:26Z</time>
      </trkpt>
      <trkpt lat="45.73959" lon="6.73613">
        <ele>2573.59</ele>
        <time>2017-08-29T12:29:27Z</time>
      </trkpt>
      <trkpt lat="45.7396" lon="6.73611">
        <ele>2573.59</ele>
        <time>2017-08-29T12:29:28Z</time>
      </trkpt>
      <trkpt lat="45.73961" lon="6.7361">
        <ele>2573.11</ele>
        <time>2017-08-29T12:29:29Z</time>
      </trkpt>
      <trkpt lat="45.73961" lon="6.73609">
        <ele>2573.11</ele>
        <time>2017-08-29T12:29:30Z</time>
      </trkpt>
      <trkpt lat="45.73961" lon="6.73608">
        <ele>2573.11</ele>
        <time>2017-08-29T12:29:31Z</time>
      </trkpt>
      <trkpt lat="45.7396" lon="6.73607">
        <ele>2573.59</ele>
        <time>2017-08-29T12:29:32Z</time>
      </trkpt>
      <trkpt lat="45.7396" lon="6.73606">
        <ele>2573.59</ele>
        <time>2017-08-29T12:29:33Z</time>
      </trkpt>
      <trkpt lat="45.73961" lon="6.73604">
        <ele>2573.59</ele>
        <time>2017-08-29T12:29:34Z</time>
      </trkpt>
      <trkpt lat="45.73961" lon="6.73603">
        <ele>2573.11</ele>
        <time>2017-08-29T12:29:35Z</time>
      </trkpt>
      <trkpt lat="45.73962" lon="6.73601">
        <ele>2573.11</ele>
        <time>2017-08-29T12:29:36Z</time>
      </trkpt>
      <trkpt lat="45.73961" lon="6.73598">
        <ele>2572.63</ele>
        <time>2017-08-29T12:29:38Z</time>
      </trkpt>
      <trkpt lat="45.73961" lon="6.73597">
        <ele>2572.63</ele>
        <time>2017-08-29T12:29:39Z</time>
      </trkpt>
      <trkpt lat="45.73961" lon="6.73595">
        <ele>2573.11</ele>
        <time>2017-08-29T12:29:40Z</time>
      </trkpt>
      <trkpt lat="45.7396" lon="6.73587">
        <ele>2573.59</ele>
        <time>2017-08-29T12:29:45Z</time>
      </trkpt>
      <trkpt lat="45.7396" lon="6.73581">
        <ele>2573.11</ele>
        <time>2017-08-29T12:29:49Z</time>
      </trkpt>
      <trkpt lat="45.73961" lon="6.7358">
        <ele>2573.11</ele>
        <time>2017-08-29T12:29:50Z</time>
      </trkpt>
      <trkpt lat="45.73962" lon="6.73579">
        <ele>2573.59</ele>
        <time>2017-08-29T12:29:51Z</time>
      </trkpt>
      <trkpt lat="45.73963" lon="6.73578">
        <ele>2573.59</ele>
        <time>2017-08-29T12:29:52Z</time>
      </trkpt>
      <trkpt lat="45.73964" lon="6.73577">
        <ele>2573.59</ele>
        <time>2017-08-29T12:29:53Z</time>
      </trkpt>
      <trkpt lat="45.73967" lon="6.73574">
        <ele>2573.59</ele>
        <time>2017-08-29T12:29:56Z</time>
      </trkpt>
      <trkpt lat="45.73972" lon="6.73572">
        <ele>2575.51</ele>
        <time>2017-08-29T12:30:02Z</time>
      </trkpt>
      <trkpt lat="45.73973" lon="6.73573">
        <ele>2575.51</ele>
        <time>2017-08-29T12:30:03Z</time>
      </trkpt>
      <trkpt lat="45.73975" lon="6.73573">
        <ele>2575.51</ele>
        <time>2017-08-29T12:30:04Z</time>
      </trkpt>
      <trkpt lat="45.7399" lon="6.73583">
        <ele>2577.91</ele>
        <time>2017-08-29T12:30:23Z</time>
      </trkpt>
      <trkpt lat="45.74005" lon="6.73585">
        <ele>2578.39</ele>
        <time>2017-08-29T12:30:39Z</time>
      </trkpt>
      <trkpt lat="45.74003" lon="6.73579">
        <ele>2579.35</ele>
        <time>2017-08-29T12:30:48Z</time>
      </trkpt>
      <trkpt lat="45.74003" lon="6.73577">
        <ele>2579.84</ele>
        <time>2017-08-29T12:30:49Z</time>
      </trkpt>
      <trkpt lat="45.74002" lon="6.73575">
        <ele>2579.84</ele>
        <time>2017-08-29T12:30:51Z</time>
      </trkpt>
      <trkpt lat="45.74002" lon="6.73574">
        <ele>2580.32</ele>
        <time>2017-08-29T12:30:52Z</time>
      </trkpt>
      <trkpt lat="45.74001" lon="6.73564">
        <ele>2582.24</ele>
        <time>2017-08-29T12:31:01Z</time>
      </trkpt>
      <trkpt lat="45.73998" lon="6.73561">
        <ele>2583.2</ele>
        <time>2017-08-29T12:31:07Z</time>
      </trkpt>
      <trkpt lat="45.73997" lon="6.7356">
        <ele>2583.2</ele>
        <time>2017-08-29T12:31:08Z</time>
      </trkpt>
      <trkpt lat="45.73997" lon="6.73553">
        <ele>2584.64</ele>
        <time>2017-08-29T12:31:15Z</time>
      </trkpt>
      <trkpt lat="45.73999" lon="6.73549">
        <ele>2586.56</ele>
        <time>2017-08-29T12:31:20Z</time>
      </trkpt>
      <trkpt lat="45.74" lon="6.73549">
        <ele>2586.56</ele>
        <time>2017-08-29T12:31:21Z</time>
      </trkpt>
      <trkpt lat="45.74001" lon="6.73549">
        <ele>2586.56</ele>
        <time>2017-08-29T12:31:22Z</time>
      </trkpt>
      <trkpt lat="45.74002" lon="6.73549">
        <ele>2587.04</ele>
        <time>2017-08-29T12:31:23Z</time>
      </trkpt>
      <trkpt lat="45.74003" lon="6.73549">
        <ele>2587.53</ele>
        <time>2017-08-29T12:31:24Z</time>
      </trkpt>
      <trkpt lat="45.74009" lon="6.73542">
        <ele>2590.41</ele>
        <time>2017-08-29T12:31:41Z</time>
      </trkpt>
      <trkpt lat="45.74006" lon="6.73537">
        <ele>2591.85</ele>
        <time>2017-08-29T12:31:48Z</time>
      </trkpt>
      <trkpt lat="45.74006" lon="6.73536">
        <ele>2592.33</ele>
        <time>2017-08-29T12:31:49Z</time>
      </trkpt>
      <trkpt lat="45.74005" lon="6.73535">
        <ele>2592.33</ele>
        <time>2017-08-29T12:31:50Z</time>
      </trkpt>
      <trkpt lat="45.74005" lon="6.73535">
        <ele>2592.33</ele>
        <time>2017-08-29T12:31:51Z</time>
      </trkpt>
      <trkpt lat="45.74003" lon="6.73533">
        <ele>2592.33</ele>
        <time>2017-08-29T12:31:54Z</time>
      </trkpt>
      <trkpt lat="45.73996" lon="6.73528">
        <ele>2593.77</ele>
        <time>2017-08-29T12:32:02Z</time>
      </trkpt>
      <trkpt lat="45.73995" lon="6.73528">
        <ele>2593.77</ele>
        <time>2017-08-29T12:32:03Z</time>
      </trkpt>
      <trkpt lat="45.73993" lon="6.73526">
        <ele>2594.25</ele>
        <time>2017-08-29T12:32:05Z</time>
      </trkpt>
      <trkpt lat="45.73992" lon="6.73526">
        <ele>2594.74</ele>
        <time>2017-08-29T12:32:06Z</time>
      </trkpt>
      <trkpt lat="45.73986" lon="6.73525">
        <ele>2595.7</ele>
        <time>2017-08-29T12:32:13Z</time>
      </trkpt>
      <trkpt lat="45.73984" lon="6.73524">
        <ele>2596.18</ele>
        <time>2017-08-29T12:32:15Z</time>
      </trkpt>
      <trkpt lat="45.73984" lon="6.73525">
        <ele>2596.18</ele>
        <time>2017-08-29T12:32:16Z</time>
      </trkpt>
      <trkpt lat="45.73983" lon="6.73525">
        <ele>2596.18</ele>
        <time>2017-08-29T12:32:17Z</time>
      </trkpt>
      <trkpt lat="45.73982" lon="6.73524">
        <ele>2596.18</ele>
        <time>2017-08-29T12:32:18Z</time>
      </trkpt>
      <trkpt lat="45.73981" lon="6.73525">
        <ele>2596.18</ele>
        <time>2017-08-29T12:32:19Z</time>
      </trkpt>
      <trkpt lat="45.73979" lon="6.73524">
        <ele>2596.18</ele>
        <time>2017-08-29T12:32:21Z</time>
      </trkpt>
      <trkpt lat="45.73974" lon="6.73522">
        <ele>2595.7</ele>
        <time>2017-08-29T12:32:26Z</time>
      </trkpt>
      <trkpt lat="45.73973" lon="6.73523">
        <ele>2595.7</ele>
        <time>2017-08-29T12:32:27Z</time>
      </trkpt>
      <trkpt lat="45.73972" lon="6.73522">
        <ele>2595.7</ele>
        <time>2017-08-29T12:32:29Z</time>
      </trkpt>
      <trkpt lat="45.7397" lon="6.73516">
        <ele>2597.14</ele>
        <time>2017-08-29T12:32:35Z</time>
      </trkpt>
      <trkpt lat="45.73966" lon="6.73498">
        <ele>2600.02</ele>
        <time>2017-08-29T12:32:51Z</time>
      </trkpt>
      <trkpt lat="45.73966" lon="6.73497">
        <ele>2600.5</ele>
        <time>2017-08-29T12:32:52Z</time>
      </trkpt>
      <trkpt lat="45.73965" lon="6.73496">
        <ele>2600.98</ele>
        <time>2017-08-29T12:32:53Z</time>
      </trkpt>
      <trkpt lat="45.73965" lon="6.73494">
        <ele>2601.46</ele>
        <time>2017-08-29T12:32:54Z</time>
      </trkpt>
      <trkpt lat="45.73964" lon="6.73494">
        <ele>2601.46</ele>
        <time>2017-08-29T12:32:55Z</time>
      </trkpt>
      <trkpt lat="45.73964" lon="6.73493">
        <ele>2601.46</ele>
        <time>2017-08-29T12:32:56Z</time>
      </trkpt>
      <trkpt lat="45.73963" lon="6.73492">
        <ele>2601.46</ele>
        <time>2017-08-29T12:32:57Z</time>
      </trkpt>
      <trkpt lat="45.73962" lon="6.73491">
        <ele>2601.46</ele>
        <time>2017-08-29T12:32:58Z</time>
      </trkpt>
      <trkpt lat="45.73961" lon="6.73487">
        <ele>2601.95</ele>
        <time>2017-08-29T12:33:04Z</time>
      </trkpt>
      <trkpt lat="45.73958" lon="6.73484">
        <ele>2603.87</ele>
        <time>2017-08-29T12:33:11Z</time>
      </trkpt>
      <trkpt lat="45.73952" lon="6.73475">
        <ele>2607.23</ele>
        <time>2017-08-29T12:33:27Z</time>
      </trkpt>
      <trkpt lat="45.73951" lon="6.73471">
        <ele>2607.71</ele>
        <time>2017-08-29T12:33:31Z</time>
      </trkpt>
      <trkpt lat="45.73951" lon="6.7347">
        <ele>2607.71</ele>
        <time>2017-08-29T12:33:32Z</time>
      </trkpt>
      <trkpt lat="45.73951" lon="6.73469">
        <ele>2607.71</ele>
        <time>2017-08-29T12:33:33Z</time>
      </trkpt>
      <trkpt lat="45.7395" lon="6.73468">
        <ele>2607.71</ele>
        <time>2017-08-29T12:33:34Z</time>
      </trkpt>
      <trkpt lat="45.7395" lon="6.73467">
        <ele>2608.19</ele>
        <time>2017-08-29T12:33:35Z</time>
      </trkpt>
      <trkpt lat="45.73947" lon="6.73469">
        <ele>2608.67</ele>
        <time>2017-08-29T12:33:40Z</time>
      </trkpt>
      <trkpt lat="45.73946" lon="6.73468">
        <ele>2609.16</ele>
        <time>2017-08-29T12:33:41Z</time>
      </trkpt>
      <trkpt lat="45.73939" lon="6.73462">
        <ele>2612.04</ele>
        <time>2017-08-29T12:33:55Z</time>
      </trkpt>
      <trkpt lat="45.73933" lon="6.73456">
        <ele>2614.92</ele>
        <time>2017-08-29T12:34:11Z</time>
      </trkpt>
      <trkpt lat="45.73929" lon="6.73456">
        <ele>2616.37</ele>
        <time>2017-08-29T12:34:19Z</time>
      </trkpt>
      <trkpt lat="45.73918" lon="6.73455">
        <ele>2619.73</ele>
        <time>2017-08-29T12:34:41Z</time>
      </trkpt>
      <trkpt lat="45.73913" lon="6.73453">
        <ele>2621.17</ele>
        <time>2017-08-29T12:34:49Z</time>
      </trkpt>
      <trkpt lat="45.73912" lon="6.73452">
        <ele>2621.17</ele>
        <time>2017-08-29T12:34:50Z</time>
      </trkpt>
      <trkpt lat="45.73912" lon="6.73451">
        <ele>2621.17</ele>
        <time>2017-08-29T12:34:51Z</time>
      </trkpt>
      <trkpt lat="45.73912" lon="6.73449">
        <ele>2621.65</ele>
        <time>2017-08-29T12:34:52Z</time>
      </trkpt>
      <trkpt lat="45.7391" lon="6.73436">
        <ele>2624.54</ele>
        <time>2017-08-29T12:35:08Z</time>
      </trkpt>
      <trkpt lat="45.73906" lon="6.7344">
        <ele>2627.42</ele>
        <time>2017-08-29T12:35:26Z</time>
      </trkpt>
      <trkpt lat="45.73903" lon="6.73434">
        <ele>2629.34</ele>
        <time>2017-08-29T12:35:34Z</time>
      </trkpt>
      <trkpt lat="45.73903" lon="6.73433">
        <ele>2629.82</ele>
        <time>2017-08-29T12:35:35Z</time>
      </trkpt>
      <trkpt lat="45.73898" lon="6.73421">
        <ele>2632.71</ele>
        <time>2017-08-29T12:35:51Z</time>
      </trkpt>
      <trkpt lat="45.73889" lon="6.73403">
        <ele>2635.11</ele>
        <time>2017-08-29T12:36:12Z</time>
      </trkpt>
      <trkpt lat="45.73886" lon="6.73398">
        <ele>2635.11</ele>
        <time>2017-08-29T12:36:19Z</time>
      </trkpt>
      <trkpt lat="45.73884" lon="6.73392">
        <ele>2635.11</ele>
        <time>2017-08-29T12:36:26Z</time>
      </trkpt>
      <trkpt lat="45.73881" lon="6.73388">
        <ele>2635.11</ele>
        <time>2017-08-29T12:36:32Z</time>
      </trkpt>
      <trkpt lat="45.73879" lon="6.73388">
        <ele>2635.59</ele>
        <time>2017-08-29T12:36:34Z</time>
      </trkpt>
      <trkpt lat="45.73877" lon="6.73386">
        <ele>2635.59</ele>
        <time>2017-08-29T12:36:37Z</time>
      </trkpt>
      <trkpt lat="45.73866" lon="6.73373">
        <ele>2638.96</ele>
        <time>2017-08-29T12:37:05Z</time>
      </trkpt>
      <trkpt lat="45.73864" lon="6.73371">
        <ele>2639.92</ele>
        <time>2017-08-29T12:37:08Z</time>
      </trkpt>
      <trkpt lat="45.73863" lon="6.73367">
        <ele>2640.4</ele>
        <time>2017-08-29T12:37:12Z</time>
      </trkpt>
      <trkpt lat="45.73862" lon="6.73364">
        <ele>2642.32</ele>
        <time>2017-08-29T12:37:17Z</time>
      </trkpt>
      <trkpt lat="45.73859" lon="6.73353">
        <ele>2643.76</ele>
        <time>2017-08-29T12:37:29Z</time>
      </trkpt>
      <trkpt lat="45.7386" lon="6.73347">
        <ele>2645.21</ele>
        <time>2017-08-29T12:37:34Z</time>
      </trkpt>
      <trkpt lat="45.7386" lon="6.73333">
        <ele>2648.57</ele>
        <time>2017-08-29T12:37:52Z</time>
      </trkpt>
      <trkpt lat="45.73853" lon="6.73325">
        <ele>2651.45</ele>
        <time>2017-08-29T12:38:06Z</time>
      </trkpt>
      <trkpt lat="45.73853" lon="6.73324">
        <ele>2651.93</ele>
        <time>2017-08-29T12:38:07Z</time>
      </trkpt>
      <trkpt lat="45.73848" lon="6.73317">
        <ele>2654.82</ele>
        <time>2017-08-29T12:38:22Z</time>
      </trkpt>
      <trkpt lat="45.73839" lon="6.73303">
        <ele>2655.3</ele>
        <time>2017-08-29T12:38:42Z</time>
      </trkpt>
      <trkpt lat="45.7384" lon="6.73298">
        <ele>2657.22</ele>
        <time>2017-08-29T12:38:48Z</time>
      </trkpt>
      <trkpt lat="45.73838" lon="6.73291">
        <ele>2660.59</ele>
        <time>2017-08-29T12:39:01Z</time>
      </trkpt>
      <trkpt lat="45.73837" lon="6.73291">
        <ele>2660.59</ele>
        <time>2017-08-29T12:39:02Z</time>
      </trkpt>
      <trkpt lat="45.73831" lon="6.73279">
        <ele>2661.55</ele>
        <time>2017-08-29T12:39:25Z</time>
      </trkpt>
      <trkpt lat="45.73832" lon="6.73279">
        <ele>2661.55</ele>
        <time>2017-08-29T12:39:26Z</time>
      </trkpt>
      <trkpt lat="45.73842" lon="6.73275">
        <ele>2664.91</ele>
        <time>2017-08-29T12:39:41Z</time>
      </trkpt>
      <trkpt lat="45.73847" lon="6.73273">
        <ele>2666.35</ele>
        <time>2017-08-29T12:39:48Z</time>
      </trkpt>
      <trkpt lat="45.73844" lon="6.73269">
        <ele>2666.83</ele>
        <time>2017-08-29T12:39:59Z</time>
      </trkpt>
      <trkpt lat="45.73843" lon="6.73267">
        <ele>2667.8</ele>
        <time>2017-08-29T12:40:01Z</time>
      </trkpt>
      <trkpt lat="45.73838" lon="6.7326">
        <ele>2669.72</ele>
        <time>2017-08-29T12:40:11Z</time>
      </trkpt>
      <trkpt lat="45.73837" lon="6.73259">
        <ele>2670.2</ele>
        <time>2017-08-29T12:40:12Z</time>
      </trkpt>
      <trkpt lat="45.73822" lon="6.73255">
        <ele>2673.08</ele>
        <time>2017-08-29T12:40:33Z</time>
      </trkpt>
      <trkpt lat="45.73819" lon="6.73256">
        <ele>2674.04</ele>
        <time>2017-08-29T12:40:37Z</time>
      </trkpt>
      <trkpt lat="45.7381" lon="6.73258">
        <ele>2675.97</ele>
        <time>2017-08-29T12:40:50Z</time>
      </trkpt>
      <trkpt lat="45.7381" lon="6.73255">
        <ele>2676.45</ele>
        <time>2017-08-29T12:40:54Z</time>
      </trkpt>
      <trkpt lat="45.73811" lon="6.73241">
        <ele>2677.89</ele>
        <time>2017-08-29T12:41:05Z</time>
      </trkpt>
      <trkpt lat="45.73812" lon="6.73233">
        <ele>2680.29</ele>
        <time>2017-08-29T12:41:13Z</time>
      </trkpt>
      <trkpt lat="45.7381" lon="6.73227">
        <ele>2683.66</ele>
        <time>2017-08-29T12:41:24Z</time>
      </trkpt>
      <trkpt lat="45.73807" lon="6.73227">
        <ele>2685.1</ele>
        <time>2017-08-29T12:41:28Z</time>
      </trkpt>
      <trkpt lat="45.73806" lon="6.73228">
        <ele>2685.58</ele>
        <time>2017-08-29T12:41:30Z</time>
      </trkpt>
      <trkpt lat="45.73805" lon="6.73228">
        <ele>2685.58</ele>
        <time>2017-08-29T12:41:31Z</time>
      </trkpt>
      <trkpt lat="45.738" lon="6.73224">
        <ele>2686.06</ele>
        <time>2017-08-29T12:41:39Z</time>
      </trkpt>
      <trkpt lat="45.73799" lon="6.73223">
        <ele>2686.06</ele>
        <time>2017-08-29T12:41:40Z</time>
      </trkpt>
      <trkpt lat="45.73794" lon="6.73212">
        <ele>2685.1</ele>
        <time>2017-08-29T12:41:49Z</time>
      </trkpt>
      <trkpt lat="45.73784" lon="6.73203">
        <ele>2684.62</ele>
        <time>2017-08-29T12:42:00Z</time>
      </trkpt>
      <trkpt lat="45.7378" lon="6.73195">
        <ele>2684.14</ele>
        <time>2017-08-29T12:42:06Z</time>
      </trkpt>
      <trkpt lat="45.73771" lon="6.73181">
        <ele>2686.54</ele>
        <time>2017-08-29T12:42:20Z</time>
      </trkpt>
      <trkpt lat="45.73766" lon="6.73167">
        <ele>2687.5</ele>
        <time>2017-08-29T12:42:31Z</time>
      </trkpt>
      <trkpt lat="45.73766" lon="6.73166">
        <ele>2687.98</ele>
        <time>2017-08-29T12:42:32Z</time>
      </trkpt>
      <trkpt lat="45.73763" lon="6.73159">
        <ele>2690.39</ele>
        <time>2017-08-29T12:42:40Z</time>
      </trkpt>
      <trkpt lat="45.73763" lon="6.73158">
        <ele>2690.39</ele>
        <time>2017-08-29T12:42:41Z</time>
      </trkpt>
      <trkpt lat="45.7376" lon="6.73154">
        <ele>2691.35</ele>
        <time>2017-08-29T12:42:47Z</time>
      </trkpt>
      <trkpt lat="45.73759" lon="6.73147">
        <ele>2693.27</ele>
        <time>2017-08-29T12:42:53Z</time>
      </trkpt>
      <trkpt lat="45.73758" lon="6.73146">
        <ele>2693.27</ele>
        <time>2017-08-29T12:42:54Z</time>
      </trkpt>
      <trkpt lat="45.73757" lon="6.73145">
        <ele>2693.75</ele>
        <time>2017-08-29T12:42:55Z</time>
      </trkpt>
      <trkpt lat="45.73757" lon="6.73144">
        <ele>2693.75</ele>
        <time>2017-08-29T12:42:56Z</time>
      </trkpt>
      <trkpt lat="45.73756" lon="6.73143">
        <ele>2694.23</ele>
        <time>2017-08-29T12:42:57Z</time>
      </trkpt>
      <trkpt lat="45.73756" lon="6.73142">
        <ele>2694.23</ele>
        <time>2017-08-29T12:42:58Z</time>
      </trkpt>
      <trkpt lat="45.73755" lon="6.7314">
        <ele>2694.23</ele>
        <time>2017-08-29T12:42:59Z</time>
      </trkpt>
      <trkpt lat="45.73755" lon="6.73139">
        <ele>2694.71</ele>
        <time>2017-08-29T12:43:00Z</time>
      </trkpt>
      <trkpt lat="45.73751" lon="6.73131">
        <ele>2695.67</ele>
        <time>2017-08-29T12:43:09Z</time>
      </trkpt>
      <trkpt lat="45.73751" lon="6.7313">
        <ele>2695.67</ele>
        <time>2017-08-29T12:43:10Z</time>
      </trkpt>
      <trkpt lat="45.73751" lon="6.73129">
        <ele>2695.19</ele>
        <time>2017-08-29T12:43:11Z</time>
      </trkpt>
      <trkpt lat="45.7375" lon="6.73127">
        <ele>2694.71</ele>
        <time>2017-08-29T12:43:12Z</time>
      </trkpt>
      <trkpt lat="45.7375" lon="6.73125">
        <ele>2694.71</ele>
        <time>2017-08-29T12:43:14Z</time>
      </trkpt>
      <trkpt lat="45.73751" lon="6.73123">
        <ele>2695.19</ele>
        <time>2017-08-29T12:43:15Z</time>
      </trkpt>
      <trkpt lat="45.73752" lon="6.73122">
        <ele>2695.19</ele>
        <time>2017-08-29T12:43:17Z</time>
      </trkpt>
      <trkpt lat="45.73753" lon="6.73121">
        <ele>2695.19</ele>
        <time>2017-08-29T12:43:18Z</time>
      </trkpt>
      <trkpt lat="45.73754" lon="6.7312">
        <ele>2695.67</ele>
        <time>2017-08-29T12:43:19Z</time>
      </trkpt>
      <trkpt lat="45.73757" lon="6.73114">
        <ele>2697.12</ele>
        <time>2017-08-29T12:43:26Z</time>
      </trkpt>
      <trkpt lat="45.73759" lon="6.73109">
        <ele>2698.56</ele>
        <time>2017-08-29T12:43:34Z</time>
      </trkpt>
      <trkpt lat="45.73761" lon="6.73105">
        <ele>2699.04</ele>
        <time>2017-08-29T12:43:42Z</time>
      </trkpt>
      <trkpt lat="45.73766" lon="6.73095">
        <ele>2702.4</ele>
        <time>2017-08-29T12:43:56Z</time>
      </trkpt>
      <trkpt lat="45.73771" lon="6.73096">
        <ele>2704.33</ele>
        <time>2017-08-29T12:44:06Z</time>
      </trkpt>
      <trkpt lat="45.73775" lon="6.73084">
        <ele>2707.21</ele>
        <time>2017-08-29T12:44:21Z</time>
      </trkpt>
      <trkpt lat="45.73773" lon="6.73058">
        <ele>2709.13</ele>
        <time>2017-08-29T12:44:40Z</time>
      </trkpt>
      <trkpt lat="45.73773" lon="6.73041">
        <ele>2710.09</ele>
        <time>2017-08-29T12:44:52Z</time>
      </trkpt>
      <trkpt lat="45.73777" lon="6.7304">
        <ele>2710.57</ele>
        <time>2017-08-29T12:45:01Z</time>
      </trkpt>
      <trkpt lat="45.73777" lon="6.73041">
        <ele>2710.57</ele>
        <time>2017-08-29T12:45:02Z</time>
      </trkpt>
      <trkpt lat="45.73778" lon="6.73042">
        <ele>2710.57</ele>
        <time>2017-08-29T12:45:03Z</time>
      </trkpt>
      <trkpt lat="45.7378" lon="6.73043">
        <ele>2711.54</ele>
        <time>2017-08-29T12:45:06Z</time>
      </trkpt>
      <trkpt lat="45.73791" lon="6.73045">
        <ele>2713.46</ele>
        <time>2017-08-29T12:45:21Z</time>
      </trkpt>
      <trkpt lat="45.7379" lon="6.73041">
        <ele>2712.98</ele>
        <time>2017-08-29T12:45:25Z</time>
      </trkpt>
      <trkpt lat="45.73789" lon="6.73039">
        <ele>2712.98</ele>
        <time>2017-08-29T12:45:26Z</time>
      </trkpt>
      <trkpt lat="45.73788" lon="6.73038">
        <ele>2712.5</ele>
        <time>2017-08-29T12:45:27Z</time>
      </trkpt>
      <trkpt lat="45.73784" lon="6.73032">
        <ele>2712.5</ele>
        <time>2017-08-29T12:45:31Z</time>
      </trkpt>
      <trkpt lat="45.73782" lon="6.73025">
        <ele>2712.02</ele>
        <time>2017-08-29T12:45:37Z</time>
      </trkpt>
      <trkpt lat="45.73782" lon="6.73023">
        <ele>2712.02</ele>
        <time>2017-08-29T12:45:38Z</time>
      </trkpt>
      <trkpt lat="45.7378" lon="6.73017">
        <ele>2711.54</ele>
        <time>2017-08-29T12:45:43Z</time>
      </trkpt>
      <trkpt lat="45.73779" lon="6.73011">
        <ele>2712.02</ele>
        <time>2017-08-29T12:45:49Z</time>
      </trkpt>
      <trkpt lat="45.73775" lon="6.73004">
        <ele>2710.57</ele>
        <time>2017-08-29T12:45:54Z</time>
      </trkpt>
      <trkpt lat="45.73776" lon="6.73003">
        <ele>2710.09</ele>
        <time>2017-08-29T12:45:55Z</time>
      </trkpt>
      <trkpt lat="45.73776" lon="6.73002">
        <ele>2709.61</ele>
        <time>2017-08-29T12:45:56Z</time>
      </trkpt>
      <trkpt lat="45.73776" lon="6.73">
        <ele>2710.09</ele>
        <time>2017-08-29T12:45:57Z</time>
      </trkpt>
      <trkpt lat="45.73776" lon="6.72999">
        <ele>2710.09</ele>
        <time>2017-08-29T12:45:58Z</time>
      </trkpt>
      <trkpt lat="45.73776" lon="6.72997">
        <ele>2710.57</ele>
        <time>2017-08-29T12:45:59Z</time>
      </trkpt>
      <trkpt lat="45.73775" lon="6.72989">
        <ele>2711.06</ele>
        <time>2017-08-29T12:46:05Z</time>
      </trkpt>
      <trkpt lat="45.73774" lon="6.72988">
        <ele>2710.57</ele>
        <time>2017-08-29T12:46:06Z</time>
      </trkpt>
      <trkpt lat="45.73772" lon="6.72986">
        <ele>2709.61</ele>
        <time>2017-08-29T12:46:10Z</time>
      </trkpt>
      <trkpt lat="45.73771" lon="6.72985">
        <ele>2709.61</ele>
        <time>2017-08-29T12:46:11Z</time>
      </trkpt>
      <trkpt lat="45.73769" lon="6.72982">
        <ele>2710.09</ele>
        <time>2017-08-29T12:46:13Z</time>
      </trkpt>
      <trkpt lat="45.73768" lon="6.72981">
        <ele>2710.09</ele>
        <time>2017-08-29T12:46:14Z</time>
      </trkpt>
      <trkpt lat="45.73767" lon="6.72979">
        <ele>2709.61</ele>
        <time>2017-08-29T12:46:15Z</time>
      </trkpt>
      <trkpt lat="45.73765" lon="6.7297">
        <ele>2708.17</ele>
        <time>2017-08-29T12:46:19Z</time>
      </trkpt>
      <trkpt lat="45.73754" lon="6.72946">
        <ele>2705.29</ele>
        <time>2017-08-29T12:46:28Z</time>
      </trkpt>
      <trkpt lat="45.73744" lon="6.72933">
        <ele>2704.81</ele>
        <time>2017-08-29T12:46:34Z</time>
      </trkpt>
      <trkpt lat="45.7374" lon="6.7293">
        <ele>2704.33</ele>
        <time>2017-08-29T12:46:37Z</time>
      </trkpt>
      <trkpt lat="45.73738" lon="6.72927">
        <ele>2704.33</ele>
        <time>2017-08-29T12:46:38Z</time>
      </trkpt>
      <trkpt lat="45.7373" lon="6.72905">
        <ele>2704.81</ele>
        <time>2017-08-29T12:46:47Z</time>
      </trkpt>
      <trkpt lat="45.73726" lon="6.72887">
        <ele>2705.77</ele>
        <time>2017-08-29T12:46:54Z</time>
      </trkpt>
      <trkpt lat="45.73726" lon="6.72885">
        <ele>2705.77</ele>
        <time>2017-08-29T12:46:55Z</time>
      </trkpt>
      <trkpt lat="45.73726" lon="6.72884">
        <ele>2706.25</ele>
        <time>2017-08-29T12:46:56Z</time>
      </trkpt>
      <trkpt lat="45.73726" lon="6.72882">
        <ele>2706.73</ele>
        <time>2017-08-29T12:46:57Z</time>
      </trkpt>
      <trkpt lat="45.73727" lon="6.72881">
        <ele>2706.73</ele>
        <time>2017-08-29T12:46:58Z</time>
      </trkpt>
      <trkpt lat="45.73727" lon="6.72879">
        <ele>2706.73</ele>
        <time>2017-08-29T12:46:59Z</time>
      </trkpt>
      <trkpt lat="45.73728" lon="6.72878">
        <ele>2706.73</ele>
        <time>2017-08-29T12:47:00Z</time>
      </trkpt>
      <trkpt lat="45.73729" lon="6.72879">
        <ele>2708.17</ele>
        <time>2017-08-29T12:47:10Z</time>
      </trkpt>
      <trkpt lat="45.73728" lon="6.72879">
        <ele>2707.69</ele>
        <time>2017-08-29T12:47:11Z</time>
      </trkpt>
      <trkpt lat="45.73727" lon="6.7288">
        <ele>2707.21</ele>
        <time>2017-08-29T12:47:12Z</time>
      </trkpt>
      <trkpt lat="45.73726" lon="6.7288">
        <ele>2706.73</ele>
        <time>2017-08-29T12:47:13Z</time>
      </trkpt>
      <trkpt lat="45.73725" lon="6.72881">
        <ele>2706.73</ele>
        <time>2017-08-29T12:47:14Z</time>
      </trkpt>
      <trkpt lat="45.73723" lon="6.7288">
        <ele>2706.25</ele>
        <time>2017-08-29T12:47:15Z</time>
      </trkpt>
      <trkpt lat="45.73722" lon="6.7288">
        <ele>2705.77</ele>
        <time>2017-08-29T12:47:16Z</time>
      </trkpt>
      <trkpt lat="45.73713" lon="6.72877">
        <ele>2706.25</ele>
        <time>2017-08-29T12:47:26Z</time>
      </trkpt>
      <trkpt lat="45.73712" lon="6.72876">
        <ele>2706.25</ele>
        <time>2017-08-29T12:47:27Z</time>
      </trkpt>
      <trkpt lat="45.73712" lon="6.72874">
        <ele>2706.25</ele>
        <time>2017-08-29T12:47:28Z</time>
      </trkpt>
      <trkpt lat="45.73713" lon="6.72871">
        <ele>2706.25</ele>
        <time>2017-08-29T12:47:31Z</time>
      </trkpt>
      <trkpt lat="45.73715" lon="6.72867">
        <ele>2707.21</ele>
        <time>2017-08-29T12:47:35Z</time>
      </trkpt>
      <trkpt lat="45.73715" lon="6.72866">
        <ele>2707.69</ele>
        <time>2017-08-29T12:47:36Z</time>
      </trkpt>
      <trkpt lat="45.73723" lon="6.72851">
        <ele>2710.57</ele>
        <time>2017-08-29T12:47:50Z</time>
      </trkpt>
      <trkpt lat="45.73723" lon="6.72849">
        <ele>2711.54</ele>
        <time>2017-08-29T12:47:52Z</time>
      </trkpt>
      <trkpt lat="45.7372" lon="6.72845">
        <ele>2712.5</ele>
        <time>2017-08-29T12:47:58Z</time>
      </trkpt>
      <trkpt lat="45.73717" lon="6.72845">
        <ele>2712.98</ele>
        <time>2017-08-29T12:48:01Z</time>
      </trkpt>
      <trkpt lat="45.73716" lon="6.72846">
        <ele>2713.46</ele>
        <time>2017-08-29T12:48:02Z</time>
      </trkpt>
      <trkpt lat="45.73715" lon="6.72846">
        <ele>2713.94</ele>
        <time>2017-08-29T12:48:03Z</time>
      </trkpt>
      <trkpt lat="45.7371" lon="6.72846">
        <ele>2715.38</ele>
        <time>2017-08-29T12:48:10Z</time>
      </trkpt>
      <trkpt lat="45.73697" lon="6.7285">
        <ele>2718.75</ele>
        <time>2017-08-29T12:48:29Z</time>
      </trkpt>
      <trkpt lat="45.73684" lon="6.72849">
        <ele>2721.63</ele>
        <time>2017-08-29T12:48:49Z</time>
      </trkpt>
      <trkpt lat="45.73677" lon="6.72836">
        <ele>2724.51</ele>
        <time>2017-08-29T12:49:08Z</time>
      </trkpt>
      <trkpt lat="45.73681" lon="6.72834">
        <ele>2725.48</ele>
        <time>2017-08-29T12:49:14Z</time>
      </trkpt>
      <trkpt lat="45.73688" lon="6.72825">
        <ele>2727.88</ele>
        <time>2017-08-29T12:49:31Z</time>
      </trkpt>
      <trkpt lat="45.73687" lon="6.72824">
        <ele>2728.36</ele>
        <time>2017-08-29T12:49:32Z</time>
      </trkpt>
      <trkpt lat="45.73681" lon="6.72816">
        <ele>2731.24</ele>
        <time>2017-08-29T12:49:45Z</time>
      </trkpt>
      <trkpt lat="45.73677" lon="6.72809">
        <ele>2732.2</ele>
        <time>2017-08-29T12:49:51Z</time>
      </trkpt>
      <trkpt lat="45.73676" lon="6.72808">
        <ele>2732.2</ele>
        <time>2017-08-29T12:49:52Z</time>
      </trkpt>
      <trkpt lat="45.73676" lon="6.72807">
        <ele>2732.2</ele>
        <time>2017-08-29T12:49:53Z</time>
      </trkpt>
      <trkpt lat="45.73674" lon="6.72803">
        <ele>2732.2</ele>
        <time>2017-08-29T12:49:56Z</time>
      </trkpt>
      <trkpt lat="45.73674" lon="6.72801">
        <ele>2732.2</ele>
        <time>2017-08-29T12:49:57Z</time>
      </trkpt>
      <trkpt lat="45.73666" lon="6.72783">
        <ele>2734.61</ele>
        <time>2017-08-29T12:50:16Z</time>
      </trkpt>
      <trkpt lat="45.73665" lon="6.72776">
        <ele>2737.97</ele>
        <time>2017-08-29T12:50:30Z</time>
      </trkpt>
      <trkpt lat="45.73666" lon="6.72773">
        <ele>2740.86</ele>
        <time>2017-08-29T12:50:42Z</time>
      </trkpt>
      <trkpt lat="45.73663" lon="6.72765">
        <ele>2743.26</ele>
        <time>2017-08-29T12:50:57Z</time>
      </trkpt>
      <trkpt lat="45.73662" lon="6.72758">
        <ele>2744.22</ele>
        <time>2017-08-29T12:51:10Z</time>
      </trkpt>
      <trkpt lat="45.73661" lon="6.72756">
        <ele>2743.74</ele>
        <time>2017-08-29T12:51:11Z</time>
      </trkpt>
      <trkpt lat="45.73661" lon="6.72755">
        <ele>2743.74</ele>
        <time>2017-08-29T12:51:12Z</time>
      </trkpt>
      <trkpt lat="45.73661" lon="6.72753">
        <ele>2743.74</ele>
        <time>2017-08-29T12:51:13Z</time>
      </trkpt>
      <trkpt lat="45.7366" lon="6.72751">
        <ele>2743.74</ele>
        <time>2017-08-29T12:51:14Z</time>
      </trkpt>
      <trkpt lat="45.73659" lon="6.7275">
        <ele>2744.22</ele>
        <time>2017-08-29T12:51:15Z</time>
      </trkpt>
      <trkpt lat="45.73659" lon="6.72748">
        <ele>2744.22</ele>
        <time>2017-08-29T12:51:16Z</time>
      </trkpt>
      <trkpt lat="45.73655" lon="6.72736">
        <ele>2744.7</ele>
        <time>2017-08-29T12:51:24Z</time>
      </trkpt>
      <trkpt lat="45.73649" lon="6.72727">
        <ele>2744.7</ele>
        <time>2017-08-29T12:51:31Z</time>
      </trkpt>
      <trkpt lat="45.73641" lon="6.72715">
        <ele>2745.18</ele>
        <time>2017-08-29T12:51:39Z</time>
      </trkpt>
      <trkpt lat="45.73628" lon="6.72694">
        <ele>2745.18</ele>
        <time>2017-08-29T12:51:51Z</time>
      </trkpt>
      <trkpt lat="45.73611" lon="6.72675">
        <ele>2746.62</ele>
        <time>2017-08-29T12:52:00Z</time>
      </trkpt>
      <trkpt lat="45.73598" lon="6.72657">
        <ele>2746.14</ele>
        <time>2017-08-29T12:52:08Z</time>
      </trkpt>
      <trkpt lat="45.73587" lon="6.72643">
        <ele>2749.03</ele>
        <time>2017-08-29T12:52:17Z</time>
      </trkpt>
      <trkpt lat="45.73581" lon="6.72636">
        <ele>2751.43</ele>
        <time>2017-08-29T12:52:23Z</time>
      </trkpt>
      <trkpt lat="45.73573" lon="6.7263">
        <ele>2752.87</ele>
        <time>2017-08-29T12:52:29Z</time>
      </trkpt>
      <trkpt lat="45.7356" lon="6.72617">
        <ele>2753.83</ele>
        <time>2017-08-29T12:52:38Z</time>
      </trkpt>
      <trkpt lat="45.7355" lon="6.72603">
        <ele>2753.35</ele>
        <time>2017-08-29T12:52:46Z</time>
      </trkpt>
      <trkpt lat="45.73548" lon="6.72598">
        <ele>2754.31</ele>
        <time>2017-08-29T12:53:00Z</time>
      </trkpt>
      <trkpt lat="45.73549" lon="6.72598">
        <ele>2754.31</ele>
        <time>2017-08-29T12:53:08Z</time>
      </trkpt>
      <trkpt lat="45.7355" lon="6.726">
        <ele>2754.31</ele>
        <time>2017-08-29T12:53:13Z</time>
      </trkpt>
      <trkpt lat="45.7355" lon="6.72601">
        <ele>2754.31</ele>
        <time>2017-08-29T12:53:17Z</time>
      </trkpt>
      <trkpt lat="45.7355" lon="6.726">
        <ele>2754.31</ele>
        <time>2017-08-29T12:53:19Z</time>
      </trkpt>
      <trkpt lat="45.7355" lon="6.72601">
        <ele>2754.8</ele>
        <time>2017-08-29T12:53:21Z</time>
      </trkpt>
      <trkpt lat="45.7355" lon="6.72601">
        <ele>2754.8</ele>
        <time>2017-08-29T12:53:23Z</time>
      </trkpt>
      <trkpt lat="45.7355" lon="6.72601">
        <ele>2754.8</ele>
        <time>2017-08-29T12:53:25Z</time>
      </trkpt>
      <trkpt lat="45.7355" lon="6.72601">
        <ele>2754.31</ele>
        <time>2017-08-29T12:53:27Z</time>
      </trkpt>
      <trkpt lat="45.7355" lon="6.72601">
        <ele>2754.31</ele>
        <time>2017-08-29T12:53:29Z</time>
      </trkpt>
      <trkpt lat="45.7355" lon="6.72601">
        <ele>2754.31</ele>
        <time>2017-08-29T12:53:31Z</time>
      </trkpt>
      <trkpt lat="45.7355" lon="6.72601">
        <ele>2754.31</ele>
        <time>2017-08-29T12:53:33Z</time>
      </trkpt>
      <trkpt lat="45.7355" lon="6.72601">
        <ele>2755.28</ele>
        <time>2017-08-29T12:53:38Z</time>
      </trkpt>
      <trkpt lat="45.7355" lon="6.72601">
        <ele>2755.28</ele>
        <time>2017-08-29T12:53:42Z</time>
      </trkpt>
      <trkpt lat="45.7355" lon="6.72601">
        <ele>2754.8</ele>
        <time>2017-08-29T12:53:45Z</time>
      </trkpt>
      <trkpt lat="45.73549" lon="6.72601">
        <ele>2755.28</ele>
        <time>2017-08-29T12:53:50Z</time>
      </trkpt>
      <trkpt lat="45.73547" lon="6.726">
        <ele>2755.76</ele>
        <time>2017-08-29T12:53:53Z</time>
      </trkpt>
      <trkpt lat="45.73546" lon="6.72599">
        <ele>2755.76</ele>
        <time>2017-08-29T12:53:55Z</time>
      </trkpt>
      <trkpt lat="45.73543" lon="6.72597">
        <ele>2756.24</ele>
        <time>2017-08-29T12:53:58Z</time>
      </trkpt>
      <trkpt lat="45.7354" lon="6.72596">
        <ele>2754.8</ele>
        <time>2017-08-29T12:54:04Z</time>
      </trkpt>
      <trkpt lat="45.73539" lon="6.72595">
        <ele>2754.8</ele>
        <time>2017-08-29T12:54:05Z</time>
      </trkpt>
      <trkpt lat="45.7353" lon="6.72586">
        <ele>2752.39</ele>
        <time>2017-08-29T12:54:10Z</time>
      </trkpt>
      <trkpt lat="45.7352" lon="6.72578">
        <ele>2749.51</ele>
        <time>2017-08-29T12:54:14Z</time>
      </trkpt>
      <trkpt lat="45.73513" lon="6.7257">
        <ele>2745.66</ele>
        <time>2017-08-29T12:54:17Z</time>
      </trkpt>
      <trkpt lat="45.73507" lon="6.72561">
        <ele>2744.22</ele>
        <time>2017-08-29T12:54:20Z</time>
      </trkpt>
      <trkpt lat="45.73501" lon="6.7255">
        <ele>2741.82</ele>
        <time>2017-08-29T12:54:24Z</time>
      </trkpt>
      <trkpt lat="45.73499" lon="6.72539">
        <ele>2739.89</ele>
        <time>2017-08-29T12:54:27Z</time>
      </trkpt>
      <trkpt lat="45.73496" lon="6.72523">
        <ele>2737.01</ele>
        <time>2017-08-29T12:54:32Z</time>
      </trkpt>
      <trkpt lat="45.73491" lon="6.72509">
        <ele>2734.13</ele>
        <time>2017-08-29T12:54:37Z</time>
      </trkpt>
      <trkpt lat="45.73486" lon="6.72494">
        <ele>2730.76</ele>
        <time>2017-08-29T12:54:42Z</time>
      </trkpt>
      <trkpt lat="45.73481" lon="6.72488">
        <ele>2729.8</ele>
        <time>2017-08-29T12:54:44Z</time>
      </trkpt>
      <trkpt lat="45.7347" lon="6.72477">
        <ele>2727.4</ele>
        <time>2017-08-29T12:54:49Z</time>
      </trkpt>
      <trkpt lat="45.73454" lon="6.72459">
        <ele>2724.03</ele>
        <time>2017-08-29T12:54:56Z</time>
      </trkpt>
      <trkpt lat="45.73439" lon="6.72436">
        <ele>2720.67</ele>
        <time>2017-08-29T12:55:03Z</time>
      </trkpt>
      <trkpt lat="45.73427" lon="6.72412">
        <ele>2719.71</ele>
        <time>2017-08-29T12:55:11Z</time>
      </trkpt>
      <trkpt lat="45.73424" lon="6.72404">
        <ele>2719.23</ele>
        <time>2017-08-29T12:55:14Z</time>
      </trkpt>
      <trkpt lat="45.73422" lon="6.72403">
        <ele>2718.75</ele>
        <time>2017-08-29T12:55:15Z</time>
      </trkpt>
      <trkpt lat="45.7342" lon="6.72401">
        <ele>2718.75</ele>
        <time>2017-08-29T12:55:16Z</time>
      </trkpt>
      <trkpt lat="45.73418" lon="6.72398">
        <ele>2717.78</ele>
        <time>2017-08-29T12:55:17Z</time>
      </trkpt>
      <trkpt lat="45.73417" lon="6.72395">
        <ele>2717.78</ele>
        <time>2017-08-29T12:55:18Z</time>
      </trkpt>
      <trkpt lat="45.73415" lon="6.72392">
        <ele>2717.78</ele>
        <time>2017-08-29T12:55:19Z</time>
      </trkpt>
      <trkpt lat="45.73414" lon="6.72389">
        <ele>2717.3</ele>
        <time>2017-08-29T12:55:20Z</time>
      </trkpt>
      <trkpt lat="45.73402" lon="6.72367">
        <ele>2713.94</ele>
        <time>2017-08-29T12:55:28Z</time>
      </trkpt>
      <trkpt lat="45.73392" lon="6.72358">
        <ele>2710.57</ele>
        <time>2017-08-29T12:55:33Z</time>
      </trkpt>
      <trkpt lat="45.73381" lon="6.72345">
        <ele>2707.69</ele>
        <time>2017-08-29T12:55:38Z</time>
      </trkpt>
      <trkpt lat="45.73362" lon="6.72333">
        <ele>2705.29</ele>
        <time>2017-08-29T12:55:46Z</time>
      </trkpt>
      <trkpt lat="45.73342" lon="6.72321">
        <ele>2703.36</ele>
        <time>2017-08-29T12:55:55Z</time>
      </trkpt>
      <trkpt lat="45.73333" lon="6.72312">
        <ele>2701.44</ele>
        <time>2017-08-29T12:56:00Z</time>
      </trkpt>
      <trkpt lat="45.73331" lon="6.72311">
        <ele>2700.96</ele>
        <time>2017-08-29T12:56:01Z</time>
      </trkpt>
      <trkpt lat="45.73328" lon="6.7231">
        <ele>2700</ele>
        <time>2017-08-29T12:56:02Z</time>
      </trkpt>
      <trkpt lat="45.73312" lon="6.72306">
        <ele>2697.6</ele>
        <time>2017-08-29T12:56:09Z</time>
      </trkpt>
      <trkpt lat="45.73305" lon="6.72307">
        <ele>2697.12</ele>
        <time>2017-08-29T12:56:12Z</time>
      </trkpt>
      <trkpt lat="45.73304" lon="6.72305">
        <ele>2697.12</ele>
        <time>2017-08-29T12:56:13Z</time>
      </trkpt>
      <trkpt lat="45.73303" lon="6.72301">
        <ele>2696.64</ele>
        <time>2017-08-29T12:56:14Z</time>
      </trkpt>
      <trkpt lat="45.73303" lon="6.72298">
        <ele>2696.64</ele>
        <time>2017-08-29T12:56:15Z</time>
      </trkpt>
      <trkpt lat="45.73302" lon="6.72295">
        <ele>2696.15</ele>
        <time>2017-08-29T12:56:16Z</time>
      </trkpt>
      <trkpt lat="45.73302" lon="6.72293">
        <ele>2696.64</ele>
        <time>2017-08-29T12:56:17Z</time>
      </trkpt>
      <trkpt lat="45.733" lon="6.72292">
        <ele>2696.64</ele>
        <time>2017-08-29T12:56:18Z</time>
      </trkpt>
      <trkpt lat="45.73298" lon="6.72291">
        <ele>2696.64</ele>
        <time>2017-08-29T12:56:19Z</time>
      </trkpt>
      <trkpt lat="45.73277" lon="6.72292">
        <ele>2696.15</ele>
        <time>2017-08-29T12:56:27Z</time>
      </trkpt>
      <trkpt lat="45.73264" lon="6.72287">
        <ele>2695.19</ele>
        <time>2017-08-29T12:56:38Z</time>
      </trkpt>
      <trkpt lat="45.73263" lon="6.72288">
        <ele>2694.23</ele>
        <time>2017-08-29T12:56:39Z</time>
      </trkpt>
      <trkpt lat="45.73261" lon="6.72291">
        <ele>2693.27</ele>
        <time>2017-08-29T12:56:40Z</time>
      </trkpt>
      <trkpt lat="45.7326" lon="6.72292">
        <ele>2692.79</ele>
        <time>2017-08-29T12:56:41Z</time>
      </trkpt>
      <trkpt lat="45.73258" lon="6.72293">
        <ele>2691.83</ele>
        <time>2017-08-29T12:56:42Z</time>
      </trkpt>
      <trkpt lat="45.73256" lon="6.72292">
        <ele>2691.35</ele>
        <time>2017-08-29T12:56:43Z</time>
      </trkpt>
      <trkpt lat="45.73253" lon="6.72292">
        <ele>2690.87</ele>
        <time>2017-08-29T12:56:44Z</time>
      </trkpt>
      <trkpt lat="45.73249" lon="6.7229">
        <ele>2689.91</ele>
        <time>2017-08-29T12:56:46Z</time>
      </trkpt>
      <trkpt lat="45.73245" lon="6.72292">
        <ele>2689.43</ele>
        <time>2017-08-29T12:56:49Z</time>
      </trkpt>
      <trkpt lat="45.73243" lon="6.72293">
        <ele>2688.46</ele>
        <time>2017-08-29T12:56:50Z</time>
      </trkpt>
      <trkpt lat="45.73241" lon="6.72294">
        <ele>2687.5</ele>
        <time>2017-08-29T12:56:51Z</time>
      </trkpt>
      <trkpt lat="45.73239" lon="6.72294">
        <ele>2687.02</ele>
        <time>2017-08-29T12:56:52Z</time>
      </trkpt>
      <trkpt lat="45.73238" lon="6.72295">
        <ele>2686.54</ele>
        <time>2017-08-29T12:56:53Z</time>
      </trkpt>
      <trkpt lat="45.73236" lon="6.72296">
        <ele>2686.06</ele>
        <time>2017-08-29T12:56:54Z</time>
      </trkpt>
      <trkpt lat="45.73235" lon="6.72298">
        <ele>2685.58</ele>
        <time>2017-08-29T12:56:55Z</time>
      </trkpt>
      <trkpt lat="45.73224" lon="6.72317">
        <ele>2682.22</ele>
        <time>2017-08-29T12:57:03Z</time>
      </trkpt>
      <trkpt lat="45.73222" lon="6.72318">
        <ele>2681.73</ele>
        <time>2017-08-29T12:57:04Z</time>
      </trkpt>
      <trkpt lat="45.73221" lon="6.72319">
        <ele>2681.25</ele>
        <time>2017-08-29T12:57:05Z</time>
      </trkpt>
      <trkpt lat="45.73209" lon="6.72317">
        <ele>2679.33</ele>
        <time>2017-08-29T12:57:12Z</time>
      </trkpt>
      <trkpt lat="45.73192" lon="6.72301">
        <ele>2676.93</ele>
        <time>2017-08-29T12:57:21Z</time>
      </trkpt>
      <trkpt lat="45.73184" lon="6.72293">
        <ele>2675.49</ele>
        <time>2017-08-29T12:57:27Z</time>
      </trkpt>
      <trkpt lat="45.73179" lon="6.72288">
        <ele>2674.04</ele>
        <time>2017-08-29T12:57:30Z</time>
      </trkpt>
      <trkpt lat="45.73173" lon="6.72283">
        <ele>2672.12</ele>
        <time>2017-08-29T12:57:33Z</time>
      </trkpt>
      <trkpt lat="45.73167" lon="6.72277">
        <ele>2668.76</ele>
        <time>2017-08-29T12:57:37Z</time>
      </trkpt>
      <trkpt lat="45.73158" lon="6.72266">
        <ele>2665.39</ele>
        <time>2017-08-29T12:57:43Z</time>
      </trkpt>
      <trkpt lat="45.73149" lon="6.7226">
        <ele>2663.47</ele>
        <time>2017-08-29T12:57:48Z</time>
      </trkpt>
      <trkpt lat="45.73143" lon="6.72259">
        <ele>2662.51</ele>
        <time>2017-08-29T12:57:52Z</time>
      </trkpt>
      <trkpt lat="45.73139" lon="6.72252">
        <ele>2659.62</ele>
        <time>2017-08-29T12:57:56Z</time>
      </trkpt>
      <trkpt lat="45.73138" lon="6.7225">
        <ele>2659.62</ele>
        <time>2017-08-29T12:57:57Z</time>
      </trkpt>
      <trkpt lat="45.73137" lon="6.72249">
        <ele>2658.66</ele>
        <time>2017-08-29T12:57:58Z</time>
      </trkpt>
      <trkpt lat="45.73135" lon="6.72248">
        <ele>2658.66</ele>
        <time>2017-08-29T12:57:59Z</time>
      </trkpt>
      <trkpt lat="45.73133" lon="6.72247">
        <ele>2658.18</ele>
        <time>2017-08-29T12:58:00Z</time>
      </trkpt>
      <trkpt lat="45.73131" lon="6.72246">
        <ele>2657.7</ele>
        <time>2017-08-29T12:58:01Z</time>
      </trkpt>
      <trkpt lat="45.7313" lon="6.72245">
        <ele>2656.74</ele>
        <time>2017-08-29T12:58:02Z</time>
      </trkpt>
      <trkpt lat="45.73129" lon="6.72244">
        <ele>2656.74</ele>
        <time>2017-08-29T12:58:03Z</time>
      </trkpt>
      <trkpt lat="45.73127" lon="6.72242">
        <ele>2656.26</ele>
        <time>2017-08-29T12:58:04Z</time>
      </trkpt>
      <trkpt lat="45.73125" lon="6.72243">
        <ele>2656.26</ele>
        <time>2017-08-29T12:58:05Z</time>
      </trkpt>
      <trkpt lat="45.73122" lon="6.72243">
        <ele>2655.78</ele>
        <time>2017-08-29T12:58:06Z</time>
      </trkpt>
      <trkpt lat="45.7312" lon="6.72242">
        <ele>2655.78</ele>
        <time>2017-08-29T12:58:07Z</time>
      </trkpt>
      <trkpt lat="45.73118" lon="6.72242">
        <ele>2655.3</ele>
        <time>2017-08-29T12:58:08Z</time>
      </trkpt>
      <trkpt lat="45.73118" lon="6.72244">
        <ele>2655.78</ele>
        <time>2017-08-29T12:58:10Z</time>
      </trkpt>
      <trkpt lat="45.73118" lon="6.72246">
        <ele>2655.78</ele>
        <time>2017-08-29T12:58:11Z</time>
      </trkpt>
      <trkpt lat="45.73118" lon="6.72277">
        <ele>2654.82</ele>
        <time>2017-08-29T12:58:20Z</time>
      </trkpt>
      <trkpt lat="45.73119" lon="6.72282">
        <ele>2655.3</ele>
        <time>2017-08-29T12:58:25Z</time>
      </trkpt>
      <trkpt lat="45.73118" lon="6.72285">
        <ele>2655.3</ele>
        <time>2017-08-29T12:58:26Z</time>
      </trkpt>
      <trkpt lat="45.73119" lon="6.72302">
        <ele>2655.78</ele>
        <time>2017-08-29T12:58:32Z</time>
      </trkpt>
      <trkpt lat="45.73112" lon="6.72325">
        <ele>2655.78</ele>
        <time>2017-08-29T12:58:40Z</time>
      </trkpt>
      <trkpt lat="45.7311" lon="6.72326">
        <ele>2655.78</ele>
        <time>2017-08-29T12:58:41Z</time>
      </trkpt>
      <trkpt lat="45.73109" lon="6.72326">
        <ele>2655.3</ele>
        <time>2017-08-29T12:58:42Z</time>
      </trkpt>
      <trkpt lat="45.73102" lon="6.72331">
        <ele>2655.3</ele>
        <time>2017-08-29T12:58:46Z</time>
      </trkpt>
      <trkpt lat="45.73094" lon="6.72349">
        <ele>2654.34</ele>
        <time>2017-08-29T12:58:53Z</time>
      </trkpt>
      <trkpt lat="45.73092" lon="6.72349">
        <ele>2653.86</ele>
        <time>2017-08-29T12:58:54Z</time>
      </trkpt>
      <trkpt lat="45.73073" lon="6.72342">
        <ele>2651.45</ele>
        <time>2017-08-29T12:59:03Z</time>
      </trkpt>
      <trkpt lat="45.73065" lon="6.72333">
        <ele>2650.01</ele>
        <time>2017-08-29T12:59:07Z</time>
      </trkpt>
      <trkpt lat="45.73056" lon="6.72319">
        <ele>2646.17</ele>
        <time>2017-08-29T12:59:13Z</time>
      </trkpt>
      <trkpt lat="45.73054" lon="6.72318">
        <ele>2646.17</ele>
        <time>2017-08-29T12:59:14Z</time>
      </trkpt>
      <trkpt lat="45.73041" lon="6.72307">
        <ele>2642.8</ele>
        <time>2017-08-29T12:59:21Z</time>
      </trkpt>
      <trkpt lat="45.73022" lon="6.72298">
        <ele>2640.4</ele>
        <time>2017-08-29T12:59:29Z</time>
      </trkpt>
      <trkpt lat="45.73018" lon="6.72296">
        <ele>2639.92</ele>
        <time>2017-08-29T12:59:31Z</time>
      </trkpt>
      <trkpt lat="45.73" lon="6.72284">
        <ele>2637.51</ele>
        <time>2017-08-29T12:59:39Z</time>
      </trkpt>
      <trkpt lat="45.72989" lon="6.72274">
        <ele>2635.11</ele>
        <time>2017-08-29T12:59:44Z</time>
      </trkpt>
      <trkpt lat="45.72979" lon="6.72265">
        <ele>2633.67</ele>
        <time>2017-08-29T12:59:48Z</time>
      </trkpt>
      <trkpt lat="45.72966" lon="6.72252">
        <ele>2630.79</ele>
        <time>2017-08-29T12:59:54Z</time>
      </trkpt>
      <trkpt lat="45.72947" lon="6.72244">
        <ele>2628.38</ele>
        <time>2017-08-29T13:00:02Z</time>
      </trkpt>
      <trkpt lat="45.72938" lon="6.7224">
        <ele>2625.5</ele>
        <time>2017-08-29T13:00:05Z</time>
      </trkpt>
      <trkpt lat="45.72933" lon="6.72236">
        <ele>2624.06</ele>
        <time>2017-08-29T13:00:07Z</time>
      </trkpt>
      <trkpt lat="45.72931" lon="6.72234">
        <ele>2623.09</ele>
        <time>2017-08-29T13:00:08Z</time>
      </trkpt>
      <trkpt lat="45.72929" lon="6.72232">
        <ele>2622.61</ele>
        <time>2017-08-29T13:00:09Z</time>
      </trkpt>
      <trkpt lat="45.72927" lon="6.7223">
        <ele>2622.13</ele>
        <time>2017-08-29T13:00:10Z</time>
      </trkpt>
      <trkpt lat="45.72924" lon="6.72228">
        <ele>2622.13</ele>
        <time>2017-08-29T13:00:11Z</time>
      </trkpt>
      <trkpt lat="45.72922" lon="6.72227">
        <ele>2622.13</ele>
        <time>2017-08-29T13:00:12Z</time>
      </trkpt>
      <trkpt lat="45.72904" lon="6.72213">
        <ele>2619.25</ele>
        <time>2017-08-29T13:00:20Z</time>
      </trkpt>
      <trkpt lat="45.72892" lon="6.72202">
        <ele>2616.37</ele>
        <time>2017-08-29T13:00:25Z</time>
      </trkpt>
      <trkpt lat="45.72881" lon="6.72193">
        <ele>2613</ele>
        <time>2017-08-29T13:00:30Z</time>
      </trkpt>
      <trkpt lat="45.72865" lon="6.72187">
        <ele>2609.64</ele>
        <time>2017-08-29T13:00:37Z</time>
      </trkpt>
      <trkpt lat="45.72849" lon="6.72185">
        <ele>2606.75</ele>
        <time>2017-08-29T13:00:42Z</time>
      </trkpt>
      <trkpt lat="45.72835" lon="6.7217">
        <ele>2603.39</ele>
        <time>2017-08-29T13:00:47Z</time>
      </trkpt>
      <trkpt lat="45.72829" lon="6.7216">
        <ele>2601.46</ele>
        <time>2017-08-29T13:00:50Z</time>
      </trkpt>
      <trkpt lat="45.72815" lon="6.72145">
        <ele>2598.58</ele>
        <time>2017-08-29T13:00:58Z</time>
      </trkpt>
      <trkpt lat="45.72795" lon="6.72139">
        <ele>2595.22</ele>
        <time>2017-08-29T13:01:06Z</time>
      </trkpt>
      <trkpt lat="45.72782" lon="6.72138">
        <ele>2591.85</ele>
        <time>2017-08-29T13:01:11Z</time>
      </trkpt>
      <trkpt lat="45.72763" lon="6.72133">
        <ele>2590.41</ele>
        <time>2017-08-29T13:01:19Z</time>
      </trkpt>
      <trkpt lat="45.72746" lon="6.72115">
        <ele>2588.01</ele>
        <time>2017-08-29T13:01:27Z</time>
      </trkpt>
      <trkpt lat="45.7273" lon="6.72097">
        <ele>2585.6</ele>
        <time>2017-08-29T13:01:35Z</time>
      </trkpt>
      <trkpt lat="45.72725" lon="6.7209">
        <ele>2584.16</ele>
        <time>2017-08-29T13:01:38Z</time>
      </trkpt>
      <trkpt lat="45.72716" lon="6.72073">
        <ele>2580.8</ele>
        <time>2017-08-29T13:01:46Z</time>
      </trkpt>
      <trkpt lat="45.72713" lon="6.72069">
        <ele>2580.32</ele>
        <time>2017-08-29T13:01:48Z</time>
      </trkpt>
      <trkpt lat="45.72711" lon="6.72061">
        <ele>2578.39</ele>
        <time>2017-08-29T13:01:51Z</time>
      </trkpt>
      <trkpt lat="45.7271" lon="6.72058">
        <ele>2577.91</ele>
        <time>2017-08-29T13:01:52Z</time>
      </trkpt>
      <trkpt lat="45.72701" lon="6.72043">
        <ele>2574.55</ele>
        <time>2017-08-29T13:01:59Z</time>
      </trkpt>
      <trkpt lat="45.72696" lon="6.72025">
        <ele>2571.18</ele>
        <time>2017-08-29T13:02:05Z</time>
      </trkpt>
      <trkpt lat="45.72691" lon="6.72012">
        <ele>2568.78</ele>
        <time>2017-08-29T13:02:10Z</time>
      </trkpt>
      <trkpt lat="45.7269" lon="6.7201">
        <ele>2568.3</ele>
        <time>2017-08-29T13:02:11Z</time>
      </trkpt>
      <trkpt lat="45.72688" lon="6.72008">
        <ele>2567.82</ele>
        <time>2017-08-29T13:02:12Z</time>
      </trkpt>
      <trkpt lat="45.72687" lon="6.72006">
        <ele>2567.34</ele>
        <time>2017-08-29T13:02:13Z</time>
      </trkpt>
      <trkpt lat="45.72685" lon="6.72004">
        <ele>2566.38</ele>
        <time>2017-08-29T13:02:14Z</time>
      </trkpt>
      <trkpt lat="45.72683" lon="6.72001">
        <ele>2565.9</ele>
        <time>2017-08-29T13:02:15Z</time>
      </trkpt>
      <trkpt lat="45.7268" lon="6.71999">
        <ele>2565.42</ele>
        <time>2017-08-29T13:02:16Z</time>
      </trkpt>
      <trkpt lat="45.72664" lon="6.7198">
        <ele>2563.49</ele>
        <time>2017-08-29T13:02:24Z</time>
      </trkpt>
      <trkpt lat="45.72658" lon="6.71962">
        <ele>2560.61</ele>
        <time>2017-08-29T13:02:29Z</time>
      </trkpt>
      <trkpt lat="45.72645" lon="6.71942">
        <ele>2559.17</ele>
        <time>2017-08-29T13:02:36Z</time>
      </trkpt>
      <trkpt lat="45.72632" lon="6.71922">
        <ele>2556.28</ele>
        <time>2017-08-29T13:02:44Z</time>
      </trkpt>
      <trkpt lat="45.72622" lon="6.7191">
        <ele>2552.92</ele>
        <time>2017-08-29T13:02:50Z</time>
      </trkpt>
      <trkpt lat="45.72616" lon="6.71894">
        <ele>2549.55</ele>
        <time>2017-08-29T13:02:56Z</time>
      </trkpt>
      <trkpt lat="45.72614" lon="6.71891">
        <ele>2552.44</ele>
        <time>2017-08-29T13:03:00Z</time>
      </trkpt>
      <trkpt lat="45.72612" lon="6.7189">
        <ele>2551.48</ele>
        <time>2017-08-29T13:03:02Z</time>
      </trkpt>
      <trkpt lat="45.72611" lon="6.7189">
        <ele>2551</ele>
        <time>2017-08-29T13:03:03Z</time>
      </trkpt>
      <trkpt lat="45.7261" lon="6.7189">
        <ele>2550.03</ele>
        <time>2017-08-29T13:03:04Z</time>
      </trkpt>
      <trkpt lat="45.72608" lon="6.7189">
        <ele>2549.55</ele>
        <time>2017-08-29T13:03:05Z</time>
      </trkpt>
      <trkpt lat="45.72607" lon="6.7189">
        <ele>2548.59</ele>
        <time>2017-08-29T13:03:06Z</time>
      </trkpt>
      <trkpt lat="45.72606" lon="6.7189">
        <ele>2547.63</ele>
        <time>2017-08-29T13:03:07Z</time>
      </trkpt>
      <trkpt lat="45.72604" lon="6.7189">
        <ele>2547.15</ele>
        <time>2017-08-29T13:03:08Z</time>
      </trkpt>
      <trkpt lat="45.72603" lon="6.71891">
        <ele>2545.71</ele>
        <time>2017-08-29T13:03:09Z</time>
      </trkpt>
      <trkpt lat="45.72601" lon="6.71891">
        <ele>2545.23</ele>
        <time>2017-08-29T13:03:10Z</time>
      </trkpt>
      <trkpt lat="45.726" lon="6.71891">
        <ele>2544.75</ele>
        <time>2017-08-29T13:03:11Z</time>
      </trkpt>
      <trkpt lat="45.72598" lon="6.7189">
        <ele>2544.75</ele>
        <time>2017-08-29T13:03:12Z</time>
      </trkpt>
      <trkpt lat="45.72597" lon="6.7189">
        <ele>2543.79</ele>
        <time>2017-08-29T13:03:13Z</time>
      </trkpt>
      <trkpt lat="45.72596" lon="6.7189">
        <ele>2543.31</ele>
        <time>2017-08-29T13:03:14Z</time>
      </trkpt>
      <trkpt lat="45.72594" lon="6.71889">
        <ele>2542.34</ele>
        <time>2017-08-29T13:03:15Z</time>
      </trkpt>
      <trkpt lat="45.72588" lon="6.71886">
        <ele>2539.94</ele>
        <time>2017-08-29T13:03:19Z</time>
      </trkpt>
      <trkpt lat="45.72586" lon="6.71884">
        <ele>2538.98</ele>
        <time>2017-08-29T13:03:20Z</time>
      </trkpt>
      <trkpt lat="45.72584" lon="6.71882">
        <ele>2538.02</ele>
        <time>2017-08-29T13:03:21Z</time>
      </trkpt>
      <trkpt lat="45.72582" lon="6.71882">
        <ele>2537.54</ele>
        <time>2017-08-29T13:03:22Z</time>
      </trkpt>
      <trkpt lat="45.7258" lon="6.71882">
        <ele>2536.58</ele>
        <time>2017-08-29T13:03:23Z</time>
      </trkpt>
      <trkpt lat="45.72578" lon="6.71882">
        <ele>2536.58</ele>
        <time>2017-08-29T13:03:24Z</time>
      </trkpt>
      <trkpt lat="45.72562" lon="6.7188">
        <ele>2532.73</ele>
        <time>2017-08-29T13:03:30Z</time>
      </trkpt>
      <trkpt lat="45.72558" lon="6.71874">
        <ele>2531.77</ele>
        <time>2017-08-29T13:03:32Z</time>
      </trkpt>
      <trkpt lat="45.72546" lon="6.7185">
        <ele>2530.81</ele>
        <time>2017-08-29T13:03:41Z</time>
      </trkpt>
      <trkpt lat="45.7254" lon="6.71843">
        <ele>2529.37</ele>
        <time>2017-08-29T13:03:44Z</time>
      </trkpt>
      <trkpt lat="45.72523" lon="6.7183">
        <ele>2526.48</ele>
        <time>2017-08-29T13:03:53Z</time>
      </trkpt>
      <trkpt lat="45.72515" lon="6.71826">
        <ele>2523.6</ele>
        <time>2017-08-29T13:03:57Z</time>
      </trkpt>
      <trkpt lat="45.72511" lon="6.71822">
        <ele>2522.16</ele>
        <time>2017-08-29T13:03:59Z</time>
      </trkpt>
      <trkpt lat="45.725" lon="6.71808">
        <ele>2520.23</ele>
        <time>2017-08-29T13:04:04Z</time>
      </trkpt>
      <trkpt lat="45.72486" lon="6.71786">
        <ele>2519.27</ele>
        <time>2017-08-29T13:04:13Z</time>
      </trkpt>
      <trkpt lat="45.72474" lon="6.71771">
        <ele>2516.39</ele>
        <time>2017-08-29T13:04:21Z</time>
      </trkpt>
      <trkpt lat="45.72466" lon="6.71752">
        <ele>2512.06</ele>
        <time>2017-08-29T13:04:29Z</time>
      </trkpt>
      <trkpt lat="45.72464" lon="6.71736">
        <ele>2509.18</ele>
        <time>2017-08-29T13:04:33Z</time>
      </trkpt>
      <trkpt lat="45.72463" lon="6.71729">
        <ele>2508.22</ele>
        <time>2017-08-29T13:04:35Z</time>
      </trkpt>
      <trkpt lat="45.7246" lon="6.71701">
        <ele>2506.77</ele>
        <time>2017-08-29T13:04:43Z</time>
      </trkpt>
      <trkpt lat="45.72458" lon="6.71694">
        <ele>2505.81</ele>
        <time>2017-08-29T13:04:45Z</time>
      </trkpt>
      <trkpt lat="45.72447" lon="6.71682">
        <ele>2504.37</ele>
        <time>2017-08-29T13:04:51Z</time>
      </trkpt>
      <trkpt lat="45.72445" lon="6.71682">
        <ele>2503.89</ele>
        <time>2017-08-29T13:04:52Z</time>
      </trkpt>
      <trkpt lat="45.72443" lon="6.71684">
        <ele>2503.41</ele>
        <time>2017-08-29T13:04:53Z</time>
      </trkpt>
      <trkpt lat="45.72441" lon="6.71686">
        <ele>2502.45</ele>
        <time>2017-08-29T13:04:54Z</time>
      </trkpt>
      <trkpt lat="45.7244" lon="6.71688">
        <ele>2501.97</ele>
        <time>2017-08-29T13:04:55Z</time>
      </trkpt>
      <trkpt lat="45.72438" lon="6.7169">
        <ele>2501.97</ele>
        <time>2017-08-29T13:04:56Z</time>
      </trkpt>
      <trkpt lat="45.72436" lon="6.71692">
        <ele>2501.49</ele>
        <time>2017-08-29T13:04:57Z</time>
      </trkpt>
      <trkpt lat="45.72434" lon="6.71693">
        <ele>2501.01</ele>
        <time>2017-08-29T13:04:58Z</time>
      </trkpt>
      <trkpt lat="45.72432" lon="6.71694">
        <ele>2500.53</ele>
        <time>2017-08-29T13:04:59Z</time>
      </trkpt>
      <trkpt lat="45.72429" lon="6.71695">
        <ele>2500.05</ele>
        <time>2017-08-29T13:05:00Z</time>
      </trkpt>
      <trkpt lat="45.72427" lon="6.71696">
        <ele>2499.57</ele>
        <time>2017-08-29T13:05:01Z</time>
      </trkpt>
      <trkpt lat="45.7242" lon="6.71703">
        <ele>2496.2</ele>
        <time>2017-08-29T13:05:05Z</time>
      </trkpt>
      <trkpt lat="45.72408" lon="6.71715">
        <ele>2493.32</ele>
        <time>2017-08-29T13:05:11Z</time>
      </trkpt>
      <trkpt lat="45.72403" lon="6.71716">
        <ele>2492.84</ele>
        <time>2017-08-29T13:05:13Z</time>
      </trkpt>
      <trkpt lat="45.72386" lon="6.71715">
        <ele>2488.99</ele>
        <time>2017-08-29T13:05:19Z</time>
      </trkpt>
      <trkpt lat="45.7237" lon="6.71706">
        <ele>2486.11</ele>
        <time>2017-08-29T13:05:25Z</time>
      </trkpt>
      <trkpt lat="45.72349" lon="6.71706">
        <ele>2484.18</ele>
        <time>2017-08-29T13:05:32Z</time>
      </trkpt>
      <trkpt lat="45.72328" lon="6.71711">
        <ele>2482.26</ele>
        <time>2017-08-29T13:05:40Z</time>
      </trkpt>
      <trkpt lat="45.72308" lon="6.71714">
        <ele>2479.38</ele>
        <time>2017-08-29T13:05:48Z</time>
      </trkpt>
      <trkpt lat="45.72292" lon="6.71714">
        <ele>2476.97</ele>
        <time>2017-08-29T13:05:55Z</time>
      </trkpt>
      <trkpt lat="45.72286" lon="6.71717">
        <ele>2475.53</ele>
        <time>2017-08-29T13:05:58Z</time>
      </trkpt>
      <trkpt lat="45.72278" lon="6.71718">
        <ele>2478.42</ele>
        <time>2017-08-29T13:06:02Z</time>
      </trkpt>
      <trkpt lat="45.7227" lon="6.7172">
        <ele>2473.61</ele>
        <time>2017-08-29T13:06:05Z</time>
      </trkpt>
      <trkpt lat="45.72262" lon="6.7172">
        <ele>2469.28</ele>
        <time>2017-08-29T13:06:08Z</time>
      </trkpt>
      <trkpt lat="45.72245" lon="6.71722">
        <ele>2465.92</ele>
        <time>2017-08-29T13:06:14Z</time>
      </trkpt>
      <trkpt lat="45.7223" lon="6.71721">
        <ele>2463.04</ele>
        <time>2017-08-29T13:06:19Z</time>
      </trkpt>
      <trkpt lat="45.72217" lon="6.7172">
        <ele>2458.71</ele>
        <time>2017-08-29T13:06:23Z</time>
      </trkpt>
      <trkpt lat="45.722" lon="6.71717">
        <ele>2457.27</ele>
        <time>2017-08-29T13:06:28Z</time>
      </trkpt>
      <trkpt lat="45.72195" lon="6.7172">
        <ele>2455.82</ele>
        <time>2017-08-29T13:06:30Z</time>
      </trkpt>
      <trkpt lat="45.72192" lon="6.71724">
        <ele>2455.82</ele>
        <time>2017-08-29T13:06:31Z</time>
      </trkpt>
      <trkpt lat="45.72187" lon="6.71735">
        <ele>2455.82</ele>
        <time>2017-08-29T13:06:34Z</time>
      </trkpt>
      <trkpt lat="45.72188" lon="6.71738">
        <ele>2455.34</ele>
        <time>2017-08-29T13:06:35Z</time>
      </trkpt>
      <trkpt lat="45.72189" lon="6.71739">
        <ele>2455.34</ele>
        <time>2017-08-29T13:06:36Z</time>
      </trkpt>
      <trkpt lat="45.72201" lon="6.71711">
        <ele>2456.79</ele>
        <time>2017-08-29T13:24:27Z</time>
      </trkpt>
      <trkpt lat="45.72201" lon="6.71711">
        <ele>2456.79</ele>
        <time>2017-08-29T13:24:28Z</time>
      </trkpt>
      <trkpt lat="45.72201" lon="6.71709">
        <ele>2456.79</ele>
        <time>2017-08-29T13:24:29Z</time>
      </trkpt>
      <trkpt lat="45.72202" lon="6.71707">
        <ele>2456.79</ele>
        <time>2017-08-29T13:24:30Z</time>
      </trkpt>
      <trkpt lat="45.72206" lon="6.71697">
        <ele>2456.79</ele>
        <time>2017-08-29T13:24:33Z</time>
      </trkpt>
      <trkpt lat="45.72207" lon="6.71693">
        <ele>2456.31</ele>
        <time>2017-08-29T13:24:34Z</time>
      </trkpt>
      <trkpt lat="45.72209" lon="6.71684">
        <ele>2455.34</ele>
        <time>2017-08-29T13:24:36Z</time>
      </trkpt>
      <trkpt lat="45.72212" lon="6.71671">
        <ele>2452.94</ele>
        <time>2017-08-29T13:24:39Z</time>
      </trkpt>
      <trkpt lat="45.72213" lon="6.71654">
        <ele>2451.02</ele>
        <time>2017-08-29T13:24:43Z</time>
      </trkpt>
      <trkpt lat="45.72206" lon="6.71629">
        <ele>2449.58</ele>
        <time>2017-08-29T13:24:49Z</time>
      </trkpt>
      <trkpt lat="45.72202" lon="6.71612">
        <ele>2445.25</ele>
        <time>2017-08-29T13:24:54Z</time>
      </trkpt>
      <trkpt lat="45.72201" lon="6.71608">
        <ele>2445.25</ele>
        <time>2017-08-29T13:24:55Z</time>
      </trkpt>
      <trkpt lat="45.72192" lon="6.71598">
        <ele>2445.25</ele>
        <time>2017-08-29T13:24:59Z</time>
      </trkpt>
      <trkpt lat="45.72179" lon="6.71589">
        <ele>2442.37</ele>
        <time>2017-08-29T13:25:04Z</time>
      </trkpt>
      <trkpt lat="45.7216" lon="6.71576">
        <ele>2441.41</ele>
        <time>2017-08-29T13:25:11Z</time>
      </trkpt>
      <trkpt lat="45.72153" lon="6.71573">
        <ele>2440.44</ele>
        <time>2017-08-29T13:25:13Z</time>
      </trkpt>
      <trkpt lat="45.72134" lon="6.71565">
        <ele>2440.44</ele>
        <time>2017-08-29T13:25:20Z</time>
      </trkpt>
      <trkpt lat="45.72116" lon="6.71552">
        <ele>2439.48</ele>
        <time>2017-08-29T13:25:27Z</time>
      </trkpt>
      <trkpt lat="45.72101" lon="6.71534">
        <ele>2438.52</ele>
        <time>2017-08-29T13:25:34Z</time>
      </trkpt>
      <trkpt lat="45.72088" lon="6.71513">
        <ele>2437.08</ele>
        <time>2017-08-29T13:25:41Z</time>
      </trkpt>
      <trkpt lat="45.7208" lon="6.71494">
        <ele>2433.71</ele>
        <time>2017-08-29T13:25:47Z</time>
      </trkpt>
      <trkpt lat="45.72076" lon="6.71485">
        <ele>2433.23</ele>
        <time>2017-08-29T13:25:49Z</time>
      </trkpt>
      <trkpt lat="45.7206" lon="6.71465">
        <ele>2432.27</ele>
        <time>2017-08-29T13:25:56Z</time>
      </trkpt>
      <trkpt lat="45.72049" lon="6.71449">
        <ele>2430.35</ele>
        <time>2017-08-29T13:26:03Z</time>
      </trkpt>
      <trkpt lat="45.72047" lon="6.71448">
        <ele>2430.83</ele>
        <time>2017-08-29T13:26:04Z</time>
      </trkpt>
      <trkpt lat="45.72029" lon="6.71451">
        <ele>2427.47</ele>
        <time>2017-08-29T13:26:11Z</time>
      </trkpt>
      <trkpt lat="45.72008" lon="6.71458">
        <ele>2425.54</ele>
        <time>2017-08-29T13:26:19Z</time>
      </trkpt>
      <trkpt lat="45.7199" lon="6.71473">
        <ele>2426.02</ele>
        <time>2017-08-29T13:26:27Z</time>
      </trkpt>
      <trkpt lat="45.71972" lon="6.71489">
        <ele>2426.99</ele>
        <time>2017-08-29T13:26:35Z</time>
      </trkpt>
      <trkpt lat="45.71958" lon="6.71497">
        <ele>2430.83</ele>
        <time>2017-08-29T13:26:42Z</time>
      </trkpt>
      <trkpt lat="45.71947" lon="6.71501">
        <ele>2433.23</ele>
        <time>2017-08-29T13:26:48Z</time>
      </trkpt>
      <trkpt lat="45.71942" lon="6.71502">
        <ele>2434.2</ele>
        <time>2017-08-29T13:26:51Z</time>
      </trkpt>
      <trkpt lat="45.71931" lon="6.71503">
        <ele>2436.6</ele>
        <time>2017-08-29T13:26:58Z</time>
      </trkpt>
      <trkpt lat="45.71924" lon="6.71502">
        <ele>2439</ele>
        <time>2017-08-29T13:27:02Z</time>
      </trkpt>
      <trkpt lat="45.71905" lon="6.71494">
        <ele>2441.41</ele>
        <time>2017-08-29T13:27:17Z</time>
      </trkpt>
      <trkpt lat="45.71893" lon="6.71488">
        <ele>2443.33</ele>
        <time>2017-08-29T13:27:27Z</time>
      </trkpt>
      <trkpt lat="45.71878" lon="6.7148">
        <ele>2446.21</ele>
        <time>2017-08-29T13:27:39Z</time>
      </trkpt>
      <trkpt lat="45.71861" lon="6.7147">
        <ele>2449.1</ele>
        <time>2017-08-29T13:27:52Z</time>
      </trkpt>
      <trkpt lat="45.7186" lon="6.7147">
        <ele>2449.58</ele>
        <time>2017-08-29T13:27:53Z</time>
      </trkpt>
      <trkpt lat="45.71859" lon="6.7147">
        <ele>2449.58</ele>
        <time>2017-08-29T13:27:54Z</time>
      </trkpt>
      <trkpt lat="45.71857" lon="6.7147">
        <ele>2449.58</ele>
        <time>2017-08-29T13:27:55Z</time>
      </trkpt>
      <trkpt lat="45.71856" lon="6.71469">
        <ele>2449.58</ele>
        <time>2017-08-29T13:27:56Z</time>
      </trkpt>
      <trkpt lat="45.71855" lon="6.71468">
        <ele>2449.58</ele>
        <time>2017-08-29T13:27:57Z</time>
      </trkpt>
      <trkpt lat="45.71853" lon="6.71468">
        <ele>2450.06</ele>
        <time>2017-08-29T13:27:58Z</time>
      </trkpt>
      <trkpt lat="45.71852" lon="6.71467">
        <ele>2450.54</ele>
        <time>2017-08-29T13:27:59Z</time>
      </trkpt>
      <trkpt lat="45.7185" lon="6.71466">
        <ele>2450.54</ele>
        <time>2017-08-29T13:28:01Z</time>
      </trkpt>
      <trkpt lat="45.71848" lon="6.71465">
        <ele>2451.02</ele>
        <time>2017-08-29T13:28:02Z</time>
      </trkpt>
      <trkpt lat="45.71847" lon="6.71465">
        <ele>2451.02</ele>
        <time>2017-08-29T13:28:03Z</time>
      </trkpt>
      <trkpt lat="45.71845" lon="6.71465">
        <ele>2451.02</ele>
        <time>2017-08-29T13:28:04Z</time>
      </trkpt>
      <trkpt lat="45.71844" lon="6.71465">
        <ele>2451.02</ele>
        <time>2017-08-29T13:28:05Z</time>
      </trkpt>
      <trkpt lat="45.71843" lon="6.71465">
        <ele>2451.5</ele>
        <time>2017-08-29T13:28:06Z</time>
      </trkpt>
      <trkpt lat="45.71842" lon="6.71464">
        <ele>2451.5</ele>
        <time>2017-08-29T13:28:07Z</time>
      </trkpt>
      <trkpt lat="45.7184" lon="6.71464">
        <ele>2451.98</ele>
        <time>2017-08-29T13:28:08Z</time>
      </trkpt>
      <trkpt lat="45.71839" lon="6.71464">
        <ele>2451.98</ele>
        <time>2017-08-29T13:28:09Z</time>
      </trkpt>
      <trkpt lat="45.71837" lon="6.71463">
        <ele>2452.94</ele>
        <time>2017-08-29T13:28:11Z</time>
      </trkpt>
      <trkpt lat="45.71835" lon="6.71463">
        <ele>2453.42</ele>
        <time>2017-08-29T13:28:12Z</time>
      </trkpt>
      <trkpt lat="45.71817" lon="6.71454">
        <ele>2454.86</ele>
        <time>2017-08-29T13:28:24Z</time>
      </trkpt>
      <trkpt lat="45.71813" lon="6.71449">
        <ele>2455.34</ele>
        <time>2017-08-29T13:28:28Z</time>
      </trkpt>
      <trkpt lat="45.71811" lon="6.71447">
        <ele>2456.31</ele>
        <time>2017-08-29T13:28:30Z</time>
      </trkpt>
      <trkpt lat="45.718" lon="6.71438">
        <ele>2458.71</ele>
        <time>2017-08-29T13:28:41Z</time>
      </trkpt>
      <trkpt lat="45.71801" lon="6.71435">
        <ele>2459.19</ele>
        <time>2017-08-29T13:28:43Z</time>
      </trkpt>
      <trkpt lat="45.71801" lon="6.71435">
        <ele>2459.19</ele>
        <time>2017-08-29T13:28:44Z</time>
      </trkpt>
      <trkpt lat="45.71822" lon="6.71436">
        <ele>2462.55</ele>
        <time>2017-08-29T13:29:01Z</time>
      </trkpt>
      <trkpt lat="45.71825" lon="6.71436">
        <ele>2464</ele>
        <time>2017-08-29T13:29:08Z</time>
      </trkpt>
      <trkpt lat="45.71824" lon="6.71434">
        <ele>2465.44</ele>
        <time>2017-08-29T13:29:10Z</time>
      </trkpt>
      <trkpt lat="45.71821" lon="6.71431">
        <ele>2466.4</ele>
        <time>2017-08-29T13:29:14Z</time>
      </trkpt>
      <trkpt lat="45.71818" lon="6.71426">
        <ele>2467.36</ele>
        <time>2017-08-29T13:29:27Z</time>
      </trkpt>
      <trkpt lat="45.71818" lon="6.71425">
        <ele>2467.84</ele>
        <time>2017-08-29T13:29:28Z</time>
      </trkpt>
      <trkpt lat="45.71815" lon="6.71418">
        <ele>2468.8</ele>
        <time>2017-08-29T13:29:34Z</time>
      </trkpt>
      <trkpt lat="45.71815" lon="6.71417">
        <ele>2468.8</ele>
        <time>2017-08-29T13:29:35Z</time>
      </trkpt>
      <trkpt lat="45.71809" lon="6.71407">
        <ele>2470.73</ele>
        <time>2017-08-29T13:29:42Z</time>
      </trkpt>
      <trkpt lat="45.71808" lon="6.71406">
        <ele>2471.21</ele>
        <time>2017-08-29T13:29:43Z</time>
      </trkpt>
      <trkpt lat="45.71807" lon="6.71404">
        <ele>2471.21</ele>
        <time>2017-08-29T13:29:44Z</time>
      </trkpt>
      <trkpt lat="45.71806" lon="6.71402">
        <ele>2471.21</ele>
        <time>2017-08-29T13:29:45Z</time>
      </trkpt>
      <trkpt lat="45.71805" lon="6.714">
        <ele>2471.21</ele>
        <time>2017-08-29T13:29:46Z</time>
      </trkpt>
      <trkpt lat="45.71804" lon="6.71399">
        <ele>2471.69</ele>
        <time>2017-08-29T13:29:47Z</time>
      </trkpt>
      <trkpt lat="45.71801" lon="6.71396">
        <ele>2471.69</ele>
        <time>2017-08-29T13:29:49Z</time>
      </trkpt>
      <trkpt lat="45.718" lon="6.71395">
        <ele>2471.69</ele>
        <time>2017-08-29T13:29:50Z</time>
      </trkpt>
      <trkpt lat="45.71799" lon="6.71393">
        <ele>2471.69</ele>
        <time>2017-08-29T13:29:51Z</time>
      </trkpt>
      <trkpt lat="45.71797" lon="6.71391">
        <ele>2471.69</ele>
        <time>2017-08-29T13:29:52Z</time>
      </trkpt>
      <trkpt lat="45.71796" lon="6.71389">
        <ele>2471.69</ele>
        <time>2017-08-29T13:29:53Z</time>
      </trkpt>
      <trkpt lat="45.71791" lon="6.71385">
        <ele>2471.69</ele>
        <time>2017-08-29T13:29:56Z</time>
      </trkpt>
      <trkpt lat="45.7179" lon="6.71383">
        <ele>2472.17</ele>
        <time>2017-08-29T13:29:57Z</time>
      </trkpt>
      <trkpt lat="45.71789" lon="6.71382">
        <ele>2472.17</ele>
        <time>2017-08-29T13:29:58Z</time>
      </trkpt>
      <trkpt lat="45.71787" lon="6.71381">
        <ele>2472.65</ele>
        <time>2017-08-29T13:29:59Z</time>
      </trkpt>
      <trkpt lat="45.71786" lon="6.7138">
        <ele>2473.13</ele>
        <time>2017-08-29T13:30:00Z</time>
      </trkpt>
      <trkpt lat="45.71784" lon="6.71379">
        <ele>2473.61</ele>
        <time>2017-08-29T13:30:01Z</time>
      </trkpt>
      <trkpt lat="45.71784" lon="6.71377">
        <ele>2473.61</ele>
        <time>2017-08-29T13:30:02Z</time>
      </trkpt>
      <trkpt lat="45.71783" lon="6.71375">
        <ele>2474.09</ele>
        <time>2017-08-29T13:30:03Z</time>
      </trkpt>
      <trkpt lat="45.71777" lon="6.71367">
        <ele>2476.01</ele>
        <time>2017-08-29T13:30:09Z</time>
      </trkpt>
      <trkpt lat="45.71767" lon="6.71357">
        <ele>2478.9</ele>
        <time>2017-08-29T13:30:18Z</time>
      </trkpt>
      <trkpt lat="45.71759" lon="6.71346">
        <ele>2482.26</ele>
        <time>2017-08-29T13:30:26Z</time>
      </trkpt>
      <trkpt lat="45.71755" lon="6.71345">
        <ele>2482.26</ele>
        <time>2017-08-29T13:30:30Z</time>
      </trkpt>
      <trkpt lat="45.71754" lon="6.71346">
        <ele>2482.26</ele>
        <time>2017-08-29T13:30:31Z</time>
      </trkpt>
      <trkpt lat="45.71753" lon="6.71346">
        <ele>2482.74</ele>
        <time>2017-08-29T13:30:32Z</time>
      </trkpt>
      <trkpt lat="45.71752" lon="6.71347">
        <ele>2483.22</ele>
        <time>2017-08-29T13:30:33Z</time>
      </trkpt>
      <trkpt lat="45.71748" lon="6.71351">
        <ele>2484.18</ele>
        <time>2017-08-29T13:30:37Z</time>
      </trkpt>
      <trkpt lat="45.71747" lon="6.71351">
        <ele>2484.66</ele>
        <time>2017-08-29T13:30:38Z</time>
      </trkpt>
      <trkpt lat="45.71746" lon="6.71351">
        <ele>2485.15</ele>
        <time>2017-08-29T13:30:39Z</time>
      </trkpt>
      <trkpt lat="45.71736" lon="6.71344">
        <ele>2486.59</ele>
        <time>2017-08-29T13:30:47Z</time>
      </trkpt>
      <trkpt lat="45.71734" lon="6.7134">
        <ele>2487.55</ele>
        <time>2017-08-29T13:30:51Z</time>
      </trkpt>
      <trkpt lat="45.71731" lon="6.71337">
        <ele>2487.55</ele>
        <time>2017-08-29T13:30:57Z</time>
      </trkpt>
      <trkpt lat="45.7173" lon="6.71336">
        <ele>2487.55</ele>
        <time>2017-08-29T13:30:58Z</time>
      </trkpt>
      <trkpt lat="45.71729" lon="6.71335">
        <ele>2487.55</ele>
        <time>2017-08-29T13:30:59Z</time>
      </trkpt>
      <trkpt lat="45.71728" lon="6.71333">
        <ele>2487.55</ele>
        <time>2017-08-29T13:31:00Z</time>
      </trkpt>
      <trkpt lat="45.71727" lon="6.71332">
        <ele>2487.55</ele>
        <time>2017-08-29T13:31:01Z</time>
      </trkpt>
      <trkpt lat="45.71722" lon="6.71325">
        <ele>2488.99</ele>
        <time>2017-08-29T13:31:07Z</time>
      </trkpt>
      <trkpt lat="45.71714" lon="6.71307">
        <ele>2492.36</ele>
        <time>2017-08-29T13:31:19Z</time>
      </trkpt>
      <trkpt lat="45.71713" lon="6.71305">
        <ele>2492.36</ele>
        <time>2017-08-29T13:31:20Z</time>
      </trkpt>
      <trkpt lat="45.71713" lon="6.71303">
        <ele>2492.36</ele>
        <time>2017-08-29T13:31:21Z</time>
      </trkpt>
      <trkpt lat="45.71712" lon="6.71301">
        <ele>2492.36</ele>
        <time>2017-08-29T13:31:22Z</time>
      </trkpt>
      <trkpt lat="45.71711" lon="6.71299">
        <ele>2492.84</ele>
        <time>2017-08-29T13:31:23Z</time>
      </trkpt>
      <trkpt lat="45.7171" lon="6.71297">
        <ele>2492.84</ele>
        <time>2017-08-29T13:31:24Z</time>
      </trkpt>
      <trkpt lat="45.71708" lon="6.71295">
        <ele>2492.84</ele>
        <time>2017-08-29T13:31:25Z</time>
      </trkpt>
      <trkpt lat="45.71707" lon="6.71293">
        <ele>2492.84</ele>
        <time>2017-08-29T13:31:26Z</time>
      </trkpt>
      <trkpt lat="45.71695" lon="6.71269">
        <ele>2493.8</ele>
        <time>2017-08-29T13:31:36Z</time>
      </trkpt>
      <trkpt lat="45.71683" lon="6.71246">
        <ele>2494.76</ele>
        <time>2017-08-29T13:31:45Z</time>
      </trkpt>
      <trkpt lat="45.71676" lon="6.7122">
        <ele>2495.72</ele>
        <time>2017-08-29T13:31:55Z</time>
      </trkpt>
      <trkpt lat="45.71666" lon="6.71195">
        <ele>2496.68</ele>
        <time>2017-08-29T13:32:06Z</time>
      </trkpt>
      <trkpt lat="45.7165" lon="6.71181">
        <ele>2497.16</ele>
        <time>2017-08-29T13:32:16Z</time>
      </trkpt>
      <trkpt lat="45.71631" lon="6.71172">
        <ele>2496.2</ele>
        <time>2017-08-29T13:32:25Z</time>
      </trkpt>
      <trkpt lat="45.71614" lon="6.71159">
        <ele>2498.6</ele>
        <time>2017-08-29T13:32:36Z</time>
      </trkpt>
      <trkpt lat="45.716" lon="6.71143">
        <ele>2498.6</ele>
        <time>2017-08-29T13:32:45Z</time>
      </trkpt>
      <trkpt lat="45.71583" lon="6.71125">
        <ele>2500.05</ele>
        <time>2017-08-29T13:32:55Z</time>
      </trkpt>
      <trkpt lat="45.71566" lon="6.71112">
        <ele>2502.45</ele>
        <time>2017-08-29T13:33:06Z</time>
      </trkpt>
      <trkpt lat="45.71552" lon="6.71107">
        <ele>2505.81</ele>
        <time>2017-08-29T13:33:16Z</time>
      </trkpt>
      <trkpt lat="45.71538" lon="6.71096">
        <ele>2509.18</ele>
        <time>2017-08-29T13:33:27Z</time>
      </trkpt>
      <trkpt lat="45.71521" lon="6.71086">
        <ele>2510.62</ele>
        <time>2017-08-29T13:33:40Z</time>
      </trkpt>
      <trkpt lat="45.71514" lon="6.71085">
        <ele>2513.02</ele>
        <time>2017-08-29T13:33:47Z</time>
      </trkpt>
      <trkpt lat="45.71513" lon="6.71084">
        <ele>2513.5</ele>
        <time>2017-08-29T13:33:48Z</time>
      </trkpt>
      <trkpt lat="45.71512" lon="6.71084">
        <ele>2513.5</ele>
        <time>2017-08-29T13:33:49Z</time>
      </trkpt>
      <trkpt lat="45.71511" lon="6.71084">
        <ele>2513.98</ele>
        <time>2017-08-29T13:33:50Z</time>
      </trkpt>
      <trkpt lat="45.71509" lon="6.71083">
        <ele>2513.98</ele>
        <time>2017-08-29T13:33:51Z</time>
      </trkpt>
      <trkpt lat="45.71508" lon="6.71082">
        <ele>2513.98</ele>
        <time>2017-08-29T13:33:52Z</time>
      </trkpt>
      <trkpt lat="45.71507" lon="6.71081">
        <ele>2514.47</ele>
        <time>2017-08-29T13:33:53Z</time>
      </trkpt>
      <trkpt lat="45.71499" lon="6.71076">
        <ele>2515.91</ele>
        <time>2017-08-29T13:34:04Z</time>
      </trkpt>
      <trkpt lat="45.71498" lon="6.71076">
        <ele>2515.91</ele>
        <time>2017-08-29T13:34:05Z</time>
      </trkpt>
      <trkpt lat="45.71497" lon="6.71076">
        <ele>2516.39</ele>
        <time>2017-08-29T13:34:06Z</time>
      </trkpt>
      <trkpt lat="45.71492" lon="6.71073">
        <ele>2516.87</ele>
        <time>2017-08-29T13:34:11Z</time>
      </trkpt>
      <trkpt lat="45.71491" lon="6.71073">
        <ele>2517.35</ele>
        <time>2017-08-29T13:34:12Z</time>
      </trkpt>
      <trkpt lat="45.71489" lon="6.71072">
        <ele>2517.83</ele>
        <time>2017-08-29T13:34:13Z</time>
      </trkpt>
      <trkpt lat="45.71488" lon="6.71071">
        <ele>2517.83</ele>
        <time>2017-08-29T13:34:14Z</time>
      </trkpt>
      <trkpt lat="45.71487" lon="6.71071">
        <ele>2517.83</ele>
        <time>2017-08-29T13:34:15Z</time>
      </trkpt>
      <trkpt lat="45.71485" lon="6.71071">
        <ele>2518.31</ele>
        <time>2017-08-29T13:34:16Z</time>
      </trkpt>
      <trkpt lat="45.71484" lon="6.7107">
        <ele>2518.79</ele>
        <time>2017-08-29T13:34:17Z</time>
      </trkpt>
      <trkpt lat="45.71482" lon="6.71069">
        <ele>2519.27</ele>
        <time>2017-08-29T13:34:18Z</time>
      </trkpt>
      <trkpt lat="45.71481" lon="6.71069">
        <ele>2519.27</ele>
        <time>2017-08-29T13:34:19Z</time>
      </trkpt>
      <trkpt lat="45.71479" lon="6.71069">
        <ele>2519.75</ele>
        <time>2017-08-29T13:34:20Z</time>
      </trkpt>
      <trkpt lat="45.71478" lon="6.71069">
        <ele>2520.23</ele>
        <time>2017-08-29T13:34:21Z</time>
      </trkpt>
      <trkpt lat="45.71476" lon="6.71068">
        <ele>2520.23</ele>
        <time>2017-08-29T13:34:22Z</time>
      </trkpt>
      <trkpt lat="45.71474" lon="6.71069">
        <ele>2520.71</ele>
        <time>2017-08-29T13:34:23Z</time>
      </trkpt>
      <trkpt lat="45.71473" lon="6.71071">
        <ele>2521.19</ele>
        <time>2017-08-29T13:34:24Z</time>
      </trkpt>
      <trkpt lat="45.71454" lon="6.71066">
        <ele>2523.6</ele>
        <time>2017-08-29T13:34:36Z</time>
      </trkpt>
      <trkpt lat="45.71435" lon="6.71061">
        <ele>2525.04</ele>
        <time>2017-08-29T13:34:47Z</time>
      </trkpt>
      <trkpt lat="45.71431" lon="6.71059">
        <ele>2525.52</ele>
        <time>2017-08-29T13:34:50Z</time>
      </trkpt>
      <trkpt lat="45.71431" lon="6.71057">
        <ele>2526</ele>
        <time>2017-08-29T13:34:51Z</time>
      </trkpt>
      <trkpt lat="45.71431" lon="6.71055">
        <ele>2526</ele>
        <time>2017-08-29T13:34:52Z</time>
      </trkpt>
      <trkpt lat="45.71434" lon="6.71054">
        <ele>2526.96</ele>
        <time>2017-08-29T13:34:54Z</time>
      </trkpt>
      <trkpt lat="45.71435" lon="6.71054">
        <ele>2526.96</ele>
        <time>2017-08-29T13:34:55Z</time>
      </trkpt>
      <trkpt lat="45.71437" lon="6.71053">
        <ele>2527.44</ele>
        <time>2017-08-29T13:34:56Z</time>
      </trkpt>
      <trkpt lat="45.71439" lon="6.71053">
        <ele>2527.44</ele>
        <time>2017-08-29T13:34:57Z</time>
      </trkpt>
      <trkpt lat="45.7144" lon="6.71053">
        <ele>2527.44</ele>
        <time>2017-08-29T13:34:58Z</time>
      </trkpt>
      <trkpt lat="45.7145" lon="6.7105">
        <ele>2528.89</ele>
        <time>2017-08-29T13:35:05Z</time>
      </trkpt>
      <trkpt lat="45.71451" lon="6.71049">
        <ele>2529.37</ele>
        <time>2017-08-29T13:35:06Z</time>
      </trkpt>
      <trkpt lat="45.71451" lon="6.71048">
        <ele>2529.37</ele>
        <time>2017-08-29T13:35:07Z</time>
      </trkpt>
      <trkpt lat="45.7145" lon="6.71047">
        <ele>2529.37</ele>
        <time>2017-08-29T13:35:08Z</time>
      </trkpt>
      <trkpt lat="45.71449" lon="6.71046">
        <ele>2529.37</ele>
        <time>2017-08-29T13:35:09Z</time>
      </trkpt>
      <trkpt lat="45.71448" lon="6.71044">
        <ele>2529.85</ele>
        <time>2017-08-29T13:35:10Z</time>
      </trkpt>
      <trkpt lat="45.71447" lon="6.71043">
        <ele>2529.85</ele>
        <time>2017-08-29T13:35:11Z</time>
      </trkpt>
      <trkpt lat="45.71446" lon="6.71041">
        <ele>2530.81</ele>
        <time>2017-08-29T13:35:12Z</time>
      </trkpt>
      <trkpt lat="45.71434" lon="6.71024">
        <ele>2532.25</ele>
        <time>2017-08-29T13:35:24Z</time>
      </trkpt>
      <trkpt lat="45.71432" lon="6.71024">
        <ele>2532.25</ele>
        <time>2017-08-29T13:35:25Z</time>
      </trkpt>
      <trkpt lat="45.71431" lon="6.71023">
        <ele>2532.25</ele>
        <time>2017-08-29T13:35:26Z</time>
      </trkpt>
      <trkpt lat="45.71431" lon="6.71022">
        <ele>2532.25</ele>
        <time>2017-08-29T13:35:27Z</time>
      </trkpt>
      <trkpt lat="45.7143" lon="6.71021">
        <ele>2532.73</ele>
        <time>2017-08-29T13:35:28Z</time>
      </trkpt>
      <trkpt lat="45.71416" lon="6.71007">
        <ele>2533.21</ele>
        <time>2017-08-29T13:35:41Z</time>
      </trkpt>
      <trkpt lat="45.71411" lon="6.71003">
        <ele>2533.21</ele>
        <time>2017-08-29T13:35:46Z</time>
      </trkpt>
      <trkpt lat="45.7141" lon="6.71002">
        <ele>2533.21</ele>
        <time>2017-08-29T13:35:47Z</time>
      </trkpt>
      <trkpt lat="45.71409" lon="6.71001">
        <ele>2533.21</ele>
        <time>2017-08-29T13:35:48Z</time>
      </trkpt>
      <trkpt lat="45.71408" lon="6.71">
        <ele>2533.69</ele>
        <time>2017-08-29T13:35:49Z</time>
      </trkpt>
      <trkpt lat="45.71407" lon="6.70999">
        <ele>2533.69</ele>
        <time>2017-08-29T13:35:50Z</time>
      </trkpt>
      <trkpt lat="45.71402" lon="6.70994">
        <ele>2534.17</ele>
        <time>2017-08-29T13:35:54Z</time>
      </trkpt>
      <trkpt lat="45.71386" lon="6.7098">
        <ele>2535.13</ele>
        <time>2017-08-29T13:36:04Z</time>
      </trkpt>
      <trkpt lat="45.7137" lon="6.70964">
        <ele>2535.61</ele>
        <time>2017-08-29T13:36:14Z</time>
      </trkpt>
      <trkpt lat="45.71355" lon="6.70946">
        <ele>2536.1</ele>
        <time>2017-08-29T13:36:23Z</time>
      </trkpt>
      <trkpt lat="45.71339" lon="6.70932">
        <ele>2533.69</ele>
        <time>2017-08-29T13:36:30Z</time>
      </trkpt>
      <trkpt lat="45.7132" lon="6.70921">
        <ele>2532.73</ele>
        <time>2017-08-29T13:36:38Z</time>
      </trkpt>
      <trkpt lat="45.71302" lon="6.7091">
        <ele>2533.21</ele>
        <time>2017-08-29T13:36:47Z</time>
      </trkpt>
      <trkpt lat="45.71284" lon="6.709">
        <ele>2534.17</ele>
        <time>2017-08-29T13:36:56Z</time>
      </trkpt>
      <trkpt lat="45.71267" lon="6.70886">
        <ele>2536.58</ele>
        <time>2017-08-29T13:37:05Z</time>
      </trkpt>
      <trkpt lat="45.71254" lon="6.70865">
        <ele>2534.65</ele>
        <time>2017-08-29T13:37:13Z</time>
      </trkpt>
      <trkpt lat="45.71248" lon="6.70849">
        <ele>2532.25</ele>
        <time>2017-08-29T13:37:18Z</time>
      </trkpt>
      <trkpt lat="45.71241" lon="6.70822">
        <ele>2529.85</ele>
        <time>2017-08-29T13:37:26Z</time>
      </trkpt>
      <trkpt lat="45.71237" lon="6.70807">
        <ele>2528.4</ele>
        <time>2017-08-29T13:37:30Z</time>
      </trkpt>
      <trkpt lat="45.71227" lon="6.70779">
        <ele>2525.04</ele>
        <time>2017-08-29T13:37:38Z</time>
      </trkpt>
      <trkpt lat="45.71214" lon="6.70758">
        <ele>2522.64</ele>
        <time>2017-08-29T13:37:45Z</time>
      </trkpt>
      <trkpt lat="45.71201" lon="6.70742">
        <ele>2520.23</ele>
        <time>2017-08-29T13:37:51Z</time>
      </trkpt>
      <trkpt lat="45.71193" lon="6.70729">
        <ele>2518.31</ele>
        <time>2017-08-29T13:37:55Z</time>
      </trkpt>
      <trkpt lat="45.71178" lon="6.70708">
        <ele>2515.91</ele>
        <time>2017-08-29T13:38:02Z</time>
      </trkpt>
      <trkpt lat="45.71169" lon="6.70689">
        <ele>2512.54</ele>
        <time>2017-08-29T13:38:07Z</time>
      </trkpt>
      <trkpt lat="45.71157" lon="6.70663">
        <ele>2509.18</ele>
        <time>2017-08-29T13:38:14Z</time>
      </trkpt>
      <trkpt lat="45.71155" lon="6.70659">
        <ele>2509.18</ele>
        <time>2017-08-29T13:38:15Z</time>
      </trkpt>
      <trkpt lat="45.7115" lon="6.70642">
        <ele>2506.77</ele>
        <time>2017-08-29T13:38:19Z</time>
      </trkpt>
      <trkpt lat="45.71138" lon="6.70613">
        <ele>2504.85</ele>
        <time>2017-08-29T13:38:26Z</time>
      </trkpt>
      <trkpt lat="45.71133" lon="6.70596">
        <ele>2502.93</ele>
        <time>2017-08-29T13:38:30Z</time>
      </trkpt>
      <trkpt lat="45.71125" lon="6.70569">
        <ele>2501.49</ele>
        <time>2017-08-29T13:38:37Z</time>
      </trkpt>
      <trkpt lat="45.71115" lon="6.70543">
        <ele>2499.08</ele>
        <time>2017-08-29T13:38:44Z</time>
      </trkpt>
      <trkpt lat="45.71106" lon="6.70523">
        <ele>2496.68</ele>
        <time>2017-08-29T13:38:50Z</time>
      </trkpt>
      <trkpt lat="45.711" lon="6.70509">
        <ele>2493.32</ele>
        <time>2017-08-29T13:38:55Z</time>
      </trkpt>
      <trkpt lat="45.71093" lon="6.7049">
        <ele>2490.43</ele>
        <time>2017-08-29T13:39:00Z</time>
      </trkpt>
      <trkpt lat="45.71084" lon="6.70465">
        <ele>2487.55</ele>
        <time>2017-08-29T13:39:06Z</time>
      </trkpt>
      <trkpt lat="45.71071" lon="6.70446">
        <ele>2484.66</ele>
        <time>2017-08-29T13:39:12Z</time>
      </trkpt>
      <trkpt lat="45.71063" lon="6.70429">
        <ele>2481.78</ele>
        <time>2017-08-29T13:39:17Z</time>
      </trkpt>
      <trkpt lat="45.71061" lon="6.70423">
        <ele>2480.82</ele>
        <time>2017-08-29T13:39:19Z</time>
      </trkpt>
      <trkpt lat="45.71056" lon="6.70409">
        <ele>2479.38</ele>
        <time>2017-08-29T13:39:23Z</time>
      </trkpt>
      <trkpt lat="45.71051" lon="6.70389">
        <ele>2476.01</ele>
        <time>2017-08-29T13:39:28Z</time>
      </trkpt>
      <trkpt lat="45.71046" lon="6.70371">
        <ele>2472.17</ele>
        <time>2017-08-29T13:39:32Z</time>
      </trkpt>
      <trkpt lat="45.7104" lon="6.70348">
        <ele>2468.8</ele>
        <time>2017-08-29T13:39:37Z</time>
      </trkpt>
      <trkpt lat="45.71033" lon="6.70325">
        <ele>2464.96</ele>
        <time>2017-08-29T13:39:42Z</time>
      </trkpt>
      <trkpt lat="45.71024" lon="6.70298">
        <ele>2461.59</ele>
        <time>2017-08-29T13:39:48Z</time>
      </trkpt>
      <trkpt lat="45.71019" lon="6.70283">
        <ele>2458.71</ele>
        <time>2017-08-29T13:39:52Z</time>
      </trkpt>
      <trkpt lat="45.71016" lon="6.70275">
        <ele>2458.23</ele>
        <time>2017-08-29T13:39:54Z</time>
      </trkpt>
      <trkpt lat="45.7101" lon="6.70255">
        <ele>2454.86</ele>
        <time>2017-08-29T13:39:59Z</time>
      </trkpt>
      <trkpt lat="45.71007" lon="6.7024">
        <ele>2451.02</ele>
        <time>2017-08-29T13:40:03Z</time>
      </trkpt>
      <trkpt lat="45.71006" lon="6.70227">
        <ele>2448.62</ele>
        <time>2017-08-29T13:40:07Z</time>
      </trkpt>
      <trkpt lat="45.71005" lon="6.70225">
        <ele>2447.65</ele>
        <time>2017-08-29T13:40:08Z</time>
      </trkpt>
      <trkpt lat="45.71004" lon="6.70223">
        <ele>2446.21</ele>
        <time>2017-08-29T13:40:09Z</time>
      </trkpt>
      <trkpt lat="45.71003" lon="6.70221">
        <ele>2444.77</ele>
        <time>2017-08-29T13:40:10Z</time>
      </trkpt>
      <trkpt lat="45.71002" lon="6.70219">
        <ele>2444.29</ele>
        <time>2017-08-29T13:40:11Z</time>
      </trkpt>
      <trkpt lat="45.71001" lon="6.70216">
        <ele>2443.33</ele>
        <time>2017-08-29T13:40:12Z</time>
      </trkpt>
      <trkpt lat="45.71001" lon="6.70213">
        <ele>2442.37</ele>
        <time>2017-08-29T13:40:13Z</time>
      </trkpt>
      <trkpt lat="45.70995" lon="6.70201">
        <ele>2439</ele>
        <time>2017-08-29T13:40:17Z</time>
      </trkpt>
      <trkpt lat="45.70992" lon="6.70189">
        <ele>2435.64</ele>
        <time>2017-08-29T13:40:20Z</time>
      </trkpt>
      <trkpt lat="45.70987" lon="6.70172">
        <ele>2432.75</ele>
        <time>2017-08-29T13:40:24Z</time>
      </trkpt>
      <trkpt lat="45.70979" lon="6.70147">
        <ele>2429.39</ele>
        <time>2017-08-29T13:40:30Z</time>
      </trkpt>
      <trkpt lat="45.70971" lon="6.70117">
        <ele>2428.43</ele>
        <time>2017-08-29T13:40:37Z</time>
      </trkpt>
      <trkpt lat="45.70966" lon="6.70089">
        <ele>2429.87</ele>
        <time>2017-08-29T13:40:44Z</time>
      </trkpt>
      <trkpt lat="45.70958" lon="6.70061">
        <ele>2430.83</ele>
        <time>2017-08-29T13:40:51Z</time>
      </trkpt>
      <trkpt lat="45.70948" lon="6.70035">
        <ele>2430.83</ele>
        <time>2017-08-29T13:40:58Z</time>
      </trkpt>
      <trkpt lat="45.7094" lon="6.70008">
        <ele>2432.27</ele>
        <time>2017-08-29T13:41:06Z</time>
      </trkpt>
      <trkpt lat="45.70937" lon="6.69984">
        <ele>2434.68</ele>
        <time>2017-08-29T13:41:27Z</time>
      </trkpt>
      <trkpt lat="45.70938" lon="6.69985">
        <ele>2433.71</ele>
        <time>2017-08-29T13:41:36Z</time>
      </trkpt>
      <trkpt lat="45.70938" lon="6.69984">
        <ele>2434.68</ele>
        <time>2017-08-29T13:41:42Z</time>
      </trkpt>
      <trkpt lat="45.70938" lon="6.69984">
        <ele>2434.68</ele>
        <time>2017-08-29T13:41:46Z</time>
      </trkpt>
      <trkpt lat="45.70938" lon="6.69984">
        <ele>2434.68</ele>
        <time>2017-08-29T13:41:49Z</time>
      </trkpt>
      <trkpt lat="45.70937" lon="6.69984">
        <ele>2434.2</ele>
        <time>2017-08-29T13:41:52Z</time>
      </trkpt>
      <trkpt lat="45.70937" lon="6.69983">
        <ele>2433.71</ele>
        <time>2017-08-29T13:42:00Z</time>
      </trkpt>
      <trkpt lat="45.70937" lon="6.69983">
        <ele>2433.71</ele>
        <time>2017-08-29T13:42:05Z</time>
      </trkpt>
      <trkpt lat="45.70937" lon="6.69983">
        <ele>2433.71</ele>
        <time>2017-08-29T13:42:09Z</time>
      </trkpt>
      <trkpt lat="45.70937" lon="6.69984">
        <ele>2433.71</ele>
        <time>2017-08-29T13:42:12Z</time>
      </trkpt>
      <trkpt lat="45.70937" lon="6.69984">
        <ele>2433.71</ele>
        <time>2017-08-29T13:42:18Z</time>
      </trkpt>
      <trkpt lat="45.70937" lon="6.69984">
        <ele>2433.71</ele>
        <time>2017-08-29T13:42:23Z</time>
      </trkpt>
      <trkpt lat="45.70937" lon="6.69984">
        <ele>2433.71</ele>
        <time>2017-08-29T13:42:28Z</time>
      </trkpt>
      <trkpt lat="45.70937" lon="6.69984">
        <ele>2433.71</ele>
        <time>2017-08-29T13:42:46Z</time>
      </trkpt>
      <trkpt lat="45.70937" lon="6.69983">
        <ele>2433.71</ele>
        <time>2017-08-29T13:42:56Z</time>
      </trkpt>
      <trkpt lat="45.70941" lon="6.69978">
        <ele>2433.23</ele>
        <time>2017-08-29T13:43:28Z</time>
      </trkpt>
      <trkpt lat="45.70942" lon="6.6998">
        <ele>2432.75</ele>
        <time>2017-08-29T13:43:29Z</time>
      </trkpt>
      <trkpt lat="45.70943" lon="6.69984">
        <ele>2431.79</ele>
        <time>2017-08-29T13:43:31Z</time>
      </trkpt>
      <trkpt lat="45.70944" lon="6.69983">
        <ele>2431.31</ele>
        <time>2017-08-29T13:43:32Z</time>
      </trkpt>
      <trkpt lat="45.70944" lon="6.69981">
        <ele>2431.31</ele>
        <time>2017-08-29T13:43:33Z</time>
      </trkpt>
      <trkpt lat="45.70944" lon="6.69979">
        <ele>2430.83</ele>
        <time>2017-08-29T13:43:34Z</time>
      </trkpt>
      <trkpt lat="45.70945" lon="6.69976">
        <ele>2430.83</ele>
        <time>2017-08-29T13:43:35Z</time>
      </trkpt>
      <trkpt lat="45.70946" lon="6.69973">
        <ele>2429.87</ele>
        <time>2017-08-29T13:43:36Z</time>
      </trkpt>
      <trkpt lat="45.70947" lon="6.69974">
        <ele>2429.39</ele>
        <time>2017-08-29T13:43:37Z</time>
      </trkpt>
      <trkpt lat="45.70948" lon="6.69978">
        <ele>2428.43</ele>
        <time>2017-08-29T13:43:38Z</time>
      </trkpt>
      <trkpt lat="45.70949" lon="6.69981">
        <ele>2428.43</ele>
        <time>2017-08-29T13:43:39Z</time>
      </trkpt>
      <trkpt lat="45.7095" lon="6.69984">
        <ele>2427.95</ele>
        <time>2017-08-29T13:43:40Z</time>
      </trkpt>
      <trkpt lat="45.7095" lon="6.69987">
        <ele>2427.47</ele>
        <time>2017-08-29T13:43:41Z</time>
      </trkpt>
      <trkpt lat="45.70951" lon="6.6999">
        <ele>2426.99</ele>
        <time>2017-08-29T13:43:42Z</time>
      </trkpt>
      <trkpt lat="45.70952" lon="6.69994">
        <ele>2426.02</ele>
        <time>2017-08-29T13:43:43Z</time>
      </trkpt>
      <trkpt lat="45.70952" lon="6.69998">
        <ele>2425.06</ele>
        <time>2017-08-29T13:43:44Z</time>
      </trkpt>
      <trkpt lat="45.70957" lon="6.70015">
        <ele>2422.18</ele>
        <time>2017-08-29T13:43:49Z</time>
      </trkpt>
      <trkpt lat="45.70957" lon="6.70015">
        <ele>2421.7</ele>
        <time>2017-08-29T13:43:51Z</time>
      </trkpt>
      <trkpt lat="45.70958" lon="6.70011">
        <ele>2421.22</ele>
        <time>2017-08-29T13:43:52Z</time>
      </trkpt>
      <trkpt lat="45.70957" lon="6.69989">
        <ele>2418.33</ele>
        <time>2017-08-29T13:43:57Z</time>
      </trkpt>
      <trkpt lat="45.7096" lon="6.69962">
        <ele>2415.45</ele>
        <time>2017-08-29T13:44:04Z</time>
      </trkpt>
      <trkpt lat="45.70962" lon="6.69953">
        <ele>2414.49</ele>
        <time>2017-08-29T13:44:06Z</time>
      </trkpt>
      <trkpt lat="45.70963" lon="6.69941">
        <ele>2414.01</ele>
        <time>2017-08-29T13:44:09Z</time>
      </trkpt>
      <trkpt lat="45.70963" lon="6.69916">
        <ele>2410.16</ele>
        <time>2017-08-29T13:44:15Z</time>
      </trkpt>
      <trkpt lat="45.70968" lon="6.69897">
        <ele>2407.28</ele>
        <time>2017-08-29T13:44:21Z</time>
      </trkpt>
      <trkpt lat="45.70976" lon="6.69873">
        <ele>2403.91</ele>
        <time>2017-08-29T13:44:27Z</time>
      </trkpt>
      <trkpt lat="45.70978" lon="6.69846">
        <ele>2401.99</ele>
        <time>2017-08-29T13:44:34Z</time>
      </trkpt>
      <trkpt lat="45.70968" lon="6.69826">
        <ele>2398.63</ele>
        <time>2017-08-29T13:44:42Z</time>
      </trkpt>
      <trkpt lat="45.70964" lon="6.69811">
        <ele>2395.74</ele>
        <time>2017-08-29T13:44:47Z</time>
      </trkpt>
      <trkpt lat="45.70963" lon="6.69796">
        <ele>2392.38</ele>
        <time>2017-08-29T13:44:52Z</time>
      </trkpt>
      <trkpt lat="45.70961" lon="6.69772">
        <ele>2389.01</ele>
        <time>2017-08-29T13:44:59Z</time>
      </trkpt>
      <trkpt lat="45.70962" lon="6.69761">
        <ele>2387.57</ele>
        <time>2017-08-29T13:45:02Z</time>
      </trkpt>
      <trkpt lat="45.70962" lon="6.69738">
        <ele>2384.69</ele>
        <time>2017-08-29T13:45:08Z</time>
      </trkpt>
      <trkpt lat="45.70963" lon="6.69734">
        <ele>2384.21</ele>
        <time>2017-08-29T13:45:09Z</time>
      </trkpt>
      <trkpt lat="45.70964" lon="6.69723">
        <ele>2382.76</ele>
        <time>2017-08-29T13:45:12Z</time>
      </trkpt>
      <trkpt lat="45.70966" lon="6.69706">
        <ele>2380.36</ele>
        <time>2017-08-29T13:45:17Z</time>
      </trkpt>
      <trkpt lat="45.70966" lon="6.69693">
        <ele>2379.88</ele>
        <time>2017-08-29T13:45:21Z</time>
      </trkpt>
      <trkpt lat="45.70967" lon="6.69689">
        <ele>2379.4</ele>
        <time>2017-08-29T13:45:22Z</time>
      </trkpt>
      <trkpt lat="45.70969" lon="6.69661">
        <ele>2378.44</ele>
        <time>2017-08-29T13:45:29Z</time>
      </trkpt>
      <trkpt lat="45.70969" lon="6.69635">
        <ele>2376.52</ele>
        <time>2017-08-29T13:45:36Z</time>
      </trkpt>
      <trkpt lat="45.70973" lon="6.69607">
        <ele>2374.59</ele>
        <time>2017-08-29T13:45:43Z</time>
      </trkpt>
      <trkpt lat="45.70974" lon="6.69589">
        <ele>2373.15</ele>
        <time>2017-08-29T13:45:48Z</time>
      </trkpt>
      <trkpt lat="45.70973" lon="6.69586">
        <ele>2373.15</ele>
        <time>2017-08-29T13:45:49Z</time>
      </trkpt>
      <trkpt lat="45.70964" lon="6.6957">
        <ele>2370.27</ele>
        <time>2017-08-29T13:45:57Z</time>
      </trkpt>
      <trkpt lat="45.70965" lon="6.69568">
        <ele>2369.31</ele>
        <time>2017-08-29T13:45:58Z</time>
      </trkpt>
      <trkpt lat="45.70966" lon="6.69567">
        <ele>2368.83</ele>
        <time>2017-08-29T13:45:59Z</time>
      </trkpt>
      <trkpt lat="45.70969" lon="6.69567">
        <ele>2368.35</ele>
        <time>2017-08-29T13:46:00Z</time>
      </trkpt>
      <trkpt lat="45.70972" lon="6.69568">
        <ele>2367.86</ele>
        <time>2017-08-29T13:46:01Z</time>
      </trkpt>
      <trkpt lat="45.70975" lon="6.69568">
        <ele>2367.86</ele>
        <time>2017-08-29T13:46:02Z</time>
      </trkpt>
      <trkpt lat="45.70977" lon="6.6957">
        <ele>2367.86</ele>
        <time>2017-08-29T13:46:03Z</time>
      </trkpt>
      <trkpt lat="45.70979" lon="6.69572">
        <ele>2367.38</ele>
        <time>2017-08-29T13:46:04Z</time>
      </trkpt>
      <trkpt lat="45.70981" lon="6.69575">
        <ele>2367.38</ele>
        <time>2017-08-29T13:46:05Z</time>
      </trkpt>
      <trkpt lat="45.70992" lon="6.69591">
        <ele>2364.98</ele>
        <time>2017-08-29T13:46:11Z</time>
      </trkpt>
      <trkpt lat="45.70996" lon="6.69604">
        <ele>2362.1</ele>
        <time>2017-08-29T13:46:16Z</time>
      </trkpt>
      <trkpt lat="45.70997" lon="6.69602">
        <ele>2361.62</ele>
        <time>2017-08-29T13:46:17Z</time>
      </trkpt>
      <trkpt lat="45.70998" lon="6.69599">
        <ele>2361.62</ele>
        <time>2017-08-29T13:46:18Z</time>
      </trkpt>
      <trkpt lat="45.71003" lon="6.69581">
        <ele>2357.29</ele>
        <time>2017-08-29T13:46:24Z</time>
      </trkpt>
      <trkpt lat="45.71007" lon="6.69569">
        <ele>2353.93</ele>
        <time>2017-08-29T13:46:28Z</time>
      </trkpt>
      <trkpt lat="45.71009" lon="6.69568">
        <ele>2353.44</ele>
        <time>2017-08-29T13:46:29Z</time>
      </trkpt>
      <trkpt lat="45.71012" lon="6.69567">
        <ele>2352.96</ele>
        <time>2017-08-29T13:46:30Z</time>
      </trkpt>
      <trkpt lat="45.71033" lon="6.69568">
        <ele>2351.52</ele>
        <time>2017-08-29T13:46:37Z</time>
      </trkpt>
      <trkpt lat="45.71053" lon="6.69558">
        <ele>2349.6</ele>
        <time>2017-08-29T13:46:45Z</time>
      </trkpt>
      <trkpt lat="45.7106" lon="6.69538">
        <ele>2347.2</ele>
        <time>2017-08-29T13:46:51Z</time>
      </trkpt>
      <trkpt lat="45.71061" lon="6.69536">
        <ele>2347.2</ele>
        <time>2017-08-29T13:46:52Z</time>
      </trkpt>
      <trkpt lat="45.71063" lon="6.69535">
        <ele>2347.2</ele>
        <time>2017-08-29T13:46:53Z</time>
      </trkpt>
      <trkpt lat="45.71068" lon="6.69534">
        <ele>2346.23</ele>
        <time>2017-08-29T13:46:56Z</time>
      </trkpt>
      <trkpt lat="45.71079" lon="6.69526">
        <ele>2342.87</ele>
        <time>2017-08-29T13:47:01Z</time>
      </trkpt>
      <trkpt lat="45.71082" lon="6.69525">
        <ele>2342.39</ele>
        <time>2017-08-29T13:47:02Z</time>
      </trkpt>
      <trkpt lat="45.71098" lon="6.6951">
        <ele>2339.99</ele>
        <time>2017-08-29T13:47:10Z</time>
      </trkpt>
      <trkpt lat="45.71103" lon="6.69494">
        <ele>2338.54</ele>
        <time>2017-08-29T13:47:15Z</time>
      </trkpt>
      <trkpt lat="45.71105" lon="6.69493">
        <ele>2338.54</ele>
        <time>2017-08-29T13:47:16Z</time>
      </trkpt>
      <trkpt lat="45.71107" lon="6.69492">
        <ele>2338.06</ele>
        <time>2017-08-29T13:47:17Z</time>
      </trkpt>
      <trkpt lat="45.71109" lon="6.69492">
        <ele>2338.06</ele>
        <time>2017-08-29T13:47:18Z</time>
      </trkpt>
      <trkpt lat="45.71111" lon="6.69491">
        <ele>2337.58</ele>
        <time>2017-08-29T13:47:19Z</time>
      </trkpt>
      <trkpt lat="45.71116" lon="6.69489">
        <ele>2336.62</ele>
        <time>2017-08-29T13:47:21Z</time>
      </trkpt>
      <trkpt lat="45.71125" lon="6.69478">
        <ele>2334.22</ele>
        <time>2017-08-29T13:47:26Z</time>
      </trkpt>
      <trkpt lat="45.71143" lon="6.69461">
        <ele>2331.81</ele>
        <time>2017-08-29T13:47:34Z</time>
      </trkpt>
      <trkpt lat="45.71158" lon="6.69443">
        <ele>2330.85</ele>
        <time>2017-08-29T13:47:42Z</time>
      </trkpt>
      <trkpt lat="45.7117" lon="6.6944">
        <ele>2331.33</ele>
        <time>2017-08-29T13:47:49Z</time>
      </trkpt>
      <trkpt lat="45.71171" lon="6.69439">
        <ele>2331.33</ele>
        <time>2017-08-29T13:47:50Z</time>
      </trkpt>
      <trkpt lat="45.71171" lon="6.69442">
        <ele>2331.33</ele>
        <time>2017-08-29T13:47:58Z</time>
      </trkpt>
      <trkpt lat="45.71173" lon="6.69446">
        <ele>2330.85</ele>
        <time>2017-08-29T13:48:05Z</time>
      </trkpt>
      <trkpt lat="45.71174" lon="6.69446">
        <ele>2331.33</ele>
        <time>2017-08-29T13:48:06Z</time>
      </trkpt>
      <trkpt lat="45.71175" lon="6.69447">
        <ele>2331.81</ele>
        <time>2017-08-29T13:48:07Z</time>
      </trkpt>
      <trkpt lat="45.71176" lon="6.69447">
        <ele>2331.81</ele>
        <time>2017-08-29T13:48:08Z</time>
      </trkpt>
      <trkpt lat="45.71177" lon="6.69448">
        <ele>2332.3</ele>
        <time>2017-08-29T13:48:09Z</time>
      </trkpt>
      <trkpt lat="45.71188" lon="6.69472">
        <ele>2331.81</ele>
        <time>2017-08-29T13:48:23Z</time>
      </trkpt>
      <trkpt lat="45.71191" lon="6.69479">
        <ele>2331.81</ele>
        <time>2017-08-29T13:48:27Z</time>
      </trkpt>
      <trkpt lat="45.71192" lon="6.69485">
        <ele>2331.81</ele>
        <time>2017-08-29T13:48:30Z</time>
      </trkpt>
      <trkpt lat="45.71193" lon="6.69487">
        <ele>2331.81</ele>
        <time>2017-08-29T13:48:31Z</time>
      </trkpt>
      <trkpt lat="45.71194" lon="6.69488">
        <ele>2331.81</ele>
        <time>2017-08-29T13:48:32Z</time>
      </trkpt>
      <trkpt lat="45.71203" lon="6.69512">
        <ele>2332.78</ele>
        <time>2017-08-29T13:48:46Z</time>
      </trkpt>
      <trkpt lat="45.71212" lon="6.69524">
        <ele>2331.81</ele>
        <time>2017-08-29T13:49:01Z</time>
      </trkpt>
      <trkpt lat="45.71213" lon="6.69526">
        <ele>2330.85</ele>
        <time>2017-08-29T13:49:03Z</time>
      </trkpt>
      <trkpt lat="45.71214" lon="6.69528">
        <ele>2330.85</ele>
        <time>2017-08-29T13:49:04Z</time>
      </trkpt>
      <trkpt lat="45.71215" lon="6.6953">
        <ele>2330.37</ele>
        <time>2017-08-29T13:49:05Z</time>
      </trkpt>
      <trkpt lat="45.71217" lon="6.69531">
        <ele>2329.89</ele>
        <time>2017-08-29T13:49:06Z</time>
      </trkpt>
      <trkpt lat="45.71219" lon="6.69533">
        <ele>2329.41</ele>
        <time>2017-08-29T13:49:07Z</time>
      </trkpt>
      <trkpt lat="45.71224" lon="6.69536">
        <ele>2328.45</ele>
        <time>2017-08-29T13:49:09Z</time>
      </trkpt>
      <trkpt lat="45.71233" lon="6.69557">
        <ele>2326.53</ele>
        <time>2017-08-29T13:49:16Z</time>
      </trkpt>
      <trkpt lat="45.71244" lon="6.69581">
        <ele>2325.09</ele>
        <time>2017-08-29T13:49:24Z</time>
      </trkpt>
      <trkpt lat="45.71253" lon="6.69603">
        <ele>2324.12</ele>
        <time>2017-08-29T13:49:31Z</time>
      </trkpt>
      <trkpt lat="45.71264" lon="6.69628">
        <ele>2321.72</ele>
        <time>2017-08-29T13:49:40Z</time>
      </trkpt>
      <trkpt lat="45.71275" lon="6.69651">
        <ele>2319.32</ele>
        <time>2017-08-29T13:49:48Z</time>
      </trkpt>
      <trkpt lat="45.71286" lon="6.69671">
        <ele>2315.95</ele>
        <time>2017-08-29T13:49:56Z</time>
      </trkpt>
      <trkpt lat="45.71296" lon="6.69686">
        <ele>2313.55</ele>
        <time>2017-08-29T13:50:03Z</time>
      </trkpt>
      <trkpt lat="45.71297" lon="6.69687">
        <ele>2313.55</ele>
        <time>2017-08-29T13:50:04Z</time>
      </trkpt>
      <trkpt lat="45.71299" lon="6.69688">
        <ele>2313.07</ele>
        <time>2017-08-29T13:50:05Z</time>
      </trkpt>
      <trkpt lat="45.71301" lon="6.69689">
        <ele>2312.59</ele>
        <time>2017-08-29T13:50:06Z</time>
      </trkpt>
      <trkpt lat="45.71302" lon="6.69691">
        <ele>2312.59</ele>
        <time>2017-08-29T13:50:07Z</time>
      </trkpt>
      <trkpt lat="45.71302" lon="6.69692">
        <ele>2312.11</ele>
        <time>2017-08-29T13:50:08Z</time>
      </trkpt>
      <trkpt lat="45.71303" lon="6.69693">
        <ele>2312.11</ele>
        <time>2017-08-29T13:50:09Z</time>
      </trkpt>
      <trkpt lat="45.71305" lon="6.69693">
        <ele>2312.11</ele>
        <time>2017-08-29T13:50:10Z</time>
      </trkpt>
      <trkpt lat="45.71308" lon="6.69702">
        <ele>2311.63</ele>
        <time>2017-08-29T13:50:17Z</time>
      </trkpt>
      <trkpt lat="45.71308" lon="6.69704">
        <ele>2310.67</ele>
        <time>2017-08-29T13:50:18Z</time>
      </trkpt>
      <trkpt lat="45.71308" lon="6.69705">
        <ele>2310.19</ele>
        <time>2017-08-29T13:50:19Z</time>
      </trkpt>
      <trkpt lat="45.71309" lon="6.69706">
        <ele>2310.19</ele>
        <time>2017-08-29T13:50:20Z</time>
      </trkpt>
      <trkpt lat="45.71309" lon="6.69707">
        <ele>2309.22</ele>
        <time>2017-08-29T13:50:26Z</time>
      </trkpt>
      <trkpt lat="45.71311" lon="6.69716">
        <ele>2306.82</ele>
        <time>2017-08-29T13:50:37Z</time>
      </trkpt>
      <trkpt lat="45.71315" lon="6.69727">
        <ele>2304.9</ele>
        <time>2017-08-29T13:50:46Z</time>
      </trkpt>
      <trkpt lat="45.71318" lon="6.69731">
        <ele>2303.46</ele>
        <time>2017-08-29T13:50:51Z</time>
      </trkpt>
      <trkpt lat="45.71318" lon="6.69732">
        <ele>2303.94</ele>
        <time>2017-08-29T13:50:56Z</time>
      </trkpt>
      <trkpt lat="45.71321" lon="6.69734">
        <ele>2302.98</ele>
        <time>2017-08-29T13:51:00Z</time>
      </trkpt>
      <trkpt lat="45.71323" lon="6.69736">
        <ele>2302.49</ele>
        <time>2017-08-29T13:51:02Z</time>
      </trkpt>
      <trkpt lat="45.71326" lon="6.69739">
        <ele>2302.01</ele>
        <time>2017-08-29T13:51:05Z</time>
      </trkpt>
      <trkpt lat="45.71339" lon="6.6976">
        <ele>2299.61</ele>
        <time>2017-08-29T13:51:16Z</time>
      </trkpt>
      <trkpt lat="45.71351" lon="6.69781">
        <ele>2296.73</ele>
        <time>2017-08-29T13:51:27Z</time>
      </trkpt>
      <trkpt lat="45.71352" lon="6.69787">
        <ele>2295.77</ele>
        <time>2017-08-29T13:51:31Z</time>
      </trkpt>
      <trkpt lat="45.71352" lon="6.69789">
        <ele>2295.28</ele>
        <time>2017-08-29T13:51:32Z</time>
      </trkpt>
      <trkpt lat="45.71347" lon="6.69799">
        <ele>2291.92</ele>
        <time>2017-08-29T13:51:46Z</time>
      </trkpt>
      <trkpt lat="45.71351" lon="6.69805">
        <ele>2289.04</ele>
        <time>2017-08-29T13:51:57Z</time>
      </trkpt>
      <trkpt lat="45.71352" lon="6.69806">
        <ele>2288.56</ele>
        <time>2017-08-29T13:51:58Z</time>
      </trkpt>
      <trkpt lat="45.71354" lon="6.69809">
        <ele>2287.59</ele>
        <time>2017-08-29T13:52:01Z</time>
      </trkpt>
      <trkpt lat="45.71357" lon="6.69813">
        <ele>2286.15</ele>
        <time>2017-08-29T13:52:05Z</time>
      </trkpt>
      <trkpt lat="45.7136" lon="6.69819">
        <ele>2284.23</ele>
        <time>2017-08-29T13:52:11Z</time>
      </trkpt>
      <trkpt lat="45.7136" lon="6.69819">
        <ele>2283.75</ele>
        <time>2017-08-29T13:52:12Z</time>
      </trkpt>
      <trkpt lat="45.71365" lon="6.69825">
        <ele>2281.83</ele>
        <time>2017-08-29T13:52:17Z</time>
      </trkpt>
      <trkpt lat="45.71365" lon="6.69826">
        <ele>2281.35</ele>
        <time>2017-08-29T13:52:18Z</time>
      </trkpt>
      <trkpt lat="45.71366" lon="6.69827">
        <ele>2280.87</ele>
        <time>2017-08-29T13:52:19Z</time>
      </trkpt>
      <trkpt lat="45.71366" lon="6.69828">
        <ele>2280.38</ele>
        <time>2017-08-29T13:52:20Z</time>
      </trkpt>
      <trkpt lat="45.71367" lon="6.69829">
        <ele>2280.38</ele>
        <time>2017-08-29T13:52:21Z</time>
      </trkpt>
      <trkpt lat="45.71368" lon="6.69829">
        <ele>2279.9</ele>
        <time>2017-08-29T13:52:22Z</time>
      </trkpt>
      <trkpt lat="45.71368" lon="6.69831">
        <ele>2279.42</ele>
        <time>2017-08-29T13:52:23Z</time>
      </trkpt>
      <trkpt lat="45.71368" lon="6.69832">
        <ele>2279.42</ele>
        <time>2017-08-29T13:52:24Z</time>
      </trkpt>
      <trkpt lat="45.71369" lon="6.69841">
        <ele>2277.02</ele>
        <time>2017-08-29T13:52:30Z</time>
      </trkpt>
      <trkpt lat="45.71372" lon="6.69843">
        <ele>2277.02</ele>
        <time>2017-08-29T13:52:33Z</time>
      </trkpt>
      <trkpt lat="45.71373" lon="6.69842">
        <ele>2276.54</ele>
        <time>2017-08-29T13:52:34Z</time>
      </trkpt>
      <trkpt lat="45.71375" lon="6.69842">
        <ele>2276.54</ele>
        <time>2017-08-29T13:52:35Z</time>
      </trkpt>
      <trkpt lat="45.71376" lon="6.69842">
        <ele>2276.54</ele>
        <time>2017-08-29T13:52:36Z</time>
      </trkpt>
      <trkpt lat="45.71377" lon="6.69843">
        <ele>2276.06</ele>
        <time>2017-08-29T13:52:37Z</time>
      </trkpt>
      <trkpt lat="45.71378" lon="6.69844">
        <ele>2276.06</ele>
        <time>2017-08-29T13:52:38Z</time>
      </trkpt>
      <trkpt lat="45.7138" lon="6.69845">
        <ele>2275.58</ele>
        <time>2017-08-29T13:52:39Z</time>
      </trkpt>
      <trkpt lat="45.71389" lon="6.69849">
        <ele>2272.21</ele>
        <time>2017-08-29T13:52:49Z</time>
      </trkpt>
      <trkpt lat="45.71408" lon="6.69854">
        <ele>2269.33</ele>
        <time>2017-08-29T13:53:03Z</time>
      </trkpt>
      <trkpt lat="45.71424" lon="6.69848">
        <ele>2268.85</ele>
        <time>2017-08-29T13:53:15Z</time>
      </trkpt>
      <trkpt lat="45.71425" lon="6.69847">
        <ele>2268.85</ele>
        <time>2017-08-29T13:53:16Z</time>
      </trkpt>
      <trkpt lat="45.71426" lon="6.69846">
        <ele>2268.85</ele>
        <time>2017-08-29T13:53:17Z</time>
      </trkpt>
      <trkpt lat="45.71427" lon="6.69845">
        <ele>2268.37</ele>
        <time>2017-08-29T13:53:18Z</time>
      </trkpt>
      <trkpt lat="45.7143" lon="6.69841">
        <ele>2267.41</ele>
        <time>2017-08-29T13:53:30Z</time>
      </trkpt>
      <trkpt lat="45.7143" lon="6.69839">
        <ele>2267.41</ele>
        <time>2017-08-29T13:53:31Z</time>
      </trkpt>
      <trkpt lat="45.7143" lon="6.69838">
        <ele>2267.41</ele>
        <time>2017-08-29T13:53:32Z</time>
      </trkpt>
      <trkpt lat="45.71431" lon="6.69836">
        <ele>2267.41</ele>
        <time>2017-08-29T13:53:33Z</time>
      </trkpt>
      <trkpt lat="45.71431" lon="6.69834">
        <ele>2266.93</ele>
        <time>2017-08-29T13:53:34Z</time>
      </trkpt>
      <trkpt lat="45.71432" lon="6.69833">
        <ele>2266.93</ele>
        <time>2017-08-29T13:53:35Z</time>
      </trkpt>
      <trkpt lat="45.71433" lon="6.69831">
        <ele>2266.45</ele>
        <time>2017-08-29T13:53:36Z</time>
      </trkpt>
      <trkpt lat="45.71434" lon="6.6983">
        <ele>2265.96</ele>
        <time>2017-08-29T13:53:37Z</time>
      </trkpt>
      <trkpt lat="45.71436" lon="6.6983">
        <ele>2265.96</ele>
        <time>2017-08-29T13:53:38Z</time>
      </trkpt>
      <trkpt lat="45.71437" lon="6.6983">
        <ele>2265.96</ele>
        <time>2017-08-29T13:53:39Z</time>
      </trkpt>
      <trkpt lat="45.71438" lon="6.6983">
        <ele>2265.48</ele>
        <time>2017-08-29T13:53:40Z</time>
      </trkpt>
      <trkpt lat="45.71455" lon="6.69827">
        <ele>2262.6</ele>
        <time>2017-08-29T13:53:55Z</time>
      </trkpt>
      <trkpt lat="45.71459" lon="6.69827">
        <ele>2261.64</ele>
        <time>2017-08-29T13:53:58Z</time>
      </trkpt>
      <trkpt lat="45.7146" lon="6.69826">
        <ele>2261.16</ele>
        <time>2017-08-29T13:53:59Z</time>
      </trkpt>
      <trkpt lat="45.71461" lon="6.69826">
        <ele>2260.68</ele>
        <time>2017-08-29T13:54:00Z</time>
      </trkpt>
      <trkpt lat="45.71463" lon="6.69827">
        <ele>2260.68</ele>
        <time>2017-08-29T13:54:01Z</time>
      </trkpt>
      <trkpt lat="45.71464" lon="6.69827">
        <ele>2260.68</ele>
        <time>2017-08-29T13:54:02Z</time>
      </trkpt>
      <trkpt lat="45.71465" lon="6.69827">
        <ele>2260.2</ele>
        <time>2017-08-29T13:54:03Z</time>
      </trkpt>
      <trkpt lat="45.71475" lon="6.69837">
        <ele>2257.31</ele>
        <time>2017-08-29T13:54:13Z</time>
      </trkpt>
      <trkpt lat="45.71478" lon="6.6984">
        <ele>2256.83</ele>
        <time>2017-08-29T13:54:16Z</time>
      </trkpt>
      <trkpt lat="45.71478" lon="6.6984">
        <ele>2256.83</ele>
        <time>2017-08-29T13:54:17Z</time>
      </trkpt>
      <trkpt lat="45.71492" lon="6.6982">
        <ele>2253.47</ele>
        <time>2017-08-29T13:54:31Z</time>
      </trkpt>
      <trkpt lat="45.71493" lon="6.6982">
        <ele>2253.47</ele>
        <time>2017-08-29T13:54:32Z</time>
      </trkpt>
      <trkpt lat="45.71503" lon="6.69814">
        <ele>2251.54</ele>
        <time>2017-08-29T13:54:40Z</time>
      </trkpt>
      <trkpt lat="45.71504" lon="6.6981">
        <ele>2250.58</ele>
        <time>2017-08-29T13:54:42Z</time>
      </trkpt>
      <trkpt lat="45.71505" lon="6.69808">
        <ele>2250.58</ele>
        <time>2017-08-29T13:54:43Z</time>
      </trkpt>
      <trkpt lat="45.71506" lon="6.69806">
        <ele>2250.58</ele>
        <time>2017-08-29T13:54:44Z</time>
      </trkpt>
      <trkpt lat="45.71507" lon="6.69806">
        <ele>2250.58</ele>
        <time>2017-08-29T13:54:45Z</time>
      </trkpt>
      <trkpt lat="45.71509" lon="6.69805">
        <ele>2250.58</ele>
        <time>2017-08-29T13:54:46Z</time>
      </trkpt>
      <trkpt lat="45.71512" lon="6.69805">
        <ele>2250.1</ele>
        <time>2017-08-29T13:54:48Z</time>
      </trkpt>
      <trkpt lat="45.71513" lon="6.69806">
        <ele>2250.1</ele>
        <time>2017-08-29T13:54:49Z</time>
      </trkpt>
      <trkpt lat="45.71514" lon="6.69806">
        <ele>2250.58</ele>
        <time>2017-08-29T13:54:50Z</time>
      </trkpt>
      <trkpt lat="45.71517" lon="6.69806">
        <ele>2250.58</ele>
        <time>2017-08-29T13:54:52Z</time>
      </trkpt>
      <trkpt lat="45.71518" lon="6.69806">
        <ele>2250.58</ele>
        <time>2017-08-29T13:54:53Z</time>
      </trkpt>
      <trkpt lat="45.71519" lon="6.69806">
        <ele>2250.58</ele>
        <time>2017-08-29T13:54:54Z</time>
      </trkpt>
      <trkpt lat="45.7152" lon="6.69805">
        <ele>2250.58</ele>
        <time>2017-08-29T13:54:55Z</time>
      </trkpt>
      <trkpt lat="45.71521" lon="6.69805">
        <ele>2250.58</ele>
        <time>2017-08-29T13:54:56Z</time>
      </trkpt>
      <trkpt lat="45.71523" lon="6.69804">
        <ele>2250.58</ele>
        <time>2017-08-29T13:54:57Z</time>
      </trkpt>
      <trkpt lat="45.71524" lon="6.69804">
        <ele>2250.58</ele>
        <time>2017-08-29T13:54:58Z</time>
      </trkpt>
      <trkpt lat="45.71525" lon="6.69804">
        <ele>2251.06</ele>
        <time>2017-08-29T13:54:59Z</time>
      </trkpt>
      <trkpt lat="45.71527" lon="6.69805">
        <ele>2250.58</ele>
        <time>2017-08-29T13:55:00Z</time>
      </trkpt>
      <trkpt lat="45.71528" lon="6.69806">
        <ele>2250.58</ele>
        <time>2017-08-29T13:55:01Z</time>
      </trkpt>
      <trkpt lat="45.7153" lon="6.69806">
        <ele>2250.58</ele>
        <time>2017-08-29T13:55:02Z</time>
      </trkpt>
      <trkpt lat="45.71531" lon="6.69806">
        <ele>2250.58</ele>
        <time>2017-08-29T13:55:03Z</time>
      </trkpt>
      <trkpt lat="45.71532" lon="6.69807">
        <ele>2250.58</ele>
        <time>2017-08-29T13:55:04Z</time>
      </trkpt>
      <trkpt lat="45.71533" lon="6.69807">
        <ele>2250.58</ele>
        <time>2017-08-29T13:55:05Z</time>
      </trkpt>
      <trkpt lat="45.71534" lon="6.69808">
        <ele>2250.58</ele>
        <time>2017-08-29T13:55:06Z</time>
      </trkpt>
      <trkpt lat="45.71536" lon="6.69808">
        <ele>2250.58</ele>
        <time>2017-08-29T13:55:07Z</time>
      </trkpt>
      <trkpt lat="45.71537" lon="6.69808">
        <ele>2250.58</ele>
        <time>2017-08-29T13:55:08Z</time>
      </trkpt>
      <trkpt lat="45.71538" lon="6.69809">
        <ele>2250.58</ele>
        <time>2017-08-29T13:55:09Z</time>
      </trkpt>
      <trkpt lat="45.7154" lon="6.69809">
        <ele>2250.58</ele>
        <time>2017-08-29T13:55:10Z</time>
      </trkpt>
      <trkpt lat="45.71541" lon="6.6981">
        <ele>2250.58</ele>
        <time>2017-08-29T13:55:11Z</time>
      </trkpt>
      <trkpt lat="45.71543" lon="6.6981">
        <ele>2250.1</ele>
        <time>2017-08-29T13:55:12Z</time>
      </trkpt>
      <trkpt lat="45.71544" lon="6.6981">
        <ele>2250.1</ele>
        <time>2017-08-29T13:55:13Z</time>
      </trkpt>
      <trkpt lat="45.71545" lon="6.6981">
        <ele>2250.1</ele>
        <time>2017-08-29T13:55:14Z</time>
      </trkpt>
      <trkpt lat="45.71546" lon="6.69809">
        <ele>2249.62</ele>
        <time>2017-08-29T13:55:15Z</time>
      </trkpt>
      <trkpt lat="45.71547" lon="6.69808">
        <ele>2249.62</ele>
        <time>2017-08-29T13:55:16Z</time>
      </trkpt>
      <trkpt lat="45.71548" lon="6.69806">
        <ele>2249.14</ele>
        <time>2017-08-29T13:55:17Z</time>
      </trkpt>
      <trkpt lat="45.71549" lon="6.69804">
        <ele>2249.14</ele>
        <time>2017-08-29T13:55:18Z</time>
      </trkpt>
      <trkpt lat="45.7155" lon="6.69803">
        <ele>2248.66</ele>
        <time>2017-08-29T13:55:19Z</time>
      </trkpt>
      <trkpt lat="45.71551" lon="6.69801">
        <ele>2248.66</ele>
        <time>2017-08-29T13:55:20Z</time>
      </trkpt>
      <trkpt lat="45.71552" lon="6.69799">
        <ele>2248.66</ele>
        <time>2017-08-29T13:55:21Z</time>
      </trkpt>
      <trkpt lat="45.71553" lon="6.69798">
        <ele>2248.66</ele>
        <time>2017-08-29T13:55:22Z</time>
      </trkpt>
      <trkpt lat="45.71554" lon="6.69796">
        <ele>2248.66</ele>
        <time>2017-08-29T13:55:23Z</time>
      </trkpt>
      <trkpt lat="45.71555" lon="6.69794">
        <ele>2248.66</ele>
        <time>2017-08-29T13:55:24Z</time>
      </trkpt>
      <trkpt lat="45.71556" lon="6.69793">
        <ele>2248.66</ele>
        <time>2017-08-29T13:55:25Z</time>
      </trkpt>
      <trkpt lat="45.71557" lon="6.69792">
        <ele>2248.66</ele>
        <time>2017-08-29T13:55:26Z</time>
      </trkpt>
      <trkpt lat="45.71558" lon="6.69792">
        <ele>2249.14</ele>
        <time>2017-08-29T13:55:27Z</time>
      </trkpt>
      <trkpt lat="45.71559" lon="6.69791">
        <ele>2249.14</ele>
        <time>2017-08-29T13:55:28Z</time>
      </trkpt>
      <trkpt lat="45.71561" lon="6.6979">
        <ele>2249.62</ele>
        <time>2017-08-29T13:55:29Z</time>
      </trkpt>
      <trkpt lat="45.71562" lon="6.6979">
        <ele>2249.62</ele>
        <time>2017-08-29T13:55:30Z</time>
      </trkpt>
      <trkpt lat="45.71564" lon="6.6979">
        <ele>2249.62</ele>
        <time>2017-08-29T13:55:31Z</time>
      </trkpt>
      <trkpt lat="45.71569" lon="6.6979">
        <ele>2248.66</ele>
        <time>2017-08-29T13:55:34Z</time>
      </trkpt>
      <trkpt lat="45.7157" lon="6.69791">
        <ele>2248.18</ele>
        <time>2017-08-29T13:55:35Z</time>
      </trkpt>
      <trkpt lat="45.71571" lon="6.69791">
        <ele>2248.18</ele>
        <time>2017-08-29T13:55:36Z</time>
      </trkpt>
      <trkpt lat="45.71573" lon="6.69791">
        <ele>2247.7</ele>
        <time>2017-08-29T13:55:38Z</time>
      </trkpt>
      <trkpt lat="45.71574" lon="6.6979">
        <ele>2247.22</ele>
        <time>2017-08-29T13:55:39Z</time>
      </trkpt>
      <trkpt lat="45.71575" lon="6.6979">
        <ele>2247.22</ele>
        <time>2017-08-29T13:55:40Z</time>
      </trkpt>
      <trkpt lat="45.71579" lon="6.69788">
        <ele>2245.78</ele>
        <time>2017-08-29T13:55:44Z</time>
      </trkpt>
      <trkpt lat="45.7158" lon="6.69786">
        <ele>2245.3</ele>
        <time>2017-08-29T13:55:45Z</time>
      </trkpt>
      <trkpt lat="45.71591" lon="6.69781">
        <ele>2242.89</ele>
        <time>2017-08-29T13:55:54Z</time>
      </trkpt>
      <trkpt lat="45.71592" lon="6.6978">
        <ele>2242.41</ele>
        <time>2017-08-29T13:55:55Z</time>
      </trkpt>
      <trkpt lat="45.71593" lon="6.69779">
        <ele>2242.41</ele>
        <time>2017-08-29T13:55:56Z</time>
      </trkpt>
      <trkpt lat="45.71594" lon="6.69779">
        <ele>2241.93</ele>
        <time>2017-08-29T13:55:57Z</time>
      </trkpt>
      <trkpt lat="45.71596" lon="6.69779">
        <ele>2241.45</ele>
        <time>2017-08-29T13:55:58Z</time>
      </trkpt>
      <trkpt lat="45.71597" lon="6.6978">
        <ele>2241.45</ele>
        <time>2017-08-29T13:55:59Z</time>
      </trkpt>
      <trkpt lat="45.71599" lon="6.6978">
        <ele>2240.97</ele>
        <time>2017-08-29T13:56:00Z</time>
      </trkpt>
      <trkpt lat="45.716" lon="6.6978">
        <ele>2240.97</ele>
        <time>2017-08-29T13:56:01Z</time>
      </trkpt>
      <trkpt lat="45.71601" lon="6.6978">
        <ele>2240.97</ele>
        <time>2017-08-29T13:56:02Z</time>
      </trkpt>
      <trkpt lat="45.71602" lon="6.6978">
        <ele>2240.97</ele>
        <time>2017-08-29T13:56:03Z</time>
      </trkpt>
      <trkpt lat="45.71604" lon="6.6978">
        <ele>2240.97</ele>
        <time>2017-08-29T13:56:04Z</time>
      </trkpt>
      <trkpt lat="45.71605" lon="6.6978">
        <ele>2240.49</ele>
        <time>2017-08-29T13:56:05Z</time>
      </trkpt>
      <trkpt lat="45.71606" lon="6.69781">
        <ele>2240.01</ele>
        <time>2017-08-29T13:56:06Z</time>
      </trkpt>
      <trkpt lat="45.71607" lon="6.69782">
        <ele>2239.53</ele>
        <time>2017-08-29T13:56:07Z</time>
      </trkpt>
      <trkpt lat="45.71612" lon="6.69781">
        <ele>2238.57</ele>
        <time>2017-08-29T13:56:11Z</time>
      </trkpt>
      <trkpt lat="45.71613" lon="6.6978">
        <ele>2238.57</ele>
        <time>2017-08-29T13:56:12Z</time>
      </trkpt>
      <trkpt lat="45.71632" lon="6.69779">
        <ele>2236.64</ele>
        <time>2017-08-29T13:56:25Z</time>
      </trkpt>
      <trkpt lat="45.71639" lon="6.6978">
        <ele>2237.13</ele>
        <time>2017-08-29T13:56:30Z</time>
      </trkpt>
      <trkpt lat="45.7164" lon="6.69781">
        <ele>2237.13</ele>
        <time>2017-08-29T13:56:31Z</time>
      </trkpt>
      <trkpt lat="45.71648" lon="6.69785">
        <ele>2238.57</ele>
        <time>2017-08-29T13:56:37Z</time>
      </trkpt>
      <trkpt lat="45.71655" lon="6.69789">
        <ele>2240.01</ele>
        <time>2017-08-29T13:56:43Z</time>
      </trkpt>
      <trkpt lat="45.71656" lon="6.69789">
        <ele>2240.01</ele>
        <time>2017-08-29T13:56:44Z</time>
      </trkpt>
      <trkpt lat="45.71658" lon="6.69788">
        <ele>2240.49</ele>
        <time>2017-08-29T13:56:45Z</time>
      </trkpt>
      <trkpt lat="45.71659" lon="6.69789">
        <ele>2240.97</ele>
        <time>2017-08-29T13:56:46Z</time>
      </trkpt>
      <trkpt lat="45.7166" lon="6.69789">
        <ele>2240.97</ele>
        <time>2017-08-29T13:56:47Z</time>
      </trkpt>
      <trkpt lat="45.71661" lon="6.69789">
        <ele>2241.45</ele>
        <time>2017-08-29T13:56:48Z</time>
      </trkpt>
      <trkpt lat="45.71663" lon="6.69789">
        <ele>2241.45</ele>
        <time>2017-08-29T13:56:49Z</time>
      </trkpt>
      <trkpt lat="45.71664" lon="6.6979">
        <ele>2241.45</ele>
        <time>2017-08-29T13:56:50Z</time>
      </trkpt>
      <trkpt lat="45.71671" lon="6.69793">
        <ele>2240.49</ele>
        <time>2017-08-29T13:56:59Z</time>
      </trkpt>
      <trkpt lat="45.71673" lon="6.69794">
        <ele>2239.53</ele>
        <time>2017-08-29T13:57:02Z</time>
      </trkpt>
      <trkpt lat="45.71674" lon="6.69795">
        <ele>2239.53</ele>
        <time>2017-08-29T13:57:03Z</time>
      </trkpt>
      <trkpt lat="45.71676" lon="6.69795">
        <ele>2238.57</ele>
        <time>2017-08-29T13:57:05Z</time>
      </trkpt>
      <trkpt lat="45.71677" lon="6.69796">
        <ele>2238.57</ele>
        <time>2017-08-29T13:57:06Z</time>
      </trkpt>
      <trkpt lat="45.71683" lon="6.69799">
        <ele>2237.13</ele>
        <time>2017-08-29T13:57:12Z</time>
      </trkpt>
      <trkpt lat="45.71684" lon="6.69799">
        <ele>2236.64</ele>
        <time>2017-08-29T13:57:13Z</time>
      </trkpt>
      <trkpt lat="45.71689" lon="6.69801">
        <ele>2235.68</ele>
        <time>2017-08-29T13:57:17Z</time>
      </trkpt>
      <trkpt lat="45.7169" lon="6.69801">
        <ele>2235.68</ele>
        <time>2017-08-29T13:57:18Z</time>
      </trkpt>
      <trkpt lat="45.71695" lon="6.69804">
        <ele>2234.24</ele>
        <time>2017-08-29T13:57:23Z</time>
      </trkpt>
      <trkpt lat="45.71699" lon="6.69807">
        <ele>2233.28</ele>
        <time>2017-08-29T13:57:27Z</time>
      </trkpt>
      <trkpt lat="45.717" lon="6.69808">
        <ele>2232.8</ele>
        <time>2017-08-29T13:57:28Z</time>
      </trkpt>
      <trkpt lat="45.71701" lon="6.69808">
        <ele>2232.8</ele>
        <time>2017-08-29T13:57:29Z</time>
      </trkpt>
      <trkpt lat="45.71703" lon="6.69809">
        <ele>2231.84</ele>
        <time>2017-08-29T13:57:31Z</time>
      </trkpt>
      <trkpt lat="45.71705" lon="6.69809">
        <ele>2231.84</ele>
        <time>2017-08-29T13:57:32Z</time>
      </trkpt>
      <trkpt lat="45.71706" lon="6.6981">
        <ele>2231.36</ele>
        <time>2017-08-29T13:57:33Z</time>
      </trkpt>
      <trkpt lat="45.71707" lon="6.6981">
        <ele>2230.88</ele>
        <time>2017-08-29T13:57:34Z</time>
      </trkpt>
      <trkpt lat="45.71708" lon="6.69809">
        <ele>2230.88</ele>
        <time>2017-08-29T13:57:35Z</time>
      </trkpt>
      <trkpt lat="45.71709" lon="6.69809">
        <ele>2230.88</ele>
        <time>2017-08-29T13:57:36Z</time>
      </trkpt>
      <trkpt lat="45.71711" lon="6.6981">
        <ele>2230.4</ele>
        <time>2017-08-29T13:57:37Z</time>
      </trkpt>
      <trkpt lat="45.71713" lon="6.6981">
        <ele>2230.4</ele>
        <time>2017-08-29T13:57:38Z</time>
      </trkpt>
      <trkpt lat="45.71714" lon="6.6981">
        <ele>2229.92</ele>
        <time>2017-08-29T13:57:39Z</time>
      </trkpt>
      <trkpt lat="45.71716" lon="6.6981">
        <ele>2229.43</ele>
        <time>2017-08-29T13:57:40Z</time>
      </trkpt>
      <trkpt lat="45.71718" lon="6.69809">
        <ele>2229.43</ele>
        <time>2017-08-29T13:57:41Z</time>
      </trkpt>
      <trkpt lat="45.7173" lon="6.69813">
        <ele>2229.43</ele>
        <time>2017-08-29T13:57:50Z</time>
      </trkpt>
      <trkpt lat="45.71733" lon="6.69814">
        <ele>2228.47</ele>
        <time>2017-08-29T13:57:54Z</time>
      </trkpt>
      <trkpt lat="45.71734" lon="6.69813">
        <ele>2227.99</ele>
        <time>2017-08-29T13:57:55Z</time>
      </trkpt>
      <trkpt lat="45.71734" lon="6.69813">
        <ele>2227.99</ele>
        <time>2017-08-29T13:57:56Z</time>
      </trkpt>
      <trkpt lat="45.71742" lon="6.69803">
        <ele>2225.11</ele>
        <time>2017-08-29T13:58:08Z</time>
      </trkpt>
      <trkpt lat="45.71749" lon="6.69795">
        <ele>2221.74</ele>
        <time>2017-08-29T13:58:17Z</time>
      </trkpt>
      <trkpt lat="45.71758" lon="6.69786">
        <ele>2218.86</ele>
        <time>2017-08-29T13:58:28Z</time>
      </trkpt>
      <trkpt lat="45.7177" lon="6.69782">
        <ele>2215.5</ele>
        <time>2017-08-29T13:58:38Z</time>
      </trkpt>
      <trkpt lat="45.71777" lon="6.6978">
        <ele>2213.57</ele>
        <time>2017-08-29T13:58:44Z</time>
      </trkpt>
      <trkpt lat="45.71778" lon="6.69781">
        <ele>2213.57</ele>
        <time>2017-08-29T13:58:45Z</time>
      </trkpt>
      <trkpt lat="45.71778" lon="6.69783">
        <ele>2213.09</ele>
        <time>2017-08-29T13:58:46Z</time>
      </trkpt>
      <trkpt lat="45.71778" lon="6.69785">
        <ele>2212.61</ele>
        <time>2017-08-29T13:58:47Z</time>
      </trkpt>
      <trkpt lat="45.71778" lon="6.69787">
        <ele>2212.13</ele>
        <time>2017-08-29T13:58:48Z</time>
      </trkpt>
      <trkpt lat="45.71777" lon="6.69789">
        <ele>2212.13</ele>
        <time>2017-08-29T13:58:49Z</time>
      </trkpt>
      <trkpt lat="45.71777" lon="6.6979">
        <ele>2211.17</ele>
        <time>2017-08-29T13:58:50Z</time>
      </trkpt>
      <trkpt lat="45.71777" lon="6.69792">
        <ele>2211.17</ele>
        <time>2017-08-29T13:58:51Z</time>
      </trkpt>
      <trkpt lat="45.71777" lon="6.69795">
        <ele>2210.21</ele>
        <time>2017-08-29T13:58:53Z</time>
      </trkpt>
      <trkpt lat="45.71777" lon="6.69797">
        <ele>2209.73</ele>
        <time>2017-08-29T13:58:54Z</time>
      </trkpt>
      <trkpt lat="45.71777" lon="6.69799">
        <ele>2209.73</ele>
        <time>2017-08-29T13:58:55Z</time>
      </trkpt>
      <trkpt lat="45.71777" lon="6.698">
        <ele>2209.25</ele>
        <time>2017-08-29T13:58:56Z</time>
      </trkpt>
      <trkpt lat="45.71777" lon="6.69801">
        <ele>2208.77</ele>
        <time>2017-08-29T13:58:57Z</time>
      </trkpt>
      <trkpt lat="45.71776" lon="6.69802">
        <ele>2208.77</ele>
        <time>2017-08-29T13:58:58Z</time>
      </trkpt>
      <trkpt lat="45.71776" lon="6.69803">
        <ele>2208.29</ele>
        <time>2017-08-29T13:58:59Z</time>
      </trkpt>
      <trkpt lat="45.71776" lon="6.69805">
        <ele>2208.29</ele>
        <time>2017-08-29T13:59:00Z</time>
      </trkpt>
      <trkpt lat="45.71776" lon="6.69807">
        <ele>2207.81</ele>
        <time>2017-08-29T13:59:01Z</time>
      </trkpt>
      <trkpt lat="45.71776" lon="6.69809">
        <ele>2207.81</ele>
        <time>2017-08-29T13:59:02Z</time>
      </trkpt>
      <trkpt lat="45.71776" lon="6.6981">
        <ele>2207.32</ele>
        <time>2017-08-29T13:59:03Z</time>
      </trkpt>
      <trkpt lat="45.71775" lon="6.69815">
        <ele>2205.88</ele>
        <time>2017-08-29T13:59:06Z</time>
      </trkpt>
      <trkpt lat="45.71775" lon="6.69816">
        <ele>2205.4</ele>
        <time>2017-08-29T13:59:07Z</time>
      </trkpt>
      <trkpt lat="45.71776" lon="6.69824">
        <ele>2203.48</ele>
        <time>2017-08-29T13:59:13Z</time>
      </trkpt>
      <trkpt lat="45.71776" lon="6.69826">
        <ele>2203</ele>
        <time>2017-08-29T13:59:14Z</time>
      </trkpt>
      <trkpt lat="45.71775" lon="6.69828">
        <ele>2203</ele>
        <time>2017-08-29T13:59:15Z</time>
      </trkpt>
      <trkpt lat="45.71775" lon="6.6983">
        <ele>2203</ele>
        <time>2017-08-29T13:59:16Z</time>
      </trkpt>
      <trkpt lat="45.71775" lon="6.69831">
        <ele>2202.52</ele>
        <time>2017-08-29T13:59:17Z</time>
      </trkpt>
      <trkpt lat="45.71775" lon="6.69833">
        <ele>2202.04</ele>
        <time>2017-08-29T13:59:18Z</time>
      </trkpt>
      <trkpt lat="45.71774" lon="6.69841">
        <ele>2200.59</ele>
        <time>2017-08-29T13:59:24Z</time>
      </trkpt>
      <trkpt lat="45.71774" lon="6.69844">
        <ele>2200.11</ele>
        <time>2017-08-29T13:59:26Z</time>
      </trkpt>
      <trkpt lat="45.71774" lon="6.69846">
        <ele>2199.63</ele>
        <time>2017-08-29T13:59:27Z</time>
      </trkpt>
      <trkpt lat="45.71774" lon="6.69848">
        <ele>2199.63</ele>
        <time>2017-08-29T13:59:28Z</time>
      </trkpt>
      <trkpt lat="45.71774" lon="6.6985">
        <ele>2199.63</ele>
        <time>2017-08-29T13:59:29Z</time>
      </trkpt>
      <trkpt lat="45.71773" lon="6.69852">
        <ele>2199.15</ele>
        <time>2017-08-29T13:59:30Z</time>
      </trkpt>
      <trkpt lat="45.71773" lon="6.69854">
        <ele>2198.67</ele>
        <time>2017-08-29T13:59:31Z</time>
      </trkpt>
      <trkpt lat="45.71773" lon="6.69856">
        <ele>2198.19</ele>
        <time>2017-08-29T13:59:32Z</time>
      </trkpt>
      <trkpt lat="45.71773" lon="6.69857">
        <ele>2197.71</ele>
        <time>2017-08-29T13:59:33Z</time>
      </trkpt>
      <trkpt lat="45.71772" lon="6.6987">
        <ele>2194.83</ele>
        <time>2017-08-29T13:59:43Z</time>
      </trkpt>
      <trkpt lat="45.71773" lon="6.69869">
        <ele>2194.83</ele>
        <time>2017-08-29T13:59:44Z</time>
      </trkpt>
      <trkpt lat="45.71774" lon="6.69868">
        <ele>2194.83</ele>
        <time>2017-08-29T13:59:45Z</time>
      </trkpt>
      <trkpt lat="45.71775" lon="6.69867">
        <ele>2194.35</ele>
        <time>2017-08-29T13:59:46Z</time>
      </trkpt>
      <trkpt lat="45.71776" lon="6.69866">
        <ele>2193.87</ele>
        <time>2017-08-29T13:59:47Z</time>
      </trkpt>
      <trkpt lat="45.71776" lon="6.69866">
        <ele>2193.39</ele>
        <time>2017-08-29T13:59:48Z</time>
      </trkpt>
      <trkpt lat="45.71777" lon="6.69868">
        <ele>2193.39</ele>
        <time>2017-08-29T13:59:49Z</time>
      </trkpt>
      <trkpt lat="45.71776" lon="6.6987">
        <ele>2192.9</ele>
        <time>2017-08-29T13:59:50Z</time>
      </trkpt>
      <trkpt lat="45.71776" lon="6.69871">
        <ele>2192.9</ele>
        <time>2017-08-29T13:59:51Z</time>
      </trkpt>
      <trkpt lat="45.71775" lon="6.69873">
        <ele>2192.42</ele>
        <time>2017-08-29T13:59:52Z</time>
      </trkpt>
      <trkpt lat="45.71774" lon="6.69874">
        <ele>2192.42</ele>
        <time>2017-08-29T13:59:53Z</time>
      </trkpt>
      <trkpt lat="45.71774" lon="6.69876">
        <ele>2191.94</ele>
        <time>2017-08-29T13:59:54Z</time>
      </trkpt>
      <trkpt lat="45.71774" lon="6.69877">
        <ele>2191.94</ele>
        <time>2017-08-29T13:59:55Z</time>
      </trkpt>
      <trkpt lat="45.71774" lon="6.69878">
        <ele>2191.46</ele>
        <time>2017-08-29T13:59:56Z</time>
      </trkpt>
      <trkpt lat="45.71774" lon="6.6988">
        <ele>2190.98</ele>
        <time>2017-08-29T13:59:57Z</time>
      </trkpt>
      <trkpt lat="45.71774" lon="6.69882">
        <ele>2190.98</ele>
        <time>2017-08-29T13:59:58Z</time>
      </trkpt>
      <trkpt lat="45.71775" lon="6.69883">
        <ele>2190.5</ele>
        <time>2017-08-29T13:59:59Z</time>
      </trkpt>
      <trkpt lat="45.71775" lon="6.69885">
        <ele>2190.02</ele>
        <time>2017-08-29T14:00:00Z</time>
      </trkpt>
      <trkpt lat="45.71775" lon="6.69905">
        <ele>2187.14</ele>
        <time>2017-08-29T14:00:10Z</time>
      </trkpt>
      <trkpt lat="45.71775" lon="6.69906">
        <ele>2186.66</ele>
        <time>2017-08-29T14:00:11Z</time>
      </trkpt>
      <trkpt lat="45.71775" lon="6.69908">
        <ele>2186.18</ele>
        <time>2017-08-29T14:00:12Z</time>
      </trkpt>
      <trkpt lat="45.71775" lon="6.6991">
        <ele>2186.18</ele>
        <time>2017-08-29T14:00:13Z</time>
      </trkpt>
      <trkpt lat="45.71774" lon="6.69911">
        <ele>2185.69</ele>
        <time>2017-08-29T14:00:14Z</time>
      </trkpt>
      <trkpt lat="45.71774" lon="6.69913">
        <ele>2185.21</ele>
        <time>2017-08-29T14:00:15Z</time>
      </trkpt>
      <trkpt lat="45.71774" lon="6.69914">
        <ele>2185.21</ele>
        <time>2017-08-29T14:00:16Z</time>
      </trkpt>
      <trkpt lat="45.71774" lon="6.69916">
        <ele>2184.73</ele>
        <time>2017-08-29T14:00:17Z</time>
      </trkpt>
      <trkpt lat="45.71774" lon="6.69918">
        <ele>2184.73</ele>
        <time>2017-08-29T14:00:18Z</time>
      </trkpt>
      <trkpt lat="45.71775" lon="6.69926">
        <ele>2182.81</ele>
        <time>2017-08-29T14:00:24Z</time>
      </trkpt>
      <trkpt lat="45.71776" lon="6.69926">
        <ele>2182.33</ele>
        <time>2017-08-29T14:00:25Z</time>
      </trkpt>
      <trkpt lat="45.71785" lon="6.69925">
        <ele>2179.93</ele>
        <time>2017-08-29T14:00:33Z</time>
      </trkpt>
      <trkpt lat="45.71786" lon="6.69924">
        <ele>2179.45</ele>
        <time>2017-08-29T14:00:34Z</time>
      </trkpt>
      <trkpt lat="45.71787" lon="6.69923">
        <ele>2178.97</ele>
        <time>2017-08-29T14:00:35Z</time>
      </trkpt>
      <trkpt lat="45.71797" lon="6.69912">
        <ele>2176.08</ele>
        <time>2017-08-29T14:00:46Z</time>
      </trkpt>
      <trkpt lat="45.71805" lon="6.69904">
        <ele>2173.2</ele>
        <time>2017-08-29T14:00:54Z</time>
      </trkpt>
      <trkpt lat="45.71806" lon="6.69905">
        <ele>2172.72</ele>
        <time>2017-08-29T14:00:55Z</time>
      </trkpt>
      <trkpt lat="45.71807" lon="6.69907">
        <ele>2172.24</ele>
        <time>2017-08-29T14:00:56Z</time>
      </trkpt>
      <trkpt lat="45.71807" lon="6.69909">
        <ele>2172.24</ele>
        <time>2017-08-29T14:00:57Z</time>
      </trkpt>
      <trkpt lat="45.71808" lon="6.6991">
        <ele>2171.76</ele>
        <time>2017-08-29T14:00:58Z</time>
      </trkpt>
      <trkpt lat="45.71808" lon="6.69912">
        <ele>2171.27</ele>
        <time>2017-08-29T14:00:59Z</time>
      </trkpt>
      <trkpt lat="45.71809" lon="6.69914">
        <ele>2170.79</ele>
        <time>2017-08-29T14:01:00Z</time>
      </trkpt>
      <trkpt lat="45.71811" lon="6.69924">
        <ele>2168.87</ele>
        <time>2017-08-29T14:01:08Z</time>
      </trkpt>
      <trkpt lat="45.71819" lon="6.6991">
        <ele>2165.51</ele>
        <time>2017-08-29T14:01:20Z</time>
      </trkpt>
      <trkpt lat="45.71819" lon="6.69908">
        <ele>2165.51</ele>
        <time>2017-08-29T14:01:21Z</time>
      </trkpt>
      <trkpt lat="45.7182" lon="6.69907">
        <ele>2165.03</ele>
        <time>2017-08-29T14:01:22Z</time>
      </trkpt>
      <trkpt lat="45.71831" lon="6.69896">
        <ele>2162.14</ele>
        <time>2017-08-29T14:01:33Z</time>
      </trkpt>
      <trkpt lat="45.7184" lon="6.69887">
        <ele>2158.78</ele>
        <time>2017-08-29T14:01:43Z</time>
      </trkpt>
      <trkpt lat="45.71851" lon="6.6988">
        <ele>2155.41</ele>
        <time>2017-08-29T14:01:53Z</time>
      </trkpt>
      <trkpt lat="45.71862" lon="6.69869">
        <ele>2152.05</ele>
        <time>2017-08-29T14:02:03Z</time>
      </trkpt>
      <trkpt lat="45.71866" lon="6.69857">
        <ele>2150.13</ele>
        <time>2017-08-29T14:02:10Z</time>
      </trkpt>
      <trkpt lat="45.71867" lon="6.69856">
        <ele>2149.65</ele>
        <time>2017-08-29T14:02:11Z</time>
      </trkpt>
      <trkpt lat="45.71867" lon="6.69855">
        <ele>2149.65</ele>
        <time>2017-08-29T14:02:12Z</time>
      </trkpt>
      <trkpt lat="45.71868" lon="6.69854">
        <ele>2149.16</ele>
        <time>2017-08-29T14:02:13Z</time>
      </trkpt>
      <trkpt lat="45.71869" lon="6.69852">
        <ele>2149.16</ele>
        <time>2017-08-29T14:02:14Z</time>
      </trkpt>
      <trkpt lat="45.7187" lon="6.69852">
        <ele>2148.68</ele>
        <time>2017-08-29T14:02:15Z</time>
      </trkpt>
      <trkpt lat="45.71871" lon="6.69851">
        <ele>2148.2</ele>
        <time>2017-08-29T14:02:16Z</time>
      </trkpt>
      <trkpt lat="45.71872" lon="6.69849">
        <ele>2148.2</ele>
        <time>2017-08-29T14:02:17Z</time>
      </trkpt>
      <trkpt lat="45.71873" lon="6.69848">
        <ele>2148.2</ele>
        <time>2017-08-29T14:02:18Z</time>
      </trkpt>
      <trkpt lat="45.71874" lon="6.69847">
        <ele>2147.72</ele>
        <time>2017-08-29T14:02:19Z</time>
      </trkpt>
      <trkpt lat="45.71877" lon="6.69844">
        <ele>2146.76</ele>
        <time>2017-08-29T14:02:22Z</time>
      </trkpt>
      <trkpt lat="45.71878" lon="6.69844">
        <ele>2146.76</ele>
        <time>2017-08-29T14:02:23Z</time>
      </trkpt>
      <trkpt lat="45.71878" lon="6.69846">
        <ele>2146.76</ele>
        <time>2017-08-29T14:02:24Z</time>
      </trkpt>
      <trkpt lat="45.71878" lon="6.69847">
        <ele>2146.28</ele>
        <time>2017-08-29T14:02:25Z</time>
      </trkpt>
      <trkpt lat="45.71878" lon="6.69848">
        <ele>2146.28</ele>
        <time>2017-08-29T14:02:26Z</time>
      </trkpt>
      <trkpt lat="45.71877" lon="6.69864">
        <ele>2143.4</ele>
        <time>2017-08-29T14:02:35Z</time>
      </trkpt>
      <trkpt lat="45.71877" lon="6.69865">
        <ele>2143.4</ele>
        <time>2017-08-29T14:02:36Z</time>
      </trkpt>
      <trkpt lat="45.71877" lon="6.69867">
        <ele>2142.92</ele>
        <time>2017-08-29T14:02:37Z</time>
      </trkpt>
      <trkpt lat="45.71875" lon="6.69892">
        <ele>2140.03</ele>
        <time>2017-08-29T14:02:50Z</time>
      </trkpt>
      <trkpt lat="45.71876" lon="6.69899">
        <ele>2137.63</ele>
        <time>2017-08-29T14:02:58Z</time>
      </trkpt>
      <trkpt lat="45.71886" lon="6.69886">
        <ele>2134.26</ele>
        <time>2017-08-29T14:03:09Z</time>
      </trkpt>
      <trkpt lat="45.71891" lon="6.69881">
        <ele>2132.82</ele>
        <time>2017-08-29T14:03:15Z</time>
      </trkpt>
      <trkpt lat="45.71892" lon="6.6988">
        <ele>2132.82</ele>
        <time>2017-08-29T14:03:16Z</time>
      </trkpt>
      <trkpt lat="45.71893" lon="6.69879">
        <ele>2132.34</ele>
        <time>2017-08-29T14:03:17Z</time>
      </trkpt>
      <trkpt lat="45.71894" lon="6.69879">
        <ele>2131.86</ele>
        <time>2017-08-29T14:03:18Z</time>
      </trkpt>
      <trkpt lat="45.71895" lon="6.69878">
        <ele>2131.86</ele>
        <time>2017-08-29T14:03:19Z</time>
      </trkpt>
      <trkpt lat="45.71896" lon="6.69879">
        <ele>2131.38</ele>
        <time>2017-08-29T14:03:20Z</time>
      </trkpt>
      <trkpt lat="45.71897" lon="6.6988">
        <ele>2131.38</ele>
        <time>2017-08-29T14:03:21Z</time>
      </trkpt>
      <trkpt lat="45.71896" lon="6.69882">
        <ele>2130.9</ele>
        <time>2017-08-29T14:03:22Z</time>
      </trkpt>
      <trkpt lat="45.71896" lon="6.69884">
        <ele>2130.42</ele>
        <time>2017-08-29T14:03:23Z</time>
      </trkpt>
      <trkpt lat="45.71896" lon="6.69885">
        <ele>2130.42</ele>
        <time>2017-08-29T14:03:24Z</time>
      </trkpt>
      <trkpt lat="45.71897" lon="6.69887">
        <ele>2129.94</ele>
        <time>2017-08-29T14:03:25Z</time>
      </trkpt>
      <trkpt lat="45.71896" lon="6.699">
        <ele>2126.57</ele>
        <time>2017-08-29T14:03:34Z</time>
      </trkpt>
      <trkpt lat="45.71896" lon="6.69902">
        <ele>2126.57</ele>
        <time>2017-08-29T14:03:35Z</time>
      </trkpt>
      <trkpt lat="45.71896" lon="6.69904">
        <ele>2126.09</ele>
        <time>2017-08-29T14:03:36Z</time>
      </trkpt>
      <trkpt lat="45.71896" lon="6.69906">
        <ele>2125.61</ele>
        <time>2017-08-29T14:03:37Z</time>
      </trkpt>
      <trkpt lat="45.71896" lon="6.69908">
        <ele>2125.61</ele>
        <time>2017-08-29T14:03:38Z</time>
      </trkpt>
      <trkpt lat="45.71897" lon="6.6991">
        <ele>2125.13</ele>
        <time>2017-08-29T14:03:39Z</time>
      </trkpt>
      <trkpt lat="45.71897" lon="6.69912">
        <ele>2124.65</ele>
        <time>2017-08-29T14:03:40Z</time>
      </trkpt>
      <trkpt lat="45.71896" lon="6.69914">
        <ele>2124.17</ele>
        <time>2017-08-29T14:03:41Z</time>
      </trkpt>
      <trkpt lat="45.71896" lon="6.69917">
        <ele>2123.69</ele>
        <time>2017-08-29T14:03:42Z</time>
      </trkpt>
      <trkpt lat="45.71896" lon="6.69919">
        <ele>2123.21</ele>
        <time>2017-08-29T14:03:43Z</time>
      </trkpt>
      <trkpt lat="45.71896" lon="6.69922">
        <ele>2122.25</ele>
        <time>2017-08-29T14:03:44Z</time>
      </trkpt>
      <trkpt lat="45.71896" lon="6.69924">
        <ele>2121.77</ele>
        <time>2017-08-29T14:03:45Z</time>
      </trkpt>
      <trkpt lat="45.71895" lon="6.69926">
        <ele>2121.77</ele>
        <time>2017-08-29T14:03:46Z</time>
      </trkpt>
      <trkpt lat="45.71897" lon="6.69926">
        <ele>2120.32</ele>
        <time>2017-08-29T14:03:49Z</time>
      </trkpt>
      <trkpt lat="45.71898" lon="6.69925">
        <ele>2119.84</ele>
        <time>2017-08-29T14:03:50Z</time>
      </trkpt>
      <trkpt lat="45.71906" lon="6.69918">
        <ele>2117.92</ele>
        <time>2017-08-29T14:03:56Z</time>
      </trkpt>
      <trkpt lat="45.71907" lon="6.6992">
        <ele>2117.92</ele>
        <time>2017-08-29T14:03:57Z</time>
      </trkpt>
      <trkpt lat="45.71907" lon="6.69923">
        <ele>2117.44</ele>
        <time>2017-08-29T14:03:58Z</time>
      </trkpt>
      <trkpt lat="45.71904" lon="6.69942">
        <ele>2114.08</ele>
        <time>2017-08-29T14:04:06Z</time>
      </trkpt>
      <trkpt lat="45.71906" lon="6.69944">
        <ele>2112.63</ele>
        <time>2017-08-29T14:04:10Z</time>
      </trkpt>
      <trkpt lat="45.71907" lon="6.69943">
        <ele>2112.63</ele>
        <time>2017-08-29T14:04:11Z</time>
      </trkpt>
      <trkpt lat="45.71908" lon="6.69941">
        <ele>2112.15</ele>
        <time>2017-08-29T14:04:12Z</time>
      </trkpt>
      <trkpt lat="45.71909" lon="6.6994">
        <ele>2112.15</ele>
        <time>2017-08-29T14:04:13Z</time>
      </trkpt>
      <trkpt lat="45.71911" lon="6.6994">
        <ele>2112.15</ele>
        <time>2017-08-29T14:04:14Z</time>
      </trkpt>
      <trkpt lat="45.71912" lon="6.69941">
        <ele>2111.67</ele>
        <time>2017-08-29T14:04:15Z</time>
      </trkpt>
      <trkpt lat="45.71912" lon="6.69944">
        <ele>2111.19</ele>
        <time>2017-08-29T14:04:16Z</time>
      </trkpt>
      <trkpt lat="45.71911" lon="6.69946">
        <ele>2110.71</ele>
        <time>2017-08-29T14:04:17Z</time>
      </trkpt>
      <trkpt lat="45.71911" lon="6.69948">
        <ele>2110.23</ele>
        <time>2017-08-29T14:04:18Z</time>
      </trkpt>
      <trkpt lat="45.71911" lon="6.69951">
        <ele>2110.23</ele>
        <time>2017-08-29T14:04:19Z</time>
      </trkpt>
      <trkpt lat="45.71908" lon="6.69962">
        <ele>2106.87</ele>
        <time>2017-08-29T14:04:24Z</time>
      </trkpt>
      <trkpt lat="45.71907" lon="6.69967">
        <ele>2105.42</ele>
        <time>2017-08-29T14:04:26Z</time>
      </trkpt>
      <trkpt lat="45.71907" lon="6.69969">
        <ele>2104.94</ele>
        <time>2017-08-29T14:04:27Z</time>
      </trkpt>
      <trkpt lat="45.71908" lon="6.6997">
        <ele>2104.46</ele>
        <time>2017-08-29T14:04:28Z</time>
      </trkpt>
      <trkpt lat="45.71911" lon="6.6998">
        <ele>2101.58</ele>
        <time>2017-08-29T14:04:33Z</time>
      </trkpt>
      <trkpt lat="45.71911" lon="6.69982">
        <ele>2100.62</ele>
        <time>2017-08-29T14:04:34Z</time>
      </trkpt>
      <trkpt lat="45.71909" lon="6.69984">
        <ele>2100.14</ele>
        <time>2017-08-29T14:04:35Z</time>
      </trkpt>
      <trkpt lat="45.71909" lon="6.69985">
        <ele>2099.18</ele>
        <time>2017-08-29T14:04:37Z</time>
      </trkpt>
      <trkpt lat="45.71911" lon="6.69985">
        <ele>2099.18</ele>
        <time>2017-08-29T14:04:38Z</time>
      </trkpt>
      <trkpt lat="45.71916" lon="6.69983">
        <ele>2098.21</ele>
        <time>2017-08-29T14:04:42Z</time>
      </trkpt>
      <trkpt lat="45.71917" lon="6.69984">
        <ele>2098.21</ele>
        <time>2017-08-29T14:04:43Z</time>
      </trkpt>
      <trkpt lat="45.71917" lon="6.69985">
        <ele>2097.73</ele>
        <time>2017-08-29T14:04:44Z</time>
      </trkpt>
      <trkpt lat="45.71917" lon="6.69987">
        <ele>2097.25</ele>
        <time>2017-08-29T14:04:45Z</time>
      </trkpt>
      <trkpt lat="45.71917" lon="6.69989">
        <ele>2097.25</ele>
        <time>2017-08-29T14:04:46Z</time>
      </trkpt>
      <trkpt lat="45.71917" lon="6.69991">
        <ele>2096.77</ele>
        <time>2017-08-29T14:04:47Z</time>
      </trkpt>
      <trkpt lat="45.71916" lon="6.69992">
        <ele>2096.29</ele>
        <time>2017-08-29T14:04:48Z</time>
      </trkpt>
      <trkpt lat="45.71916" lon="6.69994">
        <ele>2095.81</ele>
        <time>2017-08-29T14:04:49Z</time>
      </trkpt>
      <trkpt lat="45.71916" lon="6.69995">
        <ele>2095.81</ele>
        <time>2017-08-29T14:04:50Z</time>
      </trkpt>
      <trkpt lat="45.71914" lon="6.7001">
        <ele>2092.45</ele>
        <time>2017-08-29T14:04:57Z</time>
      </trkpt>
      <trkpt lat="45.71912" lon="6.7002">
        <ele>2091</ele>
        <time>2017-08-29T14:05:03Z</time>
      </trkpt>
      <trkpt lat="45.71912" lon="6.70021">
        <ele>2090.52</ele>
        <time>2017-08-29T14:05:04Z</time>
      </trkpt>
      <trkpt lat="45.71912" lon="6.70022">
        <ele>2090.04</ele>
        <time>2017-08-29T14:05:05Z</time>
      </trkpt>
      <trkpt lat="45.71912" lon="6.70024">
        <ele>2089.56</ele>
        <time>2017-08-29T14:05:06Z</time>
      </trkpt>
      <trkpt lat="45.71912" lon="6.70025">
        <ele>2089.56</ele>
        <time>2017-08-29T14:05:07Z</time>
      </trkpt>
      <trkpt lat="45.71913" lon="6.70027">
        <ele>2089.08</ele>
        <time>2017-08-29T14:05:08Z</time>
      </trkpt>
      <trkpt lat="45.71913" lon="6.70029">
        <ele>2088.6</ele>
        <time>2017-08-29T14:05:09Z</time>
      </trkpt>
      <trkpt lat="45.71913" lon="6.70031">
        <ele>2088.6</ele>
        <time>2017-08-29T14:05:10Z</time>
      </trkpt>
      <trkpt lat="45.71914" lon="6.70033">
        <ele>2088.12</ele>
        <time>2017-08-29T14:05:11Z</time>
      </trkpt>
      <trkpt lat="45.71914" lon="6.70034">
        <ele>2088.12</ele>
        <time>2017-08-29T14:05:12Z</time>
      </trkpt>
      <trkpt lat="45.71915" lon="6.70036">
        <ele>2088.12</ele>
        <time>2017-08-29T14:05:13Z</time>
      </trkpt>
      <trkpt lat="45.71915" lon="6.70037">
        <ele>2088.12</ele>
        <time>2017-08-29T14:05:14Z</time>
      </trkpt>
      <trkpt lat="45.71916" lon="6.70039">
        <ele>2088.12</ele>
        <time>2017-08-29T14:05:15Z</time>
      </trkpt>
      <trkpt lat="45.71917" lon="6.7004">
        <ele>2087.64</ele>
        <time>2017-08-29T14:05:16Z</time>
      </trkpt>
      <trkpt lat="45.71918" lon="6.70042">
        <ele>2087.64</ele>
        <time>2017-08-29T14:05:17Z</time>
      </trkpt>
      <trkpt lat="45.71923" lon="6.70054">
        <ele>2086.68</ele>
        <time>2017-08-29T14:05:24Z</time>
      </trkpt>
      <trkpt lat="45.71932" lon="6.70076">
        <ele>2083.79</ele>
        <time>2017-08-29T14:05:33Z</time>
      </trkpt>
      <trkpt lat="45.71939" lon="6.70091">
        <ele>2080.43</ele>
        <time>2017-08-29T14:05:40Z</time>
      </trkpt>
      <trkpt lat="45.71939" lon="6.70093">
        <ele>2079.95</ele>
        <time>2017-08-29T14:05:41Z</time>
      </trkpt>
      <trkpt lat="45.71938" lon="6.70095">
        <ele>2079.47</ele>
        <time>2017-08-29T14:05:42Z</time>
      </trkpt>
      <trkpt lat="45.71937" lon="6.70097">
        <ele>2078.99</ele>
        <time>2017-08-29T14:05:43Z</time>
      </trkpt>
      <trkpt lat="45.71937" lon="6.70099">
        <ele>2078.99</ele>
        <time>2017-08-29T14:05:44Z</time>
      </trkpt>
      <trkpt lat="45.71937" lon="6.701">
        <ele>2078.51</ele>
        <time>2017-08-29T14:05:45Z</time>
      </trkpt>
      <trkpt lat="45.71937" lon="6.70105">
        <ele>2077.07</ele>
        <time>2017-08-29T14:05:52Z</time>
      </trkpt>
      <trkpt lat="45.71938" lon="6.70107">
        <ele>2077.07</ele>
        <time>2017-08-29T14:05:53Z</time>
      </trkpt>
      <trkpt lat="45.71938" lon="6.70109">
        <ele>2077.07</ele>
        <time>2017-08-29T14:05:54Z</time>
      </trkpt>
      <trkpt lat="45.71939" lon="6.70111">
        <ele>2076.59</ele>
        <time>2017-08-29T14:05:55Z</time>
      </trkpt>
      <trkpt lat="45.71939" lon="6.70113">
        <ele>2076.59</ele>
        <time>2017-08-29T14:05:56Z</time>
      </trkpt>
      <trkpt lat="45.7194" lon="6.70116">
        <ele>2076.1</ele>
        <time>2017-08-29T14:05:57Z</time>
      </trkpt>
      <trkpt lat="45.71946" lon="6.70136">
        <ele>2073.7</ele>
        <time>2017-08-29T14:06:05Z</time>
      </trkpt>
      <trkpt lat="45.71948" lon="6.70139">
        <ele>2073.22</ele>
        <time>2017-08-29T14:06:07Z</time>
      </trkpt>
      <trkpt lat="45.71953" lon="6.70145">
        <ele>2070.82</ele>
        <time>2017-08-29T14:06:13Z</time>
      </trkpt>
      <trkpt lat="45.71956" lon="6.70145">
        <ele>2070.82</ele>
        <time>2017-08-29T14:06:16Z</time>
      </trkpt>
      <trkpt lat="45.71958" lon="6.70145">
        <ele>2070.82</ele>
        <time>2017-08-29T14:06:17Z</time>
      </trkpt>
      <trkpt lat="45.71963" lon="6.70147">
        <ele>2069.86</ele>
        <time>2017-08-29T14:06:21Z</time>
      </trkpt>
      <trkpt lat="45.71964" lon="6.70149">
        <ele>2069.86</ele>
        <time>2017-08-29T14:06:22Z</time>
      </trkpt>
      <trkpt lat="45.71966" lon="6.70155">
        <ele>2069.38</ele>
        <time>2017-08-29T14:06:29Z</time>
      </trkpt>
      <trkpt lat="45.71968" lon="6.70168">
        <ele>2066.01</ele>
        <time>2017-08-29T14:06:41Z</time>
      </trkpt>
      <trkpt lat="45.71969" lon="6.70171">
        <ele>2065.53</ele>
        <time>2017-08-29T14:06:43Z</time>
      </trkpt>
      <trkpt lat="45.7197" lon="6.70172">
        <ele>2065.05</ele>
        <time>2017-08-29T14:06:44Z</time>
      </trkpt>
      <trkpt lat="45.71971" lon="6.70173">
        <ele>2064.57</ele>
        <time>2017-08-29T14:06:45Z</time>
      </trkpt>
      <trkpt lat="45.71971" lon="6.70174">
        <ele>2064.09</ele>
        <time>2017-08-29T14:06:46Z</time>
      </trkpt>
      <trkpt lat="45.71972" lon="6.70175">
        <ele>2063.61</ele>
        <time>2017-08-29T14:06:47Z</time>
      </trkpt>
      <trkpt lat="45.71972" lon="6.70177">
        <ele>2063.13</ele>
        <time>2017-08-29T14:06:48Z</time>
      </trkpt>
      <trkpt lat="45.71971" lon="6.70179">
        <ele>2062.65</ele>
        <time>2017-08-29T14:06:49Z</time>
      </trkpt>
      <trkpt lat="45.71971" lon="6.7018">
        <ele>2062.65</ele>
        <time>2017-08-29T14:06:50Z</time>
      </trkpt>
      <trkpt lat="45.71972" lon="6.70182">
        <ele>2062.65</ele>
        <time>2017-08-29T14:06:51Z</time>
      </trkpt>
      <trkpt lat="45.71973" lon="6.70183">
        <ele>2062.65</ele>
        <time>2017-08-29T14:06:52Z</time>
      </trkpt>
      <trkpt lat="45.71974" lon="6.70184">
        <ele>2062.65</ele>
        <time>2017-08-29T14:06:53Z</time>
      </trkpt>
      <trkpt lat="45.71975" lon="6.70186">
        <ele>2062.17</ele>
        <time>2017-08-29T14:06:54Z</time>
      </trkpt>
      <trkpt lat="45.71975" lon="6.70187">
        <ele>2062.17</ele>
        <time>2017-08-29T14:06:55Z</time>
      </trkpt>
      <trkpt lat="45.71976" lon="6.70188">
        <ele>2061.68</ele>
        <time>2017-08-29T14:06:56Z</time>
      </trkpt>
      <trkpt lat="45.71978" lon="6.70189">
        <ele>2061.68</ele>
        <time>2017-08-29T14:06:57Z</time>
      </trkpt>
      <trkpt lat="45.71979" lon="6.7019">
        <ele>2061.2</ele>
        <time>2017-08-29T14:06:58Z</time>
      </trkpt>
      <trkpt lat="45.7198" lon="6.70195">
        <ele>2061.2</ele>
        <time>2017-08-29T14:07:04Z</time>
      </trkpt>
      <trkpt lat="45.7198" lon="6.70197">
        <ele>2061.2</ele>
        <time>2017-08-29T14:07:05Z</time>
      </trkpt>
      <trkpt lat="45.7198" lon="6.70199">
        <ele>2060.72</ele>
        <time>2017-08-29T14:07:06Z</time>
      </trkpt>
      <trkpt lat="45.7198" lon="6.70202">
        <ele>2060.72</ele>
        <time>2017-08-29T14:07:07Z</time>
      </trkpt>
      <trkpt lat="45.7198" lon="6.70204">
        <ele>2060.72</ele>
        <time>2017-08-29T14:07:08Z</time>
      </trkpt>
      <trkpt lat="45.7198" lon="6.70206">
        <ele>2060.72</ele>
        <time>2017-08-29T14:07:09Z</time>
      </trkpt>
      <trkpt lat="45.71981" lon="6.70207">
        <ele>2060.72</ele>
        <time>2017-08-29T14:07:10Z</time>
      </trkpt>
      <trkpt lat="45.71981" lon="6.70209">
        <ele>2060.24</ele>
        <time>2017-08-29T14:07:11Z</time>
      </trkpt>
      <trkpt lat="45.71983" lon="6.70211">
        <ele>2060.24</ele>
        <time>2017-08-29T14:07:13Z</time>
      </trkpt>
      <trkpt lat="45.71985" lon="6.70213">
        <ele>2060.72</ele>
        <time>2017-08-29T14:07:16Z</time>
      </trkpt>
      <trkpt lat="45.71986" lon="6.70214">
        <ele>2060.24</ele>
        <time>2017-08-29T14:07:17Z</time>
      </trkpt>
      <trkpt lat="45.71987" lon="6.70215">
        <ele>2060.24</ele>
        <time>2017-08-29T14:07:18Z</time>
      </trkpt>
      <trkpt lat="45.71989" lon="6.70215">
        <ele>2059.76</ele>
        <time>2017-08-29T14:07:19Z</time>
      </trkpt>
      <trkpt lat="45.7199" lon="6.70216">
        <ele>2059.76</ele>
        <time>2017-08-29T14:07:20Z</time>
      </trkpt>
      <trkpt lat="45.71991" lon="6.70216">
        <ele>2059.76</ele>
        <time>2017-08-29T14:07:21Z</time>
      </trkpt>
      <trkpt lat="45.71992" lon="6.70218">
        <ele>2059.76</ele>
        <time>2017-08-29T14:07:22Z</time>
      </trkpt>
      <trkpt lat="45.71993" lon="6.7022">
        <ele>2059.76</ele>
        <time>2017-08-29T14:07:23Z</time>
      </trkpt>
      <trkpt lat="45.71996" lon="6.70223">
        <ele>2059.28</ele>
        <time>2017-08-29T14:07:26Z</time>
      </trkpt>
      <trkpt lat="45.72004" lon="6.70223">
        <ele>2059.28</ele>
        <time>2017-08-29T14:07:34Z</time>
      </trkpt>
      <trkpt lat="45.72007" lon="6.70226">
        <ele>2058.32</ele>
        <time>2017-08-29T14:07:38Z</time>
      </trkpt>
      <trkpt lat="45.72007" lon="6.70228">
        <ele>2057.36</ele>
        <time>2017-08-29T14:07:56Z</time>
      </trkpt>
      <trkpt lat="45.72007" lon="6.70228">
        <ele>2057.36</ele>
        <time>2017-08-29T14:08:00Z</time>
      </trkpt>
      <trkpt lat="45.72007" lon="6.70228">
        <ele>2057.36</ele>
        <time>2017-08-29T14:08:04Z</time>
      </trkpt>
      <trkpt lat="45.72007" lon="6.70228">
        <ele>2057.84</ele>
        <time>2017-08-29T14:08:16Z</time>
      </trkpt>
      <trkpt lat="45.72009" lon="6.70228">
        <ele>2057.84</ele>
        <time>2017-08-29T14:08:31Z</time>
      </trkpt>
      <trkpt lat="45.72009" lon="6.70228">
        <ele>2057.84</ele>
        <time>2017-08-29T14:08:37Z</time>
      </trkpt>
      <trkpt lat="45.72008" lon="6.70228">
        <ele>2057.84</ele>
        <time>2017-08-29T14:08:47Z</time>
      </trkpt>
      <trkpt lat="45.72006" lon="6.70228">
        <ele>2057.84</ele>
        <time>2017-08-29T14:08:56Z</time>
      </trkpt>
      <trkpt lat="45.72006" lon="6.70227">
        <ele>2058.32</ele>
        <time>2017-08-29T14:09:05Z</time>
      </trkpt>
      <trkpt lat="45.72006" lon="6.70227">
        <ele>2058.32</ele>
        <time>2017-08-29T14:09:09Z</time>
      </trkpt>
      <trkpt lat="45.72008" lon="6.70228">
        <ele>2058.8</ele>
        <time>2017-08-29T14:09:30Z</time>
      </trkpt>
      <trkpt lat="45.72007" lon="6.70227">
        <ele>2058.32</ele>
        <time>2017-08-29T14:09:58Z</time>
      </trkpt>
      <trkpt lat="45.72007" lon="6.70228">
        <ele>2057.84</ele>
        <time>2017-08-29T14:10:03Z</time>
      </trkpt>
      <trkpt lat="45.72007" lon="6.70229">
        <ele>2058.8</ele>
        <time>2017-08-29T14:10:12Z</time>
      </trkpt>
      <trkpt lat="45.72008" lon="6.70228">
        <ele>2058.32</ele>
        <time>2017-08-29T14:10:39Z</time>
      </trkpt>
      <trkpt lat="45.72009" lon="6.70229">
        <ele>2058.32</ele>
        <time>2017-08-29T14:10:53Z</time>
      </trkpt>
      <trkpt lat="45.7201" lon="6.70229">
        <ele>2058.32</ele>
        <time>2017-08-29T14:11:04Z</time>
      </trkpt>
      <trkpt lat="45.7201" lon="6.7023">
        <ele>2058.32</ele>
        <time>2017-08-29T14:11:11Z</time>
      </trkpt>
      <trkpt lat="45.7201" lon="6.70226">
        <ele>2058.32</ele>
        <time>2017-08-29T14:11:26Z</time>
      </trkpt>
      <trkpt lat="45.72009" lon="6.70225">
        <ele>2058.32</ele>
        <time>2017-08-29T14:11:34Z</time>
      </trkpt>
      <trkpt lat="45.72007" lon="6.70229">
        <ele>2058.32</ele>
        <time>2017-08-29T14:11:54Z</time>
      </trkpt>
      <trkpt lat="45.72007" lon="6.70228">
        <ele>2058.8</ele>
        <time>2017-08-29T14:12:15Z</time>
      </trkpt>
      <trkpt lat="45.72008" lon="6.70229">
        <ele>2058.8</ele>
        <time>2017-08-29T14:12:26Z</time>
      </trkpt>
      <trkpt lat="45.72009" lon="6.70229">
        <ele>2059.28</ele>
        <time>2017-08-29T14:12:56Z</time>
      </trkpt>
      <trkpt lat="45.72011" lon="6.70228">
        <ele>2059.76</ele>
        <time>2017-08-29T14:12:57Z</time>
      </trkpt>
      <trkpt lat="45.72012" lon="6.70228">
        <ele>2059.76</ele>
        <time>2017-08-29T14:12:58Z</time>
      </trkpt>
      <trkpt lat="45.72013" lon="6.70228">
        <ele>2059.76</ele>
        <time>2017-08-29T14:12:59Z</time>
      </trkpt>
      <trkpt lat="45.72017" lon="6.70226">
        <ele>2059.28</ele>
        <time>2017-08-29T14:13:02Z</time>
      </trkpt>
      <trkpt lat="45.72018" lon="6.70224">
        <ele>2058.8</ele>
        <time>2017-08-29T14:13:04Z</time>
      </trkpt>
      <trkpt lat="45.72021" lon="6.70221">
        <ele>2058.32</ele>
        <time>2017-08-29T14:13:07Z</time>
      </trkpt>
      <trkpt lat="45.72023" lon="6.7022">
        <ele>2058.32</ele>
        <time>2017-08-29T14:13:09Z</time>
      </trkpt>
      <trkpt lat="45.72028" lon="6.70217">
        <ele>2057.84</ele>
        <time>2017-08-29T14:13:13Z</time>
      </trkpt>
      <trkpt lat="45.72035" lon="6.70211">
        <ele>2057.84</ele>
        <time>2017-08-29T14:13:19Z</time>
      </trkpt>
      <trkpt lat="45.72036" lon="6.7021">
        <ele>2057.84</ele>
        <time>2017-08-29T14:13:20Z</time>
      </trkpt>
      <trkpt lat="45.72037" lon="6.70209">
        <ele>2057.36</ele>
        <time>2017-08-29T14:13:21Z</time>
      </trkpt>
      <trkpt lat="45.72038" lon="6.70209">
        <ele>2057.36</ele>
        <time>2017-08-29T14:13:22Z</time>
      </trkpt>
      <trkpt lat="45.72039" lon="6.70209">
        <ele>2057.36</ele>
        <time>2017-08-29T14:13:23Z</time>
      </trkpt>
      <trkpt lat="45.7204" lon="6.70209">
        <ele>2057.36</ele>
        <time>2017-08-29T14:13:24Z</time>
      </trkpt>
      <trkpt lat="45.72041" lon="6.70208">
        <ele>2057.36</ele>
        <time>2017-08-29T14:13:25Z</time>
      </trkpt>
      <trkpt lat="45.72042" lon="6.70208">
        <ele>2057.36</ele>
        <time>2017-08-29T14:13:26Z</time>
      </trkpt>
      <trkpt lat="45.72043" lon="6.70209">
        <ele>2057.36</ele>
        <time>2017-08-29T14:13:27Z</time>
      </trkpt>
      <trkpt lat="45.72045" lon="6.70209">
        <ele>2057.36</ele>
        <time>2017-08-29T14:13:28Z</time>
      </trkpt>
      <trkpt lat="45.72046" lon="6.70209">
        <ele>2056.88</ele>
        <time>2017-08-29T14:13:29Z</time>
      </trkpt>
      <trkpt lat="45.72047" lon="6.70209">
        <ele>2056.4</ele>
        <time>2017-08-29T14:13:30Z</time>
      </trkpt>
      <trkpt lat="45.72049" lon="6.70209">
        <ele>2056.4</ele>
        <time>2017-08-29T14:13:31Z</time>
      </trkpt>
      <trkpt lat="45.7205" lon="6.70209">
        <ele>2056.4</ele>
        <time>2017-08-29T14:13:32Z</time>
      </trkpt>
      <trkpt lat="45.72051" lon="6.70209">
        <ele>2055.92</ele>
        <time>2017-08-29T14:13:33Z</time>
      </trkpt>
      <trkpt lat="45.72072" lon="6.70205">
        <ele>2053.51</ele>
        <time>2017-08-29T14:13:52Z</time>
      </trkpt>
      <trkpt lat="45.72076" lon="6.70208">
        <ele>2053.03</ele>
        <time>2017-08-29T14:13:55Z</time>
      </trkpt>
      <trkpt lat="45.72077" lon="6.70208">
        <ele>2053.03</ele>
        <time>2017-08-29T14:13:56Z</time>
      </trkpt>
      <trkpt lat="45.72088" lon="6.70203">
        <ele>2053.03</ele>
        <time>2017-08-29T14:14:04Z</time>
      </trkpt>
      <trkpt lat="45.72108" lon="6.70198">
        <ele>2050.63</ele>
        <time>2017-08-29T14:14:15Z</time>
      </trkpt>
      <trkpt lat="45.72122" lon="6.70193">
        <ele>2049.19</ele>
        <time>2017-08-29T14:14:22Z</time>
      </trkpt>
      <trkpt lat="45.72139" lon="6.7019">
        <ele>2047.75</ele>
        <time>2017-08-29T14:14:29Z</time>
      </trkpt>
      <trkpt lat="45.72159" lon="6.70186">
        <ele>2046.78</ele>
        <time>2017-08-29T14:14:37Z</time>
      </trkpt>
      <trkpt lat="45.72171" lon="6.70179">
        <ele>2045.82</ele>
        <time>2017-08-29T14:14:42Z</time>
      </trkpt>
      <trkpt lat="45.72182" lon="6.70174">
        <ele>2045.34</ele>
        <time>2017-08-29T14:14:46Z</time>
      </trkpt>
      <trkpt lat="45.72193" lon="6.70161">
        <ele>2044.86</ele>
        <time>2017-08-29T14:14:52Z</time>
      </trkpt>
      <trkpt lat="45.72204" lon="6.70146">
        <ele>2043.9</ele>
        <time>2017-08-29T14:14:58Z</time>
      </trkpt>
      <trkpt lat="45.72217" lon="6.70126">
        <ele>2041.98</ele>
        <time>2017-08-29T14:15:06Z</time>
      </trkpt>
      <trkpt lat="45.7223" lon="6.70103">
        <ele>2041.02</ele>
        <time>2017-08-29T14:15:15Z</time>
      </trkpt>
      <trkpt lat="45.72234" lon="6.70099">
        <ele>2040.54</ele>
        <time>2017-08-29T14:15:17Z</time>
      </trkpt>
      <trkpt lat="45.72236" lon="6.70097">
        <ele>2040.54</ele>
        <time>2017-08-29T14:15:18Z</time>
      </trkpt>
      <trkpt lat="45.72238" lon="6.70095">
        <ele>2040.05</ele>
        <time>2017-08-29T14:15:19Z</time>
      </trkpt>
      <trkpt lat="45.7224" lon="6.70093">
        <ele>2040.05</ele>
        <time>2017-08-29T14:15:20Z</time>
      </trkpt>
      <trkpt lat="45.72242" lon="6.70091">
        <ele>2040.05</ele>
        <time>2017-08-29T14:15:21Z</time>
      </trkpt>
      <trkpt lat="45.72258" lon="6.7007">
        <ele>2038.61</ele>
        <time>2017-08-29T14:15:30Z</time>
      </trkpt>
      <trkpt lat="45.72273" lon="6.7005">
        <ele>2036.69</ele>
        <time>2017-08-29T14:15:38Z</time>
      </trkpt>
      <trkpt lat="45.7228" lon="6.70022">
        <ele>2035.25</ele>
        <time>2017-08-29T14:15:47Z</time>
      </trkpt>
      <trkpt lat="45.72287" lon="6.69997">
        <ele>2033.33</ele>
        <time>2017-08-29T14:15:55Z</time>
      </trkpt>
      <trkpt lat="45.72301" lon="6.69978">
        <ele>2031.4</ele>
        <time>2017-08-29T14:16:03Z</time>
      </trkpt>
      <trkpt lat="45.72304" lon="6.69974">
        <ele>2031.4</ele>
        <time>2017-08-29T14:16:05Z</time>
      </trkpt>
      <trkpt lat="45.72305" lon="6.69971">
        <ele>2031.88</ele>
        <time>2017-08-29T14:16:06Z</time>
      </trkpt>
      <trkpt lat="45.72315" lon="6.69945">
        <ele>2030.92</ele>
        <time>2017-08-29T14:16:15Z</time>
      </trkpt>
      <trkpt lat="45.72327" lon="6.69934">
        <ele>2029</ele>
        <time>2017-08-29T14:16:22Z</time>
      </trkpt>
      <trkpt lat="45.72329" lon="6.69935">
        <ele>2029</ele>
        <time>2017-08-29T14:16:23Z</time>
      </trkpt>
      <trkpt lat="45.72331" lon="6.69936">
        <ele>2029</ele>
        <time>2017-08-29T14:16:24Z</time>
      </trkpt>
      <trkpt lat="45.72333" lon="6.69938">
        <ele>2029</ele>
        <time>2017-08-29T14:16:25Z</time>
      </trkpt>
      <trkpt lat="45.72334" lon="6.69938">
        <ele>2029</ele>
        <time>2017-08-29T14:16:26Z</time>
      </trkpt>
      <trkpt lat="45.72336" lon="6.69937">
        <ele>2029</ele>
        <time>2017-08-29T14:16:27Z</time>
      </trkpt>
      <trkpt lat="45.72336" lon="6.69934">
        <ele>2029</ele>
        <time>2017-08-29T14:16:28Z</time>
      </trkpt>
      <trkpt lat="45.72337" lon="6.6993">
        <ele>2029</ele>
        <time>2017-08-29T14:16:29Z</time>
      </trkpt>
      <trkpt lat="45.72337" lon="6.69927">
        <ele>2028.52</ele>
        <time>2017-08-29T14:16:30Z</time>
      </trkpt>
      <trkpt lat="45.72337" lon="6.69924">
        <ele>2029</ele>
        <time>2017-08-29T14:16:31Z</time>
      </trkpt>
      <trkpt lat="45.72336" lon="6.69921">
        <ele>2029</ele>
        <time>2017-08-29T14:16:32Z</time>
      </trkpt>
      <trkpt lat="45.72335" lon="6.69918">
        <ele>2029</ele>
        <time>2017-08-29T14:16:33Z</time>
      </trkpt>
      <trkpt lat="45.72334" lon="6.69915">
        <ele>2029</ele>
        <time>2017-08-29T14:16:34Z</time>
      </trkpt>
      <trkpt lat="45.72332" lon="6.69906">
        <ele>2029</ele>
        <time>2017-08-29T14:16:38Z</time>
      </trkpt>
      <trkpt lat="45.72333" lon="6.69905">
        <ele>2029.48</ele>
        <time>2017-08-29T14:16:39Z</time>
      </trkpt>
      <trkpt lat="45.72333" lon="6.69903">
        <ele>2029.48</ele>
        <time>2017-08-29T14:16:41Z</time>
      </trkpt>
      <trkpt lat="45.72332" lon="6.69876">
        <ele>2029.96</ele>
        <time>2017-08-29T14:16:55Z</time>
      </trkpt>
      <trkpt lat="45.72334" lon="6.69847">
        <ele>2029</ele>
        <time>2017-08-29T14:17:05Z</time>
      </trkpt>
      <trkpt lat="45.72338" lon="6.69837">
        <ele>2029.48</ele>
        <time>2017-08-29T14:17:15Z</time>
      </trkpt>
      <trkpt lat="45.72339" lon="6.69838">
        <ele>2029.48</ele>
        <time>2017-08-29T14:17:20Z</time>
      </trkpt>
      <trkpt lat="45.72341" lon="6.6984">
        <ele>2029</ele>
        <time>2017-08-29T14:17:24Z</time>
      </trkpt>
      <trkpt lat="45.72342" lon="6.69841">
        <ele>2029</ele>
        <time>2017-08-29T14:17:25Z</time>
      </trkpt>
      <trkpt lat="45.72342" lon="6.69843">
        <ele>2029</ele>
        <time>2017-08-29T14:17:26Z</time>
      </trkpt>
      <trkpt lat="45.72343" lon="6.69844">
        <ele>2029</ele>
        <time>2017-08-29T14:17:27Z</time>
      </trkpt>
      <trkpt lat="45.72343" lon="6.69846">
        <ele>2029</ele>
        <time>2017-08-29T14:17:28Z</time>
      </trkpt>
      <trkpt lat="45.72343" lon="6.69848">
        <ele>2029.48</ele>
        <time>2017-08-29T14:17:29Z</time>
      </trkpt>
      <trkpt lat="45.72343" lon="6.6985">
        <ele>2029.48</ele>
        <time>2017-08-29T14:17:30Z</time>
      </trkpt>
      <trkpt lat="45.72344" lon="6.69851">
        <ele>2029.96</ele>
        <time>2017-08-29T14:17:31Z</time>
      </trkpt>
      <trkpt lat="45.72344" lon="6.69853">
        <ele>2029.96</ele>
        <time>2017-08-29T14:17:32Z</time>
      </trkpt>
      <trkpt lat="45.72345" lon="6.69854">
        <ele>2029.96</ele>
        <time>2017-08-29T14:17:33Z</time>
      </trkpt>
      <trkpt lat="45.72346" lon="6.69855">
        <ele>2029.96</ele>
        <time>2017-08-29T14:17:34Z</time>
      </trkpt>
      <trkpt lat="45.72348" lon="6.69856">
        <ele>2030.44</ele>
        <time>2017-08-29T14:17:35Z</time>
      </trkpt>
      <trkpt lat="45.72361" lon="6.69876">
        <ele>2033.33</ele>
        <time>2017-08-29T14:17:51Z</time>
      </trkpt>
      <trkpt lat="45.72363" lon="6.6988">
        <ele>2033.81</ele>
        <time>2017-08-29T14:17:55Z</time>
      </trkpt>
      <trkpt lat="45.72364" lon="6.6988">
        <ele>2033.81</ele>
        <time>2017-08-29T14:17:56Z</time>
      </trkpt>
      <trkpt lat="45.72365" lon="6.69881">
        <ele>2034.29</ele>
        <time>2017-08-29T14:17:57Z</time>
      </trkpt>
      <trkpt lat="45.72366" lon="6.69882">
        <ele>2034.29</ele>
        <time>2017-08-29T14:17:58Z</time>
      </trkpt>
      <trkpt lat="45.72366" lon="6.69884">
        <ele>2034.29</ele>
        <time>2017-08-29T14:17:59Z</time>
      </trkpt>
      <trkpt lat="45.72367" lon="6.69885">
        <ele>2034.77</ele>
        <time>2017-08-29T14:18:00Z</time>
      </trkpt>
      <trkpt lat="45.72368" lon="6.69888">
        <ele>2034.77</ele>
        <time>2017-08-29T14:18:02Z</time>
      </trkpt>
      <trkpt lat="45.72372" lon="6.69894">
        <ele>2033.81</ele>
        <time>2017-08-29T14:18:08Z</time>
      </trkpt>
      <trkpt lat="45.72372" lon="6.69896">
        <ele>2034.29</ele>
        <time>2017-08-29T14:18:09Z</time>
      </trkpt>
      <trkpt lat="45.72371" lon="6.69898">
        <ele>2034.29</ele>
        <time>2017-08-29T14:18:10Z</time>
      </trkpt>
      <trkpt lat="45.72371" lon="6.69899">
        <ele>2034.77</ele>
        <time>2017-08-29T14:18:11Z</time>
      </trkpt>
      <trkpt lat="45.7237" lon="6.699">
        <ele>2034.77</ele>
        <time>2017-08-29T14:18:12Z</time>
      </trkpt>
      <trkpt lat="45.72369" lon="6.69901">
        <ele>2034.77</ele>
        <time>2017-08-29T14:18:13Z</time>
      </trkpt>
      <trkpt lat="45.72371" lon="6.69902">
        <ele>2036.21</ele>
        <time>2017-08-29T14:18:19Z</time>
      </trkpt>
      <trkpt lat="45.7238" lon="6.69903">
        <ele>2038.13</ele>
        <time>2017-08-29T14:18:27Z</time>
      </trkpt>
      <trkpt lat="45.72381" lon="6.69904">
        <ele>2038.13</ele>
        <time>2017-08-29T14:18:28Z</time>
      </trkpt>
      <trkpt lat="45.7239" lon="6.69906">
        <ele>2039.57</ele>
        <time>2017-08-29T14:18:38Z</time>
      </trkpt>
      <trkpt lat="45.7239" lon="6.69905">
        <ele>2039.57</ele>
        <time>2017-08-29T14:18:39Z</time>
      </trkpt>
      <trkpt lat="45.72391" lon="6.69904">
        <ele>2040.05</ele>
        <time>2017-08-29T14:18:40Z</time>
      </trkpt>
      <trkpt lat="45.72392" lon="6.69904">
        <ele>2040.05</ele>
        <time>2017-08-29T14:18:41Z</time>
      </trkpt>
      <trkpt lat="45.72393" lon="6.69905">
        <ele>2040.05</ele>
        <time>2017-08-29T14:18:42Z</time>
      </trkpt>
      <trkpt lat="45.72395" lon="6.69908">
        <ele>2041.5</ele>
        <time>2017-08-29T14:18:45Z</time>
      </trkpt>
      <trkpt lat="45.72399" lon="6.69913">
        <ele>2041.98</ele>
        <time>2017-08-29T14:18:50Z</time>
      </trkpt>
      <trkpt lat="45.724" lon="6.69914">
        <ele>2041.98</ele>
        <time>2017-08-29T14:18:51Z</time>
      </trkpt>
      <trkpt lat="45.72401" lon="6.69915">
        <ele>2041.98</ele>
        <time>2017-08-29T14:18:52Z</time>
      </trkpt>
      <trkpt lat="45.72402" lon="6.69916">
        <ele>2041.98</ele>
        <time>2017-08-29T14:18:53Z</time>
      </trkpt>
      <trkpt lat="45.72403" lon="6.69918">
        <ele>2041.98</ele>
        <time>2017-08-29T14:18:54Z</time>
      </trkpt>
      <trkpt lat="45.72403" lon="6.6992">
        <ele>2042.46</ele>
        <time>2017-08-29T14:18:55Z</time>
      </trkpt>
      <trkpt lat="45.72404" lon="6.69922">
        <ele>2042.46</ele>
        <time>2017-08-29T14:18:56Z</time>
      </trkpt>
      <trkpt lat="45.72404" lon="6.69923">
        <ele>2042.94</ele>
        <time>2017-08-29T14:18:57Z</time>
      </trkpt>
      <trkpt lat="45.72398" lon="6.69942">
        <ele>2043.9</ele>
        <time>2017-08-29T14:19:08Z</time>
      </trkpt>
      <trkpt lat="45.72397" lon="6.69943">
        <ele>2043.9</ele>
        <time>2017-08-29T14:19:09Z</time>
      </trkpt>
      <trkpt lat="45.72396" lon="6.69945">
        <ele>2044.38</ele>
        <time>2017-08-29T14:19:10Z</time>
      </trkpt>
      <trkpt lat="45.72394" lon="6.69953">
        <ele>2045.34</ele>
        <time>2017-08-29T14:19:15Z</time>
      </trkpt>
      <trkpt lat="45.72396" lon="6.69953">
        <ele>2046.78</ele>
        <time>2017-08-29T14:19:21Z</time>
      </trkpt>
      <trkpt lat="45.72396" lon="6.69952">
        <ele>2046.78</ele>
        <time>2017-08-29T14:19:22Z</time>
      </trkpt>
      <trkpt lat="45.72397" lon="6.69951">
        <ele>2047.26</ele>
        <time>2017-08-29T14:19:23Z</time>
      </trkpt>
      <trkpt lat="45.72398" lon="6.69951">
        <ele>2047.75</ele>
        <time>2017-08-29T14:19:24Z</time>
      </trkpt>
      <trkpt lat="45.72405" lon="6.69956">
        <ele>2050.15</ele>
        <time>2017-08-29T14:19:36Z</time>
      </trkpt>
      <trkpt lat="45.72409" lon="6.69955">
        <ele>2051.11</ele>
        <time>2017-08-29T14:19:41Z</time>
      </trkpt>
      <trkpt lat="45.7241" lon="6.69954">
        <ele>2051.11</ele>
        <time>2017-08-29T14:19:42Z</time>
      </trkpt>
      <trkpt lat="45.72414" lon="6.69953">
        <ele>2052.07</ele>
        <time>2017-08-29T14:19:47Z</time>
      </trkpt>
      <trkpt lat="45.72417" lon="6.69953">
        <ele>2053.03</ele>
        <time>2017-08-29T14:19:52Z</time>
      </trkpt>
      <trkpt lat="45.72418" lon="6.69952">
        <ele>2053.51</ele>
        <time>2017-08-29T14:19:53Z</time>
      </trkpt>
      <trkpt lat="45.72422" lon="6.69951">
        <ele>2054.47</ele>
        <time>2017-08-29T14:20:00Z</time>
      </trkpt>
      <trkpt lat="45.72423" lon="6.69951">
        <ele>2054.47</ele>
        <time>2017-08-29T14:20:01Z</time>
      </trkpt>
      <trkpt lat="45.72424" lon="6.6995">
        <ele>2054.47</ele>
        <time>2017-08-29T14:20:02Z</time>
      </trkpt>
      <trkpt lat="45.72425" lon="6.69948">
        <ele>2054.96</ele>
        <time>2017-08-29T14:20:04Z</time>
      </trkpt>
      <trkpt lat="45.72426" lon="6.69947">
        <ele>2055.44</ele>
        <time>2017-08-29T14:20:05Z</time>
      </trkpt>
      <trkpt lat="45.72431" lon="6.69944">
        <ele>2056.4</ele>
        <time>2017-08-29T14:20:11Z</time>
      </trkpt>
      <trkpt lat="45.72432" lon="6.69938">
        <ele>2058.32</ele>
        <time>2017-08-29T14:20:18Z</time>
      </trkpt>
      <trkpt lat="45.72434" lon="6.69935">
        <ele>2058.8</ele>
        <time>2017-08-29T14:20:21Z</time>
      </trkpt>
      <trkpt lat="45.72435" lon="6.69934">
        <ele>2058.8</ele>
        <time>2017-08-29T14:20:22Z</time>
      </trkpt>
      <trkpt lat="45.72436" lon="6.69934">
        <ele>2058.8</ele>
        <time>2017-08-29T14:20:23Z</time>
      </trkpt>
      <trkpt lat="45.72439" lon="6.69936">
        <ele>2059.76</ele>
        <time>2017-08-29T14:20:26Z</time>
      </trkpt>
      <trkpt lat="45.72443" lon="6.69946">
        <ele>2062.17</ele>
        <time>2017-08-29T14:20:37Z</time>
      </trkpt>
      <trkpt lat="45.72444" lon="6.69947">
        <ele>2062.17</ele>
        <time>2017-08-29T14:20:38Z</time>
      </trkpt>
      <trkpt lat="45.72449" lon="6.69965">
        <ele>2065.05</ele>
        <time>2017-08-29T14:20:57Z</time>
      </trkpt>
      <trkpt lat="45.7245" lon="6.69968">
        <ele>2066.01</ele>
        <time>2017-08-29T14:20:59Z</time>
      </trkpt>
      <trkpt lat="45.7245" lon="6.69969">
        <ele>2066.01</ele>
        <time>2017-08-29T14:21:00Z</time>
      </trkpt>
      <trkpt lat="45.72451" lon="6.69971">
        <ele>2066.01</ele>
        <time>2017-08-29T14:21:01Z</time>
      </trkpt>
      <trkpt lat="45.72451" lon="6.69972">
        <ele>2066.49</ele>
        <time>2017-08-29T14:21:02Z</time>
      </trkpt>
      <trkpt lat="45.72452" lon="6.69974">
        <ele>2066.97</ele>
        <time>2017-08-29T14:21:04Z</time>
      </trkpt>
      <trkpt lat="45.72452" lon="6.69975">
        <ele>2066.97</ele>
        <time>2017-08-29T14:21:05Z</time>
      </trkpt>
      <trkpt lat="45.72456" lon="6.69983">
        <ele>2067.93</ele>
        <time>2017-08-29T14:21:12Z</time>
      </trkpt>
      <trkpt lat="45.72457" lon="6.69984">
        <ele>2068.41</ele>
        <time>2017-08-29T14:21:13Z</time>
      </trkpt>
      <trkpt lat="45.72457" lon="6.69985">
        <ele>2068.41</ele>
        <time>2017-08-29T14:21:14Z</time>
      </trkpt>
      <trkpt lat="45.72458" lon="6.69987">
        <ele>2068.89</ele>
        <time>2017-08-29T14:21:15Z</time>
      </trkpt>
      <trkpt lat="45.72459" lon="6.69988">
        <ele>2068.89</ele>
        <time>2017-08-29T14:21:16Z</time>
      </trkpt>
      <trkpt lat="45.7246" lon="6.69991">
        <ele>2069.38</ele>
        <time>2017-08-29T14:21:18Z</time>
      </trkpt>
      <trkpt lat="45.72461" lon="6.69993">
        <ele>2069.38</ele>
        <time>2017-08-29T14:21:20Z</time>
      </trkpt>
      <trkpt lat="45.72461" lon="6.69994">
        <ele>2069.86</ele>
        <time>2017-08-29T14:21:21Z</time>
      </trkpt>
      <trkpt lat="45.72467" lon="6.70002">
        <ele>2072.26</ele>
        <time>2017-08-29T14:21:33Z</time>
      </trkpt>
      <trkpt lat="45.72468" lon="6.70002">
        <ele>2072.74</ele>
        <time>2017-08-29T14:21:34Z</time>
      </trkpt>
      <trkpt lat="45.72469" lon="6.70003">
        <ele>2073.22</ele>
        <time>2017-08-29T14:21:35Z</time>
      </trkpt>
      <trkpt lat="45.72469" lon="6.70004">
        <ele>2073.22</ele>
        <time>2017-08-29T14:21:36Z</time>
      </trkpt>
      <trkpt lat="45.7247" lon="6.70004">
        <ele>2073.22</ele>
        <time>2017-08-29T14:21:37Z</time>
      </trkpt>
      <trkpt lat="45.7247" lon="6.70005">
        <ele>2073.22</ele>
        <time>2017-08-29T14:21:38Z</time>
      </trkpt>
      <trkpt lat="45.72471" lon="6.70006">
        <ele>2073.7</ele>
        <time>2017-08-29T14:21:39Z</time>
      </trkpt>
      <trkpt lat="45.72474" lon="6.70012">
        <ele>2075.14</ele>
        <time>2017-08-29T14:21:47Z</time>
      </trkpt>
      <trkpt lat="45.72474" lon="6.70013">
        <ele>2075.14</ele>
        <time>2017-08-29T14:21:48Z</time>
      </trkpt>
      <trkpt lat="45.72474" lon="6.70015">
        <ele>2075.62</ele>
        <time>2017-08-29T14:21:49Z</time>
      </trkpt>
      <trkpt lat="45.72479" lon="6.70029">
        <ele>2078.51</ele>
        <time>2017-08-29T14:22:04Z</time>
      </trkpt>
      <trkpt lat="45.72479" lon="6.7003">
        <ele>2078.99</ele>
        <time>2017-08-29T14:22:05Z</time>
      </trkpt>
      <trkpt lat="45.72481" lon="6.70033">
        <ele>2079.47</ele>
        <time>2017-08-29T14:22:09Z</time>
      </trkpt>
      <trkpt lat="45.72483" lon="6.70038">
        <ele>2080.43</ele>
        <time>2017-08-29T14:22:14Z</time>
      </trkpt>
      <trkpt lat="45.72484" lon="6.7004">
        <ele>2081.39</ele>
        <time>2017-08-29T14:22:17Z</time>
      </trkpt>
      <trkpt lat="45.72488" lon="6.70046">
        <ele>2083.31</ele>
        <time>2017-08-29T14:22:27Z</time>
      </trkpt>
      <trkpt lat="45.72491" lon="6.70055">
        <ele>2085.24</ele>
        <time>2017-08-29T14:22:37Z</time>
      </trkpt>
      <trkpt lat="45.72496" lon="6.70058">
        <ele>2087.16</ele>
        <time>2017-08-29T14:22:48Z</time>
      </trkpt>
      <trkpt lat="45.72496" lon="6.70057">
        <ele>2087.64</ele>
        <time>2017-08-29T14:22:49Z</time>
      </trkpt>
      <trkpt lat="45.72497" lon="6.70056">
        <ele>2087.64</ele>
        <time>2017-08-29T14:22:50Z</time>
      </trkpt>
      <trkpt lat="45.72498" lon="6.70053">
        <ele>2088.12</ele>
        <time>2017-08-29T14:22:53Z</time>
      </trkpt>
      <trkpt lat="45.725" lon="6.70045">
        <ele>2091</ele>
        <time>2017-08-29T14:23:04Z</time>
      </trkpt>
      <trkpt lat="45.72501" lon="6.70038">
        <ele>2091.97</ele>
        <time>2017-08-29T14:23:11Z</time>
      </trkpt>
      <trkpt lat="45.72501" lon="6.70036">
        <ele>2091.97</ele>
        <time>2017-08-29T14:23:12Z</time>
      </trkpt>
      <trkpt lat="45.72502" lon="6.70031">
        <ele>2093.41</ele>
        <time>2017-08-29T14:23:18Z</time>
      </trkpt>
      <trkpt lat="45.72503" lon="6.70029">
        <ele>2093.89</ele>
        <time>2017-08-29T14:23:21Z</time>
      </trkpt>
      <trkpt lat="45.72503" lon="6.70028">
        <ele>2093.89</ele>
        <time>2017-08-29T14:23:22Z</time>
      </trkpt>
      <trkpt lat="45.72504" lon="6.70028">
        <ele>2094.37</ele>
        <time>2017-08-29T14:23:25Z</time>
      </trkpt>
      <trkpt lat="45.72506" lon="6.70029">
        <ele>2095.33</ele>
        <time>2017-08-29T14:23:29Z</time>
      </trkpt>
      <trkpt lat="45.72511" lon="6.70041">
        <ele>2098.7</ele>
        <time>2017-08-29T14:23:46Z</time>
      </trkpt>
      <trkpt lat="45.72511" lon="6.70042">
        <ele>2099.18</ele>
        <time>2017-08-29T14:23:48Z</time>
      </trkpt>
      <trkpt lat="45.72512" lon="6.70043">
        <ele>2099.18</ele>
        <time>2017-08-29T14:23:49Z</time>
      </trkpt>
      <trkpt lat="45.72512" lon="6.70044">
        <ele>2099.66</ele>
        <time>2017-08-29T14:23:51Z</time>
      </trkpt>
      <trkpt lat="45.72514" lon="6.70047">
        <ele>2101.1</ele>
        <time>2017-08-29T14:23:58Z</time>
      </trkpt>
      <trkpt lat="45.72515" lon="6.70048">
        <ele>2101.58</ele>
        <time>2017-08-29T14:23:59Z</time>
      </trkpt>
      <trkpt lat="45.72523" lon="6.70048">
        <ele>2104.46</ele>
        <time>2017-08-29T14:24:15Z</time>
      </trkpt>
      <trkpt lat="45.72527" lon="6.70052">
        <ele>2105.42</ele>
        <time>2017-08-29T14:24:22Z</time>
      </trkpt>
      <trkpt lat="45.72528" lon="6.70047">
        <ele>2107.83</ele>
        <time>2017-08-29T14:24:33Z</time>
      </trkpt>
      <trkpt lat="45.72528" lon="6.70045">
        <ele>2108.31</ele>
        <time>2017-08-29T14:24:34Z</time>
      </trkpt>
      <trkpt lat="45.72528" lon="6.70039">
        <ele>2109.75</ele>
        <time>2017-08-29T14:24:45Z</time>
      </trkpt>
      <trkpt lat="45.72534" lon="6.70039">
        <ele>2113.12</ele>
        <time>2017-08-29T14:25:02Z</time>
      </trkpt>
      <trkpt lat="45.72539" lon="6.70046">
        <ele>2115.04</ele>
        <time>2017-08-29T14:25:12Z</time>
      </trkpt>
      <trkpt lat="45.7254" lon="6.70047">
        <ele>2115.04</ele>
        <time>2017-08-29T14:25:13Z</time>
      </trkpt>
      <trkpt lat="45.72545" lon="6.70052">
        <ele>2118.4</ele>
        <time>2017-08-29T14:25:29Z</time>
      </trkpt>
      <trkpt lat="45.72552" lon="6.70057">
        <ele>2121.29</ele>
        <time>2017-08-29T14:25:46Z</time>
      </trkpt>
      <trkpt lat="45.72553" lon="6.70047">
        <ele>2124.17</ele>
        <time>2017-08-29T14:26:03Z</time>
      </trkpt>
      <trkpt lat="45.72551" lon="6.70039">
        <ele>2126.57</ele>
        <time>2017-08-29T14:26:13Z</time>
      </trkpt>
      <trkpt lat="45.72551" lon="6.70038">
        <ele>2126.57</ele>
        <time>2017-08-29T14:26:14Z</time>
      </trkpt>
      <trkpt lat="45.72551" lon="6.70032">
        <ele>2127.53</ele>
        <time>2017-08-29T14:26:19Z</time>
      </trkpt>
      <trkpt lat="45.72553" lon="6.70028">
        <ele>2128.02</ele>
        <time>2017-08-29T14:26:24Z</time>
      </trkpt>
      <trkpt lat="45.72556" lon="6.70029">
        <ele>2128.98</ele>
        <time>2017-08-29T14:26:28Z</time>
      </trkpt>
      <trkpt lat="45.7256" lon="6.70038">
        <ele>2131.86</ele>
        <time>2017-08-29T14:26:45Z</time>
      </trkpt>
      <trkpt lat="45.72563" lon="6.70037">
        <ele>2134.74</ele>
        <time>2017-08-29T14:26:58Z</time>
      </trkpt>
      <trkpt lat="45.72565" lon="6.70028">
        <ele>2137.63</ele>
        <time>2017-08-29T14:27:14Z</time>
      </trkpt>
      <trkpt lat="45.72568" lon="6.7003">
        <ele>2139.07</ele>
        <time>2017-08-29T14:27:20Z</time>
      </trkpt>
      <trkpt lat="45.72576" lon="6.7004">
        <ele>2142.44</ele>
        <time>2017-08-29T14:27:38Z</time>
      </trkpt>
      <trkpt lat="45.72584" lon="6.70049">
        <ele>2145.32</ele>
        <time>2017-08-29T14:27:52Z</time>
      </trkpt>
      <trkpt lat="45.72587" lon="6.70053">
        <ele>2145.8</ele>
        <time>2017-08-29T14:27:57Z</time>
      </trkpt>
      <trkpt lat="45.72589" lon="6.70054">
        <ele>2146.28</ele>
        <time>2017-08-29T14:27:59Z</time>
      </trkpt>
      <trkpt lat="45.72589" lon="6.70056">
        <ele>2146.28</ele>
        <time>2017-08-29T14:28:00Z</time>
      </trkpt>
      <trkpt lat="45.72596" lon="6.70067">
        <ele>2148.68</ele>
        <time>2017-08-29T14:28:15Z</time>
      </trkpt>
      <trkpt lat="45.72597" lon="6.70057">
        <ele>2152.05</ele>
        <time>2017-08-29T14:28:32Z</time>
      </trkpt>
      <trkpt lat="45.72599" lon="6.70054">
        <ele>2153.49</ele>
        <time>2017-08-29T14:28:38Z</time>
      </trkpt>
      <trkpt lat="45.72599" lon="6.7005">
        <ele>2153.97</ele>
        <time>2017-08-29T14:28:41Z</time>
      </trkpt>
      <trkpt lat="45.72599" lon="6.70049">
        <ele>2154.45</ele>
        <time>2017-08-29T14:28:42Z</time>
      </trkpt>
      <trkpt lat="45.72599" lon="6.70048">
        <ele>2154.45</ele>
        <time>2017-08-29T14:28:43Z</time>
      </trkpt>
      <trkpt lat="45.726" lon="6.70047">
        <ele>2154.93</ele>
        <time>2017-08-29T14:28:44Z</time>
      </trkpt>
      <trkpt lat="45.726" lon="6.70045">
        <ele>2154.93</ele>
        <time>2017-08-29T14:28:45Z</time>
      </trkpt>
      <trkpt lat="45.72599" lon="6.70041">
        <ele>2155.41</ele>
        <time>2017-08-29T14:28:49Z</time>
      </trkpt>
      <trkpt lat="45.72597" lon="6.70031">
        <ele>2157.34</ele>
        <time>2017-08-29T14:29:01Z</time>
      </trkpt>
      <trkpt lat="45.72599" lon="6.7003">
        <ele>2157.34</ele>
        <time>2017-08-29T14:29:03Z</time>
      </trkpt>
      <trkpt lat="45.726" lon="6.70031">
        <ele>2157.82</ele>
        <time>2017-08-29T14:29:04Z</time>
      </trkpt>
      <trkpt lat="45.72604" lon="6.70037">
        <ele>2160.22</ele>
        <time>2017-08-29T14:29:15Z</time>
      </trkpt>
      <trkpt lat="45.72609" lon="6.7004">
        <ele>2161.66</ele>
        <time>2017-08-29T14:29:23Z</time>
      </trkpt>
      <trkpt lat="45.7261" lon="6.70042">
        <ele>2161.66</ele>
        <time>2017-08-29T14:29:25Z</time>
      </trkpt>
      <trkpt lat="45.72615" lon="6.70044">
        <ele>2162.62</ele>
        <time>2017-08-29T14:29:31Z</time>
      </trkpt>
      <trkpt lat="45.72616" lon="6.70044">
        <ele>2162.62</ele>
        <time>2017-08-29T14:29:32Z</time>
      </trkpt>
      <trkpt lat="45.7262" lon="6.70046">
        <ele>2163.58</ele>
        <time>2017-08-29T14:29:37Z</time>
      </trkpt>
      <trkpt lat="45.72638" lon="6.70052">
        <ele>2166.47</ele>
        <time>2017-08-29T14:29:57Z</time>
      </trkpt>
      <trkpt lat="45.72643" lon="6.70058">
        <ele>2168.39</ele>
        <time>2017-08-29T14:30:07Z</time>
      </trkpt>
      <trkpt lat="45.72644" lon="6.70059">
        <ele>2168.39</ele>
        <time>2017-08-29T14:30:08Z</time>
      </trkpt>
      <trkpt lat="45.72647" lon="6.70065">
        <ele>2169.83</ele>
        <time>2017-08-29T14:30:14Z</time>
      </trkpt>
      <trkpt lat="45.72665" lon="6.70075">
        <ele>2172.72</ele>
        <time>2017-08-29T14:30:33Z</time>
      </trkpt>
      <trkpt lat="45.72676" lon="6.70081">
        <ele>2175.12</ele>
        <time>2017-08-29T14:30:45Z</time>
      </trkpt>
      <trkpt lat="45.72689" lon="6.70091">
        <ele>2178</ele>
        <time>2017-08-29T14:31:01Z</time>
      </trkpt>
      <trkpt lat="45.72692" lon="6.70092">
        <ele>2178.97</ele>
        <time>2017-08-29T14:31:05Z</time>
      </trkpt>
      <trkpt lat="45.72693" lon="6.70092">
        <ele>2178.97</ele>
        <time>2017-08-29T14:31:06Z</time>
      </trkpt>
      <trkpt lat="45.72696" lon="6.70093">
        <ele>2179.45</ele>
        <time>2017-08-29T14:31:08Z</time>
      </trkpt>
      <trkpt lat="45.72697" lon="6.70094">
        <ele>2179.45</ele>
        <time>2017-08-29T14:31:09Z</time>
      </trkpt>
      <trkpt lat="45.727" lon="6.70095">
        <ele>2179.93</ele>
        <time>2017-08-29T14:31:13Z</time>
      </trkpt>
      <trkpt lat="45.72701" lon="6.70095">
        <ele>2180.41</ele>
        <time>2017-08-29T14:31:14Z</time>
      </trkpt>
      <trkpt lat="45.72708" lon="6.70098">
        <ele>2182.33</ele>
        <time>2017-08-29T14:31:23Z</time>
      </trkpt>
      <trkpt lat="45.72711" lon="6.701">
        <ele>2183.29</ele>
        <time>2017-08-29T14:31:28Z</time>
      </trkpt>
      <trkpt lat="45.72714" lon="6.70103">
        <ele>2183.77</ele>
        <time>2017-08-29T14:31:32Z</time>
      </trkpt>
      <trkpt lat="45.72718" lon="6.70106">
        <ele>2185.21</ele>
        <time>2017-08-29T14:31:38Z</time>
      </trkpt>
      <trkpt lat="45.72723" lon="6.70108">
        <ele>2186.18</ele>
        <time>2017-08-29T14:31:45Z</time>
      </trkpt>
      <trkpt lat="45.72724" lon="6.70108">
        <ele>2186.18</ele>
        <time>2017-08-29T14:31:46Z</time>
      </trkpt>
      <trkpt lat="45.72727" lon="6.70109">
        <ele>2187.62</ele>
        <time>2017-08-29T14:31:50Z</time>
      </trkpt>
      <trkpt lat="45.72727" lon="6.70109">
        <ele>2187.62</ele>
        <time>2017-08-29T14:31:51Z</time>
      </trkpt>
      <trkpt lat="45.72732" lon="6.70112">
        <ele>2188.58</ele>
        <time>2017-08-29T14:31:57Z</time>
      </trkpt>
      <trkpt lat="45.72734" lon="6.70115">
        <ele>2189.06</ele>
        <time>2017-08-29T14:32:00Z</time>
      </trkpt>
      <trkpt lat="45.72737" lon="6.70118">
        <ele>2190.02</ele>
        <time>2017-08-29T14:32:06Z</time>
      </trkpt>
      <trkpt lat="45.72738" lon="6.70118">
        <ele>2190.5</ele>
        <time>2017-08-29T14:32:07Z</time>
      </trkpt>
      <trkpt lat="45.7275" lon="6.70128">
        <ele>2192.42</ele>
        <time>2017-08-29T14:32:22Z</time>
      </trkpt>
      <trkpt lat="45.72751" lon="6.70129">
        <ele>2192.9</ele>
        <time>2017-08-29T14:32:23Z</time>
      </trkpt>
      <trkpt lat="45.72752" lon="6.70129">
        <ele>2192.9</ele>
        <time>2017-08-29T14:32:24Z</time>
      </trkpt>
      <trkpt lat="45.72755" lon="6.7013">
        <ele>2193.39</ele>
        <time>2017-08-29T14:32:27Z</time>
      </trkpt>
      <trkpt lat="45.72756" lon="6.7013">
        <ele>2193.39</ele>
        <time>2017-08-29T14:32:28Z</time>
      </trkpt>
      <trkpt lat="45.72767" lon="6.70138">
        <ele>2196.75</ele>
        <time>2017-08-29T14:32:44Z</time>
      </trkpt>
      <trkpt lat="45.7277" lon="6.70139">
        <ele>2197.23</ele>
        <time>2017-08-29T14:32:47Z</time>
      </trkpt>
      <trkpt lat="45.72771" lon="6.7014">
        <ele>2197.23</ele>
        <time>2017-08-29T14:32:48Z</time>
      </trkpt>
      <trkpt lat="45.72781" lon="6.70148">
        <ele>2199.15</ele>
        <time>2017-08-29T14:33:00Z</time>
      </trkpt>
      <trkpt lat="45.72782" lon="6.70149">
        <ele>2199.15</ele>
        <time>2017-08-29T14:33:01Z</time>
      </trkpt>
      <trkpt lat="45.72799" lon="6.70162">
        <ele>2202.04</ele>
        <time>2017-08-29T14:33:19Z</time>
      </trkpt>
      <trkpt lat="45.72802" lon="6.70165">
        <ele>2202.04</ele>
        <time>2017-08-29T14:33:23Z</time>
      </trkpt>
      <trkpt lat="45.72803" lon="6.70165">
        <ele>2202.52</ele>
        <time>2017-08-29T14:33:24Z</time>
      </trkpt>
      <trkpt lat="45.72803" lon="6.70166">
        <ele>2202.52</ele>
        <time>2017-08-29T14:33:25Z</time>
      </trkpt>
      <trkpt lat="45.72809" lon="6.70172">
        <ele>2203.96</ele>
        <time>2017-08-29T14:33:32Z</time>
      </trkpt>
      <trkpt lat="45.72809" lon="6.70173">
        <ele>2203.96</ele>
        <time>2017-08-29T14:33:33Z</time>
      </trkpt>
      <trkpt lat="45.72807" lon="6.70175">
        <ele>2204.92</ele>
        <time>2017-08-29T14:33:35Z</time>
      </trkpt>
      <trkpt lat="45.72806" lon="6.70176">
        <ele>2205.4</ele>
        <time>2017-08-29T14:33:36Z</time>
      </trkpt>
      <trkpt lat="45.72805" lon="6.70177">
        <ele>2205.4</ele>
        <time>2017-08-29T14:33:37Z</time>
      </trkpt>
      <trkpt lat="45.72804" lon="6.70177">
        <ele>2205.4</ele>
        <time>2017-08-29T14:33:38Z</time>
      </trkpt>
      <trkpt lat="45.72803" lon="6.70177">
        <ele>2205.4</ele>
        <time>2017-08-29T14:33:39Z</time>
      </trkpt>
      <trkpt lat="45.72801" lon="6.70177">
        <ele>2205.4</ele>
        <time>2017-08-29T14:33:40Z</time>
      </trkpt>
      <trkpt lat="45.728" lon="6.70177">
        <ele>2205.4</ele>
        <time>2017-08-29T14:33:41Z</time>
      </trkpt>
      <trkpt lat="45.72799" lon="6.70177">
        <ele>2205.88</ele>
        <time>2017-08-29T14:33:42Z</time>
      </trkpt>
      <trkpt lat="45.72784" lon="6.70178">
        <ele>2208.29</ele>
        <time>2017-08-29T14:33:57Z</time>
      </trkpt>
      <trkpt lat="45.72783" lon="6.70178">
        <ele>2208.29</ele>
        <time>2017-08-29T14:33:58Z</time>
      </trkpt>
      <trkpt lat="45.72775" lon="6.70182">
        <ele>2211.17</ele>
        <time>2017-08-29T14:34:13Z</time>
      </trkpt>
      <trkpt lat="45.72776" lon="6.70189">
        <ele>2212.61</ele>
        <time>2017-08-29T14:34:22Z</time>
      </trkpt>
      <trkpt lat="45.72778" lon="6.7019">
        <ele>2212.61</ele>
        <time>2017-08-29T14:34:24Z</time>
      </trkpt>
      <trkpt lat="45.7279" lon="6.70194">
        <ele>2214.05</ele>
        <time>2017-08-29T14:34:37Z</time>
      </trkpt>
      <trkpt lat="45.72791" lon="6.70194">
        <ele>2214.05</ele>
        <time>2017-08-29T14:34:38Z</time>
      </trkpt>
      <trkpt lat="45.72792" lon="6.70195">
        <ele>2214.05</ele>
        <time>2017-08-29T14:34:39Z</time>
      </trkpt>
      <trkpt lat="45.72793" lon="6.70196">
        <ele>2214.53</ele>
        <time>2017-08-29T14:34:40Z</time>
      </trkpt>
      <trkpt lat="45.72794" lon="6.70196">
        <ele>2215.01</ele>
        <time>2017-08-29T14:34:41Z</time>
      </trkpt>
      <trkpt lat="45.72796" lon="6.70197">
        <ele>2215.5</ele>
        <time>2017-08-29T14:34:43Z</time>
      </trkpt>
      <trkpt lat="45.72797" lon="6.70197">
        <ele>2215.5</ele>
        <time>2017-08-29T14:34:44Z</time>
      </trkpt>
      <trkpt lat="45.72798" lon="6.70197">
        <ele>2215.98</ele>
        <time>2017-08-29T14:34:45Z</time>
      </trkpt>
      <trkpt lat="45.72799" lon="6.70197">
        <ele>2215.98</ele>
        <time>2017-08-29T14:34:46Z</time>
      </trkpt>
      <trkpt lat="45.728" lon="6.70198">
        <ele>2215.98</ele>
        <time>2017-08-29T14:34:47Z</time>
      </trkpt>
      <trkpt lat="45.728" lon="6.70199">
        <ele>2216.46</ele>
        <time>2017-08-29T14:34:48Z</time>
      </trkpt>
      <trkpt lat="45.72801" lon="6.70199">
        <ele>2216.46</ele>
        <time>2017-08-29T14:34:49Z</time>
      </trkpt>
      <trkpt lat="45.72802" lon="6.702">
        <ele>2216.46</ele>
        <time>2017-08-29T14:34:50Z</time>
      </trkpt>
      <trkpt lat="45.72804" lon="6.70201">
        <ele>2216.94</ele>
        <time>2017-08-29T14:34:52Z</time>
      </trkpt>
      <trkpt lat="45.72804" lon="6.70201">
        <ele>2217.42</ele>
        <time>2017-08-29T14:34:53Z</time>
      </trkpt>
      <trkpt lat="45.72813" lon="6.70205">
        <ele>2218.38</ele>
        <time>2017-08-29T14:35:02Z</time>
      </trkpt>
      <trkpt lat="45.72822" lon="6.70212">
        <ele>2219.82</ele>
        <time>2017-08-29T14:35:12Z</time>
      </trkpt>
      <trkpt lat="45.72822" lon="6.70212">
        <ele>2219.82</ele>
        <time>2017-08-29T14:35:13Z</time>
      </trkpt>
      <trkpt lat="45.72823" lon="6.70213">
        <ele>2219.82</ele>
        <time>2017-08-29T14:35:14Z</time>
      </trkpt>
      <trkpt lat="45.72824" lon="6.70213">
        <ele>2219.82</ele>
        <time>2017-08-29T14:35:15Z</time>
      </trkpt>
      <trkpt lat="45.72826" lon="6.70214">
        <ele>2220.3</ele>
        <time>2017-08-29T14:35:18Z</time>
      </trkpt>
      <trkpt lat="45.72827" lon="6.70216">
        <ele>2220.78</ele>
        <time>2017-08-29T14:35:19Z</time>
      </trkpt>
      <trkpt lat="45.72827" lon="6.70217">
        <ele>2220.78</ele>
        <time>2017-08-29T14:35:20Z</time>
      </trkpt>
      <trkpt lat="45.72827" lon="6.70218">
        <ele>2221.26</ele>
        <time>2017-08-29T14:35:21Z</time>
      </trkpt>
      <trkpt lat="45.72827" lon="6.70219">
        <ele>2221.26</ele>
        <time>2017-08-29T14:35:22Z</time>
      </trkpt>
      <trkpt lat="45.7283" lon="6.70222">
        <ele>2221.74</ele>
        <time>2017-08-29T14:35:30Z</time>
      </trkpt>
      <trkpt lat="45.72836" lon="6.70224">
        <ele>2224.15</ele>
        <time>2017-08-29T14:35:39Z</time>
      </trkpt>
      <trkpt lat="45.72843" lon="6.70222">
        <ele>2226.07</ele>
        <time>2017-08-29T14:35:52Z</time>
      </trkpt>
      <trkpt lat="45.72844" lon="6.70222">
        <ele>2226.07</ele>
        <time>2017-08-29T14:35:53Z</time>
      </trkpt>
      <trkpt lat="45.72845" lon="6.70222">
        <ele>2226.07</ele>
        <time>2017-08-29T14:35:54Z</time>
      </trkpt>
      <trkpt lat="45.72846" lon="6.70222">
        <ele>2226.07</ele>
        <time>2017-08-29T14:35:55Z</time>
      </trkpt>
      <trkpt lat="45.72847" lon="6.70223">
        <ele>2226.07</ele>
        <time>2017-08-29T14:35:56Z</time>
      </trkpt>
      <trkpt lat="45.72848" lon="6.70223">
        <ele>2226.07</ele>
        <time>2017-08-29T14:35:57Z</time>
      </trkpt>
      <trkpt lat="45.72854" lon="6.70227">
        <ele>2227.51</ele>
        <time>2017-08-29T14:36:06Z</time>
      </trkpt>
      <trkpt lat="45.72858" lon="6.70229">
        <ele>2227.99</ele>
        <time>2017-08-29T14:36:12Z</time>
      </trkpt>
      <trkpt lat="45.72859" lon="6.7023">
        <ele>2228.47</ele>
        <time>2017-08-29T14:36:13Z</time>
      </trkpt>
      <trkpt lat="45.72862" lon="6.70233">
        <ele>2229.43</ele>
        <time>2017-08-29T14:36:19Z</time>
      </trkpt>
      <trkpt lat="45.72863" lon="6.70233">
        <ele>2229.43</ele>
        <time>2017-08-29T14:36:20Z</time>
      </trkpt>
      <trkpt lat="45.72871" lon="6.70235">
        <ele>2231.84</ele>
        <time>2017-08-29T14:36:32Z</time>
      </trkpt>
      <trkpt lat="45.72886" lon="6.70244">
        <ele>2234.72</ele>
        <time>2017-08-29T14:36:51Z</time>
      </trkpt>
      <trkpt lat="45.72895" lon="6.70246">
        <ele>2237.61</ele>
        <time>2017-08-29T14:37:06Z</time>
      </trkpt>
      <trkpt lat="45.72896" lon="6.70246">
        <ele>2237.61</ele>
        <time>2017-08-29T14:37:07Z</time>
      </trkpt>
      <trkpt lat="45.729" lon="6.70246">
        <ele>2238.09</ele>
        <time>2017-08-29T14:37:11Z</time>
      </trkpt>
      <trkpt lat="45.72902" lon="6.70246">
        <ele>2239.53</ele>
        <time>2017-08-29T14:37:15Z</time>
      </trkpt>
      <trkpt lat="45.7291" lon="6.70248">
        <ele>2241.45</ele>
        <time>2017-08-29T14:37:26Z</time>
      </trkpt>
      <trkpt lat="45.72913" lon="6.70249">
        <ele>2242.41</ele>
        <time>2017-08-29T14:37:30Z</time>
      </trkpt>
      <trkpt lat="45.72921" lon="6.70251">
        <ele>2243.37</ele>
        <time>2017-08-29T14:37:40Z</time>
      </trkpt>
      <trkpt lat="45.72922" lon="6.70251">
        <ele>2243.85</ele>
        <time>2017-08-29T14:37:42Z</time>
      </trkpt>
      <trkpt lat="45.72923" lon="6.70251">
        <ele>2244.33</ele>
        <time>2017-08-29T14:37:43Z</time>
      </trkpt>
      <trkpt lat="45.72928" lon="6.70253">
        <ele>2245.3</ele>
        <time>2017-08-29T14:37:48Z</time>
      </trkpt>
      <trkpt lat="45.72929" lon="6.70253">
        <ele>2245.3</ele>
        <time>2017-08-29T14:37:49Z</time>
      </trkpt>
      <trkpt lat="45.7293" lon="6.70254">
        <ele>2245.78</ele>
        <time>2017-08-29T14:37:50Z</time>
      </trkpt>
      <trkpt lat="45.72945" lon="6.70257">
        <ele>2246.74</ele>
        <time>2017-08-29T14:38:04Z</time>
      </trkpt>
      <trkpt lat="45.72945" lon="6.70257">
        <ele>2246.74</ele>
        <time>2017-08-29T14:38:05Z</time>
      </trkpt>
      <trkpt lat="45.72947" lon="6.70258">
        <ele>2246.74</ele>
        <time>2017-08-29T14:38:06Z</time>
      </trkpt>
      <trkpt lat="45.72959" lon="6.70257">
        <ele>2248.18</ele>
        <time>2017-08-29T14:38:19Z</time>
      </trkpt>
      <trkpt lat="45.72967" lon="6.70261">
        <ele>2249.62</ele>
        <time>2017-08-29T14:38:28Z</time>
      </trkpt>
      <trkpt lat="45.72969" lon="6.70261">
        <ele>2250.1</ele>
        <time>2017-08-29T14:38:30Z</time>
      </trkpt>
      <trkpt lat="45.7297" lon="6.70261">
        <ele>2250.1</ele>
        <time>2017-08-29T14:38:31Z</time>
      </trkpt>
      <trkpt lat="45.72971" lon="6.70262">
        <ele>2250.1</ele>
        <time>2017-08-29T14:38:32Z</time>
      </trkpt>
      <trkpt lat="45.72972" lon="6.70262">
        <ele>2250.1</ele>
        <time>2017-08-29T14:38:33Z</time>
      </trkpt>
      <trkpt lat="45.72972" lon="6.70263">
        <ele>2250.58</ele>
        <time>2017-08-29T14:38:34Z</time>
      </trkpt>
      <trkpt lat="45.72974" lon="6.70264">
        <ele>2250.58</ele>
        <time>2017-08-29T14:38:36Z</time>
      </trkpt>
      <trkpt lat="45.72975" lon="6.70265">
        <ele>2251.06</ele>
        <time>2017-08-29T14:38:37Z</time>
      </trkpt>
      <trkpt lat="45.72977" lon="6.70265">
        <ele>2251.06</ele>
        <time>2017-08-29T14:38:39Z</time>
      </trkpt>
      <trkpt lat="45.72979" lon="6.70266">
        <ele>2251.06</ele>
        <time>2017-08-29T14:38:40Z</time>
      </trkpt>
      <trkpt lat="45.72988" lon="6.70266">
        <ele>2252.03</ele>
        <time>2017-08-29T14:38:49Z</time>
      </trkpt>
      <trkpt lat="45.72989" lon="6.70266">
        <ele>2252.03</ele>
        <time>2017-08-29T14:38:50Z</time>
      </trkpt>
      <trkpt lat="45.7299" lon="6.70266">
        <ele>2252.03</ele>
        <time>2017-08-29T14:38:51Z</time>
      </trkpt>
      <trkpt lat="45.72992" lon="6.70266">
        <ele>2252.03</ele>
        <time>2017-08-29T14:38:53Z</time>
      </trkpt>
      <trkpt lat="45.72993" lon="6.70267">
        <ele>2252.51</ele>
        <time>2017-08-29T14:38:55Z</time>
      </trkpt>
      <trkpt lat="45.72994" lon="6.70268">
        <ele>2252.51</ele>
        <time>2017-08-29T14:38:56Z</time>
      </trkpt>
      <trkpt lat="45.73007" lon="6.70288">
        <ele>2255.39</ele>
        <time>2017-08-29T14:39:14Z</time>
      </trkpt>
      <trkpt lat="45.7301" lon="6.70291">
        <ele>2255.87</ele>
        <time>2017-08-29T14:39:17Z</time>
      </trkpt>
      <trkpt lat="45.73011" lon="6.70291">
        <ele>2255.87</ele>
        <time>2017-08-29T14:39:18Z</time>
      </trkpt>
      <trkpt lat="45.73016" lon="6.70296">
        <ele>2257.31</ele>
        <time>2017-08-29T14:39:24Z</time>
      </trkpt>
      <trkpt lat="45.73017" lon="6.70296">
        <ele>2257.79</ele>
        <time>2017-08-29T14:39:25Z</time>
      </trkpt>
      <trkpt lat="45.7302" lon="6.70299">
        <ele>2257.79</ele>
        <time>2017-08-29T14:39:29Z</time>
      </trkpt>
      <trkpt lat="45.73022" lon="6.703">
        <ele>2258.27</ele>
        <time>2017-08-29T14:39:30Z</time>
      </trkpt>
      <trkpt lat="45.73023" lon="6.70301">
        <ele>2258.27</ele>
        <time>2017-08-29T14:39:31Z</time>
      </trkpt>
      <trkpt lat="45.73024" lon="6.70301">
        <ele>2258.27</ele>
        <time>2017-08-29T14:39:32Z</time>
      </trkpt>
      <trkpt lat="45.73025" lon="6.70302">
        <ele>2258.27</ele>
        <time>2017-08-29T14:39:33Z</time>
      </trkpt>
      <trkpt lat="45.73026" lon="6.70303">
        <ele>2258.27</ele>
        <time>2017-08-29T14:39:34Z</time>
      </trkpt>
      <trkpt lat="45.73027" lon="6.70304">
        <ele>2258.27</ele>
        <time>2017-08-29T14:39:35Z</time>
      </trkpt>
      <trkpt lat="45.73035" lon="6.70315">
        <ele>2258.75</ele>
        <time>2017-08-29T14:39:44Z</time>
      </trkpt>
      <trkpt lat="45.73036" lon="6.70316">
        <ele>2259.24</ele>
        <time>2017-08-29T14:39:45Z</time>
      </trkpt>
      <trkpt lat="45.7305" lon="6.70334">
        <ele>2262.12</ele>
        <time>2017-08-29T14:40:01Z</time>
      </trkpt>
      <trkpt lat="45.7305" lon="6.70335">
        <ele>2262.6</ele>
        <time>2017-08-29T14:40:02Z</time>
      </trkpt>
      <trkpt lat="45.73051" lon="6.70336">
        <ele>2262.6</ele>
        <time>2017-08-29T14:40:03Z</time>
      </trkpt>
      <trkpt lat="45.73052" lon="6.70337">
        <ele>2262.6</ele>
        <time>2017-08-29T14:40:04Z</time>
      </trkpt>
      <trkpt lat="45.73052" lon="6.70338">
        <ele>2262.6</ele>
        <time>2017-08-29T14:40:05Z</time>
      </trkpt>
      <trkpt lat="45.73053" lon="6.70338">
        <ele>2262.6</ele>
        <time>2017-08-29T14:40:06Z</time>
      </trkpt>
      <trkpt lat="45.73054" lon="6.70339">
        <ele>2263.08</ele>
        <time>2017-08-29T14:40:07Z</time>
      </trkpt>
      <trkpt lat="45.73056" lon="6.7034">
        <ele>2263.56</ele>
        <time>2017-08-29T14:40:09Z</time>
      </trkpt>
      <trkpt lat="45.73056" lon="6.70341">
        <ele>2263.56</ele>
        <time>2017-08-29T14:40:10Z</time>
      </trkpt>
      <trkpt lat="45.73063" lon="6.70346">
        <ele>2265.48</ele>
        <time>2017-08-29T14:40:19Z</time>
      </trkpt>
      <trkpt lat="45.73064" lon="6.70346">
        <ele>2265.48</ele>
        <time>2017-08-29T14:40:20Z</time>
      </trkpt>
      <trkpt lat="45.73077" lon="6.70365">
        <ele>2265.96</ele>
        <time>2017-08-29T14:40:35Z</time>
      </trkpt>
      <trkpt lat="45.73091" lon="6.70373">
        <ele>2266.45</ele>
        <time>2017-08-29T14:40:47Z</time>
      </trkpt>
      <trkpt lat="45.7309" lon="6.70373">
        <ele>2266.45</ele>
        <time>2017-08-29T14:40:53Z</time>
      </trkpt>
      <trkpt lat="45.7309" lon="6.70373">
        <ele>2265.96</ele>
        <time>2017-08-29T14:41:05Z</time>
      </trkpt>
      <trkpt lat="45.73089" lon="6.70373">
        <ele>2265.96</ele>
        <time>2017-08-29T14:41:09Z</time>
      </trkpt>
      <trkpt lat="45.73088" lon="6.70374">
        <ele>2265.96</ele>
        <time>2017-08-29T14:41:10Z</time>
      </trkpt>
      <trkpt lat="45.73087" lon="6.70374">
        <ele>2266.45</ele>
        <time>2017-08-29T14:41:16Z</time>
      </trkpt>
      <trkpt lat="45.73087" lon="6.70374">
        <ele>2265.96</ele>
        <time>2017-08-29T14:41:19Z</time>
      </trkpt>
      <trkpt lat="45.73086" lon="6.70374">
        <ele>2265.96</ele>
        <time>2017-08-29T14:41:22Z</time>
      </trkpt>
      <trkpt lat="45.73087" lon="6.70375">
        <ele>2265.96</ele>
        <time>2017-08-29T14:41:29Z</time>
      </trkpt>
      <trkpt lat="45.73088" lon="6.70374">
        <ele>2265.96</ele>
        <time>2017-08-29T14:41:33Z</time>
      </trkpt>
      <trkpt lat="45.73089" lon="6.70374">
        <ele>2265.96</ele>
        <time>2017-08-29T14:41:41Z</time>
      </trkpt>
      <trkpt lat="45.73091" lon="6.70375">
        <ele>2265.96</ele>
        <time>2017-08-29T14:41:50Z</time>
      </trkpt>
      <trkpt lat="45.7309" lon="6.70376">
        <ele>2265.48</ele>
        <time>2017-08-29T14:42:11Z</time>
      </trkpt>
      <trkpt lat="45.7309" lon="6.70375">
        <ele>2265.48</ele>
        <time>2017-08-29T14:42:16Z</time>
      </trkpt>
      <trkpt lat="45.73088" lon="6.70374">
        <ele>2265.48</ele>
        <time>2017-08-29T14:42:29Z</time>
      </trkpt>
      <trkpt lat="45.7309" lon="6.70375">
        <ele>2265.48</ele>
        <time>2017-08-29T14:42:40Z</time>
      </trkpt>
      <trkpt lat="45.7309" lon="6.70375">
        <ele>2265.48</ele>
        <time>2017-08-29T14:42:43Z</time>
      </trkpt>
      <trkpt lat="45.73089" lon="6.70375">
        <ele>2266.45</ele>
        <time>2017-08-29T14:42:55Z</time>
      </trkpt>
      <trkpt lat="45.73089" lon="6.70376">
        <ele>2266.45</ele>
        <time>2017-08-29T14:42:56Z</time>
      </trkpt>
      <trkpt lat="45.73089" lon="6.70375">
        <ele>2266.45</ele>
        <time>2017-08-29T14:43:00Z</time>
      </trkpt>
      <trkpt lat="45.73089" lon="6.70375">
        <ele>2265.96</ele>
        <time>2017-08-29T14:43:04Z</time>
      </trkpt>
      <trkpt lat="45.7309" lon="6.70374">
        <ele>2265.48</ele>
        <time>2017-08-29T14:43:10Z</time>
      </trkpt>
      <trkpt lat="45.73089" lon="6.70373">
        <ele>2265.48</ele>
        <time>2017-08-29T14:43:20Z</time>
      </trkpt>
      <trkpt lat="45.73093" lon="6.70375">
        <ele>2265.96</ele>
        <time>2017-08-29T14:43:35Z</time>
      </trkpt>
      <trkpt lat="45.73094" lon="6.70377">
        <ele>2265.96</ele>
        <time>2017-08-29T14:43:37Z</time>
      </trkpt>
      <trkpt lat="45.73095" lon="6.70378">
        <ele>2265.96</ele>
        <time>2017-08-29T14:43:38Z</time>
      </trkpt>
      <trkpt lat="45.73096" lon="6.70378">
        <ele>2265.96</ele>
        <time>2017-08-29T14:43:39Z</time>
      </trkpt>
      <trkpt lat="45.73106" lon="6.70386">
        <ele>2269.33</ele>
        <time>2017-08-29T14:43:56Z</time>
      </trkpt>
      <trkpt lat="45.73113" lon="6.70392">
        <ele>2269.81</ele>
        <time>2017-08-29T14:44:03Z</time>
      </trkpt>
      <trkpt lat="45.73117" lon="6.70395">
        <ele>2270.29</ele>
        <time>2017-08-29T14:44:07Z</time>
      </trkpt>
      <trkpt lat="45.73124" lon="6.70401">
        <ele>2270.29</ele>
        <time>2017-08-29T14:44:14Z</time>
      </trkpt>
      <trkpt lat="45.73134" lon="6.70408">
        <ele>2271.25</ele>
        <time>2017-08-29T14:44:23Z</time>
      </trkpt>
      <trkpt lat="45.73138" lon="6.70408">
        <ele>2272.21</ele>
        <time>2017-08-29T14:44:27Z</time>
      </trkpt>
      <trkpt lat="45.73139" lon="6.70409">
        <ele>2272.21</ele>
        <time>2017-08-29T14:44:28Z</time>
      </trkpt>
      <trkpt lat="45.7314" lon="6.70409">
        <ele>2272.69</ele>
        <time>2017-08-29T14:44:29Z</time>
      </trkpt>
      <trkpt lat="45.73148" lon="6.70415">
        <ele>2273.66</ele>
        <time>2017-08-29T14:44:37Z</time>
      </trkpt>
      <trkpt lat="45.73149" lon="6.70415">
        <ele>2274.14</ele>
        <time>2017-08-29T14:44:38Z</time>
      </trkpt>
      <trkpt lat="45.73153" lon="6.70418">
        <ele>2274.62</ele>
        <time>2017-08-29T14:44:43Z</time>
      </trkpt>
      <trkpt lat="45.73154" lon="6.70419">
        <ele>2275.1</ele>
        <time>2017-08-29T14:44:44Z</time>
      </trkpt>
      <trkpt lat="45.73158" lon="6.70426">
        <ele>2276.54</ele>
        <time>2017-08-29T14:44:51Z</time>
      </trkpt>
      <trkpt lat="45.73158" lon="6.70428">
        <ele>2276.54</ele>
        <time>2017-08-29T14:44:52Z</time>
      </trkpt>
      <trkpt lat="45.73159" lon="6.70429">
        <ele>2277.02</ele>
        <time>2017-08-29T14:44:53Z</time>
      </trkpt>
      <trkpt lat="45.7316" lon="6.7043">
        <ele>2276.54</ele>
        <time>2017-08-29T14:44:54Z</time>
      </trkpt>
      <trkpt lat="45.73161" lon="6.70431">
        <ele>2276.54</ele>
        <time>2017-08-29T14:44:55Z</time>
      </trkpt>
      <trkpt lat="45.73161" lon="6.70432">
        <ele>2277.02</ele>
        <time>2017-08-29T14:44:56Z</time>
      </trkpt>
      <trkpt lat="45.73162" lon="6.70433">
        <ele>2277.02</ele>
        <time>2017-08-29T14:44:57Z</time>
      </trkpt>
      <trkpt lat="45.73163" lon="6.70434">
        <ele>2277.02</ele>
        <time>2017-08-29T14:44:58Z</time>
      </trkpt>
      <trkpt lat="45.73164" lon="6.70435">
        <ele>2277.02</ele>
        <time>2017-08-29T14:44:59Z</time>
      </trkpt>
      <trkpt lat="45.73169" lon="6.70438">
        <ele>2277.5</ele>
        <time>2017-08-29T14:45:05Z</time>
      </trkpt>
      <trkpt lat="45.7317" lon="6.70439">
        <ele>2277.98</ele>
        <time>2017-08-29T14:45:06Z</time>
      </trkpt>
      <trkpt lat="45.73176" lon="6.70442">
        <ele>2279.42</ele>
        <time>2017-08-29T14:45:13Z</time>
      </trkpt>
      <trkpt lat="45.73177" lon="6.70442">
        <ele>2279.9</ele>
        <time>2017-08-29T14:45:15Z</time>
      </trkpt>
      <trkpt lat="45.73178" lon="6.70443">
        <ele>2280.38</ele>
        <time>2017-08-29T14:45:16Z</time>
      </trkpt>
      <trkpt lat="45.73185" lon="6.70444">
        <ele>2281.35</ele>
        <time>2017-08-29T14:45:23Z</time>
      </trkpt>
      <trkpt lat="45.73194" lon="6.7045">
        <ele>2283.27</ele>
        <time>2017-08-29T14:45:34Z</time>
      </trkpt>
      <trkpt lat="45.73195" lon="6.70451">
        <ele>2283.27</ele>
        <time>2017-08-29T14:45:35Z</time>
      </trkpt>
      <trkpt lat="45.73196" lon="6.70452">
        <ele>2283.75</ele>
        <time>2017-08-29T14:45:36Z</time>
      </trkpt>
      <trkpt lat="45.73197" lon="6.70453">
        <ele>2283.75</ele>
        <time>2017-08-29T14:45:37Z</time>
      </trkpt>
      <trkpt lat="45.73198" lon="6.70453">
        <ele>2284.23</ele>
        <time>2017-08-29T14:45:38Z</time>
      </trkpt>
      <trkpt lat="45.73199" lon="6.70454">
        <ele>2284.23</ele>
        <time>2017-08-29T14:45:39Z</time>
      </trkpt>
      <trkpt lat="45.73199" lon="6.70455">
        <ele>2284.23</ele>
        <time>2017-08-29T14:45:40Z</time>
      </trkpt>
      <trkpt lat="45.73205" lon="6.70459">
        <ele>2284.71</ele>
        <time>2017-08-29T14:45:46Z</time>
      </trkpt>
      <trkpt lat="45.73206" lon="6.7046">
        <ele>2285.19</ele>
        <time>2017-08-29T14:45:48Z</time>
      </trkpt>
      <trkpt lat="45.73217" lon="6.70467">
        <ele>2287.11</ele>
        <time>2017-08-29T14:45:59Z</time>
      </trkpt>
      <trkpt lat="45.73221" lon="6.70469">
        <ele>2288.56</ele>
        <time>2017-08-29T14:46:05Z</time>
      </trkpt>
      <trkpt lat="45.73225" lon="6.70469">
        <ele>2290</ele>
        <time>2017-08-29T14:46:10Z</time>
      </trkpt>
      <trkpt lat="45.73226" lon="6.7047">
        <ele>2290</ele>
        <time>2017-08-29T14:46:11Z</time>
      </trkpt>
      <trkpt lat="45.7323" lon="6.70471">
        <ele>2291.44</ele>
        <time>2017-08-29T14:46:17Z</time>
      </trkpt>
      <trkpt lat="45.73232" lon="6.70473">
        <ele>2291.92</ele>
        <time>2017-08-29T14:46:19Z</time>
      </trkpt>
      <trkpt lat="45.73233" lon="6.70473">
        <ele>2291.92</ele>
        <time>2017-08-29T14:46:20Z</time>
      </trkpt>
      <trkpt lat="45.73234" lon="6.70474">
        <ele>2292.4</ele>
        <time>2017-08-29T14:46:21Z</time>
      </trkpt>
      <trkpt lat="45.73235" lon="6.70474">
        <ele>2292.4</ele>
        <time>2017-08-29T14:46:22Z</time>
      </trkpt>
      <trkpt lat="45.73236" lon="6.70475">
        <ele>2292.4</ele>
        <time>2017-08-29T14:46:23Z</time>
      </trkpt>
      <trkpt lat="45.73242" lon="6.70478">
        <ele>2293.84</ele>
        <time>2017-08-29T14:46:31Z</time>
      </trkpt>
      <trkpt lat="45.73243" lon="6.70479">
        <ele>2293.84</ele>
        <time>2017-08-29T14:46:32Z</time>
      </trkpt>
      <trkpt lat="45.73259" lon="6.70485">
        <ele>2296.25</ele>
        <time>2017-08-29T14:46:49Z</time>
      </trkpt>
      <trkpt lat="45.73261" lon="6.70485">
        <ele>2296.73</ele>
        <time>2017-08-29T14:46:52Z</time>
      </trkpt>
      <trkpt lat="45.73263" lon="6.70486">
        <ele>2297.69</ele>
        <time>2017-08-29T14:46:55Z</time>
      </trkpt>
      <trkpt lat="45.73264" lon="6.70487">
        <ele>2297.69</ele>
        <time>2017-08-29T14:46:56Z</time>
      </trkpt>
      <trkpt lat="45.73265" lon="6.70488">
        <ele>2298.17</ele>
        <time>2017-08-29T14:46:57Z</time>
      </trkpt>
      <trkpt lat="45.73276" lon="6.70495">
        <ele>2299.61</ele>
        <time>2017-08-29T14:47:11Z</time>
      </trkpt>
      <trkpt lat="45.73277" lon="6.70495">
        <ele>2299.61</ele>
        <time>2017-08-29T14:47:12Z</time>
      </trkpt>
      <trkpt lat="45.73284" lon="6.705">
        <ele>2301.53</ele>
        <time>2017-08-29T14:47:22Z</time>
      </trkpt>
      <trkpt lat="45.73285" lon="6.70501">
        <ele>2302.01</ele>
        <time>2017-08-29T14:47:23Z</time>
      </trkpt>
      <trkpt lat="45.73286" lon="6.70502">
        <ele>2302.01</ele>
        <time>2017-08-29T14:47:24Z</time>
      </trkpt>
      <trkpt lat="45.73294" lon="6.70506">
        <ele>2302.98</ele>
        <time>2017-08-29T14:47:32Z</time>
      </trkpt>
      <trkpt lat="45.73295" lon="6.70508">
        <ele>2303.46</ele>
        <time>2017-08-29T14:47:33Z</time>
      </trkpt>
      <trkpt lat="45.73305" lon="6.70514">
        <ele>2304.9</ele>
        <time>2017-08-29T14:47:43Z</time>
      </trkpt>
      <trkpt lat="45.73309" lon="6.70521">
        <ele>2306.34</ele>
        <time>2017-08-29T14:47:50Z</time>
      </trkpt>
      <trkpt lat="45.73313" lon="6.70524">
        <ele>2307.78</ele>
        <time>2017-08-29T14:47:55Z</time>
      </trkpt>
      <trkpt lat="45.73314" lon="6.70524">
        <ele>2307.78</ele>
        <time>2017-08-29T14:47:56Z</time>
      </trkpt>
      <trkpt lat="45.73321" lon="6.70526">
        <ele>2309.7</ele>
        <time>2017-08-29T14:48:06Z</time>
      </trkpt>
      <trkpt lat="45.73322" lon="6.70527">
        <ele>2309.7</ele>
        <time>2017-08-29T14:48:07Z</time>
      </trkpt>
      <trkpt lat="45.73324" lon="6.70529">
        <ele>2310.19</ele>
        <time>2017-08-29T14:48:11Z</time>
      </trkpt>
      <trkpt lat="45.73325" lon="6.7053">
        <ele>2310.67</ele>
        <time>2017-08-29T14:48:12Z</time>
      </trkpt>
      <trkpt lat="45.73327" lon="6.70531">
        <ele>2311.15</ele>
        <time>2017-08-29T14:48:14Z</time>
      </trkpt>
      <trkpt lat="45.73328" lon="6.70531">
        <ele>2311.15</ele>
        <time>2017-08-29T14:48:15Z</time>
      </trkpt>
      <trkpt lat="45.7334" lon="6.70542">
        <ele>2314.03</ele>
        <time>2017-08-29T14:48:32Z</time>
      </trkpt>
      <trkpt lat="45.73352" lon="6.70546">
        <ele>2316.43</ele>
        <time>2017-08-29T14:48:46Z</time>
      </trkpt>
      <trkpt lat="45.73353" lon="6.70546">
        <ele>2316.91</ele>
        <time>2017-08-29T14:48:47Z</time>
      </trkpt>
      <trkpt lat="45.73355" lon="6.70545">
        <ele>2316.91</ele>
        <time>2017-08-29T14:48:49Z</time>
      </trkpt>
      <trkpt lat="45.73356" lon="6.70545">
        <ele>2317.4</ele>
        <time>2017-08-29T14:48:50Z</time>
      </trkpt>
      <trkpt lat="45.7336" lon="6.70546">
        <ele>2317.4</ele>
        <time>2017-08-29T14:48:54Z</time>
      </trkpt>
      <trkpt lat="45.73362" lon="6.70545">
        <ele>2317.88</ele>
        <time>2017-08-29T14:48:56Z</time>
      </trkpt>
      <trkpt lat="45.73363" lon="6.70546">
        <ele>2318.36</ele>
        <time>2017-08-29T14:48:57Z</time>
      </trkpt>
      <trkpt lat="45.73366" lon="6.70547">
        <ele>2318.36</ele>
        <time>2017-08-29T14:49:00Z</time>
      </trkpt>
      <trkpt lat="45.73367" lon="6.70547">
        <ele>2318.84</ele>
        <time>2017-08-29T14:49:01Z</time>
      </trkpt>
      <trkpt lat="45.73372" lon="6.7055">
        <ele>2319.8</ele>
        <time>2017-08-29T14:49:06Z</time>
      </trkpt>
      <trkpt lat="45.73379" lon="6.7056">
        <ele>2321.24</ele>
        <time>2017-08-29T14:49:17Z</time>
      </trkpt>
      <trkpt lat="45.73382" lon="6.70561">
        <ele>2321.72</ele>
        <time>2017-08-29T14:49:21Z</time>
      </trkpt>
      <trkpt lat="45.73383" lon="6.70562">
        <ele>2322.2</ele>
        <time>2017-08-29T14:49:22Z</time>
      </trkpt>
      <trkpt lat="45.73396" lon="6.70568">
        <ele>2325.09</ele>
        <time>2017-08-29T14:49:38Z</time>
      </trkpt>
      <trkpt lat="45.73402" lon="6.70571">
        <ele>2327.01</ele>
        <time>2017-08-29T14:49:48Z</time>
      </trkpt>
      <trkpt lat="45.73402" lon="6.70572">
        <ele>2327.01</ele>
        <time>2017-08-29T14:49:49Z</time>
      </trkpt>
      <trkpt lat="45.73405" lon="6.70573">
        <ele>2327.97</ele>
        <time>2017-08-29T14:49:55Z</time>
      </trkpt>
      <trkpt lat="45.73406" lon="6.70573">
        <ele>2328.45</ele>
        <time>2017-08-29T14:49:56Z</time>
      </trkpt>
      <trkpt lat="45.73408" lon="6.70574">
        <ele>2328.93</ele>
        <time>2017-08-29T14:49:59Z</time>
      </trkpt>
      <trkpt lat="45.73409" lon="6.70575">
        <ele>2328.93</ele>
        <time>2017-08-29T14:50:00Z</time>
      </trkpt>
      <trkpt lat="45.73417" lon="6.70587">
        <ele>2331.33</ele>
        <time>2017-08-29T14:50:16Z</time>
      </trkpt>
      <trkpt lat="45.73419" lon="6.70589">
        <ele>2331.81</ele>
        <time>2017-08-29T14:50:19Z</time>
      </trkpt>
      <trkpt lat="45.7342" lon="6.7059">
        <ele>2332.3</ele>
        <time>2017-08-29T14:50:21Z</time>
      </trkpt>
      <trkpt lat="45.73421" lon="6.70591">
        <ele>2332.3</ele>
        <time>2017-08-29T14:50:22Z</time>
      </trkpt>
      <trkpt lat="45.73423" lon="6.70594">
        <ele>2332.78</ele>
        <time>2017-08-29T14:50:26Z</time>
      </trkpt>
      <trkpt lat="45.7343" lon="6.70602">
        <ele>2336.14</ele>
        <time>2017-08-29T14:50:41Z</time>
      </trkpt>
      <trkpt lat="45.73438" lon="6.70611">
        <ele>2337.58</ele>
        <time>2017-08-29T14:50:52Z</time>
      </trkpt>
      <trkpt lat="45.73439" lon="6.70611">
        <ele>2337.58</ele>
        <time>2017-08-29T14:50:53Z</time>
      </trkpt>
      <trkpt lat="45.73439" lon="6.70612">
        <ele>2338.06</ele>
        <time>2017-08-29T14:50:54Z</time>
      </trkpt>
      <trkpt lat="45.7344" lon="6.70612">
        <ele>2338.06</ele>
        <time>2017-08-29T14:50:55Z</time>
      </trkpt>
      <trkpt lat="45.73441" lon="6.70613">
        <ele>2338.06</ele>
        <time>2017-08-29T14:50:56Z</time>
      </trkpt>
      <trkpt lat="45.73442" lon="6.70613">
        <ele>2338.54</ele>
        <time>2017-08-29T14:50:57Z</time>
      </trkpt>
      <trkpt lat="45.73444" lon="6.70616">
        <ele>2339.02</ele>
        <time>2017-08-29T14:51:00Z</time>
      </trkpt>
      <trkpt lat="45.73445" lon="6.70616">
        <ele>2339.02</ele>
        <time>2017-08-29T14:51:01Z</time>
      </trkpt>
      <trkpt lat="45.73446" lon="6.70617">
        <ele>2339.02</ele>
        <time>2017-08-29T14:51:02Z</time>
      </trkpt>
      <trkpt lat="45.73447" lon="6.70617">
        <ele>2339.02</ele>
        <time>2017-08-29T14:51:03Z</time>
      </trkpt>
      <trkpt lat="45.73448" lon="6.70618">
        <ele>2339.02</ele>
        <time>2017-08-29T14:51:04Z</time>
      </trkpt>
      <trkpt lat="45.73449" lon="6.70618">
        <ele>2339.51</ele>
        <time>2017-08-29T14:51:05Z</time>
      </trkpt>
      <trkpt lat="45.7345" lon="6.70618">
        <ele>2339.51</ele>
        <time>2017-08-29T14:51:06Z</time>
      </trkpt>
      <trkpt lat="45.73451" lon="6.70619">
        <ele>2339.99</ele>
        <time>2017-08-29T14:51:07Z</time>
      </trkpt>
      <trkpt lat="45.73454" lon="6.7062">
        <ele>2340.47</ele>
        <time>2017-08-29T14:51:11Z</time>
      </trkpt>
      <trkpt lat="45.73455" lon="6.7062">
        <ele>2340.47</ele>
        <time>2017-08-29T14:51:12Z</time>
      </trkpt>
      <trkpt lat="45.73468" lon="6.70625">
        <ele>2343.83</ele>
        <time>2017-08-29T14:51:29Z</time>
      </trkpt>
      <trkpt lat="45.73471" lon="6.70627">
        <ele>2344.79</ele>
        <time>2017-08-29T14:51:34Z</time>
      </trkpt>
      <trkpt lat="45.73471" lon="6.70628">
        <ele>2344.79</ele>
        <time>2017-08-29T14:51:35Z</time>
      </trkpt>
      <trkpt lat="45.73472" lon="6.70631">
        <ele>2345.27</ele>
        <time>2017-08-29T14:51:38Z</time>
      </trkpt>
      <trkpt lat="45.73478" lon="6.70637">
        <ele>2347.68</ele>
        <time>2017-08-29T14:51:49Z</time>
      </trkpt>
      <trkpt lat="45.73479" lon="6.70637">
        <ele>2348.16</ele>
        <time>2017-08-29T14:51:50Z</time>
      </trkpt>
      <trkpt lat="45.73486" lon="6.70644">
        <ele>2349.6</ele>
        <time>2017-08-29T14:52:00Z</time>
      </trkpt>
      <trkpt lat="45.73487" lon="6.70645">
        <ele>2349.6</ele>
        <time>2017-08-29T14:52:01Z</time>
      </trkpt>
      <trkpt lat="45.73487" lon="6.70646">
        <ele>2349.6</ele>
        <time>2017-08-29T14:52:02Z</time>
      </trkpt>
      <trkpt lat="45.73488" lon="6.70646">
        <ele>2349.6</ele>
        <time>2017-08-29T14:52:03Z</time>
      </trkpt>
      <trkpt lat="45.73494" lon="6.70651">
        <ele>2350.56</ele>
        <time>2017-08-29T14:52:10Z</time>
      </trkpt>
      <trkpt lat="45.73495" lon="6.70653">
        <ele>2350.56</ele>
        <time>2017-08-29T14:52:11Z</time>
      </trkpt>
      <trkpt lat="45.73495" lon="6.70654">
        <ele>2350.56</ele>
        <time>2017-08-29T14:52:12Z</time>
      </trkpt>
      <trkpt lat="45.73496" lon="6.70658">
        <ele>2351.04</ele>
        <time>2017-08-29T14:52:15Z</time>
      </trkpt>
      <trkpt lat="45.735" lon="6.7066">
        <ele>2351.52</ele>
        <time>2017-08-29T14:52:19Z</time>
      </trkpt>
      <trkpt lat="45.73501" lon="6.7066">
        <ele>2351.52</ele>
        <time>2017-08-29T14:52:20Z</time>
      </trkpt>
      <trkpt lat="45.7351" lon="6.70659">
        <ele>2352.48</ele>
        <time>2017-08-29T14:52:29Z</time>
      </trkpt>
      <trkpt lat="45.73513" lon="6.7066">
        <ele>2352.96</ele>
        <time>2017-08-29T14:52:37Z</time>
      </trkpt>
      <trkpt lat="45.73514" lon="6.7066">
        <ele>2351.52</ele>
        <time>2017-08-29T14:52:42Z</time>
      </trkpt>
      <trkpt lat="45.73517" lon="6.70663">
        <ele>2352</ele>
        <time>2017-08-29T14:52:47Z</time>
      </trkpt>
      <trkpt lat="45.73518" lon="6.70664">
        <ele>2352</ele>
        <time>2017-08-29T14:52:48Z</time>
      </trkpt>
      <trkpt lat="45.73519" lon="6.70664">
        <ele>2352</ele>
        <time>2017-08-29T14:52:49Z</time>
      </trkpt>
      <trkpt lat="45.7352" lon="6.70664">
        <ele>2352</ele>
        <time>2017-08-29T14:52:50Z</time>
      </trkpt>
      <trkpt lat="45.73522" lon="6.70665">
        <ele>2352</ele>
        <time>2017-08-29T14:52:51Z</time>
      </trkpt>
      <trkpt lat="45.73526" lon="6.7067">
        <ele>2351.04</ele>
        <time>2017-08-29T14:52:55Z</time>
      </trkpt>
      <trkpt lat="45.73528" lon="6.70672">
        <ele>2350.56</ele>
        <time>2017-08-29T14:52:58Z</time>
      </trkpt>
      <trkpt lat="45.73529" lon="6.70673">
        <ele>2350.56</ele>
        <time>2017-08-29T14:52:59Z</time>
      </trkpt>
      <trkpt lat="45.7353" lon="6.70673">
        <ele>2350.08</ele>
        <time>2017-08-29T14:53:00Z</time>
      </trkpt>
      <trkpt lat="45.73531" lon="6.70673">
        <ele>2350.08</ele>
        <time>2017-08-29T14:53:01Z</time>
      </trkpt>
      <trkpt lat="45.73531" lon="6.70674">
        <ele>2350.08</ele>
        <time>2017-08-29T14:53:02Z</time>
      </trkpt>
      <trkpt lat="45.73532" lon="6.70675">
        <ele>2349.6</ele>
        <time>2017-08-29T14:53:03Z</time>
      </trkpt>
      <trkpt lat="45.73533" lon="6.70675">
        <ele>2349.6</ele>
        <time>2017-08-29T14:53:04Z</time>
      </trkpt>
      <trkpt lat="45.73534" lon="6.70675">
        <ele>2349.6</ele>
        <time>2017-08-29T14:53:05Z</time>
      </trkpt>
      <trkpt lat="45.73536" lon="6.70675">
        <ele>2349.12</ele>
        <time>2017-08-29T14:53:09Z</time>
      </trkpt>
      <trkpt lat="45.73537" lon="6.70675">
        <ele>2349.12</ele>
        <time>2017-08-29T14:53:10Z</time>
      </trkpt>
      <trkpt lat="45.73538" lon="6.70676">
        <ele>2349.12</ele>
        <time>2017-08-29T14:53:11Z</time>
      </trkpt>
      <trkpt lat="45.73539" lon="6.70677">
        <ele>2348.64</ele>
        <time>2017-08-29T14:53:12Z</time>
      </trkpt>
      <trkpt lat="45.73543" lon="6.70679">
        <ele>2347.68</ele>
        <time>2017-08-29T14:53:18Z</time>
      </trkpt>
      <trkpt lat="45.73553" lon="6.70687">
        <ele>2344.31</ele>
        <time>2017-08-29T14:53:31Z</time>
      </trkpt>
      <trkpt lat="45.7356" lon="6.70694">
        <ele>2342.39</ele>
        <time>2017-08-29T14:53:38Z</time>
      </trkpt>
      <trkpt lat="45.73569" lon="6.70694">
        <ele>2339.99</ele>
        <time>2017-08-29T14:53:47Z</time>
      </trkpt>
      <trkpt lat="45.7357" lon="6.70694">
        <ele>2339.99</ele>
        <time>2017-08-29T14:53:48Z</time>
      </trkpt>
      <trkpt lat="45.73571" lon="6.70695">
        <ele>2339.51</ele>
        <time>2017-08-29T14:53:49Z</time>
      </trkpt>
      <trkpt lat="45.73577" lon="6.707">
        <ele>2338.06</ele>
        <time>2017-08-29T14:53:54Z</time>
      </trkpt>
      <trkpt lat="45.73577" lon="6.70702">
        <ele>2337.58</ele>
        <time>2017-08-29T14:53:56Z</time>
      </trkpt>
      <trkpt lat="45.73577" lon="6.70704">
        <ele>2337.1</ele>
        <time>2017-08-29T14:53:58Z</time>
      </trkpt>
      <trkpt lat="45.73578" lon="6.70705">
        <ele>2337.1</ele>
        <time>2017-08-29T14:53:59Z</time>
      </trkpt>
      <trkpt lat="45.73579" lon="6.70706">
        <ele>2336.62</ele>
        <time>2017-08-29T14:54:00Z</time>
      </trkpt>
      <trkpt lat="45.7358" lon="6.70707">
        <ele>2336.62</ele>
        <time>2017-08-29T14:54:01Z</time>
      </trkpt>
      <trkpt lat="45.73581" lon="6.70708">
        <ele>2336.14</ele>
        <time>2017-08-29T14:54:02Z</time>
      </trkpt>
      <trkpt lat="45.73581" lon="6.70709">
        <ele>2336.14</ele>
        <time>2017-08-29T14:54:03Z</time>
      </trkpt>
      <trkpt lat="45.73582" lon="6.70711">
        <ele>2335.66</ele>
        <time>2017-08-29T14:54:04Z</time>
      </trkpt>
      <trkpt lat="45.73583" lon="6.70713">
        <ele>2335.18</ele>
        <time>2017-08-29T14:54:05Z</time>
      </trkpt>
      <trkpt lat="45.73583" lon="6.70715">
        <ele>2334.7</ele>
        <time>2017-08-29T14:54:06Z</time>
      </trkpt>
      <trkpt lat="45.73583" lon="6.70717">
        <ele>2334.7</ele>
        <time>2017-08-29T14:54:07Z</time>
      </trkpt>
      <trkpt lat="45.73584" lon="6.70718">
        <ele>2334.22</ele>
        <time>2017-08-29T14:54:08Z</time>
      </trkpt>
      <trkpt lat="45.73585" lon="6.70718">
        <ele>2333.74</ele>
        <time>2017-08-29T14:54:09Z</time>
      </trkpt>
      <trkpt lat="45.73587" lon="6.70719">
        <ele>2333.26</ele>
        <time>2017-08-29T14:54:10Z</time>
      </trkpt>
      <trkpt lat="45.7359" lon="6.70721">
        <ele>2332.3</ele>
        <time>2017-08-29T14:54:14Z</time>
      </trkpt>
      <trkpt lat="45.73594" lon="6.70723">
        <ele>2331.81</ele>
        <time>2017-08-29T14:54:19Z</time>
      </trkpt>
      <trkpt lat="45.73598" lon="6.70731">
        <ele>2329.41</ele>
        <time>2017-08-29T14:54:26Z</time>
      </trkpt>
      <trkpt lat="45.73603" lon="6.70737">
        <ele>2327.97</ele>
        <time>2017-08-29T14:54:30Z</time>
      </trkpt>
      <trkpt lat="45.73607" lon="6.70742">
        <ele>2326.53</ele>
        <time>2017-08-29T14:54:34Z</time>
      </trkpt>
      <trkpt lat="45.73608" lon="6.70744">
        <ele>2326.05</ele>
        <time>2017-08-29T14:54:35Z</time>
      </trkpt>
      <trkpt lat="45.73609" lon="6.70745">
        <ele>2325.57</ele>
        <time>2017-08-29T14:54:36Z</time>
      </trkpt>
      <trkpt lat="45.73611" lon="6.70745">
        <ele>2325.09</ele>
        <time>2017-08-29T14:54:37Z</time>
      </trkpt>
      <trkpt lat="45.73612" lon="6.70746">
        <ele>2324.61</ele>
        <time>2017-08-29T14:54:38Z</time>
      </trkpt>
      <trkpt lat="45.73613" lon="6.70747">
        <ele>2324.61</ele>
        <time>2017-08-29T14:54:39Z</time>
      </trkpt>
      <trkpt lat="45.73615" lon="6.70747">
        <ele>2324.12</ele>
        <time>2017-08-29T14:54:40Z</time>
      </trkpt>
      <trkpt lat="45.73616" lon="6.70747">
        <ele>2323.64</ele>
        <time>2017-08-29T14:54:41Z</time>
      </trkpt>
      <trkpt lat="45.73617" lon="6.70747">
        <ele>2323.16</ele>
        <time>2017-08-29T14:54:42Z</time>
      </trkpt>
      <trkpt lat="45.73623" lon="6.70749">
        <ele>2322.2</ele>
        <time>2017-08-29T14:54:47Z</time>
      </trkpt>
      <trkpt lat="45.73625" lon="6.70749">
        <ele>2322.2</ele>
        <time>2017-08-29T14:54:48Z</time>
      </trkpt>
      <trkpt lat="45.73627" lon="6.7075">
        <ele>2320.76</ele>
        <time>2017-08-29T14:54:49Z</time>
      </trkpt>
      <trkpt lat="45.73628" lon="6.70751">
        <ele>2320.28</ele>
        <time>2017-08-29T14:54:50Z</time>
      </trkpt>
      <trkpt lat="45.73629" lon="6.70752">
        <ele>2318.84</ele>
        <time>2017-08-29T14:54:51Z</time>
      </trkpt>
      <trkpt lat="45.73631" lon="6.70752">
        <ele>2318.36</ele>
        <time>2017-08-29T14:54:52Z</time>
      </trkpt>
      <trkpt lat="45.73642" lon="6.70759">
        <ele>2316.43</ele>
        <time>2017-08-29T14:55:00Z</time>
      </trkpt>
      <trkpt lat="45.73644" lon="6.70759">
        <ele>2315.47</ele>
        <time>2017-08-29T14:55:01Z</time>
      </trkpt>
      <trkpt lat="45.73645" lon="6.70761">
        <ele>2314.99</ele>
        <time>2017-08-29T14:55:02Z</time>
      </trkpt>
      <trkpt lat="45.73646" lon="6.70762">
        <ele>2314.51</ele>
        <time>2017-08-29T14:55:03Z</time>
      </trkpt>
      <trkpt lat="45.73646" lon="6.70763">
        <ele>2314.03</ele>
        <time>2017-08-29T14:55:04Z</time>
      </trkpt>
      <trkpt lat="45.73647" lon="6.70765">
        <ele>2313.07</ele>
        <time>2017-08-29T14:55:05Z</time>
      </trkpt>
      <trkpt lat="45.73647" lon="6.70767">
        <ele>2312.59</ele>
        <time>2017-08-29T14:55:06Z</time>
      </trkpt>
      <trkpt lat="45.7365" lon="6.70768">
        <ele>2311.63</ele>
        <time>2017-08-29T14:55:08Z</time>
      </trkpt>
      <trkpt lat="45.73653" lon="6.70768">
        <ele>2310.19</ele>
        <time>2017-08-29T14:55:10Z</time>
      </trkpt>
      <trkpt lat="45.73654" lon="6.7077">
        <ele>2310.19</ele>
        <time>2017-08-29T14:55:11Z</time>
      </trkpt>
      <trkpt lat="45.73654" lon="6.70772">
        <ele>2310.19</ele>
        <time>2017-08-29T14:55:12Z</time>
      </trkpt>
      <trkpt lat="45.73655" lon="6.70773">
        <ele>2309.7</ele>
        <time>2017-08-29T14:55:13Z</time>
      </trkpt>
      <trkpt lat="45.73656" lon="6.70775">
        <ele>2309.22</ele>
        <time>2017-08-29T14:55:14Z</time>
      </trkpt>
      <trkpt lat="45.73657" lon="6.70776">
        <ele>2308.74</ele>
        <time>2017-08-29T14:55:15Z</time>
      </trkpt>
      <trkpt lat="45.73658" lon="6.70777">
        <ele>2307.78</ele>
        <time>2017-08-29T14:55:16Z</time>
      </trkpt>
      <trkpt lat="45.7366" lon="6.70778">
        <ele>2307.3</ele>
        <time>2017-08-29T14:55:17Z</time>
      </trkpt>
      <trkpt lat="45.73671" lon="6.70779">
        <ele>2304.42</ele>
        <time>2017-08-29T14:55:25Z</time>
      </trkpt>
      <trkpt lat="45.73673" lon="6.70777">
        <ele>2303.94</ele>
        <time>2017-08-29T14:55:26Z</time>
      </trkpt>
      <trkpt lat="45.73676" lon="6.70776">
        <ele>2303.46</ele>
        <time>2017-08-29T14:55:27Z</time>
      </trkpt>
      <trkpt lat="45.73678" lon="6.70776">
        <ele>2302.98</ele>
        <time>2017-08-29T14:55:28Z</time>
      </trkpt>
      <trkpt lat="45.7368" lon="6.70776">
        <ele>2302.49</ele>
        <time>2017-08-29T14:55:29Z</time>
      </trkpt>
      <trkpt lat="45.73682" lon="6.70776">
        <ele>2302.49</ele>
        <time>2017-08-29T14:55:30Z</time>
      </trkpt>
      <trkpt lat="45.73701" lon="6.70772">
        <ele>2301.05</ele>
        <time>2017-08-29T14:55:38Z</time>
      </trkpt>
      <trkpt lat="45.73721" lon="6.70767">
        <ele>2299.61</ele>
        <time>2017-08-29T14:55:46Z</time>
      </trkpt>
      <trkpt lat="45.73737" lon="6.70774">
        <ele>2296.73</ele>
        <time>2017-08-29T14:56:00Z</time>
      </trkpt>
      <trkpt lat="45.73738" lon="6.70775">
        <ele>2296.73</ele>
        <time>2017-08-29T14:56:01Z</time>
      </trkpt>
      <trkpt lat="45.73739" lon="6.70776">
        <ele>2296.73</ele>
        <time>2017-08-29T14:56:02Z</time>
      </trkpt>
      <trkpt lat="45.7374" lon="6.70776">
        <ele>2297.21</ele>
        <time>2017-08-29T14:56:03Z</time>
      </trkpt>
      <trkpt lat="45.73742" lon="6.70776">
        <ele>2296.73</ele>
        <time>2017-08-29T14:56:04Z</time>
      </trkpt>
      <trkpt lat="45.73742" lon="6.70776">
        <ele>2296.73</ele>
        <time>2017-08-29T14:56:05Z</time>
      </trkpt>
      <trkpt lat="45.73743" lon="6.70777">
        <ele>2296.25</ele>
        <time>2017-08-29T14:56:06Z</time>
      </trkpt>
      <trkpt lat="45.73748" lon="6.70779">
        <ele>2294.8</ele>
        <time>2017-08-29T14:56:11Z</time>
      </trkpt>
      <trkpt lat="45.73749" lon="6.7078">
        <ele>2294.32</ele>
        <time>2017-08-29T14:56:12Z</time>
      </trkpt>
      <trkpt lat="45.73749" lon="6.70781">
        <ele>2293.84</ele>
        <time>2017-08-29T14:56:13Z</time>
      </trkpt>
      <trkpt lat="45.7375" lon="6.70782">
        <ele>2293.36</ele>
        <time>2017-08-29T14:56:14Z</time>
      </trkpt>
      <trkpt lat="45.73756" lon="6.70787">
        <ele>2291.44</ele>
        <time>2017-08-29T14:56:23Z</time>
      </trkpt>
      <trkpt lat="45.73764" lon="6.70782">
        <ele>2289.04</ele>
        <time>2017-08-29T14:56:31Z</time>
      </trkpt>
      <trkpt lat="45.73765" lon="6.70781">
        <ele>2289.04</ele>
        <time>2017-08-29T14:56:32Z</time>
      </trkpt>
      <trkpt lat="45.73766" lon="6.70781">
        <ele>2288.56</ele>
        <time>2017-08-29T14:56:33Z</time>
      </trkpt>
      <trkpt lat="45.73771" lon="6.70784">
        <ele>2287.59</ele>
        <time>2017-08-29T14:56:37Z</time>
      </trkpt>
      <trkpt lat="45.73772" lon="6.70786">
        <ele>2287.59</ele>
        <time>2017-08-29T14:56:38Z</time>
      </trkpt>
      <trkpt lat="45.73772" lon="6.70787">
        <ele>2287.11</ele>
        <time>2017-08-29T14:56:39Z</time>
      </trkpt>
      <trkpt lat="45.73772" lon="6.70789">
        <ele>2286.63</ele>
        <time>2017-08-29T14:56:40Z</time>
      </trkpt>
      <trkpt lat="45.73772" lon="6.7079">
        <ele>2286.63</ele>
        <time>2017-08-29T14:56:41Z</time>
      </trkpt>
      <trkpt lat="45.73773" lon="6.70791">
        <ele>2286.63</ele>
        <time>2017-08-29T14:56:42Z</time>
      </trkpt>
      <trkpt lat="45.73774" lon="6.70794">
        <ele>2285.67</ele>
        <time>2017-08-29T14:56:45Z</time>
      </trkpt>
      <trkpt lat="45.73779" lon="6.70802">
        <ele>2283.27</ele>
        <time>2017-08-29T14:56:55Z</time>
      </trkpt>
      <trkpt lat="45.7378" lon="6.70803">
        <ele>2283.27</ele>
        <time>2017-08-29T14:56:56Z</time>
      </trkpt>
      <trkpt lat="45.73781" lon="6.70805">
        <ele>2282.79</ele>
        <time>2017-08-29T14:56:57Z</time>
      </trkpt>
      <trkpt lat="45.73785" lon="6.70812">
        <ele>2281.83</ele>
        <time>2017-08-29T14:57:02Z</time>
      </trkpt>
      <trkpt lat="45.7379" lon="6.70816">
        <ele>2280.87</ele>
        <time>2017-08-29T14:57:06Z</time>
      </trkpt>
      <trkpt lat="45.73791" lon="6.70817">
        <ele>2280.87</ele>
        <time>2017-08-29T14:57:07Z</time>
      </trkpt>
      <trkpt lat="45.73791" lon="6.70819">
        <ele>2280.87</ele>
        <time>2017-08-29T14:57:08Z</time>
      </trkpt>
      <trkpt lat="45.73791" lon="6.7082">
        <ele>2280.38</ele>
        <time>2017-08-29T14:57:09Z</time>
      </trkpt>
      <trkpt lat="45.73791" lon="6.70822">
        <ele>2280.38</ele>
        <time>2017-08-29T14:57:10Z</time>
      </trkpt>
      <trkpt lat="45.73791" lon="6.70824">
        <ele>2279.9</ele>
        <time>2017-08-29T14:57:11Z</time>
      </trkpt>
      <trkpt lat="45.73789" lon="6.70829">
        <ele>2279.42</ele>
        <time>2017-08-29T14:57:14Z</time>
      </trkpt>
      <trkpt lat="45.73788" lon="6.7083">
        <ele>2278.94</ele>
        <time>2017-08-29T14:57:15Z</time>
      </trkpt>
      <trkpt lat="45.73787" lon="6.70831">
        <ele>2278.94</ele>
        <time>2017-08-29T14:57:16Z</time>
      </trkpt>
      <trkpt lat="45.73785" lon="6.70832">
        <ele>2278.46</ele>
        <time>2017-08-29T14:57:17Z</time>
      </trkpt>
      <trkpt lat="45.73784" lon="6.70833">
        <ele>2277.98</ele>
        <time>2017-08-29T14:57:18Z</time>
      </trkpt>
      <trkpt lat="45.73783" lon="6.70834">
        <ele>2277.98</ele>
        <time>2017-08-29T14:57:19Z</time>
      </trkpt>
      <trkpt lat="45.7378" lon="6.7084">
        <ele>2276.06</ele>
        <time>2017-08-29T14:57:24Z</time>
      </trkpt>
      <trkpt lat="45.73779" lon="6.70841">
        <ele>2276.06</ele>
        <time>2017-08-29T14:57:25Z</time>
      </trkpt>
      <trkpt lat="45.73778" lon="6.70842">
        <ele>2275.58</ele>
        <time>2017-08-29T14:57:26Z</time>
      </trkpt>
      <trkpt lat="45.73777" lon="6.70842">
        <ele>2275.58</ele>
        <time>2017-08-29T14:57:27Z</time>
      </trkpt>
      <trkpt lat="45.73776" lon="6.70843">
        <ele>2275.58</ele>
        <time>2017-08-29T14:57:28Z</time>
      </trkpt>
      <trkpt lat="45.73775" lon="6.70844">
        <ele>2275.58</ele>
        <time>2017-08-29T14:57:29Z</time>
      </trkpt>
      <trkpt lat="45.73767" lon="6.70847">
        <ele>2273.66</ele>
        <time>2017-08-29T14:57:35Z</time>
      </trkpt>
      <trkpt lat="45.73765" lon="6.70848">
        <ele>2273.66</ele>
        <time>2017-08-29T14:57:36Z</time>
      </trkpt>
      <trkpt lat="45.73764" lon="6.7085">
        <ele>2273.17</ele>
        <time>2017-08-29T14:57:37Z</time>
      </trkpt>
      <trkpt lat="45.73763" lon="6.70851">
        <ele>2273.17</ele>
        <time>2017-08-29T14:57:38Z</time>
      </trkpt>
      <trkpt lat="45.73762" lon="6.70853">
        <ele>2272.69</ele>
        <time>2017-08-29T14:57:39Z</time>
      </trkpt>
      <trkpt lat="45.73754" lon="6.7087">
        <ele>2270.77</ele>
        <time>2017-08-29T14:57:49Z</time>
      </trkpt>
      <trkpt lat="45.73753" lon="6.70871">
        <ele>2270.77</ele>
        <time>2017-08-29T14:57:50Z</time>
      </trkpt>
      <trkpt lat="45.73752" lon="6.70871">
        <ele>2270.77</ele>
        <time>2017-08-29T14:57:51Z</time>
      </trkpt>
      <trkpt lat="45.7375" lon="6.70872">
        <ele>2270.77</ele>
        <time>2017-08-29T14:57:52Z</time>
      </trkpt>
      <trkpt lat="45.73749" lon="6.70873">
        <ele>2270.29</ele>
        <time>2017-08-29T14:57:53Z</time>
      </trkpt>
      <trkpt lat="45.73742" lon="6.70878">
        <ele>2268.85</ele>
        <time>2017-08-29T14:58:00Z</time>
      </trkpt>
      <trkpt lat="45.73742" lon="6.70879">
        <ele>2268.85</ele>
        <time>2017-08-29T14:58:01Z</time>
      </trkpt>
      <trkpt lat="45.73741" lon="6.7088">
        <ele>2268.37</ele>
        <time>2017-08-29T14:58:02Z</time>
      </trkpt>
      <trkpt lat="45.73742" lon="6.70881">
        <ele>2268.37</ele>
        <time>2017-08-29T14:58:03Z</time>
      </trkpt>
      <trkpt lat="45.73743" lon="6.70883">
        <ele>2268.37</ele>
        <time>2017-08-29T14:58:05Z</time>
      </trkpt>
      <trkpt lat="45.73744" lon="6.70883">
        <ele>2268.37</ele>
        <time>2017-08-29T14:58:06Z</time>
      </trkpt>
      <trkpt lat="45.73745" lon="6.70884">
        <ele>2267.89</ele>
        <time>2017-08-29T14:58:07Z</time>
      </trkpt>
      <trkpt lat="45.73746" lon="6.70885">
        <ele>2267.89</ele>
        <time>2017-08-29T14:58:08Z</time>
      </trkpt>
      <trkpt lat="45.73747" lon="6.70885">
        <ele>2267.41</ele>
        <time>2017-08-29T14:58:09Z</time>
      </trkpt>
      <trkpt lat="45.73748" lon="6.70886">
        <ele>2267.41</ele>
        <time>2017-08-29T14:58:10Z</time>
      </trkpt>
      <trkpt lat="45.73749" lon="6.70887">
        <ele>2266.93</ele>
        <time>2017-08-29T14:58:11Z</time>
      </trkpt>
      <trkpt lat="45.73751" lon="6.70887">
        <ele>2266.45</ele>
        <time>2017-08-29T14:58:12Z</time>
      </trkpt>
      <trkpt lat="45.73752" lon="6.70889">
        <ele>2266.45</ele>
        <time>2017-08-29T14:58:13Z</time>
      </trkpt>
      <trkpt lat="45.73752" lon="6.70889">
        <ele>2265.96</ele>
        <time>2017-08-29T14:58:14Z</time>
      </trkpt>
      <trkpt lat="45.73753" lon="6.7089">
        <ele>2265.48</ele>
        <time>2017-08-29T14:58:15Z</time>
      </trkpt>
      <trkpt lat="45.73755" lon="6.70892">
        <ele>2265</ele>
        <time>2017-08-29T14:58:16Z</time>
      </trkpt>
      <trkpt lat="45.73756" lon="6.70893">
        <ele>2265</ele>
        <time>2017-08-29T14:58:17Z</time>
      </trkpt>
      <trkpt lat="45.73768" lon="6.70907">
        <ele>2261.64</ele>
        <time>2017-08-29T14:58:29Z</time>
      </trkpt>
      <trkpt lat="45.7377" lon="6.70912">
        <ele>2260.68</ele>
        <time>2017-08-29T14:58:33Z</time>
      </trkpt>
      <trkpt lat="45.73775" lon="6.70918">
        <ele>2257.79</ele>
        <time>2017-08-29T14:58:40Z</time>
      </trkpt>
      <trkpt lat="45.73775" lon="6.70918">
        <ele>2257.79</ele>
        <time>2017-08-29T14:58:41Z</time>
      </trkpt>
      <trkpt lat="45.73776" lon="6.70919">
        <ele>2257.31</ele>
        <time>2017-08-29T14:58:42Z</time>
      </trkpt>
      <trkpt lat="45.73777" lon="6.7092">
        <ele>2256.83</ele>
        <time>2017-08-29T14:58:43Z</time>
      </trkpt>
      <trkpt lat="45.73777" lon="6.70921">
        <ele>2256.83</ele>
        <time>2017-08-29T14:58:44Z</time>
      </trkpt>
      <trkpt lat="45.73778" lon="6.70922">
        <ele>2256.35</ele>
        <time>2017-08-29T14:58:45Z</time>
      </trkpt>
      <trkpt lat="45.73779" lon="6.70923">
        <ele>2255.87</ele>
        <time>2017-08-29T14:58:46Z</time>
      </trkpt>
      <trkpt lat="45.73779" lon="6.70924">
        <ele>2255.39</ele>
        <time>2017-08-29T14:58:47Z</time>
      </trkpt>
      <trkpt lat="45.7378" lon="6.70926">
        <ele>2255.39</ele>
        <time>2017-08-29T14:58:48Z</time>
      </trkpt>
      <trkpt lat="45.73781" lon="6.70928">
        <ele>2254.43</ele>
        <time>2017-08-29T14:58:50Z</time>
      </trkpt>
      <trkpt lat="45.73782" lon="6.70929">
        <ele>2254.43</ele>
        <time>2017-08-29T14:58:51Z</time>
      </trkpt>
      <trkpt lat="45.73783" lon="6.70931">
        <ele>2254.43</ele>
        <time>2017-08-29T14:58:52Z</time>
      </trkpt>
      <trkpt lat="45.73783" lon="6.70934">
        <ele>2253.95</ele>
        <time>2017-08-29T14:58:53Z</time>
      </trkpt>
      <trkpt lat="45.73782" lon="6.70941">
        <ele>2252.51</ele>
        <time>2017-08-29T14:58:58Z</time>
      </trkpt>
      <trkpt lat="45.73783" lon="6.70943">
        <ele>2252.03</ele>
        <time>2017-08-29T14:59:00Z</time>
      </trkpt>
      <trkpt lat="45.73783" lon="6.70944">
        <ele>2252.03</ele>
        <time>2017-08-29T14:59:01Z</time>
      </trkpt>
      <trkpt lat="45.73784" lon="6.70944">
        <ele>2251.06</ele>
        <time>2017-08-29T14:59:03Z</time>
      </trkpt>
      <trkpt lat="45.73788" lon="6.70941">
        <ele>2249.62</ele>
        <time>2017-08-29T14:59:08Z</time>
      </trkpt>
      <trkpt lat="45.73789" lon="6.70943">
        <ele>2249.62</ele>
        <time>2017-08-29T14:59:09Z</time>
      </trkpt>
      <trkpt lat="45.73789" lon="6.70945">
        <ele>2249.14</ele>
        <time>2017-08-29T14:59:10Z</time>
      </trkpt>
      <trkpt lat="45.73788" lon="6.70947">
        <ele>2248.66</ele>
        <time>2017-08-29T14:59:11Z</time>
      </trkpt>
      <trkpt lat="45.73787" lon="6.70949">
        <ele>2248.66</ele>
        <time>2017-08-29T14:59:12Z</time>
      </trkpt>
      <trkpt lat="45.73787" lon="6.70951">
        <ele>2248.18</ele>
        <time>2017-08-29T14:59:14Z</time>
      </trkpt>
      <trkpt lat="45.7379" lon="6.70952">
        <ele>2246.26</ele>
        <time>2017-08-29T14:59:22Z</time>
      </trkpt>
      <trkpt lat="45.73793" lon="6.70953">
        <ele>2245.3</ele>
        <time>2017-08-29T14:59:25Z</time>
      </trkpt>
      <trkpt lat="45.73794" lon="6.70953">
        <ele>2244.82</ele>
        <time>2017-08-29T14:59:26Z</time>
      </trkpt>
      <trkpt lat="45.73794" lon="6.70954">
        <ele>2244.33</ele>
        <time>2017-08-29T14:59:27Z</time>
      </trkpt>
      <trkpt lat="45.738" lon="6.70964">
        <ele>2241.45</ele>
        <time>2017-08-29T14:59:37Z</time>
      </trkpt>
      <trkpt lat="45.73802" lon="6.70971">
        <ele>2238.57</ele>
        <time>2017-08-29T14:59:46Z</time>
      </trkpt>
      <trkpt lat="45.73805" lon="6.70971">
        <ele>2237.61</ele>
        <time>2017-08-29T14:59:48Z</time>
      </trkpt>
      <trkpt lat="45.73806" lon="6.70971">
        <ele>2237.61</ele>
        <time>2017-08-29T14:59:49Z</time>
      </trkpt>
      <trkpt lat="45.73808" lon="6.70971">
        <ele>2237.61</ele>
        <time>2017-08-29T14:59:50Z</time>
      </trkpt>
      <trkpt lat="45.73809" lon="6.70973">
        <ele>2237.61</ele>
        <time>2017-08-29T14:59:51Z</time>
      </trkpt>
      <trkpt lat="45.73811" lon="6.70975">
        <ele>2237.61</ele>
        <time>2017-08-29T14:59:52Z</time>
      </trkpt>
      <trkpt lat="45.73811" lon="6.70976">
        <ele>2237.13</ele>
        <time>2017-08-29T14:59:53Z</time>
      </trkpt>
      <trkpt lat="45.73812" lon="6.70978">
        <ele>2236.64</ele>
        <time>2017-08-29T14:59:54Z</time>
      </trkpt>
      <trkpt lat="45.73813" lon="6.7098">
        <ele>2236.16</ele>
        <time>2017-08-29T14:59:55Z</time>
      </trkpt>
      <trkpt lat="45.73815" lon="6.70982">
        <ele>2235.68</ele>
        <time>2017-08-29T14:59:58Z</time>
      </trkpt>
      <trkpt lat="45.73816" lon="6.70983">
        <ele>2235.68</ele>
        <time>2017-08-29T14:59:59Z</time>
      </trkpt>
      <trkpt lat="45.73816" lon="6.70984">
        <ele>2235.2</ele>
        <time>2017-08-29T15:00:00Z</time>
      </trkpt>
      <trkpt lat="45.73816" lon="6.70986">
        <ele>2235.2</ele>
        <time>2017-08-29T15:00:01Z</time>
      </trkpt>
      <trkpt lat="45.73815" lon="6.70988">
        <ele>2234.72</ele>
        <time>2017-08-29T15:00:02Z</time>
      </trkpt>
      <trkpt lat="45.73814" lon="6.70989">
        <ele>2234.72</ele>
        <time>2017-08-29T15:00:03Z</time>
      </trkpt>
      <trkpt lat="45.73813" lon="6.7099">
        <ele>2234.24</ele>
        <time>2017-08-29T15:00:04Z</time>
      </trkpt>
      <trkpt lat="45.73812" lon="6.7099">
        <ele>2233.76</ele>
        <time>2017-08-29T15:00:05Z</time>
      </trkpt>
      <trkpt lat="45.73811" lon="6.7099">
        <ele>2233.76</ele>
        <time>2017-08-29T15:00:06Z</time>
      </trkpt>
      <trkpt lat="45.73806" lon="6.70995">
        <ele>2231.84</ele>
        <time>2017-08-29T15:00:13Z</time>
      </trkpt>
      <trkpt lat="45.73808" lon="6.70996">
        <ele>2231.84</ele>
        <time>2017-08-29T15:00:15Z</time>
      </trkpt>
      <trkpt lat="45.73808" lon="6.70997">
        <ele>2231.36</ele>
        <time>2017-08-29T15:00:16Z</time>
      </trkpt>
      <trkpt lat="45.73812" lon="6.70998">
        <ele>2230.4</ele>
        <time>2017-08-29T15:00:20Z</time>
      </trkpt>
      <trkpt lat="45.73813" lon="6.71001">
        <ele>2229.92</ele>
        <time>2017-08-29T15:00:22Z</time>
      </trkpt>
      <trkpt lat="45.73814" lon="6.71002">
        <ele>2228.47</ele>
        <time>2017-08-29T15:00:28Z</time>
      </trkpt>
      <trkpt lat="45.73817" lon="6.71">
        <ele>2227.03</ele>
        <time>2017-08-29T15:00:34Z</time>
      </trkpt>
      <trkpt lat="45.73824" lon="6.70996">
        <ele>2225.11</ele>
        <time>2017-08-29T15:00:41Z</time>
      </trkpt>
      <trkpt lat="45.73825" lon="6.70995">
        <ele>2224.63</ele>
        <time>2017-08-29T15:00:42Z</time>
      </trkpt>
      <trkpt lat="45.73826" lon="6.70994">
        <ele>2224.63</ele>
        <time>2017-08-29T15:00:43Z</time>
      </trkpt>
      <trkpt lat="45.73827" lon="6.70994">
        <ele>2224.15</ele>
        <time>2017-08-29T15:00:44Z</time>
      </trkpt>
      <trkpt lat="45.73829" lon="6.70994">
        <ele>2224.15</ele>
        <time>2017-08-29T15:00:45Z</time>
      </trkpt>
      <trkpt lat="45.73832" lon="6.70997">
        <ele>2224.15</ele>
        <time>2017-08-29T15:00:48Z</time>
      </trkpt>
      <trkpt lat="45.73833" lon="6.70998">
        <ele>2224.15</ele>
        <time>2017-08-29T15:00:49Z</time>
      </trkpt>
      <trkpt lat="45.73833" lon="6.71">
        <ele>2224.15</ele>
        <time>2017-08-29T15:00:50Z</time>
      </trkpt>
      <trkpt lat="45.73834" lon="6.71001">
        <ele>2224.15</ele>
        <time>2017-08-29T15:00:51Z</time>
      </trkpt>
      <trkpt lat="45.73834" lon="6.71003">
        <ele>2224.15</ele>
        <time>2017-08-29T15:00:52Z</time>
      </trkpt>
      <trkpt lat="45.73835" lon="6.71004">
        <ele>2223.67</ele>
        <time>2017-08-29T15:00:53Z</time>
      </trkpt>
      <trkpt lat="45.73835" lon="6.71006">
        <ele>2223.67</ele>
        <time>2017-08-29T15:00:54Z</time>
      </trkpt>
      <trkpt lat="45.73835" lon="6.71008">
        <ele>2223.67</ele>
        <time>2017-08-29T15:00:55Z</time>
      </trkpt>
      <trkpt lat="45.73836" lon="6.7101">
        <ele>2223.19</ele>
        <time>2017-08-29T15:00:56Z</time>
      </trkpt>
      <trkpt lat="45.73837" lon="6.71011">
        <ele>2222.71</ele>
        <time>2017-08-29T15:00:57Z</time>
      </trkpt>
      <trkpt lat="45.73838" lon="6.71012">
        <ele>2222.71</ele>
        <time>2017-08-29T15:00:58Z</time>
      </trkpt>
      <trkpt lat="45.73839" lon="6.71013">
        <ele>2222.22</ele>
        <time>2017-08-29T15:00:59Z</time>
      </trkpt>
      <trkpt lat="45.7384" lon="6.71014">
        <ele>2222.22</ele>
        <time>2017-08-29T15:01:00Z</time>
      </trkpt>
      <trkpt lat="45.7384" lon="6.71015">
        <ele>2221.74</ele>
        <time>2017-08-29T15:01:01Z</time>
      </trkpt>
      <trkpt lat="45.73841" lon="6.71017">
        <ele>2221.26</ele>
        <time>2017-08-29T15:01:03Z</time>
      </trkpt>
      <trkpt lat="45.73842" lon="6.71018">
        <ele>2220.78</ele>
        <time>2017-08-29T15:01:04Z</time>
      </trkpt>
      <trkpt lat="45.73842" lon="6.7102">
        <ele>2220.3</ele>
        <time>2017-08-29T15:01:05Z</time>
      </trkpt>
      <trkpt lat="45.73846" lon="6.71033">
        <ele>2216.46</ele>
        <time>2017-08-29T15:01:13Z</time>
      </trkpt>
      <trkpt lat="45.73848" lon="6.71038">
        <ele>2215.01</ele>
        <time>2017-08-29T15:01:16Z</time>
      </trkpt>
      <trkpt lat="45.73849" lon="6.7104">
        <ele>2214.53</ele>
        <time>2017-08-29T15:01:17Z</time>
      </trkpt>
      <trkpt lat="45.73851" lon="6.71042">
        <ele>2214.05</ele>
        <time>2017-08-29T15:01:18Z</time>
      </trkpt>
      <trkpt lat="45.73851" lon="6.71044">
        <ele>2213.57</ele>
        <time>2017-08-29T15:01:19Z</time>
      </trkpt>
      <trkpt lat="45.73852" lon="6.71045">
        <ele>2213.57</ele>
        <time>2017-08-29T15:01:20Z</time>
      </trkpt>
      <trkpt lat="45.73853" lon="6.71046">
        <ele>2213.57</ele>
        <time>2017-08-29T15:01:21Z</time>
      </trkpt>
      <trkpt lat="45.73857" lon="6.71051">
        <ele>2212.61</ele>
        <time>2017-08-29T15:01:26Z</time>
      </trkpt>
      <trkpt lat="45.73857" lon="6.71052">
        <ele>2212.13</ele>
        <time>2017-08-29T15:01:27Z</time>
      </trkpt>
      <trkpt lat="45.73858" lon="6.71054">
        <ele>2211.65</ele>
        <time>2017-08-29T15:01:28Z</time>
      </trkpt>
      <trkpt lat="45.73858" lon="6.71055">
        <ele>2211.17</ele>
        <time>2017-08-29T15:01:29Z</time>
      </trkpt>
      <trkpt lat="45.73857" lon="6.71057">
        <ele>2211.17</ele>
        <time>2017-08-29T15:01:30Z</time>
      </trkpt>
      <trkpt lat="45.73858" lon="6.71058">
        <ele>2210.69</ele>
        <time>2017-08-29T15:01:31Z</time>
      </trkpt>
      <trkpt lat="45.73859" lon="6.71059">
        <ele>2210.69</ele>
        <time>2017-08-29T15:01:32Z</time>
      </trkpt>
      <trkpt lat="45.7386" lon="6.7106">
        <ele>2210.21</ele>
        <time>2017-08-29T15:01:33Z</time>
      </trkpt>
      <trkpt lat="45.73868" lon="6.71074">
        <ele>2207.32</ele>
        <time>2017-08-29T15:01:44Z</time>
      </trkpt>
      <trkpt lat="45.73869" lon="6.71078">
        <ele>2206.36</ele>
        <time>2017-08-29T15:01:47Z</time>
      </trkpt>
      <trkpt lat="45.73868" lon="6.71081">
        <ele>2205.4</ele>
        <time>2017-08-29T15:01:49Z</time>
      </trkpt>
      <trkpt lat="45.73868" lon="6.71082">
        <ele>2205.4</ele>
        <time>2017-08-29T15:01:50Z</time>
      </trkpt>
      <trkpt lat="45.73869" lon="6.71083">
        <ele>2205.4</ele>
        <time>2017-08-29T15:01:51Z</time>
      </trkpt>
      <trkpt lat="45.73872" lon="6.71085">
        <ele>2204.44</ele>
        <time>2017-08-29T15:01:54Z</time>
      </trkpt>
      <trkpt lat="45.73873" lon="6.71085">
        <ele>2203.96</ele>
        <time>2017-08-29T15:01:55Z</time>
      </trkpt>
      <trkpt lat="45.73873" lon="6.71087">
        <ele>2203.96</ele>
        <time>2017-08-29T15:01:56Z</time>
      </trkpt>
      <trkpt lat="45.73873" lon="6.71088">
        <ele>2203.48</ele>
        <time>2017-08-29T15:01:57Z</time>
      </trkpt>
      <trkpt lat="45.73875" lon="6.71092">
        <ele>2202.04</ele>
        <time>2017-08-29T15:02:01Z</time>
      </trkpt>
      <trkpt lat="45.73876" lon="6.71093">
        <ele>2202.04</ele>
        <time>2017-08-29T15:02:02Z</time>
      </trkpt>
      <trkpt lat="45.73881" lon="6.71099">
        <ele>2200.11</ele>
        <time>2017-08-29T15:02:09Z</time>
      </trkpt>
      <trkpt lat="45.73882" lon="6.711">
        <ele>2199.63</ele>
        <time>2017-08-29T15:02:10Z</time>
      </trkpt>
      <trkpt lat="45.73882" lon="6.71103">
        <ele>2199.15</ele>
        <time>2017-08-29T15:02:12Z</time>
      </trkpt>
      <trkpt lat="45.73882" lon="6.71105">
        <ele>2199.15</ele>
        <time>2017-08-29T15:02:13Z</time>
      </trkpt>
      <trkpt lat="45.73882" lon="6.71107">
        <ele>2198.67</ele>
        <time>2017-08-29T15:02:14Z</time>
      </trkpt>
      <trkpt lat="45.73883" lon="6.71108">
        <ele>2198.19</ele>
        <time>2017-08-29T15:02:15Z</time>
      </trkpt>
      <trkpt lat="45.73883" lon="6.71108">
        <ele>2198.19</ele>
        <time>2017-08-29T15:02:16Z</time>
      </trkpt>
      <trkpt lat="45.73884" lon="6.71109">
        <ele>2198.19</ele>
        <time>2017-08-29T15:02:17Z</time>
      </trkpt>
      <trkpt lat="45.73885" lon="6.71109">
        <ele>2197.71</ele>
        <time>2017-08-29T15:02:18Z</time>
      </trkpt>
      <trkpt lat="45.73886" lon="6.7111">
        <ele>2197.23</ele>
        <time>2017-08-29T15:02:19Z</time>
      </trkpt>
      <trkpt lat="45.73887" lon="6.71111">
        <ele>2197.23</ele>
        <time>2017-08-29T15:02:20Z</time>
      </trkpt>
      <trkpt lat="45.73889" lon="6.71116">
        <ele>2195.79</ele>
        <time>2017-08-29T15:02:26Z</time>
      </trkpt>
      <trkpt lat="45.73897" lon="6.71126">
        <ele>2192.9</ele>
        <time>2017-08-29T15:02:36Z</time>
      </trkpt>
      <trkpt lat="45.73898" lon="6.71126">
        <ele>2192.42</ele>
        <time>2017-08-29T15:02:37Z</time>
      </trkpt>
      <trkpt lat="45.73899" lon="6.71127">
        <ele>2192.42</ele>
        <time>2017-08-29T15:02:38Z</time>
      </trkpt>
      <trkpt lat="45.739" lon="6.71129">
        <ele>2192.42</ele>
        <time>2017-08-29T15:02:39Z</time>
      </trkpt>
      <trkpt lat="45.739" lon="6.7113">
        <ele>2191.94</ele>
        <time>2017-08-29T15:02:40Z</time>
      </trkpt>
      <trkpt lat="45.73901" lon="6.71132">
        <ele>2191.94</ele>
        <time>2017-08-29T15:02:41Z</time>
      </trkpt>
      <trkpt lat="45.73902" lon="6.71133">
        <ele>2191.46</ele>
        <time>2017-08-29T15:02:42Z</time>
      </trkpt>
      <trkpt lat="45.7391" lon="6.71143">
        <ele>2189.54</ele>
        <time>2017-08-29T15:02:50Z</time>
      </trkpt>
      <trkpt lat="45.7391" lon="6.71145">
        <ele>2189.06</ele>
        <time>2017-08-29T15:02:51Z</time>
      </trkpt>
      <trkpt lat="45.73911" lon="6.71147">
        <ele>2188.58</ele>
        <time>2017-08-29T15:02:53Z</time>
      </trkpt>
      <trkpt lat="45.73911" lon="6.71148">
        <ele>2188.58</ele>
        <time>2017-08-29T15:02:54Z</time>
      </trkpt>
      <trkpt lat="45.73912" lon="6.71151">
        <ele>2188.1</ele>
        <time>2017-08-29T15:02:56Z</time>
      </trkpt>
      <trkpt lat="45.73912" lon="6.71152">
        <ele>2187.62</ele>
        <time>2017-08-29T15:02:57Z</time>
      </trkpt>
      <trkpt lat="45.73913" lon="6.71154">
        <ele>2187.62</ele>
        <time>2017-08-29T15:02:58Z</time>
      </trkpt>
      <trkpt lat="45.73914" lon="6.71155">
        <ele>2187.14</ele>
        <time>2017-08-29T15:02:59Z</time>
      </trkpt>
      <trkpt lat="45.73915" lon="6.71156">
        <ele>2186.66</ele>
        <time>2017-08-29T15:03:00Z</time>
      </trkpt>
      <trkpt lat="45.73916" lon="6.71156">
        <ele>2186.66</ele>
        <time>2017-08-29T15:03:01Z</time>
      </trkpt>
      <trkpt lat="45.73916" lon="6.71159">
        <ele>2186.18</ele>
        <time>2017-08-29T15:03:03Z</time>
      </trkpt>
      <trkpt lat="45.73916" lon="6.71161">
        <ele>2186.18</ele>
        <time>2017-08-29T15:03:04Z</time>
      </trkpt>
      <trkpt lat="45.73916" lon="6.71162">
        <ele>2185.69</ele>
        <time>2017-08-29T15:03:05Z</time>
      </trkpt>
      <trkpt lat="45.73916" lon="6.71164">
        <ele>2185.21</ele>
        <time>2017-08-29T15:03:06Z</time>
      </trkpt>
      <trkpt lat="45.73917" lon="6.71165">
        <ele>2185.21</ele>
        <time>2017-08-29T15:03:07Z</time>
      </trkpt>
      <trkpt lat="45.73917" lon="6.71166">
        <ele>2184.73</ele>
        <time>2017-08-29T15:03:08Z</time>
      </trkpt>
      <trkpt lat="45.73918" lon="6.71168">
        <ele>2184.73</ele>
        <time>2017-08-29T15:03:09Z</time>
      </trkpt>
      <trkpt lat="45.73918" lon="6.71168">
        <ele>2184.25</ele>
        <time>2017-08-29T15:03:10Z</time>
      </trkpt>
      <trkpt lat="45.73919" lon="6.71169">
        <ele>2183.77</ele>
        <time>2017-08-29T15:03:11Z</time>
      </trkpt>
      <trkpt lat="45.7392" lon="6.7117">
        <ele>2183.77</ele>
        <time>2017-08-29T15:03:12Z</time>
      </trkpt>
      <trkpt lat="45.73919" lon="6.71173">
        <ele>2183.29</ele>
        <time>2017-08-29T15:03:14Z</time>
      </trkpt>
      <trkpt lat="45.73918" lon="6.71176">
        <ele>2182.33</ele>
        <time>2017-08-29T15:03:17Z</time>
      </trkpt>
      <trkpt lat="45.73919" lon="6.71177">
        <ele>2181.85</ele>
        <time>2017-08-29T15:03:18Z</time>
      </trkpt>
      <trkpt lat="45.7392" lon="6.71178">
        <ele>2181.37</ele>
        <time>2017-08-29T15:03:19Z</time>
      </trkpt>
      <trkpt lat="45.73922" lon="6.71178">
        <ele>2180.89</ele>
        <time>2017-08-29T15:03:22Z</time>
      </trkpt>
      <trkpt lat="45.73929" lon="6.71182">
        <ele>2178.97</ele>
        <time>2017-08-29T15:03:29Z</time>
      </trkpt>
      <trkpt lat="45.7393" lon="6.71182">
        <ele>2178.48</ele>
        <time>2017-08-29T15:03:31Z</time>
      </trkpt>
      <trkpt lat="45.73931" lon="6.71183">
        <ele>2178.48</ele>
        <time>2017-08-29T15:03:32Z</time>
      </trkpt>
      <trkpt lat="45.73932" lon="6.71184">
        <ele>2178</ele>
        <time>2017-08-29T15:03:33Z</time>
      </trkpt>
      <trkpt lat="45.73939" lon="6.71192">
        <ele>2175.12</ele>
        <time>2017-08-29T15:03:45Z</time>
      </trkpt>
      <trkpt lat="45.73948" lon="6.71201">
        <ele>2171.76</ele>
        <time>2017-08-29T15:03:59Z</time>
      </trkpt>
      <trkpt lat="45.73952" lon="6.71208">
        <ele>2169.83</ele>
        <time>2017-08-29T15:04:06Z</time>
      </trkpt>
      <trkpt lat="45.7395" lon="6.71211">
        <ele>2168.87</ele>
        <time>2017-08-29T15:04:09Z</time>
      </trkpt>
      <trkpt lat="45.73949" lon="6.71212">
        <ele>2168.39</ele>
        <time>2017-08-29T15:04:10Z</time>
      </trkpt>
      <trkpt lat="45.73948" lon="6.71213">
        <ele>2168.39</ele>
        <time>2017-08-29T15:04:11Z</time>
      </trkpt>
      <trkpt lat="45.73947" lon="6.71213">
        <ele>2168.39</ele>
        <time>2017-08-29T15:04:12Z</time>
      </trkpt>
      <trkpt lat="45.73946" lon="6.71214">
        <ele>2167.91</ele>
        <time>2017-08-29T15:04:13Z</time>
      </trkpt>
      <trkpt lat="45.73944" lon="6.71214">
        <ele>2167.91</ele>
        <time>2017-08-29T15:04:14Z</time>
      </trkpt>
      <trkpt lat="45.73943" lon="6.71215">
        <ele>2167.91</ele>
        <time>2017-08-29T15:04:15Z</time>
      </trkpt>
      <trkpt lat="45.73942" lon="6.71216">
        <ele>2167.43</ele>
        <time>2017-08-29T15:04:16Z</time>
      </trkpt>
      <trkpt lat="45.7394" lon="6.71222">
        <ele>2166.47</ele>
        <time>2017-08-29T15:04:22Z</time>
      </trkpt>
      <trkpt lat="45.73947" lon="6.71235">
        <ele>2163.58</ele>
        <time>2017-08-29T15:04:36Z</time>
      </trkpt>
      <trkpt lat="45.73952" lon="6.71237">
        <ele>2162.62</ele>
        <time>2017-08-29T15:04:41Z</time>
      </trkpt>
      <trkpt lat="45.73953" lon="6.71236">
        <ele>2162.14</ele>
        <time>2017-08-29T15:04:42Z</time>
      </trkpt>
      <trkpt lat="45.73961" lon="6.71238">
        <ele>2160.22</ele>
        <time>2017-08-29T15:04:51Z</time>
      </trkpt>
      <trkpt lat="45.73963" lon="6.71238">
        <ele>2160.22</ele>
        <time>2017-08-29T15:04:52Z</time>
      </trkpt>
      <trkpt lat="45.73968" lon="6.71239">
        <ele>2158.78</ele>
        <time>2017-08-29T15:04:58Z</time>
      </trkpt>
      <trkpt lat="45.73969" lon="6.7124">
        <ele>2158.78</ele>
        <time>2017-08-29T15:04:59Z</time>
      </trkpt>
      <trkpt lat="45.7397" lon="6.71241">
        <ele>2158.3</ele>
        <time>2017-08-29T15:05:00Z</time>
      </trkpt>
      <trkpt lat="45.73971" lon="6.71244">
        <ele>2157.82</ele>
        <time>2017-08-29T15:05:02Z</time>
      </trkpt>
      <trkpt lat="45.73972" lon="6.71245">
        <ele>2157.82</ele>
        <time>2017-08-29T15:05:03Z</time>
      </trkpt>
      <trkpt lat="45.73972" lon="6.71247">
        <ele>2157.34</ele>
        <time>2017-08-29T15:05:04Z</time>
      </trkpt>
      <trkpt lat="45.73973" lon="6.71249">
        <ele>2157.34</ele>
        <time>2017-08-29T15:05:05Z</time>
      </trkpt>
      <trkpt lat="45.73973" lon="6.7125">
        <ele>2156.86</ele>
        <time>2017-08-29T15:05:06Z</time>
      </trkpt>
      <trkpt lat="45.73974" lon="6.71251">
        <ele>2156.86</ele>
        <time>2017-08-29T15:05:07Z</time>
      </trkpt>
      <trkpt lat="45.73976" lon="6.71258">
        <ele>2155.89</ele>
        <time>2017-08-29T15:05:12Z</time>
      </trkpt>
      <trkpt lat="45.73976" lon="6.7126">
        <ele>2155.89</ele>
        <time>2017-08-29T15:05:13Z</time>
      </trkpt>
      <trkpt lat="45.73978" lon="6.71266">
        <ele>2155.41</ele>
        <time>2017-08-29T15:05:17Z</time>
      </trkpt>
      <trkpt lat="45.73979" lon="6.71266">
        <ele>2155.89</ele>
        <time>2017-08-29T15:05:18Z</time>
      </trkpt>
      <trkpt lat="45.7398" lon="6.71265">
        <ele>2155.41</ele>
        <time>2017-08-29T15:05:19Z</time>
      </trkpt>
      <trkpt lat="45.73982" lon="6.71265">
        <ele>2155.41</ele>
        <time>2017-08-29T15:05:20Z</time>
      </trkpt>
      <trkpt lat="45.73983" lon="6.71265">
        <ele>2155.41</ele>
        <time>2017-08-29T15:05:21Z</time>
      </trkpt>
      <trkpt lat="45.73984" lon="6.71265">
        <ele>2155.41</ele>
        <time>2017-08-29T15:05:22Z</time>
      </trkpt>
      <trkpt lat="45.73985" lon="6.71266">
        <ele>2154.93</ele>
        <time>2017-08-29T15:05:23Z</time>
      </trkpt>
      <trkpt lat="45.73986" lon="6.71267">
        <ele>2154.93</ele>
        <time>2017-08-29T15:05:24Z</time>
      </trkpt>
      <trkpt lat="45.73987" lon="6.71267">
        <ele>2154.93</ele>
        <time>2017-08-29T15:05:25Z</time>
      </trkpt>
      <trkpt lat="45.73988" lon="6.71268">
        <ele>2154.45</ele>
        <time>2017-08-29T15:05:26Z</time>
      </trkpt>
      <trkpt lat="45.73989" lon="6.71268">
        <ele>2153.97</ele>
        <time>2017-08-29T15:05:27Z</time>
      </trkpt>
      <trkpt lat="45.7399" lon="6.7127">
        <ele>2153.97</ele>
        <time>2017-08-29T15:05:28Z</time>
      </trkpt>
      <trkpt lat="45.73991" lon="6.71271">
        <ele>2153.97</ele>
        <time>2017-08-29T15:05:29Z</time>
      </trkpt>
      <trkpt lat="45.73991" lon="6.71275">
        <ele>2153.49</ele>
        <time>2017-08-29T15:05:31Z</time>
      </trkpt>
      <trkpt lat="45.73992" lon="6.71277">
        <ele>2153.01</ele>
        <time>2017-08-29T15:05:32Z</time>
      </trkpt>
      <trkpt lat="45.73992" lon="6.71278">
        <ele>2153.01</ele>
        <time>2017-08-29T15:05:33Z</time>
      </trkpt>
      <trkpt lat="45.73994" lon="6.71283">
        <ele>2153.01</ele>
        <time>2017-08-29T15:05:36Z</time>
      </trkpt>
      <trkpt lat="45.73994" lon="6.71285">
        <ele>2152.53</ele>
        <time>2017-08-29T15:05:38Z</time>
      </trkpt>
      <trkpt lat="45.73995" lon="6.71286">
        <ele>2152.53</ele>
        <time>2017-08-29T15:05:39Z</time>
      </trkpt>
      <trkpt lat="45.73996" lon="6.71287">
        <ele>2152.53</ele>
        <time>2017-08-29T15:05:40Z</time>
      </trkpt>
      <trkpt lat="45.74015" lon="6.71301">
        <ele>2150.61</ele>
        <time>2017-08-29T15:05:57Z</time>
      </trkpt>
      <trkpt lat="45.74022" lon="6.71303">
        <ele>2149.16</ele>
        <time>2017-08-29T15:06:02Z</time>
      </trkpt>
      <trkpt lat="45.7403" lon="6.71311">
        <ele>2147.72</ele>
        <time>2017-08-29T15:06:25Z</time>
      </trkpt>
      <trkpt lat="45.7403" lon="6.71311">
        <ele>2147.24</ele>
        <time>2017-08-29T15:06:31Z</time>
      </trkpt>
      <trkpt lat="45.7403" lon="6.7131">
        <ele>2147.24</ele>
        <time>2017-08-29T15:06:36Z</time>
      </trkpt>
      <trkpt lat="45.74028" lon="6.71315">
        <ele>2147.24</ele>
        <time>2017-08-29T15:07:00Z</time>
      </trkpt>
      <trkpt lat="45.74027" lon="6.71316">
        <ele>2147.72</ele>
        <time>2017-08-29T15:07:04Z</time>
      </trkpt>
      <trkpt lat="45.74027" lon="6.71316">
        <ele>2147.72</ele>
        <time>2017-08-29T15:07:10Z</time>
      </trkpt>
      <trkpt lat="45.74027" lon="6.7132">
        <ele>2147.24</ele>
        <time>2017-08-29T15:07:42Z</time>
      </trkpt>
      <trkpt lat="45.74027" lon="6.71321">
        <ele>2147.72</ele>
        <time>2017-08-29T15:07:48Z</time>
      </trkpt>
      <trkpt lat="45.74026" lon="6.71318">
        <ele>2147.24</ele>
        <time>2017-08-29T15:08:14Z</time>
      </trkpt>
      <trkpt lat="45.74027" lon="6.71317">
        <ele>2146.76</ele>
        <time>2017-08-29T15:08:21Z</time>
      </trkpt>
      <trkpt lat="45.7403" lon="6.71311">
        <ele>2147.72</ele>
        <time>2017-08-29T15:08:44Z</time>
      </trkpt>
      <trkpt lat="45.74031" lon="6.7131">
        <ele>2147.72</ele>
        <time>2017-08-29T15:08:52Z</time>
      </trkpt>
      <trkpt lat="45.74034" lon="6.71309">
        <ele>2147.72</ele>
        <time>2017-08-29T15:09:12Z</time>
      </trkpt>
      <trkpt lat="45.74036" lon="6.71307">
        <ele>2148.2</ele>
        <time>2017-08-29T15:09:20Z</time>
      </trkpt>
      <trkpt lat="45.74037" lon="6.71307">
        <ele>2148.2</ele>
        <time>2017-08-29T15:09:21Z</time>
      </trkpt>
      <trkpt lat="45.74037" lon="6.71307">
        <ele>2147.72</ele>
        <time>2017-08-29T15:09:22Z</time>
      </trkpt>
      <trkpt lat="45.74039" lon="6.71307">
        <ele>2147.72</ele>
        <time>2017-08-29T15:09:23Z</time>
      </trkpt>
      <trkpt lat="45.7404" lon="6.71307">
        <ele>2147.72</ele>
        <time>2017-08-29T15:09:24Z</time>
      </trkpt>
      <trkpt lat="45.74041" lon="6.71308">
        <ele>2147.72</ele>
        <time>2017-08-29T15:09:25Z</time>
      </trkpt>
      <trkpt lat="45.74045" lon="6.7131">
        <ele>2147.24</ele>
        <time>2017-08-29T15:09:28Z</time>
      </trkpt>
      <trkpt lat="45.74047" lon="6.71311">
        <ele>2147.24</ele>
        <time>2017-08-29T15:09:30Z</time>
      </trkpt>
      <trkpt lat="45.74052" lon="6.71312">
        <ele>2146.76</ele>
        <time>2017-08-29T15:09:36Z</time>
      </trkpt>
      <trkpt lat="45.74058" lon="6.7132">
        <ele>2145.32</ele>
        <time>2017-08-29T15:09:43Z</time>
      </trkpt>
      <trkpt lat="45.74058" lon="6.71321">
        <ele>2145.32</ele>
        <time>2017-08-29T15:09:44Z</time>
      </trkpt>
      <trkpt lat="45.74059" lon="6.71322">
        <ele>2144.84</ele>
        <time>2017-08-29T15:09:45Z</time>
      </trkpt>
      <trkpt lat="45.7406" lon="6.71324">
        <ele>2144.84</ele>
        <time>2017-08-29T15:09:46Z</time>
      </trkpt>
      <trkpt lat="45.7406" lon="6.71326">
        <ele>2144.84</ele>
        <time>2017-08-29T15:09:47Z</time>
      </trkpt>
      <trkpt lat="45.7406" lon="6.71328">
        <ele>2144.36</ele>
        <time>2017-08-29T15:09:48Z</time>
      </trkpt>
      <trkpt lat="45.74061" lon="6.71339">
        <ele>2143.88</ele>
        <time>2017-08-29T15:09:54Z</time>
      </trkpt>
      <trkpt lat="45.74065" lon="6.71353">
        <ele>2142.92</ele>
        <time>2017-08-29T15:10:02Z</time>
      </trkpt>
      <trkpt lat="45.74066" lon="6.71363">
        <ele>2142.92</ele>
        <time>2017-08-29T15:10:08Z</time>
      </trkpt>
      <trkpt lat="45.74068" lon="6.71363">
        <ele>2142.92</ele>
        <time>2017-08-29T15:10:09Z</time>
      </trkpt>
      <trkpt lat="45.7408" lon="6.71364">
        <ele>2141.47</ele>
        <time>2017-08-29T15:10:20Z</time>
      </trkpt>
      <trkpt lat="45.74081" lon="6.71365">
        <ele>2141.47</ele>
        <time>2017-08-29T15:10:21Z</time>
      </trkpt>
      <trkpt lat="45.74082" lon="6.71366">
        <ele>2140.99</ele>
        <time>2017-08-29T15:10:22Z</time>
      </trkpt>
      <trkpt lat="45.74083" lon="6.71366">
        <ele>2140.99</ele>
        <time>2017-08-29T15:10:23Z</time>
      </trkpt>
      <trkpt lat="45.74084" lon="6.71366">
        <ele>2140.51</ele>
        <time>2017-08-29T15:10:24Z</time>
      </trkpt>
      <trkpt lat="45.74086" lon="6.71367">
        <ele>2140.51</ele>
        <time>2017-08-29T15:10:25Z</time>
      </trkpt>
      <trkpt lat="45.74087" lon="6.71368">
        <ele>2140.51</ele>
        <time>2017-08-29T15:10:26Z</time>
      </trkpt>
      <trkpt lat="45.74089" lon="6.71369">
        <ele>2140.03</ele>
        <time>2017-08-29T15:10:27Z</time>
      </trkpt>
      <trkpt lat="45.7409" lon="6.7137">
        <ele>2140.03</ele>
        <time>2017-08-29T15:10:28Z</time>
      </trkpt>
      <trkpt lat="45.74091" lon="6.71371">
        <ele>2140.03</ele>
        <time>2017-08-29T15:10:29Z</time>
      </trkpt>
      <trkpt lat="45.74092" lon="6.71371">
        <ele>2139.55</ele>
        <time>2017-08-29T15:10:30Z</time>
      </trkpt>
      <trkpt lat="45.74093" lon="6.71372">
        <ele>2139.55</ele>
        <time>2017-08-29T15:10:31Z</time>
      </trkpt>
      <trkpt lat="45.74095" lon="6.71373">
        <ele>2139.07</ele>
        <time>2017-08-29T15:10:32Z</time>
      </trkpt>
      <trkpt lat="45.74105" lon="6.71375">
        <ele>2137.63</ele>
        <time>2017-08-29T15:10:40Z</time>
      </trkpt>
      <trkpt lat="45.74106" lon="6.71375">
        <ele>2137.63</ele>
        <time>2017-08-29T15:10:41Z</time>
      </trkpt>
      <trkpt lat="45.74107" lon="6.71375">
        <ele>2137.15</ele>
        <time>2017-08-29T15:10:42Z</time>
      </trkpt>
      <trkpt lat="45.74108" lon="6.71376">
        <ele>2136.19</ele>
        <time>2017-08-29T15:10:43Z</time>
      </trkpt>
      <trkpt lat="45.74109" lon="6.71375">
        <ele>2136.19</ele>
        <time>2017-08-29T15:10:44Z</time>
      </trkpt>
      <trkpt lat="45.7411" lon="6.71374">
        <ele>2136.19</ele>
        <time>2017-08-29T15:10:45Z</time>
      </trkpt>
      <trkpt lat="45.74113" lon="6.71373">
        <ele>2135.23</ele>
        <time>2017-08-29T15:10:48Z</time>
      </trkpt>
      <trkpt lat="45.74123" lon="6.71375">
        <ele>2132.82</ele>
        <time>2017-08-29T15:10:57Z</time>
      </trkpt>
      <trkpt lat="45.74125" lon="6.71377">
        <ele>2132.82</ele>
        <time>2017-08-29T15:10:58Z</time>
      </trkpt>
      <trkpt lat="45.74126" lon="6.71378">
        <ele>2131.86</ele>
        <time>2017-08-29T15:10:59Z</time>
      </trkpt>
      <trkpt lat="45.74138" lon="6.71385">
        <ele>2130.42</ele>
        <time>2017-08-29T15:11:08Z</time>
      </trkpt>
      <trkpt lat="45.7414" lon="6.71387">
        <ele>2129.94</ele>
        <time>2017-08-29T15:11:10Z</time>
      </trkpt>
      <trkpt lat="45.74142" lon="6.71389">
        <ele>2129.46</ele>
        <time>2017-08-29T15:11:11Z</time>
      </trkpt>
      <trkpt lat="45.74143" lon="6.7139">
        <ele>2128.98</ele>
        <time>2017-08-29T15:11:12Z</time>
      </trkpt>
      <trkpt lat="45.74145" lon="6.71391">
        <ele>2128.98</ele>
        <time>2017-08-29T15:11:13Z</time>
      </trkpt>
      <trkpt lat="45.74146" lon="6.71392">
        <ele>2128.5</ele>
        <time>2017-08-29T15:11:14Z</time>
      </trkpt>
      <trkpt lat="45.74155" lon="6.71396">
        <ele>2128.5</ele>
        <time>2017-08-29T15:11:20Z</time>
      </trkpt>
      <trkpt lat="45.74156" lon="6.71398">
        <ele>2128.5</ele>
        <time>2017-08-29T15:11:21Z</time>
      </trkpt>
      <trkpt lat="45.74157" lon="6.71399">
        <ele>2128.5</ele>
        <time>2017-08-29T15:11:22Z</time>
      </trkpt>
      <trkpt lat="45.74159" lon="6.71399">
        <ele>2128.02</ele>
        <time>2017-08-29T15:11:23Z</time>
      </trkpt>
      <trkpt lat="45.7416" lon="6.714">
        <ele>2128.02</ele>
        <time>2017-08-29T15:11:24Z</time>
      </trkpt>
      <trkpt lat="45.74161" lon="6.71401">
        <ele>2128.02</ele>
        <time>2017-08-29T15:11:25Z</time>
      </trkpt>
      <trkpt lat="45.74163" lon="6.71401">
        <ele>2128.02</ele>
        <time>2017-08-29T15:11:26Z</time>
      </trkpt>
      <trkpt lat="45.74164" lon="6.71402">
        <ele>2128.02</ele>
        <time>2017-08-29T15:11:27Z</time>
      </trkpt>
      <trkpt lat="45.74165" lon="6.71403">
        <ele>2128.02</ele>
        <time>2017-08-29T15:11:28Z</time>
      </trkpt>
      <trkpt lat="45.74166" lon="6.71404">
        <ele>2128.02</ele>
        <time>2017-08-29T15:11:29Z</time>
      </trkpt>
      <trkpt lat="45.74167" lon="6.71405">
        <ele>2128.02</ele>
        <time>2017-08-29T15:11:30Z</time>
      </trkpt>
      <trkpt lat="45.74174" lon="6.71415">
        <ele>2128.02</ele>
        <time>2017-08-29T15:11:36Z</time>
      </trkpt>
      <trkpt lat="45.74191" lon="6.71429">
        <ele>2126.57</ele>
        <time>2017-08-29T15:11:49Z</time>
      </trkpt>
      <trkpt lat="45.742" lon="6.71439">
        <ele>2125.61</ele>
        <time>2017-08-29T15:11:57Z</time>
      </trkpt>
      <trkpt lat="45.74201" lon="6.7144">
        <ele>2125.13</ele>
        <time>2017-08-29T15:11:58Z</time>
      </trkpt>
      <trkpt lat="45.74202" lon="6.71441">
        <ele>2125.13</ele>
        <time>2017-08-29T15:11:59Z</time>
      </trkpt>
      <trkpt lat="45.74203" lon="6.71443">
        <ele>2124.65</ele>
        <time>2017-08-29T15:12:00Z</time>
      </trkpt>
      <trkpt lat="45.74204" lon="6.71444">
        <ele>2124.65</ele>
        <time>2017-08-29T15:12:01Z</time>
      </trkpt>
      <trkpt lat="45.74205" lon="6.71445">
        <ele>2124.65</ele>
        <time>2017-08-29T15:12:02Z</time>
      </trkpt>
      <trkpt lat="45.74206" lon="6.71445">
        <ele>2124.65</ele>
        <time>2017-08-29T15:12:03Z</time>
      </trkpt>
      <trkpt lat="45.74207" lon="6.71445">
        <ele>2124.17</ele>
        <time>2017-08-29T15:12:04Z</time>
      </trkpt>
      <trkpt lat="45.74208" lon="6.71446">
        <ele>2124.17</ele>
        <time>2017-08-29T15:12:05Z</time>
      </trkpt>
      <trkpt lat="45.7421" lon="6.71447">
        <ele>2124.17</ele>
        <time>2017-08-29T15:12:06Z</time>
      </trkpt>
      <trkpt lat="45.74211" lon="6.71447">
        <ele>2124.17</ele>
        <time>2017-08-29T15:12:07Z</time>
      </trkpt>
      <trkpt lat="45.74229" lon="6.7146">
        <ele>2121.29</ele>
        <time>2017-08-29T15:12:22Z</time>
      </trkpt>
      <trkpt lat="45.74237" lon="6.71467">
        <ele>2120.32</ele>
        <time>2017-08-29T15:12:29Z</time>
      </trkpt>
      <trkpt lat="45.74244" lon="6.71474">
        <ele>2119.36</ele>
        <time>2017-08-29T15:12:34Z</time>
      </trkpt>
      <trkpt lat="45.74245" lon="6.71475">
        <ele>2119.36</ele>
        <time>2017-08-29T15:12:35Z</time>
      </trkpt>
      <trkpt lat="45.74246" lon="6.71476">
        <ele>2118.88</ele>
        <time>2017-08-29T15:12:36Z</time>
      </trkpt>
      <trkpt lat="45.74247" lon="6.71477">
        <ele>2118.88</ele>
        <time>2017-08-29T15:12:37Z</time>
      </trkpt>
      <trkpt lat="45.74249" lon="6.71478">
        <ele>2118.88</ele>
        <time>2017-08-29T15:12:38Z</time>
      </trkpt>
      <trkpt lat="45.7425" lon="6.71479">
        <ele>2118.4</ele>
        <time>2017-08-29T15:12:39Z</time>
      </trkpt>
      <trkpt lat="45.74251" lon="6.71479">
        <ele>2118.4</ele>
        <time>2017-08-29T15:12:40Z</time>
      </trkpt>
      <trkpt lat="45.74252" lon="6.71481">
        <ele>2118.4</ele>
        <time>2017-08-29T15:12:41Z</time>
      </trkpt>
      <trkpt lat="45.74254" lon="6.71483">
        <ele>2117.92</ele>
        <time>2017-08-29T15:12:42Z</time>
      </trkpt>
      <trkpt lat="45.74255" lon="6.71484">
        <ele>2117.92</ele>
        <time>2017-08-29T15:12:43Z</time>
      </trkpt>
      <trkpt lat="45.74256" lon="6.71485">
        <ele>2117.92</ele>
        <time>2017-08-29T15:12:44Z</time>
      </trkpt>
      <trkpt lat="45.74258" lon="6.71486">
        <ele>2117.44</ele>
        <time>2017-08-29T15:12:45Z</time>
      </trkpt>
      <trkpt lat="45.74259" lon="6.71487">
        <ele>2117.44</ele>
        <time>2017-08-29T15:12:46Z</time>
      </trkpt>
      <trkpt lat="45.74261" lon="6.71489">
        <ele>2116.96</ele>
        <time>2017-08-29T15:12:48Z</time>
      </trkpt>
      <trkpt lat="45.74274" lon="6.71509">
        <ele>2115.04</ele>
        <time>2017-08-29T15:13:01Z</time>
      </trkpt>
      <trkpt lat="45.74285" lon="6.71531">
        <ele>2113.6</ele>
        <time>2017-08-29T15:13:14Z</time>
      </trkpt>
      <trkpt lat="45.74294" lon="6.71533">
        <ele>2113.6</ele>
        <time>2017-08-29T15:13:21Z</time>
      </trkpt>
      <trkpt lat="45.74295" lon="6.71535">
        <ele>2113.6</ele>
        <time>2017-08-29T15:13:22Z</time>
      </trkpt>
      <trkpt lat="45.74296" lon="6.71536">
        <ele>2113.6</ele>
        <time>2017-08-29T15:13:23Z</time>
      </trkpt>
      <trkpt lat="45.74297" lon="6.71537">
        <ele>2113.6</ele>
        <time>2017-08-29T15:13:24Z</time>
      </trkpt>
      <trkpt lat="45.74299" lon="6.71539">
        <ele>2113.6</ele>
        <time>2017-08-29T15:13:25Z</time>
      </trkpt>
      <trkpt lat="45.743" lon="6.7154">
        <ele>2113.6</ele>
        <time>2017-08-29T15:13:26Z</time>
      </trkpt>
      <trkpt lat="45.74302" lon="6.71541">
        <ele>2113.6</ele>
        <time>2017-08-29T15:13:27Z</time>
      </trkpt>
      <trkpt lat="45.74303" lon="6.71541">
        <ele>2113.6</ele>
        <time>2017-08-29T15:13:28Z</time>
      </trkpt>
      <trkpt lat="45.74304" lon="6.71542">
        <ele>2113.6</ele>
        <time>2017-08-29T15:13:29Z</time>
      </trkpt>
      <trkpt lat="45.74306" lon="6.71543">
        <ele>2113.6</ele>
        <time>2017-08-29T15:13:30Z</time>
      </trkpt>
      <trkpt lat="45.74307" lon="6.71544">
        <ele>2113.12</ele>
        <time>2017-08-29T15:13:31Z</time>
      </trkpt>
      <trkpt lat="45.74308" lon="6.71544">
        <ele>2113.12</ele>
        <time>2017-08-29T15:13:32Z</time>
      </trkpt>
      <trkpt lat="45.74309" lon="6.71544">
        <ele>2113.12</ele>
        <time>2017-08-29T15:13:33Z</time>
      </trkpt>
      <trkpt lat="45.7431" lon="6.71545">
        <ele>2112.63</ele>
        <time>2017-08-29T15:13:34Z</time>
      </trkpt>
      <trkpt lat="45.74312" lon="6.71545">
        <ele>2112.63</ele>
        <time>2017-08-29T15:13:35Z</time>
      </trkpt>
      <trkpt lat="45.74317" lon="6.71548">
        <ele>2112.63</ele>
        <time>2017-08-29T15:13:39Z</time>
      </trkpt>
      <trkpt lat="45.74318" lon="6.71548">
        <ele>2112.15</ele>
        <time>2017-08-29T15:13:40Z</time>
      </trkpt>
      <trkpt lat="45.7432" lon="6.71549">
        <ele>2112.15</ele>
        <time>2017-08-29T15:13:41Z</time>
      </trkpt>
      <trkpt lat="45.74321" lon="6.71549">
        <ele>2112.15</ele>
        <time>2017-08-29T15:13:42Z</time>
      </trkpt>
      <trkpt lat="45.74322" lon="6.71549">
        <ele>2111.67</ele>
        <time>2017-08-29T15:13:43Z</time>
      </trkpt>
      <trkpt lat="45.74323" lon="6.7155">
        <ele>2111.67</ele>
        <time>2017-08-29T15:13:44Z</time>
      </trkpt>
      <trkpt lat="45.74324" lon="6.7155">
        <ele>2111.67</ele>
        <time>2017-08-29T15:13:45Z</time>
      </trkpt>
      <trkpt lat="45.74337" lon="6.7155">
        <ele>2110.71</ele>
        <time>2017-08-29T15:13:53Z</time>
      </trkpt>
      <trkpt lat="45.74339" lon="6.71551">
        <ele>2110.71</ele>
        <time>2017-08-29T15:13:54Z</time>
      </trkpt>
      <trkpt lat="45.7434" lon="6.7155">
        <ele>2110.71</ele>
        <time>2017-08-29T15:13:55Z</time>
      </trkpt>
      <trkpt lat="45.74342" lon="6.71551">
        <ele>2110.71</ele>
        <time>2017-08-29T15:13:56Z</time>
      </trkpt>
      <trkpt lat="45.74343" lon="6.71551">
        <ele>2110.71</ele>
        <time>2017-08-29T15:13:57Z</time>
      </trkpt>
      <trkpt lat="45.74345" lon="6.71551">
        <ele>2110.71</ele>
        <time>2017-08-29T15:13:58Z</time>
      </trkpt>
      <trkpt lat="45.74346" lon="6.71551">
        <ele>2110.71</ele>
        <time>2017-08-29T15:13:59Z</time>
      </trkpt>
      <trkpt lat="45.74348" lon="6.71551">
        <ele>2110.23</ele>
        <time>2017-08-29T15:14:00Z</time>
      </trkpt>
      <trkpt lat="45.74349" lon="6.71552">
        <ele>2110.23</ele>
        <time>2017-08-29T15:14:01Z</time>
      </trkpt>
      <trkpt lat="45.74364" lon="6.71554">
        <ele>2109.75</ele>
        <time>2017-08-29T15:14:12Z</time>
      </trkpt>
      <trkpt lat="45.74366" lon="6.71554">
        <ele>2109.75</ele>
        <time>2017-08-29T15:14:13Z</time>
      </trkpt>
      <trkpt lat="45.74367" lon="6.71555">
        <ele>2109.27</ele>
        <time>2017-08-29T15:14:14Z</time>
      </trkpt>
      <trkpt lat="45.74368" lon="6.71556">
        <ele>2109.27</ele>
        <time>2017-08-29T15:14:15Z</time>
      </trkpt>
      <trkpt lat="45.74369" lon="6.71556">
        <ele>2109.27</ele>
        <time>2017-08-29T15:14:16Z</time>
      </trkpt>
      <trkpt lat="45.7437" lon="6.71557">
        <ele>2109.27</ele>
        <time>2017-08-29T15:14:17Z</time>
      </trkpt>
      <trkpt lat="45.74385" lon="6.71564">
        <ele>2106.39</ele>
        <time>2017-08-29T15:14:31Z</time>
      </trkpt>
      <trkpt lat="45.74386" lon="6.71565">
        <ele>2106.39</ele>
        <time>2017-08-29T15:14:32Z</time>
      </trkpt>
      <trkpt lat="45.74387" lon="6.71566">
        <ele>2105.91</ele>
        <time>2017-08-29T15:14:33Z</time>
      </trkpt>
      <trkpt lat="45.74388" lon="6.71568">
        <ele>2105.91</ele>
        <time>2017-08-29T15:14:34Z</time>
      </trkpt>
      <trkpt lat="45.74389" lon="6.71569">
        <ele>2105.42</ele>
        <time>2017-08-29T15:14:35Z</time>
      </trkpt>
      <trkpt lat="45.7439" lon="6.7157">
        <ele>2105.42</ele>
        <time>2017-08-29T15:14:36Z</time>
      </trkpt>
      <trkpt lat="45.74391" lon="6.71569">
        <ele>2105.42</ele>
        <time>2017-08-29T15:14:37Z</time>
      </trkpt>
      <trkpt lat="45.74393" lon="6.71569">
        <ele>2104.94</ele>
        <time>2017-08-29T15:14:38Z</time>
      </trkpt>
      <trkpt lat="45.74407" lon="6.71581">
        <ele>2102.06</ele>
        <time>2017-08-29T15:14:51Z</time>
      </trkpt>
      <trkpt lat="45.74409" lon="6.71582">
        <ele>2102.06</ele>
        <time>2017-08-29T15:14:52Z</time>
      </trkpt>
      <trkpt lat="45.74423" lon="6.7159">
        <ele>2098.7</ele>
        <time>2017-08-29T15:15:05Z</time>
      </trkpt>
      <trkpt lat="45.74424" lon="6.7159">
        <ele>2098.7</ele>
        <time>2017-08-29T15:15:06Z</time>
      </trkpt>
      <trkpt lat="45.74425" lon="6.7159">
        <ele>2098.21</ele>
        <time>2017-08-29T15:15:07Z</time>
      </trkpt>
      <trkpt lat="45.74426" lon="6.71591">
        <ele>2098.21</ele>
        <time>2017-08-29T15:15:08Z</time>
      </trkpt>
      <trkpt lat="45.74427" lon="6.71591">
        <ele>2097.73</ele>
        <time>2017-08-29T15:15:09Z</time>
      </trkpt>
      <trkpt lat="45.74428" lon="6.71592">
        <ele>2097.25</ele>
        <time>2017-08-29T15:15:10Z</time>
      </trkpt>
      <trkpt lat="45.74429" lon="6.71593">
        <ele>2097.25</ele>
        <time>2017-08-29T15:15:11Z</time>
      </trkpt>
      <trkpt lat="45.7443" lon="6.71593">
        <ele>2096.77</ele>
        <time>2017-08-29T15:15:12Z</time>
      </trkpt>
      <trkpt lat="45.74431" lon="6.71593">
        <ele>2096.77</ele>
        <time>2017-08-29T15:15:13Z</time>
      </trkpt>
      <trkpt lat="45.74432" lon="6.71594">
        <ele>2096.29</ele>
        <time>2017-08-29T15:15:14Z</time>
      </trkpt>
      <trkpt lat="45.74434" lon="6.71594">
        <ele>2096.29</ele>
        <time>2017-08-29T15:15:15Z</time>
      </trkpt>
      <trkpt lat="45.74435" lon="6.71594">
        <ele>2095.81</ele>
        <time>2017-08-29T15:15:16Z</time>
      </trkpt>
      <trkpt lat="45.74449" lon="6.71593">
        <ele>2092.93</ele>
        <time>2017-08-29T15:15:27Z</time>
      </trkpt>
      <trkpt lat="45.74456" lon="6.71594">
        <ele>2091.49</ele>
        <time>2017-08-29T15:15:32Z</time>
      </trkpt>
      <trkpt lat="45.74457" lon="6.71593">
        <ele>2091.49</ele>
        <time>2017-08-29T15:15:33Z</time>
      </trkpt>
      <trkpt lat="45.74458" lon="6.71593">
        <ele>2091</ele>
        <time>2017-08-29T15:15:34Z</time>
      </trkpt>
      <trkpt lat="45.7446" lon="6.71593">
        <ele>2091</ele>
        <time>2017-08-29T15:15:35Z</time>
      </trkpt>
      <trkpt lat="45.74461" lon="6.71593">
        <ele>2090.52</ele>
        <time>2017-08-29T15:15:36Z</time>
      </trkpt>
      <trkpt lat="45.74475" lon="6.71602">
        <ele>2088.12</ele>
        <time>2017-08-29T15:15:48Z</time>
      </trkpt>
      <trkpt lat="45.7448" lon="6.71608">
        <ele>2086.68</ele>
        <time>2017-08-29T15:15:53Z</time>
      </trkpt>
      <trkpt lat="45.74485" lon="6.71618">
        <ele>2085.72</ele>
        <time>2017-08-29T15:15:59Z</time>
      </trkpt>
      <trkpt lat="45.74486" lon="6.71619">
        <ele>2085.24</ele>
        <time>2017-08-29T15:16:00Z</time>
      </trkpt>
      <trkpt lat="45.74487" lon="6.71621">
        <ele>2085.24</ele>
        <time>2017-08-29T15:16:01Z</time>
      </trkpt>
      <trkpt lat="45.74487" lon="6.71623">
        <ele>2084.76</ele>
        <time>2017-08-29T15:16:02Z</time>
      </trkpt>
      <trkpt lat="45.74488" lon="6.71624">
        <ele>2084.28</ele>
        <time>2017-08-29T15:16:03Z</time>
      </trkpt>
      <trkpt lat="45.74489" lon="6.71626">
        <ele>2083.79</ele>
        <time>2017-08-29T15:16:04Z</time>
      </trkpt>
      <trkpt lat="45.74492" lon="6.7163">
        <ele>2083.79</ele>
        <time>2017-08-29T15:16:07Z</time>
      </trkpt>
      <trkpt lat="45.74493" lon="6.71632">
        <ele>2083.79</ele>
        <time>2017-08-29T15:16:08Z</time>
      </trkpt>
      <trkpt lat="45.74493" lon="6.71634">
        <ele>2083.31</ele>
        <time>2017-08-29T15:16:09Z</time>
      </trkpt>
      <trkpt lat="45.74493" lon="6.7164">
        <ele>2082.83</ele>
        <time>2017-08-29T15:16:13Z</time>
      </trkpt>
      <trkpt lat="45.74494" lon="6.71648">
        <ele>2081.87</ele>
        <time>2017-08-29T15:16:17Z</time>
      </trkpt>
      <trkpt lat="45.74494" lon="6.71649">
        <ele>2081.87</ele>
        <time>2017-08-29T15:16:18Z</time>
      </trkpt>
      <trkpt lat="45.74495" lon="6.71649">
        <ele>2081.87</ele>
        <time>2017-08-29T15:16:19Z</time>
      </trkpt>
      <trkpt lat="45.74499" lon="6.7165">
        <ele>2080.43</ele>
        <time>2017-08-29T15:16:23Z</time>
      </trkpt>
      <trkpt lat="45.745" lon="6.71652">
        <ele>2080.43</ele>
        <time>2017-08-29T15:16:24Z</time>
      </trkpt>
      <trkpt lat="45.74501" lon="6.71653">
        <ele>2079.95</ele>
        <time>2017-08-29T15:16:25Z</time>
      </trkpt>
      <trkpt lat="45.74502" lon="6.71654">
        <ele>2079.95</ele>
        <time>2017-08-29T15:16:26Z</time>
      </trkpt>
      <trkpt lat="45.74503" lon="6.71655">
        <ele>2079.95</ele>
        <time>2017-08-29T15:16:27Z</time>
      </trkpt>
      <trkpt lat="45.74504" lon="6.71656">
        <ele>2079.95</ele>
        <time>2017-08-29T15:16:28Z</time>
      </trkpt>
      <trkpt lat="45.74505" lon="6.71657">
        <ele>2079.47</ele>
        <time>2017-08-29T15:16:29Z</time>
      </trkpt>
      <trkpt lat="45.74514" lon="6.71666">
        <ele>2076.1</ele>
        <time>2017-08-29T15:16:43Z</time>
      </trkpt>
      <trkpt lat="45.74517" lon="6.71666">
        <ele>2075.14</ele>
        <time>2017-08-29T15:16:45Z</time>
      </trkpt>
      <trkpt lat="45.74519" lon="6.71667">
        <ele>2074.66</ele>
        <time>2017-08-29T15:16:46Z</time>
      </trkpt>
      <trkpt lat="45.7452" lon="6.71668">
        <ele>2074.18</ele>
        <time>2017-08-29T15:16:47Z</time>
      </trkpt>
      <trkpt lat="45.74521" lon="6.71669">
        <ele>2073.7</ele>
        <time>2017-08-29T15:16:48Z</time>
      </trkpt>
      <trkpt lat="45.74522" lon="6.7167">
        <ele>2073.22</ele>
        <time>2017-08-29T15:16:49Z</time>
      </trkpt>
      <trkpt lat="45.74527" lon="6.71672">
        <ele>2071.3</ele>
        <time>2017-08-29T15:16:57Z</time>
      </trkpt>
      <trkpt lat="45.74528" lon="6.71671">
        <ele>2070.82</ele>
        <time>2017-08-29T15:16:58Z</time>
      </trkpt>
      <trkpt lat="45.74529" lon="6.71671">
        <ele>2070.34</ele>
        <time>2017-08-29T15:16:59Z</time>
      </trkpt>
      <trkpt lat="45.74529" lon="6.71672">
        <ele>2070.34</ele>
        <time>2017-08-29T15:17:00Z</time>
      </trkpt>
      <trkpt lat="45.7453" lon="6.71673">
        <ele>2069.86</ele>
        <time>2017-08-29T15:17:01Z</time>
      </trkpt>
      <trkpt lat="45.74532" lon="6.71678">
        <ele>2068.41</ele>
        <time>2017-08-29T15:17:05Z</time>
      </trkpt>
      <trkpt lat="45.74532" lon="6.7168">
        <ele>2068.41</ele>
        <time>2017-08-29T15:17:06Z</time>
      </trkpt>
      <trkpt lat="45.74532" lon="6.71682">
        <ele>2068.41</ele>
        <time>2017-08-29T15:17:07Z</time>
      </trkpt>
      <trkpt lat="45.74532" lon="6.71684">
        <ele>2068.41</ele>
        <time>2017-08-29T15:17:08Z</time>
      </trkpt>
      <trkpt lat="45.74532" lon="6.71685">
        <ele>2067.93</ele>
        <time>2017-08-29T15:17:09Z</time>
      </trkpt>
      <trkpt lat="45.74532" lon="6.71687">
        <ele>2067.45</ele>
        <time>2017-08-29T15:17:10Z</time>
      </trkpt>
      <trkpt lat="45.74532" lon="6.71688">
        <ele>2066.97</ele>
        <time>2017-08-29T15:17:11Z</time>
      </trkpt>
      <trkpt lat="45.74532" lon="6.71689">
        <ele>2066.97</ele>
        <time>2017-08-29T15:17:12Z</time>
      </trkpt>
      <trkpt lat="45.74532" lon="6.71691">
        <ele>2066.49</ele>
        <time>2017-08-29T15:17:13Z</time>
      </trkpt>
      <trkpt lat="45.74535" lon="6.71694">
        <ele>2065.53</ele>
        <time>2017-08-29T15:17:19Z</time>
      </trkpt>
      <trkpt lat="45.74536" lon="6.71696">
        <ele>2065.05</ele>
        <time>2017-08-29T15:17:20Z</time>
      </trkpt>
      <trkpt lat="45.74536" lon="6.71697">
        <ele>2064.57</ele>
        <time>2017-08-29T15:17:21Z</time>
      </trkpt>
      <trkpt lat="45.74536" lon="6.71698">
        <ele>2064.57</ele>
        <time>2017-08-29T15:17:22Z</time>
      </trkpt>
      <trkpt lat="45.74539" lon="6.71704">
        <ele>2063.13</ele>
        <time>2017-08-29T15:17:29Z</time>
      </trkpt>
      <trkpt lat="45.74543" lon="6.71704">
        <ele>2061.2</ele>
        <time>2017-08-29T15:17:34Z</time>
      </trkpt>
      <trkpt lat="45.74544" lon="6.71703">
        <ele>2061.2</ele>
        <time>2017-08-29T15:17:35Z</time>
      </trkpt>
      <trkpt lat="45.74544" lon="6.71701">
        <ele>2060.72</ele>
        <time>2017-08-29T15:17:36Z</time>
      </trkpt>
      <trkpt lat="45.74546" lon="6.717">
        <ele>2060.24</ele>
        <time>2017-08-29T15:17:38Z</time>
      </trkpt>
      <trkpt lat="45.74547" lon="6.717">
        <ele>2059.76</ele>
        <time>2017-08-29T15:17:39Z</time>
      </trkpt>
      <trkpt lat="45.74548" lon="6.71701">
        <ele>2059.76</ele>
        <time>2017-08-29T15:17:40Z</time>
      </trkpt>
      <trkpt lat="45.74549" lon="6.71701">
        <ele>2059.28</ele>
        <time>2017-08-29T15:17:41Z</time>
      </trkpt>
      <trkpt lat="45.74552" lon="6.717">
        <ele>2058.32</ele>
        <time>2017-08-29T15:17:47Z</time>
      </trkpt>
      <trkpt lat="45.74554" lon="6.71699">
        <ele>2057.84</ele>
        <time>2017-08-29T15:17:49Z</time>
      </trkpt>
      <trkpt lat="45.74555" lon="6.71701">
        <ele>2057.36</ele>
        <time>2017-08-29T15:17:50Z</time>
      </trkpt>
      <trkpt lat="45.74559" lon="6.71702">
        <ele>2055.44</ele>
        <time>2017-08-29T15:17:58Z</time>
      </trkpt>
      <trkpt lat="45.7456" lon="6.71703">
        <ele>2054.96</ele>
        <time>2017-08-29T15:17:59Z</time>
      </trkpt>
      <trkpt lat="45.74561" lon="6.71703">
        <ele>2054.47</ele>
        <time>2017-08-29T15:18:00Z</time>
      </trkpt>
      <trkpt lat="45.74562" lon="6.71703">
        <ele>2053.99</ele>
        <time>2017-08-29T15:18:01Z</time>
      </trkpt>
      <trkpt lat="45.74563" lon="6.71704">
        <ele>2053.99</ele>
        <time>2017-08-29T15:18:02Z</time>
      </trkpt>
      <trkpt lat="45.74563" lon="6.71704">
        <ele>2053.51</ele>
        <time>2017-08-29T15:18:03Z</time>
      </trkpt>
      <trkpt lat="45.74573" lon="6.71709">
        <ele>2050.63</ele>
        <time>2017-08-29T15:18:15Z</time>
      </trkpt>
      <trkpt lat="45.74578" lon="6.71709">
        <ele>2048.71</ele>
        <time>2017-08-29T15:18:21Z</time>
      </trkpt>
      <trkpt lat="45.74579" lon="6.7171">
        <ele>2048.23</ele>
        <time>2017-08-29T15:18:22Z</time>
      </trkpt>
      <trkpt lat="45.74579" lon="6.7171">
        <ele>2048.23</ele>
        <time>2017-08-29T15:18:23Z</time>
      </trkpt>
      <trkpt lat="45.74587" lon="6.71714">
        <ele>2045.82</ele>
        <time>2017-08-29T15:18:31Z</time>
      </trkpt>
      <trkpt lat="45.74594" lon="6.7172">
        <ele>2042.46</ele>
        <time>2017-08-29T15:18:40Z</time>
      </trkpt>
      <trkpt lat="45.74603" lon="6.71729">
        <ele>2039.57</ele>
        <time>2017-08-29T15:18:51Z</time>
      </trkpt>
      <trkpt lat="45.74604" lon="6.7173">
        <ele>2039.57</ele>
        <time>2017-08-29T15:18:52Z</time>
      </trkpt>
      <trkpt lat="45.74607" lon="6.71732">
        <ele>2039.09</ele>
        <time>2017-08-29T15:18:54Z</time>
      </trkpt>
      <trkpt lat="45.74608" lon="6.71733">
        <ele>2038.61</ele>
        <time>2017-08-29T15:18:55Z</time>
      </trkpt>
      <trkpt lat="45.74608" lon="6.71734">
        <ele>2038.13</ele>
        <time>2017-08-29T15:18:56Z</time>
      </trkpt>
      <trkpt lat="45.74609" lon="6.71735">
        <ele>2038.13</ele>
        <time>2017-08-29T15:18:57Z</time>
      </trkpt>
      <trkpt lat="45.7461" lon="6.71736">
        <ele>2037.65</ele>
        <time>2017-08-29T15:18:58Z</time>
      </trkpt>
      <trkpt lat="45.74615" lon="6.71744">
        <ele>2035.25</ele>
        <time>2017-08-29T15:19:05Z</time>
      </trkpt>
      <trkpt lat="45.74619" lon="6.7175">
        <ele>2033.33</ele>
        <time>2017-08-29T15:19:12Z</time>
      </trkpt>
      <trkpt lat="45.7462" lon="6.71751">
        <ele>2032.84</ele>
        <time>2017-08-29T15:19:13Z</time>
      </trkpt>
      <trkpt lat="45.7462" lon="6.71752">
        <ele>2032.36</ele>
        <time>2017-08-29T15:19:14Z</time>
      </trkpt>
      <trkpt lat="45.74621" lon="6.71753">
        <ele>2032.36</ele>
        <time>2017-08-29T15:19:15Z</time>
      </trkpt>
      <trkpt lat="45.74621" lon="6.71755">
        <ele>2031.88</ele>
        <time>2017-08-29T15:19:16Z</time>
      </trkpt>
      <trkpt lat="45.7463" lon="6.71762">
        <ele>2029</ele>
        <time>2017-08-29T15:19:25Z</time>
      </trkpt>
      <trkpt lat="45.74643" lon="6.71776">
        <ele>2026.12</ele>
        <time>2017-08-29T15:19:37Z</time>
      </trkpt>
      <trkpt lat="45.74648" lon="6.71785">
        <ele>2025.64</ele>
        <time>2017-08-29T15:19:43Z</time>
      </trkpt>
      <trkpt lat="45.74651" lon="6.71786">
        <ele>2025.64</ele>
        <time>2017-08-29T15:19:46Z</time>
      </trkpt>
      <trkpt lat="45.74652" lon="6.71788">
        <ele>2025.64</ele>
        <time>2017-08-29T15:19:47Z</time>
      </trkpt>
      <trkpt lat="45.74653" lon="6.71789">
        <ele>2025.15</ele>
        <time>2017-08-29T15:19:48Z</time>
      </trkpt>
      <trkpt lat="45.74654" lon="6.7179">
        <ele>2025.15</ele>
        <time>2017-08-29T15:19:49Z</time>
      </trkpt>
      <trkpt lat="45.74655" lon="6.71791">
        <ele>2024.67</ele>
        <time>2017-08-29T15:19:50Z</time>
      </trkpt>
      <trkpt lat="45.74656" lon="6.71791">
        <ele>2024.19</ele>
        <time>2017-08-29T15:19:51Z</time>
      </trkpt>
      <trkpt lat="45.74657" lon="6.71792">
        <ele>2024.19</ele>
        <time>2017-08-29T15:19:52Z</time>
      </trkpt>
      <trkpt lat="45.74658" lon="6.71793">
        <ele>2024.19</ele>
        <time>2017-08-29T15:19:53Z</time>
      </trkpt>
      <trkpt lat="45.74659" lon="6.71794">
        <ele>2023.71</ele>
        <time>2017-08-29T15:19:54Z</time>
      </trkpt>
      <trkpt lat="45.7466" lon="6.71795">
        <ele>2023.23</ele>
        <time>2017-08-29T15:19:55Z</time>
      </trkpt>
      <trkpt lat="45.74661" lon="6.71797">
        <ele>2023.23</ele>
        <time>2017-08-29T15:19:56Z</time>
      </trkpt>
      <trkpt lat="45.74663" lon="6.71798">
        <ele>2023.23</ele>
        <time>2017-08-29T15:19:57Z</time>
      </trkpt>
      <trkpt lat="45.74664" lon="6.718">
        <ele>2022.75</ele>
        <time>2017-08-29T15:19:58Z</time>
      </trkpt>
      <trkpt lat="45.74665" lon="6.71802">
        <ele>2022.75</ele>
        <time>2017-08-29T15:19:59Z</time>
      </trkpt>
      <trkpt lat="45.74665" lon="6.71804">
        <ele>2022.27</ele>
        <time>2017-08-29T15:20:00Z</time>
      </trkpt>
      <trkpt lat="45.74665" lon="6.71806">
        <ele>2022.27</ele>
        <time>2017-08-29T15:20:01Z</time>
      </trkpt>
      <trkpt lat="45.74665" lon="6.71808">
        <ele>2021.79</ele>
        <time>2017-08-29T15:20:02Z</time>
      </trkpt>
      <trkpt lat="45.74666" lon="6.71811">
        <ele>2021.79</ele>
        <time>2017-08-29T15:20:04Z</time>
      </trkpt>
      <trkpt lat="45.74667" lon="6.71813">
        <ele>2021.79</ele>
        <time>2017-08-29T15:20:06Z</time>
      </trkpt>
      <trkpt lat="45.74667" lon="6.71813">
        <ele>2021.31</ele>
        <time>2017-08-29T15:20:07Z</time>
      </trkpt>
      <trkpt lat="45.74668" lon="6.71813">
        <ele>2021.31</ele>
        <time>2017-08-29T15:20:08Z</time>
      </trkpt>
      <trkpt lat="45.74669" lon="6.71812">
        <ele>2021.31</ele>
        <time>2017-08-29T15:20:09Z</time>
      </trkpt>
      <trkpt lat="45.74669" lon="6.7181">
        <ele>2020.83</ele>
        <time>2017-08-29T15:20:10Z</time>
      </trkpt>
      <trkpt lat="45.7467" lon="6.71808">
        <ele>2020.83</ele>
        <time>2017-08-29T15:20:11Z</time>
      </trkpt>
      <trkpt lat="45.7467" lon="6.71807">
        <ele>2020.83</ele>
        <time>2017-08-29T15:20:12Z</time>
      </trkpt>
      <trkpt lat="45.7467" lon="6.71805">
        <ele>2020.35</ele>
        <time>2017-08-29T15:20:13Z</time>
      </trkpt>
      <trkpt lat="45.7467" lon="6.71802">
        <ele>2020.35</ele>
        <time>2017-08-29T15:20:14Z</time>
      </trkpt>
      <trkpt lat="45.74669" lon="6.718">
        <ele>2019.87</ele>
        <time>2017-08-29T15:20:15Z</time>
      </trkpt>
      <trkpt lat="45.74668" lon="6.71798">
        <ele>2019.39</ele>
        <time>2017-08-29T15:20:16Z</time>
      </trkpt>
      <trkpt lat="45.74667" lon="6.71797">
        <ele>2019.39</ele>
        <time>2017-08-29T15:20:17Z</time>
      </trkpt>
      <trkpt lat="45.74666" lon="6.71789">
        <ele>2018.91</ele>
        <time>2017-08-29T15:20:22Z</time>
      </trkpt>
      <trkpt lat="45.74665" lon="6.71788">
        <ele>2018.43</ele>
        <time>2017-08-29T15:20:23Z</time>
      </trkpt>
      <trkpt lat="45.74665" lon="6.71785">
        <ele>2018.43</ele>
        <time>2017-08-29T15:20:24Z</time>
      </trkpt>
      <trkpt lat="45.74662" lon="6.71779">
        <ele>2017.94</ele>
        <time>2017-08-29T15:20:28Z</time>
      </trkpt>
      <trkpt lat="45.74661" lon="6.71778">
        <ele>2017.46</ele>
        <time>2017-08-29T15:20:29Z</time>
      </trkpt>
      <trkpt lat="45.74661" lon="6.71776">
        <ele>2017.46</ele>
        <time>2017-08-29T15:20:30Z</time>
      </trkpt>
      <trkpt lat="45.7466" lon="6.71775">
        <ele>2017.46</ele>
        <time>2017-08-29T15:20:31Z</time>
      </trkpt>
      <trkpt lat="45.7466" lon="6.71773">
        <ele>2016.98</ele>
        <time>2017-08-29T15:20:32Z</time>
      </trkpt>
      <trkpt lat="45.7466" lon="6.71771">
        <ele>2016.98</ele>
        <time>2017-08-29T15:20:33Z</time>
      </trkpt>
      <trkpt lat="45.7466" lon="6.7177">
        <ele>2016.98</ele>
        <time>2017-08-29T15:20:34Z</time>
      </trkpt>
      <trkpt lat="45.74659" lon="6.71768">
        <ele>2016.5</ele>
        <time>2017-08-29T15:20:35Z</time>
      </trkpt>
      <trkpt lat="45.74658" lon="6.71766">
        <ele>2016.5</ele>
        <time>2017-08-29T15:20:36Z</time>
      </trkpt>
      <trkpt lat="45.74657" lon="6.71764">
        <ele>2016.5</ele>
        <time>2017-08-29T15:20:37Z</time>
      </trkpt>
      <trkpt lat="45.74656" lon="6.7176">
        <ele>2016.02</ele>
        <time>2017-08-29T15:20:39Z</time>
      </trkpt>
      <trkpt lat="45.74657" lon="6.71758">
        <ele>2016.02</ele>
        <time>2017-08-29T15:20:40Z</time>
      </trkpt>
      <trkpt lat="45.74657" lon="6.71755">
        <ele>2016.02</ele>
        <time>2017-08-29T15:20:41Z</time>
      </trkpt>
      <trkpt lat="45.74658" lon="6.71753">
        <ele>2016.02</ele>
        <time>2017-08-29T15:20:42Z</time>
      </trkpt>
      <trkpt lat="45.74658" lon="6.71751">
        <ele>2016.02</ele>
        <time>2017-08-29T15:20:43Z</time>
      </trkpt>
      <trkpt lat="45.74658" lon="6.71749">
        <ele>2016.02</ele>
        <time>2017-08-29T15:20:44Z</time>
      </trkpt>
      <trkpt lat="45.74658" lon="6.71748">
        <ele>2015.54</ele>
        <time>2017-08-29T15:20:45Z</time>
      </trkpt>
      <trkpt lat="45.74657" lon="6.71747">
        <ele>2015.54</ele>
        <time>2017-08-29T15:20:46Z</time>
      </trkpt>
      <trkpt lat="45.74656" lon="6.71745">
        <ele>2015.54</ele>
        <time>2017-08-29T15:20:47Z</time>
      </trkpt>
      <trkpt lat="45.74652" lon="6.71739">
        <ele>2014.58</ele>
        <time>2017-08-29T15:20:51Z</time>
      </trkpt>
      <trkpt lat="45.74652" lon="6.71737">
        <ele>2014.58</ele>
        <time>2017-08-29T15:20:52Z</time>
      </trkpt>
      <trkpt lat="45.74653" lon="6.71734">
        <ele>2014.58</ele>
        <time>2017-08-29T15:20:53Z</time>
      </trkpt>
      <trkpt lat="45.74654" lon="6.71733">
        <ele>2014.58</ele>
        <time>2017-08-29T15:20:54Z</time>
      </trkpt>
      <trkpt lat="45.74655" lon="6.71731">
        <ele>2014.1</ele>
        <time>2017-08-29T15:20:55Z</time>
      </trkpt>
      <trkpt lat="45.74655" lon="6.7173">
        <ele>2014.1</ele>
        <time>2017-08-29T15:20:56Z</time>
      </trkpt>
      <trkpt lat="45.74656" lon="6.71727">
        <ele>2013.62</ele>
        <time>2017-08-29T15:20:57Z</time>
      </trkpt>
      <trkpt lat="45.74656" lon="6.71725">
        <ele>2013.62</ele>
        <time>2017-08-29T15:20:58Z</time>
      </trkpt>
      <trkpt lat="45.74657" lon="6.71722">
        <ele>2013.14</ele>
        <time>2017-08-29T15:20:59Z</time>
      </trkpt>
      <trkpt lat="45.74658" lon="6.7172">
        <ele>2013.14</ele>
        <time>2017-08-29T15:21:00Z</time>
      </trkpt>
      <trkpt lat="45.74659" lon="6.71718">
        <ele>2013.14</ele>
        <time>2017-08-29T15:21:01Z</time>
      </trkpt>
      <trkpt lat="45.74661" lon="6.71717">
        <ele>2012.66</ele>
        <time>2017-08-29T15:21:02Z</time>
      </trkpt>
      <trkpt lat="45.74663" lon="6.71715">
        <ele>2012.66</ele>
        <time>2017-08-29T15:21:03Z</time>
      </trkpt>
      <trkpt lat="45.74664" lon="6.71714">
        <ele>2012.18</ele>
        <time>2017-08-29T15:21:04Z</time>
      </trkpt>
      <trkpt lat="45.74671" lon="6.717">
        <ele>2010.25</ele>
        <time>2017-08-29T15:21:15Z</time>
      </trkpt>
      <trkpt lat="45.7467" lon="6.71699">
        <ele>2009.77</ele>
        <time>2017-08-29T15:21:16Z</time>
      </trkpt>
      <trkpt lat="45.7467" lon="6.71697">
        <ele>2009.77</ele>
        <time>2017-08-29T15:21:17Z</time>
      </trkpt>
      <trkpt lat="45.74671" lon="6.71696">
        <ele>2009.29</ele>
        <time>2017-08-29T15:21:18Z</time>
      </trkpt>
      <trkpt lat="45.74671" lon="6.71694">
        <ele>2009.29</ele>
        <time>2017-08-29T15:21:19Z</time>
      </trkpt>
      <trkpt lat="45.74671" lon="6.71692">
        <ele>2008.81</ele>
        <time>2017-08-29T15:21:20Z</time>
      </trkpt>
      <trkpt lat="45.74671" lon="6.71691">
        <ele>2008.81</ele>
        <time>2017-08-29T15:21:21Z</time>
      </trkpt>
      <trkpt lat="45.74683" lon="6.71666">
        <ele>2006.41</ele>
        <time>2017-08-29T15:21:35Z</time>
      </trkpt>
      <trkpt lat="45.74684" lon="6.71663">
        <ele>2006.41</ele>
        <time>2017-08-29T15:21:37Z</time>
      </trkpt>
      <trkpt lat="45.74684" lon="6.71661">
        <ele>2005.93</ele>
        <time>2017-08-29T15:21:38Z</time>
      </trkpt>
      <trkpt lat="45.74684" lon="6.7166">
        <ele>2005.45</ele>
        <time>2017-08-29T15:21:39Z</time>
      </trkpt>
      <trkpt lat="45.74685" lon="6.71658">
        <ele>2005.45</ele>
        <time>2017-08-29T15:21:40Z</time>
      </trkpt>
      <trkpt lat="45.74686" lon="6.71656">
        <ele>2005.45</ele>
        <time>2017-08-29T15:21:41Z</time>
      </trkpt>
      <trkpt lat="45.74687" lon="6.71655">
        <ele>2004.97</ele>
        <time>2017-08-29T15:21:42Z</time>
      </trkpt>
      <trkpt lat="45.74688" lon="6.71654">
        <ele>2004.97</ele>
        <time>2017-08-29T15:21:43Z</time>
      </trkpt>
      <trkpt lat="45.74689" lon="6.71653">
        <ele>2004.97</ele>
        <time>2017-08-29T15:21:44Z</time>
      </trkpt>
      <trkpt lat="45.74694" lon="6.71639">
        <ele>2002.56</ele>
        <time>2017-08-29T15:21:56Z</time>
      </trkpt>
      <trkpt lat="45.74694" lon="6.71631">
        <ele>2001.6</ele>
        <time>2017-08-29T15:22:00Z</time>
      </trkpt>
      <trkpt lat="45.74695" lon="6.71626">
        <ele>2001.12</ele>
        <time>2017-08-29T15:22:02Z</time>
      </trkpt>
      <trkpt lat="45.74695" lon="6.71624">
        <ele>2001.12</ele>
        <time>2017-08-29T15:22:03Z</time>
      </trkpt>
      <trkpt lat="45.74695" lon="6.71621">
        <ele>2000.64</ele>
        <time>2017-08-29T15:22:04Z</time>
      </trkpt>
      <trkpt lat="45.74696" lon="6.71617">
        <ele>2000.64</ele>
        <time>2017-08-29T15:22:06Z</time>
      </trkpt>
      <trkpt lat="45.74697" lon="6.71616">
        <ele>2000.64</ele>
        <time>2017-08-29T15:22:07Z</time>
      </trkpt>
      <trkpt lat="45.74698" lon="6.71614">
        <ele>2000.16</ele>
        <time>2017-08-29T15:22:08Z</time>
      </trkpt>
      <trkpt lat="45.74699" lon="6.71613">
        <ele>2000.16</ele>
        <time>2017-08-29T15:22:09Z</time>
      </trkpt>
      <trkpt lat="45.747" lon="6.71611">
        <ele>1999.68</ele>
        <time>2017-08-29T15:22:10Z</time>
      </trkpt>
      <trkpt lat="45.74701" lon="6.71609">
        <ele>1999.2</ele>
        <time>2017-08-29T15:22:11Z</time>
      </trkpt>
      <trkpt lat="45.74702" lon="6.71608">
        <ele>1999.2</ele>
        <time>2017-08-29T15:22:12Z</time>
      </trkpt>
      <trkpt lat="45.74702" lon="6.71607">
        <ele>1999.2</ele>
        <time>2017-08-29T15:22:13Z</time>
      </trkpt>
      <trkpt lat="45.74703" lon="6.71605">
        <ele>1999.2</ele>
        <time>2017-08-29T15:22:14Z</time>
      </trkpt>
      <trkpt lat="45.74703" lon="6.71603">
        <ele>1999.2</ele>
        <time>2017-08-29T15:22:15Z</time>
      </trkpt>
      <trkpt lat="45.74703" lon="6.71601">
        <ele>1998.72</ele>
        <time>2017-08-29T15:22:16Z</time>
      </trkpt>
      <trkpt lat="45.74703" lon="6.71599">
        <ele>1998.24</ele>
        <time>2017-08-29T15:22:17Z</time>
      </trkpt>
      <trkpt lat="45.74704" lon="6.71597">
        <ele>1998.24</ele>
        <time>2017-08-29T15:22:18Z</time>
      </trkpt>
      <trkpt lat="45.74705" lon="6.71595">
        <ele>1998.24</ele>
        <time>2017-08-29T15:22:19Z</time>
      </trkpt>
      <trkpt lat="45.74705" lon="6.71594">
        <ele>1998.24</ele>
        <time>2017-08-29T15:22:20Z</time>
      </trkpt>
      <trkpt lat="45.74706" lon="6.71593">
        <ele>1997.76</ele>
        <time>2017-08-29T15:22:21Z</time>
      </trkpt>
      <trkpt lat="45.74707" lon="6.71591">
        <ele>1997.28</ele>
        <time>2017-08-29T15:22:22Z</time>
      </trkpt>
      <trkpt lat="45.74707" lon="6.7159">
        <ele>1997.28</ele>
        <time>2017-08-29T15:22:23Z</time>
      </trkpt>
      <trkpt lat="45.74708" lon="6.71589">
        <ele>1996.8</ele>
        <time>2017-08-29T15:22:24Z</time>
      </trkpt>
      <trkpt lat="45.74709" lon="6.71588">
        <ele>1996.8</ele>
        <time>2017-08-29T15:22:25Z</time>
      </trkpt>
      <trkpt lat="45.74709" lon="6.71586">
        <ele>1996.32</ele>
        <time>2017-08-29T15:22:26Z</time>
      </trkpt>
      <trkpt lat="45.74709" lon="6.71585">
        <ele>1996.32</ele>
        <time>2017-08-29T15:22:27Z</time>
      </trkpt>
      <trkpt lat="45.74709" lon="6.71583">
        <ele>1995.83</ele>
        <time>2017-08-29T15:22:28Z</time>
      </trkpt>
      <trkpt lat="45.74709" lon="6.71581">
        <ele>1995.83</ele>
        <time>2017-08-29T15:22:29Z</time>
      </trkpt>
      <trkpt lat="45.7471" lon="6.7158">
        <ele>1995.35</ele>
        <time>2017-08-29T15:22:30Z</time>
      </trkpt>
      <trkpt lat="45.74711" lon="6.71578">
        <ele>1995.35</ele>
        <time>2017-08-29T15:22:31Z</time>
      </trkpt>
      <trkpt lat="45.74711" lon="6.71576">
        <ele>1995.35</ele>
        <time>2017-08-29T15:22:32Z</time>
      </trkpt>
      <trkpt lat="45.74712" lon="6.71575">
        <ele>1995.35</ele>
        <time>2017-08-29T15:22:33Z</time>
      </trkpt>
      <trkpt lat="45.74713" lon="6.71573">
        <ele>1994.87</ele>
        <time>2017-08-29T15:22:34Z</time>
      </trkpt>
      <trkpt lat="45.74716" lon="6.71565">
        <ele>1994.39</ele>
        <time>2017-08-29T15:22:39Z</time>
      </trkpt>
      <trkpt lat="45.74716" lon="6.71564">
        <ele>1994.39</ele>
        <time>2017-08-29T15:22:40Z</time>
      </trkpt>
      <trkpt lat="45.74717" lon="6.71563">
        <ele>1994.39</ele>
        <time>2017-08-29T15:22:41Z</time>
      </trkpt>
      <trkpt lat="45.74718" lon="6.71561">
        <ele>1994.39</ele>
        <time>2017-08-29T15:22:42Z</time>
      </trkpt>
      <trkpt lat="45.74719" lon="6.7156">
        <ele>1993.91</ele>
        <time>2017-08-29T15:22:43Z</time>
      </trkpt>
      <trkpt lat="45.74719" lon="6.71559">
        <ele>1993.91</ele>
        <time>2017-08-29T15:22:44Z</time>
      </trkpt>
      <trkpt lat="45.7472" lon="6.71557">
        <ele>1993.43</ele>
        <time>2017-08-29T15:22:45Z</time>
      </trkpt>
      <trkpt lat="45.74721" lon="6.71556">
        <ele>1993.43</ele>
        <time>2017-08-29T15:22:46Z</time>
      </trkpt>
      <trkpt lat="45.74721" lon="6.71554">
        <ele>1993.43</ele>
        <time>2017-08-29T15:22:47Z</time>
      </trkpt>
      <trkpt lat="45.74722" lon="6.71553">
        <ele>1992.95</ele>
        <time>2017-08-29T15:22:48Z</time>
      </trkpt>
      <trkpt lat="45.74722" lon="6.71551">
        <ele>1992.95</ele>
        <time>2017-08-29T15:22:49Z</time>
      </trkpt>
      <trkpt lat="45.74722" lon="6.71549">
        <ele>1992.47</ele>
        <time>2017-08-29T15:22:50Z</time>
      </trkpt>
      <trkpt lat="45.74721" lon="6.71547">
        <ele>1992.47</ele>
        <time>2017-08-29T15:22:51Z</time>
      </trkpt>
      <trkpt lat="45.74721" lon="6.71545">
        <ele>1991.99</ele>
        <time>2017-08-29T15:22:52Z</time>
      </trkpt>
      <trkpt lat="45.74721" lon="6.71544">
        <ele>1991.99</ele>
        <time>2017-08-29T15:22:53Z</time>
      </trkpt>
      <trkpt lat="45.74722" lon="6.71542">
        <ele>1991.99</ele>
        <time>2017-08-29T15:22:54Z</time>
      </trkpt>
      <trkpt lat="45.74723" lon="6.71542">
        <ele>1991.99</ele>
        <time>2017-08-29T15:22:55Z</time>
      </trkpt>
      <trkpt lat="45.74723" lon="6.7154">
        <ele>1991.51</ele>
        <time>2017-08-29T15:22:56Z</time>
      </trkpt>
      <trkpt lat="45.74724" lon="6.71539">
        <ele>1991.51</ele>
        <time>2017-08-29T15:22:57Z</time>
      </trkpt>
      <trkpt lat="45.74725" lon="6.71538">
        <ele>1991.03</ele>
        <time>2017-08-29T15:22:58Z</time>
      </trkpt>
      <trkpt lat="45.74726" lon="6.71536">
        <ele>1991.03</ele>
        <time>2017-08-29T15:22:59Z</time>
      </trkpt>
      <trkpt lat="45.74726" lon="6.71535">
        <ele>1990.55</ele>
        <time>2017-08-29T15:23:00Z</time>
      </trkpt>
      <trkpt lat="45.74727" lon="6.71533">
        <ele>1990.55</ele>
        <time>2017-08-29T15:23:01Z</time>
      </trkpt>
      <trkpt lat="45.74728" lon="6.71532">
        <ele>1990.07</ele>
        <time>2017-08-29T15:23:02Z</time>
      </trkpt>
      <trkpt lat="45.74729" lon="6.71531">
        <ele>1989.59</ele>
        <time>2017-08-29T15:23:03Z</time>
      </trkpt>
      <trkpt lat="45.7473" lon="6.7153">
        <ele>1989.59</ele>
        <time>2017-08-29T15:23:04Z</time>
      </trkpt>
      <trkpt lat="45.74731" lon="6.71529">
        <ele>1989.1</ele>
        <time>2017-08-29T15:23:05Z</time>
      </trkpt>
      <trkpt lat="45.74733" lon="6.71529">
        <ele>1989.1</ele>
        <time>2017-08-29T15:23:06Z</time>
      </trkpt>
      <trkpt lat="45.74734" lon="6.71528">
        <ele>1988.62</ele>
        <time>2017-08-29T15:23:07Z</time>
      </trkpt>
      <trkpt lat="45.74735" lon="6.71526">
        <ele>1988.62</ele>
        <time>2017-08-29T15:23:08Z</time>
      </trkpt>
      <trkpt lat="45.74736" lon="6.71525">
        <ele>1988.14</ele>
        <time>2017-08-29T15:23:09Z</time>
      </trkpt>
      <trkpt lat="45.74737" lon="6.71523">
        <ele>1988.14</ele>
        <time>2017-08-29T15:23:10Z</time>
      </trkpt>
      <trkpt lat="45.74738" lon="6.71522">
        <ele>1988.14</ele>
        <time>2017-08-29T15:23:11Z</time>
      </trkpt>
      <trkpt lat="45.7474" lon="6.71521">
        <ele>1988.14</ele>
        <time>2017-08-29T15:23:12Z</time>
      </trkpt>
      <trkpt lat="45.74741" lon="6.7152">
        <ele>1988.14</ele>
        <time>2017-08-29T15:23:13Z</time>
      </trkpt>
      <trkpt lat="45.74742" lon="6.7152">
        <ele>1988.14</ele>
        <time>2017-08-29T15:23:14Z</time>
      </trkpt>
      <trkpt lat="45.74744" lon="6.71519">
        <ele>1988.14</ele>
        <time>2017-08-29T15:23:15Z</time>
      </trkpt>
      <trkpt lat="45.74745" lon="6.71519">
        <ele>1988.14</ele>
        <time>2017-08-29T15:23:16Z</time>
      </trkpt>
      <trkpt lat="45.74746" lon="6.7152">
        <ele>1988.14</ele>
        <time>2017-08-29T15:23:17Z</time>
      </trkpt>
      <trkpt lat="45.74748" lon="6.71519">
        <ele>1988.14</ele>
        <time>2017-08-29T15:23:18Z</time>
      </trkpt>
      <trkpt lat="45.74749" lon="6.71519">
        <ele>1988.14</ele>
        <time>2017-08-29T15:23:19Z</time>
      </trkpt>
      <trkpt lat="45.74751" lon="6.71518">
        <ele>1988.14</ele>
        <time>2017-08-29T15:23:20Z</time>
      </trkpt>
      <trkpt lat="45.74752" lon="6.71517">
        <ele>1988.14</ele>
        <time>2017-08-29T15:23:21Z</time>
      </trkpt>
      <trkpt lat="45.74753" lon="6.71516">
        <ele>1988.14</ele>
        <time>2017-08-29T15:23:22Z</time>
      </trkpt>
      <trkpt lat="45.74758" lon="6.71512">
        <ele>1987.18</ele>
        <time>2017-08-29T15:23:26Z</time>
      </trkpt>
      <trkpt lat="45.74762" lon="6.71509">
        <ele>1986.7</ele>
        <time>2017-08-29T15:23:29Z</time>
      </trkpt>
      <trkpt lat="45.74763" lon="6.71507">
        <ele>1986.22</ele>
        <time>2017-08-29T15:23:30Z</time>
      </trkpt>
      <trkpt lat="45.74763" lon="6.71506">
        <ele>1986.22</ele>
        <time>2017-08-29T15:23:31Z</time>
      </trkpt>
      <trkpt lat="45.74764" lon="6.71504">
        <ele>1986.22</ele>
        <time>2017-08-29T15:23:32Z</time>
      </trkpt>
      <trkpt lat="45.74765" lon="6.71503">
        <ele>1985.74</ele>
        <time>2017-08-29T15:23:33Z</time>
      </trkpt>
      <trkpt lat="45.74766" lon="6.71502">
        <ele>1985.74</ele>
        <time>2017-08-29T15:23:34Z</time>
      </trkpt>
      <trkpt lat="45.74767" lon="6.71501">
        <ele>1985.26</ele>
        <time>2017-08-29T15:23:35Z</time>
      </trkpt>
      <trkpt lat="45.74768" lon="6.71501">
        <ele>1985.26</ele>
        <time>2017-08-29T15:23:36Z</time>
      </trkpt>
      <trkpt lat="45.7477" lon="6.715">
        <ele>1984.78</ele>
        <time>2017-08-29T15:23:38Z</time>
      </trkpt>
      <trkpt lat="45.74771" lon="6.715">
        <ele>1984.3</ele>
        <time>2017-08-29T15:23:39Z</time>
      </trkpt>
      <trkpt lat="45.74773" lon="6.715">
        <ele>1983.82</ele>
        <time>2017-08-29T15:23:40Z</time>
      </trkpt>
      <trkpt lat="45.74774" lon="6.715">
        <ele>1983.82</ele>
        <time>2017-08-29T15:23:41Z</time>
      </trkpt>
      <trkpt lat="45.74775" lon="6.71499">
        <ele>1983.34</ele>
        <time>2017-08-29T15:23:42Z</time>
      </trkpt>
      <trkpt lat="45.74776" lon="6.71498">
        <ele>1982.86</ele>
        <time>2017-08-29T15:23:43Z</time>
      </trkpt>
      <trkpt lat="45.74777" lon="6.71497">
        <ele>1982.86</ele>
        <time>2017-08-29T15:23:44Z</time>
      </trkpt>
      <trkpt lat="45.74778" lon="6.71496">
        <ele>1982.38</ele>
        <time>2017-08-29T15:23:45Z</time>
      </trkpt>
      <trkpt lat="45.7478" lon="6.71495">
        <ele>1982.38</ele>
        <time>2017-08-29T15:23:46Z</time>
      </trkpt>
      <trkpt lat="45.74781" lon="6.71494">
        <ele>1981.9</ele>
        <time>2017-08-29T15:23:47Z</time>
      </trkpt>
      <trkpt lat="45.74781" lon="6.71492">
        <ele>1981.41</ele>
        <time>2017-08-29T15:23:48Z</time>
      </trkpt>
      <trkpt lat="45.7478" lon="6.71491">
        <ele>1981.41</ele>
        <time>2017-08-29T15:23:49Z</time>
      </trkpt>
      <trkpt lat="45.74778" lon="6.71491">
        <ele>1980.93</ele>
        <time>2017-08-29T15:23:50Z</time>
      </trkpt>
      <trkpt lat="45.74777" lon="6.71491">
        <ele>1980.93</ele>
        <time>2017-08-29T15:23:51Z</time>
      </trkpt>
      <trkpt lat="45.74775" lon="6.7149">
        <ele>1980.45</ele>
        <time>2017-08-29T15:23:52Z</time>
      </trkpt>
      <trkpt lat="45.74774" lon="6.71489">
        <ele>1979.97</ele>
        <time>2017-08-29T15:23:53Z</time>
      </trkpt>
      <trkpt lat="45.74772" lon="6.71488">
        <ele>1979.97</ele>
        <time>2017-08-29T15:23:54Z</time>
      </trkpt>
      <trkpt lat="45.74771" lon="6.71486">
        <ele>1979.97</ele>
        <time>2017-08-29T15:23:55Z</time>
      </trkpt>
      <trkpt lat="45.7477" lon="6.71483">
        <ele>1979.49</ele>
        <time>2017-08-29T15:23:56Z</time>
      </trkpt>
      <trkpt lat="45.7477" lon="6.71481">
        <ele>1979.49</ele>
        <time>2017-08-29T15:23:57Z</time>
      </trkpt>
      <trkpt lat="45.74771" lon="6.71479">
        <ele>1979.49</ele>
        <time>2017-08-29T15:23:58Z</time>
      </trkpt>
      <trkpt lat="45.74773" lon="6.71478">
        <ele>1979.49</ele>
        <time>2017-08-29T15:23:59Z</time>
      </trkpt>
      <trkpt lat="45.74774" lon="6.71477">
        <ele>1979.49</ele>
        <time>2017-08-29T15:24:00Z</time>
      </trkpt>
      <trkpt lat="45.74775" lon="6.71476">
        <ele>1979.01</ele>
        <time>2017-08-29T15:24:01Z</time>
      </trkpt>
      <trkpt lat="45.74785" lon="6.71463">
        <ele>1977.57</ele>
        <time>2017-08-29T15:24:10Z</time>
      </trkpt>
      <trkpt lat="45.74788" lon="6.71454">
        <ele>1977.09</ele>
        <time>2017-08-29T15:24:14Z</time>
      </trkpt>
      <trkpt lat="45.74789" lon="6.71453">
        <ele>1976.61</ele>
        <time>2017-08-29T15:24:15Z</time>
      </trkpt>
      <trkpt lat="45.74791" lon="6.71453">
        <ele>1976.61</ele>
        <time>2017-08-29T15:24:16Z</time>
      </trkpt>
      <trkpt lat="45.74792" lon="6.71451">
        <ele>1976.61</ele>
        <time>2017-08-29T15:24:17Z</time>
      </trkpt>
      <trkpt lat="45.74794" lon="6.71451">
        <ele>1976.61</ele>
        <time>2017-08-29T15:24:18Z</time>
      </trkpt>
      <trkpt lat="45.74795" lon="6.71451">
        <ele>1976.61</ele>
        <time>2017-08-29T15:24:19Z</time>
      </trkpt>
      <trkpt lat="45.74796" lon="6.7145">
        <ele>1976.61</ele>
        <time>2017-08-29T15:24:20Z</time>
      </trkpt>
      <trkpt lat="45.74798" lon="6.7145">
        <ele>1976.61</ele>
        <time>2017-08-29T15:24:21Z</time>
      </trkpt>
      <trkpt lat="45.748" lon="6.71449">
        <ele>1976.61</ele>
        <time>2017-08-29T15:24:22Z</time>
      </trkpt>
      <trkpt lat="45.74802" lon="6.71449">
        <ele>1976.13</ele>
        <time>2017-08-29T15:24:23Z</time>
      </trkpt>
      <trkpt lat="45.74804" lon="6.71448">
        <ele>1976.13</ele>
        <time>2017-08-29T15:24:24Z</time>
      </trkpt>
      <trkpt lat="45.74806" lon="6.71447">
        <ele>1975.65</ele>
        <time>2017-08-29T15:24:25Z</time>
      </trkpt>
      <trkpt lat="45.74808" lon="6.71445">
        <ele>1975.17</ele>
        <time>2017-08-29T15:24:26Z</time>
      </trkpt>
      <trkpt lat="45.7481" lon="6.71444">
        <ele>1975.17</ele>
        <time>2017-08-29T15:24:27Z</time>
      </trkpt>
      <trkpt lat="45.74818" lon="6.71437">
        <ele>1974.2</ele>
        <time>2017-08-29T15:24:31Z</time>
      </trkpt>
      <trkpt lat="45.74831" lon="6.71429">
        <ele>1973.72</ele>
        <time>2017-08-29T15:24:36Z</time>
      </trkpt>
      <trkpt lat="45.74846" lon="6.71424">
        <ele>1973.24</ele>
        <time>2017-08-29T15:24:41Z</time>
      </trkpt>
      <trkpt lat="45.74856" lon="6.7142">
        <ele>1973.24</ele>
        <time>2017-08-29T15:24:45Z</time>
      </trkpt>
      <trkpt lat="45.74865" lon="6.71414">
        <ele>1972.76</ele>
        <time>2017-08-29T15:24:49Z</time>
      </trkpt>
      <trkpt lat="45.7488" lon="6.71396">
        <ele>1972.28</ele>
        <time>2017-08-29T15:24:57Z</time>
      </trkpt>
      <trkpt lat="45.74893" lon="6.71378">
        <ele>1971.8</ele>
        <time>2017-08-29T15:25:04Z</time>
      </trkpt>
      <trkpt lat="45.74904" lon="6.71354">
        <ele>1971.32</ele>
        <time>2017-08-29T15:25:12Z</time>
      </trkpt>
      <trkpt lat="45.74917" lon="6.71334">
        <ele>1969.88</ele>
        <time>2017-08-29T15:25:20Z</time>
      </trkpt>
      <trkpt lat="45.74931" lon="6.71314">
        <ele>1968.44</ele>
        <time>2017-08-29T15:25:28Z</time>
      </trkpt>
      <trkpt lat="45.74941" lon="6.71288">
        <ele>1966.51</ele>
        <time>2017-08-29T15:25:37Z</time>
      </trkpt>
      <trkpt lat="45.74949" lon="6.71262">
        <ele>1965.55</ele>
        <time>2017-08-29T15:25:45Z</time>
      </trkpt>
      <trkpt lat="45.74957" lon="6.71234">
        <ele>1966.03</ele>
        <time>2017-08-29T15:25:53Z</time>
      </trkpt>
      <trkpt lat="45.74972" lon="6.71214">
        <ele>1965.07</ele>
        <time>2017-08-29T15:26:01Z</time>
      </trkpt>
      <trkpt lat="45.74987" lon="6.71192">
        <ele>1964.59</ele>
        <time>2017-08-29T15:26:10Z</time>
      </trkpt>
      <trkpt lat="45.74998" lon="6.71167">
        <ele>1964.11</ele>
        <time>2017-08-29T15:26:19Z</time>
      </trkpt>
      <trkpt lat="45.75012" lon="6.71144">
        <ele>1960.27</ele>
        <time>2017-08-29T15:26:28Z</time>
      </trkpt>
      <trkpt lat="45.75019" lon="6.71115">
        <ele>1960.27</ele>
        <time>2017-08-29T15:26:37Z</time>
      </trkpt>
      <trkpt lat="45.75027" lon="6.71092">
        <ele>1960.27</ele>
        <time>2017-08-29T15:26:45Z</time>
      </trkpt>
      <trkpt lat="45.75039" lon="6.71071">
        <ele>1957.38</ele>
        <time>2017-08-29T15:26:53Z</time>
      </trkpt>
      <trkpt lat="45.75051" lon="6.71047">
        <ele>1956.42</ele>
        <time>2017-08-29T15:27:00Z</time>
      </trkpt>
      <trkpt lat="45.75068" lon="6.7103">
        <ele>1956.42</ele>
        <time>2017-08-29T15:27:08Z</time>
      </trkpt>
      <trkpt lat="45.75087" lon="6.71023">
        <ele>1957.38</ele>
        <time>2017-08-29T15:27:16Z</time>
      </trkpt>
      <trkpt lat="45.75103" lon="6.7101">
        <ele>1959.3</ele>
        <time>2017-08-29T15:27:27Z</time>
      </trkpt>
      <trkpt lat="45.75118" lon="6.70994">
        <ele>1960.75</ele>
        <time>2017-08-29T15:27:37Z</time>
      </trkpt>
      <trkpt lat="45.75129" lon="6.70976">
        <ele>1959.78</ele>
        <time>2017-08-29T15:27:47Z</time>
      </trkpt>
      <trkpt lat="45.75129" lon="6.70975">
        <ele>1959.78</ele>
        <time>2017-08-29T15:27:48Z</time>
      </trkpt>
      <trkpt lat="45.75133" lon="6.70949">
        <ele>1956.9</ele>
        <time>2017-08-29T15:27:57Z</time>
      </trkpt>
      <trkpt lat="45.75147" lon="6.70929">
        <ele>1954.98</ele>
        <time>2017-08-29T15:28:06Z</time>
      </trkpt>
      <trkpt lat="45.75161" lon="6.70915">
        <ele>1951.61</ele>
        <time>2017-08-29T15:28:15Z</time>
      </trkpt>
      <trkpt lat="45.75175" lon="6.709">
        <ele>1949.21</ele>
        <time>2017-08-29T15:28:24Z</time>
      </trkpt>
      <trkpt lat="45.75185" lon="6.70888">
        <ele>1945.85</ele>
        <time>2017-08-29T15:28:31Z</time>
      </trkpt>
      <trkpt lat="45.75196" lon="6.70879">
        <ele>1942.96</ele>
        <time>2017-08-29T15:28:39Z</time>
      </trkpt>
      <trkpt lat="45.75198" lon="6.70876">
        <ele>1942</ele>
        <time>2017-08-29T15:28:41Z</time>
      </trkpt>
      <trkpt lat="45.75203" lon="6.70872">
        <ele>1941.04</ele>
        <time>2017-08-29T15:28:44Z</time>
      </trkpt>
      <trkpt lat="45.75212" lon="6.70866">
        <ele>1938.64</ele>
        <time>2017-08-29T15:28:49Z</time>
      </trkpt>
      <trkpt lat="45.75221" lon="6.70859">
        <ele>1935.27</ele>
        <time>2017-08-29T15:28:54Z</time>
      </trkpt>
      <trkpt lat="45.75221" lon="6.70857">
        <ele>1934.79</ele>
        <time>2017-08-29T15:28:55Z</time>
      </trkpt>
      <trkpt lat="45.75222" lon="6.70855">
        <ele>1934.79</ele>
        <time>2017-08-29T15:28:56Z</time>
      </trkpt>
      <trkpt lat="45.75224" lon="6.70854">
        <ele>1934.31</ele>
        <time>2017-08-29T15:28:57Z</time>
      </trkpt>
      <trkpt lat="45.75226" lon="6.70852">
        <ele>1934.31</ele>
        <time>2017-08-29T15:28:58Z</time>
      </trkpt>
      <trkpt lat="45.75227" lon="6.7085">
        <ele>1933.83</ele>
        <time>2017-08-29T15:28:59Z</time>
      </trkpt>
      <trkpt lat="45.75229" lon="6.70848">
        <ele>1932.87</ele>
        <time>2017-08-29T15:29:00Z</time>
      </trkpt>
      <trkpt lat="45.75231" lon="6.70847">
        <ele>1932.39</ele>
        <time>2017-08-29T15:29:01Z</time>
      </trkpt>
      <trkpt lat="45.75232" lon="6.70845">
        <ele>1931.91</ele>
        <time>2017-08-29T15:29:02Z</time>
      </trkpt>
      <trkpt lat="45.75234" lon="6.70842">
        <ele>1931.43</ele>
        <time>2017-08-29T15:29:03Z</time>
      </trkpt>
      <trkpt lat="45.75241" lon="6.70833">
        <ele>1928.54</ele>
        <time>2017-08-29T15:29:07Z</time>
      </trkpt>
      <trkpt lat="45.75249" lon="6.70822">
        <ele>1925.18</ele>
        <time>2017-08-29T15:29:12Z</time>
      </trkpt>
      <trkpt lat="45.75255" lon="6.70811">
        <ele>1922.29</ele>
        <time>2017-08-29T15:29:17Z</time>
      </trkpt>
      <trkpt lat="45.75256" lon="6.70809">
        <ele>1921.81</ele>
        <time>2017-08-29T15:29:18Z</time>
      </trkpt>
      <trkpt lat="45.75262" lon="6.708">
        <ele>1920.37</ele>
        <time>2017-08-29T15:29:22Z</time>
      </trkpt>
      <trkpt lat="45.75264" lon="6.708">
        <ele>1919.89</ele>
        <time>2017-08-29T15:29:23Z</time>
      </trkpt>
      <trkpt lat="45.75266" lon="6.70801">
        <ele>1919.41</ele>
        <time>2017-08-29T15:29:24Z</time>
      </trkpt>
      <trkpt lat="45.75267" lon="6.70803">
        <ele>1918.93</ele>
        <time>2017-08-29T15:29:25Z</time>
      </trkpt>
      <trkpt lat="45.75267" lon="6.70806">
        <ele>1918.45</ele>
        <time>2017-08-29T15:29:26Z</time>
      </trkpt>
      <trkpt lat="45.75267" lon="6.70809">
        <ele>1917.97</ele>
        <time>2017-08-29T15:29:27Z</time>
      </trkpt>
      <trkpt lat="45.75267" lon="6.70811">
        <ele>1917.97</ele>
        <time>2017-08-29T15:29:28Z</time>
      </trkpt>
      <trkpt lat="45.75267" lon="6.70813">
        <ele>1917.49</ele>
        <time>2017-08-29T15:29:29Z</time>
      </trkpt>
      <trkpt lat="45.75267" lon="6.70816">
        <ele>1917.01</ele>
        <time>2017-08-29T15:29:30Z</time>
      </trkpt>
      <trkpt lat="45.75267" lon="6.70818">
        <ele>1916.53</ele>
        <time>2017-08-29T15:29:31Z</time>
      </trkpt>
      <trkpt lat="45.75268" lon="6.7082">
        <ele>1915.56</ele>
        <time>2017-08-29T15:29:32Z</time>
      </trkpt>
      <trkpt lat="45.75268" lon="6.70822">
        <ele>1915.56</ele>
        <time>2017-08-29T15:29:33Z</time>
      </trkpt>
      <trkpt lat="45.75269" lon="6.70824">
        <ele>1915.08</ele>
        <time>2017-08-29T15:29:34Z</time>
      </trkpt>
      <trkpt lat="45.7527" lon="6.70826">
        <ele>1914.6</ele>
        <time>2017-08-29T15:29:35Z</time>
      </trkpt>
      <trkpt lat="45.75271" lon="6.70831">
        <ele>1913.64</ele>
        <time>2017-08-29T15:29:37Z</time>
      </trkpt>
      <trkpt lat="45.75276" lon="6.70843">
        <ele>1910.76</ele>
        <time>2017-08-29T15:29:43Z</time>
      </trkpt>
      <trkpt lat="45.75281" lon="6.70856">
        <ele>1907.39</ele>
        <time>2017-08-29T15:29:49Z</time>
      </trkpt>
      <trkpt lat="45.75286" lon="6.70871">
        <ele>1904.03</ele>
        <time>2017-08-29T15:29:56Z</time>
      </trkpt>
      <trkpt lat="45.75286" lon="6.70876">
        <ele>1903.55</ele>
        <time>2017-08-29T15:29:58Z</time>
      </trkpt>
      <trkpt lat="45.75288" lon="6.70892">
        <ele>1900.18</ele>
        <time>2017-08-29T15:30:04Z</time>
      </trkpt>
      <trkpt lat="45.75289" lon="6.70915">
        <ele>1897.3</ele>
        <time>2017-08-29T15:30:12Z</time>
      </trkpt>
      <trkpt lat="45.75291" lon="6.70917">
        <ele>1896.82</ele>
        <time>2017-08-29T15:30:13Z</time>
      </trkpt>
      <trkpt lat="45.75292" lon="6.70919">
        <ele>1896.82</ele>
        <time>2017-08-29T15:30:14Z</time>
      </trkpt>
      <trkpt lat="45.75294" lon="6.7092">
        <ele>1896.34</ele>
        <time>2017-08-29T15:30:15Z</time>
      </trkpt>
      <trkpt lat="45.75296" lon="6.70919">
        <ele>1895.86</ele>
        <time>2017-08-29T15:30:16Z</time>
      </trkpt>
      <trkpt lat="45.75298" lon="6.70917">
        <ele>1895.38</ele>
        <time>2017-08-29T15:30:17Z</time>
      </trkpt>
      <trkpt lat="45.75298" lon="6.70916">
        <ele>1895.38</ele>
        <time>2017-08-29T15:30:18Z</time>
      </trkpt>
      <trkpt lat="45.75299" lon="6.70913">
        <ele>1894.9</ele>
        <time>2017-08-29T15:30:19Z</time>
      </trkpt>
      <trkpt lat="45.75299" lon="6.70911">
        <ele>1894.9</ele>
        <time>2017-08-29T15:30:20Z</time>
      </trkpt>
      <trkpt lat="45.753" lon="6.70908">
        <ele>1894.42</ele>
        <time>2017-08-29T15:30:21Z</time>
      </trkpt>
      <trkpt lat="45.753" lon="6.70905">
        <ele>1894.42</ele>
        <time>2017-08-29T15:30:22Z</time>
      </trkpt>
      <trkpt lat="45.75303" lon="6.70875">
        <ele>1892.49</ele>
        <time>2017-08-29T15:30:31Z</time>
      </trkpt>
      <trkpt lat="45.75311" lon="6.70848">
        <ele>1890.09</ele>
        <time>2017-08-29T15:30:40Z</time>
      </trkpt>
      <trkpt lat="45.75318" lon="6.70833">
        <ele>1888.17</ele>
        <time>2017-08-29T15:30:46Z</time>
      </trkpt>
      <trkpt lat="45.75326" lon="6.70816">
        <ele>1884.8</ele>
        <time>2017-08-29T15:30:54Z</time>
      </trkpt>
      <trkpt lat="45.75327" lon="6.70814">
        <ele>1884.8</ele>
        <time>2017-08-29T15:30:55Z</time>
      </trkpt>
      <trkpt lat="45.75328" lon="6.70812">
        <ele>1884.32</ele>
        <time>2017-08-29T15:30:56Z</time>
      </trkpt>
      <trkpt lat="45.7533" lon="6.70811">
        <ele>1883.36</ele>
        <time>2017-08-29T15:30:57Z</time>
      </trkpt>
      <trkpt lat="45.75331" lon="6.7081">
        <ele>1883.36</ele>
        <time>2017-08-29T15:30:58Z</time>
      </trkpt>
      <trkpt lat="45.75332" lon="6.70808">
        <ele>1882.88</ele>
        <time>2017-08-29T15:30:59Z</time>
      </trkpt>
      <trkpt lat="45.75333" lon="6.70806">
        <ele>1882.4</ele>
        <time>2017-08-29T15:31:00Z</time>
      </trkpt>
      <trkpt lat="45.75334" lon="6.70804">
        <ele>1882.4</ele>
        <time>2017-08-29T15:31:01Z</time>
      </trkpt>
      <trkpt lat="45.75345" lon="6.70792">
        <ele>1879.03</ele>
        <time>2017-08-29T15:31:08Z</time>
      </trkpt>
      <trkpt lat="45.75358" lon="6.70781">
        <ele>1876.15</ele>
        <time>2017-08-29T15:31:16Z</time>
      </trkpt>
      <trkpt lat="45.75362" lon="6.7078">
        <ele>1875.19</ele>
        <time>2017-08-29T15:31:18Z</time>
      </trkpt>
      <trkpt lat="45.75364" lon="6.7078">
        <ele>1874.71</ele>
        <time>2017-08-29T15:31:19Z</time>
      </trkpt>
      <trkpt lat="45.75366" lon="6.7078">
        <ele>1874.23</ele>
        <time>2017-08-29T15:31:20Z</time>
      </trkpt>
      <trkpt lat="45.75367" lon="6.70779">
        <ele>1874.23</ele>
        <time>2017-08-29T15:31:21Z</time>
      </trkpt>
      <trkpt lat="45.75369" lon="6.70779">
        <ele>1873.75</ele>
        <time>2017-08-29T15:31:22Z</time>
      </trkpt>
      <trkpt lat="45.75374" lon="6.70777">
        <ele>1871.82</ele>
        <time>2017-08-29T15:31:26Z</time>
      </trkpt>
      <trkpt lat="45.75377" lon="6.70776">
        <ele>1871.82</ele>
        <time>2017-08-29T15:31:28Z</time>
      </trkpt>
      <trkpt lat="45.75378" lon="6.70775">
        <ele>1871.34</ele>
        <time>2017-08-29T15:31:29Z</time>
      </trkpt>
      <trkpt lat="45.75379" lon="6.70775">
        <ele>1870.86</ele>
        <time>2017-08-29T15:31:30Z</time>
      </trkpt>
      <trkpt lat="45.75392" lon="6.70769">
        <ele>1867.98</ele>
        <time>2017-08-29T15:31:40Z</time>
      </trkpt>
      <trkpt lat="45.75407" lon="6.70755">
        <ele>1864.61</ele>
        <time>2017-08-29T15:31:49Z</time>
      </trkpt>
      <trkpt lat="45.75408" lon="6.70753">
        <ele>1864.61</ele>
        <time>2017-08-29T15:31:50Z</time>
      </trkpt>
      <trkpt lat="45.75425" lon="6.7074">
        <ele>1861.25</ele>
        <time>2017-08-29T15:31:58Z</time>
      </trkpt>
      <trkpt lat="45.75439" lon="6.70729">
        <ele>1857.89</ele>
        <time>2017-08-29T15:32:06Z</time>
      </trkpt>
      <trkpt lat="45.75441" lon="6.70728">
        <ele>1857.4</ele>
        <time>2017-08-29T15:32:07Z</time>
      </trkpt>
      <trkpt lat="45.75447" lon="6.70726">
        <ele>1855.96</ele>
        <time>2017-08-29T15:32:10Z</time>
      </trkpt>
      <trkpt lat="45.75454" lon="6.70725">
        <ele>1854.52</ele>
        <time>2017-08-29T15:32:14Z</time>
      </trkpt>
      <trkpt lat="45.75466" lon="6.70725">
        <ele>1851.64</ele>
        <time>2017-08-29T15:32:21Z</time>
      </trkpt>
      <trkpt lat="45.75483" lon="6.70724">
        <ele>1848.27</ele>
        <time>2017-08-29T15:32:29Z</time>
      </trkpt>
      <trkpt lat="45.75497" lon="6.70728">
        <ele>1845.87</ele>
        <time>2017-08-29T15:32:36Z</time>
      </trkpt>
      <trkpt lat="45.75499" lon="6.70727">
        <ele>1845.39</ele>
        <time>2017-08-29T15:32:37Z</time>
      </trkpt>
      <trkpt lat="45.755" lon="6.70726">
        <ele>1845.39</ele>
        <time>2017-08-29T15:32:38Z</time>
      </trkpt>
      <trkpt lat="45.755" lon="6.70725">
        <ele>1845.39</ele>
        <time>2017-08-29T15:32:39Z</time>
      </trkpt>
      <trkpt lat="45.75501" lon="6.70724">
        <ele>1844.91</ele>
        <time>2017-08-29T15:32:40Z</time>
      </trkpt>
      <trkpt lat="45.75503" lon="6.70723">
        <ele>1844.43</ele>
        <time>2017-08-29T15:32:42Z</time>
      </trkpt>
      <trkpt lat="45.75504" lon="6.70723">
        <ele>1844.43</ele>
        <time>2017-08-29T15:32:43Z</time>
      </trkpt>
      <trkpt lat="45.75506" lon="6.70724">
        <ele>1843.95</ele>
        <time>2017-08-29T15:32:44Z</time>
      </trkpt>
      <trkpt lat="45.75507" lon="6.70726">
        <ele>1843.47</ele>
        <time>2017-08-29T15:32:45Z</time>
      </trkpt>
      <trkpt lat="45.75508" lon="6.70726">
        <ele>1842.98</ele>
        <time>2017-08-29T15:32:46Z</time>
      </trkpt>
      <trkpt lat="45.7551" lon="6.70727">
        <ele>1842.98</ele>
        <time>2017-08-29T15:32:47Z</time>
      </trkpt>
      <trkpt lat="45.75511" lon="6.70728">
        <ele>1842.98</ele>
        <time>2017-08-29T15:32:48Z</time>
      </trkpt>
      <trkpt lat="45.75519" lon="6.70732">
        <ele>1841.06</ele>
        <time>2017-08-29T15:32:54Z</time>
      </trkpt>
      <trkpt lat="45.75524" lon="6.70737">
        <ele>1839.62</ele>
        <time>2017-08-29T15:32:59Z</time>
      </trkpt>
      <trkpt lat="45.75525" lon="6.70739">
        <ele>1839.14</ele>
        <time>2017-08-29T15:33:00Z</time>
      </trkpt>
      <trkpt lat="45.75525" lon="6.70741">
        <ele>1839.14</ele>
        <time>2017-08-29T15:33:01Z</time>
      </trkpt>
      <trkpt lat="45.75527" lon="6.70744">
        <ele>1838.18</ele>
        <time>2017-08-29T15:33:04Z</time>
      </trkpt>
      <trkpt lat="45.75528" lon="6.70744">
        <ele>1838.18</ele>
        <time>2017-08-29T15:33:05Z</time>
      </trkpt>
      <trkpt lat="45.75529" lon="6.70743">
        <ele>1838.18</ele>
        <time>2017-08-29T15:33:06Z</time>
      </trkpt>
      <trkpt lat="45.7553" lon="6.70743">
        <ele>1837.7</ele>
        <time>2017-08-29T15:33:07Z</time>
      </trkpt>
      <trkpt lat="45.75532" lon="6.70744">
        <ele>1837.7</ele>
        <time>2017-08-29T15:33:08Z</time>
      </trkpt>
      <trkpt lat="45.75533" lon="6.70744">
        <ele>1837.22</ele>
        <time>2017-08-29T15:33:09Z</time>
      </trkpt>
      <trkpt lat="45.75534" lon="6.70744">
        <ele>1837.22</ele>
        <time>2017-08-29T15:33:10Z</time>
      </trkpt>
      <trkpt lat="45.7554" lon="6.70749">
        <ele>1835.29</ele>
        <time>2017-08-29T15:33:15Z</time>
      </trkpt>
      <trkpt lat="45.75541" lon="6.70749">
        <ele>1834.81</ele>
        <time>2017-08-29T15:33:16Z</time>
      </trkpt>
      <trkpt lat="45.75542" lon="6.7075">
        <ele>1834.81</ele>
        <time>2017-08-29T15:33:17Z</time>
      </trkpt>
      <trkpt lat="45.75544" lon="6.70754">
        <ele>1833.85</ele>
        <time>2017-08-29T15:33:19Z</time>
      </trkpt>
      <trkpt lat="45.75545" lon="6.70756">
        <ele>1833.37</ele>
        <time>2017-08-29T15:33:20Z</time>
      </trkpt>
      <trkpt lat="45.75546" lon="6.70757">
        <ele>1833.37</ele>
        <time>2017-08-29T15:33:21Z</time>
      </trkpt>
      <trkpt lat="45.75547" lon="6.7076">
        <ele>1832.89</ele>
        <time>2017-08-29T15:33:22Z</time>
      </trkpt>
      <trkpt lat="45.75549" lon="6.70761">
        <ele>1832.41</ele>
        <time>2017-08-29T15:33:23Z</time>
      </trkpt>
      <trkpt lat="45.75551" lon="6.70762">
        <ele>1832.41</ele>
        <time>2017-08-29T15:33:24Z</time>
      </trkpt>
      <trkpt lat="45.75553" lon="6.70764">
        <ele>1831.93</ele>
        <time>2017-08-29T15:33:25Z</time>
      </trkpt>
      <trkpt lat="45.75555" lon="6.70765">
        <ele>1830.97</ele>
        <time>2017-08-29T15:33:26Z</time>
      </trkpt>
      <trkpt lat="45.75557" lon="6.70766">
        <ele>1830.97</ele>
        <time>2017-08-29T15:33:27Z</time>
      </trkpt>
      <trkpt lat="45.75559" lon="6.70768">
        <ele>1830.49</ele>
        <time>2017-08-29T15:33:28Z</time>
      </trkpt>
      <trkpt lat="45.75561" lon="6.70769">
        <ele>1830.01</ele>
        <time>2017-08-29T15:33:29Z</time>
      </trkpt>
      <trkpt lat="45.75571" lon="6.70779">
        <ele>1826.64</ele>
        <time>2017-08-29T15:33:36Z</time>
      </trkpt>
      <trkpt lat="45.75574" lon="6.70783">
        <ele>1826.16</ele>
        <time>2017-08-29T15:33:38Z</time>
      </trkpt>
      <trkpt lat="45.75588" lon="6.7079">
        <ele>1822.8</ele>
        <time>2017-08-29T15:33:46Z</time>
      </trkpt>
      <trkpt lat="45.75601" lon="6.70799">
        <ele>1819.43</ele>
        <time>2017-08-29T15:33:52Z</time>
      </trkpt>
      <trkpt lat="45.75606" lon="6.70804">
        <ele>1818.47</ele>
        <time>2017-08-29T15:33:55Z</time>
      </trkpt>
      <trkpt lat="45.75618" lon="6.70817">
        <ele>1815.11</ele>
        <time>2017-08-29T15:34:02Z</time>
      </trkpt>
      <trkpt lat="45.75628" lon="6.7083">
        <ele>1812.22</ele>
        <time>2017-08-29T15:34:09Z</time>
      </trkpt>
      <trkpt lat="45.7564" lon="6.70843">
        <ele>1808.86</ele>
        <time>2017-08-29T15:34:16Z</time>
      </trkpt>
      <trkpt lat="45.75651" lon="6.70861">
        <ele>1805.97</ele>
        <time>2017-08-29T15:34:24Z</time>
      </trkpt>
      <trkpt lat="45.75664" lon="6.70878">
        <ele>1802.61</ele>
        <time>2017-08-29T15:34:32Z</time>
      </trkpt>
      <trkpt lat="45.75675" lon="6.70899">
        <ele>1799.24</ele>
        <time>2017-08-29T15:34:41Z</time>
      </trkpt>
      <trkpt lat="45.75679" lon="6.70915">
        <ele>1796.84</ele>
        <time>2017-08-29T15:34:47Z</time>
      </trkpt>
      <trkpt lat="45.75685" lon="6.70934">
        <ele>1793.96</ele>
        <time>2017-08-29T15:34:54Z</time>
      </trkpt>
      <trkpt lat="45.75691" lon="6.70955">
        <ele>1790.59</ele>
        <time>2017-08-29T15:35:01Z</time>
      </trkpt>
      <trkpt lat="45.75696" lon="6.7098">
        <ele>1787.23</ele>
        <time>2017-08-29T15:35:09Z</time>
      </trkpt>
      <trkpt lat="45.75697" lon="6.70986">
        <ele>1786.27</ele>
        <time>2017-08-29T15:35:11Z</time>
      </trkpt>
      <trkpt lat="45.75698" lon="6.71011">
        <ele>1783.38</ele>
        <time>2017-08-29T15:35:19Z</time>
      </trkpt>
      <trkpt lat="45.75701" lon="6.71025">
        <ele>1780.98</ele>
        <time>2017-08-29T15:35:24Z</time>
      </trkpt>
      <trkpt lat="45.75708" lon="6.71043">
        <ele>1778.1</ele>
        <time>2017-08-29T15:35:31Z</time>
      </trkpt>
      <trkpt lat="45.75721" lon="6.71058">
        <ele>1774.73</ele>
        <time>2017-08-29T15:35:38Z</time>
      </trkpt>
      <trkpt lat="45.7574" lon="6.71069">
        <ele>1771.85</ele>
        <time>2017-08-29T15:35:46Z</time>
      </trkpt>
      <trkpt lat="45.75752" lon="6.71079">
        <ele>1769.44</ele>
        <time>2017-08-29T15:35:52Z</time>
      </trkpt>
      <trkpt lat="45.75751" lon="6.7108">
        <ele>1768.96</ele>
        <time>2017-08-29T15:35:53Z</time>
      </trkpt>
      <trkpt lat="45.75749" lon="6.7108">
        <ele>1768.96</ele>
        <time>2017-08-29T15:36:00Z</time>
      </trkpt>
      <trkpt lat="45.75751" lon="6.7108">
        <ele>1768.96</ele>
        <time>2017-08-29T15:36:03Z</time>
      </trkpt>
      <trkpt lat="45.75752" lon="6.7108">
        <ele>1768.48</ele>
        <time>2017-08-29T15:36:04Z</time>
      </trkpt>
      <trkpt lat="45.75753" lon="6.71082">
        <ele>1768.96</ele>
        <time>2017-08-29T15:36:06Z</time>
      </trkpt>
      <trkpt lat="45.75754" lon="6.71084">
        <ele>1768.96</ele>
        <time>2017-08-29T15:36:07Z</time>
      </trkpt>
      <trkpt lat="45.75755" lon="6.71085">
        <ele>1768.96</ele>
        <time>2017-08-29T15:36:08Z</time>
      </trkpt>
      <trkpt lat="45.75756" lon="6.71086">
        <ele>1768.48</ele>
        <time>2017-08-29T15:36:09Z</time>
      </trkpt>
      <trkpt lat="45.75757" lon="6.71088">
        <ele>1768.48</ele>
        <time>2017-08-29T15:36:10Z</time>
      </trkpt>
      <trkpt lat="45.75771" lon="6.711">
        <ele>1765.6</ele>
        <time>2017-08-29T15:36:18Z</time>
      </trkpt>
      <trkpt lat="45.7579" lon="6.71113">
        <ele>1763.68</ele>
        <time>2017-08-29T15:36:26Z</time>
      </trkpt>
      <trkpt lat="45.75805" lon="6.71107">
        <ele>1761.27</ele>
        <time>2017-08-29T15:36:34Z</time>
      </trkpt>
      <trkpt lat="45.75809" lon="6.71095">
        <ele>1759.83</ele>
        <time>2017-08-29T15:36:42Z</time>
      </trkpt>
      <trkpt lat="45.7581" lon="6.71095">
        <ele>1759.83</ele>
        <time>2017-08-29T15:36:43Z</time>
      </trkpt>
      <trkpt lat="45.75814" lon="6.71094">
        <ele>1759.35</ele>
        <time>2017-08-29T15:36:48Z</time>
      </trkpt>
      <trkpt lat="45.75815" lon="6.71095">
        <ele>1759.35</ele>
        <time>2017-08-29T15:36:49Z</time>
      </trkpt>
      <trkpt lat="45.75815" lon="6.71096">
        <ele>1759.35</ele>
        <time>2017-08-29T15:36:50Z</time>
      </trkpt>
      <trkpt lat="45.75815" lon="6.71098">
        <ele>1759.35</ele>
        <time>2017-08-29T15:36:51Z</time>
      </trkpt>
      <trkpt lat="45.75815" lon="6.711">
        <ele>1758.87</ele>
        <time>2017-08-29T15:36:52Z</time>
      </trkpt>
      <trkpt lat="45.75817" lon="6.71105">
        <ele>1758.39</ele>
        <time>2017-08-29T15:37:01Z</time>
      </trkpt>
      <trkpt lat="45.75819" lon="6.71099">
        <ele>1757.91</ele>
        <time>2017-08-29T15:37:18Z</time>
      </trkpt>
      <trkpt lat="45.75818" lon="6.711">
        <ele>1757.91</ele>
        <time>2017-08-29T15:37:24Z</time>
      </trkpt>
      <trkpt lat="45.75818" lon="6.711">
        <ele>1758.39</ele>
        <time>2017-08-29T15:37:27Z</time>
      </trkpt>
      <trkpt lat="45.75817" lon="6.711">
        <ele>1758.39</ele>
        <time>2017-08-29T15:37:30Z</time>
      </trkpt>
      <trkpt lat="45.75817" lon="6.711">
        <ele>1757.91</ele>
        <time>2017-08-29T15:37:36Z</time>
      </trkpt>
      <trkpt lat="45.75814" lon="6.71106">
        <ele>1758.87</ele>
        <time>2017-08-29T15:38:04Z</time>
      </trkpt>
      <trkpt lat="45.75814" lon="6.71107">
        <ele>1758.87</ele>
        <time>2017-08-29T15:38:05Z</time>
      </trkpt>
      <trkpt lat="45.75815" lon="6.71101">
        <ele>1757.91</ele>
        <time>2017-08-29T15:38:31Z</time>
      </trkpt>
      <trkpt lat="45.75815" lon="6.711">
        <ele>1757.91</ele>
        <time>2017-08-29T15:38:36Z</time>
      </trkpt>
      <trkpt lat="45.75814" lon="6.711">
        <ele>1757.91</ele>
        <time>2017-08-29T15:38:46Z</time>
      </trkpt>
      <trkpt lat="45.75815" lon="6.71099">
        <ele>1757.91</ele>
        <time>2017-08-29T15:38:57Z</time>
      </trkpt>
      <trkpt lat="45.75815" lon="6.711">
        <ele>1758.39</ele>
        <time>2017-08-29T15:39:33Z</time>
      </trkpt>
      <trkpt lat="45.75815" lon="6.711">
        <ele>1757.91</ele>
        <time>2017-08-29T15:39:54Z</time>
      </trkpt>
      <trkpt lat="45.75815" lon="6.711">
        <ele>1757.91</ele>
        <time>2017-08-29T15:40:06Z</time>
      </trkpt>
      <trkpt lat="45.75815" lon="6.71099">
        <ele>1757.91</ele>
        <time>2017-08-29T15:40:10Z</time>
      </trkpt>
      <trkpt lat="45.75814" lon="6.711">
        <ele>1758.39</ele>
        <time>2017-08-29T15:40:16Z</time>
      </trkpt>
      <trkpt lat="45.75814" lon="6.71099">
        <ele>1757.91</ele>
        <time>2017-08-29T15:40:39Z</time>
      </trkpt>
      <trkpt lat="45.75814" lon="6.711">
        <ele>1757.91</ele>
        <time>2017-08-29T15:40:45Z</time>
      </trkpt>
      <trkpt lat="45.75814" lon="6.711">
        <ele>1757.91</ele>
        <time>2017-08-29T15:40:52Z</time>
      </trkpt>
      <trkpt lat="45.75813" lon="6.71099">
        <ele>1757.91</ele>
        <time>2017-08-29T15:41:28Z</time>
      </trkpt>
      <trkpt lat="45.75814" lon="6.71099">
        <ele>1757.91</ele>
        <time>2017-08-29T15:41:39Z</time>
      </trkpt>
      <trkpt lat="45.75814" lon="6.71101">
        <ele>1757.91</ele>
        <time>2017-08-29T15:42:14Z</time>
      </trkpt>
      <trkpt lat="45.75814" lon="6.71101">
        <ele>1757.91</ele>
        <time>2017-08-29T15:42:19Z</time>
      </trkpt>
      <trkpt lat="45.75815" lon="6.71101">
        <ele>1757.91</ele>
        <time>2017-08-29T15:42:32Z</time>
      </trkpt>
      <trkpt lat="45.75815" lon="6.71101">
        <ele>1757.91</ele>
        <time>2017-08-29T15:42:44Z</time>
      </trkpt>
      <trkpt lat="45.75816" lon="6.711">
        <ele>1757.91</ele>
        <time>2017-08-29T15:42:58Z</time>
      </trkpt>
      <trkpt lat="45.75815" lon="6.71101">
        <ele>1757.91</ele>
        <time>2017-08-29T15:43:38Z</time>
      </trkpt>
      <trkpt lat="45.75814" lon="6.71103">
        <ele>1757.91</ele>
        <time>2017-08-29T15:44:09Z</time>
      </trkpt>
      <trkpt lat="45.75814" lon="6.71103">
        <ele>1757.91</ele>
        <time>2017-08-29T15:44:15Z</time>
      </trkpt>
      <trkpt lat="45.75814" lon="6.71102">
        <ele>1758.39</ele>
        <time>2017-08-29T15:44:23Z</time>
      </trkpt>
      <trkpt lat="45.75816" lon="6.71101">
        <ele>1757.91</ele>
        <time>2017-08-29T15:44:43Z</time>
      </trkpt>
      <trkpt lat="45.75816" lon="6.711">
        <ele>1757.91</ele>
        <time>2017-08-29T15:44:53Z</time>
      </trkpt>
      <trkpt lat="45.75816" lon="6.711">
        <ele>1757.91</ele>
        <time>2017-08-29T15:45:04Z</time>
      </trkpt>
      <trkpt lat="45.75816" lon="6.711">
        <ele>1757.91</ele>
        <time>2017-08-29T15:45:14Z</time>
      </trkpt>
      <trkpt lat="45.75816" lon="6.711">
        <ele>1757.91</ele>
        <time>2017-08-29T15:45:19Z</time>
      </trkpt>
      <trkpt lat="45.75816" lon="6.711">
        <ele>1757.91</ele>
        <time>2017-08-29T15:46:14Z</time>
      </trkpt>
      <trkpt lat="45.75816" lon="6.711">
        <ele>1757.91</ele>
        <time>2017-08-29T15:46:17Z</time>
      </trkpt>
      <trkpt lat="45.75817" lon="6.711">
        <ele>1757.91</ele>
        <time>2017-08-29T15:46:59Z</time>
      </trkpt>
      <trkpt lat="45.75817" lon="6.711">
        <ele>1757.91</ele>
        <time>2017-08-29T15:47:08Z</time>
      </trkpt>
      <trkpt lat="45.75817" lon="6.711">
        <ele>1757.91</ele>
        <time>2017-08-29T15:47:17Z</time>
      </trkpt>
      <trkpt lat="45.75817" lon="6.711">
        <ele>1757.91</ele>
        <time>2017-08-29T15:47:34Z</time>
      </trkpt>
      <trkpt lat="45.75817" lon="6.711">
        <ele>1757.91</ele>
        <time>2017-08-29T15:47:48Z</time>
      </trkpt>
      <trkpt lat="45.75817" lon="6.711">
        <ele>1758.39</ele>
        <time>2017-08-29T15:48:18Z</time>
      </trkpt>
      <trkpt lat="45.75817" lon="6.71099">
        <ele>1758.39</ele>
        <time>2017-08-29T15:48:38Z</time>
      </trkpt>
      <trkpt lat="45.75817" lon="6.711">
        <ele>1759.35</ele>
        <time>2017-08-29T15:48:47Z</time>
      </trkpt>
      <trkpt lat="45.75817" lon="6.71102">
        <ele>1759.35</ele>
        <time>2017-08-29T15:48:51Z</time>
      </trkpt>
      <trkpt lat="45.75817" lon="6.71102">
        <ele>1759.35</ele>
        <time>2017-08-29T15:48:53Z</time>
      </trkpt>
      <trkpt lat="45.75817" lon="6.71101">
        <ele>1759.35</ele>
        <time>2017-08-29T15:49:37Z</time>
      </trkpt>
      <trkpt lat="45.75816" lon="6.71101">
        <ele>1758.87</ele>
        <time>2017-08-29T15:49:42Z</time>
      </trkpt>
      <trkpt lat="45.75816" lon="6.711">
        <ele>1759.35</ele>
        <time>2017-08-29T15:49:45Z</time>
      </trkpt>
      <trkpt lat="45.75816" lon="6.711">
        <ele>1759.35</ele>
        <time>2017-08-29T15:49:48Z</time>
      </trkpt>
      <trkpt lat="45.75816" lon="6.71101">
        <ele>1758.87</ele>
        <time>2017-08-29T15:49:51Z</time>
      </trkpt>
      <trkpt lat="45.75816" lon="6.711">
        <ele>1758.87</ele>
        <time>2017-08-29T15:49:55Z</time>
      </trkpt>
      <trkpt lat="45.75813" lon="6.71096">
        <ele>1759.83</ele>
        <time>2017-08-29T15:50:00Z</time>
      </trkpt>
      <trkpt lat="45.75812" lon="6.71095">
        <ele>1760.31</ele>
        <time>2017-08-29T15:50:01Z</time>
      </trkpt>
      <trkpt lat="45.75808" lon="6.71076">
        <ele>1760.79</ele>
        <time>2017-08-29T15:50:08Z</time>
      </trkpt>
      <trkpt lat="45.75811" lon="6.71073">
        <ele>1759.83</ele>
        <time>2017-08-29T15:50:09Z</time>
      </trkpt>
      <trkpt lat="45.75814" lon="6.71071">
        <ele>1759.83</ele>
        <time>2017-08-29T15:50:10Z</time>
      </trkpt>
      <trkpt lat="45.75816" lon="6.7107">
        <ele>1759.35</ele>
        <time>2017-08-29T15:50:11Z</time>
      </trkpt>
      <trkpt lat="45.75819" lon="6.7107">
        <ele>1758.39</ele>
        <time>2017-08-29T15:50:12Z</time>
      </trkpt>
      <trkpt lat="45.75822" lon="6.7107">
        <ele>1758.39</ele>
        <time>2017-08-29T15:50:13Z</time>
      </trkpt>
      <trkpt lat="45.75825" lon="6.7107">
        <ele>1757.43</ele>
        <time>2017-08-29T15:50:14Z</time>
      </trkpt>
      <trkpt lat="45.75829" lon="6.71071">
        <ele>1757.43</ele>
        <time>2017-08-29T15:50:15Z</time>
      </trkpt>
      <trkpt lat="45.75831" lon="6.71073">
        <ele>1756.47</ele>
        <time>2017-08-29T15:50:16Z</time>
      </trkpt>
      <trkpt lat="45.75834" lon="6.71074">
        <ele>1755.99</ele>
        <time>2017-08-29T15:50:17Z</time>
      </trkpt>
      <trkpt lat="45.75837" lon="6.71076">
        <ele>1755.5</ele>
        <time>2017-08-29T15:50:18Z</time>
      </trkpt>
      <trkpt lat="45.75841" lon="6.71077">
        <ele>1755.02</ele>
        <time>2017-08-29T15:50:19Z</time>
      </trkpt>
      <trkpt lat="45.75846" lon="6.71078">
        <ele>1754.06</ele>
        <time>2017-08-29T15:50:21Z</time>
      </trkpt>
      <trkpt lat="45.75852" lon="6.71079">
        <ele>1752.62</ele>
        <time>2017-08-29T15:50:23Z</time>
      </trkpt>
      <trkpt lat="45.75858" lon="6.71078">
        <ele>1750.7</ele>
        <time>2017-08-29T15:50:25Z</time>
      </trkpt>
      <trkpt lat="45.75868" lon="6.71072">
        <ele>1748.29</ele>
        <time>2017-08-29T15:50:28Z</time>
      </trkpt>
      <trkpt lat="45.75883" lon="6.71062">
        <ele>1746.37</ele>
        <time>2017-08-29T15:50:32Z</time>
      </trkpt>
      <trkpt lat="45.75902" lon="6.71046">
        <ele>1743.97</ele>
        <time>2017-08-29T15:50:39Z</time>
      </trkpt>
      <trkpt lat="45.75916" lon="6.7105">
        <ele>1740.6</ele>
        <time>2017-08-29T15:50:44Z</time>
      </trkpt>
      <trkpt lat="45.75929" lon="6.7106">
        <ele>1737.24</ele>
        <time>2017-08-29T15:50:49Z</time>
      </trkpt>
      <trkpt lat="45.75941" lon="6.7107">
        <ele>1733.88</ele>
        <time>2017-08-29T15:50:54Z</time>
      </trkpt>
      <trkpt lat="45.75957" lon="6.7108">
        <ele>1730.51</ele>
        <time>2017-08-29T15:51:01Z</time>
      </trkpt>
      <trkpt lat="45.75971" lon="6.71095">
        <ele>1727.15</ele>
        <time>2017-08-29T15:51:07Z</time>
      </trkpt>
      <trkpt lat="45.75987" lon="6.71107">
        <ele>1723.78</ele>
        <time>2017-08-29T15:51:13Z</time>
      </trkpt>
      <trkpt lat="45.76" lon="6.71118">
        <ele>1720.42</ele>
        <time>2017-08-29T15:51:18Z</time>
      </trkpt>
      <trkpt lat="45.76009" lon="6.71123">
        <ele>1717.05</ele>
        <time>2017-08-29T15:51:22Z</time>
      </trkpt>
      <trkpt lat="45.76019" lon="6.71124">
        <ele>1714.17</ele>
        <time>2017-08-29T15:51:27Z</time>
      </trkpt>
      <trkpt lat="45.7603" lon="6.71114">
        <ele>1710.8</ele>
        <time>2017-08-29T15:51:32Z</time>
      </trkpt>
      <trkpt lat="45.76046" lon="6.71107">
        <ele>1707.44</ele>
        <time>2017-08-29T15:51:38Z</time>
      </trkpt>
      <trkpt lat="45.76064" lon="6.711">
        <ele>1704.55</ele>
        <time>2017-08-29T15:51:44Z</time>
      </trkpt>
      <trkpt lat="45.76081" lon="6.71097">
        <ele>1701.19</ele>
        <time>2017-08-29T15:51:49Z</time>
      </trkpt>
      <trkpt lat="45.76084" lon="6.71095">
        <ele>1701.19</ele>
        <time>2017-08-29T15:51:50Z</time>
      </trkpt>
      <trkpt lat="45.76105" lon="6.71095">
        <ele>1697.83</ele>
        <time>2017-08-29T15:51:57Z</time>
      </trkpt>
      <trkpt lat="45.76124" lon="6.71107">
        <ele>1693.98</ele>
        <time>2017-08-29T15:52:04Z</time>
      </trkpt>
      <trkpt lat="45.76129" lon="6.7111">
        <ele>1693.02</ele>
        <time>2017-08-29T15:52:06Z</time>
      </trkpt>
      <trkpt lat="45.76148" lon="6.71124">
        <ele>1690.14</ele>
        <time>2017-08-29T15:52:12Z</time>
      </trkpt>
      <trkpt lat="45.76166" lon="6.71127">
        <ele>1687.25</ele>
        <time>2017-08-29T15:52:18Z</time>
      </trkpt>
      <trkpt lat="45.76183" lon="6.71132">
        <ele>1683.89</ele>
        <time>2017-08-29T15:52:24Z</time>
      </trkpt>
      <trkpt lat="45.76203" lon="6.71131">
        <ele>1680.52</ele>
        <time>2017-08-29T15:52:31Z</time>
      </trkpt>
      <trkpt lat="45.76221" lon="6.71134">
        <ele>1677.64</ele>
        <time>2017-08-29T15:52:37Z</time>
      </trkpt>
      <trkpt lat="45.76242" lon="6.71144">
        <ele>1674.75</ele>
        <time>2017-08-29T15:52:44Z</time>
      </trkpt>
      <trkpt lat="45.76249" lon="6.71147">
        <ele>1673.79</ele>
        <time>2017-08-29T15:52:46Z</time>
      </trkpt>
      <trkpt lat="45.76258" lon="6.71151">
        <ele>1672.83</ele>
        <time>2017-08-29T15:52:49Z</time>
      </trkpt>
      <trkpt lat="45.76271" lon="6.71157">
        <ele>1670.91</ele>
        <time>2017-08-29T15:52:53Z</time>
      </trkpt>
      <trkpt lat="45.76289" lon="6.71172">
        <ele>1668.99</ele>
        <time>2017-08-29T15:52:59Z</time>
      </trkpt>
      <trkpt lat="45.76307" lon="6.71182">
        <ele>1666.58</ele>
        <time>2017-08-29T15:53:05Z</time>
      </trkpt>
      <trkpt lat="45.76322" lon="6.71185">
        <ele>1665.14</ele>
        <time>2017-08-29T15:53:09Z</time>
      </trkpt>
      <trkpt lat="45.76341" lon="6.71193">
        <ele>1663.22</ele>
        <time>2017-08-29T15:53:15Z</time>
      </trkpt>
      <trkpt lat="45.76361" lon="6.71196">
        <ele>1660.33</ele>
        <time>2017-08-29T15:53:21Z</time>
      </trkpt>
      <trkpt lat="45.76372" lon="6.71199">
        <ele>1658.89</ele>
        <time>2017-08-29T15:53:24Z</time>
      </trkpt>
      <trkpt lat="45.76391" lon="6.7121">
        <ele>1656.97</ele>
        <time>2017-08-29T15:53:30Z</time>
      </trkpt>
      <trkpt lat="45.76413" lon="6.71219">
        <ele>1655.05</ele>
        <time>2017-08-29T15:53:36Z</time>
      </trkpt>
      <trkpt lat="45.76433" lon="6.71227">
        <ele>1653.6</ele>
        <time>2017-08-29T15:53:42Z</time>
      </trkpt>
      <trkpt lat="45.76453" lon="6.71231">
        <ele>1652.16</ele>
        <time>2017-08-29T15:53:49Z</time>
      </trkpt>
      <trkpt lat="45.76473" lon="6.71233">
        <ele>1651.2</ele>
        <time>2017-08-29T15:53:55Z</time>
      </trkpt>
      <trkpt lat="45.76492" lon="6.71244">
        <ele>1650.72</ele>
        <time>2017-08-29T15:54:01Z</time>
      </trkpt>
      <trkpt lat="45.76511" lon="6.71254">
        <ele>1648.8</ele>
        <time>2017-08-29T15:54:07Z</time>
      </trkpt>
      <trkpt lat="45.7653" lon="6.7126">
        <ele>1647.84</ele>
        <time>2017-08-29T15:54:13Z</time>
      </trkpt>
      <trkpt lat="45.76549" lon="6.71269">
        <ele>1646.4</ele>
        <time>2017-08-29T15:54:20Z</time>
      </trkpt>
      <trkpt lat="45.7657" lon="6.71276">
        <ele>1643.99</ele>
        <time>2017-08-29T15:54:26Z</time>
      </trkpt>
      <trkpt lat="45.7659" lon="6.71282">
        <ele>1643.03</ele>
        <time>2017-08-29T15:54:33Z</time>
      </trkpt>
      <trkpt lat="45.76609" lon="6.71289">
        <ele>1641.59</ele>
        <time>2017-08-29T15:54:40Z</time>
      </trkpt>
      <trkpt lat="45.76629" lon="6.71296">
        <ele>1639.19</ele>
        <time>2017-08-29T15:54:46Z</time>
      </trkpt>
      <trkpt lat="45.76647" lon="6.71301">
        <ele>1637.26</ele>
        <time>2017-08-29T15:54:52Z</time>
      </trkpt>
      <trkpt lat="45.76666" lon="6.71306">
        <ele>1635.82</ele>
        <time>2017-08-29T15:54:58Z</time>
      </trkpt>
      <trkpt lat="45.76688" lon="6.71315">
        <ele>1633.9</ele>
        <time>2017-08-29T15:55:05Z</time>
      </trkpt>
      <trkpt lat="45.76707" lon="6.71333">
        <ele>1633.42</ele>
        <time>2017-08-29T15:55:12Z</time>
      </trkpt>
      <trkpt lat="45.76724" lon="6.7135">
        <ele>1632.46</ele>
        <time>2017-08-29T15:55:19Z</time>
      </trkpt>
      <trkpt lat="45.76741" lon="6.71367">
        <ele>1631.98</ele>
        <time>2017-08-29T15:55:26Z</time>
      </trkpt>
      <trkpt lat="45.76759" lon="6.71383">
        <ele>1631.98</ele>
        <time>2017-08-29T15:55:33Z</time>
      </trkpt>
      <trkpt lat="45.76778" lon="6.71398">
        <ele>1632.46</ele>
        <time>2017-08-29T15:55:40Z</time>
      </trkpt>
      <trkpt lat="45.76799" lon="6.71409">
        <ele>1631.49</ele>
        <time>2017-08-29T15:55:47Z</time>
      </trkpt>
      <trkpt lat="45.76819" lon="6.71417">
        <ele>1629.57</ele>
        <time>2017-08-29T15:55:54Z</time>
      </trkpt>
      <trkpt lat="45.76837" lon="6.71428">
        <ele>1629.09</ele>
        <time>2017-08-29T15:56:01Z</time>
      </trkpt>
      <trkpt lat="45.76859" lon="6.71441">
        <ele>1628.13</ele>
        <time>2017-08-29T15:56:08Z</time>
      </trkpt>
      <trkpt lat="45.76881" lon="6.71451">
        <ele>1627.17</ele>
        <time>2017-08-29T15:56:15Z</time>
      </trkpt>
      <trkpt lat="45.76903" lon="6.71459">
        <ele>1626.21</ele>
        <time>2017-08-29T15:56:22Z</time>
      </trkpt>
      <trkpt lat="45.76924" lon="6.71466">
        <ele>1625.25</ele>
        <time>2017-08-29T15:56:29Z</time>
      </trkpt>
      <trkpt lat="45.76943" lon="6.7147">
        <ele>1624.28</ele>
        <time>2017-08-29T15:56:36Z</time>
      </trkpt>
      <trkpt lat="45.76962" lon="6.71473">
        <ele>1622.84</ele>
        <time>2017-08-29T15:56:43Z</time>
      </trkpt>
      <trkpt lat="45.76985" lon="6.71474">
        <ele>1621.88</ele>
        <time>2017-08-29T15:56:51Z</time>
      </trkpt>
      <trkpt lat="45.77006" lon="6.71481">
        <ele>1621.4</ele>
        <time>2017-08-29T15:56:58Z</time>
      </trkpt>
      <trkpt lat="45.77026" lon="6.71497">
        <ele>1621.4</ele>
        <time>2017-08-29T15:57:05Z</time>
      </trkpt>
      <trkpt lat="45.77046" lon="6.71512">
        <ele>1622.84</ele>
        <time>2017-08-29T15:57:13Z</time>
      </trkpt>
      <trkpt lat="45.77067" lon="6.71526">
        <ele>1622.84</ele>
        <time>2017-08-29T15:57:21Z</time>
      </trkpt>
      <trkpt lat="45.77086" lon="6.71535">
        <ele>1623.32</ele>
        <time>2017-08-29T15:57:28Z</time>
      </trkpt>
      <trkpt lat="45.77106" lon="6.71538">
        <ele>1623.8</ele>
        <time>2017-08-29T15:57:36Z</time>
      </trkpt>
      <trkpt lat="45.77128" lon="6.71541">
        <ele>1624.28</ele>
        <time>2017-08-29T15:57:44Z</time>
      </trkpt>
      <trkpt lat="45.77147" lon="6.71558">
        <ele>1623.32</ele>
        <time>2017-08-29T15:57:52Z</time>
      </trkpt>
      <trkpt lat="45.77162" lon="6.71571">
        <ele>1621.4</ele>
        <time>2017-08-29T15:57:58Z</time>
      </trkpt>
      <trkpt lat="45.77185" lon="6.71575">
        <ele>1619.96</ele>
        <time>2017-08-29T15:58:06Z</time>
      </trkpt>
      <trkpt lat="45.77206" lon="6.71575">
        <ele>1619</ele>
        <time>2017-08-29T15:58:13Z</time>
      </trkpt>
      <trkpt lat="45.77227" lon="6.71571">
        <ele>1619</ele>
        <time>2017-08-29T15:58:20Z</time>
      </trkpt>
      <trkpt lat="45.7725" lon="6.71569">
        <ele>1618.04</ele>
        <time>2017-08-29T15:58:28Z</time>
      </trkpt>
      <trkpt lat="45.77278" lon="6.71569">
        <ele>1618.04</ele>
        <time>2017-08-29T15:58:38Z</time>
      </trkpt>
      <trkpt lat="45.773" lon="6.71574">
        <ele>1618.04</ele>
        <time>2017-08-29T15:58:46Z</time>
      </trkpt>
      <trkpt lat="45.77322" lon="6.71584">
        <ele>1616.59</ele>
        <time>2017-08-29T15:58:54Z</time>
      </trkpt>
      <trkpt lat="45.77345" lon="6.71589">
        <ele>1615.15</ele>
        <time>2017-08-29T15:59:02Z</time>
      </trkpt>
      <trkpt lat="45.77368" lon="6.7159">
        <ele>1613.23</ele>
        <time>2017-08-29T15:59:09Z</time>
      </trkpt>
      <trkpt lat="45.7739" lon="6.71588">
        <ele>1611.31</ele>
        <time>2017-08-29T15:59:16Z</time>
      </trkpt>
      <trkpt lat="45.77415" lon="6.71588">
        <ele>1610.83</ele>
        <time>2017-08-29T15:59:23Z</time>
      </trkpt>
      <trkpt lat="45.77436" lon="6.71583">
        <ele>1607.94</ele>
        <time>2017-08-29T15:59:31Z</time>
      </trkpt>
      <trkpt lat="45.77458" lon="6.71579">
        <ele>1606.02</ele>
        <time>2017-08-29T15:59:38Z</time>
      </trkpt>
      <trkpt lat="45.77473" lon="6.71582">
        <ele>1604.1</ele>
        <time>2017-08-29T15:59:44Z</time>
      </trkpt>
      <trkpt lat="45.77476" lon="6.71582">
        <ele>1603.62</ele>
        <time>2017-08-29T15:59:45Z</time>
      </trkpt>
      <trkpt lat="45.77478" lon="6.71582">
        <ele>1603.14</ele>
        <time>2017-08-29T15:59:46Z</time>
      </trkpt>
      <trkpt lat="45.77481" lon="6.71581">
        <ele>1603.14</ele>
        <time>2017-08-29T15:59:47Z</time>
      </trkpt>
      <trkpt lat="45.77485" lon="6.71581">
        <ele>1602.66</ele>
        <time>2017-08-29T15:59:48Z</time>
      </trkpt>
      <trkpt lat="45.77488" lon="6.71581">
        <ele>1602.17</ele>
        <time>2017-08-29T15:59:49Z</time>
      </trkpt>
      <trkpt lat="45.7749" lon="6.71582">
        <ele>1601.21</ele>
        <time>2017-08-29T15:59:50Z</time>
      </trkpt>
      <trkpt lat="45.77492" lon="6.71583">
        <ele>1601.21</ele>
        <time>2017-08-29T15:59:51Z</time>
      </trkpt>
      <trkpt lat="45.77495" lon="6.71583">
        <ele>1600.73</ele>
        <time>2017-08-29T15:59:52Z</time>
      </trkpt>
      <trkpt lat="45.77497" lon="6.71583">
        <ele>1599.77</ele>
        <time>2017-08-29T15:59:53Z</time>
      </trkpt>
      <trkpt lat="45.77508" lon="6.71583">
        <ele>1596.89</ele>
        <time>2017-08-29T15:59:58Z</time>
      </trkpt>
      <trkpt lat="45.77522" lon="6.71581">
        <ele>1593.52</ele>
        <time>2017-08-29T16:00:03Z</time>
      </trkpt>
      <trkpt lat="45.77532" lon="6.71576">
        <ele>1591.6</ele>
        <time>2017-08-29T16:00:07Z</time>
      </trkpt>
      <trkpt lat="45.77533" lon="6.71573">
        <ele>1591.6</ele>
        <time>2017-08-29T16:00:08Z</time>
      </trkpt>
      <trkpt lat="45.77545" lon="6.71561">
        <ele>1588.24</ele>
        <time>2017-08-29T16:00:14Z</time>
      </trkpt>
      <trkpt lat="45.77564" lon="6.71547">
        <ele>1584.87</ele>
        <time>2017-08-29T16:00:21Z</time>
      </trkpt>
      <trkpt lat="45.77576" lon="6.71528">
        <ele>1581.51</ele>
        <time>2017-08-29T16:00:26Z</time>
      </trkpt>
      <trkpt lat="45.77592" lon="6.71512">
        <ele>1578.62</ele>
        <time>2017-08-29T16:00:33Z</time>
      </trkpt>
      <trkpt lat="45.7761" lon="6.71504">
        <ele>1576.22</ele>
        <time>2017-08-29T16:00:40Z</time>
      </trkpt>
      <trkpt lat="45.77632" lon="6.71491">
        <ele>1573.33</ele>
        <time>2017-08-29T16:00:47Z</time>
      </trkpt>
      <trkpt lat="45.77651" lon="6.71485">
        <ele>1571.41</ele>
        <time>2017-08-29T16:00:53Z</time>
      </trkpt>
      <trkpt lat="45.77672" lon="6.71487">
        <ele>1568.05</ele>
        <time>2017-08-29T16:01:01Z</time>
      </trkpt>
      <trkpt lat="45.77683" lon="6.71484">
        <ele>1564.68</ele>
        <time>2017-08-29T16:01:06Z</time>
      </trkpt>
      <trkpt lat="45.77695" lon="6.71472">
        <ele>1561.8</ele>
        <time>2017-08-29T16:01:11Z</time>
      </trkpt>
      <trkpt lat="45.77715" lon="6.71458">
        <ele>1558.43</ele>
        <time>2017-08-29T16:01:18Z</time>
      </trkpt>
      <trkpt lat="45.77729" lon="6.71448">
        <ele>1555.55</ele>
        <time>2017-08-29T16:01:25Z</time>
      </trkpt>
      <trkpt lat="45.77745" lon="6.71445">
        <ele>1552.19</ele>
        <time>2017-08-29T16:01:31Z</time>
      </trkpt>
      <trkpt lat="45.7775" lon="6.71445">
        <ele>1551.22</ele>
        <time>2017-08-29T16:01:33Z</time>
      </trkpt>
      <trkpt lat="45.77761" lon="6.71439">
        <ele>1547.86</ele>
        <time>2017-08-29T16:01:38Z</time>
      </trkpt>
      <trkpt lat="45.77765" lon="6.71437">
        <ele>1546.42</ele>
        <time>2017-08-29T16:01:40Z</time>
      </trkpt>
      <trkpt lat="45.77767" lon="6.71435">
        <ele>1546.42</ele>
        <time>2017-08-29T16:01:41Z</time>
      </trkpt>
      <trkpt lat="45.7777" lon="6.71433">
        <ele>1545.94</ele>
        <time>2017-08-29T16:01:42Z</time>
      </trkpt>
      <trkpt lat="45.77785" lon="6.71427">
        <ele>1543.05</ele>
        <time>2017-08-29T16:01:47Z</time>
      </trkpt>
      <trkpt lat="45.77803" lon="6.71429">
        <ele>1539.69</ele>
        <time>2017-08-29T16:01:56Z</time>
      </trkpt>
      <trkpt lat="45.77814" lon="6.71453">
        <ele>1536.32</ele>
        <time>2017-08-29T16:02:03Z</time>
      </trkpt>
      <trkpt lat="45.77828" lon="6.71475">
        <ele>1532.96</ele>
        <time>2017-08-29T16:02:10Z</time>
      </trkpt>
      <trkpt lat="45.77843" lon="6.71489">
        <ele>1529.59</ele>
        <time>2017-08-29T16:02:17Z</time>
      </trkpt>
      <trkpt lat="45.77857" lon="6.7149">
        <ele>1527.19</ele>
        <time>2017-08-29T16:02:22Z</time>
      </trkpt>
      <trkpt lat="45.7786" lon="6.7149">
        <ele>1527.19</ele>
        <time>2017-08-29T16:02:23Z</time>
      </trkpt>
      <trkpt lat="45.77863" lon="6.7149">
        <ele>1526.23</ele>
        <time>2017-08-29T16:02:24Z</time>
      </trkpt>
      <trkpt lat="45.77876" lon="6.7149">
        <ele>1523.83</ele>
        <time>2017-08-29T16:02:28Z</time>
      </trkpt>
      <trkpt lat="45.77878" lon="6.71492">
        <ele>1523.83</ele>
        <time>2017-08-29T16:02:29Z</time>
      </trkpt>
      <trkpt lat="45.77881" lon="6.71492">
        <ele>1523.35</ele>
        <time>2017-08-29T16:02:30Z</time>
      </trkpt>
      <trkpt lat="45.77884" lon="6.71492">
        <ele>1523.35</ele>
        <time>2017-08-29T16:02:31Z</time>
      </trkpt>
      <trkpt lat="45.77887" lon="6.71492">
        <ele>1522.39</ele>
        <time>2017-08-29T16:02:32Z</time>
      </trkpt>
      <trkpt lat="45.7789" lon="6.71493">
        <ele>1521.9</ele>
        <time>2017-08-29T16:02:33Z</time>
      </trkpt>
      <trkpt lat="45.77894" lon="6.71493">
        <ele>1521.9</ele>
        <time>2017-08-29T16:02:34Z</time>
      </trkpt>
      <trkpt lat="45.77909" lon="6.71493">
        <ele>1519.5</ele>
        <time>2017-08-29T16:02:39Z</time>
      </trkpt>
      <trkpt lat="45.77932" lon="6.71487">
        <ele>1516.14</ele>
        <time>2017-08-29T16:02:46Z</time>
      </trkpt>
      <trkpt lat="45.77943" lon="6.71483">
        <ele>1514.21</ele>
        <time>2017-08-29T16:02:50Z</time>
      </trkpt>
      <trkpt lat="45.77958" lon="6.7147">
        <ele>1511.81</ele>
        <time>2017-08-29T16:02:56Z</time>
      </trkpt>
      <trkpt lat="45.77965" lon="6.71469">
        <ele>1510.37</ele>
        <time>2017-08-29T16:02:59Z</time>
      </trkpt>
      <trkpt lat="45.7798" lon="6.71475">
        <ele>1507</ele>
        <time>2017-08-29T16:03:06Z</time>
      </trkpt>
      <trkpt lat="45.77981" lon="6.71477">
        <ele>1506.04</ele>
        <time>2017-08-29T16:03:07Z</time>
      </trkpt>
      <trkpt lat="45.77984" lon="6.71479">
        <ele>1505.56</ele>
        <time>2017-08-29T16:03:08Z</time>
      </trkpt>
      <trkpt lat="45.77986" lon="6.71481">
        <ele>1504.6</ele>
        <time>2017-08-29T16:03:09Z</time>
      </trkpt>
      <trkpt lat="45.77988" lon="6.71482">
        <ele>1504.12</ele>
        <time>2017-08-29T16:03:10Z</time>
      </trkpt>
      <trkpt lat="45.7799" lon="6.71483">
        <ele>1503.64</ele>
        <time>2017-08-29T16:03:11Z</time>
      </trkpt>
      <trkpt lat="45.77992" lon="6.71485">
        <ele>1503.64</ele>
        <time>2017-08-29T16:03:12Z</time>
      </trkpt>
      <trkpt lat="45.77993" lon="6.71486">
        <ele>1503.64</ele>
        <time>2017-08-29T16:03:13Z</time>
      </trkpt>
      <trkpt lat="45.77998" lon="6.7149">
        <ele>1501.72</ele>
        <time>2017-08-29T16:03:16Z</time>
      </trkpt>
      <trkpt lat="45.78" lon="6.71491">
        <ele>1501.72</ele>
        <time>2017-08-29T16:03:17Z</time>
      </trkpt>
      <trkpt lat="45.78002" lon="6.71491">
        <ele>1500.76</ele>
        <time>2017-08-29T16:03:18Z</time>
      </trkpt>
      <trkpt lat="45.78003" lon="6.71493">
        <ele>1499.79</ele>
        <time>2017-08-29T16:03:19Z</time>
      </trkpt>
      <trkpt lat="45.78005" lon="6.71494">
        <ele>1499.79</ele>
        <time>2017-08-29T16:03:20Z</time>
      </trkpt>
      <trkpt lat="45.78008" lon="6.71494">
        <ele>1499.79</ele>
        <time>2017-08-29T16:03:21Z</time>
      </trkpt>
      <trkpt lat="45.78011" lon="6.71494">
        <ele>1499.31</ele>
        <time>2017-08-29T16:03:22Z</time>
      </trkpt>
      <trkpt lat="45.78014" lon="6.71494">
        <ele>1498.83</ele>
        <time>2017-08-29T16:03:23Z</time>
      </trkpt>
      <trkpt lat="45.78017" lon="6.71494">
        <ele>1497.39</ele>
        <time>2017-08-29T16:03:24Z</time>
      </trkpt>
      <trkpt lat="45.78021" lon="6.71494">
        <ele>1497.39</ele>
        <time>2017-08-29T16:03:25Z</time>
      </trkpt>
      <trkpt lat="45.7804" lon="6.71498">
        <ele>1494.03</ele>
        <time>2017-08-29T16:03:32Z</time>
      </trkpt>
      <trkpt lat="45.78058" lon="6.71506">
        <ele>1490.66</ele>
        <time>2017-08-29T16:03:38Z</time>
      </trkpt>
      <trkpt lat="45.78076" lon="6.71512">
        <ele>1487.78</ele>
        <time>2017-08-29T16:03:44Z</time>
      </trkpt>
      <trkpt lat="45.78092" lon="6.71514">
        <ele>1484.41</ele>
        <time>2017-08-29T16:03:50Z</time>
      </trkpt>
      <trkpt lat="45.78098" lon="6.71513">
        <ele>1483.93</ele>
        <time>2017-08-29T16:03:52Z</time>
      </trkpt>
      <trkpt lat="45.78114" lon="6.71518">
        <ele>1480.57</ele>
        <time>2017-08-29T16:03:58Z</time>
      </trkpt>
      <trkpt lat="45.7813" lon="6.71532">
        <ele>1476.72</ele>
        <time>2017-08-29T16:04:04Z</time>
      </trkpt>
      <trkpt lat="45.78135" lon="6.71534">
        <ele>1475.28</ele>
        <time>2017-08-29T16:04:06Z</time>
      </trkpt>
      <trkpt lat="45.78142" lon="6.71535">
        <ele>1473.84</ele>
        <time>2017-08-29T16:04:08Z</time>
      </trkpt>
      <trkpt lat="45.78147" lon="6.71537">
        <ele>1472.88</ele>
        <time>2017-08-29T16:04:10Z</time>
      </trkpt>
      <trkpt lat="45.78152" lon="6.71539">
        <ele>1472.88</ele>
        <time>2017-08-29T16:04:12Z</time>
      </trkpt>
      <trkpt lat="45.78155" lon="6.71538">
        <ele>1472.88</ele>
        <time>2017-08-29T16:04:13Z</time>
      </trkpt>
      <trkpt lat="45.78175" lon="6.71527">
        <ele>1470.95</ele>
        <time>2017-08-29T16:04:20Z</time>
      </trkpt>
      <trkpt lat="45.78189" lon="6.7152">
        <ele>1467.59</ele>
        <time>2017-08-29T16:04:26Z</time>
      </trkpt>
      <trkpt lat="45.78206" lon="6.71514">
        <ele>1464.23</ele>
        <time>2017-08-29T16:04:32Z</time>
      </trkpt>
      <trkpt lat="45.78224" lon="6.71503">
        <ele>1461.82</ele>
        <time>2017-08-29T16:04:39Z</time>
      </trkpt>
      <trkpt lat="45.78227" lon="6.71502">
        <ele>1460.86</ele>
        <time>2017-08-29T16:04:40Z</time>
      </trkpt>
      <trkpt lat="45.7823" lon="6.715">
        <ele>1460.38</ele>
        <time>2017-08-29T16:04:41Z</time>
      </trkpt>
      <trkpt lat="45.78232" lon="6.71499">
        <ele>1459.42</ele>
        <time>2017-08-29T16:04:42Z</time>
      </trkpt>
      <trkpt lat="45.78235" lon="6.71498">
        <ele>1459.42</ele>
        <time>2017-08-29T16:04:43Z</time>
      </trkpt>
      <trkpt lat="45.78239" lon="6.71497">
        <ele>1458.94</ele>
        <time>2017-08-29T16:04:44Z</time>
      </trkpt>
      <trkpt lat="45.78243" lon="6.71496">
        <ele>1458.46</ele>
        <time>2017-08-29T16:04:45Z</time>
      </trkpt>
      <trkpt lat="45.78246" lon="6.71498">
        <ele>1457.98</ele>
        <time>2017-08-29T16:04:46Z</time>
      </trkpt>
      <trkpt lat="45.78249" lon="6.71498">
        <ele>1457.98</ele>
        <time>2017-08-29T16:04:47Z</time>
      </trkpt>
      <trkpt lat="45.78251" lon="6.71499">
        <ele>1457.5</ele>
        <time>2017-08-29T16:04:48Z</time>
      </trkpt>
      <trkpt lat="45.78254" lon="6.715">
        <ele>1457.5</ele>
        <time>2017-08-29T16:04:49Z</time>
      </trkpt>
      <trkpt lat="45.78256" lon="6.71501">
        <ele>1457.02</ele>
        <time>2017-08-29T16:04:50Z</time>
      </trkpt>
      <trkpt lat="45.78279" lon="6.7149">
        <ele>1454.61</ele>
        <time>2017-08-29T16:04:58Z</time>
      </trkpt>
      <trkpt lat="45.78294" lon="6.71471">
        <ele>1452.21</ele>
        <time>2017-08-29T16:05:04Z</time>
      </trkpt>
      <trkpt lat="45.78307" lon="6.71458">
        <ele>1451.25</ele>
        <time>2017-08-29T16:05:08Z</time>
      </trkpt>
      <trkpt lat="45.78318" lon="6.71449">
        <ele>1451.25</ele>
        <time>2017-08-29T16:05:12Z</time>
      </trkpt>
      <trkpt lat="45.78319" lon="6.71445">
        <ele>1451.25</ele>
        <time>2017-08-29T16:05:13Z</time>
      </trkpt>
      <trkpt lat="45.78321" lon="6.71441">
        <ele>1451.25</ele>
        <time>2017-08-29T16:05:14Z</time>
      </trkpt>
      <trkpt lat="45.78323" lon="6.71437">
        <ele>1451.25</ele>
        <time>2017-08-29T16:05:15Z</time>
      </trkpt>
      <trkpt lat="45.78326" lon="6.71433">
        <ele>1451.25</ele>
        <time>2017-08-29T16:05:16Z</time>
      </trkpt>
      <trkpt lat="45.78328" lon="6.71429">
        <ele>1451.25</ele>
        <time>2017-08-29T16:05:17Z</time>
      </trkpt>
      <trkpt lat="45.7833" lon="6.71421">
        <ele>1450.77</ele>
        <time>2017-08-29T16:05:19Z</time>
      </trkpt>
      <trkpt lat="45.78332" lon="6.71417">
        <ele>1450.77</ele>
        <time>2017-08-29T16:05:20Z</time>
      </trkpt>
      <trkpt lat="45.78334" lon="6.71415">
        <ele>1450.77</ele>
        <time>2017-08-29T16:05:21Z</time>
      </trkpt>
      <trkpt lat="45.78336" lon="6.71412">
        <ele>1450.77</ele>
        <time>2017-08-29T16:05:22Z</time>
      </trkpt>
      <trkpt lat="45.78338" lon="6.7141">
        <ele>1450.77</ele>
        <time>2017-08-29T16:05:23Z</time>
      </trkpt>
      <trkpt lat="45.7834" lon="6.71406">
        <ele>1450.77</ele>
        <time>2017-08-29T16:05:24Z</time>
      </trkpt>
      <trkpt lat="45.78342" lon="6.71402">
        <ele>1450.29</ele>
        <time>2017-08-29T16:05:25Z</time>
      </trkpt>
      <trkpt lat="45.78353" lon="6.71373">
        <ele>1447.4</ele>
        <time>2017-08-29T16:05:32Z</time>
      </trkpt>
      <trkpt lat="45.78356" lon="6.7137">
        <ele>1446.92</ele>
        <time>2017-08-29T16:05:33Z</time>
      </trkpt>
      <trkpt lat="45.78371" lon="6.71349">
        <ele>1445.96</ele>
        <time>2017-08-29T16:05:41Z</time>
      </trkpt>
      <trkpt lat="45.78374" lon="6.71342">
        <ele>1444.04</ele>
        <time>2017-08-29T16:05:46Z</time>
      </trkpt>
      <trkpt lat="45.78373" lon="6.71343">
        <ele>1444.04</ele>
        <time>2017-08-29T16:05:49Z</time>
      </trkpt>
      <trkpt lat="45.7837" lon="6.71342">
        <ele>1443.56</ele>
        <time>2017-08-29T16:05:52Z</time>
      </trkpt>
      <trkpt lat="45.7837" lon="6.71343">
        <ele>1443.08</ele>
        <time>2017-08-29T16:05:53Z</time>
      </trkpt>
      <trkpt lat="45.78368" lon="6.71343">
        <ele>1442.6</ele>
        <time>2017-08-29T16:05:56Z</time>
      </trkpt>
      <trkpt lat="45.78368" lon="6.71344">
        <ele>1442.6</ele>
        <time>2017-08-29T16:05:58Z</time>
      </trkpt>
      <trkpt lat="45.78369" lon="6.71344">
        <ele>1443.08</ele>
        <time>2017-08-29T16:06:01Z</time>
      </trkpt>
      <trkpt lat="45.78369" lon="6.71345">
        <ele>1443.08</ele>
        <time>2017-08-29T16:06:03Z</time>
      </trkpt>
      <trkpt lat="45.7837" lon="6.71346">
        <ele>1443.56</ele>
        <time>2017-08-29T16:06:05Z</time>
      </trkpt>
      <trkpt lat="45.78371" lon="6.71345">
        <ele>1443.56</ele>
        <time>2017-08-29T16:06:06Z</time>
      </trkpt>
      <trkpt lat="45.78384" lon="6.71321">
        <ele>1442.6</ele>
        <time>2017-08-29T16:06:14Z</time>
      </trkpt>
      <trkpt lat="45.78387" lon="6.71319">
        <ele>1442.11</ele>
        <time>2017-08-29T16:06:15Z</time>
      </trkpt>
      <trkpt lat="45.78392" lon="6.71318">
        <ele>1441.63</ele>
        <time>2017-08-29T16:06:16Z</time>
      </trkpt>
      <trkpt lat="45.78396" lon="6.71316">
        <ele>1441.63</ele>
        <time>2017-08-29T16:06:17Z</time>
      </trkpt>
      <trkpt lat="45.78401" lon="6.71316">
        <ele>1441.63</ele>
        <time>2017-08-29T16:06:18Z</time>
      </trkpt>
      <trkpt lat="45.78414" lon="6.71311">
        <ele>1441.15</ele>
        <time>2017-08-29T16:06:22Z</time>
      </trkpt>
      <trkpt lat="45.78435" lon="6.71295">
        <ele>1439.23</ele>
        <time>2017-08-29T16:06:30Z</time>
      </trkpt>
      <trkpt lat="45.78446" lon="6.71281">
        <ele>1436.83</ele>
        <time>2017-08-29T16:06:35Z</time>
      </trkpt>
      <trkpt lat="45.7845" lon="6.71277">
        <ele>1435.87</ele>
        <time>2017-08-29T16:06:37Z</time>
      </trkpt>
      <trkpt lat="45.78453" lon="6.71277">
        <ele>1435.87</ele>
        <time>2017-08-29T16:06:38Z</time>
      </trkpt>
      <trkpt lat="45.78455" lon="6.71276">
        <ele>1435.39</ele>
        <time>2017-08-29T16:06:39Z</time>
      </trkpt>
      <trkpt lat="45.78457" lon="6.71275">
        <ele>1434.42</ele>
        <time>2017-08-29T16:06:40Z</time>
      </trkpt>
      <trkpt lat="45.78459" lon="6.71274">
        <ele>1433.94</ele>
        <time>2017-08-29T16:06:41Z</time>
      </trkpt>
      <trkpt lat="45.78461" lon="6.71274">
        <ele>1432.98</ele>
        <time>2017-08-29T16:06:42Z</time>
      </trkpt>
      <trkpt lat="45.78463" lon="6.71274">
        <ele>1432.5</ele>
        <time>2017-08-29T16:06:43Z</time>
      </trkpt>
      <trkpt lat="45.78464" lon="6.71274">
        <ele>1432.02</ele>
        <time>2017-08-29T16:06:44Z</time>
      </trkpt>
      <trkpt lat="45.78466" lon="6.71273">
        <ele>1432.02</ele>
        <time>2017-08-29T16:06:45Z</time>
      </trkpt>
      <trkpt lat="45.78469" lon="6.71273">
        <ele>1432.02</ele>
        <time>2017-08-29T16:06:46Z</time>
      </trkpt>
      <trkpt lat="45.7847" lon="6.71272">
        <ele>1432.02</ele>
        <time>2017-08-29T16:06:47Z</time>
      </trkpt>
      <trkpt lat="45.78472" lon="6.7127">
        <ele>1431.06</ele>
        <time>2017-08-29T16:06:48Z</time>
      </trkpt>
      <trkpt lat="45.78474" lon="6.71269">
        <ele>1430.1</ele>
        <time>2017-08-29T16:06:49Z</time>
      </trkpt>
      <trkpt lat="45.78481" lon="6.71267">
        <ele>1427.21</ele>
        <time>2017-08-29T16:06:52Z</time>
      </trkpt>
      <trkpt lat="45.7849" lon="6.71263">
        <ele>1425.77</ele>
        <time>2017-08-29T16:06:55Z</time>
      </trkpt>
      <trkpt lat="45.7851" lon="6.71262">
        <ele>1422.41</ele>
        <time>2017-08-29T16:07:01Z</time>
      </trkpt>
      <trkpt lat="45.78524" lon="6.71267">
        <ele>1419.52</ele>
        <time>2017-08-29T16:07:06Z</time>
      </trkpt>
      <trkpt lat="45.78548" lon="6.71271">
        <ele>1417.12</ele>
        <time>2017-08-29T16:07:14Z</time>
      </trkpt>
      <trkpt lat="45.7856" lon="6.71272">
        <ele>1415.68</ele>
        <time>2017-08-29T16:07:18Z</time>
      </trkpt>
      <trkpt lat="45.78581" lon="6.71283">
        <ele>1412.79</ele>
        <time>2017-08-29T16:07:27Z</time>
      </trkpt>
      <trkpt lat="45.7859" lon="6.71286">
        <ele>1412.31</ele>
        <time>2017-08-29T16:07:30Z</time>
      </trkpt>
      <trkpt lat="45.78593" lon="6.71286">
        <ele>1411.83</ele>
        <time>2017-08-29T16:07:31Z</time>
      </trkpt>
      <trkpt lat="45.78595" lon="6.71286">
        <ele>1410.87</ele>
        <time>2017-08-29T16:07:32Z</time>
      </trkpt>
      <trkpt lat="45.78597" lon="6.71285">
        <ele>1410.39</ele>
        <time>2017-08-29T16:07:33Z</time>
      </trkpt>
      <trkpt lat="45.78599" lon="6.71284">
        <ele>1409.91</ele>
        <time>2017-08-29T16:07:34Z</time>
      </trkpt>
      <trkpt lat="45.78602" lon="6.71283">
        <ele>1408.95</ele>
        <time>2017-08-29T16:07:35Z</time>
      </trkpt>
      <trkpt lat="45.78604" lon="6.71283">
        <ele>1408.95</ele>
        <time>2017-08-29T16:07:36Z</time>
      </trkpt>
      <trkpt lat="45.78607" lon="6.71282">
        <ele>1408.47</ele>
        <time>2017-08-29T16:07:37Z</time>
      </trkpt>
      <trkpt lat="45.78611" lon="6.71281">
        <ele>1407.99</ele>
        <time>2017-08-29T16:07:38Z</time>
      </trkpt>
      <trkpt lat="45.78626" lon="6.71281">
        <ele>1404.62</ele>
        <time>2017-08-29T16:07:43Z</time>
      </trkpt>
      <trkpt lat="45.78643" lon="6.71293">
        <ele>1401.26</ele>
        <time>2017-08-29T16:07:50Z</time>
      </trkpt>
      <trkpt lat="45.78656" lon="6.71299">
        <ele>1397.89</ele>
        <time>2017-08-29T16:07:55Z</time>
      </trkpt>
      <trkpt lat="45.78666" lon="6.71313">
        <ele>1394.53</ele>
        <time>2017-08-29T16:08:00Z</time>
      </trkpt>
      <trkpt lat="45.78667" lon="6.71315">
        <ele>1394.53</ele>
        <time>2017-08-29T16:08:01Z</time>
      </trkpt>
      <trkpt lat="45.78679" lon="6.71319">
        <ele>1391.17</ele>
        <time>2017-08-29T16:08:06Z</time>
      </trkpt>
      <trkpt lat="45.78695" lon="6.71326">
        <ele>1388.76</ele>
        <time>2017-08-29T16:08:11Z</time>
      </trkpt>
      <trkpt lat="45.78711" lon="6.71334">
        <ele>1387.32</ele>
        <time>2017-08-29T16:08:16Z</time>
      </trkpt>
      <trkpt lat="45.78714" lon="6.71336">
        <ele>1386.84</ele>
        <time>2017-08-29T16:08:17Z</time>
      </trkpt>
      <trkpt lat="45.78719" lon="6.71338">
        <ele>1386.84</ele>
        <time>2017-08-29T16:08:18Z</time>
      </trkpt>
      <trkpt lat="45.78731" lon="6.71344">
        <ele>1385.4</ele>
        <time>2017-08-29T16:08:21Z</time>
      </trkpt>
      <trkpt lat="45.78755" lon="6.71355">
        <ele>1383.47</ele>
        <time>2017-08-29T16:08:28Z</time>
      </trkpt>
      <trkpt lat="45.78781" lon="6.7137">
        <ele>1382.03</ele>
        <time>2017-08-29T16:08:36Z</time>
      </trkpt>
      <trkpt lat="45.78804" lon="6.71388">
        <ele>1379.63</ele>
        <time>2017-08-29T16:08:45Z</time>
      </trkpt>
      <trkpt lat="45.7881" lon="6.71392">
        <ele>1379.15</ele>
        <time>2017-08-29T16:08:47Z</time>
      </trkpt>
      <trkpt lat="45.78826" lon="6.71404">
        <ele>1375.78</ele>
        <time>2017-08-29T16:08:53Z</time>
      </trkpt>
      <trkpt lat="45.7885" lon="6.71413">
        <ele>1372.42</ele>
        <time>2017-08-29T16:09:01Z</time>
      </trkpt>
      <trkpt lat="45.78881" lon="6.71424">
        <ele>1370.98</ele>
        <time>2017-08-29T16:09:09Z</time>
      </trkpt>
      <trkpt lat="45.78907" lon="6.71435">
        <ele>1368.57</ele>
        <time>2017-08-29T16:09:16Z</time>
      </trkpt>
      <trkpt lat="45.78929" lon="6.71445">
        <ele>1367.61</ele>
        <time>2017-08-29T16:09:24Z</time>
      </trkpt>
      <trkpt lat="45.78942" lon="6.71454">
        <ele>1366.17</ele>
        <time>2017-08-29T16:09:30Z</time>
      </trkpt>
      <trkpt lat="45.78944" lon="6.71455">
        <ele>1365.21</ele>
        <time>2017-08-29T16:09:31Z</time>
      </trkpt>
      <trkpt lat="45.78946" lon="6.71456">
        <ele>1364.73</ele>
        <time>2017-08-29T16:09:32Z</time>
      </trkpt>
      <trkpt lat="45.78948" lon="6.71457">
        <ele>1363.77</ele>
        <time>2017-08-29T16:09:33Z</time>
      </trkpt>
      <trkpt lat="45.78949" lon="6.71457">
        <ele>1363.29</ele>
        <time>2017-08-29T16:09:34Z</time>
      </trkpt>
      <trkpt lat="45.78951" lon="6.71457">
        <ele>1362.81</ele>
        <time>2017-08-29T16:09:35Z</time>
      </trkpt>
      <trkpt lat="45.78953" lon="6.71458">
        <ele>1361.84</ele>
        <time>2017-08-29T16:09:36Z</time>
      </trkpt>
      <trkpt lat="45.78955" lon="6.71457">
        <ele>1361.36</ele>
        <time>2017-08-29T16:09:37Z</time>
      </trkpt>
      <trkpt lat="45.78965" lon="6.7146">
        <ele>1358</ele>
        <time>2017-08-29T16:09:41Z</time>
      </trkpt>
      <trkpt lat="45.78967" lon="6.71463">
        <ele>1357.52</ele>
        <time>2017-08-29T16:09:42Z</time>
      </trkpt>
      <trkpt lat="45.78976" lon="6.71472">
        <ele>1354.63</ele>
        <time>2017-08-29T16:09:47Z</time>
      </trkpt>
      <trkpt lat="45.78982" lon="6.71477">
        <ele>1353.19</ele>
        <time>2017-08-29T16:09:50Z</time>
      </trkpt>
      <trkpt lat="45.78984" lon="6.71478">
        <ele>1352.23</ele>
        <time>2017-08-29T16:09:51Z</time>
      </trkpt>
      <trkpt lat="45.78986" lon="6.7148">
        <ele>1351.27</ele>
        <time>2017-08-29T16:09:52Z</time>
      </trkpt>
      <trkpt lat="45.78989" lon="6.71482">
        <ele>1350.31</ele>
        <time>2017-08-29T16:09:54Z</time>
      </trkpt>
      <trkpt lat="45.78998" lon="6.71487">
        <ele>1347.43</ele>
        <time>2017-08-29T16:09:58Z</time>
      </trkpt>
      <trkpt lat="45.79009" lon="6.71493">
        <ele>1344.06</ele>
        <time>2017-08-29T16:10:03Z</time>
      </trkpt>
      <trkpt lat="45.7902" lon="6.715">
        <ele>1341.18</ele>
        <time>2017-08-29T16:10:07Z</time>
      </trkpt>
      <trkpt lat="45.79025" lon="6.71505">
        <ele>1340.22</ele>
        <time>2017-08-29T16:10:09Z</time>
      </trkpt>
      <trkpt lat="45.79039" lon="6.71516">
        <ele>1337.33</ele>
        <time>2017-08-29T16:10:14Z</time>
      </trkpt>
      <trkpt lat="45.79041" lon="6.71518">
        <ele>1336.85</ele>
        <time>2017-08-29T16:10:15Z</time>
      </trkpt>
      <trkpt lat="45.79044" lon="6.71519">
        <ele>1336.85</ele>
        <time>2017-08-29T16:10:16Z</time>
      </trkpt>
      <trkpt lat="45.79046" lon="6.71522">
        <ele>1336.37</ele>
        <time>2017-08-29T16:10:17Z</time>
      </trkpt>
      <trkpt lat="45.79049" lon="6.71524">
        <ele>1335.41</ele>
        <time>2017-08-29T16:10:18Z</time>
      </trkpt>
      <trkpt lat="45.79057" lon="6.7153">
        <ele>1333.49</ele>
        <time>2017-08-29T16:10:22Z</time>
      </trkpt>
      <trkpt lat="45.79067" lon="6.71534">
        <ele>1330.12</ele>
        <time>2017-08-29T16:10:27Z</time>
      </trkpt>
      <trkpt lat="45.79069" lon="6.71536">
        <ele>1329.16</ele>
        <time>2017-08-29T16:10:28Z</time>
      </trkpt>
      <trkpt lat="45.79071" lon="6.71537">
        <ele>1328.68</ele>
        <time>2017-08-29T16:10:29Z</time>
      </trkpt>
      <trkpt lat="45.79079" lon="6.71544">
        <ele>1325.31</ele>
        <time>2017-08-29T16:10:34Z</time>
      </trkpt>
      <trkpt lat="45.79085" lon="6.71551">
        <ele>1322.91</ele>
        <time>2017-08-29T16:10:38Z</time>
      </trkpt>
      <trkpt lat="45.79088" lon="6.71554">
        <ele>1321.95</ele>
        <time>2017-08-29T16:10:40Z</time>
      </trkpt>
      <trkpt lat="45.79089" lon="6.71555">
        <ele>1320.99</ele>
        <time>2017-08-29T16:10:41Z</time>
      </trkpt>
      <trkpt lat="45.79091" lon="6.71556">
        <ele>1320.99</ele>
        <time>2017-08-29T16:10:42Z</time>
      </trkpt>
      <trkpt lat="45.79093" lon="6.71557">
        <ele>1320.03</ele>
        <time>2017-08-29T16:10:43Z</time>
      </trkpt>
      <trkpt lat="45.79095" lon="6.71558">
        <ele>1319.07</ele>
        <time>2017-08-29T16:10:44Z</time>
      </trkpt>
      <trkpt lat="45.79106" lon="6.71567">
        <ele>1315.7</ele>
        <time>2017-08-29T16:10:49Z</time>
      </trkpt>
      <trkpt lat="45.79117" lon="6.71576">
        <ele>1312.82</ele>
        <time>2017-08-29T16:10:55Z</time>
      </trkpt>
      <trkpt lat="45.79118" lon="6.71577">
        <ele>1311.86</ele>
        <time>2017-08-29T16:10:56Z</time>
      </trkpt>
      <trkpt lat="45.79132" lon="6.7159">
        <ele>1308.97</ele>
        <time>2017-08-29T16:11:03Z</time>
      </trkpt>
      <trkpt lat="45.79141" lon="6.71603">
        <ele>1305.61</ele>
        <time>2017-08-29T16:11:08Z</time>
      </trkpt>
      <trkpt lat="45.79151" lon="6.71614">
        <ele>1303.69</ele>
        <time>2017-08-29T16:11:13Z</time>
      </trkpt>
      <trkpt lat="45.79168" lon="6.71634">
        <ele>1301.76</ele>
        <time>2017-08-29T16:11:20Z</time>
      </trkpt>
      <trkpt lat="45.79183" lon="6.71655">
        <ele>1300.8</ele>
        <time>2017-08-29T16:11:28Z</time>
      </trkpt>
      <trkpt lat="45.79191" lon="6.7167">
        <ele>1300.32</ele>
        <time>2017-08-29T16:11:33Z</time>
      </trkpt>
      <trkpt lat="45.79204" lon="6.71698">
        <ele>1299.84</ele>
        <time>2017-08-29T16:11:41Z</time>
      </trkpt>
      <trkpt lat="45.79232" lon="6.71718">
        <ele>1299.36</ele>
        <time>2017-08-29T16:11:49Z</time>
      </trkpt>
      <trkpt lat="45.79253" lon="6.7174">
        <ele>1298.4</ele>
        <time>2017-08-29T16:11:56Z</time>
      </trkpt>
      <trkpt lat="45.79274" lon="6.71765">
        <ele>1297.44</ele>
        <time>2017-08-29T16:12:04Z</time>
      </trkpt>
      <trkpt lat="45.79297" lon="6.71784">
        <ele>1296.96</ele>
        <time>2017-08-29T16:12:11Z</time>
      </trkpt>
      <trkpt lat="45.79317" lon="6.71805">
        <ele>1296.48</ele>
        <time>2017-08-29T16:12:18Z</time>
      </trkpt>
      <trkpt lat="45.7932" lon="6.71809">
        <ele>1295.99</ele>
        <time>2017-08-29T16:12:19Z</time>
      </trkpt>
      <trkpt lat="45.79324" lon="6.71812">
        <ele>1295.99</ele>
        <time>2017-08-29T16:12:20Z</time>
      </trkpt>
      <trkpt lat="45.79327" lon="6.71815">
        <ele>1295.99</ele>
        <time>2017-08-29T16:12:21Z</time>
      </trkpt>
      <trkpt lat="45.79329" lon="6.71817">
        <ele>1295.99</ele>
        <time>2017-08-29T16:12:22Z</time>
      </trkpt>
      <trkpt lat="45.79331" lon="6.71819">
        <ele>1295.99</ele>
        <time>2017-08-29T16:12:23Z</time>
      </trkpt>
      <trkpt lat="45.79352" lon="6.71837">
        <ele>1295.03</ele>
        <time>2017-08-29T16:12:32Z</time>
      </trkpt>
      <trkpt lat="45.79379" lon="6.71834">
        <ele>1294.07</ele>
        <time>2017-08-29T16:12:42Z</time>
      </trkpt>
      <trkpt lat="45.79399" lon="6.71825">
        <ele>1293.59</ele>
        <time>2017-08-29T16:12:48Z</time>
      </trkpt>
      <trkpt lat="45.79417" lon="6.7181">
        <ele>1292.63</ele>
        <time>2017-08-29T16:12:55Z</time>
      </trkpt>
      <trkpt lat="45.79426" lon="6.71784">
        <ele>1294.07</ele>
        <time>2017-08-29T16:13:06Z</time>
      </trkpt>
      <trkpt lat="45.79425" lon="6.71771">
        <ele>1294.07</ele>
        <time>2017-08-29T16:13:13Z</time>
      </trkpt>
      <trkpt lat="45.79421" lon="6.71761">
        <ele>1293.59</ele>
        <time>2017-08-29T16:13:18Z</time>
      </trkpt>
    </trkseg>
  </trk>
</gpx>